<?xml version="1.0" encoding="UTF-8" standalone="no" ?>
<gpx xmlns="http://www.topografix.com/GPX/1/1" xmlns:xsi="http://www.w3.org/2001/XMLSchema-instance" xsi:schemaLocation="http://www.topografix.com/GPX/1/1 http://www.topografix.com/GPX/1/1/gpx.xsd" version="1.1" creator="VisuGPX - https://www.visugpx.com">
  <metadata>
    <name>Launay - la Roche Turpin</name>
  </metadata>
  <trk>
    <name><![CDATA[Launay - la Roche Turpin_1]]></name>
    <trkseg>
      <trkpt lat="48.61529" lon="2.10908">
        <ele>93</ele>
        <time>2019-10-28T09:07:00.000Z</time>
      </trkpt>
      <trkpt lat="48.61529" lon="2.10909">
        <ele>94</ele>
        <time>2019-10-28T09:07:01.000Z</time>
      </trkpt>
      <trkpt lat="48.61529" lon="2.10911">
        <ele>94</ele>
        <time>2019-10-28T09:07:02.000Z</time>
      </trkpt>
      <trkpt lat="48.61529" lon="2.10913">
        <ele>95</ele>
        <time>2019-10-28T09:07:03.000Z</time>
      </trkpt>
      <trkpt lat="48.6153" lon="2.10916">
        <ele>95</ele>
        <time>2019-10-28T09:07:04.000Z</time>
      </trkpt>
      <trkpt lat="48.6153" lon="2.10918">
        <ele>96</ele>
        <time>2019-10-28T09:07:05.000Z</time>
      </trkpt>
      <trkpt lat="48.61531" lon="2.1092">
        <ele>95</ele>
        <time>2019-10-28T09:07:06.000Z</time>
      </trkpt>
      <trkpt lat="48.61531" lon="2.10922">
        <ele>96</ele>
        <time>2019-10-28T09:07:07.000Z</time>
      </trkpt>
      <trkpt lat="48.61532" lon="2.10924">
        <ele>96</ele>
        <time>2019-10-28T09:07:08.000Z</time>
      </trkpt>
      <trkpt lat="48.61532" lon="2.10927">
        <ele>95</ele>
        <time>2019-10-28T09:07:09.000Z</time>
      </trkpt>
      <trkpt lat="48.61532" lon="2.10929">
        <ele>95</ele>
        <time>2019-10-28T09:07:10.000Z</time>
      </trkpt>
      <trkpt lat="48.61532" lon="2.10931">
        <ele>95</ele>
        <time>2019-10-28T09:07:11.000Z</time>
      </trkpt>
      <trkpt lat="48.61532" lon="2.10933">
        <ele>95</ele>
        <time>2019-10-28T09:07:12.000Z</time>
      </trkpt>
      <trkpt lat="48.61533" lon="2.10935">
        <ele>96</ele>
        <time>2019-10-28T09:07:13.000Z</time>
      </trkpt>
      <trkpt lat="48.61533" lon="2.10937">
        <ele>95</ele>
        <time>2019-10-28T09:07:14.000Z</time>
      </trkpt>
      <trkpt lat="48.61533" lon="2.1094">
        <ele>95</ele>
        <time>2019-10-28T09:07:15.000Z</time>
      </trkpt>
      <trkpt lat="48.61533" lon="2.10942">
        <ele>95</ele>
        <time>2019-10-28T09:07:16.000Z</time>
      </trkpt>
      <trkpt lat="48.61532" lon="2.10944">
        <ele>95</ele>
        <time>2019-10-28T09:07:17.000Z</time>
      </trkpt>
      <trkpt lat="48.61532" lon="2.10946">
        <ele>96</ele>
        <time>2019-10-28T09:07:18.000Z</time>
      </trkpt>
      <trkpt lat="48.61532" lon="2.10948">
        <ele>96</ele>
        <time>2019-10-28T09:07:19.000Z</time>
      </trkpt>
      <trkpt lat="48.61531" lon="2.1095">
        <ele>96</ele>
        <time>2019-10-28T09:07:20.000Z</time>
      </trkpt>
      <trkpt lat="48.61531" lon="2.10952">
        <ele>96</ele>
        <time>2019-10-28T09:07:21.000Z</time>
      </trkpt>
      <trkpt lat="48.6153" lon="2.10954">
        <ele>96</ele>
        <time>2019-10-28T09:07:22.000Z</time>
      </trkpt>
      <trkpt lat="48.6153" lon="2.10956">
        <ele>96</ele>
        <time>2019-10-28T09:07:23.000Z</time>
      </trkpt>
      <trkpt lat="48.61529" lon="2.10958">
        <ele>96</ele>
        <time>2019-10-28T09:07:24.000Z</time>
      </trkpt>
      <trkpt lat="48.61529" lon="2.1096">
        <ele>97</ele>
        <time>2019-10-28T09:07:25.000Z</time>
      </trkpt>
      <trkpt lat="48.61528" lon="2.10962">
        <ele>97</ele>
        <time>2019-10-28T09:07:26.000Z</time>
      </trkpt>
      <trkpt lat="48.61528" lon="2.10964">
        <ele>97</ele>
        <time>2019-10-28T09:07:27.000Z</time>
      </trkpt>
      <trkpt lat="48.61528" lon="2.10966">
        <ele>97</ele>
        <time>2019-10-28T09:07:28.000Z</time>
      </trkpt>
      <trkpt lat="48.61527" lon="2.10968">
        <ele>97</ele>
        <time>2019-10-28T09:07:29.000Z</time>
      </trkpt>
      <trkpt lat="48.61527" lon="2.1097">
        <ele>97</ele>
        <time>2019-10-28T09:07:30.000Z</time>
      </trkpt>
      <trkpt lat="48.61527" lon="2.10973">
        <ele>98</ele>
        <time>2019-10-28T09:07:31.000Z</time>
      </trkpt>
      <trkpt lat="48.61526" lon="2.10975">
        <ele>99</ele>
        <time>2019-10-28T09:07:32.000Z</time>
      </trkpt>
      <trkpt lat="48.61526" lon="2.10978">
        <ele>99</ele>
        <time>2019-10-28T09:07:33.000Z</time>
      </trkpt>
      <trkpt lat="48.61526" lon="2.1098">
        <ele>99</ele>
        <time>2019-10-28T09:07:34.000Z</time>
      </trkpt>
      <trkpt lat="48.61525" lon="2.10982">
        <ele>99</ele>
        <time>2019-10-28T09:07:35.000Z</time>
      </trkpt>
      <trkpt lat="48.61525" lon="2.10984">
        <ele>100</ele>
        <time>2019-10-28T09:07:36.000Z</time>
      </trkpt>
      <trkpt lat="48.61524" lon="2.10986">
        <ele>100</ele>
        <time>2019-10-28T09:07:37.000Z</time>
      </trkpt>
      <trkpt lat="48.61524" lon="2.10989">
        <ele>100</ele>
        <time>2019-10-28T09:07:38.000Z</time>
      </trkpt>
      <trkpt lat="48.61523" lon="2.10991">
        <ele>100</ele>
        <time>2019-10-28T09:07:39.000Z</time>
      </trkpt>
      <trkpt lat="48.61523" lon="2.10993">
        <ele>100</ele>
        <time>2019-10-28T09:07:40.000Z</time>
      </trkpt>
      <trkpt lat="48.61522" lon="2.10994">
        <ele>100</ele>
        <time>2019-10-28T09:07:41.000Z</time>
      </trkpt>
      <trkpt lat="48.61521" lon="2.10996">
        <ele>100</ele>
        <time>2019-10-28T09:07:42.000Z</time>
      </trkpt>
      <trkpt lat="48.61521" lon="2.10998">
        <ele>100</ele>
        <time>2019-10-28T09:07:43.000Z</time>
      </trkpt>
      <trkpt lat="48.6152" lon="2.11">
        <ele>100</ele>
        <time>2019-10-28T09:07:44.000Z</time>
      </trkpt>
      <trkpt lat="48.6152" lon="2.11002">
        <ele>100</ele>
        <time>2019-10-28T09:07:45.000Z</time>
      </trkpt>
      <trkpt lat="48.61519" lon="2.11003">
        <ele>100</ele>
        <time>2019-10-28T09:07:46.000Z</time>
      </trkpt>
      <trkpt lat="48.61518" lon="2.11005">
        <ele>100</ele>
        <time>2019-10-28T09:07:47.000Z</time>
      </trkpt>
      <trkpt lat="48.61517" lon="2.11007">
        <ele>100</ele>
        <time>2019-10-28T09:07:48.000Z</time>
      </trkpt>
      <trkpt lat="48.61516" lon="2.11009">
        <ele>100</ele>
        <time>2019-10-28T09:07:49.000Z</time>
      </trkpt>
      <trkpt lat="48.61516" lon="2.1101">
        <ele>100</ele>
        <time>2019-10-28T09:07:50.000Z</time>
      </trkpt>
      <trkpt lat="48.61515" lon="2.11012">
        <ele>100</ele>
        <time>2019-10-28T09:07:51.000Z</time>
      </trkpt>
      <trkpt lat="48.61514" lon="2.11014">
        <ele>100</ele>
        <time>2019-10-28T09:07:52.000Z</time>
      </trkpt>
      <trkpt lat="48.61513" lon="2.11016">
        <ele>100</ele>
        <time>2019-10-28T09:07:53.000Z</time>
      </trkpt>
      <trkpt lat="48.61513" lon="2.11018">
        <ele>100</ele>
        <time>2019-10-28T09:07:54.000Z</time>
      </trkpt>
      <trkpt lat="48.61512" lon="2.11019">
        <ele>100</ele>
        <time>2019-10-28T09:07:55.000Z</time>
      </trkpt>
      <trkpt lat="48.61511" lon="2.11021">
        <ele>100</ele>
        <time>2019-10-28T09:07:56.000Z</time>
      </trkpt>
      <trkpt lat="48.6151" lon="2.11023">
        <ele>100</ele>
        <time>2019-10-28T09:07:57.000Z</time>
      </trkpt>
      <trkpt lat="48.61509" lon="2.11025">
        <ele>100</ele>
        <time>2019-10-28T09:07:58.000Z</time>
      </trkpt>
      <trkpt lat="48.61509" lon="2.11026">
        <ele>100</ele>
        <time>2019-10-28T09:07:59.000Z</time>
      </trkpt>
      <trkpt lat="48.61508" lon="2.11028">
        <ele>100</ele>
        <time>2019-10-28T09:08:00.000Z</time>
      </trkpt>
      <trkpt lat="48.61507" lon="2.11029">
        <ele>100</ele>
        <time>2019-10-28T09:08:01.000Z</time>
      </trkpt>
      <trkpt lat="48.61506" lon="2.11031">
        <ele>100</ele>
        <time>2019-10-28T09:08:02.000Z</time>
      </trkpt>
      <trkpt lat="48.61505" lon="2.11033">
        <ele>100</ele>
        <time>2019-10-28T09:08:03.000Z</time>
      </trkpt>
      <trkpt lat="48.61504" lon="2.11034">
        <ele>100</ele>
        <time>2019-10-28T09:08:04.000Z</time>
      </trkpt>
      <trkpt lat="48.61504" lon="2.11036">
        <ele>100</ele>
        <time>2019-10-28T09:08:05.000Z</time>
      </trkpt>
      <trkpt lat="48.61503" lon="2.11037">
        <ele>100</ele>
        <time>2019-10-28T09:08:06.000Z</time>
      </trkpt>
      <trkpt lat="48.61502" lon="2.11039">
        <ele>100</ele>
        <time>2019-10-28T09:08:07.000Z</time>
      </trkpt>
      <trkpt lat="48.61501" lon="2.11041">
        <ele>100</ele>
        <time>2019-10-28T09:08:08.000Z</time>
      </trkpt>
      <trkpt lat="48.615" lon="2.11043">
        <ele>100</ele>
        <time>2019-10-28T09:08:09.000Z</time>
      </trkpt>
      <trkpt lat="48.61499" lon="2.11044">
        <ele>100</ele>
        <time>2019-10-28T09:08:10.000Z</time>
      </trkpt>
      <trkpt lat="48.61498" lon="2.11046">
        <ele>100</ele>
        <time>2019-10-28T09:08:11.000Z</time>
      </trkpt>
      <trkpt lat="48.61497" lon="2.11048">
        <ele>100</ele>
        <time>2019-10-28T09:08:12.000Z</time>
      </trkpt>
      <trkpt lat="48.61496" lon="2.11049">
        <ele>100</ele>
        <time>2019-10-28T09:08:13.000Z</time>
      </trkpt>
      <trkpt lat="48.61495" lon="2.11051">
        <ele>100</ele>
        <time>2019-10-28T09:08:14.000Z</time>
      </trkpt>
      <trkpt lat="48.61495" lon="2.11052">
        <ele>99</ele>
        <time>2019-10-28T09:08:15.000Z</time>
      </trkpt>
      <trkpt lat="48.61493" lon="2.11054">
        <ele>99</ele>
        <time>2019-10-28T09:08:16.000Z</time>
      </trkpt>
      <trkpt lat="48.61493" lon="2.11056">
        <ele>99</ele>
        <time>2019-10-28T09:08:17.000Z</time>
      </trkpt>
      <trkpt lat="48.61492" lon="2.11057">
        <ele>99</ele>
        <time>2019-10-28T09:08:18.000Z</time>
      </trkpt>
      <trkpt lat="48.61491" lon="2.11059">
        <ele>99</ele>
        <time>2019-10-28T09:08:19.000Z</time>
      </trkpt>
      <trkpt lat="48.6149" lon="2.11061">
        <ele>99</ele>
        <time>2019-10-28T09:08:20.000Z</time>
      </trkpt>
      <trkpt lat="48.61489" lon="2.11062">
        <ele>99</ele>
        <time>2019-10-28T09:08:21.000Z</time>
      </trkpt>
      <trkpt lat="48.61488" lon="2.11064">
        <ele>99</ele>
        <time>2019-10-28T09:08:22.000Z</time>
      </trkpt>
      <trkpt lat="48.61487" lon="2.11065">
        <ele>98</ele>
        <time>2019-10-28T09:08:23.000Z</time>
      </trkpt>
      <trkpt lat="48.61486" lon="2.11067">
        <ele>98</ele>
        <time>2019-10-28T09:08:24.000Z</time>
      </trkpt>
      <trkpt lat="48.61486" lon="2.11068">
        <ele>98</ele>
        <time>2019-10-28T09:08:25.000Z</time>
      </trkpt>
      <trkpt lat="48.61485" lon="2.1107">
        <ele>98</ele>
        <time>2019-10-28T09:08:26.000Z</time>
      </trkpt>
      <trkpt lat="48.61484" lon="2.11071">
        <ele>98</ele>
        <time>2019-10-28T09:08:27.000Z</time>
      </trkpt>
      <trkpt lat="48.61483" lon="2.11073">
        <ele>98</ele>
        <time>2019-10-28T09:08:28.000Z</time>
      </trkpt>
      <trkpt lat="48.61482" lon="2.11074">
        <ele>98</ele>
        <time>2019-10-28T09:08:29.000Z</time>
      </trkpt>
      <trkpt lat="48.61482" lon="2.11076">
        <ele>98</ele>
        <time>2019-10-28T09:08:30.000Z</time>
      </trkpt>
      <trkpt lat="48.61481" lon="2.11078">
        <ele>98</ele>
        <time>2019-10-28T09:08:31.000Z</time>
      </trkpt>
      <trkpt lat="48.6148" lon="2.11079">
        <ele>98</ele>
        <time>2019-10-28T09:08:32.000Z</time>
      </trkpt>
      <trkpt lat="48.6148" lon="2.11081">
        <ele>98</ele>
        <time>2019-10-28T09:08:33.000Z</time>
      </trkpt>
      <trkpt lat="48.61479" lon="2.11083">
        <ele>98</ele>
        <time>2019-10-28T09:08:34.000Z</time>
      </trkpt>
      <trkpt lat="48.61478" lon="2.11084">
        <ele>98</ele>
        <time>2019-10-28T09:08:35.000Z</time>
      </trkpt>
      <trkpt lat="48.61477" lon="2.11086">
        <ele>98</ele>
        <time>2019-10-28T09:08:36.000Z</time>
      </trkpt>
      <trkpt lat="48.61476" lon="2.11088">
        <ele>99</ele>
        <time>2019-10-28T09:08:37.000Z</time>
      </trkpt>
      <trkpt lat="48.61476" lon="2.1109">
        <ele>98</ele>
        <time>2019-10-28T09:08:38.000Z</time>
      </trkpt>
      <trkpt lat="48.61475" lon="2.11091">
        <ele>98</ele>
        <time>2019-10-28T09:08:39.000Z</time>
      </trkpt>
      <trkpt lat="48.61474" lon="2.11093">
        <ele>99</ele>
        <time>2019-10-28T09:08:40.000Z</time>
      </trkpt>
      <trkpt lat="48.61474" lon="2.11095">
        <ele>98</ele>
        <time>2019-10-28T09:08:41.000Z</time>
      </trkpt>
      <trkpt lat="48.61473" lon="2.11096">
        <ele>98</ele>
        <time>2019-10-28T09:08:42.000Z</time>
      </trkpt>
      <trkpt lat="48.61472" lon="2.11098">
        <ele>98</ele>
        <time>2019-10-28T09:08:43.000Z</time>
      </trkpt>
      <trkpt lat="48.61471" lon="2.111">
        <ele>98</ele>
        <time>2019-10-28T09:08:44.000Z</time>
      </trkpt>
      <trkpt lat="48.61471" lon="2.11101">
        <ele>98</ele>
        <time>2019-10-28T09:08:45.000Z</time>
      </trkpt>
      <trkpt lat="48.6147" lon="2.11103">
        <ele>98</ele>
        <time>2019-10-28T09:08:46.000Z</time>
      </trkpt>
      <trkpt lat="48.6147" lon="2.11105">
        <ele>98</ele>
        <time>2019-10-28T09:08:47.000Z</time>
      </trkpt>
      <trkpt lat="48.61469" lon="2.11107">
        <ele>98</ele>
        <time>2019-10-28T09:08:48.000Z</time>
      </trkpt>
      <trkpt lat="48.61469" lon="2.11108">
        <ele>98</ele>
        <time>2019-10-28T09:08:49.000Z</time>
      </trkpt>
      <trkpt lat="48.61468" lon="2.1111">
        <ele>97</ele>
        <time>2019-10-28T09:08:50.000Z</time>
      </trkpt>
      <trkpt lat="48.61468" lon="2.11112">
        <ele>97</ele>
        <time>2019-10-28T09:08:51.000Z</time>
      </trkpt>
      <trkpt lat="48.61468" lon="2.11114">
        <ele>97</ele>
        <time>2019-10-28T09:08:52.000Z</time>
      </trkpt>
      <trkpt lat="48.61468" lon="2.11116">
        <ele>97</ele>
        <time>2019-10-28T09:08:53.000Z</time>
      </trkpt>
      <trkpt lat="48.61467" lon="2.11119">
        <ele>98</ele>
        <time>2019-10-28T09:08:54.000Z</time>
      </trkpt>
      <trkpt lat="48.61467" lon="2.11121">
        <ele>98</ele>
        <time>2019-10-28T09:08:55.000Z</time>
      </trkpt>
      <trkpt lat="48.61467" lon="2.11123">
        <ele>98</ele>
        <time>2019-10-28T09:08:56.000Z</time>
      </trkpt>
      <trkpt lat="48.61467" lon="2.11125">
        <ele>98</ele>
        <time>2019-10-28T09:08:57.000Z</time>
      </trkpt>
      <trkpt lat="48.61467" lon="2.11126">
        <ele>98</ele>
        <time>2019-10-28T09:08:58.000Z</time>
      </trkpt>
      <trkpt lat="48.61466" lon="2.11128">
        <ele>98</ele>
        <time>2019-10-28T09:08:59.000Z</time>
      </trkpt>
      <trkpt lat="48.61466" lon="2.1113">
        <ele>98</ele>
        <time>2019-10-28T09:09:00.000Z</time>
      </trkpt>
      <trkpt lat="48.61466" lon="2.11132">
        <ele>98</ele>
        <time>2019-10-28T09:09:01.000Z</time>
      </trkpt>
      <trkpt lat="48.61466" lon="2.11133">
        <ele>98</ele>
        <time>2019-10-28T09:09:02.000Z</time>
      </trkpt>
      <trkpt lat="48.61465" lon="2.11135">
        <ele>98</ele>
        <time>2019-10-28T09:09:03.000Z</time>
      </trkpt>
      <trkpt lat="48.61465" lon="2.11137">
        <ele>98</ele>
        <time>2019-10-28T09:09:04.000Z</time>
      </trkpt>
      <trkpt lat="48.61465" lon="2.11139">
        <ele>98</ele>
        <time>2019-10-28T09:09:05.000Z</time>
      </trkpt>
      <trkpt lat="48.61465" lon="2.11141">
        <ele>98</ele>
        <time>2019-10-28T09:09:06.000Z</time>
      </trkpt>
      <trkpt lat="48.61465" lon="2.11143">
        <ele>98</ele>
        <time>2019-10-28T09:09:07.000Z</time>
      </trkpt>
      <trkpt lat="48.61464" lon="2.11145">
        <ele>97</ele>
        <time>2019-10-28T09:09:08.000Z</time>
      </trkpt>
      <trkpt lat="48.61464" lon="2.11147">
        <ele>97</ele>
        <time>2019-10-28T09:09:09.000Z</time>
      </trkpt>
      <trkpt lat="48.61464" lon="2.11149">
        <ele>97</ele>
        <time>2019-10-28T09:09:10.000Z</time>
      </trkpt>
      <trkpt lat="48.61464" lon="2.11151">
        <ele>97</ele>
        <time>2019-10-28T09:09:11.000Z</time>
      </trkpt>
      <trkpt lat="48.61464" lon="2.11153">
        <ele>97</ele>
        <time>2019-10-28T09:09:12.000Z</time>
      </trkpt>
      <trkpt lat="48.61464" lon="2.11156">
        <ele>97</ele>
        <time>2019-10-28T09:09:13.000Z</time>
      </trkpt>
      <trkpt lat="48.61464" lon="2.11158">
        <ele>97</ele>
        <time>2019-10-28T09:09:14.000Z</time>
      </trkpt>
      <trkpt lat="48.61464" lon="2.1116">
        <ele>97</ele>
        <time>2019-10-28T09:09:15.000Z</time>
      </trkpt>
      <trkpt lat="48.61464" lon="2.11162">
        <ele>97</ele>
        <time>2019-10-28T09:09:16.000Z</time>
      </trkpt>
      <trkpt lat="48.61464" lon="2.11164">
        <ele>97</ele>
        <time>2019-10-28T09:09:17.000Z</time>
      </trkpt>
      <trkpt lat="48.61464" lon="2.11167">
        <ele>97</ele>
        <time>2019-10-28T09:09:18.000Z</time>
      </trkpt>
      <trkpt lat="48.61464" lon="2.11169">
        <ele>97</ele>
        <time>2019-10-28T09:09:19.000Z</time>
      </trkpt>
      <trkpt lat="48.61463" lon="2.11171">
        <ele>97</ele>
        <time>2019-10-28T09:09:20.000Z</time>
      </trkpt>
      <trkpt lat="48.61463" lon="2.11173">
        <ele>97</ele>
        <time>2019-10-28T09:09:21.000Z</time>
      </trkpt>
      <trkpt lat="48.61463" lon="2.11175">
        <ele>96</ele>
        <time>2019-10-28T09:09:22.000Z</time>
      </trkpt>
      <trkpt lat="48.61463" lon="2.11177">
        <ele>96</ele>
        <time>2019-10-28T09:09:23.000Z</time>
      </trkpt>
      <trkpt lat="48.61463" lon="2.11179">
        <ele>97</ele>
        <time>2019-10-28T09:09:24.000Z</time>
      </trkpt>
      <trkpt lat="48.61463" lon="2.11181">
        <ele>97</ele>
        <time>2019-10-28T09:09:25.000Z</time>
      </trkpt>
      <trkpt lat="48.61462" lon="2.11183">
        <ele>96</ele>
        <time>2019-10-28T09:09:26.000Z</time>
      </trkpt>
      <trkpt lat="48.61462" lon="2.11186">
        <ele>96</ele>
        <time>2019-10-28T09:09:27.000Z</time>
      </trkpt>
      <trkpt lat="48.61462" lon="2.11188">
        <ele>96</ele>
        <time>2019-10-28T09:09:28.000Z</time>
      </trkpt>
      <trkpt lat="48.61462" lon="2.1119">
        <ele>96</ele>
        <time>2019-10-28T09:09:29.000Z</time>
      </trkpt>
      <trkpt lat="48.61462" lon="2.11192">
        <ele>96</ele>
        <time>2019-10-28T09:09:30.000Z</time>
      </trkpt>
      <trkpt lat="48.61461" lon="2.11194">
        <ele>96</ele>
        <time>2019-10-28T09:09:31.000Z</time>
      </trkpt>
      <trkpt lat="48.61461" lon="2.11197">
        <ele>96</ele>
        <time>2019-10-28T09:09:32.000Z</time>
      </trkpt>
      <trkpt lat="48.61461" lon="2.11199">
        <ele>96</ele>
        <time>2019-10-28T09:09:33.000Z</time>
      </trkpt>
      <trkpt lat="48.6146" lon="2.11201">
        <ele>96</ele>
        <time>2019-10-28T09:09:34.000Z</time>
      </trkpt>
      <trkpt lat="48.6146" lon="2.11203">
        <ele>96</ele>
        <time>2019-10-28T09:09:35.000Z</time>
      </trkpt>
      <trkpt lat="48.61459" lon="2.11205">
        <ele>96</ele>
        <time>2019-10-28T09:09:36.000Z</time>
      </trkpt>
      <trkpt lat="48.61459" lon="2.11207">
        <ele>96</ele>
        <time>2019-10-28T09:09:37.000Z</time>
      </trkpt>
      <trkpt lat="48.61458" lon="2.11209">
        <ele>96</ele>
        <time>2019-10-28T09:09:38.000Z</time>
      </trkpt>
      <trkpt lat="48.61457" lon="2.11212">
        <ele>96</ele>
        <time>2019-10-28T09:09:39.000Z</time>
      </trkpt>
      <trkpt lat="48.61457" lon="2.11214">
        <ele>95</ele>
        <time>2019-10-28T09:09:40.000Z</time>
      </trkpt>
      <trkpt lat="48.61456" lon="2.11216">
        <ele>95</ele>
        <time>2019-10-28T09:09:41.000Z</time>
      </trkpt>
      <trkpt lat="48.61456" lon="2.11218">
        <ele>95</ele>
        <time>2019-10-28T09:09:42.000Z</time>
      </trkpt>
      <trkpt lat="48.61455" lon="2.1122">
        <ele>95</ele>
        <time>2019-10-28T09:09:43.000Z</time>
      </trkpt>
      <trkpt lat="48.61455" lon="2.11222">
        <ele>95</ele>
        <time>2019-10-28T09:09:44.000Z</time>
      </trkpt>
      <trkpt lat="48.61454" lon="2.11224">
        <ele>95</ele>
        <time>2019-10-28T09:09:45.000Z</time>
      </trkpt>
      <trkpt lat="48.61454" lon="2.11226">
        <ele>95</ele>
        <time>2019-10-28T09:09:46.000Z</time>
      </trkpt>
      <trkpt lat="48.61453" lon="2.11228">
        <ele>95</ele>
        <time>2019-10-28T09:09:47.000Z</time>
      </trkpt>
      <trkpt lat="48.61452" lon="2.1123">
        <ele>95</ele>
        <time>2019-10-28T09:09:48.000Z</time>
      </trkpt>
      <trkpt lat="48.61452" lon="2.11232">
        <ele>95</ele>
        <time>2019-10-28T09:09:49.000Z</time>
      </trkpt>
      <trkpt lat="48.61451" lon="2.11234">
        <ele>95</ele>
        <time>2019-10-28T09:09:50.000Z</time>
      </trkpt>
      <trkpt lat="48.61451" lon="2.11236">
        <ele>95</ele>
        <time>2019-10-28T09:09:51.000Z</time>
      </trkpt>
      <trkpt lat="48.6145" lon="2.11238">
        <ele>95</ele>
        <time>2019-10-28T09:09:52.000Z</time>
      </trkpt>
      <trkpt lat="48.61449" lon="2.11241">
        <ele>95</ele>
        <time>2019-10-28T09:09:53.000Z</time>
      </trkpt>
      <trkpt lat="48.61449" lon="2.11243">
        <ele>95</ele>
        <time>2019-10-28T09:09:54.000Z</time>
      </trkpt>
      <trkpt lat="48.61448" lon="2.11245">
        <ele>95</ele>
        <time>2019-10-28T09:09:55.000Z</time>
      </trkpt>
      <trkpt lat="48.61448" lon="2.11247">
        <ele>95</ele>
        <time>2019-10-28T09:09:56.000Z</time>
      </trkpt>
      <trkpt lat="48.61447" lon="2.11248">
        <ele>95</ele>
        <time>2019-10-28T09:09:57.000Z</time>
      </trkpt>
      <trkpt lat="48.61447" lon="2.1125">
        <ele>95</ele>
        <time>2019-10-28T09:09:58.000Z</time>
      </trkpt>
      <trkpt lat="48.61447" lon="2.11252">
        <ele>95</ele>
        <time>2019-10-28T09:09:59.000Z</time>
      </trkpt>
      <trkpt lat="48.61446" lon="2.11254">
        <ele>95</ele>
        <time>2019-10-28T09:10:00.000Z</time>
      </trkpt>
      <trkpt lat="48.61446" lon="2.11256">
        <ele>95</ele>
        <time>2019-10-28T09:10:01.000Z</time>
      </trkpt>
      <trkpt lat="48.61446" lon="2.11258">
        <ele>95</ele>
        <time>2019-10-28T09:10:02.000Z</time>
      </trkpt>
      <trkpt lat="48.61445" lon="2.11259">
        <ele>95</ele>
        <time>2019-10-28T09:10:03.000Z</time>
      </trkpt>
      <trkpt lat="48.61445" lon="2.11261">
        <ele>95</ele>
        <time>2019-10-28T09:10:04.000Z</time>
      </trkpt>
      <trkpt lat="48.61445" lon="2.11263">
        <ele>95</ele>
        <time>2019-10-28T09:10:05.000Z</time>
      </trkpt>
      <trkpt lat="48.61444" lon="2.11265">
        <ele>95</ele>
        <time>2019-10-28T09:10:06.000Z</time>
      </trkpt>
      <trkpt lat="48.61444" lon="2.11267">
        <ele>95</ele>
        <time>2019-10-28T09:10:07.000Z</time>
      </trkpt>
      <trkpt lat="48.61444" lon="2.11269">
        <ele>95</ele>
        <time>2019-10-28T09:10:08.000Z</time>
      </trkpt>
      <trkpt lat="48.61444" lon="2.1127">
        <ele>95</ele>
        <time>2019-10-28T09:10:09.000Z</time>
      </trkpt>
      <trkpt lat="48.61444" lon="2.11272">
        <ele>95</ele>
        <time>2019-10-28T09:10:10.000Z</time>
      </trkpt>
      <trkpt lat="48.61444" lon="2.11273">
        <ele>95</ele>
        <time>2019-10-28T09:10:11.000Z</time>
      </trkpt>
      <trkpt lat="48.61444" lon="2.11275">
        <ele>95</ele>
        <time>2019-10-28T09:10:12.000Z</time>
      </trkpt>
      <trkpt lat="48.61444" lon="2.11277">
        <ele>95</ele>
        <time>2019-10-28T09:10:13.000Z</time>
      </trkpt>
      <trkpt lat="48.61444" lon="2.11278">
        <ele>95</ele>
        <time>2019-10-28T09:10:14.000Z</time>
      </trkpt>
      <trkpt lat="48.61444" lon="2.1128">
        <ele>95</ele>
        <time>2019-10-28T09:10:15.000Z</time>
      </trkpt>
      <trkpt lat="48.61444" lon="2.11282">
        <ele>95</ele>
        <time>2019-10-28T09:10:16.000Z</time>
      </trkpt>
      <trkpt lat="48.61444" lon="2.11284">
        <ele>95</ele>
        <time>2019-10-28T09:10:17.000Z</time>
      </trkpt>
      <trkpt lat="48.61444" lon="2.11286">
        <ele>95</ele>
        <time>2019-10-28T09:10:18.000Z</time>
      </trkpt>
      <trkpt lat="48.61444" lon="2.11288">
        <ele>96</ele>
        <time>2019-10-28T09:10:19.000Z</time>
      </trkpt>
      <trkpt lat="48.61444" lon="2.1129">
        <ele>96</ele>
        <time>2019-10-28T09:10:20.000Z</time>
      </trkpt>
      <trkpt lat="48.61444" lon="2.11292">
        <ele>96</ele>
        <time>2019-10-28T09:10:21.000Z</time>
      </trkpt>
      <trkpt lat="48.61445" lon="2.11294">
        <ele>96</ele>
        <time>2019-10-28T09:10:22.000Z</time>
      </trkpt>
      <trkpt lat="48.61445" lon="2.11296">
        <ele>96</ele>
        <time>2019-10-28T09:10:23.000Z</time>
      </trkpt>
      <trkpt lat="48.61445" lon="2.11298">
        <ele>96</ele>
        <time>2019-10-28T09:10:24.000Z</time>
      </trkpt>
      <trkpt lat="48.61445" lon="2.113">
        <ele>96</ele>
        <time>2019-10-28T09:10:25.000Z</time>
      </trkpt>
      <trkpt lat="48.61445" lon="2.11302">
        <ele>96</ele>
        <time>2019-10-28T09:10:26.000Z</time>
      </trkpt>
      <trkpt lat="48.61445" lon="2.11305">
        <ele>96</ele>
        <time>2019-10-28T09:10:27.000Z</time>
      </trkpt>
      <trkpt lat="48.61445" lon="2.11307">
        <ele>96</ele>
        <time>2019-10-28T09:10:28.000Z</time>
      </trkpt>
      <trkpt lat="48.61445" lon="2.11308">
        <ele>96</ele>
        <time>2019-10-28T09:10:29.000Z</time>
      </trkpt>
      <trkpt lat="48.61445" lon="2.1131">
        <ele>96</ele>
        <time>2019-10-28T09:10:30.000Z</time>
      </trkpt>
      <trkpt lat="48.61445" lon="2.11312">
        <ele>96</ele>
        <time>2019-10-28T09:10:31.000Z</time>
      </trkpt>
      <trkpt lat="48.61445" lon="2.11314">
        <ele>96</ele>
        <time>2019-10-28T09:10:32.000Z</time>
      </trkpt>
      <trkpt lat="48.61445" lon="2.11315">
        <ele>96</ele>
        <time>2019-10-28T09:10:33.000Z</time>
      </trkpt>
      <trkpt lat="48.61445" lon="2.11317">
        <ele>96</ele>
        <time>2019-10-28T09:10:34.000Z</time>
      </trkpt>
      <trkpt lat="48.61445" lon="2.11319">
        <ele>96</ele>
        <time>2019-10-28T09:10:35.000Z</time>
      </trkpt>
      <trkpt lat="48.61445" lon="2.11321">
        <ele>96</ele>
        <time>2019-10-28T09:10:36.000Z</time>
      </trkpt>
      <trkpt lat="48.61445" lon="2.11324">
        <ele>96</ele>
        <time>2019-10-28T09:10:37.000Z</time>
      </trkpt>
      <trkpt lat="48.61445" lon="2.11326">
        <ele>95</ele>
        <time>2019-10-28T09:10:38.000Z</time>
      </trkpt>
      <trkpt lat="48.61445" lon="2.11328">
        <ele>95</ele>
        <time>2019-10-28T09:10:39.000Z</time>
      </trkpt>
      <trkpt lat="48.61445" lon="2.11331">
        <ele>95</ele>
        <time>2019-10-28T09:10:40.000Z</time>
      </trkpt>
      <trkpt lat="48.61445" lon="2.11333">
        <ele>96</ele>
        <time>2019-10-28T09:10:41.000Z</time>
      </trkpt>
      <trkpt lat="48.61446" lon="2.11335">
        <ele>95</ele>
        <time>2019-10-28T09:10:42.000Z</time>
      </trkpt>
      <trkpt lat="48.61446" lon="2.11337">
        <ele>94</ele>
        <time>2019-10-28T09:10:43.000Z</time>
      </trkpt>
      <trkpt lat="48.61446" lon="2.11339">
        <ele>94</ele>
        <time>2019-10-28T09:10:44.000Z</time>
      </trkpt>
      <trkpt lat="48.61446" lon="2.11341">
        <ele>94</ele>
        <time>2019-10-28T09:10:45.000Z</time>
      </trkpt>
      <trkpt lat="48.61446" lon="2.11343">
        <ele>94</ele>
        <time>2019-10-28T09:10:46.000Z</time>
      </trkpt>
      <trkpt lat="48.61446" lon="2.11345">
        <ele>94</ele>
        <time>2019-10-28T09:10:47.000Z</time>
      </trkpt>
      <trkpt lat="48.61446" lon="2.11347">
        <ele>93</ele>
        <time>2019-10-28T09:10:48.000Z</time>
      </trkpt>
      <trkpt lat="48.61446" lon="2.11349">
        <ele>93</ele>
        <time>2019-10-28T09:10:49.000Z</time>
      </trkpt>
      <trkpt lat="48.61446" lon="2.11351">
        <ele>92</ele>
        <time>2019-10-28T09:10:50.000Z</time>
      </trkpt>
      <trkpt lat="48.61447" lon="2.11354">
        <ele>92</ele>
        <time>2019-10-28T09:10:51.000Z</time>
      </trkpt>
      <trkpt lat="48.61447" lon="2.11356">
        <ele>92</ele>
        <time>2019-10-28T09:10:52.000Z</time>
      </trkpt>
      <trkpt lat="48.61447" lon="2.11358">
        <ele>92</ele>
        <time>2019-10-28T09:10:53.000Z</time>
      </trkpt>
      <trkpt lat="48.61448" lon="2.1136">
        <ele>91</ele>
        <time>2019-10-28T09:10:54.000Z</time>
      </trkpt>
      <trkpt lat="48.61448" lon="2.11362">
        <ele>91</ele>
        <time>2019-10-28T09:10:55.000Z</time>
      </trkpt>
      <trkpt lat="48.61448" lon="2.11364">
        <ele>91</ele>
        <time>2019-10-28T09:10:56.000Z</time>
      </trkpt>
      <trkpt lat="48.61448" lon="2.11366">
        <ele>91</ele>
        <time>2019-10-28T09:10:57.000Z</time>
      </trkpt>
      <trkpt lat="48.61449" lon="2.11368">
        <ele>91</ele>
        <time>2019-10-28T09:10:58.000Z</time>
      </trkpt>
      <trkpt lat="48.61449" lon="2.1137">
        <ele>90</ele>
        <time>2019-10-28T09:10:59.000Z</time>
      </trkpt>
      <trkpt lat="48.6145" lon="2.11373">
        <ele>90</ele>
        <time>2019-10-28T09:11:00.000Z</time>
      </trkpt>
      <trkpt lat="48.6145" lon="2.11375">
        <ele>90</ele>
        <time>2019-10-28T09:11:01.000Z</time>
      </trkpt>
      <trkpt lat="48.61451" lon="2.11377">
        <ele>90</ele>
        <time>2019-10-28T09:11:02.000Z</time>
      </trkpt>
      <trkpt lat="48.61451" lon="2.11379">
        <ele>90</ele>
        <time>2019-10-28T09:11:03.000Z</time>
      </trkpt>
      <trkpt lat="48.61451" lon="2.11382">
        <ele>90</ele>
        <time>2019-10-28T09:11:04.000Z</time>
      </trkpt>
      <trkpt lat="48.61452" lon="2.11384">
        <ele>90</ele>
        <time>2019-10-28T09:11:05.000Z</time>
      </trkpt>
      <trkpt lat="48.61452" lon="2.11386">
        <ele>90</ele>
        <time>2019-10-28T09:11:06.000Z</time>
      </trkpt>
      <trkpt lat="48.61453" lon="2.11388">
        <ele>90</ele>
        <time>2019-10-28T09:11:07.000Z</time>
      </trkpt>
      <trkpt lat="48.61453" lon="2.11391">
        <ele>91</ele>
        <time>2019-10-28T09:11:08.000Z</time>
      </trkpt>
      <trkpt lat="48.61453" lon="2.11393">
        <ele>91</ele>
        <time>2019-10-28T09:11:09.000Z</time>
      </trkpt>
      <trkpt lat="48.61454" lon="2.11395">
        <ele>91</ele>
        <time>2019-10-28T09:11:10.000Z</time>
      </trkpt>
      <trkpt lat="48.61454" lon="2.11397">
        <ele>91</ele>
        <time>2019-10-28T09:11:11.000Z</time>
      </trkpt>
      <trkpt lat="48.61454" lon="2.11399">
        <ele>91</ele>
        <time>2019-10-28T09:11:12.000Z</time>
      </trkpt>
      <trkpt lat="48.61455" lon="2.11401">
        <ele>91</ele>
        <time>2019-10-28T09:11:13.000Z</time>
      </trkpt>
      <trkpt lat="48.61455" lon="2.11403">
        <ele>90</ele>
        <time>2019-10-28T09:11:14.000Z</time>
      </trkpt>
      <trkpt lat="48.61456" lon="2.11404">
        <ele>90</ele>
        <time>2019-10-28T09:11:15.000Z</time>
      </trkpt>
      <trkpt lat="48.61456" lon="2.11406">
        <ele>90</ele>
        <time>2019-10-28T09:11:16.000Z</time>
      </trkpt>
      <trkpt lat="48.61457" lon="2.11408">
        <ele>90</ele>
        <time>2019-10-28T09:11:17.000Z</time>
      </trkpt>
      <trkpt lat="48.61457" lon="2.1141">
        <ele>90</ele>
        <time>2019-10-28T09:11:18.000Z</time>
      </trkpt>
      <trkpt lat="48.61458" lon="2.11411">
        <ele>90</ele>
        <time>2019-10-28T09:11:19.000Z</time>
      </trkpt>
      <trkpt lat="48.61458" lon="2.11414">
        <ele>90</ele>
        <time>2019-10-28T09:11:20.000Z</time>
      </trkpt>
      <trkpt lat="48.61459" lon="2.11416">
        <ele>90</ele>
        <time>2019-10-28T09:11:21.000Z</time>
      </trkpt>
      <trkpt lat="48.61459" lon="2.11419">
        <ele>90</ele>
        <time>2019-10-28T09:11:22.000Z</time>
      </trkpt>
      <trkpt lat="48.61459" lon="2.11421">
        <ele>90</ele>
        <time>2019-10-28T09:11:23.000Z</time>
      </trkpt>
      <trkpt lat="48.6146" lon="2.11423">
        <ele>90</ele>
        <time>2019-10-28T09:11:24.000Z</time>
      </trkpt>
      <trkpt lat="48.6146" lon="2.11425">
        <ele>90</ele>
        <time>2019-10-28T09:11:25.000Z</time>
      </trkpt>
      <trkpt lat="48.61461" lon="2.11427">
        <ele>90</ele>
        <time>2019-10-28T09:11:26.000Z</time>
      </trkpt>
      <trkpt lat="48.61462" lon="2.11429">
        <ele>90</ele>
        <time>2019-10-28T09:11:27.000Z</time>
      </trkpt>
      <trkpt lat="48.61462" lon="2.11431">
        <ele>90</ele>
        <time>2019-10-28T09:11:28.000Z</time>
      </trkpt>
      <trkpt lat="48.61463" lon="2.11433">
        <ele>90</ele>
        <time>2019-10-28T09:11:29.000Z</time>
      </trkpt>
      <trkpt lat="48.61463" lon="2.11436">
        <ele>90</ele>
        <time>2019-10-28T09:11:30.000Z</time>
      </trkpt>
      <trkpt lat="48.61464" lon="2.11438">
        <ele>90</ele>
        <time>2019-10-28T09:11:31.000Z</time>
      </trkpt>
      <trkpt lat="48.61464" lon="2.1144">
        <ele>90</ele>
        <time>2019-10-28T09:11:32.000Z</time>
      </trkpt>
      <trkpt lat="48.61465" lon="2.11442">
        <ele>90</ele>
        <time>2019-10-28T09:11:33.000Z</time>
      </trkpt>
      <trkpt lat="48.61465" lon="2.11444">
        <ele>90</ele>
        <time>2019-10-28T09:11:34.000Z</time>
      </trkpt>
      <trkpt lat="48.61466" lon="2.11446">
        <ele>90</ele>
        <time>2019-10-28T09:11:35.000Z</time>
      </trkpt>
      <trkpt lat="48.61466" lon="2.11448">
        <ele>90</ele>
        <time>2019-10-28T09:11:36.000Z</time>
      </trkpt>
      <trkpt lat="48.61467" lon="2.1145">
        <ele>90</ele>
        <time>2019-10-28T09:11:37.000Z</time>
      </trkpt>
      <trkpt lat="48.61467" lon="2.11453">
        <ele>90</ele>
        <time>2019-10-28T09:11:38.000Z</time>
      </trkpt>
      <trkpt lat="48.61468" lon="2.11455">
        <ele>90</ele>
        <time>2019-10-28T09:11:39.000Z</time>
      </trkpt>
      <trkpt lat="48.61469" lon="2.11457">
        <ele>90</ele>
        <time>2019-10-28T09:11:40.000Z</time>
      </trkpt>
      <trkpt lat="48.61469" lon="2.11459">
        <ele>90</ele>
        <time>2019-10-28T09:11:41.000Z</time>
      </trkpt>
      <trkpt lat="48.6147" lon="2.11462">
        <ele>90</ele>
        <time>2019-10-28T09:11:42.000Z</time>
      </trkpt>
      <trkpt lat="48.6147" lon="2.11464">
        <ele>90</ele>
        <time>2019-10-28T09:11:43.000Z</time>
      </trkpt>
      <trkpt lat="48.61471" lon="2.11467">
        <ele>90</ele>
        <time>2019-10-28T09:11:44.000Z</time>
      </trkpt>
      <trkpt lat="48.61471" lon="2.11469">
        <ele>90</ele>
        <time>2019-10-28T09:11:45.000Z</time>
      </trkpt>
      <trkpt lat="48.61472" lon="2.11471">
        <ele>90</ele>
        <time>2019-10-28T09:11:46.000Z</time>
      </trkpt>
      <trkpt lat="48.61472" lon="2.11473">
        <ele>90</ele>
        <time>2019-10-28T09:11:47.000Z</time>
      </trkpt>
      <trkpt lat="48.61472" lon="2.11476">
        <ele>90</ele>
        <time>2019-10-28T09:11:48.000Z</time>
      </trkpt>
      <trkpt lat="48.61473" lon="2.11478">
        <ele>90</ele>
        <time>2019-10-28T09:11:49.000Z</time>
      </trkpt>
      <trkpt lat="48.61473" lon="2.1148">
        <ele>90</ele>
        <time>2019-10-28T09:11:50.000Z</time>
      </trkpt>
      <trkpt lat="48.61474" lon="2.11482">
        <ele>90</ele>
        <time>2019-10-28T09:11:51.000Z</time>
      </trkpt>
      <trkpt lat="48.61474" lon="2.11485">
        <ele>90</ele>
        <time>2019-10-28T09:11:52.000Z</time>
      </trkpt>
      <trkpt lat="48.61475" lon="2.11487">
        <ele>90</ele>
        <time>2019-10-28T09:11:53.000Z</time>
      </trkpt>
      <trkpt lat="48.61475" lon="2.11489">
        <ele>90</ele>
        <time>2019-10-28T09:11:54.000Z</time>
      </trkpt>
      <trkpt lat="48.61475" lon="2.11491">
        <ele>90</ele>
        <time>2019-10-28T09:11:55.000Z</time>
      </trkpt>
      <trkpt lat="48.61475" lon="2.11493">
        <ele>90</ele>
        <time>2019-10-28T09:11:56.000Z</time>
      </trkpt>
      <trkpt lat="48.61476" lon="2.11495">
        <ele>90</ele>
        <time>2019-10-28T09:11:57.000Z</time>
      </trkpt>
      <trkpt lat="48.61476" lon="2.11498">
        <ele>90</ele>
        <time>2019-10-28T09:11:58.000Z</time>
      </trkpt>
      <trkpt lat="48.61476" lon="2.115">
        <ele>90</ele>
        <time>2019-10-28T09:11:59.000Z</time>
      </trkpt>
      <trkpt lat="48.61476" lon="2.11502">
        <ele>90</ele>
        <time>2019-10-28T09:12:00.000Z</time>
      </trkpt>
      <trkpt lat="48.61477" lon="2.11505">
        <ele>90</ele>
        <time>2019-10-28T09:12:01.000Z</time>
      </trkpt>
      <trkpt lat="48.61477" lon="2.11507">
        <ele>90</ele>
        <time>2019-10-28T09:12:02.000Z</time>
      </trkpt>
      <trkpt lat="48.61477" lon="2.1151">
        <ele>90</ele>
        <time>2019-10-28T09:12:03.000Z</time>
      </trkpt>
      <trkpt lat="48.61477" lon="2.11513">
        <ele>90</ele>
        <time>2019-10-28T09:12:04.000Z</time>
      </trkpt>
      <trkpt lat="48.61477" lon="2.11515">
        <ele>90</ele>
        <time>2019-10-28T09:12:05.000Z</time>
      </trkpt>
      <trkpt lat="48.61477" lon="2.11518">
        <ele>90</ele>
        <time>2019-10-28T09:12:06.000Z</time>
      </trkpt>
      <trkpt lat="48.61477" lon="2.11521">
        <ele>90</ele>
        <time>2019-10-28T09:12:07.000Z</time>
      </trkpt>
      <trkpt lat="48.61477" lon="2.11524">
        <ele>90</ele>
        <time>2019-10-28T09:12:08.000Z</time>
      </trkpt>
      <trkpt lat="48.61477" lon="2.11526">
        <ele>90</ele>
        <time>2019-10-28T09:12:09.000Z</time>
      </trkpt>
      <trkpt lat="48.61477" lon="2.11528">
        <ele>90</ele>
        <time>2019-10-28T09:12:10.000Z</time>
      </trkpt>
      <trkpt lat="48.61477" lon="2.11531">
        <ele>90</ele>
        <time>2019-10-28T09:12:11.000Z</time>
      </trkpt>
      <trkpt lat="48.61477" lon="2.11533">
        <ele>90</ele>
        <time>2019-10-28T09:12:12.000Z</time>
      </trkpt>
      <trkpt lat="48.61476" lon="2.11535">
        <ele>90</ele>
        <time>2019-10-28T09:12:13.000Z</time>
      </trkpt>
      <trkpt lat="48.61476" lon="2.11537">
        <ele>90</ele>
        <time>2019-10-28T09:12:14.000Z</time>
      </trkpt>
      <trkpt lat="48.61476" lon="2.1154">
        <ele>90</ele>
        <time>2019-10-28T09:12:15.000Z</time>
      </trkpt>
      <trkpt lat="48.61476" lon="2.11542">
        <ele>90</ele>
        <time>2019-10-28T09:12:16.000Z</time>
      </trkpt>
      <trkpt lat="48.61476" lon="2.11544">
        <ele>90</ele>
        <time>2019-10-28T09:12:17.000Z</time>
      </trkpt>
      <trkpt lat="48.61476" lon="2.11547">
        <ele>90</ele>
        <time>2019-10-28T09:12:18.000Z</time>
      </trkpt>
      <trkpt lat="48.61476" lon="2.11549">
        <ele>90</ele>
        <time>2019-10-28T09:12:19.000Z</time>
      </trkpt>
      <trkpt lat="48.61476" lon="2.11551">
        <ele>90</ele>
        <time>2019-10-28T09:12:20.000Z</time>
      </trkpt>
      <trkpt lat="48.61476" lon="2.11553">
        <ele>90</ele>
        <time>2019-10-28T09:12:21.000Z</time>
      </trkpt>
      <trkpt lat="48.61476" lon="2.11556">
        <ele>90</ele>
        <time>2019-10-28T09:12:22.000Z</time>
      </trkpt>
      <trkpt lat="48.61476" lon="2.11558">
        <ele>90</ele>
        <time>2019-10-28T09:12:23.000Z</time>
      </trkpt>
      <trkpt lat="48.61476" lon="2.1156">
        <ele>90</ele>
        <time>2019-10-28T09:12:24.000Z</time>
      </trkpt>
      <trkpt lat="48.61476" lon="2.11563">
        <ele>90</ele>
        <time>2019-10-28T09:12:25.000Z</time>
      </trkpt>
      <trkpt lat="48.61476" lon="2.11565">
        <ele>90</ele>
        <time>2019-10-28T09:12:26.000Z</time>
      </trkpt>
      <trkpt lat="48.61475" lon="2.11567">
        <ele>90</ele>
        <time>2019-10-28T09:12:27.000Z</time>
      </trkpt>
      <trkpt lat="48.61475" lon="2.11569">
        <ele>90</ele>
        <time>2019-10-28T09:12:28.000Z</time>
      </trkpt>
      <trkpt lat="48.61475" lon="2.11571">
        <ele>90</ele>
        <time>2019-10-28T09:12:29.000Z</time>
      </trkpt>
      <trkpt lat="48.61475" lon="2.11573">
        <ele>89</ele>
        <time>2019-10-28T09:12:30.000Z</time>
      </trkpt>
      <trkpt lat="48.61475" lon="2.11576">
        <ele>90</ele>
        <time>2019-10-28T09:12:31.000Z</time>
      </trkpt>
      <trkpt lat="48.61476" lon="2.11578">
        <ele>90</ele>
        <time>2019-10-28T09:12:32.000Z</time>
      </trkpt>
      <trkpt lat="48.61476" lon="2.1158">
        <ele>90</ele>
        <time>2019-10-28T09:12:33.000Z</time>
      </trkpt>
      <trkpt lat="48.61476" lon="2.11582">
        <ele>90</ele>
        <time>2019-10-28T09:12:34.000Z</time>
      </trkpt>
      <trkpt lat="48.61476" lon="2.11584">
        <ele>90</ele>
        <time>2019-10-28T09:12:35.000Z</time>
      </trkpt>
      <trkpt lat="48.61475" lon="2.11586">
        <ele>90</ele>
        <time>2019-10-28T09:12:36.000Z</time>
      </trkpt>
      <trkpt lat="48.61475" lon="2.11589">
        <ele>90</ele>
        <time>2019-10-28T09:12:37.000Z</time>
      </trkpt>
      <trkpt lat="48.61475" lon="2.11591">
        <ele>90</ele>
        <time>2019-10-28T09:12:38.000Z</time>
      </trkpt>
      <trkpt lat="48.61475" lon="2.11593">
        <ele>89</ele>
        <time>2019-10-28T09:12:39.000Z</time>
      </trkpt>
      <trkpt lat="48.61475" lon="2.11595">
        <ele>89</ele>
        <time>2019-10-28T09:12:40.000Z</time>
      </trkpt>
      <trkpt lat="48.61475" lon="2.11597">
        <ele>89</ele>
        <time>2019-10-28T09:12:41.000Z</time>
      </trkpt>
      <trkpt lat="48.61475" lon="2.116">
        <ele>89</ele>
        <time>2019-10-28T09:12:42.000Z</time>
      </trkpt>
      <trkpt lat="48.61476" lon="2.11602">
        <ele>89</ele>
        <time>2019-10-28T09:12:43.000Z</time>
      </trkpt>
      <trkpt lat="48.61476" lon="2.11604">
        <ele>89</ele>
        <time>2019-10-28T09:12:44.000Z</time>
      </trkpt>
      <trkpt lat="48.61476" lon="2.11606">
        <ele>89</ele>
        <time>2019-10-28T09:12:45.000Z</time>
      </trkpt>
      <trkpt lat="48.61476" lon="2.11608">
        <ele>89</ele>
        <time>2019-10-28T09:12:46.000Z</time>
      </trkpt>
      <trkpt lat="48.61476" lon="2.1161">
        <ele>89</ele>
        <time>2019-10-28T09:12:47.000Z</time>
      </trkpt>
      <trkpt lat="48.61476" lon="2.11613">
        <ele>89</ele>
        <time>2019-10-28T09:12:48.000Z</time>
      </trkpt>
      <trkpt lat="48.61476" lon="2.11615">
        <ele>89</ele>
        <time>2019-10-28T09:12:49.000Z</time>
      </trkpt>
      <trkpt lat="48.61477" lon="2.11617">
        <ele>89</ele>
        <time>2019-10-28T09:12:50.000Z</time>
      </trkpt>
      <trkpt lat="48.61477" lon="2.11619">
        <ele>89</ele>
        <time>2019-10-28T09:12:51.000Z</time>
      </trkpt>
      <trkpt lat="48.61477" lon="2.11621">
        <ele>88</ele>
        <time>2019-10-28T09:12:52.000Z</time>
      </trkpt>
      <trkpt lat="48.61477" lon="2.11623">
        <ele>88</ele>
        <time>2019-10-28T09:12:53.000Z</time>
      </trkpt>
      <trkpt lat="48.61477" lon="2.11625">
        <ele>89</ele>
        <time>2019-10-28T09:12:54.000Z</time>
      </trkpt>
      <trkpt lat="48.61477" lon="2.11628">
        <ele>89</ele>
        <time>2019-10-28T09:12:55.000Z</time>
      </trkpt>
      <trkpt lat="48.61477" lon="2.1163">
        <ele>88</ele>
        <time>2019-10-28T09:12:56.000Z</time>
      </trkpt>
      <trkpt lat="48.61477" lon="2.11632">
        <ele>88</ele>
        <time>2019-10-28T09:12:57.000Z</time>
      </trkpt>
      <trkpt lat="48.61477" lon="2.11634">
        <ele>88</ele>
        <time>2019-10-28T09:12:58.000Z</time>
      </trkpt>
      <trkpt lat="48.61478" lon="2.11636">
        <ele>88</ele>
        <time>2019-10-28T09:12:59.000Z</time>
      </trkpt>
      <trkpt lat="48.61478" lon="2.11638">
        <ele>88</ele>
        <time>2019-10-28T09:13:00.000Z</time>
      </trkpt>
      <trkpt lat="48.61478" lon="2.11641">
        <ele>88</ele>
        <time>2019-10-28T09:13:01.000Z</time>
      </trkpt>
      <trkpt lat="48.61478" lon="2.11643">
        <ele>88</ele>
        <time>2019-10-28T09:13:02.000Z</time>
      </trkpt>
      <trkpt lat="48.61478" lon="2.11645">
        <ele>88</ele>
        <time>2019-10-28T09:13:03.000Z</time>
      </trkpt>
      <trkpt lat="48.61478" lon="2.11648">
        <ele>88</ele>
        <time>2019-10-28T09:13:04.000Z</time>
      </trkpt>
      <trkpt lat="48.61478" lon="2.1165">
        <ele>88</ele>
        <time>2019-10-28T09:13:05.000Z</time>
      </trkpt>
      <trkpt lat="48.61479" lon="2.11652">
        <ele>88</ele>
        <time>2019-10-28T09:13:06.000Z</time>
      </trkpt>
      <trkpt lat="48.61479" lon="2.11654">
        <ele>88</ele>
        <time>2019-10-28T09:13:07.000Z</time>
      </trkpt>
      <trkpt lat="48.61479" lon="2.11657">
        <ele>88</ele>
        <time>2019-10-28T09:13:08.000Z</time>
      </trkpt>
      <trkpt lat="48.61479" lon="2.11659">
        <ele>88</ele>
        <time>2019-10-28T09:13:09.000Z</time>
      </trkpt>
      <trkpt lat="48.61479" lon="2.11661">
        <ele>88</ele>
        <time>2019-10-28T09:13:10.000Z</time>
      </trkpt>
      <trkpt lat="48.61479" lon="2.11663">
        <ele>88</ele>
        <time>2019-10-28T09:13:11.000Z</time>
      </trkpt>
      <trkpt lat="48.61479" lon="2.11665">
        <ele>88</ele>
        <time>2019-10-28T09:13:12.000Z</time>
      </trkpt>
      <trkpt lat="48.61479" lon="2.11667">
        <ele>88</ele>
        <time>2019-10-28T09:13:13.000Z</time>
      </trkpt>
      <trkpt lat="48.61479" lon="2.1167">
        <ele>88</ele>
        <time>2019-10-28T09:13:14.000Z</time>
      </trkpt>
      <trkpt lat="48.61479" lon="2.11672">
        <ele>88</ele>
        <time>2019-10-28T09:13:15.000Z</time>
      </trkpt>
      <trkpt lat="48.6148" lon="2.11674">
        <ele>88</ele>
        <time>2019-10-28T09:13:16.000Z</time>
      </trkpt>
      <trkpt lat="48.6148" lon="2.11676">
        <ele>88</ele>
        <time>2019-10-28T09:13:17.000Z</time>
      </trkpt>
      <trkpt lat="48.6148" lon="2.11678">
        <ele>88</ele>
        <time>2019-10-28T09:13:18.000Z</time>
      </trkpt>
      <trkpt lat="48.6148" lon="2.11681">
        <ele>88</ele>
        <time>2019-10-28T09:13:19.000Z</time>
      </trkpt>
      <trkpt lat="48.6148" lon="2.11683">
        <ele>88</ele>
        <time>2019-10-28T09:13:20.000Z</time>
      </trkpt>
      <trkpt lat="48.6148" lon="2.11685">
        <ele>88</ele>
        <time>2019-10-28T09:13:21.000Z</time>
      </trkpt>
      <trkpt lat="48.6148" lon="2.11687">
        <ele>88</ele>
        <time>2019-10-28T09:13:22.000Z</time>
      </trkpt>
      <trkpt lat="48.6148" lon="2.11689">
        <ele>88</ele>
        <time>2019-10-28T09:13:23.000Z</time>
      </trkpt>
      <trkpt lat="48.61481" lon="2.11691">
        <ele>88</ele>
        <time>2019-10-28T09:13:24.000Z</time>
      </trkpt>
      <trkpt lat="48.61481" lon="2.11693">
        <ele>88</ele>
        <time>2019-10-28T09:13:25.000Z</time>
      </trkpt>
      <trkpt lat="48.61481" lon="2.11695">
        <ele>88</ele>
        <time>2019-10-28T09:13:26.000Z</time>
      </trkpt>
      <trkpt lat="48.61481" lon="2.11697">
        <ele>88</ele>
        <time>2019-10-28T09:13:27.000Z</time>
      </trkpt>
      <trkpt lat="48.61481" lon="2.117">
        <ele>88</ele>
        <time>2019-10-28T09:13:28.000Z</time>
      </trkpt>
      <trkpt lat="48.61481" lon="2.11702">
        <ele>88</ele>
        <time>2019-10-28T09:13:29.000Z</time>
      </trkpt>
      <trkpt lat="48.61481" lon="2.11704">
        <ele>88</ele>
        <time>2019-10-28T09:13:30.000Z</time>
      </trkpt>
      <trkpt lat="48.61481" lon="2.11706">
        <ele>88</ele>
        <time>2019-10-28T09:13:31.000Z</time>
      </trkpt>
      <trkpt lat="48.61482" lon="2.11708">
        <ele>88</ele>
        <time>2019-10-28T09:13:32.000Z</time>
      </trkpt>
      <trkpt lat="48.61482" lon="2.1171">
        <ele>88</ele>
        <time>2019-10-28T09:13:33.000Z</time>
      </trkpt>
      <trkpt lat="48.61482" lon="2.11712">
        <ele>88</ele>
        <time>2019-10-28T09:13:34.000Z</time>
      </trkpt>
      <trkpt lat="48.61482" lon="2.11714">
        <ele>88</ele>
        <time>2019-10-28T09:13:35.000Z</time>
      </trkpt>
      <trkpt lat="48.61482" lon="2.11716">
        <ele>88</ele>
        <time>2019-10-28T09:13:36.000Z</time>
      </trkpt>
      <trkpt lat="48.61482" lon="2.11718">
        <ele>87</ele>
        <time>2019-10-28T09:13:37.000Z</time>
      </trkpt>
      <trkpt lat="48.61483" lon="2.1172">
        <ele>87</ele>
        <time>2019-10-28T09:13:38.000Z</time>
      </trkpt>
      <trkpt lat="48.61483" lon="2.11722">
        <ele>87</ele>
        <time>2019-10-28T09:13:39.000Z</time>
      </trkpt>
      <trkpt lat="48.61483" lon="2.11724">
        <ele>87</ele>
        <time>2019-10-28T09:13:40.000Z</time>
      </trkpt>
      <trkpt lat="48.61484" lon="2.11726">
        <ele>87</ele>
        <time>2019-10-28T09:13:41.000Z</time>
      </trkpt>
      <trkpt lat="48.61484" lon="2.11728">
        <ele>87</ele>
        <time>2019-10-28T09:13:42.000Z</time>
      </trkpt>
      <trkpt lat="48.61485" lon="2.1173">
        <ele>87</ele>
        <time>2019-10-28T09:13:43.000Z</time>
      </trkpt>
      <trkpt lat="48.61485" lon="2.11732">
        <ele>87</ele>
        <time>2019-10-28T09:13:44.000Z</time>
      </trkpt>
      <trkpt lat="48.61485" lon="2.11734">
        <ele>87</ele>
        <time>2019-10-28T09:13:45.000Z</time>
      </trkpt>
      <trkpt lat="48.61486" lon="2.11736">
        <ele>87</ele>
        <time>2019-10-28T09:13:46.000Z</time>
      </trkpt>
      <trkpt lat="48.61486" lon="2.11738">
        <ele>87</ele>
        <time>2019-10-28T09:13:47.000Z</time>
      </trkpt>
      <trkpt lat="48.61487" lon="2.1174">
        <ele>87</ele>
        <time>2019-10-28T09:13:48.000Z</time>
      </trkpt>
      <trkpt lat="48.61487" lon="2.11742">
        <ele>87</ele>
        <time>2019-10-28T09:13:49.000Z</time>
      </trkpt>
      <trkpt lat="48.61488" lon="2.11744">
        <ele>87</ele>
        <time>2019-10-28T09:13:50.000Z</time>
      </trkpt>
      <trkpt lat="48.61488" lon="2.11746">
        <ele>87</ele>
        <time>2019-10-28T09:13:51.000Z</time>
      </trkpt>
      <trkpt lat="48.61489" lon="2.11748">
        <ele>86</ele>
        <time>2019-10-28T09:13:52.000Z</time>
      </trkpt>
      <trkpt lat="48.6149" lon="2.1175">
        <ele>87</ele>
        <time>2019-10-28T09:13:53.000Z</time>
      </trkpt>
      <trkpt lat="48.6149" lon="2.11752">
        <ele>87</ele>
        <time>2019-10-28T09:13:54.000Z</time>
      </trkpt>
      <trkpt lat="48.61491" lon="2.11754">
        <ele>86</ele>
        <time>2019-10-28T09:13:55.000Z</time>
      </trkpt>
      <trkpt lat="48.61492" lon="2.11756">
        <ele>87</ele>
        <time>2019-10-28T09:13:56.000Z</time>
      </trkpt>
      <trkpt lat="48.61492" lon="2.11758">
        <ele>86</ele>
        <time>2019-10-28T09:13:57.000Z</time>
      </trkpt>
      <trkpt lat="48.61493" lon="2.1176">
        <ele>86</ele>
        <time>2019-10-28T09:13:58.000Z</time>
      </trkpt>
      <trkpt lat="48.61493" lon="2.11762">
        <ele>86</ele>
        <time>2019-10-28T09:13:59.000Z</time>
      </trkpt>
      <trkpt lat="48.61494" lon="2.11764">
        <ele>86</ele>
        <time>2019-10-28T09:14:00.000Z</time>
      </trkpt>
      <trkpt lat="48.61494" lon="2.11766">
        <ele>86</ele>
        <time>2019-10-28T09:14:01.000Z</time>
      </trkpt>
      <trkpt lat="48.61495" lon="2.11768">
        <ele>86</ele>
        <time>2019-10-28T09:14:02.000Z</time>
      </trkpt>
      <trkpt lat="48.61495" lon="2.1177">
        <ele>86</ele>
        <time>2019-10-28T09:14:03.000Z</time>
      </trkpt>
      <trkpt lat="48.61496" lon="2.11772">
        <ele>86</ele>
        <time>2019-10-28T09:14:04.000Z</time>
      </trkpt>
      <trkpt lat="48.61497" lon="2.11774">
        <ele>86</ele>
        <time>2019-10-28T09:14:05.000Z</time>
      </trkpt>
      <trkpt lat="48.61497" lon="2.11775">
        <ele>86</ele>
        <time>2019-10-28T09:14:06.000Z</time>
      </trkpt>
      <trkpt lat="48.61498" lon="2.11777">
        <ele>86</ele>
        <time>2019-10-28T09:14:07.000Z</time>
      </trkpt>
      <trkpt lat="48.61499" lon="2.11779">
        <ele>86</ele>
        <time>2019-10-28T09:14:08.000Z</time>
      </trkpt>
      <trkpt lat="48.61499" lon="2.11781">
        <ele>86</ele>
        <time>2019-10-28T09:14:09.000Z</time>
      </trkpt>
      <trkpt lat="48.615" lon="2.11783">
        <ele>86</ele>
        <time>2019-10-28T09:14:10.000Z</time>
      </trkpt>
      <trkpt lat="48.615" lon="2.11785">
        <ele>86</ele>
        <time>2019-10-28T09:14:11.000Z</time>
      </trkpt>
      <trkpt lat="48.61501" lon="2.11786">
        <ele>86</ele>
        <time>2019-10-28T09:14:12.000Z</time>
      </trkpt>
      <trkpt lat="48.61501" lon="2.11788">
        <ele>87</ele>
        <time>2019-10-28T09:14:13.000Z</time>
      </trkpt>
      <trkpt lat="48.61501" lon="2.1179">
        <ele>87</ele>
        <time>2019-10-28T09:14:14.000Z</time>
      </trkpt>
      <trkpt lat="48.61502" lon="2.11792">
        <ele>87</ele>
        <time>2019-10-28T09:14:15.000Z</time>
      </trkpt>
      <trkpt lat="48.61501" lon="2.11793">
        <ele>86</ele>
        <time>2019-10-28T09:14:16.000Z</time>
      </trkpt>
      <trkpt lat="48.61501" lon="2.11795">
        <ele>87</ele>
        <time>2019-10-28T09:14:17.000Z</time>
      </trkpt>
      <trkpt lat="48.615" lon="2.11796">
        <ele>87</ele>
        <time>2019-10-28T09:14:18.000Z</time>
      </trkpt>
      <trkpt lat="48.61498" lon="2.11796">
        <ele>87</ele>
        <time>2019-10-28T09:14:19.000Z</time>
      </trkpt>
      <trkpt lat="48.61497" lon="2.11796">
        <ele>87</ele>
        <time>2019-10-28T09:14:20.000Z</time>
      </trkpt>
      <trkpt lat="48.61496" lon="2.11795">
        <ele>87</ele>
        <time>2019-10-28T09:14:21.000Z</time>
      </trkpt>
      <trkpt lat="48.61495" lon="2.11794">
        <ele>87</ele>
        <time>2019-10-28T09:14:22.000Z</time>
      </trkpt>
      <trkpt lat="48.61494" lon="2.11794">
        <ele>87</ele>
        <time>2019-10-28T09:14:23.000Z</time>
      </trkpt>
      <trkpt lat="48.61493" lon="2.11793">
        <ele>87</ele>
        <time>2019-10-28T09:14:24.000Z</time>
      </trkpt>
      <trkpt lat="48.61492" lon="2.11792">
        <ele>87</ele>
        <time>2019-10-28T09:14:25.000Z</time>
      </trkpt>
      <trkpt lat="48.61491" lon="2.11792">
        <ele>87</ele>
        <time>2019-10-28T09:14:26.000Z</time>
      </trkpt>
      <trkpt lat="48.6149" lon="2.11791">
        <ele>87</ele>
        <time>2019-10-28T09:14:27.000Z</time>
      </trkpt>
      <trkpt lat="48.61489" lon="2.11791">
        <ele>87</ele>
        <time>2019-10-28T09:14:28.000Z</time>
      </trkpt>
      <trkpt lat="48.61487" lon="2.1179">
        <ele>87</ele>
        <time>2019-10-28T09:14:29.000Z</time>
      </trkpt>
      <trkpt lat="48.61486" lon="2.1179">
        <ele>88</ele>
        <time>2019-10-28T09:14:30.000Z</time>
      </trkpt>
      <trkpt lat="48.61485" lon="2.11789">
        <ele>88</ele>
        <time>2019-10-28T09:14:31.000Z</time>
      </trkpt>
      <trkpt lat="48.61483" lon="2.11789">
        <ele>88</ele>
        <time>2019-10-28T09:14:32.000Z</time>
      </trkpt>
      <trkpt lat="48.61482" lon="2.11789">
        <ele>88</ele>
        <time>2019-10-28T09:14:33.000Z</time>
      </trkpt>
      <trkpt lat="48.61481" lon="2.11788">
        <ele>88</ele>
        <time>2019-10-28T09:14:34.000Z</time>
      </trkpt>
      <trkpt lat="48.6148" lon="2.11788">
        <ele>88</ele>
        <time>2019-10-28T09:14:35.000Z</time>
      </trkpt>
      <trkpt lat="48.61479" lon="2.11788">
        <ele>88</ele>
        <time>2019-10-28T09:14:36.000Z</time>
      </trkpt>
      <trkpt lat="48.61477" lon="2.11788">
        <ele>88</ele>
        <time>2019-10-28T09:14:37.000Z</time>
      </trkpt>
      <trkpt lat="48.61476" lon="2.11788">
        <ele>88</ele>
        <time>2019-10-28T09:14:38.000Z</time>
      </trkpt>
      <trkpt lat="48.61475" lon="2.11789">
        <ele>88</ele>
        <time>2019-10-28T09:14:39.000Z</time>
      </trkpt>
      <trkpt lat="48.61474" lon="2.11789">
        <ele>88</ele>
        <time>2019-10-28T09:14:40.000Z</time>
      </trkpt>
      <trkpt lat="48.61473" lon="2.11789">
        <ele>88</ele>
        <time>2019-10-28T09:14:41.000Z</time>
      </trkpt>
      <trkpt lat="48.61471" lon="2.1179">
        <ele>88</ele>
        <time>2019-10-28T09:14:42.000Z</time>
      </trkpt>
      <trkpt lat="48.6147" lon="2.11791">
        <ele>88</ele>
        <time>2019-10-28T09:14:43.000Z</time>
      </trkpt>
      <trkpt lat="48.61469" lon="2.11791">
        <ele>88</ele>
        <time>2019-10-28T09:14:44.000Z</time>
      </trkpt>
      <trkpt lat="48.61468" lon="2.11792">
        <ele>88</ele>
        <time>2019-10-28T09:14:45.000Z</time>
      </trkpt>
      <trkpt lat="48.61467" lon="2.11793">
        <ele>88</ele>
        <time>2019-10-28T09:14:46.000Z</time>
      </trkpt>
      <trkpt lat="48.61466" lon="2.11793">
        <ele>88</ele>
        <time>2019-10-28T09:14:47.000Z</time>
      </trkpt>
      <trkpt lat="48.61465" lon="2.11794">
        <ele>88</ele>
        <time>2019-10-28T09:14:48.000Z</time>
      </trkpt>
      <trkpt lat="48.61464" lon="2.11796">
        <ele>88</ele>
        <time>2019-10-28T09:14:49.000Z</time>
      </trkpt>
      <trkpt lat="48.61463" lon="2.11797">
        <ele>88</ele>
        <time>2019-10-28T09:14:50.000Z</time>
      </trkpt>
      <trkpt lat="48.61462" lon="2.11798">
        <ele>88</ele>
        <time>2019-10-28T09:14:51.000Z</time>
      </trkpt>
      <trkpt lat="48.61461" lon="2.11799">
        <ele>88</ele>
        <time>2019-10-28T09:14:52.000Z</time>
      </trkpt>
      <trkpt lat="48.61459" lon="2.118">
        <ele>88</ele>
        <time>2019-10-28T09:14:53.000Z</time>
      </trkpt>
      <trkpt lat="48.61458" lon="2.11801">
        <ele>88</ele>
        <time>2019-10-28T09:14:54.000Z</time>
      </trkpt>
      <trkpt lat="48.61457" lon="2.11802">
        <ele>88</ele>
        <time>2019-10-28T09:14:55.000Z</time>
      </trkpt>
      <trkpt lat="48.61456" lon="2.11803">
        <ele>88</ele>
        <time>2019-10-28T09:14:56.000Z</time>
      </trkpt>
      <trkpt lat="48.61455" lon="2.11803">
        <ele>88</ele>
        <time>2019-10-28T09:14:57.000Z</time>
      </trkpt>
      <trkpt lat="48.61454" lon="2.11804">
        <ele>88</ele>
        <time>2019-10-28T09:14:58.000Z</time>
      </trkpt>
      <trkpt lat="48.61453" lon="2.11805">
        <ele>87</ele>
        <time>2019-10-28T09:14:59.000Z</time>
      </trkpt>
      <trkpt lat="48.61452" lon="2.11806">
        <ele>87</ele>
        <time>2019-10-28T09:15:00.000Z</time>
      </trkpt>
      <trkpt lat="48.61451" lon="2.11806">
        <ele>87</ele>
        <time>2019-10-28T09:15:01.000Z</time>
      </trkpt>
      <trkpt lat="48.6145" lon="2.11807">
        <ele>87</ele>
        <time>2019-10-28T09:15:02.000Z</time>
      </trkpt>
      <trkpt lat="48.61449" lon="2.11807">
        <ele>87</ele>
        <time>2019-10-28T09:15:03.000Z</time>
      </trkpt>
      <trkpt lat="48.61448" lon="2.11808">
        <ele>87</ele>
        <time>2019-10-28T09:15:04.000Z</time>
      </trkpt>
      <trkpt lat="48.61447" lon="2.11808">
        <ele>87</ele>
        <time>2019-10-28T09:15:05.000Z</time>
      </trkpt>
      <trkpt lat="48.61446" lon="2.11809">
        <ele>86</ele>
        <time>2019-10-28T09:15:06.000Z</time>
      </trkpt>
      <trkpt lat="48.61445" lon="2.1181">
        <ele>86</ele>
        <time>2019-10-28T09:15:07.000Z</time>
      </trkpt>
      <trkpt lat="48.61444" lon="2.11811">
        <ele>86</ele>
        <time>2019-10-28T09:15:08.000Z</time>
      </trkpt>
      <trkpt lat="48.61443" lon="2.11812">
        <ele>86</ele>
        <time>2019-10-28T09:15:09.000Z</time>
      </trkpt>
      <trkpt lat="48.61442" lon="2.11812">
        <ele>86</ele>
        <time>2019-10-28T09:15:10.000Z</time>
      </trkpt>
      <trkpt lat="48.61441" lon="2.11813">
        <ele>86</ele>
        <time>2019-10-28T09:15:11.000Z</time>
      </trkpt>
      <trkpt lat="48.6144" lon="2.11814">
        <ele>86</ele>
        <time>2019-10-28T09:15:12.000Z</time>
      </trkpt>
      <trkpt lat="48.61438" lon="2.11815">
        <ele>86</ele>
        <time>2019-10-28T09:15:13.000Z</time>
      </trkpt>
      <trkpt lat="48.61437" lon="2.11815">
        <ele>86</ele>
        <time>2019-10-28T09:15:14.000Z</time>
      </trkpt>
      <trkpt lat="48.61436" lon="2.11816">
        <ele>87</ele>
        <time>2019-10-28T09:15:15.000Z</time>
      </trkpt>
      <trkpt lat="48.61435" lon="2.11817">
        <ele>87</ele>
        <time>2019-10-28T09:15:16.000Z</time>
      </trkpt>
      <trkpt lat="48.61433" lon="2.11818">
        <ele>87</ele>
        <time>2019-10-28T09:15:17.000Z</time>
      </trkpt>
      <trkpt lat="48.61432" lon="2.11819">
        <ele>88</ele>
        <time>2019-10-28T09:15:18.000Z</time>
      </trkpt>
      <trkpt lat="48.61431" lon="2.11819">
        <ele>88</ele>
        <time>2019-10-28T09:15:19.000Z</time>
      </trkpt>
      <trkpt lat="48.6143" lon="2.1182">
        <ele>88</ele>
        <time>2019-10-28T09:15:20.000Z</time>
      </trkpt>
      <trkpt lat="48.61429" lon="2.11821">
        <ele>88</ele>
        <time>2019-10-28T09:15:21.000Z</time>
      </trkpt>
      <trkpt lat="48.61428" lon="2.11822">
        <ele>88</ele>
        <time>2019-10-28T09:15:22.000Z</time>
      </trkpt>
      <trkpt lat="48.61426" lon="2.11822">
        <ele>88</ele>
        <time>2019-10-28T09:15:23.000Z</time>
      </trkpt>
      <trkpt lat="48.61425" lon="2.11823">
        <ele>88</ele>
        <time>2019-10-28T09:15:24.000Z</time>
      </trkpt>
      <trkpt lat="48.61424" lon="2.11824">
        <ele>88</ele>
        <time>2019-10-28T09:15:25.000Z</time>
      </trkpt>
      <trkpt lat="48.61423" lon="2.11825">
        <ele>87</ele>
        <time>2019-10-28T09:15:26.000Z</time>
      </trkpt>
      <trkpt lat="48.61422" lon="2.11826">
        <ele>87</ele>
        <time>2019-10-28T09:15:27.000Z</time>
      </trkpt>
      <trkpt lat="48.61421" lon="2.11827">
        <ele>87</ele>
        <time>2019-10-28T09:15:28.000Z</time>
      </trkpt>
      <trkpt lat="48.6142" lon="2.11828">
        <ele>87</ele>
        <time>2019-10-28T09:15:29.000Z</time>
      </trkpt>
      <trkpt lat="48.61419" lon="2.11829">
        <ele>87</ele>
        <time>2019-10-28T09:15:30.000Z</time>
      </trkpt>
      <trkpt lat="48.61418" lon="2.1183">
        <ele>87</ele>
        <time>2019-10-28T09:15:31.000Z</time>
      </trkpt>
      <trkpt lat="48.61417" lon="2.11831">
        <ele>87</ele>
        <time>2019-10-28T09:15:32.000Z</time>
      </trkpt>
      <trkpt lat="48.61416" lon="2.11832">
        <ele>87</ele>
        <time>2019-10-28T09:15:33.000Z</time>
      </trkpt>
      <trkpt lat="48.61415" lon="2.11832">
        <ele>86</ele>
        <time>2019-10-28T09:15:34.000Z</time>
      </trkpt>
      <trkpt lat="48.61413" lon="2.11833">
        <ele>86</ele>
        <time>2019-10-28T09:15:35.000Z</time>
      </trkpt>
      <trkpt lat="48.61412" lon="2.11833">
        <ele>86</ele>
        <time>2019-10-28T09:15:36.000Z</time>
      </trkpt>
      <trkpt lat="48.61411" lon="2.11834">
        <ele>86</ele>
        <time>2019-10-28T09:15:37.000Z</time>
      </trkpt>
      <trkpt lat="48.6141" lon="2.11835">
        <ele>86</ele>
        <time>2019-10-28T09:15:38.000Z</time>
      </trkpt>
      <trkpt lat="48.61409" lon="2.11835">
        <ele>86</ele>
        <time>2019-10-28T09:15:39.000Z</time>
      </trkpt>
      <trkpt lat="48.61408" lon="2.11836">
        <ele>85</ele>
        <time>2019-10-28T09:15:40.000Z</time>
      </trkpt>
      <trkpt lat="48.61407" lon="2.11837">
        <ele>84</ele>
        <time>2019-10-28T09:15:41.000Z</time>
      </trkpt>
      <trkpt lat="48.61406" lon="2.11838">
        <ele>84</ele>
        <time>2019-10-28T09:15:42.000Z</time>
      </trkpt>
      <trkpt lat="48.61405" lon="2.11839">
        <ele>85</ele>
        <time>2019-10-28T09:15:43.000Z</time>
      </trkpt>
      <trkpt lat="48.61404" lon="2.1184">
        <ele>84</ele>
        <time>2019-10-28T09:15:44.000Z</time>
      </trkpt>
      <trkpt lat="48.61403" lon="2.1184">
        <ele>84</ele>
        <time>2019-10-28T09:15:45.000Z</time>
      </trkpt>
      <trkpt lat="48.61402" lon="2.11841">
        <ele>84</ele>
        <time>2019-10-28T09:15:46.000Z</time>
      </trkpt>
      <trkpt lat="48.61401" lon="2.11842">
        <ele>84</ele>
        <time>2019-10-28T09:15:47.000Z</time>
      </trkpt>
      <trkpt lat="48.614" lon="2.11843">
        <ele>83</ele>
        <time>2019-10-28T09:15:48.000Z</time>
      </trkpt>
      <trkpt lat="48.61399" lon="2.11843">
        <ele>85</ele>
        <time>2019-10-28T09:15:49.000Z</time>
      </trkpt>
      <trkpt lat="48.61398" lon="2.11844">
        <ele>85</ele>
        <time>2019-10-28T09:15:50.000Z</time>
      </trkpt>
      <trkpt lat="48.61397" lon="2.11844">
        <ele>85</ele>
        <time>2019-10-28T09:15:51.000Z</time>
      </trkpt>
      <trkpt lat="48.61397" lon="2.11844">
        <ele>85</ele>
        <time>2019-10-28T09:16:08.000Z</time>
      </trkpt>
      <trkpt lat="48.61397" lon="2.11844">
        <ele>85</ele>
        <time>2019-10-28T09:16:10.000Z</time>
      </trkpt>
      <trkpt lat="48.61397" lon="2.11844">
        <ele>85</ele>
        <time>2019-10-28T09:16:11.000Z</time>
      </trkpt>
      <trkpt lat="48.61383" lon="2.11843">
        <ele>85</ele>
        <time>2019-10-28T09:16:12.000Z</time>
      </trkpt>
      <trkpt lat="48.61374" lon="2.1185">
        <ele>86</ele>
        <time>2019-10-28T09:16:13.000Z</time>
      </trkpt>
      <trkpt lat="48.61364" lon="2.1186">
        <ele>87</ele>
        <time>2019-10-28T09:16:14.000Z</time>
      </trkpt>
      <trkpt lat="48.61367" lon="2.11873">
        <ele>87</ele>
        <time>2019-10-28T09:16:15.000Z</time>
      </trkpt>
      <trkpt lat="48.61366" lon="2.11877">
        <ele>87</ele>
        <time>2019-10-28T09:16:16.000Z</time>
      </trkpt>
      <trkpt lat="48.61365" lon="2.11879">
        <ele>87</ele>
        <time>2019-10-28T09:16:17.000Z</time>
      </trkpt>
      <trkpt lat="48.61364" lon="2.1188">
        <ele>88</ele>
        <time>2019-10-28T09:16:18.000Z</time>
      </trkpt>
      <trkpt lat="48.61363" lon="2.11881">
        <ele>88</ele>
        <time>2019-10-28T09:16:19.000Z</time>
      </trkpt>
      <trkpt lat="48.61362" lon="2.11883">
        <ele>87</ele>
        <time>2019-10-28T09:16:20.000Z</time>
      </trkpt>
      <trkpt lat="48.61361" lon="2.11884">
        <ele>87</ele>
        <time>2019-10-28T09:16:21.000Z</time>
      </trkpt>
      <trkpt lat="48.6136" lon="2.11885">
        <ele>87</ele>
        <time>2019-10-28T09:16:22.000Z</time>
      </trkpt>
      <trkpt lat="48.61359" lon="2.11886">
        <ele>87</ele>
        <time>2019-10-28T09:16:23.000Z</time>
      </trkpt>
      <trkpt lat="48.61358" lon="2.11887">
        <ele>87</ele>
        <time>2019-10-28T09:16:24.000Z</time>
      </trkpt>
      <trkpt lat="48.61357" lon="2.11888">
        <ele>87</ele>
        <time>2019-10-28T09:16:25.000Z</time>
      </trkpt>
      <trkpt lat="48.61355" lon="2.11889">
        <ele>87</ele>
        <time>2019-10-28T09:16:26.000Z</time>
      </trkpt>
      <trkpt lat="48.61354" lon="2.1189">
        <ele>87</ele>
        <time>2019-10-28T09:16:27.000Z</time>
      </trkpt>
      <trkpt lat="48.61353" lon="2.11891">
        <ele>87</ele>
        <time>2019-10-28T09:16:28.000Z</time>
      </trkpt>
      <trkpt lat="48.61352" lon="2.11892">
        <ele>87</ele>
        <time>2019-10-28T09:16:29.000Z</time>
      </trkpt>
      <trkpt lat="48.61351" lon="2.11894">
        <ele>87</ele>
        <time>2019-10-28T09:16:30.000Z</time>
      </trkpt>
      <trkpt lat="48.6135" lon="2.11895">
        <ele>87</ele>
        <time>2019-10-28T09:16:31.000Z</time>
      </trkpt>
      <trkpt lat="48.61349" lon="2.11897">
        <ele>87</ele>
        <time>2019-10-28T09:16:32.000Z</time>
      </trkpt>
      <trkpt lat="48.61348" lon="2.11898">
        <ele>87</ele>
        <time>2019-10-28T09:16:33.000Z</time>
      </trkpt>
      <trkpt lat="48.61347" lon="2.11899">
        <ele>87</ele>
        <time>2019-10-28T09:16:34.000Z</time>
      </trkpt>
      <trkpt lat="48.61346" lon="2.119">
        <ele>87</ele>
        <time>2019-10-28T09:16:35.000Z</time>
      </trkpt>
      <trkpt lat="48.61345" lon="2.11901">
        <ele>87</ele>
        <time>2019-10-28T09:16:36.000Z</time>
      </trkpt>
      <trkpt lat="48.61344" lon="2.11902">
        <ele>87</ele>
        <time>2019-10-28T09:16:37.000Z</time>
      </trkpt>
      <trkpt lat="48.61343" lon="2.11903">
        <ele>87</ele>
        <time>2019-10-28T09:16:38.000Z</time>
      </trkpt>
      <trkpt lat="48.61342" lon="2.11904">
        <ele>87</ele>
        <time>2019-10-28T09:16:39.000Z</time>
      </trkpt>
      <trkpt lat="48.61341" lon="2.11905">
        <ele>87</ele>
        <time>2019-10-28T09:16:40.000Z</time>
      </trkpt>
      <trkpt lat="48.6134" lon="2.11907">
        <ele>87</ele>
        <time>2019-10-28T09:16:41.000Z</time>
      </trkpt>
      <trkpt lat="48.61338" lon="2.11908">
        <ele>87</ele>
        <time>2019-10-28T09:16:42.000Z</time>
      </trkpt>
      <trkpt lat="48.61337" lon="2.11909">
        <ele>86</ele>
        <time>2019-10-28T09:16:43.000Z</time>
      </trkpt>
      <trkpt lat="48.61336" lon="2.1191">
        <ele>86</ele>
        <time>2019-10-28T09:16:44.000Z</time>
      </trkpt>
      <trkpt lat="48.61336" lon="2.11911">
        <ele>86</ele>
        <time>2019-10-28T09:16:45.000Z</time>
      </trkpt>
      <trkpt lat="48.61335" lon="2.11912">
        <ele>86</ele>
        <time>2019-10-28T09:16:46.000Z</time>
      </trkpt>
      <trkpt lat="48.61335" lon="2.11912">
        <ele>86</ele>
        <time>2019-10-28T09:17:02.000Z</time>
      </trkpt>
      <trkpt lat="48.61335" lon="2.11912">
        <ele>86</ele>
        <time>2019-10-28T09:17:03.000Z</time>
      </trkpt>
      <trkpt lat="48.61323" lon="2.11929">
        <ele>86</ele>
        <time>2019-10-28T09:17:04.000Z</time>
      </trkpt>
      <trkpt lat="48.61314" lon="2.11941">
        <ele>88</ele>
        <time>2019-10-28T09:17:05.000Z</time>
      </trkpt>
      <trkpt lat="48.61306" lon="2.1195">
        <ele>88</ele>
        <time>2019-10-28T09:17:06.000Z</time>
      </trkpt>
      <trkpt lat="48.61308" lon="2.11943">
        <ele>88</ele>
        <time>2019-10-28T09:17:07.000Z</time>
      </trkpt>
      <trkpt lat="48.61308" lon="2.11942">
        <ele>88</ele>
        <time>2019-10-28T09:17:08.000Z</time>
      </trkpt>
      <trkpt lat="48.61307" lon="2.11944">
        <ele>89</ele>
        <time>2019-10-28T09:17:09.000Z</time>
      </trkpt>
      <trkpt lat="48.61306" lon="2.11945">
        <ele>89</ele>
        <time>2019-10-28T09:17:10.000Z</time>
      </trkpt>
      <trkpt lat="48.61306" lon="2.11946">
        <ele>89</ele>
        <time>2019-10-28T09:17:11.000Z</time>
      </trkpt>
      <trkpt lat="48.61305" lon="2.11947">
        <ele>89</ele>
        <time>2019-10-28T09:17:12.000Z</time>
      </trkpt>
      <trkpt lat="48.61304" lon="2.11949">
        <ele>88</ele>
        <time>2019-10-28T09:17:13.000Z</time>
      </trkpt>
      <trkpt lat="48.61303" lon="2.1195">
        <ele>88</ele>
        <time>2019-10-28T09:17:14.000Z</time>
      </trkpt>
      <trkpt lat="48.61303" lon="2.11951">
        <ele>87</ele>
        <time>2019-10-28T09:17:15.000Z</time>
      </trkpt>
      <trkpt lat="48.61302" lon="2.11953">
        <ele>87</ele>
        <time>2019-10-28T09:17:16.000Z</time>
      </trkpt>
      <trkpt lat="48.61301" lon="2.11954">
        <ele>87</ele>
        <time>2019-10-28T09:17:17.000Z</time>
      </trkpt>
      <trkpt lat="48.61299" lon="2.11955">
        <ele>87</ele>
        <time>2019-10-28T09:17:18.000Z</time>
      </trkpt>
      <trkpt lat="48.61298" lon="2.11957">
        <ele>87</ele>
        <time>2019-10-28T09:17:19.000Z</time>
      </trkpt>
      <trkpt lat="48.61297" lon="2.11958">
        <ele>87</ele>
        <time>2019-10-28T09:17:20.000Z</time>
      </trkpt>
      <trkpt lat="48.61296" lon="2.11959">
        <ele>87</ele>
        <time>2019-10-28T09:17:21.000Z</time>
      </trkpt>
      <trkpt lat="48.61295" lon="2.1196">
        <ele>87</ele>
        <time>2019-10-28T09:17:22.000Z</time>
      </trkpt>
      <trkpt lat="48.61294" lon="2.11961">
        <ele>87</ele>
        <time>2019-10-28T09:17:23.000Z</time>
      </trkpt>
      <trkpt lat="48.61293" lon="2.11963">
        <ele>87</ele>
        <time>2019-10-28T09:17:24.000Z</time>
      </trkpt>
      <trkpt lat="48.61292" lon="2.11964">
        <ele>87</ele>
        <time>2019-10-28T09:17:25.000Z</time>
      </trkpt>
      <trkpt lat="48.61291" lon="2.11965">
        <ele>87</ele>
        <time>2019-10-28T09:17:26.000Z</time>
      </trkpt>
      <trkpt lat="48.61289" lon="2.11967">
        <ele>88</ele>
        <time>2019-10-28T09:17:27.000Z</time>
      </trkpt>
      <trkpt lat="48.61288" lon="2.11968">
        <ele>88</ele>
        <time>2019-10-28T09:17:28.000Z</time>
      </trkpt>
      <trkpt lat="48.61287" lon="2.11969">
        <ele>88</ele>
        <time>2019-10-28T09:17:29.000Z</time>
      </trkpt>
      <trkpt lat="48.61286" lon="2.1197">
        <ele>88</ele>
        <time>2019-10-28T09:17:30.000Z</time>
      </trkpt>
      <trkpt lat="48.61284" lon="2.11971">
        <ele>88</ele>
        <time>2019-10-28T09:17:31.000Z</time>
      </trkpt>
      <trkpt lat="48.61283" lon="2.11972">
        <ele>88</ele>
        <time>2019-10-28T09:17:32.000Z</time>
      </trkpt>
      <trkpt lat="48.61282" lon="2.11973">
        <ele>88</ele>
        <time>2019-10-28T09:17:33.000Z</time>
      </trkpt>
      <trkpt lat="48.61281" lon="2.11974">
        <ele>88</ele>
        <time>2019-10-28T09:17:34.000Z</time>
      </trkpt>
      <trkpt lat="48.6128" lon="2.11976">
        <ele>88</ele>
        <time>2019-10-28T09:17:35.000Z</time>
      </trkpt>
      <trkpt lat="48.61278" lon="2.11977">
        <ele>88</ele>
        <time>2019-10-28T09:17:36.000Z</time>
      </trkpt>
      <trkpt lat="48.61277" lon="2.11978">
        <ele>88</ele>
        <time>2019-10-28T09:17:37.000Z</time>
      </trkpt>
      <trkpt lat="48.61276" lon="2.11979">
        <ele>88</ele>
        <time>2019-10-28T09:17:38.000Z</time>
      </trkpt>
      <trkpt lat="48.61275" lon="2.1198">
        <ele>88</ele>
        <time>2019-10-28T09:17:39.000Z</time>
      </trkpt>
      <trkpt lat="48.61274" lon="2.11982">
        <ele>88</ele>
        <time>2019-10-28T09:17:40.000Z</time>
      </trkpt>
      <trkpt lat="48.61273" lon="2.11983">
        <ele>88</ele>
        <time>2019-10-28T09:17:41.000Z</time>
      </trkpt>
      <trkpt lat="48.61272" lon="2.11984">
        <ele>88</ele>
        <time>2019-10-28T09:17:42.000Z</time>
      </trkpt>
      <trkpt lat="48.61271" lon="2.11986">
        <ele>88</ele>
        <time>2019-10-28T09:17:43.000Z</time>
      </trkpt>
      <trkpt lat="48.6127" lon="2.11987">
        <ele>88</ele>
        <time>2019-10-28T09:17:44.000Z</time>
      </trkpt>
      <trkpt lat="48.61269" lon="2.11988">
        <ele>88</ele>
        <time>2019-10-28T09:17:45.000Z</time>
      </trkpt>
      <trkpt lat="48.61268" lon="2.11989">
        <ele>88</ele>
        <time>2019-10-28T09:17:46.000Z</time>
      </trkpt>
      <trkpt lat="48.61267" lon="2.1199">
        <ele>88</ele>
        <time>2019-10-28T09:17:47.000Z</time>
      </trkpt>
      <trkpt lat="48.61266" lon="2.11991">
        <ele>88</ele>
        <time>2019-10-28T09:17:48.000Z</time>
      </trkpt>
      <trkpt lat="48.61265" lon="2.11992">
        <ele>88</ele>
        <time>2019-10-28T09:17:49.000Z</time>
      </trkpt>
      <trkpt lat="48.61265" lon="2.11993">
        <ele>88</ele>
        <time>2019-10-28T09:17:50.000Z</time>
      </trkpt>
      <trkpt lat="48.61264" lon="2.11994">
        <ele>88</ele>
        <time>2019-10-28T09:17:51.000Z</time>
      </trkpt>
      <trkpt lat="48.61263" lon="2.11995">
        <ele>88</ele>
        <time>2019-10-28T09:17:52.000Z</time>
      </trkpt>
      <trkpt lat="48.61262" lon="2.11996">
        <ele>88</ele>
        <time>2019-10-28T09:17:53.000Z</time>
      </trkpt>
      <trkpt lat="48.61261" lon="2.11997">
        <ele>88</ele>
        <time>2019-10-28T09:17:54.000Z</time>
      </trkpt>
      <trkpt lat="48.6126" lon="2.11998">
        <ele>88</ele>
        <time>2019-10-28T09:17:55.000Z</time>
      </trkpt>
      <trkpt lat="48.61259" lon="2.11999">
        <ele>88</ele>
        <time>2019-10-28T09:17:56.000Z</time>
      </trkpt>
      <trkpt lat="48.61258" lon="2.12">
        <ele>88</ele>
        <time>2019-10-28T09:17:57.000Z</time>
      </trkpt>
      <trkpt lat="48.61257" lon="2.12001">
        <ele>88</ele>
        <time>2019-10-28T09:17:58.000Z</time>
      </trkpt>
      <trkpt lat="48.61256" lon="2.12001">
        <ele>88</ele>
        <time>2019-10-28T09:17:59.000Z</time>
      </trkpt>
      <trkpt lat="48.61255" lon="2.12001">
        <ele>88</ele>
        <time>2019-10-28T09:18:00.000Z</time>
      </trkpt>
      <trkpt lat="48.61254" lon="2.12002">
        <ele>88</ele>
        <time>2019-10-28T09:18:01.000Z</time>
      </trkpt>
      <trkpt lat="48.61253" lon="2.12003">
        <ele>88</ele>
        <time>2019-10-28T09:18:02.000Z</time>
      </trkpt>
      <trkpt lat="48.61252" lon="2.12004">
        <ele>87</ele>
        <time>2019-10-28T09:18:03.000Z</time>
      </trkpt>
      <trkpt lat="48.61251" lon="2.12005">
        <ele>87</ele>
        <time>2019-10-28T09:18:04.000Z</time>
      </trkpt>
      <trkpt lat="48.6125" lon="2.12006">
        <ele>87</ele>
        <time>2019-10-28T09:18:05.000Z</time>
      </trkpt>
      <trkpt lat="48.61249" lon="2.12007">
        <ele>87</ele>
        <time>2019-10-28T09:18:06.000Z</time>
      </trkpt>
      <trkpt lat="48.61248" lon="2.12007">
        <ele>87</ele>
        <time>2019-10-28T09:18:07.000Z</time>
      </trkpt>
      <trkpt lat="48.61247" lon="2.12008">
        <ele>87</ele>
        <time>2019-10-28T09:18:08.000Z</time>
      </trkpt>
      <trkpt lat="48.61246" lon="2.12009">
        <ele>88</ele>
        <time>2019-10-28T09:18:09.000Z</time>
      </trkpt>
      <trkpt lat="48.61245" lon="2.1201">
        <ele>88</ele>
        <time>2019-10-28T09:18:10.000Z</time>
      </trkpt>
      <trkpt lat="48.61244" lon="2.12011">
        <ele>87</ele>
        <time>2019-10-28T09:18:11.000Z</time>
      </trkpt>
      <trkpt lat="48.61243" lon="2.12011">
        <ele>87</ele>
        <time>2019-10-28T09:18:12.000Z</time>
      </trkpt>
      <trkpt lat="48.61242" lon="2.12012">
        <ele>87</ele>
        <time>2019-10-28T09:18:13.000Z</time>
      </trkpt>
      <trkpt lat="48.61242" lon="2.12013">
        <ele>87</ele>
        <time>2019-10-28T09:18:14.000Z</time>
      </trkpt>
      <trkpt lat="48.61241" lon="2.12014">
        <ele>87</ele>
        <time>2019-10-28T09:18:15.000Z</time>
      </trkpt>
      <trkpt lat="48.6124" lon="2.12015">
        <ele>87</ele>
        <time>2019-10-28T09:18:16.000Z</time>
      </trkpt>
      <trkpt lat="48.61239" lon="2.12016">
        <ele>86</ele>
        <time>2019-10-28T09:18:17.000Z</time>
      </trkpt>
      <trkpt lat="48.61238" lon="2.12017">
        <ele>86</ele>
        <time>2019-10-28T09:18:18.000Z</time>
      </trkpt>
      <trkpt lat="48.61237" lon="2.12018">
        <ele>86</ele>
        <time>2019-10-28T09:18:19.000Z</time>
      </trkpt>
      <trkpt lat="48.61236" lon="2.12018">
        <ele>86</ele>
        <time>2019-10-28T09:18:20.000Z</time>
      </trkpt>
      <trkpt lat="48.61234" lon="2.12019">
        <ele>86</ele>
        <time>2019-10-28T09:18:21.000Z</time>
      </trkpt>
      <trkpt lat="48.61233" lon="2.12019">
        <ele>86</ele>
        <time>2019-10-28T09:18:22.000Z</time>
      </trkpt>
      <trkpt lat="48.61232" lon="2.1202">
        <ele>86</ele>
        <time>2019-10-28T09:18:23.000Z</time>
      </trkpt>
      <trkpt lat="48.61231" lon="2.1202">
        <ele>86</ele>
        <time>2019-10-28T09:18:24.000Z</time>
      </trkpt>
      <trkpt lat="48.6123" lon="2.1202">
        <ele>86</ele>
        <time>2019-10-28T09:18:25.000Z</time>
      </trkpt>
      <trkpt lat="48.61229" lon="2.1202">
        <ele>86</ele>
        <time>2019-10-28T09:18:26.000Z</time>
      </trkpt>
      <trkpt lat="48.61228" lon="2.12021">
        <ele>85</ele>
        <time>2019-10-28T09:18:27.000Z</time>
      </trkpt>
      <trkpt lat="48.61227" lon="2.12021">
        <ele>85</ele>
        <time>2019-10-28T09:18:28.000Z</time>
      </trkpt>
      <trkpt lat="48.61225" lon="2.12021">
        <ele>85</ele>
        <time>2019-10-28T09:18:29.000Z</time>
      </trkpt>
      <trkpt lat="48.61224" lon="2.12021">
        <ele>85</ele>
        <time>2019-10-28T09:18:30.000Z</time>
      </trkpt>
      <trkpt lat="48.61223" lon="2.12022">
        <ele>86</ele>
        <time>2019-10-28T09:18:31.000Z</time>
      </trkpt>
      <trkpt lat="48.61223" lon="2.12022">
        <ele>86</ele>
        <time>2019-10-28T09:18:32.000Z</time>
      </trkpt>
      <trkpt lat="48.61222" lon="2.12023">
        <ele>86</ele>
        <time>2019-10-28T09:18:33.000Z</time>
      </trkpt>
      <trkpt lat="48.61221" lon="2.12023">
        <ele>85</ele>
        <time>2019-10-28T09:18:34.000Z</time>
      </trkpt>
      <trkpt lat="48.6122" lon="2.12023">
        <ele>85</ele>
        <time>2019-10-28T09:18:35.000Z</time>
      </trkpt>
      <trkpt lat="48.61219" lon="2.12024">
        <ele>85</ele>
        <time>2019-10-28T09:18:36.000Z</time>
      </trkpt>
      <trkpt lat="48.61217" lon="2.12024">
        <ele>85</ele>
        <time>2019-10-28T09:18:37.000Z</time>
      </trkpt>
      <trkpt lat="48.61216" lon="2.12024">
        <ele>85</ele>
        <time>2019-10-28T09:18:38.000Z</time>
      </trkpt>
      <trkpt lat="48.61215" lon="2.12025">
        <ele>86</ele>
        <time>2019-10-28T09:18:39.000Z</time>
      </trkpt>
      <trkpt lat="48.61214" lon="2.12025">
        <ele>86</ele>
        <time>2019-10-28T09:18:40.000Z</time>
      </trkpt>
      <trkpt lat="48.61212" lon="2.12025">
        <ele>85</ele>
        <time>2019-10-28T09:18:41.000Z</time>
      </trkpt>
      <trkpt lat="48.61211" lon="2.12025">
        <ele>86</ele>
        <time>2019-10-28T09:18:42.000Z</time>
      </trkpt>
      <trkpt lat="48.6121" lon="2.12026">
        <ele>86</ele>
        <time>2019-10-28T09:18:43.000Z</time>
      </trkpt>
      <trkpt lat="48.61209" lon="2.12026">
        <ele>86</ele>
        <time>2019-10-28T09:18:44.000Z</time>
      </trkpt>
      <trkpt lat="48.61207" lon="2.12027">
        <ele>86</ele>
        <time>2019-10-28T09:18:45.000Z</time>
      </trkpt>
      <trkpt lat="48.61206" lon="2.12027">
        <ele>86</ele>
        <time>2019-10-28T09:18:46.000Z</time>
      </trkpt>
      <trkpt lat="48.61205" lon="2.12027">
        <ele>86</ele>
        <time>2019-10-28T09:18:47.000Z</time>
      </trkpt>
      <trkpt lat="48.61203" lon="2.12028">
        <ele>86</ele>
        <time>2019-10-28T09:18:48.000Z</time>
      </trkpt>
      <trkpt lat="48.61202" lon="2.12028">
        <ele>86</ele>
        <time>2019-10-28T09:18:49.000Z</time>
      </trkpt>
      <trkpt lat="48.61201" lon="2.12028">
        <ele>86</ele>
        <time>2019-10-28T09:18:50.000Z</time>
      </trkpt>
      <trkpt lat="48.61199" lon="2.12029">
        <ele>86</ele>
        <time>2019-10-28T09:18:51.000Z</time>
      </trkpt>
      <trkpt lat="48.61198" lon="2.12029">
        <ele>86</ele>
        <time>2019-10-28T09:18:52.000Z</time>
      </trkpt>
      <trkpt lat="48.61197" lon="2.1203">
        <ele>86</ele>
        <time>2019-10-28T09:18:53.000Z</time>
      </trkpt>
      <trkpt lat="48.61195" lon="2.1203">
        <ele>85</ele>
        <time>2019-10-28T09:18:54.000Z</time>
      </trkpt>
      <trkpt lat="48.61194" lon="2.1203">
        <ele>85</ele>
        <time>2019-10-28T09:18:55.000Z</time>
      </trkpt>
      <trkpt lat="48.61193" lon="2.12031">
        <ele>85</ele>
        <time>2019-10-28T09:18:56.000Z</time>
      </trkpt>
      <trkpt lat="48.61191" lon="2.12031">
        <ele>85</ele>
        <time>2019-10-28T09:18:57.000Z</time>
      </trkpt>
      <trkpt lat="48.6119" lon="2.12032">
        <ele>85</ele>
        <time>2019-10-28T09:18:58.000Z</time>
      </trkpt>
      <trkpt lat="48.61189" lon="2.12032">
        <ele>85</ele>
        <time>2019-10-28T09:18:59.000Z</time>
      </trkpt>
      <trkpt lat="48.61187" lon="2.12033">
        <ele>84</ele>
        <time>2019-10-28T09:19:00.000Z</time>
      </trkpt>
      <trkpt lat="48.61186" lon="2.12033">
        <ele>84</ele>
        <time>2019-10-28T09:19:01.000Z</time>
      </trkpt>
      <trkpt lat="48.61185" lon="2.12034">
        <ele>84</ele>
        <time>2019-10-28T09:19:02.000Z</time>
      </trkpt>
      <trkpt lat="48.61184" lon="2.12034">
        <ele>84</ele>
        <time>2019-10-28T09:19:03.000Z</time>
      </trkpt>
      <trkpt lat="48.61183" lon="2.12034">
        <ele>84</ele>
        <time>2019-10-28T09:19:04.000Z</time>
      </trkpt>
      <trkpt lat="48.61182" lon="2.12035">
        <ele>83</ele>
        <time>2019-10-28T09:19:05.000Z</time>
      </trkpt>
      <trkpt lat="48.61181" lon="2.12035">
        <ele>83</ele>
        <time>2019-10-28T09:19:06.000Z</time>
      </trkpt>
      <trkpt lat="48.61179" lon="2.12035">
        <ele>83</ele>
        <time>2019-10-28T09:19:07.000Z</time>
      </trkpt>
      <trkpt lat="48.61178" lon="2.12035">
        <ele>82</ele>
        <time>2019-10-28T09:19:08.000Z</time>
      </trkpt>
      <trkpt lat="48.61177" lon="2.12035">
        <ele>82</ele>
        <time>2019-10-28T09:19:09.000Z</time>
      </trkpt>
      <trkpt lat="48.61176" lon="2.12035">
        <ele>82</ele>
        <time>2019-10-28T09:19:10.000Z</time>
      </trkpt>
      <trkpt lat="48.61174" lon="2.12036">
        <ele>82</ele>
        <time>2019-10-28T09:19:11.000Z</time>
      </trkpt>
      <trkpt lat="48.61173" lon="2.12036">
        <ele>81</ele>
        <time>2019-10-28T09:19:12.000Z</time>
      </trkpt>
      <trkpt lat="48.61172" lon="2.12036">
        <ele>81</ele>
        <time>2019-10-28T09:19:13.000Z</time>
      </trkpt>
      <trkpt lat="48.6117" lon="2.12036">
        <ele>81</ele>
        <time>2019-10-28T09:19:14.000Z</time>
      </trkpt>
      <trkpt lat="48.61169" lon="2.12037">
        <ele>81</ele>
        <time>2019-10-28T09:19:15.000Z</time>
      </trkpt>
      <trkpt lat="48.61168" lon="2.12037">
        <ele>80</ele>
        <time>2019-10-28T09:19:16.000Z</time>
      </trkpt>
      <trkpt lat="48.61167" lon="2.12037">
        <ele>80</ele>
        <time>2019-10-28T09:19:17.000Z</time>
      </trkpt>
      <trkpt lat="48.61166" lon="2.12037">
        <ele>80</ele>
        <time>2019-10-28T09:19:18.000Z</time>
      </trkpt>
      <trkpt lat="48.61164" lon="2.12037">
        <ele>80</ele>
        <time>2019-10-28T09:19:19.000Z</time>
      </trkpt>
      <trkpt lat="48.61163" lon="2.12037">
        <ele>80</ele>
        <time>2019-10-28T09:19:20.000Z</time>
      </trkpt>
      <trkpt lat="48.61162" lon="2.12037">
        <ele>80</ele>
        <time>2019-10-28T09:19:21.000Z</time>
      </trkpt>
      <trkpt lat="48.61161" lon="2.12037">
        <ele>80</ele>
        <time>2019-10-28T09:19:22.000Z</time>
      </trkpt>
      <trkpt lat="48.61159" lon="2.12038">
        <ele>80</ele>
        <time>2019-10-28T09:19:23.000Z</time>
      </trkpt>
      <trkpt lat="48.61158" lon="2.12038">
        <ele>80</ele>
        <time>2019-10-28T09:19:24.000Z</time>
      </trkpt>
      <trkpt lat="48.61157" lon="2.12038">
        <ele>81</ele>
        <time>2019-10-28T09:19:25.000Z</time>
      </trkpt>
      <trkpt lat="48.61155" lon="2.12038">
        <ele>81</ele>
        <time>2019-10-28T09:19:26.000Z</time>
      </trkpt>
      <trkpt lat="48.61154" lon="2.12039">
        <ele>81</ele>
        <time>2019-10-28T09:19:27.000Z</time>
      </trkpt>
      <trkpt lat="48.61153" lon="2.12039">
        <ele>81</ele>
        <time>2019-10-28T09:19:28.000Z</time>
      </trkpt>
      <trkpt lat="48.61152" lon="2.12039">
        <ele>81</ele>
        <time>2019-10-28T09:19:29.000Z</time>
      </trkpt>
      <trkpt lat="48.6115" lon="2.12039">
        <ele>81</ele>
        <time>2019-10-28T09:19:30.000Z</time>
      </trkpt>
      <trkpt lat="48.61149" lon="2.1204">
        <ele>81</ele>
        <time>2019-10-28T09:19:31.000Z</time>
      </trkpt>
      <trkpt lat="48.61147" lon="2.1204">
        <ele>82</ele>
        <time>2019-10-28T09:19:32.000Z</time>
      </trkpt>
      <trkpt lat="48.61146" lon="2.12041">
        <ele>82</ele>
        <time>2019-10-28T09:19:33.000Z</time>
      </trkpt>
      <trkpt lat="48.61145" lon="2.12041">
        <ele>82</ele>
        <time>2019-10-28T09:19:34.000Z</time>
      </trkpt>
      <trkpt lat="48.61143" lon="2.12042">
        <ele>82</ele>
        <time>2019-10-28T09:19:35.000Z</time>
      </trkpt>
      <trkpt lat="48.61142" lon="2.12042">
        <ele>82</ele>
        <time>2019-10-28T09:19:36.000Z</time>
      </trkpt>
      <trkpt lat="48.61141" lon="2.12042">
        <ele>82</ele>
        <time>2019-10-28T09:19:37.000Z</time>
      </trkpt>
      <trkpt lat="48.6114" lon="2.12043">
        <ele>82</ele>
        <time>2019-10-28T09:19:38.000Z</time>
      </trkpt>
      <trkpt lat="48.61138" lon="2.12043">
        <ele>82</ele>
        <time>2019-10-28T09:19:39.000Z</time>
      </trkpt>
      <trkpt lat="48.61137" lon="2.12043">
        <ele>82</ele>
        <time>2019-10-28T09:19:40.000Z</time>
      </trkpt>
      <trkpt lat="48.61136" lon="2.12044">
        <ele>82</ele>
        <time>2019-10-28T09:19:41.000Z</time>
      </trkpt>
      <trkpt lat="48.61135" lon="2.12044">
        <ele>82</ele>
        <time>2019-10-28T09:19:42.000Z</time>
      </trkpt>
      <trkpt lat="48.61133" lon="2.12045">
        <ele>83</ele>
        <time>2019-10-28T09:19:43.000Z</time>
      </trkpt>
      <trkpt lat="48.61132" lon="2.12046">
        <ele>83</ele>
        <time>2019-10-28T09:19:44.000Z</time>
      </trkpt>
      <trkpt lat="48.6113" lon="2.12046">
        <ele>84</ele>
        <time>2019-10-28T09:19:45.000Z</time>
      </trkpt>
      <trkpt lat="48.61128" lon="2.12047">
        <ele>84</ele>
        <time>2019-10-28T09:19:46.000Z</time>
      </trkpt>
      <trkpt lat="48.61127" lon="2.12048">
        <ele>85</ele>
        <time>2019-10-28T09:19:47.000Z</time>
      </trkpt>
      <trkpt lat="48.61125" lon="2.12049">
        <ele>85</ele>
        <time>2019-10-28T09:19:48.000Z</time>
      </trkpt>
      <trkpt lat="48.61124" lon="2.1205">
        <ele>85</ele>
        <time>2019-10-28T09:19:49.000Z</time>
      </trkpt>
      <trkpt lat="48.61123" lon="2.1205">
        <ele>86</ele>
        <time>2019-10-28T09:19:50.000Z</time>
      </trkpt>
      <trkpt lat="48.61121" lon="2.12051">
        <ele>87</ele>
        <time>2019-10-28T09:19:51.000Z</time>
      </trkpt>
      <trkpt lat="48.6112" lon="2.12052">
        <ele>87</ele>
        <time>2019-10-28T09:19:52.000Z</time>
      </trkpt>
      <trkpt lat="48.61119" lon="2.12052">
        <ele>87</ele>
        <time>2019-10-28T09:19:53.000Z</time>
      </trkpt>
      <trkpt lat="48.61118" lon="2.12053">
        <ele>87</ele>
        <time>2019-10-28T09:19:54.000Z</time>
      </trkpt>
      <trkpt lat="48.61117" lon="2.12053">
        <ele>88</ele>
        <time>2019-10-28T09:19:55.000Z</time>
      </trkpt>
      <trkpt lat="48.61116" lon="2.12053">
        <ele>88</ele>
        <time>2019-10-28T09:19:56.000Z</time>
      </trkpt>
      <trkpt lat="48.61115" lon="2.12053">
        <ele>88</ele>
        <time>2019-10-28T09:19:57.000Z</time>
      </trkpt>
      <trkpt lat="48.61113" lon="2.12054">
        <ele>88</ele>
        <time>2019-10-28T09:19:58.000Z</time>
      </trkpt>
      <trkpt lat="48.61112" lon="2.12055">
        <ele>88</ele>
        <time>2019-10-28T09:19:59.000Z</time>
      </trkpt>
      <trkpt lat="48.6111" lon="2.12055">
        <ele>88</ele>
        <time>2019-10-28T09:20:00.000Z</time>
      </trkpt>
      <trkpt lat="48.61108" lon="2.12056">
        <ele>88</ele>
        <time>2019-10-28T09:20:01.000Z</time>
      </trkpt>
      <trkpt lat="48.61107" lon="2.12057">
        <ele>88</ele>
        <time>2019-10-28T09:20:02.000Z</time>
      </trkpt>
      <trkpt lat="48.61105" lon="2.12057">
        <ele>88</ele>
        <time>2019-10-28T09:20:03.000Z</time>
      </trkpt>
      <trkpt lat="48.61104" lon="2.12057">
        <ele>89</ele>
        <time>2019-10-28T09:20:04.000Z</time>
      </trkpt>
      <trkpt lat="48.61102" lon="2.12058">
        <ele>89</ele>
        <time>2019-10-28T09:20:05.000Z</time>
      </trkpt>
      <trkpt lat="48.61101" lon="2.12058">
        <ele>89</ele>
        <time>2019-10-28T09:20:06.000Z</time>
      </trkpt>
      <trkpt lat="48.61099" lon="2.12059">
        <ele>90</ele>
        <time>2019-10-28T09:20:07.000Z</time>
      </trkpt>
      <trkpt lat="48.61097" lon="2.12059">
        <ele>90</ele>
        <time>2019-10-28T09:20:08.000Z</time>
      </trkpt>
      <trkpt lat="48.61096" lon="2.12059">
        <ele>89</ele>
        <time>2019-10-28T09:20:09.000Z</time>
      </trkpt>
      <trkpt lat="48.61094" lon="2.1206">
        <ele>89</ele>
        <time>2019-10-28T09:20:10.000Z</time>
      </trkpt>
      <trkpt lat="48.61093" lon="2.1206">
        <ele>89</ele>
        <time>2019-10-28T09:20:11.000Z</time>
      </trkpt>
      <trkpt lat="48.61092" lon="2.12061">
        <ele>89</ele>
        <time>2019-10-28T09:20:12.000Z</time>
      </trkpt>
      <trkpt lat="48.6109" lon="2.12061">
        <ele>89</ele>
        <time>2019-10-28T09:20:13.000Z</time>
      </trkpt>
      <trkpt lat="48.61089" lon="2.12062">
        <ele>89</ele>
        <time>2019-10-28T09:20:14.000Z</time>
      </trkpt>
      <trkpt lat="48.61087" lon="2.12062">
        <ele>89</ele>
        <time>2019-10-28T09:20:15.000Z</time>
      </trkpt>
      <trkpt lat="48.61086" lon="2.12062">
        <ele>88</ele>
        <time>2019-10-28T09:20:16.000Z</time>
      </trkpt>
      <trkpt lat="48.61084" lon="2.12063">
        <ele>88</ele>
        <time>2019-10-28T09:20:17.000Z</time>
      </trkpt>
      <trkpt lat="48.61083" lon="2.12063">
        <ele>88</ele>
        <time>2019-10-28T09:20:18.000Z</time>
      </trkpt>
      <trkpt lat="48.61082" lon="2.12063">
        <ele>87</ele>
        <time>2019-10-28T09:20:19.000Z</time>
      </trkpt>
      <trkpt lat="48.6108" lon="2.12063">
        <ele>87</ele>
        <time>2019-10-28T09:20:20.000Z</time>
      </trkpt>
      <trkpt lat="48.61079" lon="2.12064">
        <ele>87</ele>
        <time>2019-10-28T09:20:21.000Z</time>
      </trkpt>
      <trkpt lat="48.61078" lon="2.12064">
        <ele>86</ele>
        <time>2019-10-28T09:20:22.000Z</time>
      </trkpt>
      <trkpt lat="48.61077" lon="2.12065">
        <ele>86</ele>
        <time>2019-10-28T09:20:23.000Z</time>
      </trkpt>
      <trkpt lat="48.61075" lon="2.12065">
        <ele>86</ele>
        <time>2019-10-28T09:20:24.000Z</time>
      </trkpt>
      <trkpt lat="48.61074" lon="2.12065">
        <ele>86</ele>
        <time>2019-10-28T09:20:25.000Z</time>
      </trkpt>
      <trkpt lat="48.61073" lon="2.12065">
        <ele>86</ele>
        <time>2019-10-28T09:20:26.000Z</time>
      </trkpt>
      <trkpt lat="48.61071" lon="2.12065">
        <ele>86</ele>
        <time>2019-10-28T09:20:27.000Z</time>
      </trkpt>
      <trkpt lat="48.6107" lon="2.12066">
        <ele>86</ele>
        <time>2019-10-28T09:20:28.000Z</time>
      </trkpt>
      <trkpt lat="48.61069" lon="2.12066">
        <ele>86</ele>
        <time>2019-10-28T09:20:29.000Z</time>
      </trkpt>
      <trkpt lat="48.61067" lon="2.12066">
        <ele>86</ele>
        <time>2019-10-28T09:20:30.000Z</time>
      </trkpt>
      <trkpt lat="48.61066" lon="2.12066">
        <ele>86</ele>
        <time>2019-10-28T09:20:31.000Z</time>
      </trkpt>
      <trkpt lat="48.61065" lon="2.12067">
        <ele>86</ele>
        <time>2019-10-28T09:20:32.000Z</time>
      </trkpt>
      <trkpt lat="48.61063" lon="2.12067">
        <ele>86</ele>
        <time>2019-10-28T09:20:33.000Z</time>
      </trkpt>
      <trkpt lat="48.61062" lon="2.12068">
        <ele>86</ele>
        <time>2019-10-28T09:20:34.000Z</time>
      </trkpt>
      <trkpt lat="48.6106" lon="2.12068">
        <ele>86</ele>
        <time>2019-10-28T09:20:35.000Z</time>
      </trkpt>
      <trkpt lat="48.61059" lon="2.12068">
        <ele>85</ele>
        <time>2019-10-28T09:20:36.000Z</time>
      </trkpt>
      <trkpt lat="48.61058" lon="2.12068">
        <ele>85</ele>
        <time>2019-10-28T09:20:37.000Z</time>
      </trkpt>
      <trkpt lat="48.61056" lon="2.12069">
        <ele>85</ele>
        <time>2019-10-28T09:20:38.000Z</time>
      </trkpt>
      <trkpt lat="48.61055" lon="2.12069">
        <ele>85</ele>
        <time>2019-10-28T09:20:39.000Z</time>
      </trkpt>
      <trkpt lat="48.61054" lon="2.12069">
        <ele>85</ele>
        <time>2019-10-28T09:20:40.000Z</time>
      </trkpt>
      <trkpt lat="48.61052" lon="2.12069">
        <ele>85</ele>
        <time>2019-10-28T09:20:41.000Z</time>
      </trkpt>
      <trkpt lat="48.61051" lon="2.12069">
        <ele>85</ele>
        <time>2019-10-28T09:20:42.000Z</time>
      </trkpt>
      <trkpt lat="48.61049" lon="2.12069">
        <ele>85</ele>
        <time>2019-10-28T09:20:43.000Z</time>
      </trkpt>
      <trkpt lat="48.61048" lon="2.12069">
        <ele>85</ele>
        <time>2019-10-28T09:20:44.000Z</time>
      </trkpt>
      <trkpt lat="48.61047" lon="2.12069">
        <ele>85</ele>
        <time>2019-10-28T09:20:45.000Z</time>
      </trkpt>
      <trkpt lat="48.61046" lon="2.1207">
        <ele>85</ele>
        <time>2019-10-28T09:20:46.000Z</time>
      </trkpt>
      <trkpt lat="48.61045" lon="2.1207">
        <ele>85</ele>
        <time>2019-10-28T09:20:47.000Z</time>
      </trkpt>
      <trkpt lat="48.61044" lon="2.12071">
        <ele>85</ele>
        <time>2019-10-28T09:20:48.000Z</time>
      </trkpt>
      <trkpt lat="48.61042" lon="2.12071">
        <ele>85</ele>
        <time>2019-10-28T09:20:49.000Z</time>
      </trkpt>
      <trkpt lat="48.61041" lon="2.12072">
        <ele>85</ele>
        <time>2019-10-28T09:20:50.000Z</time>
      </trkpt>
      <trkpt lat="48.61039" lon="2.12072">
        <ele>85</ele>
        <time>2019-10-28T09:20:51.000Z</time>
      </trkpt>
      <trkpt lat="48.61038" lon="2.12072">
        <ele>85</ele>
        <time>2019-10-28T09:20:52.000Z</time>
      </trkpt>
      <trkpt lat="48.61037" lon="2.12073">
        <ele>85</ele>
        <time>2019-10-28T09:20:53.000Z</time>
      </trkpt>
      <trkpt lat="48.61035" lon="2.12073">
        <ele>85</ele>
        <time>2019-10-28T09:20:54.000Z</time>
      </trkpt>
      <trkpt lat="48.61034" lon="2.12074">
        <ele>85</ele>
        <time>2019-10-28T09:20:55.000Z</time>
      </trkpt>
      <trkpt lat="48.61033" lon="2.12075">
        <ele>85</ele>
        <time>2019-10-28T09:20:56.000Z</time>
      </trkpt>
      <trkpt lat="48.61031" lon="2.12075">
        <ele>85</ele>
        <time>2019-10-28T09:20:57.000Z</time>
      </trkpt>
      <trkpt lat="48.6103" lon="2.12076">
        <ele>85</ele>
        <time>2019-10-28T09:20:58.000Z</time>
      </trkpt>
      <trkpt lat="48.61029" lon="2.12077">
        <ele>85</ele>
        <time>2019-10-28T09:20:59.000Z</time>
      </trkpt>
      <trkpt lat="48.61027" lon="2.12077">
        <ele>85</ele>
        <time>2019-10-28T09:21:00.000Z</time>
      </trkpt>
      <trkpt lat="48.61026" lon="2.12078">
        <ele>85</ele>
        <time>2019-10-28T09:21:01.000Z</time>
      </trkpt>
      <trkpt lat="48.61025" lon="2.1208">
        <ele>85</ele>
        <time>2019-10-28T09:21:02.000Z</time>
      </trkpt>
      <trkpt lat="48.61023" lon="2.12081">
        <ele>85</ele>
        <time>2019-10-28T09:21:03.000Z</time>
      </trkpt>
      <trkpt lat="48.61022" lon="2.12082">
        <ele>85</ele>
        <time>2019-10-28T09:21:04.000Z</time>
      </trkpt>
      <trkpt lat="48.61021" lon="2.12083">
        <ele>85</ele>
        <time>2019-10-28T09:21:05.000Z</time>
      </trkpt>
      <trkpt lat="48.6102" lon="2.12085">
        <ele>85</ele>
        <time>2019-10-28T09:21:06.000Z</time>
      </trkpt>
      <trkpt lat="48.61019" lon="2.12086">
        <ele>85</ele>
        <time>2019-10-28T09:21:07.000Z</time>
      </trkpt>
      <trkpt lat="48.61018" lon="2.12087">
        <ele>85</ele>
        <time>2019-10-28T09:21:08.000Z</time>
      </trkpt>
      <trkpt lat="48.61018" lon="2.12088">
        <ele>84</ele>
        <time>2019-10-28T09:21:09.000Z</time>
      </trkpt>
      <trkpt lat="48.61017" lon="2.1209">
        <ele>84</ele>
        <time>2019-10-28T09:21:10.000Z</time>
      </trkpt>
      <trkpt lat="48.61016" lon="2.12091">
        <ele>84</ele>
        <time>2019-10-28T09:21:11.000Z</time>
      </trkpt>
      <trkpt lat="48.61015" lon="2.12093">
        <ele>84</ele>
        <time>2019-10-28T09:21:12.000Z</time>
      </trkpt>
      <trkpt lat="48.61015" lon="2.12094">
        <ele>84</ele>
        <time>2019-10-28T09:21:13.000Z</time>
      </trkpt>
      <trkpt lat="48.61014" lon="2.12096">
        <ele>84</ele>
        <time>2019-10-28T09:21:14.000Z</time>
      </trkpt>
      <trkpt lat="48.61013" lon="2.12098">
        <ele>84</ele>
        <time>2019-10-28T09:21:15.000Z</time>
      </trkpt>
      <trkpt lat="48.61012" lon="2.121">
        <ele>84</ele>
        <time>2019-10-28T09:21:16.000Z</time>
      </trkpt>
      <trkpt lat="48.61012" lon="2.12101">
        <ele>85</ele>
        <time>2019-10-28T09:21:17.000Z</time>
      </trkpt>
      <trkpt lat="48.61011" lon="2.12103">
        <ele>85</ele>
        <time>2019-10-28T09:21:18.000Z</time>
      </trkpt>
      <trkpt lat="48.61011" lon="2.12105">
        <ele>85</ele>
        <time>2019-10-28T09:21:19.000Z</time>
      </trkpt>
      <trkpt lat="48.6101" lon="2.12106">
        <ele>85</ele>
        <time>2019-10-28T09:21:20.000Z</time>
      </trkpt>
      <trkpt lat="48.61009" lon="2.12108">
        <ele>85</ele>
        <time>2019-10-28T09:21:21.000Z</time>
      </trkpt>
      <trkpt lat="48.61009" lon="2.1211">
        <ele>86</ele>
        <time>2019-10-28T09:21:22.000Z</time>
      </trkpt>
      <trkpt lat="48.61008" lon="2.12113">
        <ele>86</ele>
        <time>2019-10-28T09:21:23.000Z</time>
      </trkpt>
      <trkpt lat="48.61008" lon="2.12114">
        <ele>86</ele>
        <time>2019-10-28T09:21:24.000Z</time>
      </trkpt>
      <trkpt lat="48.61007" lon="2.12116">
        <ele>86</ele>
        <time>2019-10-28T09:21:25.000Z</time>
      </trkpt>
      <trkpt lat="48.61007" lon="2.12118">
        <ele>86</ele>
        <time>2019-10-28T09:21:26.000Z</time>
      </trkpt>
      <trkpt lat="48.61006" lon="2.1212">
        <ele>86</ele>
        <time>2019-10-28T09:21:27.000Z</time>
      </trkpt>
      <trkpt lat="48.61006" lon="2.12122">
        <ele>86</ele>
        <time>2019-10-28T09:21:28.000Z</time>
      </trkpt>
      <trkpt lat="48.61006" lon="2.12124">
        <ele>87</ele>
        <time>2019-10-28T09:21:29.000Z</time>
      </trkpt>
      <trkpt lat="48.61005" lon="2.12126">
        <ele>87</ele>
        <time>2019-10-28T09:21:30.000Z</time>
      </trkpt>
      <trkpt lat="48.61005" lon="2.12128">
        <ele>87</ele>
        <time>2019-10-28T09:21:31.000Z</time>
      </trkpt>
      <trkpt lat="48.61005" lon="2.1213">
        <ele>87</ele>
        <time>2019-10-28T09:21:32.000Z</time>
      </trkpt>
      <trkpt lat="48.61004" lon="2.12132">
        <ele>88</ele>
        <time>2019-10-28T09:21:33.000Z</time>
      </trkpt>
      <trkpt lat="48.61004" lon="2.12134">
        <ele>87</ele>
        <time>2019-10-28T09:21:34.000Z</time>
      </trkpt>
      <trkpt lat="48.61004" lon="2.12136">
        <ele>86</ele>
        <time>2019-10-28T09:21:35.000Z</time>
      </trkpt>
      <trkpt lat="48.61004" lon="2.12138">
        <ele>87</ele>
        <time>2019-10-28T09:21:36.000Z</time>
      </trkpt>
      <trkpt lat="48.61003" lon="2.1214">
        <ele>87</ele>
        <time>2019-10-28T09:21:37.000Z</time>
      </trkpt>
      <trkpt lat="48.61003" lon="2.12142">
        <ele>87</ele>
        <time>2019-10-28T09:21:38.000Z</time>
      </trkpt>
      <trkpt lat="48.61002" lon="2.12144">
        <ele>87</ele>
        <time>2019-10-28T09:21:39.000Z</time>
      </trkpt>
      <trkpt lat="48.61002" lon="2.12146">
        <ele>87</ele>
        <time>2019-10-28T09:21:40.000Z</time>
      </trkpt>
      <trkpt lat="48.61002" lon="2.12149">
        <ele>87</ele>
        <time>2019-10-28T09:21:41.000Z</time>
      </trkpt>
      <trkpt lat="48.61001" lon="2.12151">
        <ele>87</ele>
        <time>2019-10-28T09:21:42.000Z</time>
      </trkpt>
      <trkpt lat="48.61001" lon="2.12153">
        <ele>87</ele>
        <time>2019-10-28T09:21:43.000Z</time>
      </trkpt>
      <trkpt lat="48.61001" lon="2.12155">
        <ele>86</ele>
        <time>2019-10-28T09:21:44.000Z</time>
      </trkpt>
      <trkpt lat="48.61" lon="2.12157">
        <ele>86</ele>
        <time>2019-10-28T09:21:45.000Z</time>
      </trkpt>
      <trkpt lat="48.60999" lon="2.12159">
        <ele>85</ele>
        <time>2019-10-28T09:21:46.000Z</time>
      </trkpt>
      <trkpt lat="48.60998" lon="2.12161">
        <ele>85</ele>
        <time>2019-10-28T09:21:47.000Z</time>
      </trkpt>
      <trkpt lat="48.60998" lon="2.12162">
        <ele>84</ele>
        <time>2019-10-28T09:21:48.000Z</time>
      </trkpt>
      <trkpt lat="48.60997" lon="2.12164">
        <ele>84</ele>
        <time>2019-10-28T09:21:49.000Z</time>
      </trkpt>
      <trkpt lat="48.60997" lon="2.12166">
        <ele>84</ele>
        <time>2019-10-28T09:21:50.000Z</time>
      </trkpt>
      <trkpt lat="48.60996" lon="2.12169">
        <ele>84</ele>
        <time>2019-10-28T09:21:51.000Z</time>
      </trkpt>
      <trkpt lat="48.60996" lon="2.12171">
        <ele>84</ele>
        <time>2019-10-28T09:21:52.000Z</time>
      </trkpt>
      <trkpt lat="48.60996" lon="2.12173">
        <ele>84</ele>
        <time>2019-10-28T09:21:53.000Z</time>
      </trkpt>
      <trkpt lat="48.60995" lon="2.12175">
        <ele>84</ele>
        <time>2019-10-28T09:21:54.000Z</time>
      </trkpt>
      <trkpt lat="48.60995" lon="2.12177">
        <ele>84</ele>
        <time>2019-10-28T09:21:55.000Z</time>
      </trkpt>
      <trkpt lat="48.60995" lon="2.12179">
        <ele>84</ele>
        <time>2019-10-28T09:21:56.000Z</time>
      </trkpt>
      <trkpt lat="48.60994" lon="2.12181">
        <ele>84</ele>
        <time>2019-10-28T09:21:57.000Z</time>
      </trkpt>
      <trkpt lat="48.60994" lon="2.12183">
        <ele>84</ele>
        <time>2019-10-28T09:21:58.000Z</time>
      </trkpt>
      <trkpt lat="48.60994" lon="2.12185">
        <ele>84</ele>
        <time>2019-10-28T09:21:59.000Z</time>
      </trkpt>
      <trkpt lat="48.60993" lon="2.12188">
        <ele>85</ele>
        <time>2019-10-28T09:22:00.000Z</time>
      </trkpt>
      <trkpt lat="48.60993" lon="2.1219">
        <ele>84</ele>
        <time>2019-10-28T09:22:01.000Z</time>
      </trkpt>
      <trkpt lat="48.60992" lon="2.12192">
        <ele>84</ele>
        <time>2019-10-28T09:22:02.000Z</time>
      </trkpt>
      <trkpt lat="48.60992" lon="2.12194">
        <ele>84</ele>
        <time>2019-10-28T09:22:03.000Z</time>
      </trkpt>
      <trkpt lat="48.60992" lon="2.12197">
        <ele>85</ele>
        <time>2019-10-28T09:22:04.000Z</time>
      </trkpt>
      <trkpt lat="48.60991" lon="2.12199">
        <ele>84</ele>
        <time>2019-10-28T09:22:05.000Z</time>
      </trkpt>
      <trkpt lat="48.60991" lon="2.12201">
        <ele>84</ele>
        <time>2019-10-28T09:22:06.000Z</time>
      </trkpt>
      <trkpt lat="48.60991" lon="2.12203">
        <ele>85</ele>
        <time>2019-10-28T09:22:07.000Z</time>
      </trkpt>
      <trkpt lat="48.6099" lon="2.12205">
        <ele>84</ele>
        <time>2019-10-28T09:22:08.000Z</time>
      </trkpt>
      <trkpt lat="48.6099" lon="2.12207">
        <ele>84</ele>
        <time>2019-10-28T09:22:09.000Z</time>
      </trkpt>
      <trkpt lat="48.6099" lon="2.12209">
        <ele>84</ele>
        <time>2019-10-28T09:22:10.000Z</time>
      </trkpt>
      <trkpt lat="48.60989" lon="2.12211">
        <ele>84</ele>
        <time>2019-10-28T09:22:11.000Z</time>
      </trkpt>
      <trkpt lat="48.60989" lon="2.12213">
        <ele>85</ele>
        <time>2019-10-28T09:22:12.000Z</time>
      </trkpt>
      <trkpt lat="48.60989" lon="2.12215">
        <ele>84</ele>
        <time>2019-10-28T09:22:13.000Z</time>
      </trkpt>
      <trkpt lat="48.60989" lon="2.12217">
        <ele>85</ele>
        <time>2019-10-28T09:22:14.000Z</time>
      </trkpt>
      <trkpt lat="48.60989" lon="2.1222">
        <ele>85</ele>
        <time>2019-10-28T09:22:15.000Z</time>
      </trkpt>
      <trkpt lat="48.60989" lon="2.12221">
        <ele>85</ele>
        <time>2019-10-28T09:22:16.000Z</time>
      </trkpt>
      <trkpt lat="48.60989" lon="2.12223">
        <ele>85</ele>
        <time>2019-10-28T09:22:17.000Z</time>
      </trkpt>
      <trkpt lat="48.60989" lon="2.12225">
        <ele>85</ele>
        <time>2019-10-28T09:22:18.000Z</time>
      </trkpt>
      <trkpt lat="48.60988" lon="2.12227">
        <ele>84</ele>
        <time>2019-10-28T09:22:19.000Z</time>
      </trkpt>
      <trkpt lat="48.60988" lon="2.12229">
        <ele>84</ele>
        <time>2019-10-28T09:22:20.000Z</time>
      </trkpt>
      <trkpt lat="48.60988" lon="2.12231">
        <ele>84</ele>
        <time>2019-10-28T09:22:21.000Z</time>
      </trkpt>
      <trkpt lat="48.60988" lon="2.12233">
        <ele>84</ele>
        <time>2019-10-28T09:22:22.000Z</time>
      </trkpt>
      <trkpt lat="48.60988" lon="2.12235">
        <ele>84</ele>
        <time>2019-10-28T09:22:23.000Z</time>
      </trkpt>
      <trkpt lat="48.60987" lon="2.12237">
        <ele>84</ele>
        <time>2019-10-28T09:22:24.000Z</time>
      </trkpt>
      <trkpt lat="48.60987" lon="2.12239">
        <ele>83</ele>
        <time>2019-10-28T09:22:25.000Z</time>
      </trkpt>
      <trkpt lat="48.60987" lon="2.12241">
        <ele>84</ele>
        <time>2019-10-28T09:22:26.000Z</time>
      </trkpt>
      <trkpt lat="48.60988" lon="2.12243">
        <ele>84</ele>
        <time>2019-10-28T09:22:27.000Z</time>
      </trkpt>
      <trkpt lat="48.60988" lon="2.12246">
        <ele>84</ele>
        <time>2019-10-28T09:22:28.000Z</time>
      </trkpt>
      <trkpt lat="48.60988" lon="2.12248">
        <ele>84</ele>
        <time>2019-10-28T09:22:29.000Z</time>
      </trkpt>
      <trkpt lat="48.60988" lon="2.1225">
        <ele>84</ele>
        <time>2019-10-28T09:22:30.000Z</time>
      </trkpt>
      <trkpt lat="48.60988" lon="2.12252">
        <ele>84</ele>
        <time>2019-10-28T09:22:31.000Z</time>
      </trkpt>
      <trkpt lat="48.60988" lon="2.12254">
        <ele>84</ele>
        <time>2019-10-28T09:22:32.000Z</time>
      </trkpt>
      <trkpt lat="48.60988" lon="2.12256">
        <ele>84</ele>
        <time>2019-10-28T09:22:33.000Z</time>
      </trkpt>
      <trkpt lat="48.60988" lon="2.12258">
        <ele>84</ele>
        <time>2019-10-28T09:22:34.000Z</time>
      </trkpt>
      <trkpt lat="48.60989" lon="2.12261">
        <ele>84</ele>
        <time>2019-10-28T09:22:35.000Z</time>
      </trkpt>
      <trkpt lat="48.60989" lon="2.12262">
        <ele>84</ele>
        <time>2019-10-28T09:22:36.000Z</time>
      </trkpt>
      <trkpt lat="48.60989" lon="2.12264">
        <ele>84</ele>
        <time>2019-10-28T09:22:37.000Z</time>
      </trkpt>
      <trkpt lat="48.6099" lon="2.12266">
        <ele>84</ele>
        <time>2019-10-28T09:22:38.000Z</time>
      </trkpt>
      <trkpt lat="48.6099" lon="2.12268">
        <ele>83</ele>
        <time>2019-10-28T09:22:39.000Z</time>
      </trkpt>
      <trkpt lat="48.6099" lon="2.1227">
        <ele>84</ele>
        <time>2019-10-28T09:22:40.000Z</time>
      </trkpt>
      <trkpt lat="48.60991" lon="2.12272">
        <ele>84</ele>
        <time>2019-10-28T09:22:41.000Z</time>
      </trkpt>
      <trkpt lat="48.60991" lon="2.12274">
        <ele>84</ele>
        <time>2019-10-28T09:22:42.000Z</time>
      </trkpt>
      <trkpt lat="48.60991" lon="2.12276">
        <ele>84</ele>
        <time>2019-10-28T09:22:43.000Z</time>
      </trkpt>
      <trkpt lat="48.60991" lon="2.12278">
        <ele>84</ele>
        <time>2019-10-28T09:22:44.000Z</time>
      </trkpt>
      <trkpt lat="48.60991" lon="2.1228">
        <ele>84</ele>
        <time>2019-10-28T09:22:45.000Z</time>
      </trkpt>
      <trkpt lat="48.60991" lon="2.12282">
        <ele>84</ele>
        <time>2019-10-28T09:22:46.000Z</time>
      </trkpt>
      <trkpt lat="48.60991" lon="2.12284">
        <ele>84</ele>
        <time>2019-10-28T09:22:47.000Z</time>
      </trkpt>
      <trkpt lat="48.60992" lon="2.12286">
        <ele>85</ele>
        <time>2019-10-28T09:22:48.000Z</time>
      </trkpt>
      <trkpt lat="48.60992" lon="2.12288">
        <ele>85</ele>
        <time>2019-10-28T09:22:49.000Z</time>
      </trkpt>
      <trkpt lat="48.60993" lon="2.1229">
        <ele>85</ele>
        <time>2019-10-28T09:22:50.000Z</time>
      </trkpt>
      <trkpt lat="48.60993" lon="2.12292">
        <ele>85</ele>
        <time>2019-10-28T09:22:51.000Z</time>
      </trkpt>
      <trkpt lat="48.60993" lon="2.12294">
        <ele>85</ele>
        <time>2019-10-28T09:22:52.000Z</time>
      </trkpt>
      <trkpt lat="48.60994" lon="2.12296">
        <ele>85</ele>
        <time>2019-10-28T09:22:53.000Z</time>
      </trkpt>
      <trkpt lat="48.60994" lon="2.12297">
        <ele>85</ele>
        <time>2019-10-28T09:22:54.000Z</time>
      </trkpt>
      <trkpt lat="48.60994" lon="2.12299">
        <ele>86</ele>
        <time>2019-10-28T09:22:55.000Z</time>
      </trkpt>
      <trkpt lat="48.60994" lon="2.12301">
        <ele>86</ele>
        <time>2019-10-28T09:22:56.000Z</time>
      </trkpt>
      <trkpt lat="48.60994" lon="2.12303">
        <ele>86</ele>
        <time>2019-10-28T09:22:57.000Z</time>
      </trkpt>
      <trkpt lat="48.60994" lon="2.12305">
        <ele>86</ele>
        <time>2019-10-28T09:22:58.000Z</time>
      </trkpt>
      <trkpt lat="48.60994" lon="2.12307">
        <ele>86</ele>
        <time>2019-10-28T09:22:59.000Z</time>
      </trkpt>
      <trkpt lat="48.60994" lon="2.12309">
        <ele>86</ele>
        <time>2019-10-28T09:23:00.000Z</time>
      </trkpt>
      <trkpt lat="48.60995" lon="2.12311">
        <ele>86</ele>
        <time>2019-10-28T09:23:01.000Z</time>
      </trkpt>
      <trkpt lat="48.60995" lon="2.12313">
        <ele>86</ele>
        <time>2019-10-28T09:23:02.000Z</time>
      </trkpt>
      <trkpt lat="48.60995" lon="2.12314">
        <ele>86</ele>
        <time>2019-10-28T09:23:03.000Z</time>
      </trkpt>
      <trkpt lat="48.60996" lon="2.12316">
        <ele>87</ele>
        <time>2019-10-28T09:23:04.000Z</time>
      </trkpt>
      <trkpt lat="48.60996" lon="2.12318">
        <ele>87</ele>
        <time>2019-10-28T09:23:05.000Z</time>
      </trkpt>
      <trkpt lat="48.60996" lon="2.1232">
        <ele>87</ele>
        <time>2019-10-28T09:23:06.000Z</time>
      </trkpt>
      <trkpt lat="48.60997" lon="2.12322">
        <ele>87</ele>
        <time>2019-10-28T09:23:07.000Z</time>
      </trkpt>
      <trkpt lat="48.60997" lon="2.12324">
        <ele>87</ele>
        <time>2019-10-28T09:23:08.000Z</time>
      </trkpt>
      <trkpt lat="48.60997" lon="2.12326">
        <ele>87</ele>
        <time>2019-10-28T09:23:09.000Z</time>
      </trkpt>
      <trkpt lat="48.60998" lon="2.12327">
        <ele>88</ele>
        <time>2019-10-28T09:23:10.000Z</time>
      </trkpt>
      <trkpt lat="48.60998" lon="2.12329">
        <ele>87</ele>
        <time>2019-10-28T09:23:11.000Z</time>
      </trkpt>
      <trkpt lat="48.60998" lon="2.12331">
        <ele>87</ele>
        <time>2019-10-28T09:23:12.000Z</time>
      </trkpt>
      <trkpt lat="48.60998" lon="2.12333">
        <ele>88</ele>
        <time>2019-10-28T09:23:13.000Z</time>
      </trkpt>
      <trkpt lat="48.60999" lon="2.12335">
        <ele>88</ele>
        <time>2019-10-28T09:23:14.000Z</time>
      </trkpt>
      <trkpt lat="48.60999" lon="2.12337">
        <ele>88</ele>
        <time>2019-10-28T09:23:15.000Z</time>
      </trkpt>
      <trkpt lat="48.60999" lon="2.12339">
        <ele>88</ele>
        <time>2019-10-28T09:23:16.000Z</time>
      </trkpt>
      <trkpt lat="48.60999" lon="2.12341">
        <ele>88</ele>
        <time>2019-10-28T09:23:17.000Z</time>
      </trkpt>
      <trkpt lat="48.60999" lon="2.12343">
        <ele>88</ele>
        <time>2019-10-28T09:23:18.000Z</time>
      </trkpt>
      <trkpt lat="48.60999" lon="2.12345">
        <ele>88</ele>
        <time>2019-10-28T09:23:19.000Z</time>
      </trkpt>
      <trkpt lat="48.60999" lon="2.12347">
        <ele>88</ele>
        <time>2019-10-28T09:23:20.000Z</time>
      </trkpt>
      <trkpt lat="48.60999" lon="2.12349">
        <ele>89</ele>
        <time>2019-10-28T09:23:21.000Z</time>
      </trkpt>
      <trkpt lat="48.60999" lon="2.12351">
        <ele>89</ele>
        <time>2019-10-28T09:23:22.000Z</time>
      </trkpt>
      <trkpt lat="48.60998" lon="2.12353">
        <ele>89</ele>
        <time>2019-10-28T09:23:23.000Z</time>
      </trkpt>
      <trkpt lat="48.60998" lon="2.12354">
        <ele>89</ele>
        <time>2019-10-28T09:23:24.000Z</time>
      </trkpt>
      <trkpt lat="48.60998" lon="2.12356">
        <ele>89</ele>
        <time>2019-10-28T09:23:25.000Z</time>
      </trkpt>
      <trkpt lat="48.60998" lon="2.12358">
        <ele>89</ele>
        <time>2019-10-28T09:23:26.000Z</time>
      </trkpt>
      <trkpt lat="48.60998" lon="2.12359">
        <ele>89</ele>
        <time>2019-10-28T09:23:27.000Z</time>
      </trkpt>
      <trkpt lat="48.60997" lon="2.12361">
        <ele>89</ele>
        <time>2019-10-28T09:23:28.000Z</time>
      </trkpt>
      <trkpt lat="48.60997" lon="2.12362">
        <ele>89</ele>
        <time>2019-10-28T09:23:29.000Z</time>
      </trkpt>
      <trkpt lat="48.60997" lon="2.12364">
        <ele>90</ele>
        <time>2019-10-28T09:23:30.000Z</time>
      </trkpt>
      <trkpt lat="48.60997" lon="2.12365">
        <ele>90</ele>
        <time>2019-10-28T09:23:31.000Z</time>
      </trkpt>
      <trkpt lat="48.60997" lon="2.12367">
        <ele>90</ele>
        <time>2019-10-28T09:23:32.000Z</time>
      </trkpt>
      <trkpt lat="48.60996" lon="2.12368">
        <ele>90</ele>
        <time>2019-10-28T09:23:33.000Z</time>
      </trkpt>
      <trkpt lat="48.60995" lon="2.1237">
        <ele>90</ele>
        <time>2019-10-28T09:23:34.000Z</time>
      </trkpt>
      <trkpt lat="48.60994" lon="2.12371">
        <ele>90</ele>
        <time>2019-10-28T09:23:35.000Z</time>
      </trkpt>
      <trkpt lat="48.60993" lon="2.12372">
        <ele>90</ele>
        <time>2019-10-28T09:23:36.000Z</time>
      </trkpt>
      <trkpt lat="48.60992" lon="2.12373">
        <ele>90</ele>
        <time>2019-10-28T09:23:37.000Z</time>
      </trkpt>
      <trkpt lat="48.60991" lon="2.12374">
        <ele>90</ele>
        <time>2019-10-28T09:23:38.000Z</time>
      </trkpt>
      <trkpt lat="48.6099" lon="2.12374">
        <ele>90</ele>
        <time>2019-10-28T09:23:39.000Z</time>
      </trkpt>
      <trkpt lat="48.60989" lon="2.12375">
        <ele>90</ele>
        <time>2019-10-28T09:23:40.000Z</time>
      </trkpt>
      <trkpt lat="48.60988" lon="2.12376">
        <ele>91</ele>
        <time>2019-10-28T09:23:41.000Z</time>
      </trkpt>
      <trkpt lat="48.60987" lon="2.12377">
        <ele>91</ele>
        <time>2019-10-28T09:23:42.000Z</time>
      </trkpt>
      <trkpt lat="48.60986" lon="2.12377">
        <ele>91</ele>
        <time>2019-10-28T09:23:43.000Z</time>
      </trkpt>
      <trkpt lat="48.60984" lon="2.12378">
        <ele>91</ele>
        <time>2019-10-28T09:23:44.000Z</time>
      </trkpt>
      <trkpt lat="48.60983" lon="2.12379">
        <ele>91</ele>
        <time>2019-10-28T09:23:45.000Z</time>
      </trkpt>
      <trkpt lat="48.60982" lon="2.1238">
        <ele>91</ele>
        <time>2019-10-28T09:23:46.000Z</time>
      </trkpt>
      <trkpt lat="48.60981" lon="2.1238">
        <ele>91</ele>
        <time>2019-10-28T09:23:47.000Z</time>
      </trkpt>
      <trkpt lat="48.6098" lon="2.12381">
        <ele>91</ele>
        <time>2019-10-28T09:23:48.000Z</time>
      </trkpt>
      <trkpt lat="48.60979" lon="2.12381">
        <ele>91</ele>
        <time>2019-10-28T09:23:49.000Z</time>
      </trkpt>
      <trkpt lat="48.60979" lon="2.12381">
        <ele>91</ele>
        <time>2019-10-28T09:23:50.000Z</time>
      </trkpt>
      <trkpt lat="48.60978" lon="2.12381">
        <ele>91</ele>
        <time>2019-10-28T09:23:51.000Z</time>
      </trkpt>
      <trkpt lat="48.60977" lon="2.12382">
        <ele>91</ele>
        <time>2019-10-28T09:23:52.000Z</time>
      </trkpt>
      <trkpt lat="48.60977" lon="2.12382">
        <ele>91</ele>
        <time>2019-10-28T09:23:53.000Z</time>
      </trkpt>
      <trkpt lat="48.60976" lon="2.12383">
        <ele>91</ele>
        <time>2019-10-28T09:23:54.000Z</time>
      </trkpt>
      <trkpt lat="48.60975" lon="2.12384">
        <ele>91</ele>
        <time>2019-10-28T09:23:55.000Z</time>
      </trkpt>
      <trkpt lat="48.60973" lon="2.12384">
        <ele>91</ele>
        <time>2019-10-28T09:23:56.000Z</time>
      </trkpt>
      <trkpt lat="48.60972" lon="2.12385">
        <ele>91</ele>
        <time>2019-10-28T09:23:57.000Z</time>
      </trkpt>
      <trkpt lat="48.60971" lon="2.12386">
        <ele>91</ele>
        <time>2019-10-28T09:23:58.000Z</time>
      </trkpt>
      <trkpt lat="48.6097" lon="2.12386">
        <ele>91</ele>
        <time>2019-10-28T09:23:59.000Z</time>
      </trkpt>
      <trkpt lat="48.60969" lon="2.12386">
        <ele>91</ele>
        <time>2019-10-28T09:24:00.000Z</time>
      </trkpt>
      <trkpt lat="48.60967" lon="2.12387">
        <ele>91</ele>
        <time>2019-10-28T09:24:01.000Z</time>
      </trkpt>
      <trkpt lat="48.60966" lon="2.12387">
        <ele>91</ele>
        <time>2019-10-28T09:24:02.000Z</time>
      </trkpt>
      <trkpt lat="48.60965" lon="2.12387">
        <ele>91</ele>
        <time>2019-10-28T09:24:03.000Z</time>
      </trkpt>
      <trkpt lat="48.60964" lon="2.12387">
        <ele>91</ele>
        <time>2019-10-28T09:24:04.000Z</time>
      </trkpt>
      <trkpt lat="48.60962" lon="2.12387">
        <ele>91</ele>
        <time>2019-10-28T09:24:05.000Z</time>
      </trkpt>
      <trkpt lat="48.60961" lon="2.12388">
        <ele>91</ele>
        <time>2019-10-28T09:24:06.000Z</time>
      </trkpt>
      <trkpt lat="48.6096" lon="2.12388">
        <ele>91</ele>
        <time>2019-10-28T09:24:07.000Z</time>
      </trkpt>
      <trkpt lat="48.60959" lon="2.12388">
        <ele>91</ele>
        <time>2019-10-28T09:24:08.000Z</time>
      </trkpt>
      <trkpt lat="48.60958" lon="2.12388">
        <ele>91</ele>
        <time>2019-10-28T09:24:09.000Z</time>
      </trkpt>
      <trkpt lat="48.60956" lon="2.12389">
        <ele>91</ele>
        <time>2019-10-28T09:24:10.000Z</time>
      </trkpt>
      <trkpt lat="48.60955" lon="2.12389">
        <ele>91</ele>
        <time>2019-10-28T09:24:11.000Z</time>
      </trkpt>
      <trkpt lat="48.60954" lon="2.1239">
        <ele>91</ele>
        <time>2019-10-28T09:24:12.000Z</time>
      </trkpt>
      <trkpt lat="48.60953" lon="2.1239">
        <ele>91</ele>
        <time>2019-10-28T09:24:13.000Z</time>
      </trkpt>
      <trkpt lat="48.60952" lon="2.12391">
        <ele>91</ele>
        <time>2019-10-28T09:24:14.000Z</time>
      </trkpt>
      <trkpt lat="48.60951" lon="2.12391">
        <ele>91</ele>
        <time>2019-10-28T09:24:15.000Z</time>
      </trkpt>
      <trkpt lat="48.60949" lon="2.12392">
        <ele>92</ele>
        <time>2019-10-28T09:24:16.000Z</time>
      </trkpt>
      <trkpt lat="48.60948" lon="2.12392">
        <ele>92</ele>
        <time>2019-10-28T09:24:17.000Z</time>
      </trkpt>
      <trkpt lat="48.60947" lon="2.12392">
        <ele>92</ele>
        <time>2019-10-28T09:24:18.000Z</time>
      </trkpt>
      <trkpt lat="48.60946" lon="2.12393">
        <ele>92</ele>
        <time>2019-10-28T09:24:19.000Z</time>
      </trkpt>
      <trkpt lat="48.60944" lon="2.12393">
        <ele>92</ele>
        <time>2019-10-28T09:24:20.000Z</time>
      </trkpt>
      <trkpt lat="48.60943" lon="2.12393">
        <ele>92</ele>
        <time>2019-10-28T09:24:21.000Z</time>
      </trkpt>
      <trkpt lat="48.60942" lon="2.12394">
        <ele>92</ele>
        <time>2019-10-28T09:24:22.000Z</time>
      </trkpt>
      <trkpt lat="48.60941" lon="2.12394">
        <ele>92</ele>
        <time>2019-10-28T09:24:23.000Z</time>
      </trkpt>
      <trkpt lat="48.6094" lon="2.12395">
        <ele>91</ele>
        <time>2019-10-28T09:24:24.000Z</time>
      </trkpt>
      <trkpt lat="48.60938" lon="2.12395">
        <ele>91</ele>
        <time>2019-10-28T09:24:25.000Z</time>
      </trkpt>
      <trkpt lat="48.60937" lon="2.12396">
        <ele>91</ele>
        <time>2019-10-28T09:24:26.000Z</time>
      </trkpt>
      <trkpt lat="48.60936" lon="2.12396">
        <ele>91</ele>
        <time>2019-10-28T09:24:27.000Z</time>
      </trkpt>
      <trkpt lat="48.60935" lon="2.12397">
        <ele>92</ele>
        <time>2019-10-28T09:24:28.000Z</time>
      </trkpt>
      <trkpt lat="48.60934" lon="2.12397">
        <ele>92</ele>
        <time>2019-10-28T09:24:29.000Z</time>
      </trkpt>
      <trkpt lat="48.60933" lon="2.12397">
        <ele>92</ele>
        <time>2019-10-28T09:24:30.000Z</time>
      </trkpt>
      <trkpt lat="48.60931" lon="2.12398">
        <ele>92</ele>
        <time>2019-10-28T09:24:31.000Z</time>
      </trkpt>
      <trkpt lat="48.6093" lon="2.12398">
        <ele>92</ele>
        <time>2019-10-28T09:24:32.000Z</time>
      </trkpt>
      <trkpt lat="48.60929" lon="2.12398">
        <ele>92</ele>
        <time>2019-10-28T09:24:33.000Z</time>
      </trkpt>
      <trkpt lat="48.60928" lon="2.12399">
        <ele>92</ele>
        <time>2019-10-28T09:24:34.000Z</time>
      </trkpt>
      <trkpt lat="48.60927" lon="2.12399">
        <ele>92</ele>
        <time>2019-10-28T09:24:35.000Z</time>
      </trkpt>
      <trkpt lat="48.60926" lon="2.12399">
        <ele>92</ele>
        <time>2019-10-28T09:24:36.000Z</time>
      </trkpt>
      <trkpt lat="48.60925" lon="2.124">
        <ele>92</ele>
        <time>2019-10-28T09:24:37.000Z</time>
      </trkpt>
      <trkpt lat="48.60924" lon="2.124">
        <ele>92</ele>
        <time>2019-10-28T09:24:38.000Z</time>
      </trkpt>
      <trkpt lat="48.60923" lon="2.12401">
        <ele>92</ele>
        <time>2019-10-28T09:24:39.000Z</time>
      </trkpt>
      <trkpt lat="48.60921" lon="2.12401">
        <ele>92</ele>
        <time>2019-10-28T09:24:40.000Z</time>
      </trkpt>
      <trkpt lat="48.6092" lon="2.12401">
        <ele>92</ele>
        <time>2019-10-28T09:24:41.000Z</time>
      </trkpt>
      <trkpt lat="48.60919" lon="2.12401">
        <ele>92</ele>
        <time>2019-10-28T09:24:42.000Z</time>
      </trkpt>
      <trkpt lat="48.60918" lon="2.12402">
        <ele>92</ele>
        <time>2019-10-28T09:24:43.000Z</time>
      </trkpt>
      <trkpt lat="48.60917" lon="2.12402">
        <ele>92</ele>
        <time>2019-10-28T09:24:44.000Z</time>
      </trkpt>
      <trkpt lat="48.60916" lon="2.12403">
        <ele>92</ele>
        <time>2019-10-28T09:24:45.000Z</time>
      </trkpt>
      <trkpt lat="48.60915" lon="2.12404">
        <ele>92</ele>
        <time>2019-10-28T09:24:46.000Z</time>
      </trkpt>
      <trkpt lat="48.60913" lon="2.12404">
        <ele>92</ele>
        <time>2019-10-28T09:24:47.000Z</time>
      </trkpt>
      <trkpt lat="48.60912" lon="2.12405">
        <ele>93</ele>
        <time>2019-10-28T09:24:48.000Z</time>
      </trkpt>
      <trkpt lat="48.60911" lon="2.12405">
        <ele>93</ele>
        <time>2019-10-28T09:24:49.000Z</time>
      </trkpt>
      <trkpt lat="48.6091" lon="2.12406">
        <ele>92</ele>
        <time>2019-10-28T09:24:50.000Z</time>
      </trkpt>
      <trkpt lat="48.60908" lon="2.12406">
        <ele>92</ele>
        <time>2019-10-28T09:24:51.000Z</time>
      </trkpt>
      <trkpt lat="48.60907" lon="2.12406">
        <ele>92</ele>
        <time>2019-10-28T09:24:52.000Z</time>
      </trkpt>
      <trkpt lat="48.60906" lon="2.12406">
        <ele>92</ele>
        <time>2019-10-28T09:24:53.000Z</time>
      </trkpt>
      <trkpt lat="48.60905" lon="2.12407">
        <ele>92</ele>
        <time>2019-10-28T09:24:54.000Z</time>
      </trkpt>
      <trkpt lat="48.60904" lon="2.12407">
        <ele>92</ele>
        <time>2019-10-28T09:24:55.000Z</time>
      </trkpt>
      <trkpt lat="48.60903" lon="2.12408">
        <ele>92</ele>
        <time>2019-10-28T09:24:56.000Z</time>
      </trkpt>
      <trkpt lat="48.60901" lon="2.12408">
        <ele>92</ele>
        <time>2019-10-28T09:24:57.000Z</time>
      </trkpt>
      <trkpt lat="48.609" lon="2.12408">
        <ele>92</ele>
        <time>2019-10-28T09:24:58.000Z</time>
      </trkpt>
      <trkpt lat="48.60898" lon="2.12408">
        <ele>92</ele>
        <time>2019-10-28T09:24:59.000Z</time>
      </trkpt>
      <trkpt lat="48.60897" lon="2.12409">
        <ele>92</ele>
        <time>2019-10-28T09:25:00.000Z</time>
      </trkpt>
      <trkpt lat="48.60896" lon="2.12409">
        <ele>92</ele>
        <time>2019-10-28T09:25:01.000Z</time>
      </trkpt>
      <trkpt lat="48.60894" lon="2.1241">
        <ele>92</ele>
        <time>2019-10-28T09:25:02.000Z</time>
      </trkpt>
      <trkpt lat="48.60893" lon="2.1241">
        <ele>92</ele>
        <time>2019-10-28T09:25:03.000Z</time>
      </trkpt>
      <trkpt lat="48.60892" lon="2.12411">
        <ele>92</ele>
        <time>2019-10-28T09:25:04.000Z</time>
      </trkpt>
      <trkpt lat="48.60891" lon="2.12411">
        <ele>92</ele>
        <time>2019-10-28T09:25:05.000Z</time>
      </trkpt>
      <trkpt lat="48.60889" lon="2.12412">
        <ele>92</ele>
        <time>2019-10-28T09:25:06.000Z</time>
      </trkpt>
      <trkpt lat="48.60888" lon="2.12412">
        <ele>92</ele>
        <time>2019-10-28T09:25:07.000Z</time>
      </trkpt>
      <trkpt lat="48.60887" lon="2.12412">
        <ele>92</ele>
        <time>2019-10-28T09:25:08.000Z</time>
      </trkpt>
      <trkpt lat="48.60885" lon="2.12413">
        <ele>92</ele>
        <time>2019-10-28T09:25:09.000Z</time>
      </trkpt>
      <trkpt lat="48.60884" lon="2.12413">
        <ele>92</ele>
        <time>2019-10-28T09:25:10.000Z</time>
      </trkpt>
      <trkpt lat="48.60883" lon="2.12414">
        <ele>92</ele>
        <time>2019-10-28T09:25:11.000Z</time>
      </trkpt>
      <trkpt lat="48.60882" lon="2.12414">
        <ele>92</ele>
        <time>2019-10-28T09:25:12.000Z</time>
      </trkpt>
      <trkpt lat="48.6088" lon="2.12414">
        <ele>92</ele>
        <time>2019-10-28T09:25:13.000Z</time>
      </trkpt>
      <trkpt lat="48.60879" lon="2.12414">
        <ele>92</ele>
        <time>2019-10-28T09:25:14.000Z</time>
      </trkpt>
      <trkpt lat="48.60878" lon="2.12415">
        <ele>92</ele>
        <time>2019-10-28T09:25:15.000Z</time>
      </trkpt>
      <trkpt lat="48.60876" lon="2.12415">
        <ele>92</ele>
        <time>2019-10-28T09:25:16.000Z</time>
      </trkpt>
      <trkpt lat="48.60875" lon="2.12415">
        <ele>92</ele>
        <time>2019-10-28T09:25:17.000Z</time>
      </trkpt>
      <trkpt lat="48.60874" lon="2.12416">
        <ele>92</ele>
        <time>2019-10-28T09:25:18.000Z</time>
      </trkpt>
      <trkpt lat="48.60873" lon="2.12417">
        <ele>92</ele>
        <time>2019-10-28T09:25:19.000Z</time>
      </trkpt>
      <trkpt lat="48.60872" lon="2.12417">
        <ele>92</ele>
        <time>2019-10-28T09:25:20.000Z</time>
      </trkpt>
      <trkpt lat="48.60871" lon="2.12418">
        <ele>92</ele>
        <time>2019-10-28T09:25:21.000Z</time>
      </trkpt>
      <trkpt lat="48.60869" lon="2.12418">
        <ele>92</ele>
        <time>2019-10-28T09:25:22.000Z</time>
      </trkpt>
      <trkpt lat="48.60868" lon="2.12419">
        <ele>92</ele>
        <time>2019-10-28T09:25:23.000Z</time>
      </trkpt>
      <trkpt lat="48.60867" lon="2.12419">
        <ele>92</ele>
        <time>2019-10-28T09:25:24.000Z</time>
      </trkpt>
      <trkpt lat="48.60866" lon="2.12419">
        <ele>92</ele>
        <time>2019-10-28T09:25:25.000Z</time>
      </trkpt>
      <trkpt lat="48.60864" lon="2.12419">
        <ele>92</ele>
        <time>2019-10-28T09:25:26.000Z</time>
      </trkpt>
      <trkpt lat="48.60863" lon="2.1242">
        <ele>92</ele>
        <time>2019-10-28T09:25:27.000Z</time>
      </trkpt>
      <trkpt lat="48.60862" lon="2.1242">
        <ele>92</ele>
        <time>2019-10-28T09:25:28.000Z</time>
      </trkpt>
      <trkpt lat="48.6086" lon="2.1242">
        <ele>92</ele>
        <time>2019-10-28T09:25:29.000Z</time>
      </trkpt>
      <trkpt lat="48.60859" lon="2.12421">
        <ele>92</ele>
        <time>2019-10-28T09:25:30.000Z</time>
      </trkpt>
      <trkpt lat="48.60858" lon="2.12421">
        <ele>92</ele>
        <time>2019-10-28T09:25:31.000Z</time>
      </trkpt>
      <trkpt lat="48.60857" lon="2.12421">
        <ele>92</ele>
        <time>2019-10-28T09:25:32.000Z</time>
      </trkpt>
      <trkpt lat="48.60855" lon="2.12421">
        <ele>92</ele>
        <time>2019-10-28T09:25:33.000Z</time>
      </trkpt>
      <trkpt lat="48.60854" lon="2.12422">
        <ele>92</ele>
        <time>2019-10-28T09:25:34.000Z</time>
      </trkpt>
      <trkpt lat="48.60853" lon="2.12422">
        <ele>92</ele>
        <time>2019-10-28T09:25:35.000Z</time>
      </trkpt>
      <trkpt lat="48.60851" lon="2.12422">
        <ele>92</ele>
        <time>2019-10-28T09:25:36.000Z</time>
      </trkpt>
      <trkpt lat="48.6085" lon="2.12422">
        <ele>92</ele>
        <time>2019-10-28T09:25:37.000Z</time>
      </trkpt>
      <trkpt lat="48.60849" lon="2.12423">
        <ele>91</ele>
        <time>2019-10-28T09:25:38.000Z</time>
      </trkpt>
      <trkpt lat="48.60848" lon="2.12423">
        <ele>91</ele>
        <time>2019-10-28T09:25:39.000Z</time>
      </trkpt>
      <trkpt lat="48.60846" lon="2.12424">
        <ele>91</ele>
        <time>2019-10-28T09:25:40.000Z</time>
      </trkpt>
      <trkpt lat="48.60845" lon="2.12424">
        <ele>91</ele>
        <time>2019-10-28T09:25:41.000Z</time>
      </trkpt>
      <trkpt lat="48.60844" lon="2.12425">
        <ele>91</ele>
        <time>2019-10-28T09:25:42.000Z</time>
      </trkpt>
      <trkpt lat="48.60843" lon="2.12425">
        <ele>91</ele>
        <time>2019-10-28T09:25:43.000Z</time>
      </trkpt>
      <trkpt lat="48.60841" lon="2.12425">
        <ele>91</ele>
        <time>2019-10-28T09:25:44.000Z</time>
      </trkpt>
      <trkpt lat="48.6084" lon="2.12426">
        <ele>92</ele>
        <time>2019-10-28T09:25:45.000Z</time>
      </trkpt>
      <trkpt lat="48.60839" lon="2.12426">
        <ele>92</ele>
        <time>2019-10-28T09:25:46.000Z</time>
      </trkpt>
      <trkpt lat="48.60838" lon="2.12427">
        <ele>91</ele>
        <time>2019-10-28T09:25:47.000Z</time>
      </trkpt>
      <trkpt lat="48.60836" lon="2.12427">
        <ele>91</ele>
        <time>2019-10-28T09:25:48.000Z</time>
      </trkpt>
      <trkpt lat="48.60835" lon="2.12428">
        <ele>91</ele>
        <time>2019-10-28T09:25:49.000Z</time>
      </trkpt>
      <trkpt lat="48.60834" lon="2.12428">
        <ele>91</ele>
        <time>2019-10-28T09:25:50.000Z</time>
      </trkpt>
      <trkpt lat="48.60832" lon="2.12429">
        <ele>91</ele>
        <time>2019-10-28T09:25:51.000Z</time>
      </trkpt>
      <trkpt lat="48.60831" lon="2.12429">
        <ele>91</ele>
        <time>2019-10-28T09:25:52.000Z</time>
      </trkpt>
      <trkpt lat="48.6083" lon="2.12429">
        <ele>91</ele>
        <time>2019-10-28T09:25:53.000Z</time>
      </trkpt>
      <trkpt lat="48.60829" lon="2.1243">
        <ele>91</ele>
        <time>2019-10-28T09:25:54.000Z</time>
      </trkpt>
      <trkpt lat="48.60828" lon="2.1243">
        <ele>91</ele>
        <time>2019-10-28T09:25:55.000Z</time>
      </trkpt>
      <trkpt lat="48.60827" lon="2.12431">
        <ele>91</ele>
        <time>2019-10-28T09:25:56.000Z</time>
      </trkpt>
      <trkpt lat="48.60826" lon="2.12431">
        <ele>91</ele>
        <time>2019-10-28T09:25:57.000Z</time>
      </trkpt>
      <trkpt lat="48.60824" lon="2.12431">
        <ele>91</ele>
        <time>2019-10-28T09:25:58.000Z</time>
      </trkpt>
      <trkpt lat="48.60823" lon="2.12431">
        <ele>91</ele>
        <time>2019-10-28T09:25:59.000Z</time>
      </trkpt>
      <trkpt lat="48.60822" lon="2.12431">
        <ele>91</ele>
        <time>2019-10-28T09:26:00.000Z</time>
      </trkpt>
      <trkpt lat="48.6082" lon="2.12432">
        <ele>91</ele>
        <time>2019-10-28T09:26:01.000Z</time>
      </trkpt>
      <trkpt lat="48.60819" lon="2.12432">
        <ele>91</ele>
        <time>2019-10-28T09:26:02.000Z</time>
      </trkpt>
      <trkpt lat="48.60818" lon="2.12433">
        <ele>91</ele>
        <time>2019-10-28T09:26:03.000Z</time>
      </trkpt>
      <trkpt lat="48.60817" lon="2.12433">
        <ele>91</ele>
        <time>2019-10-28T09:26:04.000Z</time>
      </trkpt>
      <trkpt lat="48.60815" lon="2.12434">
        <ele>92</ele>
        <time>2019-10-28T09:26:05.000Z</time>
      </trkpt>
      <trkpt lat="48.60814" lon="2.12434">
        <ele>92</ele>
        <time>2019-10-28T09:26:06.000Z</time>
      </trkpt>
      <trkpt lat="48.60813" lon="2.12434">
        <ele>92</ele>
        <time>2019-10-28T09:26:07.000Z</time>
      </trkpt>
      <trkpt lat="48.60811" lon="2.12434">
        <ele>91</ele>
        <time>2019-10-28T09:26:08.000Z</time>
      </trkpt>
      <trkpt lat="48.6081" lon="2.12434">
        <ele>91</ele>
        <time>2019-10-28T09:26:09.000Z</time>
      </trkpt>
      <trkpt lat="48.60809" lon="2.12434">
        <ele>91</ele>
        <time>2019-10-28T09:26:10.000Z</time>
      </trkpt>
      <trkpt lat="48.60808" lon="2.12435">
        <ele>91</ele>
        <time>2019-10-28T09:26:11.000Z</time>
      </trkpt>
      <trkpt lat="48.60806" lon="2.12435">
        <ele>91</ele>
        <time>2019-10-28T09:26:12.000Z</time>
      </trkpt>
      <trkpt lat="48.60805" lon="2.12435">
        <ele>91</ele>
        <time>2019-10-28T09:26:13.000Z</time>
      </trkpt>
      <trkpt lat="48.60804" lon="2.12435">
        <ele>91</ele>
        <time>2019-10-28T09:26:14.000Z</time>
      </trkpt>
      <trkpt lat="48.60803" lon="2.12435">
        <ele>91</ele>
        <time>2019-10-28T09:26:15.000Z</time>
      </trkpt>
      <trkpt lat="48.60801" lon="2.12436">
        <ele>91</ele>
        <time>2019-10-28T09:26:16.000Z</time>
      </trkpt>
      <trkpt lat="48.608" lon="2.12436">
        <ele>91</ele>
        <time>2019-10-28T09:26:17.000Z</time>
      </trkpt>
      <trkpt lat="48.60799" lon="2.12436">
        <ele>91</ele>
        <time>2019-10-28T09:26:18.000Z</time>
      </trkpt>
      <trkpt lat="48.60798" lon="2.12436">
        <ele>91</ele>
        <time>2019-10-28T09:26:19.000Z</time>
      </trkpt>
      <trkpt lat="48.60797" lon="2.12436">
        <ele>91</ele>
        <time>2019-10-28T09:26:20.000Z</time>
      </trkpt>
      <trkpt lat="48.60796" lon="2.12436">
        <ele>91</ele>
        <time>2019-10-28T09:26:21.000Z</time>
      </trkpt>
      <trkpt lat="48.60795" lon="2.12436">
        <ele>91</ele>
        <time>2019-10-28T09:26:22.000Z</time>
      </trkpt>
      <trkpt lat="48.60794" lon="2.12437">
        <ele>91</ele>
        <time>2019-10-28T09:26:23.000Z</time>
      </trkpt>
      <trkpt lat="48.60792" lon="2.12437">
        <ele>92</ele>
        <time>2019-10-28T09:26:24.000Z</time>
      </trkpt>
      <trkpt lat="48.60791" lon="2.12437">
        <ele>92</ele>
        <time>2019-10-28T09:26:25.000Z</time>
      </trkpt>
      <trkpt lat="48.6079" lon="2.12437">
        <ele>91</ele>
        <time>2019-10-28T09:26:26.000Z</time>
      </trkpt>
      <trkpt lat="48.60789" lon="2.12437">
        <ele>91</ele>
        <time>2019-10-28T09:26:27.000Z</time>
      </trkpt>
      <trkpt lat="48.60788" lon="2.12437">
        <ele>91</ele>
        <time>2019-10-28T09:26:28.000Z</time>
      </trkpt>
      <trkpt lat="48.60787" lon="2.12438">
        <ele>91</ele>
        <time>2019-10-28T09:26:29.000Z</time>
      </trkpt>
      <trkpt lat="48.60786" lon="2.12438">
        <ele>91</ele>
        <time>2019-10-28T09:26:30.000Z</time>
      </trkpt>
      <trkpt lat="48.60785" lon="2.12438">
        <ele>91</ele>
        <time>2019-10-28T09:26:31.000Z</time>
      </trkpt>
      <trkpt lat="48.60784" lon="2.12438">
        <ele>91</ele>
        <time>2019-10-28T09:26:32.000Z</time>
      </trkpt>
      <trkpt lat="48.60784" lon="2.12439">
        <ele>91</ele>
        <time>2019-10-28T09:26:33.000Z</time>
      </trkpt>
      <trkpt lat="48.60783" lon="2.12439">
        <ele>91</ele>
        <time>2019-10-28T09:26:34.000Z</time>
      </trkpt>
      <trkpt lat="48.60782" lon="2.12439">
        <ele>91</ele>
        <time>2019-10-28T09:26:35.000Z</time>
      </trkpt>
      <trkpt lat="48.60781" lon="2.12439">
        <ele>91</ele>
        <time>2019-10-28T09:26:36.000Z</time>
      </trkpt>
      <trkpt lat="48.6078" lon="2.12439">
        <ele>91</ele>
        <time>2019-10-28T09:26:37.000Z</time>
      </trkpt>
      <trkpt lat="48.60779" lon="2.12439">
        <ele>91</ele>
        <time>2019-10-28T09:26:38.000Z</time>
      </trkpt>
      <trkpt lat="48.60779" lon="2.1244">
        <ele>91</ele>
        <time>2019-10-28T09:26:39.000Z</time>
      </trkpt>
      <trkpt lat="48.60778" lon="2.1244">
        <ele>91</ele>
        <time>2019-10-28T09:26:40.000Z</time>
      </trkpt>
      <trkpt lat="48.60777" lon="2.1244">
        <ele>91</ele>
        <time>2019-10-28T09:26:41.000Z</time>
      </trkpt>
      <trkpt lat="48.60776" lon="2.1244">
        <ele>91</ele>
        <time>2019-10-28T09:26:42.000Z</time>
      </trkpt>
      <trkpt lat="48.60775" lon="2.1244">
        <ele>91</ele>
        <time>2019-10-28T09:26:43.000Z</time>
      </trkpt>
      <trkpt lat="48.60775" lon="2.1244">
        <ele>91</ele>
        <time>2019-10-28T09:26:44.000Z</time>
      </trkpt>
      <trkpt lat="48.60775" lon="2.1244">
        <ele>91</ele>
        <time>2019-10-28T09:26:45.000Z</time>
      </trkpt>
      <trkpt lat="48.60775" lon="2.1244">
        <ele>91</ele>
        <time>2019-10-28T09:26:46.000Z</time>
      </trkpt>
      <trkpt lat="48.60775" lon="2.1244">
        <ele>91</ele>
        <time>2019-10-28T09:26:47.000Z</time>
      </trkpt>
      <trkpt lat="48.60775" lon="2.1244">
        <ele>91</ele>
        <time>2019-10-28T09:26:48.000Z</time>
      </trkpt>
      <trkpt lat="48.60775" lon="2.1244">
        <ele>91</ele>
        <time>2019-10-28T09:26:49.000Z</time>
      </trkpt>
      <trkpt lat="48.60775" lon="2.1244">
        <ele>91</ele>
        <time>2019-10-28T09:26:50.000Z</time>
      </trkpt>
      <trkpt lat="48.60775" lon="2.1244">
        <ele>91</ele>
        <time>2019-10-28T09:26:51.000Z</time>
      </trkpt>
      <trkpt lat="48.60775" lon="2.1244">
        <ele>91</ele>
        <time>2019-10-28T09:26:52.000Z</time>
      </trkpt>
      <trkpt lat="48.60775" lon="2.1244">
        <ele>91</ele>
        <time>2019-10-28T09:26:53.000Z</time>
      </trkpt>
      <trkpt lat="48.60775" lon="2.1244">
        <ele>91</ele>
        <time>2019-10-28T09:26:54.000Z</time>
      </trkpt>
      <trkpt lat="48.60774" lon="2.1244">
        <ele>91</ele>
        <time>2019-10-28T09:26:55.000Z</time>
      </trkpt>
      <trkpt lat="48.60774" lon="2.1244">
        <ele>91</ele>
        <time>2019-10-28T09:26:56.000Z</time>
      </trkpt>
      <trkpt lat="48.60774" lon="2.1244">
        <ele>91</ele>
        <time>2019-10-28T09:26:57.000Z</time>
      </trkpt>
      <trkpt lat="48.60774" lon="2.12441">
        <ele>91</ele>
        <time>2019-10-28T09:26:58.000Z</time>
      </trkpt>
      <trkpt lat="48.60774" lon="2.12441">
        <ele>91</ele>
        <time>2019-10-28T09:26:59.000Z</time>
      </trkpt>
      <trkpt lat="48.60774" lon="2.12441">
        <ele>91</ele>
        <time>2019-10-28T09:27:00.000Z</time>
      </trkpt>
      <trkpt lat="48.60774" lon="2.12441">
        <ele>91</ele>
        <time>2019-10-28T09:27:01.000Z</time>
      </trkpt>
      <trkpt lat="48.60774" lon="2.12441">
        <ele>91</ele>
        <time>2019-10-28T09:27:02.000Z</time>
      </trkpt>
      <trkpt lat="48.60774" lon="2.12441">
        <ele>91</ele>
        <time>2019-10-28T09:27:03.000Z</time>
      </trkpt>
      <trkpt lat="48.60774" lon="2.12441">
        <ele>91</ele>
        <time>2019-10-28T09:27:04.000Z</time>
      </trkpt>
      <trkpt lat="48.60774" lon="2.12441">
        <ele>91</ele>
        <time>2019-10-28T09:27:05.000Z</time>
      </trkpt>
      <trkpt lat="48.60775" lon="2.12441">
        <ele>91</ele>
        <time>2019-10-28T09:27:06.000Z</time>
      </trkpt>
      <trkpt lat="48.60775" lon="2.12441">
        <ele>91</ele>
        <time>2019-10-28T09:27:07.000Z</time>
      </trkpt>
      <trkpt lat="48.60774" lon="2.12441">
        <ele>91</ele>
        <time>2019-10-28T09:27:08.000Z</time>
      </trkpt>
      <trkpt lat="48.60774" lon="2.12441">
        <ele>91</ele>
        <time>2019-10-28T09:27:09.000Z</time>
      </trkpt>
      <trkpt lat="48.60773" lon="2.12442">
        <ele>91</ele>
        <time>2019-10-28T09:27:10.000Z</time>
      </trkpt>
      <trkpt lat="48.60773" lon="2.12443">
        <ele>91</ele>
        <time>2019-10-28T09:27:11.000Z</time>
      </trkpt>
      <trkpt lat="48.60772" lon="2.12443">
        <ele>92</ele>
        <time>2019-10-28T09:27:12.000Z</time>
      </trkpt>
      <trkpt lat="48.60771" lon="2.12443">
        <ele>91</ele>
        <time>2019-10-28T09:27:13.000Z</time>
      </trkpt>
      <trkpt lat="48.6077" lon="2.12443">
        <ele>91</ele>
        <time>2019-10-28T09:27:14.000Z</time>
      </trkpt>
      <trkpt lat="48.60769" lon="2.12444">
        <ele>91</ele>
        <time>2019-10-28T09:27:15.000Z</time>
      </trkpt>
      <trkpt lat="48.60768" lon="2.12444">
        <ele>91</ele>
        <time>2019-10-28T09:27:16.000Z</time>
      </trkpt>
      <trkpt lat="48.60767" lon="2.12444">
        <ele>91</ele>
        <time>2019-10-28T09:27:17.000Z</time>
      </trkpt>
      <trkpt lat="48.60766" lon="2.12444">
        <ele>91</ele>
        <time>2019-10-28T09:27:18.000Z</time>
      </trkpt>
      <trkpt lat="48.60765" lon="2.12444">
        <ele>91</ele>
        <time>2019-10-28T09:27:19.000Z</time>
      </trkpt>
      <trkpt lat="48.60763" lon="2.12444">
        <ele>91</ele>
        <time>2019-10-28T09:27:20.000Z</time>
      </trkpt>
      <trkpt lat="48.60762" lon="2.12444">
        <ele>91</ele>
        <time>2019-10-28T09:27:21.000Z</time>
      </trkpt>
      <trkpt lat="48.60761" lon="2.12445">
        <ele>91</ele>
        <time>2019-10-28T09:27:22.000Z</time>
      </trkpt>
      <trkpt lat="48.6076" lon="2.12445">
        <ele>91</ele>
        <time>2019-10-28T09:27:23.000Z</time>
      </trkpt>
      <trkpt lat="48.60759" lon="2.12446">
        <ele>91</ele>
        <time>2019-10-28T09:27:24.000Z</time>
      </trkpt>
      <trkpt lat="48.60758" lon="2.12446">
        <ele>91</ele>
        <time>2019-10-28T09:27:25.000Z</time>
      </trkpt>
      <trkpt lat="48.60757" lon="2.12447">
        <ele>91</ele>
        <time>2019-10-28T09:27:26.000Z</time>
      </trkpt>
      <trkpt lat="48.60756" lon="2.12447">
        <ele>91</ele>
        <time>2019-10-28T09:27:27.000Z</time>
      </trkpt>
      <trkpt lat="48.60755" lon="2.12447">
        <ele>91</ele>
        <time>2019-10-28T09:27:28.000Z</time>
      </trkpt>
      <trkpt lat="48.60754" lon="2.12447">
        <ele>91</ele>
        <time>2019-10-28T09:27:29.000Z</time>
      </trkpt>
      <trkpt lat="48.60752" lon="2.12447">
        <ele>91</ele>
        <time>2019-10-28T09:27:30.000Z</time>
      </trkpt>
      <trkpt lat="48.60751" lon="2.12447">
        <ele>91</ele>
        <time>2019-10-28T09:27:31.000Z</time>
      </trkpt>
      <trkpt lat="48.6075" lon="2.12448">
        <ele>91</ele>
        <time>2019-10-28T09:27:32.000Z</time>
      </trkpt>
      <trkpt lat="48.60748" lon="2.12448">
        <ele>91</ele>
        <time>2019-10-28T09:27:33.000Z</time>
      </trkpt>
      <trkpt lat="48.60747" lon="2.12448">
        <ele>90</ele>
        <time>2019-10-28T09:27:34.000Z</time>
      </trkpt>
      <trkpt lat="48.60746" lon="2.12448">
        <ele>91</ele>
        <time>2019-10-28T09:27:35.000Z</time>
      </trkpt>
      <trkpt lat="48.60745" lon="2.12449">
        <ele>91</ele>
        <time>2019-10-28T09:27:36.000Z</time>
      </trkpt>
      <trkpt lat="48.60743" lon="2.12449">
        <ele>91</ele>
        <time>2019-10-28T09:27:37.000Z</time>
      </trkpt>
      <trkpt lat="48.60742" lon="2.12449">
        <ele>91</ele>
        <time>2019-10-28T09:27:38.000Z</time>
      </trkpt>
      <trkpt lat="48.60741" lon="2.12449">
        <ele>91</ele>
        <time>2019-10-28T09:27:39.000Z</time>
      </trkpt>
      <trkpt lat="48.6074" lon="2.1245">
        <ele>91</ele>
        <time>2019-10-28T09:27:40.000Z</time>
      </trkpt>
      <trkpt lat="48.60739" lon="2.1245">
        <ele>91</ele>
        <time>2019-10-28T09:27:41.000Z</time>
      </trkpt>
      <trkpt lat="48.60738" lon="2.1245">
        <ele>91</ele>
        <time>2019-10-28T09:27:42.000Z</time>
      </trkpt>
      <trkpt lat="48.60737" lon="2.12451">
        <ele>91</ele>
        <time>2019-10-28T09:27:43.000Z</time>
      </trkpt>
      <trkpt lat="48.60736" lon="2.12451">
        <ele>90</ele>
        <time>2019-10-28T09:27:44.000Z</time>
      </trkpt>
      <trkpt lat="48.60735" lon="2.12452">
        <ele>90</ele>
        <time>2019-10-28T09:27:45.000Z</time>
      </trkpt>
      <trkpt lat="48.60734" lon="2.12452">
        <ele>90</ele>
        <time>2019-10-28T09:27:46.000Z</time>
      </trkpt>
      <trkpt lat="48.60732" lon="2.12453">
        <ele>91</ele>
        <time>2019-10-28T09:27:47.000Z</time>
      </trkpt>
      <trkpt lat="48.60731" lon="2.12453">
        <ele>91</ele>
        <time>2019-10-28T09:27:48.000Z</time>
      </trkpt>
      <trkpt lat="48.6073" lon="2.12453">
        <ele>91</ele>
        <time>2019-10-28T09:27:49.000Z</time>
      </trkpt>
      <trkpt lat="48.60729" lon="2.12454">
        <ele>91</ele>
        <time>2019-10-28T09:27:50.000Z</time>
      </trkpt>
      <trkpt lat="48.60727" lon="2.12454">
        <ele>91</ele>
        <time>2019-10-28T09:27:51.000Z</time>
      </trkpt>
      <trkpt lat="48.60726" lon="2.12455">
        <ele>91</ele>
        <time>2019-10-28T09:27:52.000Z</time>
      </trkpt>
      <trkpt lat="48.60725" lon="2.12455">
        <ele>91</ele>
        <time>2019-10-28T09:27:53.000Z</time>
      </trkpt>
      <trkpt lat="48.60724" lon="2.12456">
        <ele>91</ele>
        <time>2019-10-28T09:27:54.000Z</time>
      </trkpt>
      <trkpt lat="48.60722" lon="2.12456">
        <ele>91</ele>
        <time>2019-10-28T09:27:55.000Z</time>
      </trkpt>
      <trkpt lat="48.60721" lon="2.12456">
        <ele>91</ele>
        <time>2019-10-28T09:27:56.000Z</time>
      </trkpt>
      <trkpt lat="48.6072" lon="2.12456">
        <ele>91</ele>
        <time>2019-10-28T09:27:57.000Z</time>
      </trkpt>
      <trkpt lat="48.60719" lon="2.12457">
        <ele>91</ele>
        <time>2019-10-28T09:27:58.000Z</time>
      </trkpt>
      <trkpt lat="48.60718" lon="2.12457">
        <ele>91</ele>
        <time>2019-10-28T09:27:59.000Z</time>
      </trkpt>
      <trkpt lat="48.60718" lon="2.12457">
        <ele>90</ele>
        <time>2019-10-28T09:28:00.000Z</time>
      </trkpt>
      <trkpt lat="48.60716" lon="2.12457">
        <ele>90</ele>
        <time>2019-10-28T09:28:01.000Z</time>
      </trkpt>
      <trkpt lat="48.60715" lon="2.12458">
        <ele>90</ele>
        <time>2019-10-28T09:28:02.000Z</time>
      </trkpt>
      <trkpt lat="48.60714" lon="2.12458">
        <ele>90</ele>
        <time>2019-10-28T09:28:03.000Z</time>
      </trkpt>
      <trkpt lat="48.60713" lon="2.12459">
        <ele>90</ele>
        <time>2019-10-28T09:28:04.000Z</time>
      </trkpt>
      <trkpt lat="48.60712" lon="2.12459">
        <ele>90</ele>
        <time>2019-10-28T09:28:05.000Z</time>
      </trkpt>
      <trkpt lat="48.60711" lon="2.1246">
        <ele>90</ele>
        <time>2019-10-28T09:28:06.000Z</time>
      </trkpt>
      <trkpt lat="48.60709" lon="2.1246">
        <ele>90</ele>
        <time>2019-10-28T09:28:07.000Z</time>
      </trkpt>
      <trkpt lat="48.60708" lon="2.1246">
        <ele>91</ele>
        <time>2019-10-28T09:28:08.000Z</time>
      </trkpt>
      <trkpt lat="48.60707" lon="2.1246">
        <ele>91</ele>
        <time>2019-10-28T09:28:09.000Z</time>
      </trkpt>
      <trkpt lat="48.60705" lon="2.1246">
        <ele>91</ele>
        <time>2019-10-28T09:28:10.000Z</time>
      </trkpt>
      <trkpt lat="48.60704" lon="2.1246">
        <ele>91</ele>
        <time>2019-10-28T09:28:11.000Z</time>
      </trkpt>
      <trkpt lat="48.60703" lon="2.1246">
        <ele>91</ele>
        <time>2019-10-28T09:28:12.000Z</time>
      </trkpt>
      <trkpt lat="48.60702" lon="2.12461">
        <ele>91</ele>
        <time>2019-10-28T09:28:13.000Z</time>
      </trkpt>
      <trkpt lat="48.60701" lon="2.12461">
        <ele>91</ele>
        <time>2019-10-28T09:28:14.000Z</time>
      </trkpt>
      <trkpt lat="48.607" lon="2.12461">
        <ele>91</ele>
        <time>2019-10-28T09:28:15.000Z</time>
      </trkpt>
      <trkpt lat="48.60699" lon="2.12462">
        <ele>90</ele>
        <time>2019-10-28T09:28:16.000Z</time>
      </trkpt>
      <trkpt lat="48.60698" lon="2.12462">
        <ele>90</ele>
        <time>2019-10-28T09:28:17.000Z</time>
      </trkpt>
      <trkpt lat="48.60696" lon="2.12462">
        <ele>90</ele>
        <time>2019-10-28T09:28:18.000Z</time>
      </trkpt>
      <trkpt lat="48.60695" lon="2.12463">
        <ele>90</ele>
        <time>2019-10-28T09:28:19.000Z</time>
      </trkpt>
      <trkpt lat="48.60694" lon="2.12463">
        <ele>90</ele>
        <time>2019-10-28T09:28:20.000Z</time>
      </trkpt>
      <trkpt lat="48.60693" lon="2.12463">
        <ele>90</ele>
        <time>2019-10-28T09:28:21.000Z</time>
      </trkpt>
      <trkpt lat="48.60692" lon="2.12463">
        <ele>90</ele>
        <time>2019-10-28T09:28:22.000Z</time>
      </trkpt>
      <trkpt lat="48.6069" lon="2.12464">
        <ele>90</ele>
        <time>2019-10-28T09:28:23.000Z</time>
      </trkpt>
      <trkpt lat="48.60689" lon="2.12464">
        <ele>90</ele>
        <time>2019-10-28T09:28:24.000Z</time>
      </trkpt>
      <trkpt lat="48.60688" lon="2.12464">
        <ele>90</ele>
        <time>2019-10-28T09:28:25.000Z</time>
      </trkpt>
      <trkpt lat="48.60687" lon="2.12465">
        <ele>91</ele>
        <time>2019-10-28T09:28:26.000Z</time>
      </trkpt>
      <trkpt lat="48.60686" lon="2.12465">
        <ele>91</ele>
        <time>2019-10-28T09:28:27.000Z</time>
      </trkpt>
      <trkpt lat="48.60684" lon="2.12466">
        <ele>91</ele>
        <time>2019-10-28T09:28:28.000Z</time>
      </trkpt>
      <trkpt lat="48.60683" lon="2.12466">
        <ele>91</ele>
        <time>2019-10-28T09:28:29.000Z</time>
      </trkpt>
      <trkpt lat="48.60682" lon="2.12466">
        <ele>91</ele>
        <time>2019-10-28T09:28:30.000Z</time>
      </trkpt>
      <trkpt lat="48.60681" lon="2.12467">
        <ele>91</ele>
        <time>2019-10-28T09:28:31.000Z</time>
      </trkpt>
      <trkpt lat="48.60679" lon="2.12467">
        <ele>90</ele>
        <time>2019-10-28T09:28:32.000Z</time>
      </trkpt>
      <trkpt lat="48.60678" lon="2.12467">
        <ele>91</ele>
        <time>2019-10-28T09:28:33.000Z</time>
      </trkpt>
      <trkpt lat="48.60677" lon="2.12467">
        <ele>91</ele>
        <time>2019-10-28T09:28:34.000Z</time>
      </trkpt>
      <trkpt lat="48.60676" lon="2.12468">
        <ele>91</ele>
        <time>2019-10-28T09:28:35.000Z</time>
      </trkpt>
      <trkpt lat="48.60675" lon="2.12468">
        <ele>91</ele>
        <time>2019-10-28T09:28:36.000Z</time>
      </trkpt>
      <trkpt lat="48.60674" lon="2.12467">
        <ele>91</ele>
        <time>2019-10-28T09:28:37.000Z</time>
      </trkpt>
      <trkpt lat="48.60672" lon="2.12467">
        <ele>91</ele>
        <time>2019-10-28T09:28:38.000Z</time>
      </trkpt>
      <trkpt lat="48.60671" lon="2.12468">
        <ele>90</ele>
        <time>2019-10-28T09:28:39.000Z</time>
      </trkpt>
      <trkpt lat="48.6067" lon="2.12468">
        <ele>90</ele>
        <time>2019-10-28T09:28:40.000Z</time>
      </trkpt>
      <trkpt lat="48.60668" lon="2.12468">
        <ele>90</ele>
        <time>2019-10-28T09:28:41.000Z</time>
      </trkpt>
      <trkpt lat="48.60667" lon="2.12468">
        <ele>90</ele>
        <time>2019-10-28T09:28:42.000Z</time>
      </trkpt>
      <trkpt lat="48.60666" lon="2.12468">
        <ele>90</ele>
        <time>2019-10-28T09:28:43.000Z</time>
      </trkpt>
      <trkpt lat="48.60664" lon="2.12468">
        <ele>90</ele>
        <time>2019-10-28T09:28:44.000Z</time>
      </trkpt>
      <trkpt lat="48.60663" lon="2.12469">
        <ele>89</ele>
        <time>2019-10-28T09:28:45.000Z</time>
      </trkpt>
      <trkpt lat="48.60662" lon="2.12469">
        <ele>90</ele>
        <time>2019-10-28T09:28:46.000Z</time>
      </trkpt>
      <trkpt lat="48.6066" lon="2.12469">
        <ele>90</ele>
        <time>2019-10-28T09:28:47.000Z</time>
      </trkpt>
      <trkpt lat="48.60659" lon="2.12469">
        <ele>90</ele>
        <time>2019-10-28T09:28:48.000Z</time>
      </trkpt>
      <trkpt lat="48.60658" lon="2.12469">
        <ele>89</ele>
        <time>2019-10-28T09:28:49.000Z</time>
      </trkpt>
      <trkpt lat="48.60656" lon="2.12469">
        <ele>89</ele>
        <time>2019-10-28T09:28:50.000Z</time>
      </trkpt>
      <trkpt lat="48.60655" lon="2.1247">
        <ele>89</ele>
        <time>2019-10-28T09:28:51.000Z</time>
      </trkpt>
      <trkpt lat="48.60653" lon="2.1247">
        <ele>89</ele>
        <time>2019-10-28T09:28:52.000Z</time>
      </trkpt>
      <trkpt lat="48.60652" lon="2.1247">
        <ele>89</ele>
        <time>2019-10-28T09:28:53.000Z</time>
      </trkpt>
      <trkpt lat="48.60651" lon="2.12471">
        <ele>89</ele>
        <time>2019-10-28T09:28:54.000Z</time>
      </trkpt>
      <trkpt lat="48.60649" lon="2.12471">
        <ele>89</ele>
        <time>2019-10-28T09:28:55.000Z</time>
      </trkpt>
      <trkpt lat="48.60648" lon="2.12471">
        <ele>89</ele>
        <time>2019-10-28T09:28:56.000Z</time>
      </trkpt>
      <trkpt lat="48.60647" lon="2.12472">
        <ele>89</ele>
        <time>2019-10-28T09:28:57.000Z</time>
      </trkpt>
      <trkpt lat="48.60645" lon="2.12472">
        <ele>89</ele>
        <time>2019-10-28T09:28:58.000Z</time>
      </trkpt>
      <trkpt lat="48.60644" lon="2.12473">
        <ele>88</ele>
        <time>2019-10-28T09:28:59.000Z</time>
      </trkpt>
      <trkpt lat="48.60642" lon="2.12473">
        <ele>88</ele>
        <time>2019-10-28T09:29:00.000Z</time>
      </trkpt>
      <trkpt lat="48.60641" lon="2.12474">
        <ele>88</ele>
        <time>2019-10-28T09:29:01.000Z</time>
      </trkpt>
      <trkpt lat="48.6064" lon="2.12475">
        <ele>89</ele>
        <time>2019-10-28T09:29:02.000Z</time>
      </trkpt>
      <trkpt lat="48.60638" lon="2.12476">
        <ele>89</ele>
        <time>2019-10-28T09:29:03.000Z</time>
      </trkpt>
      <trkpt lat="48.60637" lon="2.12477">
        <ele>89</ele>
        <time>2019-10-28T09:29:04.000Z</time>
      </trkpt>
      <trkpt lat="48.60635" lon="2.12477">
        <ele>89</ele>
        <time>2019-10-28T09:29:05.000Z</time>
      </trkpt>
      <trkpt lat="48.60634" lon="2.12477">
        <ele>89</ele>
        <time>2019-10-28T09:29:06.000Z</time>
      </trkpt>
      <trkpt lat="48.60632" lon="2.12478">
        <ele>89</ele>
        <time>2019-10-28T09:29:07.000Z</time>
      </trkpt>
      <trkpt lat="48.60631" lon="2.12478">
        <ele>89</ele>
        <time>2019-10-28T09:29:08.000Z</time>
      </trkpt>
      <trkpt lat="48.6063" lon="2.12477">
        <ele>89</ele>
        <time>2019-10-28T09:29:09.000Z</time>
      </trkpt>
      <trkpt lat="48.60628" lon="2.12477">
        <ele>88</ele>
        <time>2019-10-28T09:29:10.000Z</time>
      </trkpt>
      <trkpt lat="48.60627" lon="2.12477">
        <ele>88</ele>
        <time>2019-10-28T09:29:11.000Z</time>
      </trkpt>
      <trkpt lat="48.60625" lon="2.12477">
        <ele>88</ele>
        <time>2019-10-28T09:29:12.000Z</time>
      </trkpt>
      <trkpt lat="48.60624" lon="2.12477">
        <ele>88</ele>
        <time>2019-10-28T09:29:13.000Z</time>
      </trkpt>
      <trkpt lat="48.60622" lon="2.12477">
        <ele>88</ele>
        <time>2019-10-28T09:29:14.000Z</time>
      </trkpt>
      <trkpt lat="48.60621" lon="2.12477">
        <ele>88</ele>
        <time>2019-10-28T09:29:15.000Z</time>
      </trkpt>
      <trkpt lat="48.6062" lon="2.12476">
        <ele>88</ele>
        <time>2019-10-28T09:29:16.000Z</time>
      </trkpt>
      <trkpt lat="48.60619" lon="2.12475">
        <ele>88</ele>
        <time>2019-10-28T09:29:17.000Z</time>
      </trkpt>
      <trkpt lat="48.60618" lon="2.12475">
        <ele>88</ele>
        <time>2019-10-28T09:29:18.000Z</time>
      </trkpt>
      <trkpt lat="48.60616" lon="2.12474">
        <ele>88</ele>
        <time>2019-10-28T09:29:19.000Z</time>
      </trkpt>
      <trkpt lat="48.60615" lon="2.12473">
        <ele>87</ele>
        <time>2019-10-28T09:29:20.000Z</time>
      </trkpt>
      <trkpt lat="48.60613" lon="2.12473">
        <ele>87</ele>
        <time>2019-10-28T09:29:21.000Z</time>
      </trkpt>
      <trkpt lat="48.60612" lon="2.12472">
        <ele>87</ele>
        <time>2019-10-28T09:29:22.000Z</time>
      </trkpt>
      <trkpt lat="48.6061" lon="2.12472">
        <ele>87</ele>
        <time>2019-10-28T09:29:23.000Z</time>
      </trkpt>
      <trkpt lat="48.60609" lon="2.12472">
        <ele>87</ele>
        <time>2019-10-28T09:29:24.000Z</time>
      </trkpt>
      <trkpt lat="48.60607" lon="2.12472">
        <ele>87</ele>
        <time>2019-10-28T09:29:25.000Z</time>
      </trkpt>
      <trkpt lat="48.60606" lon="2.12471">
        <ele>87</ele>
        <time>2019-10-28T09:29:26.000Z</time>
      </trkpt>
      <trkpt lat="48.60605" lon="2.12471">
        <ele>87</ele>
        <time>2019-10-28T09:29:27.000Z</time>
      </trkpt>
      <trkpt lat="48.60603" lon="2.1247">
        <ele>87</ele>
        <time>2019-10-28T09:29:28.000Z</time>
      </trkpt>
      <trkpt lat="48.60602" lon="2.1247">
        <ele>87</ele>
        <time>2019-10-28T09:29:29.000Z</time>
      </trkpt>
      <trkpt lat="48.60601" lon="2.1247">
        <ele>88</ele>
        <time>2019-10-28T09:29:30.000Z</time>
      </trkpt>
      <trkpt lat="48.60599" lon="2.1247">
        <ele>88</ele>
        <time>2019-10-28T09:29:31.000Z</time>
      </trkpt>
      <trkpt lat="48.60598" lon="2.12469">
        <ele>88</ele>
        <time>2019-10-28T09:29:32.000Z</time>
      </trkpt>
      <trkpt lat="48.60596" lon="2.12469">
        <ele>88</ele>
        <time>2019-10-28T09:29:33.000Z</time>
      </trkpt>
      <trkpt lat="48.60595" lon="2.12468">
        <ele>88</ele>
        <time>2019-10-28T09:29:34.000Z</time>
      </trkpt>
      <trkpt lat="48.60594" lon="2.12468">
        <ele>88</ele>
        <time>2019-10-28T09:29:35.000Z</time>
      </trkpt>
      <trkpt lat="48.60593" lon="2.12468">
        <ele>88</ele>
        <time>2019-10-28T09:29:36.000Z</time>
      </trkpt>
      <trkpt lat="48.60593" lon="2.12468">
        <ele>88</ele>
        <time>2019-10-28T09:29:37.000Z</time>
      </trkpt>
      <trkpt lat="48.60592" lon="2.12468">
        <ele>88</ele>
        <time>2019-10-28T09:29:38.000Z</time>
      </trkpt>
      <trkpt lat="48.6059" lon="2.12467">
        <ele>87</ele>
        <time>2019-10-28T09:29:39.000Z</time>
      </trkpt>
      <trkpt lat="48.60588" lon="2.12467">
        <ele>87</ele>
        <time>2019-10-28T09:29:40.000Z</time>
      </trkpt>
      <trkpt lat="48.60587" lon="2.12467">
        <ele>87</ele>
        <time>2019-10-28T09:29:41.000Z</time>
      </trkpt>
      <trkpt lat="48.60586" lon="2.12468">
        <ele>87</ele>
        <time>2019-10-28T09:29:42.000Z</time>
      </trkpt>
      <trkpt lat="48.60585" lon="2.12468">
        <ele>87</ele>
        <time>2019-10-28T09:29:43.000Z</time>
      </trkpt>
      <trkpt lat="48.60584" lon="2.12469">
        <ele>87</ele>
        <time>2019-10-28T09:29:44.000Z</time>
      </trkpt>
      <trkpt lat="48.60583" lon="2.1247">
        <ele>87</ele>
        <time>2019-10-28T09:29:45.000Z</time>
      </trkpt>
      <trkpt lat="48.60583" lon="2.12472">
        <ele>87</ele>
        <time>2019-10-28T09:29:46.000Z</time>
      </trkpt>
      <trkpt lat="48.60582" lon="2.12475">
        <ele>87</ele>
        <time>2019-10-28T09:29:47.000Z</time>
      </trkpt>
      <trkpt lat="48.60583" lon="2.12477">
        <ele>87</ele>
        <time>2019-10-28T09:29:48.000Z</time>
      </trkpt>
      <trkpt lat="48.60583" lon="2.12479">
        <ele>87</ele>
        <time>2019-10-28T09:29:49.000Z</time>
      </trkpt>
      <trkpt lat="48.60583" lon="2.12481">
        <ele>87</ele>
        <time>2019-10-28T09:29:50.000Z</time>
      </trkpt>
      <trkpt lat="48.60584" lon="2.12483">
        <ele>87</ele>
        <time>2019-10-28T09:29:51.000Z</time>
      </trkpt>
      <trkpt lat="48.60584" lon="2.12486">
        <ele>87</ele>
        <time>2019-10-28T09:29:52.000Z</time>
      </trkpt>
      <trkpt lat="48.60585" lon="2.12488">
        <ele>87</ele>
        <time>2019-10-28T09:29:53.000Z</time>
      </trkpt>
      <trkpt lat="48.60585" lon="2.1249">
        <ele>87</ele>
        <time>2019-10-28T09:29:54.000Z</time>
      </trkpt>
      <trkpt lat="48.60586" lon="2.12492">
        <ele>87</ele>
        <time>2019-10-28T09:29:55.000Z</time>
      </trkpt>
      <trkpt lat="48.60587" lon="2.12494">
        <ele>87</ele>
        <time>2019-10-28T09:29:56.000Z</time>
      </trkpt>
      <trkpt lat="48.60587" lon="2.12496">
        <ele>87</ele>
        <time>2019-10-28T09:29:57.000Z</time>
      </trkpt>
      <trkpt lat="48.60588" lon="2.12498">
        <ele>87</ele>
        <time>2019-10-28T09:29:58.000Z</time>
      </trkpt>
      <trkpt lat="48.60588" lon="2.125">
        <ele>87</ele>
        <time>2019-10-28T09:29:59.000Z</time>
      </trkpt>
      <trkpt lat="48.60589" lon="2.12502">
        <ele>87</ele>
        <time>2019-10-28T09:30:00.000Z</time>
      </trkpt>
      <trkpt lat="48.60589" lon="2.12504">
        <ele>87</ele>
        <time>2019-10-28T09:30:01.000Z</time>
      </trkpt>
      <trkpt lat="48.6059" lon="2.12506">
        <ele>87</ele>
        <time>2019-10-28T09:30:02.000Z</time>
      </trkpt>
      <trkpt lat="48.60591" lon="2.12507">
        <ele>87</ele>
        <time>2019-10-28T09:30:03.000Z</time>
      </trkpt>
      <trkpt lat="48.60591" lon="2.12509">
        <ele>87</ele>
        <time>2019-10-28T09:30:04.000Z</time>
      </trkpt>
      <trkpt lat="48.60592" lon="2.12511">
        <ele>87</ele>
        <time>2019-10-28T09:30:05.000Z</time>
      </trkpt>
      <trkpt lat="48.60592" lon="2.12513">
        <ele>87</ele>
        <time>2019-10-28T09:30:06.000Z</time>
      </trkpt>
      <trkpt lat="48.60592" lon="2.12515">
        <ele>87</ele>
        <time>2019-10-28T09:30:07.000Z</time>
      </trkpt>
      <trkpt lat="48.60593" lon="2.12517">
        <ele>87</ele>
        <time>2019-10-28T09:30:08.000Z</time>
      </trkpt>
      <trkpt lat="48.60593" lon="2.12519">
        <ele>88</ele>
        <time>2019-10-28T09:30:09.000Z</time>
      </trkpt>
      <trkpt lat="48.60594" lon="2.12521">
        <ele>88</ele>
        <time>2019-10-28T09:30:10.000Z</time>
      </trkpt>
      <trkpt lat="48.60594" lon="2.12523">
        <ele>88</ele>
        <time>2019-10-28T09:30:11.000Z</time>
      </trkpt>
      <trkpt lat="48.60594" lon="2.12525">
        <ele>87</ele>
        <time>2019-10-28T09:30:12.000Z</time>
      </trkpt>
      <trkpt lat="48.60595" lon="2.12527">
        <ele>87</ele>
        <time>2019-10-28T09:30:13.000Z</time>
      </trkpt>
      <trkpt lat="48.60595" lon="2.1253">
        <ele>87</ele>
        <time>2019-10-28T09:30:14.000Z</time>
      </trkpt>
      <trkpt lat="48.60596" lon="2.12532">
        <ele>87</ele>
        <time>2019-10-28T09:30:15.000Z</time>
      </trkpt>
      <trkpt lat="48.60596" lon="2.12534">
        <ele>88</ele>
        <time>2019-10-28T09:30:16.000Z</time>
      </trkpt>
      <trkpt lat="48.60596" lon="2.12536">
        <ele>88</ele>
        <time>2019-10-28T09:30:17.000Z</time>
      </trkpt>
      <trkpt lat="48.60597" lon="2.12538">
        <ele>88</ele>
        <time>2019-10-28T09:30:18.000Z</time>
      </trkpt>
      <trkpt lat="48.60597" lon="2.1254">
        <ele>88</ele>
        <time>2019-10-28T09:30:19.000Z</time>
      </trkpt>
      <trkpt lat="48.60597" lon="2.12542">
        <ele>87</ele>
        <time>2019-10-28T09:30:20.000Z</time>
      </trkpt>
      <trkpt lat="48.60597" lon="2.12544">
        <ele>87</ele>
        <time>2019-10-28T09:30:21.000Z</time>
      </trkpt>
      <trkpt lat="48.60598" lon="2.12546">
        <ele>87</ele>
        <time>2019-10-28T09:30:22.000Z</time>
      </trkpt>
      <trkpt lat="48.60598" lon="2.12548">
        <ele>87</ele>
        <time>2019-10-28T09:30:23.000Z</time>
      </trkpt>
      <trkpt lat="48.60598" lon="2.1255">
        <ele>87</ele>
        <time>2019-10-28T09:30:24.000Z</time>
      </trkpt>
      <trkpt lat="48.60599" lon="2.12552">
        <ele>87</ele>
        <time>2019-10-28T09:30:25.000Z</time>
      </trkpt>
      <trkpt lat="48.60599" lon="2.12555">
        <ele>87</ele>
        <time>2019-10-28T09:30:26.000Z</time>
      </trkpt>
      <trkpt lat="48.60599" lon="2.12557">
        <ele>87</ele>
        <time>2019-10-28T09:30:27.000Z</time>
      </trkpt>
      <trkpt lat="48.606" lon="2.12559">
        <ele>87</ele>
        <time>2019-10-28T09:30:28.000Z</time>
      </trkpt>
      <trkpt lat="48.606" lon="2.12561">
        <ele>87</ele>
        <time>2019-10-28T09:30:29.000Z</time>
      </trkpt>
      <trkpt lat="48.606" lon="2.12563">
        <ele>87</ele>
        <time>2019-10-28T09:30:30.000Z</time>
      </trkpt>
      <trkpt lat="48.60601" lon="2.12565">
        <ele>87</ele>
        <time>2019-10-28T09:30:31.000Z</time>
      </trkpt>
      <trkpt lat="48.60601" lon="2.12567">
        <ele>87</ele>
        <time>2019-10-28T09:30:32.000Z</time>
      </trkpt>
      <trkpt lat="48.60601" lon="2.12569">
        <ele>88</ele>
        <time>2019-10-28T09:30:33.000Z</time>
      </trkpt>
      <trkpt lat="48.60602" lon="2.12571">
        <ele>88</ele>
        <time>2019-10-28T09:30:34.000Z</time>
      </trkpt>
      <trkpt lat="48.60602" lon="2.12573">
        <ele>88</ele>
        <time>2019-10-28T09:30:35.000Z</time>
      </trkpt>
      <trkpt lat="48.60602" lon="2.12575">
        <ele>88</ele>
        <time>2019-10-28T09:30:36.000Z</time>
      </trkpt>
      <trkpt lat="48.60602" lon="2.12577">
        <ele>88</ele>
        <time>2019-10-28T09:30:37.000Z</time>
      </trkpt>
      <trkpt lat="48.60603" lon="2.12579">
        <ele>88</ele>
        <time>2019-10-28T09:30:38.000Z</time>
      </trkpt>
      <trkpt lat="48.60603" lon="2.12581">
        <ele>88</ele>
        <time>2019-10-28T09:30:39.000Z</time>
      </trkpt>
      <trkpt lat="48.60603" lon="2.12583">
        <ele>88</ele>
        <time>2019-10-28T09:30:40.000Z</time>
      </trkpt>
      <trkpt lat="48.60603" lon="2.12585">
        <ele>88</ele>
        <time>2019-10-28T09:30:41.000Z</time>
      </trkpt>
      <trkpt lat="48.60603" lon="2.12587">
        <ele>88</ele>
        <time>2019-10-28T09:30:42.000Z</time>
      </trkpt>
      <trkpt lat="48.60603" lon="2.12589">
        <ele>88</ele>
        <time>2019-10-28T09:30:43.000Z</time>
      </trkpt>
      <trkpt lat="48.60604" lon="2.12591">
        <ele>88</ele>
        <time>2019-10-28T09:30:44.000Z</time>
      </trkpt>
      <trkpt lat="48.60604" lon="2.12593">
        <ele>88</ele>
        <time>2019-10-28T09:30:45.000Z</time>
      </trkpt>
      <trkpt lat="48.60604" lon="2.12595">
        <ele>88</ele>
        <time>2019-10-28T09:30:46.000Z</time>
      </trkpt>
      <trkpt lat="48.60604" lon="2.12597">
        <ele>88</ele>
        <time>2019-10-28T09:30:47.000Z</time>
      </trkpt>
      <trkpt lat="48.60605" lon="2.12599">
        <ele>88</ele>
        <time>2019-10-28T09:30:48.000Z</time>
      </trkpt>
      <trkpt lat="48.60605" lon="2.12601">
        <ele>88</ele>
        <time>2019-10-28T09:30:49.000Z</time>
      </trkpt>
      <trkpt lat="48.60605" lon="2.12603">
        <ele>87</ele>
        <time>2019-10-28T09:30:50.000Z</time>
      </trkpt>
      <trkpt lat="48.60605" lon="2.12605">
        <ele>88</ele>
        <time>2019-10-28T09:30:51.000Z</time>
      </trkpt>
      <trkpt lat="48.60606" lon="2.12607">
        <ele>88</ele>
        <time>2019-10-28T09:30:52.000Z</time>
      </trkpt>
      <trkpt lat="48.60606" lon="2.12609">
        <ele>88</ele>
        <time>2019-10-28T09:30:53.000Z</time>
      </trkpt>
      <trkpt lat="48.60606" lon="2.12611">
        <ele>88</ele>
        <time>2019-10-28T09:30:54.000Z</time>
      </trkpt>
      <trkpt lat="48.60606" lon="2.12613">
        <ele>88</ele>
        <time>2019-10-28T09:30:55.000Z</time>
      </trkpt>
      <trkpt lat="48.60607" lon="2.12615">
        <ele>88</ele>
        <time>2019-10-28T09:30:56.000Z</time>
      </trkpt>
      <trkpt lat="48.60607" lon="2.12617">
        <ele>88</ele>
        <time>2019-10-28T09:30:57.000Z</time>
      </trkpt>
      <trkpt lat="48.60607" lon="2.12619">
        <ele>88</ele>
        <time>2019-10-28T09:30:58.000Z</time>
      </trkpt>
      <trkpt lat="48.60608" lon="2.1262">
        <ele>88</ele>
        <time>2019-10-28T09:30:59.000Z</time>
      </trkpt>
      <trkpt lat="48.60608" lon="2.12622">
        <ele>88</ele>
        <time>2019-10-28T09:31:00.000Z</time>
      </trkpt>
      <trkpt lat="48.60608" lon="2.12624">
        <ele>88</ele>
        <time>2019-10-28T09:31:01.000Z</time>
      </trkpt>
      <trkpt lat="48.60609" lon="2.12626">
        <ele>88</ele>
        <time>2019-10-28T09:31:02.000Z</time>
      </trkpt>
      <trkpt lat="48.60609" lon="2.12628">
        <ele>88</ele>
        <time>2019-10-28T09:31:03.000Z</time>
      </trkpt>
      <trkpt lat="48.60609" lon="2.1263">
        <ele>88</ele>
        <time>2019-10-28T09:31:04.000Z</time>
      </trkpt>
      <trkpt lat="48.60609" lon="2.12632">
        <ele>88</ele>
        <time>2019-10-28T09:31:05.000Z</time>
      </trkpt>
      <trkpt lat="48.6061" lon="2.12634">
        <ele>88</ele>
        <time>2019-10-28T09:31:06.000Z</time>
      </trkpt>
      <trkpt lat="48.6061" lon="2.12636">
        <ele>88</ele>
        <time>2019-10-28T09:31:07.000Z</time>
      </trkpt>
      <trkpt lat="48.6061" lon="2.12638">
        <ele>88</ele>
        <time>2019-10-28T09:31:08.000Z</time>
      </trkpt>
      <trkpt lat="48.6061" lon="2.1264">
        <ele>88</ele>
        <time>2019-10-28T09:31:09.000Z</time>
      </trkpt>
      <trkpt lat="48.6061" lon="2.12642">
        <ele>88</ele>
        <time>2019-10-28T09:31:10.000Z</time>
      </trkpt>
      <trkpt lat="48.60611" lon="2.12644">
        <ele>88</ele>
        <time>2019-10-28T09:31:11.000Z</time>
      </trkpt>
      <trkpt lat="48.60611" lon="2.12646">
        <ele>88</ele>
        <time>2019-10-28T09:31:12.000Z</time>
      </trkpt>
      <trkpt lat="48.60611" lon="2.12648">
        <ele>89</ele>
        <time>2019-10-28T09:31:13.000Z</time>
      </trkpt>
      <trkpt lat="48.60611" lon="2.1265">
        <ele>89</ele>
        <time>2019-10-28T09:31:14.000Z</time>
      </trkpt>
      <trkpt lat="48.60612" lon="2.12652">
        <ele>89</ele>
        <time>2019-10-28T09:31:15.000Z</time>
      </trkpt>
      <trkpt lat="48.60612" lon="2.12654">
        <ele>89</ele>
        <time>2019-10-28T09:31:16.000Z</time>
      </trkpt>
      <trkpt lat="48.60612" lon="2.12656">
        <ele>89</ele>
        <time>2019-10-28T09:31:17.000Z</time>
      </trkpt>
      <trkpt lat="48.60612" lon="2.12658">
        <ele>89</ele>
        <time>2019-10-28T09:31:18.000Z</time>
      </trkpt>
      <trkpt lat="48.60613" lon="2.1266">
        <ele>89</ele>
        <time>2019-10-28T09:31:19.000Z</time>
      </trkpt>
      <trkpt lat="48.60613" lon="2.12662">
        <ele>90</ele>
        <time>2019-10-28T09:31:20.000Z</time>
      </trkpt>
      <trkpt lat="48.60614" lon="2.12664">
        <ele>90</ele>
        <time>2019-10-28T09:31:21.000Z</time>
      </trkpt>
      <trkpt lat="48.60614" lon="2.12667">
        <ele>90</ele>
        <time>2019-10-28T09:31:22.000Z</time>
      </trkpt>
      <trkpt lat="48.60614" lon="2.12669">
        <ele>90</ele>
        <time>2019-10-28T09:31:23.000Z</time>
      </trkpt>
      <trkpt lat="48.60615" lon="2.12671">
        <ele>90</ele>
        <time>2019-10-28T09:31:24.000Z</time>
      </trkpt>
      <trkpt lat="48.60615" lon="2.12672">
        <ele>90</ele>
        <time>2019-10-28T09:31:25.000Z</time>
      </trkpt>
      <trkpt lat="48.60615" lon="2.12674">
        <ele>90</ele>
        <time>2019-10-28T09:31:26.000Z</time>
      </trkpt>
      <trkpt lat="48.60616" lon="2.12676">
        <ele>90</ele>
        <time>2019-10-28T09:31:27.000Z</time>
      </trkpt>
      <trkpt lat="48.60616" lon="2.12678">
        <ele>90</ele>
        <time>2019-10-28T09:31:28.000Z</time>
      </trkpt>
      <trkpt lat="48.60616" lon="2.12681">
        <ele>90</ele>
        <time>2019-10-28T09:31:29.000Z</time>
      </trkpt>
      <trkpt lat="48.60616" lon="2.12682">
        <ele>90</ele>
        <time>2019-10-28T09:31:30.000Z</time>
      </trkpt>
      <trkpt lat="48.60616" lon="2.12684">
        <ele>90</ele>
        <time>2019-10-28T09:31:31.000Z</time>
      </trkpt>
      <trkpt lat="48.60616" lon="2.12685">
        <ele>90</ele>
        <time>2019-10-28T09:31:32.000Z</time>
      </trkpt>
      <trkpt lat="48.60617" lon="2.12685">
        <ele>90</ele>
        <time>2019-10-28T09:31:33.000Z</time>
      </trkpt>
      <trkpt lat="48.60617" lon="2.12687">
        <ele>89</ele>
        <time>2019-10-28T09:31:34.000Z</time>
      </trkpt>
      <trkpt lat="48.60617" lon="2.12689">
        <ele>89</ele>
        <time>2019-10-28T09:31:35.000Z</time>
      </trkpt>
      <trkpt lat="48.60617" lon="2.12691">
        <ele>89</ele>
        <time>2019-10-28T09:31:36.000Z</time>
      </trkpt>
      <trkpt lat="48.60617" lon="2.12693">
        <ele>90</ele>
        <time>2019-10-28T09:31:37.000Z</time>
      </trkpt>
      <trkpt lat="48.60618" lon="2.12695">
        <ele>90</ele>
        <time>2019-10-28T09:31:38.000Z</time>
      </trkpt>
      <trkpt lat="48.60618" lon="2.12697">
        <ele>89</ele>
        <time>2019-10-28T09:31:39.000Z</time>
      </trkpt>
      <trkpt lat="48.60618" lon="2.12699">
        <ele>89</ele>
        <time>2019-10-28T09:31:40.000Z</time>
      </trkpt>
      <trkpt lat="48.60619" lon="2.12701">
        <ele>90</ele>
        <time>2019-10-28T09:31:41.000Z</time>
      </trkpt>
      <trkpt lat="48.60619" lon="2.12703">
        <ele>90</ele>
        <time>2019-10-28T09:31:42.000Z</time>
      </trkpt>
      <trkpt lat="48.60619" lon="2.12705">
        <ele>90</ele>
        <time>2019-10-28T09:31:43.000Z</time>
      </trkpt>
      <trkpt lat="48.6062" lon="2.12707">
        <ele>90</ele>
        <time>2019-10-28T09:31:44.000Z</time>
      </trkpt>
      <trkpt lat="48.6062" lon="2.12709">
        <ele>90</ele>
        <time>2019-10-28T09:31:45.000Z</time>
      </trkpt>
      <trkpt lat="48.6062" lon="2.12711">
        <ele>90</ele>
        <time>2019-10-28T09:31:46.000Z</time>
      </trkpt>
      <trkpt lat="48.60621" lon="2.12713">
        <ele>90</ele>
        <time>2019-10-28T09:31:47.000Z</time>
      </trkpt>
      <trkpt lat="48.60621" lon="2.12716">
        <ele>90</ele>
        <time>2019-10-28T09:31:48.000Z</time>
      </trkpt>
      <trkpt lat="48.60621" lon="2.12718">
        <ele>90</ele>
        <time>2019-10-28T09:31:49.000Z</time>
      </trkpt>
      <trkpt lat="48.60622" lon="2.1272">
        <ele>90</ele>
        <time>2019-10-28T09:31:50.000Z</time>
      </trkpt>
      <trkpt lat="48.60622" lon="2.12722">
        <ele>90</ele>
        <time>2019-10-28T09:31:51.000Z</time>
      </trkpt>
      <trkpt lat="48.60622" lon="2.12724">
        <ele>90</ele>
        <time>2019-10-28T09:31:52.000Z</time>
      </trkpt>
      <trkpt lat="48.60622" lon="2.12727">
        <ele>91</ele>
        <time>2019-10-28T09:31:53.000Z</time>
      </trkpt>
      <trkpt lat="48.60623" lon="2.12729">
        <ele>90</ele>
        <time>2019-10-28T09:31:54.000Z</time>
      </trkpt>
      <trkpt lat="48.60623" lon="2.12731">
        <ele>90</ele>
        <time>2019-10-28T09:31:55.000Z</time>
      </trkpt>
      <trkpt lat="48.60624" lon="2.12733">
        <ele>91</ele>
        <time>2019-10-28T09:31:56.000Z</time>
      </trkpt>
      <trkpt lat="48.60624" lon="2.12735">
        <ele>91</ele>
        <time>2019-10-28T09:31:57.000Z</time>
      </trkpt>
      <trkpt lat="48.60624" lon="2.12737">
        <ele>91</ele>
        <time>2019-10-28T09:31:58.000Z</time>
      </trkpt>
      <trkpt lat="48.60625" lon="2.12739">
        <ele>91</ele>
        <time>2019-10-28T09:31:59.000Z</time>
      </trkpt>
      <trkpt lat="48.60625" lon="2.12741">
        <ele>91</ele>
        <time>2019-10-28T09:32:00.000Z</time>
      </trkpt>
      <trkpt lat="48.60625" lon="2.12743">
        <ele>91</ele>
        <time>2019-10-28T09:32:01.000Z</time>
      </trkpt>
      <trkpt lat="48.60625" lon="2.12745">
        <ele>91</ele>
        <time>2019-10-28T09:32:02.000Z</time>
      </trkpt>
      <trkpt lat="48.60625" lon="2.12747">
        <ele>91</ele>
        <time>2019-10-28T09:32:03.000Z</time>
      </trkpt>
      <trkpt lat="48.60625" lon="2.1275">
        <ele>91</ele>
        <time>2019-10-28T09:32:04.000Z</time>
      </trkpt>
      <trkpt lat="48.60625" lon="2.12752">
        <ele>91</ele>
        <time>2019-10-28T09:32:05.000Z</time>
      </trkpt>
      <trkpt lat="48.60625" lon="2.12754">
        <ele>91</ele>
        <time>2019-10-28T09:32:06.000Z</time>
      </trkpt>
      <trkpt lat="48.60625" lon="2.12756">
        <ele>90</ele>
        <time>2019-10-28T09:32:07.000Z</time>
      </trkpt>
      <trkpt lat="48.60626" lon="2.12758">
        <ele>91</ele>
        <time>2019-10-28T09:32:08.000Z</time>
      </trkpt>
      <trkpt lat="48.60626" lon="2.1276">
        <ele>91</ele>
        <time>2019-10-28T09:32:09.000Z</time>
      </trkpt>
      <trkpt lat="48.60626" lon="2.12762">
        <ele>91</ele>
        <time>2019-10-28T09:32:10.000Z</time>
      </trkpt>
      <trkpt lat="48.60626" lon="2.12764">
        <ele>91</ele>
        <time>2019-10-28T09:32:11.000Z</time>
      </trkpt>
      <trkpt lat="48.60626" lon="2.12766">
        <ele>91</ele>
        <time>2019-10-28T09:32:12.000Z</time>
      </trkpt>
      <trkpt lat="48.60626" lon="2.12768">
        <ele>91</ele>
        <time>2019-10-28T09:32:13.000Z</time>
      </trkpt>
      <trkpt lat="48.60626" lon="2.1277">
        <ele>91</ele>
        <time>2019-10-28T09:32:14.000Z</time>
      </trkpt>
      <trkpt lat="48.60627" lon="2.12773">
        <ele>91</ele>
        <time>2019-10-28T09:32:15.000Z</time>
      </trkpt>
      <trkpt lat="48.60627" lon="2.12775">
        <ele>91</ele>
        <time>2019-10-28T09:32:16.000Z</time>
      </trkpt>
      <trkpt lat="48.60627" lon="2.12777">
        <ele>91</ele>
        <time>2019-10-28T09:32:17.000Z</time>
      </trkpt>
      <trkpt lat="48.60628" lon="2.12779">
        <ele>91</ele>
        <time>2019-10-28T09:32:18.000Z</time>
      </trkpt>
      <trkpt lat="48.60629" lon="2.12781">
        <ele>91</ele>
        <time>2019-10-28T09:32:19.000Z</time>
      </trkpt>
      <trkpt lat="48.60629" lon="2.12783">
        <ele>91</ele>
        <time>2019-10-28T09:32:20.000Z</time>
      </trkpt>
      <trkpt lat="48.6063" lon="2.12785">
        <ele>91</ele>
        <time>2019-10-28T09:32:21.000Z</time>
      </trkpt>
      <trkpt lat="48.60631" lon="2.12787">
        <ele>91</ele>
        <time>2019-10-28T09:32:22.000Z</time>
      </trkpt>
      <trkpt lat="48.60631" lon="2.12789">
        <ele>92</ele>
        <time>2019-10-28T09:32:23.000Z</time>
      </trkpt>
      <trkpt lat="48.60632" lon="2.12791">
        <ele>92</ele>
        <time>2019-10-28T09:32:24.000Z</time>
      </trkpt>
      <trkpt lat="48.60632" lon="2.12793">
        <ele>92</ele>
        <time>2019-10-28T09:32:25.000Z</time>
      </trkpt>
      <trkpt lat="48.60633" lon="2.12795">
        <ele>92</ele>
        <time>2019-10-28T09:32:26.000Z</time>
      </trkpt>
      <trkpt lat="48.60633" lon="2.12797">
        <ele>92</ele>
        <time>2019-10-28T09:32:27.000Z</time>
      </trkpt>
      <trkpt lat="48.60634" lon="2.12799">
        <ele>92</ele>
        <time>2019-10-28T09:32:28.000Z</time>
      </trkpt>
      <trkpt lat="48.60635" lon="2.12801">
        <ele>92</ele>
        <time>2019-10-28T09:32:29.000Z</time>
      </trkpt>
      <trkpt lat="48.60635" lon="2.12802">
        <ele>92</ele>
        <time>2019-10-28T09:32:30.000Z</time>
      </trkpt>
      <trkpt lat="48.60636" lon="2.12804">
        <ele>92</ele>
        <time>2019-10-28T09:32:31.000Z</time>
      </trkpt>
      <trkpt lat="48.60637" lon="2.12805">
        <ele>92</ele>
        <time>2019-10-28T09:32:32.000Z</time>
      </trkpt>
      <trkpt lat="48.60638" lon="2.12805">
        <ele>92</ele>
        <time>2019-10-28T09:32:33.000Z</time>
      </trkpt>
      <trkpt lat="48.6064" lon="2.12804">
        <ele>92</ele>
        <time>2019-10-28T09:32:34.000Z</time>
      </trkpt>
      <trkpt lat="48.60641" lon="2.12804">
        <ele>91</ele>
        <time>2019-10-28T09:32:35.000Z</time>
      </trkpt>
      <trkpt lat="48.60643" lon="2.12803">
        <ele>91</ele>
        <time>2019-10-28T09:32:36.000Z</time>
      </trkpt>
      <trkpt lat="48.60644" lon="2.12802">
        <ele>91</ele>
        <time>2019-10-28T09:32:37.000Z</time>
      </trkpt>
      <trkpt lat="48.60646" lon="2.12801">
        <ele>92</ele>
        <time>2019-10-28T09:32:38.000Z</time>
      </trkpt>
      <trkpt lat="48.60647" lon="2.128">
        <ele>92</ele>
        <time>2019-10-28T09:32:39.000Z</time>
      </trkpt>
      <trkpt lat="48.60648" lon="2.128">
        <ele>92</ele>
        <time>2019-10-28T09:32:40.000Z</time>
      </trkpt>
      <trkpt lat="48.6065" lon="2.128">
        <ele>92</ele>
        <time>2019-10-28T09:32:41.000Z</time>
      </trkpt>
      <trkpt lat="48.60651" lon="2.12799">
        <ele>92</ele>
        <time>2019-10-28T09:32:42.000Z</time>
      </trkpt>
      <trkpt lat="48.60653" lon="2.12799">
        <ele>92</ele>
        <time>2019-10-28T09:32:43.000Z</time>
      </trkpt>
      <trkpt lat="48.60654" lon="2.12798">
        <ele>92</ele>
        <time>2019-10-28T09:32:44.000Z</time>
      </trkpt>
      <trkpt lat="48.60655" lon="2.12798">
        <ele>92</ele>
        <time>2019-10-28T09:32:45.000Z</time>
      </trkpt>
      <trkpt lat="48.60657" lon="2.12798">
        <ele>92</ele>
        <time>2019-10-28T09:32:46.000Z</time>
      </trkpt>
      <trkpt lat="48.60658" lon="2.12797">
        <ele>92</ele>
        <time>2019-10-28T09:32:47.000Z</time>
      </trkpt>
      <trkpt lat="48.6066" lon="2.12796">
        <ele>92</ele>
        <time>2019-10-28T09:32:48.000Z</time>
      </trkpt>
      <trkpt lat="48.60661" lon="2.12795">
        <ele>92</ele>
        <time>2019-10-28T09:32:49.000Z</time>
      </trkpt>
      <trkpt lat="48.60662" lon="2.12795">
        <ele>92</ele>
        <time>2019-10-28T09:32:50.000Z</time>
      </trkpt>
      <trkpt lat="48.60664" lon="2.12794">
        <ele>92</ele>
        <time>2019-10-28T09:32:51.000Z</time>
      </trkpt>
      <trkpt lat="48.60665" lon="2.12793">
        <ele>92</ele>
        <time>2019-10-28T09:32:52.000Z</time>
      </trkpt>
      <trkpt lat="48.60666" lon="2.12792">
        <ele>92</ele>
        <time>2019-10-28T09:32:53.000Z</time>
      </trkpt>
      <trkpt lat="48.60668" lon="2.12791">
        <ele>92</ele>
        <time>2019-10-28T09:32:54.000Z</time>
      </trkpt>
      <trkpt lat="48.60669" lon="2.12791">
        <ele>92</ele>
        <time>2019-10-28T09:32:55.000Z</time>
      </trkpt>
      <trkpt lat="48.60671" lon="2.1279">
        <ele>92</ele>
        <time>2019-10-28T09:32:56.000Z</time>
      </trkpt>
      <trkpt lat="48.60672" lon="2.12789">
        <ele>92</ele>
        <time>2019-10-28T09:32:57.000Z</time>
      </trkpt>
      <trkpt lat="48.60674" lon="2.12789">
        <ele>93</ele>
        <time>2019-10-28T09:32:58.000Z</time>
      </trkpt>
      <trkpt lat="48.60675" lon="2.12788">
        <ele>92</ele>
        <time>2019-10-28T09:32:59.000Z</time>
      </trkpt>
      <trkpt lat="48.60676" lon="2.12787">
        <ele>92</ele>
        <time>2019-10-28T09:33:00.000Z</time>
      </trkpt>
      <trkpt lat="48.60678" lon="2.12786">
        <ele>92</ele>
        <time>2019-10-28T09:33:01.000Z</time>
      </trkpt>
      <trkpt lat="48.60679" lon="2.12785">
        <ele>92</ele>
        <time>2019-10-28T09:33:02.000Z</time>
      </trkpt>
      <trkpt lat="48.6068" lon="2.12784">
        <ele>92</ele>
        <time>2019-10-28T09:33:03.000Z</time>
      </trkpt>
      <trkpt lat="48.60682" lon="2.12783">
        <ele>92</ele>
        <time>2019-10-28T09:33:04.000Z</time>
      </trkpt>
      <trkpt lat="48.60683" lon="2.12782">
        <ele>92</ele>
        <time>2019-10-28T09:33:05.000Z</time>
      </trkpt>
      <trkpt lat="48.60684" lon="2.12781">
        <ele>92</ele>
        <time>2019-10-28T09:33:06.000Z</time>
      </trkpt>
      <trkpt lat="48.60686" lon="2.12781">
        <ele>92</ele>
        <time>2019-10-28T09:33:07.000Z</time>
      </trkpt>
      <trkpt lat="48.60687" lon="2.1278">
        <ele>92</ele>
        <time>2019-10-28T09:33:08.000Z</time>
      </trkpt>
      <trkpt lat="48.60689" lon="2.12779">
        <ele>92</ele>
        <time>2019-10-28T09:33:09.000Z</time>
      </trkpt>
      <trkpt lat="48.6069" lon="2.12779">
        <ele>92</ele>
        <time>2019-10-28T09:33:10.000Z</time>
      </trkpt>
      <trkpt lat="48.60691" lon="2.12778">
        <ele>92</ele>
        <time>2019-10-28T09:33:11.000Z</time>
      </trkpt>
      <trkpt lat="48.60693" lon="2.12777">
        <ele>92</ele>
        <time>2019-10-28T09:33:12.000Z</time>
      </trkpt>
      <trkpt lat="48.60694" lon="2.12777">
        <ele>92</ele>
        <time>2019-10-28T09:33:13.000Z</time>
      </trkpt>
      <trkpt lat="48.60696" lon="2.12776">
        <ele>92</ele>
        <time>2019-10-28T09:33:14.000Z</time>
      </trkpt>
      <trkpt lat="48.60697" lon="2.12776">
        <ele>92</ele>
        <time>2019-10-28T09:33:15.000Z</time>
      </trkpt>
      <trkpt lat="48.60699" lon="2.12775">
        <ele>92</ele>
        <time>2019-10-28T09:33:16.000Z</time>
      </trkpt>
      <trkpt lat="48.607" lon="2.12774">
        <ele>92</ele>
        <time>2019-10-28T09:33:17.000Z</time>
      </trkpt>
      <trkpt lat="48.60701" lon="2.12774">
        <ele>93</ele>
        <time>2019-10-28T09:33:18.000Z</time>
      </trkpt>
      <trkpt lat="48.60703" lon="2.12773">
        <ele>93</ele>
        <time>2019-10-28T09:33:19.000Z</time>
      </trkpt>
      <trkpt lat="48.60704" lon="2.12772">
        <ele>93</ele>
        <time>2019-10-28T09:33:20.000Z</time>
      </trkpt>
      <trkpt lat="48.60706" lon="2.12771">
        <ele>93</ele>
        <time>2019-10-28T09:33:21.000Z</time>
      </trkpt>
      <trkpt lat="48.60707" lon="2.1277">
        <ele>93</ele>
        <time>2019-10-28T09:33:22.000Z</time>
      </trkpt>
      <trkpt lat="48.60708" lon="2.1277">
        <ele>93</ele>
        <time>2019-10-28T09:33:23.000Z</time>
      </trkpt>
      <trkpt lat="48.6071" lon="2.12769">
        <ele>93</ele>
        <time>2019-10-28T09:33:24.000Z</time>
      </trkpt>
      <trkpt lat="48.60712" lon="2.12769">
        <ele>93</ele>
        <time>2019-10-28T09:33:25.000Z</time>
      </trkpt>
      <trkpt lat="48.60713" lon="2.12768">
        <ele>93</ele>
        <time>2019-10-28T09:33:26.000Z</time>
      </trkpt>
      <trkpt lat="48.60715" lon="2.12768">
        <ele>93</ele>
        <time>2019-10-28T09:33:27.000Z</time>
      </trkpt>
      <trkpt lat="48.60716" lon="2.12767">
        <ele>93</ele>
        <time>2019-10-28T09:33:28.000Z</time>
      </trkpt>
      <trkpt lat="48.60717" lon="2.12767">
        <ele>93</ele>
        <time>2019-10-28T09:33:29.000Z</time>
      </trkpt>
      <trkpt lat="48.60719" lon="2.12766">
        <ele>93</ele>
        <time>2019-10-28T09:33:30.000Z</time>
      </trkpt>
      <trkpt lat="48.6072" lon="2.12766">
        <ele>93</ele>
        <time>2019-10-28T09:33:31.000Z</time>
      </trkpt>
      <trkpt lat="48.60722" lon="2.12765">
        <ele>93</ele>
        <time>2019-10-28T09:33:32.000Z</time>
      </trkpt>
      <trkpt lat="48.60723" lon="2.12765">
        <ele>93</ele>
        <time>2019-10-28T09:33:33.000Z</time>
      </trkpt>
      <trkpt lat="48.60724" lon="2.12764">
        <ele>93</ele>
        <time>2019-10-28T09:33:34.000Z</time>
      </trkpt>
      <trkpt lat="48.60725" lon="2.12764">
        <ele>93</ele>
        <time>2019-10-28T09:33:35.000Z</time>
      </trkpt>
      <trkpt lat="48.60727" lon="2.12764">
        <ele>93</ele>
        <time>2019-10-28T09:33:36.000Z</time>
      </trkpt>
      <trkpt lat="48.60728" lon="2.12764">
        <ele>93</ele>
        <time>2019-10-28T09:33:37.000Z</time>
      </trkpt>
      <trkpt lat="48.6073" lon="2.12765">
        <ele>93</ele>
        <time>2019-10-28T09:33:38.000Z</time>
      </trkpt>
      <trkpt lat="48.60731" lon="2.12766">
        <ele>93</ele>
        <time>2019-10-28T09:33:39.000Z</time>
      </trkpt>
      <trkpt lat="48.60732" lon="2.12766">
        <ele>93</ele>
        <time>2019-10-28T09:33:40.000Z</time>
      </trkpt>
      <trkpt lat="48.60733" lon="2.12767">
        <ele>93</ele>
        <time>2019-10-28T09:33:41.000Z</time>
      </trkpt>
      <trkpt lat="48.60735" lon="2.12768">
        <ele>93</ele>
        <time>2019-10-28T09:33:42.000Z</time>
      </trkpt>
      <trkpt lat="48.60736" lon="2.12769">
        <ele>93</ele>
        <time>2019-10-28T09:33:43.000Z</time>
      </trkpt>
      <trkpt lat="48.60737" lon="2.1277">
        <ele>93</ele>
        <time>2019-10-28T09:33:44.000Z</time>
      </trkpt>
      <trkpt lat="48.60738" lon="2.12771">
        <ele>93</ele>
        <time>2019-10-28T09:33:45.000Z</time>
      </trkpt>
      <trkpt lat="48.60739" lon="2.12773">
        <ele>93</ele>
        <time>2019-10-28T09:33:46.000Z</time>
      </trkpt>
      <trkpt lat="48.6074" lon="2.12774">
        <ele>93</ele>
        <time>2019-10-28T09:33:47.000Z</time>
      </trkpt>
      <trkpt lat="48.60741" lon="2.12776">
        <ele>93</ele>
        <time>2019-10-28T09:33:48.000Z</time>
      </trkpt>
      <trkpt lat="48.60741" lon="2.12777">
        <ele>92</ele>
        <time>2019-10-28T09:33:49.000Z</time>
      </trkpt>
      <trkpt lat="48.60742" lon="2.12779">
        <ele>92</ele>
        <time>2019-10-28T09:33:50.000Z</time>
      </trkpt>
      <trkpt lat="48.60743" lon="2.12781">
        <ele>93</ele>
        <time>2019-10-28T09:33:51.000Z</time>
      </trkpt>
      <trkpt lat="48.60744" lon="2.12782">
        <ele>93</ele>
        <time>2019-10-28T09:33:52.000Z</time>
      </trkpt>
      <trkpt lat="48.60744" lon="2.12784">
        <ele>92</ele>
        <time>2019-10-28T09:33:53.000Z</time>
      </trkpt>
      <trkpt lat="48.60745" lon="2.12786">
        <ele>92</ele>
        <time>2019-10-28T09:33:54.000Z</time>
      </trkpt>
      <trkpt lat="48.60746" lon="2.12788">
        <ele>92</ele>
        <time>2019-10-28T09:33:55.000Z</time>
      </trkpt>
      <trkpt lat="48.60747" lon="2.12789">
        <ele>92</ele>
        <time>2019-10-28T09:33:56.000Z</time>
      </trkpt>
      <trkpt lat="48.60747" lon="2.12791">
        <ele>92</ele>
        <time>2019-10-28T09:33:57.000Z</time>
      </trkpt>
      <trkpt lat="48.60748" lon="2.12793">
        <ele>92</ele>
        <time>2019-10-28T09:33:58.000Z</time>
      </trkpt>
      <trkpt lat="48.60749" lon="2.12794">
        <ele>92</ele>
        <time>2019-10-28T09:33:59.000Z</time>
      </trkpt>
      <trkpt lat="48.6075" lon="2.12796">
        <ele>92</ele>
        <time>2019-10-28T09:34:00.000Z</time>
      </trkpt>
      <trkpt lat="48.6075" lon="2.12798">
        <ele>92</ele>
        <time>2019-10-28T09:34:01.000Z</time>
      </trkpt>
      <trkpt lat="48.60751" lon="2.12799">
        <ele>93</ele>
        <time>2019-10-28T09:34:02.000Z</time>
      </trkpt>
      <trkpt lat="48.60752" lon="2.12801">
        <ele>93</ele>
        <time>2019-10-28T09:34:03.000Z</time>
      </trkpt>
      <trkpt lat="48.60753" lon="2.12803">
        <ele>92</ele>
        <time>2019-10-28T09:34:04.000Z</time>
      </trkpt>
      <trkpt lat="48.60753" lon="2.12804">
        <ele>93</ele>
        <time>2019-10-28T09:34:05.000Z</time>
      </trkpt>
      <trkpt lat="48.60754" lon="2.12806">
        <ele>92</ele>
        <time>2019-10-28T09:34:06.000Z</time>
      </trkpt>
      <trkpt lat="48.60755" lon="2.12808">
        <ele>92</ele>
        <time>2019-10-28T09:34:07.000Z</time>
      </trkpt>
      <trkpt lat="48.60755" lon="2.1281">
        <ele>92</ele>
        <time>2019-10-28T09:34:08.000Z</time>
      </trkpt>
      <trkpt lat="48.60756" lon="2.12812">
        <ele>92</ele>
        <time>2019-10-28T09:34:09.000Z</time>
      </trkpt>
      <trkpt lat="48.60756" lon="2.12814">
        <ele>92</ele>
        <time>2019-10-28T09:34:10.000Z</time>
      </trkpt>
      <trkpt lat="48.60757" lon="2.12816">
        <ele>92</ele>
        <time>2019-10-28T09:34:11.000Z</time>
      </trkpt>
      <trkpt lat="48.60757" lon="2.12818">
        <ele>92</ele>
        <time>2019-10-28T09:34:12.000Z</time>
      </trkpt>
      <trkpt lat="48.60758" lon="2.1282">
        <ele>93</ele>
        <time>2019-10-28T09:34:13.000Z</time>
      </trkpt>
      <trkpt lat="48.60759" lon="2.12821">
        <ele>93</ele>
        <time>2019-10-28T09:34:14.000Z</time>
      </trkpt>
      <trkpt lat="48.60759" lon="2.12823">
        <ele>92</ele>
        <time>2019-10-28T09:34:15.000Z</time>
      </trkpt>
      <trkpt lat="48.6076" lon="2.12825">
        <ele>92</ele>
        <time>2019-10-28T09:34:16.000Z</time>
      </trkpt>
      <trkpt lat="48.60761" lon="2.12827">
        <ele>93</ele>
        <time>2019-10-28T09:34:17.000Z</time>
      </trkpt>
      <trkpt lat="48.60761" lon="2.12829">
        <ele>93</ele>
        <time>2019-10-28T09:34:18.000Z</time>
      </trkpt>
      <trkpt lat="48.60762" lon="2.12831">
        <ele>93</ele>
        <time>2019-10-28T09:34:19.000Z</time>
      </trkpt>
      <trkpt lat="48.60763" lon="2.12833">
        <ele>93</ele>
        <time>2019-10-28T09:34:20.000Z</time>
      </trkpt>
      <trkpt lat="48.60763" lon="2.12834">
        <ele>93</ele>
        <time>2019-10-28T09:34:21.000Z</time>
      </trkpt>
      <trkpt lat="48.60764" lon="2.12836">
        <ele>93</ele>
        <time>2019-10-28T09:34:22.000Z</time>
      </trkpt>
      <trkpt lat="48.60764" lon="2.12838">
        <ele>93</ele>
        <time>2019-10-28T09:34:23.000Z</time>
      </trkpt>
      <trkpt lat="48.60765" lon="2.1284">
        <ele>93</ele>
        <time>2019-10-28T09:34:24.000Z</time>
      </trkpt>
      <trkpt lat="48.60766" lon="2.12841">
        <ele>93</ele>
        <time>2019-10-28T09:34:25.000Z</time>
      </trkpt>
      <trkpt lat="48.60766" lon="2.12843">
        <ele>93</ele>
        <time>2019-10-28T09:34:26.000Z</time>
      </trkpt>
      <trkpt lat="48.60767" lon="2.12844">
        <ele>93</ele>
        <time>2019-10-28T09:34:27.000Z</time>
      </trkpt>
      <trkpt lat="48.60768" lon="2.12846">
        <ele>93</ele>
        <time>2019-10-28T09:34:28.000Z</time>
      </trkpt>
      <trkpt lat="48.60768" lon="2.12848">
        <ele>93</ele>
        <time>2019-10-28T09:34:29.000Z</time>
      </trkpt>
      <trkpt lat="48.60769" lon="2.1285">
        <ele>93</ele>
        <time>2019-10-28T09:34:30.000Z</time>
      </trkpt>
      <trkpt lat="48.6077" lon="2.12852">
        <ele>93</ele>
        <time>2019-10-28T09:34:31.000Z</time>
      </trkpt>
      <trkpt lat="48.6077" lon="2.12854">
        <ele>93</ele>
        <time>2019-10-28T09:34:32.000Z</time>
      </trkpt>
      <trkpt lat="48.60771" lon="2.12856">
        <ele>93</ele>
        <time>2019-10-28T09:34:33.000Z</time>
      </trkpt>
      <trkpt lat="48.60771" lon="2.12858">
        <ele>93</ele>
        <time>2019-10-28T09:34:34.000Z</time>
      </trkpt>
      <trkpt lat="48.60772" lon="2.1286">
        <ele>93</ele>
        <time>2019-10-28T09:34:35.000Z</time>
      </trkpt>
      <trkpt lat="48.60772" lon="2.12861">
        <ele>93</ele>
        <time>2019-10-28T09:34:36.000Z</time>
      </trkpt>
      <trkpt lat="48.60773" lon="2.12863">
        <ele>93</ele>
        <time>2019-10-28T09:34:37.000Z</time>
      </trkpt>
      <trkpt lat="48.60774" lon="2.12865">
        <ele>93</ele>
        <time>2019-10-28T09:34:38.000Z</time>
      </trkpt>
      <trkpt lat="48.60774" lon="2.12867">
        <ele>93</ele>
        <time>2019-10-28T09:34:39.000Z</time>
      </trkpt>
      <trkpt lat="48.60775" lon="2.12869">
        <ele>93</ele>
        <time>2019-10-28T09:34:40.000Z</time>
      </trkpt>
      <trkpt lat="48.60776" lon="2.12871">
        <ele>93</ele>
        <time>2019-10-28T09:34:41.000Z</time>
      </trkpt>
      <trkpt lat="48.60776" lon="2.12873">
        <ele>93</ele>
        <time>2019-10-28T09:34:42.000Z</time>
      </trkpt>
      <trkpt lat="48.60777" lon="2.12875">
        <ele>93</ele>
        <time>2019-10-28T09:34:43.000Z</time>
      </trkpt>
      <trkpt lat="48.60778" lon="2.12877">
        <ele>93</ele>
        <time>2019-10-28T09:34:44.000Z</time>
      </trkpt>
      <trkpt lat="48.60778" lon="2.12879">
        <ele>93</ele>
        <time>2019-10-28T09:34:45.000Z</time>
      </trkpt>
      <trkpt lat="48.60779" lon="2.12881">
        <ele>93</ele>
        <time>2019-10-28T09:34:46.000Z</time>
      </trkpt>
      <trkpt lat="48.6078" lon="2.12882">
        <ele>93</ele>
        <time>2019-10-28T09:34:47.000Z</time>
      </trkpt>
      <trkpt lat="48.60781" lon="2.12884">
        <ele>94</ele>
        <time>2019-10-28T09:34:48.000Z</time>
      </trkpt>
      <trkpt lat="48.60781" lon="2.12886">
        <ele>94</ele>
        <time>2019-10-28T09:34:49.000Z</time>
      </trkpt>
      <trkpt lat="48.60782" lon="2.12888">
        <ele>93</ele>
        <time>2019-10-28T09:34:50.000Z</time>
      </trkpt>
      <trkpt lat="48.60782" lon="2.1289">
        <ele>93</ele>
        <time>2019-10-28T09:34:51.000Z</time>
      </trkpt>
      <trkpt lat="48.60783" lon="2.12892">
        <ele>93</ele>
        <time>2019-10-28T09:34:52.000Z</time>
      </trkpt>
      <trkpt lat="48.60783" lon="2.12894">
        <ele>93</ele>
        <time>2019-10-28T09:34:53.000Z</time>
      </trkpt>
      <trkpt lat="48.60784" lon="2.12895">
        <ele>93</ele>
        <time>2019-10-28T09:34:54.000Z</time>
      </trkpt>
      <trkpt lat="48.60785" lon="2.12897">
        <ele>93</ele>
        <time>2019-10-28T09:34:55.000Z</time>
      </trkpt>
      <trkpt lat="48.60786" lon="2.12899">
        <ele>93</ele>
        <time>2019-10-28T09:34:56.000Z</time>
      </trkpt>
      <trkpt lat="48.60786" lon="2.12901">
        <ele>93</ele>
        <time>2019-10-28T09:34:57.000Z</time>
      </trkpt>
      <trkpt lat="48.60787" lon="2.12903">
        <ele>93</ele>
        <time>2019-10-28T09:34:58.000Z</time>
      </trkpt>
      <trkpt lat="48.60788" lon="2.12905">
        <ele>93</ele>
        <time>2019-10-28T09:34:59.000Z</time>
      </trkpt>
      <trkpt lat="48.60788" lon="2.12907">
        <ele>93</ele>
        <time>2019-10-28T09:35:00.000Z</time>
      </trkpt>
      <trkpt lat="48.60789" lon="2.12908">
        <ele>93</ele>
        <time>2019-10-28T09:35:01.000Z</time>
      </trkpt>
      <trkpt lat="48.6079" lon="2.1291">
        <ele>93</ele>
        <time>2019-10-28T09:35:02.000Z</time>
      </trkpt>
      <trkpt lat="48.6079" lon="2.12912">
        <ele>94</ele>
        <time>2019-10-28T09:35:03.000Z</time>
      </trkpt>
      <trkpt lat="48.60791" lon="2.12914">
        <ele>94</ele>
        <time>2019-10-28T09:35:04.000Z</time>
      </trkpt>
      <trkpt lat="48.60791" lon="2.12916">
        <ele>94</ele>
        <time>2019-10-28T09:35:05.000Z</time>
      </trkpt>
      <trkpt lat="48.60792" lon="2.12918">
        <ele>93</ele>
        <time>2019-10-28T09:35:06.000Z</time>
      </trkpt>
      <trkpt lat="48.60793" lon="2.1292">
        <ele>93</ele>
        <time>2019-10-28T09:35:07.000Z</time>
      </trkpt>
      <trkpt lat="48.60793" lon="2.12921">
        <ele>94</ele>
        <time>2019-10-28T09:35:08.000Z</time>
      </trkpt>
      <trkpt lat="48.60794" lon="2.12923">
        <ele>94</ele>
        <time>2019-10-28T09:35:09.000Z</time>
      </trkpt>
      <trkpt lat="48.60795" lon="2.12925">
        <ele>94</ele>
        <time>2019-10-28T09:35:10.000Z</time>
      </trkpt>
      <trkpt lat="48.60795" lon="2.12927">
        <ele>94</ele>
        <time>2019-10-28T09:35:11.000Z</time>
      </trkpt>
      <trkpt lat="48.60796" lon="2.12929">
        <ele>94</ele>
        <time>2019-10-28T09:35:12.000Z</time>
      </trkpt>
      <trkpt lat="48.60797" lon="2.12931">
        <ele>94</ele>
        <time>2019-10-28T09:35:13.000Z</time>
      </trkpt>
      <trkpt lat="48.60797" lon="2.12932">
        <ele>94</ele>
        <time>2019-10-28T09:35:14.000Z</time>
      </trkpt>
      <trkpt lat="48.60798" lon="2.12934">
        <ele>94</ele>
        <time>2019-10-28T09:35:15.000Z</time>
      </trkpt>
      <trkpt lat="48.60799" lon="2.12936">
        <ele>94</ele>
        <time>2019-10-28T09:35:16.000Z</time>
      </trkpt>
      <trkpt lat="48.608" lon="2.12937">
        <ele>94</ele>
        <time>2019-10-28T09:35:17.000Z</time>
      </trkpt>
      <trkpt lat="48.608" lon="2.12939">
        <ele>94</ele>
        <time>2019-10-28T09:35:18.000Z</time>
      </trkpt>
      <trkpt lat="48.60801" lon="2.12941">
        <ele>94</ele>
        <time>2019-10-28T09:35:19.000Z</time>
      </trkpt>
      <trkpt lat="48.60801" lon="2.12943">
        <ele>94</ele>
        <time>2019-10-28T09:35:20.000Z</time>
      </trkpt>
      <trkpt lat="48.60802" lon="2.12945">
        <ele>94</ele>
        <time>2019-10-28T09:35:21.000Z</time>
      </trkpt>
      <trkpt lat="48.60803" lon="2.12947">
        <ele>94</ele>
        <time>2019-10-28T09:35:22.000Z</time>
      </trkpt>
      <trkpt lat="48.60803" lon="2.12948">
        <ele>94</ele>
        <time>2019-10-28T09:35:23.000Z</time>
      </trkpt>
      <trkpt lat="48.60804" lon="2.1295">
        <ele>94</ele>
        <time>2019-10-28T09:35:24.000Z</time>
      </trkpt>
      <trkpt lat="48.60805" lon="2.12952">
        <ele>94</ele>
        <time>2019-10-28T09:35:25.000Z</time>
      </trkpt>
      <trkpt lat="48.60805" lon="2.12954">
        <ele>94</ele>
        <time>2019-10-28T09:35:26.000Z</time>
      </trkpt>
      <trkpt lat="48.60806" lon="2.12956">
        <ele>94</ele>
        <time>2019-10-28T09:35:27.000Z</time>
      </trkpt>
      <trkpt lat="48.60806" lon="2.12958">
        <ele>94</ele>
        <time>2019-10-28T09:35:28.000Z</time>
      </trkpt>
      <trkpt lat="48.60807" lon="2.1296">
        <ele>94</ele>
        <time>2019-10-28T09:35:29.000Z</time>
      </trkpt>
      <trkpt lat="48.60808" lon="2.12962">
        <ele>94</ele>
        <time>2019-10-28T09:35:30.000Z</time>
      </trkpt>
      <trkpt lat="48.60808" lon="2.12964">
        <ele>94</ele>
        <time>2019-10-28T09:35:31.000Z</time>
      </trkpt>
      <trkpt lat="48.60809" lon="2.12965">
        <ele>94</ele>
        <time>2019-10-28T09:35:32.000Z</time>
      </trkpt>
      <trkpt lat="48.6081" lon="2.12967">
        <ele>94</ele>
        <time>2019-10-28T09:35:33.000Z</time>
      </trkpt>
      <trkpt lat="48.6081" lon="2.12969">
        <ele>94</ele>
        <time>2019-10-28T09:35:34.000Z</time>
      </trkpt>
      <trkpt lat="48.60811" lon="2.12971">
        <ele>94</ele>
        <time>2019-10-28T09:35:35.000Z</time>
      </trkpt>
      <trkpt lat="48.60812" lon="2.12973">
        <ele>94</ele>
        <time>2019-10-28T09:35:36.000Z</time>
      </trkpt>
      <trkpt lat="48.60812" lon="2.12975">
        <ele>94</ele>
        <time>2019-10-28T09:35:37.000Z</time>
      </trkpt>
      <trkpt lat="48.60813" lon="2.12976">
        <ele>94</ele>
        <time>2019-10-28T09:35:38.000Z</time>
      </trkpt>
      <trkpt lat="48.60814" lon="2.12978">
        <ele>94</ele>
        <time>2019-10-28T09:35:39.000Z</time>
      </trkpt>
      <trkpt lat="48.60814" lon="2.1298">
        <ele>94</ele>
        <time>2019-10-28T09:35:40.000Z</time>
      </trkpt>
      <trkpt lat="48.60815" lon="2.12982">
        <ele>94</ele>
        <time>2019-10-28T09:35:41.000Z</time>
      </trkpt>
      <trkpt lat="48.60815" lon="2.12984">
        <ele>94</ele>
        <time>2019-10-28T09:35:42.000Z</time>
      </trkpt>
      <trkpt lat="48.60816" lon="2.12986">
        <ele>94</ele>
        <time>2019-10-28T09:35:43.000Z</time>
      </trkpt>
      <trkpt lat="48.60817" lon="2.12988">
        <ele>94</ele>
        <time>2019-10-28T09:35:44.000Z</time>
      </trkpt>
      <trkpt lat="48.60818" lon="2.1299">
        <ele>94</ele>
        <time>2019-10-28T09:35:45.000Z</time>
      </trkpt>
      <trkpt lat="48.60818" lon="2.12992">
        <ele>94</ele>
        <time>2019-10-28T09:35:46.000Z</time>
      </trkpt>
      <trkpt lat="48.60819" lon="2.12993">
        <ele>94</ele>
        <time>2019-10-28T09:35:47.000Z</time>
      </trkpt>
      <trkpt lat="48.6082" lon="2.12995">
        <ele>94</ele>
        <time>2019-10-28T09:35:48.000Z</time>
      </trkpt>
      <trkpt lat="48.6082" lon="2.12997">
        <ele>94</ele>
        <time>2019-10-28T09:35:49.000Z</time>
      </trkpt>
      <trkpt lat="48.60821" lon="2.12999">
        <ele>94</ele>
        <time>2019-10-28T09:35:50.000Z</time>
      </trkpt>
      <trkpt lat="48.60822" lon="2.13001">
        <ele>94</ele>
        <time>2019-10-28T09:35:51.000Z</time>
      </trkpt>
      <trkpt lat="48.60822" lon="2.13003">
        <ele>94</ele>
        <time>2019-10-28T09:35:52.000Z</time>
      </trkpt>
      <trkpt lat="48.60823" lon="2.13005">
        <ele>94</ele>
        <time>2019-10-28T09:35:53.000Z</time>
      </trkpt>
      <trkpt lat="48.60824" lon="2.13007">
        <ele>94</ele>
        <time>2019-10-28T09:35:54.000Z</time>
      </trkpt>
      <trkpt lat="48.60824" lon="2.13009">
        <ele>94</ele>
        <time>2019-10-28T09:35:55.000Z</time>
      </trkpt>
      <trkpt lat="48.60825" lon="2.1301">
        <ele>94</ele>
        <time>2019-10-28T09:35:56.000Z</time>
      </trkpt>
      <trkpt lat="48.60826" lon="2.13012">
        <ele>94</ele>
        <time>2019-10-28T09:35:57.000Z</time>
      </trkpt>
      <trkpt lat="48.60826" lon="2.13014">
        <ele>94</ele>
        <time>2019-10-28T09:35:58.000Z</time>
      </trkpt>
      <trkpt lat="48.60827" lon="2.13015">
        <ele>94</ele>
        <time>2019-10-28T09:35:59.000Z</time>
      </trkpt>
      <trkpt lat="48.60827" lon="2.13017">
        <ele>94</ele>
        <time>2019-10-28T09:36:00.000Z</time>
      </trkpt>
      <trkpt lat="48.60828" lon="2.13019">
        <ele>94</ele>
        <time>2019-10-28T09:36:01.000Z</time>
      </trkpt>
      <trkpt lat="48.60828" lon="2.13021">
        <ele>94</ele>
        <time>2019-10-28T09:36:02.000Z</time>
      </trkpt>
      <trkpt lat="48.60829" lon="2.13022">
        <ele>94</ele>
        <time>2019-10-28T09:36:03.000Z</time>
      </trkpt>
      <trkpt lat="48.6083" lon="2.13024">
        <ele>94</ele>
        <time>2019-10-28T09:36:04.000Z</time>
      </trkpt>
      <trkpt lat="48.6083" lon="2.13026">
        <ele>94</ele>
        <time>2019-10-28T09:36:05.000Z</time>
      </trkpt>
      <trkpt lat="48.60831" lon="2.13028">
        <ele>94</ele>
        <time>2019-10-28T09:36:06.000Z</time>
      </trkpt>
      <trkpt lat="48.60831" lon="2.1303">
        <ele>95</ele>
        <time>2019-10-28T09:36:07.000Z</time>
      </trkpt>
      <trkpt lat="48.60832" lon="2.13032">
        <ele>95</ele>
        <time>2019-10-28T09:36:08.000Z</time>
      </trkpt>
      <trkpt lat="48.60833" lon="2.13034">
        <ele>95</ele>
        <time>2019-10-28T09:36:09.000Z</time>
      </trkpt>
      <trkpt lat="48.60834" lon="2.13036">
        <ele>95</ele>
        <time>2019-10-28T09:36:10.000Z</time>
      </trkpt>
      <trkpt lat="48.60834" lon="2.13037">
        <ele>95</ele>
        <time>2019-10-28T09:36:11.000Z</time>
      </trkpt>
      <trkpt lat="48.60835" lon="2.13039">
        <ele>95</ele>
        <time>2019-10-28T09:36:12.000Z</time>
      </trkpt>
      <trkpt lat="48.60836" lon="2.13041">
        <ele>95</ele>
        <time>2019-10-28T09:36:13.000Z</time>
      </trkpt>
      <trkpt lat="48.60836" lon="2.13043">
        <ele>96</ele>
        <time>2019-10-28T09:36:14.000Z</time>
      </trkpt>
      <trkpt lat="48.60837" lon="2.13045">
        <ele>96</ele>
        <time>2019-10-28T09:36:15.000Z</time>
      </trkpt>
      <trkpt lat="48.60838" lon="2.13047">
        <ele>96</ele>
        <time>2019-10-28T09:36:16.000Z</time>
      </trkpt>
      <trkpt lat="48.60838" lon="2.13049">
        <ele>96</ele>
        <time>2019-10-28T09:36:17.000Z</time>
      </trkpt>
      <trkpt lat="48.60839" lon="2.13051">
        <ele>96</ele>
        <time>2019-10-28T09:36:18.000Z</time>
      </trkpt>
      <trkpt lat="48.6084" lon="2.13053">
        <ele>96</ele>
        <time>2019-10-28T09:36:19.000Z</time>
      </trkpt>
      <trkpt lat="48.60841" lon="2.13055">
        <ele>96</ele>
        <time>2019-10-28T09:36:20.000Z</time>
      </trkpt>
      <trkpt lat="48.60842" lon="2.13056">
        <ele>96</ele>
        <time>2019-10-28T09:36:21.000Z</time>
      </trkpt>
      <trkpt lat="48.60842" lon="2.13058">
        <ele>96</ele>
        <time>2019-10-28T09:36:22.000Z</time>
      </trkpt>
      <trkpt lat="48.60843" lon="2.1306">
        <ele>96</ele>
        <time>2019-10-28T09:36:23.000Z</time>
      </trkpt>
      <trkpt lat="48.60844" lon="2.13062">
        <ele>96</ele>
        <time>2019-10-28T09:36:24.000Z</time>
      </trkpt>
      <trkpt lat="48.60845" lon="2.13064">
        <ele>96</ele>
        <time>2019-10-28T09:36:25.000Z</time>
      </trkpt>
      <trkpt lat="48.60845" lon="2.13067">
        <ele>96</ele>
        <time>2019-10-28T09:36:26.000Z</time>
      </trkpt>
      <trkpt lat="48.60846" lon="2.13069">
        <ele>96</ele>
        <time>2019-10-28T09:36:27.000Z</time>
      </trkpt>
      <trkpt lat="48.60847" lon="2.1307">
        <ele>96</ele>
        <time>2019-10-28T09:36:28.000Z</time>
      </trkpt>
      <trkpt lat="48.60848" lon="2.13072">
        <ele>96</ele>
        <time>2019-10-28T09:36:29.000Z</time>
      </trkpt>
      <trkpt lat="48.60849" lon="2.13075">
        <ele>96</ele>
        <time>2019-10-28T09:36:30.000Z</time>
      </trkpt>
      <trkpt lat="48.60849" lon="2.13077">
        <ele>96</ele>
        <time>2019-10-28T09:36:31.000Z</time>
      </trkpt>
      <trkpt lat="48.6085" lon="2.13079">
        <ele>96</ele>
        <time>2019-10-28T09:36:32.000Z</time>
      </trkpt>
      <trkpt lat="48.60851" lon="2.1308">
        <ele>96</ele>
        <time>2019-10-28T09:36:33.000Z</time>
      </trkpt>
      <trkpt lat="48.60852" lon="2.13082">
        <ele>96</ele>
        <time>2019-10-28T09:36:34.000Z</time>
      </trkpt>
      <trkpt lat="48.60852" lon="2.13084">
        <ele>96</ele>
        <time>2019-10-28T09:36:35.000Z</time>
      </trkpt>
      <trkpt lat="48.60853" lon="2.13086">
        <ele>96</ele>
        <time>2019-10-28T09:36:36.000Z</time>
      </trkpt>
      <trkpt lat="48.60854" lon="2.13088">
        <ele>96</ele>
        <time>2019-10-28T09:36:37.000Z</time>
      </trkpt>
      <trkpt lat="48.60854" lon="2.13089">
        <ele>97</ele>
        <time>2019-10-28T09:36:38.000Z</time>
      </trkpt>
      <trkpt lat="48.60855" lon="2.13091">
        <ele>97</ele>
        <time>2019-10-28T09:36:39.000Z</time>
      </trkpt>
      <trkpt lat="48.60856" lon="2.13093">
        <ele>97</ele>
        <time>2019-10-28T09:36:40.000Z</time>
      </trkpt>
      <trkpt lat="48.60857" lon="2.13095">
        <ele>97</ele>
        <time>2019-10-28T09:36:41.000Z</time>
      </trkpt>
      <trkpt lat="48.60857" lon="2.13097">
        <ele>97</ele>
        <time>2019-10-28T09:36:42.000Z</time>
      </trkpt>
      <trkpt lat="48.60858" lon="2.131">
        <ele>97</ele>
        <time>2019-10-28T09:36:43.000Z</time>
      </trkpt>
      <trkpt lat="48.60859" lon="2.13102">
        <ele>97</ele>
        <time>2019-10-28T09:36:44.000Z</time>
      </trkpt>
      <trkpt lat="48.6086" lon="2.13104">
        <ele>97</ele>
        <time>2019-10-28T09:36:45.000Z</time>
      </trkpt>
      <trkpt lat="48.6086" lon="2.13106">
        <ele>96</ele>
        <time>2019-10-28T09:36:46.000Z</time>
      </trkpt>
      <trkpt lat="48.60861" lon="2.13107">
        <ele>96</ele>
        <time>2019-10-28T09:36:47.000Z</time>
      </trkpt>
      <trkpt lat="48.60862" lon="2.13109">
        <ele>96</ele>
        <time>2019-10-28T09:36:48.000Z</time>
      </trkpt>
      <trkpt lat="48.60862" lon="2.13111">
        <ele>97</ele>
        <time>2019-10-28T09:36:49.000Z</time>
      </trkpt>
      <trkpt lat="48.60863" lon="2.13113">
        <ele>97</ele>
        <time>2019-10-28T09:36:50.000Z</time>
      </trkpt>
      <trkpt lat="48.60863" lon="2.13115">
        <ele>97</ele>
        <time>2019-10-28T09:36:51.000Z</time>
      </trkpt>
      <trkpt lat="48.60864" lon="2.13117">
        <ele>96</ele>
        <time>2019-10-28T09:36:52.000Z</time>
      </trkpt>
      <trkpt lat="48.60864" lon="2.13119">
        <ele>96</ele>
        <time>2019-10-28T09:36:53.000Z</time>
      </trkpt>
      <trkpt lat="48.60865" lon="2.13121">
        <ele>96</ele>
        <time>2019-10-28T09:36:54.000Z</time>
      </trkpt>
      <trkpt lat="48.60866" lon="2.13123">
        <ele>96</ele>
        <time>2019-10-28T09:36:55.000Z</time>
      </trkpt>
      <trkpt lat="48.60866" lon="2.13125">
        <ele>96</ele>
        <time>2019-10-28T09:36:56.000Z</time>
      </trkpt>
      <trkpt lat="48.60867" lon="2.13127">
        <ele>96</ele>
        <time>2019-10-28T09:36:57.000Z</time>
      </trkpt>
      <trkpt lat="48.60868" lon="2.13129">
        <ele>96</ele>
        <time>2019-10-28T09:36:58.000Z</time>
      </trkpt>
      <trkpt lat="48.60869" lon="2.13131">
        <ele>96</ele>
        <time>2019-10-28T09:36:59.000Z</time>
      </trkpt>
      <trkpt lat="48.60869" lon="2.13134">
        <ele>96</ele>
        <time>2019-10-28T09:37:00.000Z</time>
      </trkpt>
      <trkpt lat="48.6087" lon="2.13136">
        <ele>96</ele>
        <time>2019-10-28T09:37:01.000Z</time>
      </trkpt>
      <trkpt lat="48.60871" lon="2.13138">
        <ele>96</ele>
        <time>2019-10-28T09:37:02.000Z</time>
      </trkpt>
      <trkpt lat="48.60871" lon="2.1314">
        <ele>96</ele>
        <time>2019-10-28T09:37:03.000Z</time>
      </trkpt>
      <trkpt lat="48.60872" lon="2.13142">
        <ele>96</ele>
        <time>2019-10-28T09:37:04.000Z</time>
      </trkpt>
      <trkpt lat="48.60872" lon="2.13143">
        <ele>96</ele>
        <time>2019-10-28T09:37:05.000Z</time>
      </trkpt>
      <trkpt lat="48.60873" lon="2.13145">
        <ele>96</ele>
        <time>2019-10-28T09:37:06.000Z</time>
      </trkpt>
      <trkpt lat="48.60874" lon="2.13148">
        <ele>96</ele>
        <time>2019-10-28T09:37:07.000Z</time>
      </trkpt>
      <trkpt lat="48.60874" lon="2.1315">
        <ele>96</ele>
        <time>2019-10-28T09:37:08.000Z</time>
      </trkpt>
      <trkpt lat="48.60875" lon="2.13152">
        <ele>96</ele>
        <time>2019-10-28T09:37:09.000Z</time>
      </trkpt>
      <trkpt lat="48.60875" lon="2.13154">
        <ele>96</ele>
        <time>2019-10-28T09:37:10.000Z</time>
      </trkpt>
      <trkpt lat="48.60876" lon="2.13156">
        <ele>96</ele>
        <time>2019-10-28T09:37:11.000Z</time>
      </trkpt>
      <trkpt lat="48.60877" lon="2.13158">
        <ele>96</ele>
        <time>2019-10-28T09:37:12.000Z</time>
      </trkpt>
      <trkpt lat="48.60878" lon="2.1316">
        <ele>96</ele>
        <time>2019-10-28T09:37:13.000Z</time>
      </trkpt>
      <trkpt lat="48.60878" lon="2.13162">
        <ele>96</ele>
        <time>2019-10-28T09:37:14.000Z</time>
      </trkpt>
      <trkpt lat="48.60879" lon="2.13164">
        <ele>96</ele>
        <time>2019-10-28T09:37:15.000Z</time>
      </trkpt>
      <trkpt lat="48.6088" lon="2.13166">
        <ele>96</ele>
        <time>2019-10-28T09:37:16.000Z</time>
      </trkpt>
      <trkpt lat="48.6088" lon="2.13168">
        <ele>96</ele>
        <time>2019-10-28T09:37:17.000Z</time>
      </trkpt>
      <trkpt lat="48.60881" lon="2.1317">
        <ele>96</ele>
        <time>2019-10-28T09:37:18.000Z</time>
      </trkpt>
      <trkpt lat="48.60882" lon="2.13172">
        <ele>96</ele>
        <time>2019-10-28T09:37:19.000Z</time>
      </trkpt>
      <trkpt lat="48.60882" lon="2.13175">
        <ele>96</ele>
        <time>2019-10-28T09:37:20.000Z</time>
      </trkpt>
      <trkpt lat="48.60883" lon="2.13178">
        <ele>96</ele>
        <time>2019-10-28T09:37:21.000Z</time>
      </trkpt>
      <trkpt lat="48.60884" lon="2.1318">
        <ele>96</ele>
        <time>2019-10-28T09:37:22.000Z</time>
      </trkpt>
      <trkpt lat="48.60885" lon="2.13183">
        <ele>96</ele>
        <time>2019-10-28T09:37:23.000Z</time>
      </trkpt>
      <trkpt lat="48.60886" lon="2.13186">
        <ele>96</ele>
        <time>2019-10-28T09:37:24.000Z</time>
      </trkpt>
      <trkpt lat="48.60887" lon="2.13188">
        <ele>96</ele>
        <time>2019-10-28T09:37:25.000Z</time>
      </trkpt>
      <trkpt lat="48.60888" lon="2.1319">
        <ele>96</ele>
        <time>2019-10-28T09:37:26.000Z</time>
      </trkpt>
      <trkpt lat="48.60888" lon="2.13192">
        <ele>96</ele>
        <time>2019-10-28T09:37:27.000Z</time>
      </trkpt>
      <trkpt lat="48.60889" lon="2.13194">
        <ele>96</ele>
        <time>2019-10-28T09:37:28.000Z</time>
      </trkpt>
      <trkpt lat="48.6089" lon="2.13196">
        <ele>96</ele>
        <time>2019-10-28T09:37:29.000Z</time>
      </trkpt>
      <trkpt lat="48.6089" lon="2.13198">
        <ele>96</ele>
        <time>2019-10-28T09:37:30.000Z</time>
      </trkpt>
      <trkpt lat="48.60891" lon="2.13199">
        <ele>96</ele>
        <time>2019-10-28T09:37:31.000Z</time>
      </trkpt>
      <trkpt lat="48.60892" lon="2.13201">
        <ele>96</ele>
        <time>2019-10-28T09:37:32.000Z</time>
      </trkpt>
      <trkpt lat="48.60892" lon="2.13203">
        <ele>96</ele>
        <time>2019-10-28T09:37:33.000Z</time>
      </trkpt>
      <trkpt lat="48.60893" lon="2.13206">
        <ele>96</ele>
        <time>2019-10-28T09:37:34.000Z</time>
      </trkpt>
      <trkpt lat="48.60894" lon="2.13208">
        <ele>96</ele>
        <time>2019-10-28T09:37:35.000Z</time>
      </trkpt>
      <trkpt lat="48.60894" lon="2.1321">
        <ele>96</ele>
        <time>2019-10-28T09:37:36.000Z</time>
      </trkpt>
      <trkpt lat="48.60895" lon="2.13211">
        <ele>96</ele>
        <time>2019-10-28T09:37:37.000Z</time>
      </trkpt>
      <trkpt lat="48.60896" lon="2.13213">
        <ele>96</ele>
        <time>2019-10-28T09:37:38.000Z</time>
      </trkpt>
      <trkpt lat="48.60896" lon="2.13215">
        <ele>96</ele>
        <time>2019-10-28T09:37:39.000Z</time>
      </trkpt>
      <trkpt lat="48.60897" lon="2.13217">
        <ele>96</ele>
        <time>2019-10-28T09:37:40.000Z</time>
      </trkpt>
      <trkpt lat="48.60897" lon="2.13219">
        <ele>96</ele>
        <time>2019-10-28T09:37:41.000Z</time>
      </trkpt>
      <trkpt lat="48.60898" lon="2.13221">
        <ele>96</ele>
        <time>2019-10-28T09:37:42.000Z</time>
      </trkpt>
      <trkpt lat="48.60899" lon="2.13222">
        <ele>96</ele>
        <time>2019-10-28T09:37:43.000Z</time>
      </trkpt>
      <trkpt lat="48.60899" lon="2.13224">
        <ele>96</ele>
        <time>2019-10-28T09:37:44.000Z</time>
      </trkpt>
      <trkpt lat="48.609" lon="2.13226">
        <ele>96</ele>
        <time>2019-10-28T09:37:45.000Z</time>
      </trkpt>
      <trkpt lat="48.609" lon="2.13228">
        <ele>96</ele>
        <time>2019-10-28T09:37:46.000Z</time>
      </trkpt>
      <trkpt lat="48.60901" lon="2.1323">
        <ele>96</ele>
        <time>2019-10-28T09:37:47.000Z</time>
      </trkpt>
      <trkpt lat="48.60902" lon="2.13232">
        <ele>96</ele>
        <time>2019-10-28T09:37:48.000Z</time>
      </trkpt>
      <trkpt lat="48.60903" lon="2.13234">
        <ele>96</ele>
        <time>2019-10-28T09:37:49.000Z</time>
      </trkpt>
      <trkpt lat="48.60903" lon="2.13236">
        <ele>95</ele>
        <time>2019-10-28T09:37:50.000Z</time>
      </trkpt>
      <trkpt lat="48.60904" lon="2.13237">
        <ele>95</ele>
        <time>2019-10-28T09:37:51.000Z</time>
      </trkpt>
      <trkpt lat="48.60904" lon="2.13239">
        <ele>95</ele>
        <time>2019-10-28T09:37:52.000Z</time>
      </trkpt>
      <trkpt lat="48.60905" lon="2.13241">
        <ele>95</ele>
        <time>2019-10-28T09:37:53.000Z</time>
      </trkpt>
      <trkpt lat="48.60906" lon="2.13244">
        <ele>96</ele>
        <time>2019-10-28T09:37:54.000Z</time>
      </trkpt>
      <trkpt lat="48.60906" lon="2.13245">
        <ele>95</ele>
        <time>2019-10-28T09:37:55.000Z</time>
      </trkpt>
      <trkpt lat="48.60907" lon="2.13247">
        <ele>95</ele>
        <time>2019-10-28T09:37:56.000Z</time>
      </trkpt>
      <trkpt lat="48.60908" lon="2.13249">
        <ele>95</ele>
        <time>2019-10-28T09:37:57.000Z</time>
      </trkpt>
      <trkpt lat="48.60908" lon="2.13251">
        <ele>95</ele>
        <time>2019-10-28T09:37:58.000Z</time>
      </trkpt>
      <trkpt lat="48.60909" lon="2.13253">
        <ele>95</ele>
        <time>2019-10-28T09:37:59.000Z</time>
      </trkpt>
      <trkpt lat="48.60909" lon="2.13255">
        <ele>95</ele>
        <time>2019-10-28T09:38:00.000Z</time>
      </trkpt>
      <trkpt lat="48.6091" lon="2.13257">
        <ele>95</ele>
        <time>2019-10-28T09:38:01.000Z</time>
      </trkpt>
      <trkpt lat="48.60911" lon="2.13259">
        <ele>95</ele>
        <time>2019-10-28T09:38:02.000Z</time>
      </trkpt>
      <trkpt lat="48.60911" lon="2.13261">
        <ele>95</ele>
        <time>2019-10-28T09:38:03.000Z</time>
      </trkpt>
      <trkpt lat="48.60912" lon="2.13263">
        <ele>95</ele>
        <time>2019-10-28T09:38:04.000Z</time>
      </trkpt>
      <trkpt lat="48.60913" lon="2.13265">
        <ele>95</ele>
        <time>2019-10-28T09:38:05.000Z</time>
      </trkpt>
      <trkpt lat="48.60913" lon="2.13267">
        <ele>95</ele>
        <time>2019-10-28T09:38:06.000Z</time>
      </trkpt>
      <trkpt lat="48.60914" lon="2.13269">
        <ele>95</ele>
        <time>2019-10-28T09:38:07.000Z</time>
      </trkpt>
      <trkpt lat="48.60914" lon="2.13271">
        <ele>95</ele>
        <time>2019-10-28T09:38:08.000Z</time>
      </trkpt>
      <trkpt lat="48.60915" lon="2.13272">
        <ele>95</ele>
        <time>2019-10-28T09:38:09.000Z</time>
      </trkpt>
      <trkpt lat="48.60915" lon="2.13274">
        <ele>95</ele>
        <time>2019-10-28T09:38:10.000Z</time>
      </trkpt>
      <trkpt lat="48.60916" lon="2.13276">
        <ele>95</ele>
        <time>2019-10-28T09:38:11.000Z</time>
      </trkpt>
      <trkpt lat="48.60917" lon="2.13278">
        <ele>95</ele>
        <time>2019-10-28T09:38:12.000Z</time>
      </trkpt>
      <trkpt lat="48.60917" lon="2.1328">
        <ele>95</ele>
        <time>2019-10-28T09:38:13.000Z</time>
      </trkpt>
      <trkpt lat="48.60918" lon="2.13282">
        <ele>96</ele>
        <time>2019-10-28T09:38:14.000Z</time>
      </trkpt>
      <trkpt lat="48.60919" lon="2.13284">
        <ele>96</ele>
        <time>2019-10-28T09:38:15.000Z</time>
      </trkpt>
      <trkpt lat="48.60919" lon="2.13285">
        <ele>96</ele>
        <time>2019-10-28T09:38:16.000Z</time>
      </trkpt>
      <trkpt lat="48.6092" lon="2.13287">
        <ele>96</ele>
        <time>2019-10-28T09:38:17.000Z</time>
      </trkpt>
      <trkpt lat="48.60921" lon="2.13289">
        <ele>95</ele>
        <time>2019-10-28T09:38:18.000Z</time>
      </trkpt>
      <trkpt lat="48.60921" lon="2.13291">
        <ele>96</ele>
        <time>2019-10-28T09:38:19.000Z</time>
      </trkpt>
      <trkpt lat="48.60922" lon="2.13293">
        <ele>95</ele>
        <time>2019-10-28T09:38:20.000Z</time>
      </trkpt>
      <trkpt lat="48.60923" lon="2.13295">
        <ele>95</ele>
        <time>2019-10-28T09:38:21.000Z</time>
      </trkpt>
      <trkpt lat="48.60923" lon="2.13297">
        <ele>95</ele>
        <time>2019-10-28T09:38:22.000Z</time>
      </trkpt>
      <trkpt lat="48.60924" lon="2.13298">
        <ele>95</ele>
        <time>2019-10-28T09:38:23.000Z</time>
      </trkpt>
      <trkpt lat="48.60925" lon="2.133">
        <ele>95</ele>
        <time>2019-10-28T09:38:24.000Z</time>
      </trkpt>
      <trkpt lat="48.60925" lon="2.13302">
        <ele>95</ele>
        <time>2019-10-28T09:38:25.000Z</time>
      </trkpt>
      <trkpt lat="48.60926" lon="2.13304">
        <ele>95</ele>
        <time>2019-10-28T09:38:26.000Z</time>
      </trkpt>
      <trkpt lat="48.60926" lon="2.13305">
        <ele>95</ele>
        <time>2019-10-28T09:38:27.000Z</time>
      </trkpt>
      <trkpt lat="48.60927" lon="2.13307">
        <ele>95</ele>
        <time>2019-10-28T09:38:28.000Z</time>
      </trkpt>
      <trkpt lat="48.60927" lon="2.13309">
        <ele>95</ele>
        <time>2019-10-28T09:38:29.000Z</time>
      </trkpt>
      <trkpt lat="48.60928" lon="2.13311">
        <ele>95</ele>
        <time>2019-10-28T09:38:30.000Z</time>
      </trkpt>
      <trkpt lat="48.60928" lon="2.13313">
        <ele>95</ele>
        <time>2019-10-28T09:38:31.000Z</time>
      </trkpt>
      <trkpt lat="48.60929" lon="2.13315">
        <ele>95</ele>
        <time>2019-10-28T09:38:32.000Z</time>
      </trkpt>
      <trkpt lat="48.6093" lon="2.13316">
        <ele>95</ele>
        <time>2019-10-28T09:38:33.000Z</time>
      </trkpt>
      <trkpt lat="48.60931" lon="2.13318">
        <ele>95</ele>
        <time>2019-10-28T09:38:34.000Z</time>
      </trkpt>
      <trkpt lat="48.60931" lon="2.1332">
        <ele>95</ele>
        <time>2019-10-28T09:38:35.000Z</time>
      </trkpt>
      <trkpt lat="48.60932" lon="2.13321">
        <ele>95</ele>
        <time>2019-10-28T09:38:36.000Z</time>
      </trkpt>
      <trkpt lat="48.60933" lon="2.13323">
        <ele>95</ele>
        <time>2019-10-28T09:38:37.000Z</time>
      </trkpt>
      <trkpt lat="48.60933" lon="2.13325">
        <ele>95</ele>
        <time>2019-10-28T09:38:38.000Z</time>
      </trkpt>
      <trkpt lat="48.60934" lon="2.13327">
        <ele>95</ele>
        <time>2019-10-28T09:38:39.000Z</time>
      </trkpt>
      <trkpt lat="48.60934" lon="2.13328">
        <ele>95</ele>
        <time>2019-10-28T09:38:40.000Z</time>
      </trkpt>
      <trkpt lat="48.60934" lon="2.1333">
        <ele>95</ele>
        <time>2019-10-28T09:38:41.000Z</time>
      </trkpt>
      <trkpt lat="48.60935" lon="2.13332">
        <ele>95</ele>
        <time>2019-10-28T09:38:42.000Z</time>
      </trkpt>
      <trkpt lat="48.60935" lon="2.13334">
        <ele>95</ele>
        <time>2019-10-28T09:38:43.000Z</time>
      </trkpt>
      <trkpt lat="48.60936" lon="2.13336">
        <ele>95</ele>
        <time>2019-10-28T09:38:44.000Z</time>
      </trkpt>
      <trkpt lat="48.60936" lon="2.13338">
        <ele>95</ele>
        <time>2019-10-28T09:38:45.000Z</time>
      </trkpt>
      <trkpt lat="48.60937" lon="2.13339">
        <ele>95</ele>
        <time>2019-10-28T09:38:46.000Z</time>
      </trkpt>
      <trkpt lat="48.60938" lon="2.13341">
        <ele>95</ele>
        <time>2019-10-28T09:38:47.000Z</time>
      </trkpt>
      <trkpt lat="48.60938" lon="2.13343">
        <ele>95</ele>
        <time>2019-10-28T09:38:48.000Z</time>
      </trkpt>
      <trkpt lat="48.60939" lon="2.13345">
        <ele>95</ele>
        <time>2019-10-28T09:38:49.000Z</time>
      </trkpt>
      <trkpt lat="48.60939" lon="2.13347">
        <ele>95</ele>
        <time>2019-10-28T09:38:50.000Z</time>
      </trkpt>
      <trkpt lat="48.6094" lon="2.13349">
        <ele>95</ele>
        <time>2019-10-28T09:38:51.000Z</time>
      </trkpt>
      <trkpt lat="48.60941" lon="2.13351">
        <ele>95</ele>
        <time>2019-10-28T09:38:52.000Z</time>
      </trkpt>
      <trkpt lat="48.60941" lon="2.13352">
        <ele>95</ele>
        <time>2019-10-28T09:38:53.000Z</time>
      </trkpt>
      <trkpt lat="48.60942" lon="2.13354">
        <ele>95</ele>
        <time>2019-10-28T09:38:54.000Z</time>
      </trkpt>
      <trkpt lat="48.60943" lon="2.13356">
        <ele>95</ele>
        <time>2019-10-28T09:38:55.000Z</time>
      </trkpt>
      <trkpt lat="48.60943" lon="2.13358">
        <ele>95</ele>
        <time>2019-10-28T09:38:56.000Z</time>
      </trkpt>
      <trkpt lat="48.60944" lon="2.1336">
        <ele>95</ele>
        <time>2019-10-28T09:38:57.000Z</time>
      </trkpt>
      <trkpt lat="48.60945" lon="2.13362">
        <ele>95</ele>
        <time>2019-10-28T09:38:58.000Z</time>
      </trkpt>
      <trkpt lat="48.60945" lon="2.13364">
        <ele>95</ele>
        <time>2019-10-28T09:38:59.000Z</time>
      </trkpt>
      <trkpt lat="48.60946" lon="2.13365">
        <ele>95</ele>
        <time>2019-10-28T09:39:00.000Z</time>
      </trkpt>
      <trkpt lat="48.60947" lon="2.13367">
        <ele>95</ele>
        <time>2019-10-28T09:39:01.000Z</time>
      </trkpt>
      <trkpt lat="48.60947" lon="2.13369">
        <ele>95</ele>
        <time>2019-10-28T09:39:02.000Z</time>
      </trkpt>
      <trkpt lat="48.60948" lon="2.13371">
        <ele>95</ele>
        <time>2019-10-28T09:39:03.000Z</time>
      </trkpt>
      <trkpt lat="48.60948" lon="2.13373">
        <ele>95</ele>
        <time>2019-10-28T09:39:04.000Z</time>
      </trkpt>
      <trkpt lat="48.60949" lon="2.13375">
        <ele>94</ele>
        <time>2019-10-28T09:39:05.000Z</time>
      </trkpt>
      <trkpt lat="48.6095" lon="2.13376">
        <ele>94</ele>
        <time>2019-10-28T09:39:06.000Z</time>
      </trkpt>
      <trkpt lat="48.6095" lon="2.13378">
        <ele>94</ele>
        <time>2019-10-28T09:39:07.000Z</time>
      </trkpt>
      <trkpt lat="48.60951" lon="2.1338">
        <ele>94</ele>
        <time>2019-10-28T09:39:08.000Z</time>
      </trkpt>
      <trkpt lat="48.60952" lon="2.13381">
        <ele>95</ele>
        <time>2019-10-28T09:39:09.000Z</time>
      </trkpt>
      <trkpt lat="48.60953" lon="2.13383">
        <ele>95</ele>
        <time>2019-10-28T09:39:10.000Z</time>
      </trkpt>
      <trkpt lat="48.60953" lon="2.13384">
        <ele>95</ele>
        <time>2019-10-28T09:39:11.000Z</time>
      </trkpt>
      <trkpt lat="48.60954" lon="2.13386">
        <ele>95</ele>
        <time>2019-10-28T09:39:12.000Z</time>
      </trkpt>
      <trkpt lat="48.60954" lon="2.13387">
        <ele>95</ele>
        <time>2019-10-28T09:39:13.000Z</time>
      </trkpt>
      <trkpt lat="48.60955" lon="2.13389">
        <ele>95</ele>
        <time>2019-10-28T09:39:14.000Z</time>
      </trkpt>
      <trkpt lat="48.60956" lon="2.13391">
        <ele>95</ele>
        <time>2019-10-28T09:39:15.000Z</time>
      </trkpt>
      <trkpt lat="48.60956" lon="2.13392">
        <ele>95</ele>
        <time>2019-10-28T09:39:16.000Z</time>
      </trkpt>
      <trkpt lat="48.60957" lon="2.13394">
        <ele>95</ele>
        <time>2019-10-28T09:39:17.000Z</time>
      </trkpt>
      <trkpt lat="48.60957" lon="2.13395">
        <ele>95</ele>
        <time>2019-10-28T09:39:18.000Z</time>
      </trkpt>
      <trkpt lat="48.60958" lon="2.13397">
        <ele>95</ele>
        <time>2019-10-28T09:39:19.000Z</time>
      </trkpt>
      <trkpt lat="48.60958" lon="2.13399">
        <ele>95</ele>
        <time>2019-10-28T09:39:20.000Z</time>
      </trkpt>
      <trkpt lat="48.60959" lon="2.134">
        <ele>95</ele>
        <time>2019-10-28T09:39:21.000Z</time>
      </trkpt>
      <trkpt lat="48.60959" lon="2.13402">
        <ele>95</ele>
        <time>2019-10-28T09:39:22.000Z</time>
      </trkpt>
      <trkpt lat="48.60959" lon="2.13404">
        <ele>94</ele>
        <time>2019-10-28T09:39:23.000Z</time>
      </trkpt>
      <trkpt lat="48.6096" lon="2.13406">
        <ele>94</ele>
        <time>2019-10-28T09:39:24.000Z</time>
      </trkpt>
      <trkpt lat="48.60961" lon="2.13408">
        <ele>94</ele>
        <time>2019-10-28T09:39:25.000Z</time>
      </trkpt>
      <trkpt lat="48.60961" lon="2.1341">
        <ele>94</ele>
        <time>2019-10-28T09:39:26.000Z</time>
      </trkpt>
      <trkpt lat="48.60962" lon="2.13412">
        <ele>94</ele>
        <time>2019-10-28T09:39:27.000Z</time>
      </trkpt>
      <trkpt lat="48.60963" lon="2.13414">
        <ele>94</ele>
        <time>2019-10-28T09:39:28.000Z</time>
      </trkpt>
      <trkpt lat="48.60963" lon="2.13416">
        <ele>94</ele>
        <time>2019-10-28T09:39:29.000Z</time>
      </trkpt>
      <trkpt lat="48.60964" lon="2.13418">
        <ele>94</ele>
        <time>2019-10-28T09:39:30.000Z</time>
      </trkpt>
      <trkpt lat="48.60965" lon="2.1342">
        <ele>94</ele>
        <time>2019-10-28T09:39:31.000Z</time>
      </trkpt>
      <trkpt lat="48.60965" lon="2.13422">
        <ele>94</ele>
        <time>2019-10-28T09:39:32.000Z</time>
      </trkpt>
      <trkpt lat="48.60966" lon="2.13424">
        <ele>95</ele>
        <time>2019-10-28T09:39:33.000Z</time>
      </trkpt>
      <trkpt lat="48.60967" lon="2.13426">
        <ele>95</ele>
        <time>2019-10-28T09:39:34.000Z</time>
      </trkpt>
      <trkpt lat="48.60968" lon="2.13428">
        <ele>95</ele>
        <time>2019-10-28T09:39:35.000Z</time>
      </trkpt>
      <trkpt lat="48.60968" lon="2.1343">
        <ele>94</ele>
        <time>2019-10-28T09:39:36.000Z</time>
      </trkpt>
      <trkpt lat="48.60969" lon="2.13432">
        <ele>94</ele>
        <time>2019-10-28T09:39:37.000Z</time>
      </trkpt>
      <trkpt lat="48.6097" lon="2.13434">
        <ele>94</ele>
        <time>2019-10-28T09:39:38.000Z</time>
      </trkpt>
      <trkpt lat="48.6097" lon="2.13436">
        <ele>94</ele>
        <time>2019-10-28T09:39:39.000Z</time>
      </trkpt>
      <trkpt lat="48.60971" lon="2.13438">
        <ele>94</ele>
        <time>2019-10-28T09:39:40.000Z</time>
      </trkpt>
      <trkpt lat="48.60971" lon="2.1344">
        <ele>95</ele>
        <time>2019-10-28T09:39:41.000Z</time>
      </trkpt>
      <trkpt lat="48.60972" lon="2.13442">
        <ele>94</ele>
        <time>2019-10-28T09:39:42.000Z</time>
      </trkpt>
      <trkpt lat="48.60972" lon="2.13444">
        <ele>94</ele>
        <time>2019-10-28T09:39:43.000Z</time>
      </trkpt>
      <trkpt lat="48.60973" lon="2.13446">
        <ele>95</ele>
        <time>2019-10-28T09:39:44.000Z</time>
      </trkpt>
      <trkpt lat="48.60973" lon="2.13447">
        <ele>94</ele>
        <time>2019-10-28T09:39:45.000Z</time>
      </trkpt>
      <trkpt lat="48.60974" lon="2.1345">
        <ele>94</ele>
        <time>2019-10-28T09:39:46.000Z</time>
      </trkpt>
      <trkpt lat="48.60975" lon="2.13452">
        <ele>94</ele>
        <time>2019-10-28T09:39:47.000Z</time>
      </trkpt>
      <trkpt lat="48.60975" lon="2.13454">
        <ele>94</ele>
        <time>2019-10-28T09:39:48.000Z</time>
      </trkpt>
      <trkpt lat="48.60976" lon="2.13455">
        <ele>94</ele>
        <time>2019-10-28T09:39:49.000Z</time>
      </trkpt>
      <trkpt lat="48.60976" lon="2.13457">
        <ele>94</ele>
        <time>2019-10-28T09:39:50.000Z</time>
      </trkpt>
      <trkpt lat="48.60977" lon="2.13459">
        <ele>94</ele>
        <time>2019-10-28T09:39:51.000Z</time>
      </trkpt>
      <trkpt lat="48.60978" lon="2.13461">
        <ele>94</ele>
        <time>2019-10-28T09:39:52.000Z</time>
      </trkpt>
      <trkpt lat="48.60979" lon="2.13463">
        <ele>94</ele>
        <time>2019-10-28T09:39:53.000Z</time>
      </trkpt>
      <trkpt lat="48.6098" lon="2.13465">
        <ele>94</ele>
        <time>2019-10-28T09:39:54.000Z</time>
      </trkpt>
      <trkpt lat="48.6098" lon="2.13467">
        <ele>94</ele>
        <time>2019-10-28T09:39:55.000Z</time>
      </trkpt>
      <trkpt lat="48.60981" lon="2.13468">
        <ele>94</ele>
        <time>2019-10-28T09:39:56.000Z</time>
      </trkpt>
      <trkpt lat="48.60982" lon="2.1347">
        <ele>94</ele>
        <time>2019-10-28T09:39:57.000Z</time>
      </trkpt>
      <trkpt lat="48.60983" lon="2.13472">
        <ele>94</ele>
        <time>2019-10-28T09:39:58.000Z</time>
      </trkpt>
      <trkpt lat="48.60983" lon="2.13474">
        <ele>94</ele>
        <time>2019-10-28T09:39:59.000Z</time>
      </trkpt>
      <trkpt lat="48.60984" lon="2.13476">
        <ele>94</ele>
        <time>2019-10-28T09:40:00.000Z</time>
      </trkpt>
      <trkpt lat="48.60984" lon="2.13478">
        <ele>94</ele>
        <time>2019-10-28T09:40:01.000Z</time>
      </trkpt>
      <trkpt lat="48.60985" lon="2.1348">
        <ele>94</ele>
        <time>2019-10-28T09:40:02.000Z</time>
      </trkpt>
      <trkpt lat="48.60986" lon="2.13482">
        <ele>94</ele>
        <time>2019-10-28T09:40:03.000Z</time>
      </trkpt>
      <trkpt lat="48.60986" lon="2.13484">
        <ele>94</ele>
        <time>2019-10-28T09:40:04.000Z</time>
      </trkpt>
      <trkpt lat="48.60987" lon="2.13485">
        <ele>94</ele>
        <time>2019-10-28T09:40:05.000Z</time>
      </trkpt>
      <trkpt lat="48.60988" lon="2.13487">
        <ele>94</ele>
        <time>2019-10-28T09:40:06.000Z</time>
      </trkpt>
      <trkpt lat="48.60989" lon="2.13489">
        <ele>94</ele>
        <time>2019-10-28T09:40:07.000Z</time>
      </trkpt>
      <trkpt lat="48.60989" lon="2.13491">
        <ele>94</ele>
        <time>2019-10-28T09:40:08.000Z</time>
      </trkpt>
      <trkpt lat="48.6099" lon="2.13493">
        <ele>93</ele>
        <time>2019-10-28T09:40:09.000Z</time>
      </trkpt>
      <trkpt lat="48.60991" lon="2.13495">
        <ele>93</ele>
        <time>2019-10-28T09:40:10.000Z</time>
      </trkpt>
      <trkpt lat="48.60991" lon="2.13497">
        <ele>93</ele>
        <time>2019-10-28T09:40:11.000Z</time>
      </trkpt>
      <trkpt lat="48.60992" lon="2.13499">
        <ele>93</ele>
        <time>2019-10-28T09:40:12.000Z</time>
      </trkpt>
      <trkpt lat="48.60993" lon="2.13501">
        <ele>93</ele>
        <time>2019-10-28T09:40:13.000Z</time>
      </trkpt>
      <trkpt lat="48.60993" lon="2.13503">
        <ele>93</ele>
        <time>2019-10-28T09:40:14.000Z</time>
      </trkpt>
      <trkpt lat="48.60994" lon="2.13505">
        <ele>93</ele>
        <time>2019-10-28T09:40:15.000Z</time>
      </trkpt>
      <trkpt lat="48.60995" lon="2.13507">
        <ele>93</ele>
        <time>2019-10-28T09:40:16.000Z</time>
      </trkpt>
      <trkpt lat="48.60995" lon="2.13508">
        <ele>93</ele>
        <time>2019-10-28T09:40:17.000Z</time>
      </trkpt>
      <trkpt lat="48.60996" lon="2.1351">
        <ele>93</ele>
        <time>2019-10-28T09:40:18.000Z</time>
      </trkpt>
      <trkpt lat="48.60997" lon="2.13512">
        <ele>93</ele>
        <time>2019-10-28T09:40:19.000Z</time>
      </trkpt>
      <trkpt lat="48.60998" lon="2.13514">
        <ele>93</ele>
        <time>2019-10-28T09:40:20.000Z</time>
      </trkpt>
      <trkpt lat="48.60999" lon="2.13515">
        <ele>93</ele>
        <time>2019-10-28T09:40:21.000Z</time>
      </trkpt>
      <trkpt lat="48.60999" lon="2.13517">
        <ele>93</ele>
        <time>2019-10-28T09:40:22.000Z</time>
      </trkpt>
      <trkpt lat="48.61" lon="2.13519">
        <ele>93</ele>
        <time>2019-10-28T09:40:23.000Z</time>
      </trkpt>
      <trkpt lat="48.61001" lon="2.13521">
        <ele>93</ele>
        <time>2019-10-28T09:40:24.000Z</time>
      </trkpt>
      <trkpt lat="48.61001" lon="2.13523">
        <ele>93</ele>
        <time>2019-10-28T09:40:25.000Z</time>
      </trkpt>
      <trkpt lat="48.61002" lon="2.13524">
        <ele>93</ele>
        <time>2019-10-28T09:40:26.000Z</time>
      </trkpt>
      <trkpt lat="48.61003" lon="2.13526">
        <ele>93</ele>
        <time>2019-10-28T09:40:27.000Z</time>
      </trkpt>
      <trkpt lat="48.61004" lon="2.13528">
        <ele>93</ele>
        <time>2019-10-28T09:40:28.000Z</time>
      </trkpt>
      <trkpt lat="48.61005" lon="2.1353">
        <ele>93</ele>
        <time>2019-10-28T09:40:29.000Z</time>
      </trkpt>
      <trkpt lat="48.61006" lon="2.13532">
        <ele>93</ele>
        <time>2019-10-28T09:40:30.000Z</time>
      </trkpt>
      <trkpt lat="48.61006" lon="2.13533">
        <ele>93</ele>
        <time>2019-10-28T09:40:31.000Z</time>
      </trkpt>
      <trkpt lat="48.61007" lon="2.13535">
        <ele>93</ele>
        <time>2019-10-28T09:40:32.000Z</time>
      </trkpt>
      <trkpt lat="48.61008" lon="2.13537">
        <ele>93</ele>
        <time>2019-10-28T09:40:33.000Z</time>
      </trkpt>
      <trkpt lat="48.61009" lon="2.13538">
        <ele>93</ele>
        <time>2019-10-28T09:40:34.000Z</time>
      </trkpt>
      <trkpt lat="48.6101" lon="2.1354">
        <ele>93</ele>
        <time>2019-10-28T09:40:35.000Z</time>
      </trkpt>
      <trkpt lat="48.6101" lon="2.13542">
        <ele>93</ele>
        <time>2019-10-28T09:40:36.000Z</time>
      </trkpt>
      <trkpt lat="48.61011" lon="2.13544">
        <ele>93</ele>
        <time>2019-10-28T09:40:37.000Z</time>
      </trkpt>
      <trkpt lat="48.61012" lon="2.13546">
        <ele>93</ele>
        <time>2019-10-28T09:40:38.000Z</time>
      </trkpt>
      <trkpt lat="48.61013" lon="2.13547">
        <ele>93</ele>
        <time>2019-10-28T09:40:39.000Z</time>
      </trkpt>
      <trkpt lat="48.61013" lon="2.13548">
        <ele>93</ele>
        <time>2019-10-28T09:40:40.000Z</time>
      </trkpt>
      <trkpt lat="48.61014" lon="2.1355">
        <ele>93</ele>
        <time>2019-10-28T09:40:41.000Z</time>
      </trkpt>
      <trkpt lat="48.61015" lon="2.13551">
        <ele>94</ele>
        <time>2019-10-28T09:40:42.000Z</time>
      </trkpt>
      <trkpt lat="48.61016" lon="2.13553">
        <ele>94</ele>
        <time>2019-10-28T09:40:43.000Z</time>
      </trkpt>
      <trkpt lat="48.61017" lon="2.13554">
        <ele>94</ele>
        <time>2019-10-28T09:40:44.000Z</time>
      </trkpt>
      <trkpt lat="48.61018" lon="2.13556">
        <ele>93</ele>
        <time>2019-10-28T09:40:45.000Z</time>
      </trkpt>
      <trkpt lat="48.61018" lon="2.13558">
        <ele>93</ele>
        <time>2019-10-28T09:40:46.000Z</time>
      </trkpt>
      <trkpt lat="48.61019" lon="2.1356">
        <ele>93</ele>
        <time>2019-10-28T09:40:47.000Z</time>
      </trkpt>
      <trkpt lat="48.6102" lon="2.13562">
        <ele>93</ele>
        <time>2019-10-28T09:40:48.000Z</time>
      </trkpt>
      <trkpt lat="48.61021" lon="2.13563">
        <ele>93</ele>
        <time>2019-10-28T09:40:49.000Z</time>
      </trkpt>
      <trkpt lat="48.61022" lon="2.13565">
        <ele>93</ele>
        <time>2019-10-28T09:40:50.000Z</time>
      </trkpt>
      <trkpt lat="48.61023" lon="2.13567">
        <ele>93</ele>
        <time>2019-10-28T09:40:51.000Z</time>
      </trkpt>
      <trkpt lat="48.61023" lon="2.13569">
        <ele>93</ele>
        <time>2019-10-28T09:40:52.000Z</time>
      </trkpt>
      <trkpt lat="48.61024" lon="2.1357">
        <ele>93</ele>
        <time>2019-10-28T09:40:53.000Z</time>
      </trkpt>
      <trkpt lat="48.61025" lon="2.13572">
        <ele>93</ele>
        <time>2019-10-28T09:40:54.000Z</time>
      </trkpt>
      <trkpt lat="48.61026" lon="2.13574">
        <ele>93</ele>
        <time>2019-10-28T09:40:55.000Z</time>
      </trkpt>
      <trkpt lat="48.61027" lon="2.13576">
        <ele>93</ele>
        <time>2019-10-28T09:40:56.000Z</time>
      </trkpt>
      <trkpt lat="48.61027" lon="2.13578">
        <ele>93</ele>
        <time>2019-10-28T09:40:57.000Z</time>
      </trkpt>
      <trkpt lat="48.61028" lon="2.13579">
        <ele>92</ele>
        <time>2019-10-28T09:40:58.000Z</time>
      </trkpt>
      <trkpt lat="48.61029" lon="2.13581">
        <ele>92</ele>
        <time>2019-10-28T09:40:59.000Z</time>
      </trkpt>
      <trkpt lat="48.6103" lon="2.13583">
        <ele>92</ele>
        <time>2019-10-28T09:41:00.000Z</time>
      </trkpt>
      <trkpt lat="48.61031" lon="2.13585">
        <ele>92</ele>
        <time>2019-10-28T09:41:01.000Z</time>
      </trkpt>
      <trkpt lat="48.61032" lon="2.13587">
        <ele>92</ele>
        <time>2019-10-28T09:41:02.000Z</time>
      </trkpt>
      <trkpt lat="48.61033" lon="2.13588">
        <ele>93</ele>
        <time>2019-10-28T09:41:03.000Z</time>
      </trkpt>
      <trkpt lat="48.61034" lon="2.1359">
        <ele>93</ele>
        <time>2019-10-28T09:41:04.000Z</time>
      </trkpt>
      <trkpt lat="48.61034" lon="2.13592">
        <ele>93</ele>
        <time>2019-10-28T09:41:05.000Z</time>
      </trkpt>
      <trkpt lat="48.61035" lon="2.13594">
        <ele>92</ele>
        <time>2019-10-28T09:41:06.000Z</time>
      </trkpt>
      <trkpt lat="48.61036" lon="2.13595">
        <ele>92</ele>
        <time>2019-10-28T09:41:07.000Z</time>
      </trkpt>
      <trkpt lat="48.61037" lon="2.13597">
        <ele>92</ele>
        <time>2019-10-28T09:41:08.000Z</time>
      </trkpt>
      <trkpt lat="48.61038" lon="2.13598">
        <ele>92</ele>
        <time>2019-10-28T09:41:09.000Z</time>
      </trkpt>
      <trkpt lat="48.61039" lon="2.136">
        <ele>92</ele>
        <time>2019-10-28T09:41:10.000Z</time>
      </trkpt>
      <trkpt lat="48.6104" lon="2.13602">
        <ele>92</ele>
        <time>2019-10-28T09:41:11.000Z</time>
      </trkpt>
      <trkpt lat="48.61041" lon="2.13603">
        <ele>92</ele>
        <time>2019-10-28T09:41:12.000Z</time>
      </trkpt>
      <trkpt lat="48.61042" lon="2.13605">
        <ele>92</ele>
        <time>2019-10-28T09:41:13.000Z</time>
      </trkpt>
      <trkpt lat="48.61042" lon="2.13606">
        <ele>92</ele>
        <time>2019-10-28T09:41:14.000Z</time>
      </trkpt>
      <trkpt lat="48.61043" lon="2.13608">
        <ele>92</ele>
        <time>2019-10-28T09:41:15.000Z</time>
      </trkpt>
      <trkpt lat="48.61044" lon="2.13609">
        <ele>93</ele>
        <time>2019-10-28T09:41:16.000Z</time>
      </trkpt>
      <trkpt lat="48.61045" lon="2.13611">
        <ele>93</ele>
        <time>2019-10-28T09:41:17.000Z</time>
      </trkpt>
      <trkpt lat="48.61046" lon="2.13612">
        <ele>93</ele>
        <time>2019-10-28T09:41:18.000Z</time>
      </trkpt>
      <trkpt lat="48.61047" lon="2.13613">
        <ele>93</ele>
        <time>2019-10-28T09:41:19.000Z</time>
      </trkpt>
      <trkpt lat="48.61048" lon="2.13615">
        <ele>93</ele>
        <time>2019-10-28T09:41:20.000Z</time>
      </trkpt>
      <trkpt lat="48.61049" lon="2.13616">
        <ele>93</ele>
        <time>2019-10-28T09:41:21.000Z</time>
      </trkpt>
      <trkpt lat="48.6105" lon="2.13618">
        <ele>93</ele>
        <time>2019-10-28T09:41:22.000Z</time>
      </trkpt>
      <trkpt lat="48.61051" lon="2.1362">
        <ele>93</ele>
        <time>2019-10-28T09:41:23.000Z</time>
      </trkpt>
      <trkpt lat="48.61051" lon="2.13621">
        <ele>93</ele>
        <time>2019-10-28T09:41:24.000Z</time>
      </trkpt>
      <trkpt lat="48.61052" lon="2.13623">
        <ele>93</ele>
        <time>2019-10-28T09:41:25.000Z</time>
      </trkpt>
      <trkpt lat="48.61053" lon="2.13624">
        <ele>93</ele>
        <time>2019-10-28T09:41:26.000Z</time>
      </trkpt>
      <trkpt lat="48.61054" lon="2.13625">
        <ele>93</ele>
        <time>2019-10-28T09:41:27.000Z</time>
      </trkpt>
      <trkpt lat="48.61055" lon="2.13626">
        <ele>93</ele>
        <time>2019-10-28T09:41:28.000Z</time>
      </trkpt>
      <trkpt lat="48.61056" lon="2.13628">
        <ele>93</ele>
        <time>2019-10-28T09:41:29.000Z</time>
      </trkpt>
      <trkpt lat="48.61057" lon="2.13628">
        <ele>93</ele>
        <time>2019-10-28T09:41:30.000Z</time>
      </trkpt>
      <trkpt lat="48.61059" lon="2.13629">
        <ele>93</ele>
        <time>2019-10-28T09:41:31.000Z</time>
      </trkpt>
      <trkpt lat="48.6106" lon="2.1363">
        <ele>93</ele>
        <time>2019-10-28T09:41:32.000Z</time>
      </trkpt>
      <trkpt lat="48.61061" lon="2.1363">
        <ele>93</ele>
        <time>2019-10-28T09:41:33.000Z</time>
      </trkpt>
      <trkpt lat="48.61063" lon="2.1363">
        <ele>93</ele>
        <time>2019-10-28T09:41:34.000Z</time>
      </trkpt>
      <trkpt lat="48.61064" lon="2.1363">
        <ele>94</ele>
        <time>2019-10-28T09:41:35.000Z</time>
      </trkpt>
      <trkpt lat="48.61066" lon="2.1363">
        <ele>94</ele>
        <time>2019-10-28T09:41:36.000Z</time>
      </trkpt>
      <trkpt lat="48.61067" lon="2.13629">
        <ele>94</ele>
        <time>2019-10-28T09:41:37.000Z</time>
      </trkpt>
      <trkpt lat="48.61068" lon="2.13628">
        <ele>94</ele>
        <time>2019-10-28T09:41:38.000Z</time>
      </trkpt>
      <trkpt lat="48.6107" lon="2.13627">
        <ele>94</ele>
        <time>2019-10-28T09:41:39.000Z</time>
      </trkpt>
      <trkpt lat="48.61071" lon="2.13626">
        <ele>94</ele>
        <time>2019-10-28T09:41:40.000Z</time>
      </trkpt>
      <trkpt lat="48.61072" lon="2.13625">
        <ele>94</ele>
        <time>2019-10-28T09:41:41.000Z</time>
      </trkpt>
      <trkpt lat="48.61073" lon="2.13624">
        <ele>94</ele>
        <time>2019-10-28T09:41:42.000Z</time>
      </trkpt>
      <trkpt lat="48.61074" lon="2.13623">
        <ele>94</ele>
        <time>2019-10-28T09:41:43.000Z</time>
      </trkpt>
      <trkpt lat="48.61076" lon="2.13623">
        <ele>94</ele>
        <time>2019-10-28T09:41:44.000Z</time>
      </trkpt>
      <trkpt lat="48.61077" lon="2.13622">
        <ele>94</ele>
        <time>2019-10-28T09:41:45.000Z</time>
      </trkpt>
      <trkpt lat="48.61078" lon="2.13621">
        <ele>94</ele>
        <time>2019-10-28T09:41:46.000Z</time>
      </trkpt>
      <trkpt lat="48.6108" lon="2.1362">
        <ele>94</ele>
        <time>2019-10-28T09:41:47.000Z</time>
      </trkpt>
      <trkpt lat="48.61081" lon="2.13619">
        <ele>94</ele>
        <time>2019-10-28T09:41:48.000Z</time>
      </trkpt>
      <trkpt lat="48.61082" lon="2.13618">
        <ele>94</ele>
        <time>2019-10-28T09:41:49.000Z</time>
      </trkpt>
      <trkpt lat="48.61084" lon="2.13617">
        <ele>94</ele>
        <time>2019-10-28T09:41:50.000Z</time>
      </trkpt>
      <trkpt lat="48.61085" lon="2.13616">
        <ele>94</ele>
        <time>2019-10-28T09:41:51.000Z</time>
      </trkpt>
      <trkpt lat="48.61086" lon="2.13615">
        <ele>94</ele>
        <time>2019-10-28T09:41:52.000Z</time>
      </trkpt>
      <trkpt lat="48.61088" lon="2.13615">
        <ele>94</ele>
        <time>2019-10-28T09:41:53.000Z</time>
      </trkpt>
      <trkpt lat="48.61089" lon="2.13614">
        <ele>94</ele>
        <time>2019-10-28T09:41:54.000Z</time>
      </trkpt>
      <trkpt lat="48.6109" lon="2.13613">
        <ele>94</ele>
        <time>2019-10-28T09:41:55.000Z</time>
      </trkpt>
      <trkpt lat="48.61092" lon="2.13612">
        <ele>94</ele>
        <time>2019-10-28T09:41:56.000Z</time>
      </trkpt>
      <trkpt lat="48.61093" lon="2.13611">
        <ele>94</ele>
        <time>2019-10-28T09:41:57.000Z</time>
      </trkpt>
      <trkpt lat="48.61094" lon="2.1361">
        <ele>94</ele>
        <time>2019-10-28T09:41:58.000Z</time>
      </trkpt>
      <trkpt lat="48.61096" lon="2.13609">
        <ele>94</ele>
        <time>2019-10-28T09:41:59.000Z</time>
      </trkpt>
      <trkpt lat="48.61097" lon="2.13608">
        <ele>94</ele>
        <time>2019-10-28T09:42:00.000Z</time>
      </trkpt>
      <trkpt lat="48.61098" lon="2.13607">
        <ele>94</ele>
        <time>2019-10-28T09:42:01.000Z</time>
      </trkpt>
      <trkpt lat="48.61099" lon="2.13606">
        <ele>94</ele>
        <time>2019-10-28T09:42:02.000Z</time>
      </trkpt>
      <trkpt lat="48.611" lon="2.13605">
        <ele>94</ele>
        <time>2019-10-28T09:42:03.000Z</time>
      </trkpt>
      <trkpt lat="48.61102" lon="2.13605">
        <ele>94</ele>
        <time>2019-10-28T09:42:04.000Z</time>
      </trkpt>
      <trkpt lat="48.61103" lon="2.13604">
        <ele>94</ele>
        <time>2019-10-28T09:42:05.000Z</time>
      </trkpt>
      <trkpt lat="48.61105" lon="2.13604">
        <ele>94</ele>
        <time>2019-10-28T09:42:06.000Z</time>
      </trkpt>
      <trkpt lat="48.61106" lon="2.13603">
        <ele>94</ele>
        <time>2019-10-28T09:42:07.000Z</time>
      </trkpt>
      <trkpt lat="48.61107" lon="2.13603">
        <ele>93</ele>
        <time>2019-10-28T09:42:08.000Z</time>
      </trkpt>
      <trkpt lat="48.61109" lon="2.13602">
        <ele>93</ele>
        <time>2019-10-28T09:42:09.000Z</time>
      </trkpt>
      <trkpt lat="48.6111" lon="2.13601">
        <ele>93</ele>
        <time>2019-10-28T09:42:10.000Z</time>
      </trkpt>
      <trkpt lat="48.61111" lon="2.136">
        <ele>94</ele>
        <time>2019-10-28T09:42:11.000Z</time>
      </trkpt>
      <trkpt lat="48.61112" lon="2.136">
        <ele>94</ele>
        <time>2019-10-28T09:42:12.000Z</time>
      </trkpt>
      <trkpt lat="48.61114" lon="2.13599">
        <ele>94</ele>
        <time>2019-10-28T09:42:13.000Z</time>
      </trkpt>
      <trkpt lat="48.61115" lon="2.13598">
        <ele>94</ele>
        <time>2019-10-28T09:42:14.000Z</time>
      </trkpt>
      <trkpt lat="48.61116" lon="2.13597">
        <ele>94</ele>
        <time>2019-10-28T09:42:15.000Z</time>
      </trkpt>
      <trkpt lat="48.61118" lon="2.13596">
        <ele>94</ele>
        <time>2019-10-28T09:42:16.000Z</time>
      </trkpt>
      <trkpt lat="48.61119" lon="2.13596">
        <ele>94</ele>
        <time>2019-10-28T09:42:17.000Z</time>
      </trkpt>
      <trkpt lat="48.6112" lon="2.13595">
        <ele>94</ele>
        <time>2019-10-28T09:42:18.000Z</time>
      </trkpt>
      <trkpt lat="48.61122" lon="2.13594">
        <ele>94</ele>
        <time>2019-10-28T09:42:19.000Z</time>
      </trkpt>
      <trkpt lat="48.61123" lon="2.13594">
        <ele>94</ele>
        <time>2019-10-28T09:42:20.000Z</time>
      </trkpt>
      <trkpt lat="48.61125" lon="2.13593">
        <ele>94</ele>
        <time>2019-10-28T09:42:21.000Z</time>
      </trkpt>
      <trkpt lat="48.61126" lon="2.13592">
        <ele>94</ele>
        <time>2019-10-28T09:42:22.000Z</time>
      </trkpt>
      <trkpt lat="48.61127" lon="2.13592">
        <ele>94</ele>
        <time>2019-10-28T09:42:23.000Z</time>
      </trkpt>
      <trkpt lat="48.61129" lon="2.13591">
        <ele>94</ele>
        <time>2019-10-28T09:42:24.000Z</time>
      </trkpt>
      <trkpt lat="48.6113" lon="2.1359">
        <ele>94</ele>
        <time>2019-10-28T09:42:25.000Z</time>
      </trkpt>
      <trkpt lat="48.61132" lon="2.1359">
        <ele>94</ele>
        <time>2019-10-28T09:42:26.000Z</time>
      </trkpt>
      <trkpt lat="48.61133" lon="2.1359">
        <ele>94</ele>
        <time>2019-10-28T09:42:27.000Z</time>
      </trkpt>
      <trkpt lat="48.61134" lon="2.1359">
        <ele>94</ele>
        <time>2019-10-28T09:42:28.000Z</time>
      </trkpt>
      <trkpt lat="48.61135" lon="2.13589">
        <ele>94</ele>
        <time>2019-10-28T09:42:29.000Z</time>
      </trkpt>
      <trkpt lat="48.61136" lon="2.13589">
        <ele>94</ele>
        <time>2019-10-28T09:42:30.000Z</time>
      </trkpt>
      <trkpt lat="48.61137" lon="2.13588">
        <ele>95</ele>
        <time>2019-10-28T09:42:31.000Z</time>
      </trkpt>
      <trkpt lat="48.61138" lon="2.13587">
        <ele>95</ele>
        <time>2019-10-28T09:42:32.000Z</time>
      </trkpt>
      <trkpt lat="48.6114" lon="2.13586">
        <ele>94</ele>
        <time>2019-10-28T09:42:33.000Z</time>
      </trkpt>
      <trkpt lat="48.61141" lon="2.13585">
        <ele>94</ele>
        <time>2019-10-28T09:42:34.000Z</time>
      </trkpt>
      <trkpt lat="48.61142" lon="2.13584">
        <ele>94</ele>
        <time>2019-10-28T09:42:35.000Z</time>
      </trkpt>
      <trkpt lat="48.61144" lon="2.13583">
        <ele>94</ele>
        <time>2019-10-28T09:42:36.000Z</time>
      </trkpt>
      <trkpt lat="48.61145" lon="2.13582">
        <ele>94</ele>
        <time>2019-10-28T09:42:37.000Z</time>
      </trkpt>
      <trkpt lat="48.61146" lon="2.13582">
        <ele>94</ele>
        <time>2019-10-28T09:42:38.000Z</time>
      </trkpt>
      <trkpt lat="48.61147" lon="2.13581">
        <ele>94</ele>
        <time>2019-10-28T09:42:39.000Z</time>
      </trkpt>
      <trkpt lat="48.61149" lon="2.1358">
        <ele>94</ele>
        <time>2019-10-28T09:42:40.000Z</time>
      </trkpt>
      <trkpt lat="48.6115" lon="2.1358">
        <ele>94</ele>
        <time>2019-10-28T09:42:41.000Z</time>
      </trkpt>
      <trkpt lat="48.61151" lon="2.13579">
        <ele>94</ele>
        <time>2019-10-28T09:42:42.000Z</time>
      </trkpt>
      <trkpt lat="48.61152" lon="2.13578">
        <ele>94</ele>
        <time>2019-10-28T09:42:43.000Z</time>
      </trkpt>
      <trkpt lat="48.61153" lon="2.13577">
        <ele>95</ele>
        <time>2019-10-28T09:42:44.000Z</time>
      </trkpt>
      <trkpt lat="48.61155" lon="2.13576">
        <ele>95</ele>
        <time>2019-10-28T09:42:45.000Z</time>
      </trkpt>
      <trkpt lat="48.61156" lon="2.13576">
        <ele>95</ele>
        <time>2019-10-28T09:42:46.000Z</time>
      </trkpt>
      <trkpt lat="48.61157" lon="2.13575">
        <ele>95</ele>
        <time>2019-10-28T09:42:47.000Z</time>
      </trkpt>
      <trkpt lat="48.61159" lon="2.13574">
        <ele>95</ele>
        <time>2019-10-28T09:42:48.000Z</time>
      </trkpt>
      <trkpt lat="48.6116" lon="2.13574">
        <ele>95</ele>
        <time>2019-10-28T09:42:49.000Z</time>
      </trkpt>
      <trkpt lat="48.61161" lon="2.13573">
        <ele>95</ele>
        <time>2019-10-28T09:42:50.000Z</time>
      </trkpt>
      <trkpt lat="48.61162" lon="2.13572">
        <ele>95</ele>
        <time>2019-10-28T09:42:51.000Z</time>
      </trkpt>
      <trkpt lat="48.61164" lon="2.13571">
        <ele>95</ele>
        <time>2019-10-28T09:42:52.000Z</time>
      </trkpt>
      <trkpt lat="48.61165" lon="2.13571">
        <ele>95</ele>
        <time>2019-10-28T09:42:53.000Z</time>
      </trkpt>
      <trkpt lat="48.61166" lon="2.1357">
        <ele>95</ele>
        <time>2019-10-28T09:42:54.000Z</time>
      </trkpt>
      <trkpt lat="48.61168" lon="2.13569">
        <ele>95</ele>
        <time>2019-10-28T09:42:55.000Z</time>
      </trkpt>
      <trkpt lat="48.61169" lon="2.13568">
        <ele>95</ele>
        <time>2019-10-28T09:42:56.000Z</time>
      </trkpt>
      <trkpt lat="48.6117" lon="2.13568">
        <ele>95</ele>
        <time>2019-10-28T09:42:57.000Z</time>
      </trkpt>
      <trkpt lat="48.61171" lon="2.13567">
        <ele>95</ele>
        <time>2019-10-28T09:42:58.000Z</time>
      </trkpt>
      <trkpt lat="48.61173" lon="2.13566">
        <ele>95</ele>
        <time>2019-10-28T09:42:59.000Z</time>
      </trkpt>
      <trkpt lat="48.61174" lon="2.13566">
        <ele>95</ele>
        <time>2019-10-28T09:43:00.000Z</time>
      </trkpt>
      <trkpt lat="48.61176" lon="2.13566">
        <ele>95</ele>
        <time>2019-10-28T09:43:01.000Z</time>
      </trkpt>
      <trkpt lat="48.61177" lon="2.13565">
        <ele>95</ele>
        <time>2019-10-28T09:43:02.000Z</time>
      </trkpt>
      <trkpt lat="48.61178" lon="2.13565">
        <ele>95</ele>
        <time>2019-10-28T09:43:03.000Z</time>
      </trkpt>
      <trkpt lat="48.61179" lon="2.13564">
        <ele>96</ele>
        <time>2019-10-28T09:43:04.000Z</time>
      </trkpt>
      <trkpt lat="48.61181" lon="2.13563">
        <ele>96</ele>
        <time>2019-10-28T09:43:05.000Z</time>
      </trkpt>
      <trkpt lat="48.61183" lon="2.13562">
        <ele>96</ele>
        <time>2019-10-28T09:43:06.000Z</time>
      </trkpt>
      <trkpt lat="48.61184" lon="2.13561">
        <ele>95</ele>
        <time>2019-10-28T09:43:07.000Z</time>
      </trkpt>
      <trkpt lat="48.61185" lon="2.1356">
        <ele>96</ele>
        <time>2019-10-28T09:43:08.000Z</time>
      </trkpt>
      <trkpt lat="48.61187" lon="2.13559">
        <ele>96</ele>
        <time>2019-10-28T09:43:09.000Z</time>
      </trkpt>
      <trkpt lat="48.61188" lon="2.13558">
        <ele>96</ele>
        <time>2019-10-28T09:43:10.000Z</time>
      </trkpt>
      <trkpt lat="48.61189" lon="2.13557">
        <ele>96</ele>
        <time>2019-10-28T09:43:11.000Z</time>
      </trkpt>
      <trkpt lat="48.6119" lon="2.13557">
        <ele>96</ele>
        <time>2019-10-28T09:43:12.000Z</time>
      </trkpt>
      <trkpt lat="48.61192" lon="2.13556">
        <ele>96</ele>
        <time>2019-10-28T09:43:13.000Z</time>
      </trkpt>
      <trkpt lat="48.61193" lon="2.13555">
        <ele>96</ele>
        <time>2019-10-28T09:43:14.000Z</time>
      </trkpt>
      <trkpt lat="48.61194" lon="2.13554">
        <ele>96</ele>
        <time>2019-10-28T09:43:15.000Z</time>
      </trkpt>
      <trkpt lat="48.61196" lon="2.13553">
        <ele>96</ele>
        <time>2019-10-28T09:43:16.000Z</time>
      </trkpt>
      <trkpt lat="48.61197" lon="2.13552">
        <ele>96</ele>
        <time>2019-10-28T09:43:17.000Z</time>
      </trkpt>
      <trkpt lat="48.61198" lon="2.13552">
        <ele>96</ele>
        <time>2019-10-28T09:43:18.000Z</time>
      </trkpt>
      <trkpt lat="48.612" lon="2.13551">
        <ele>96</ele>
        <time>2019-10-28T09:43:19.000Z</time>
      </trkpt>
      <trkpt lat="48.61201" lon="2.1355">
        <ele>96</ele>
        <time>2019-10-28T09:43:20.000Z</time>
      </trkpt>
      <trkpt lat="48.61202" lon="2.1355">
        <ele>96</ele>
        <time>2019-10-28T09:43:21.000Z</time>
      </trkpt>
      <trkpt lat="48.61204" lon="2.1355">
        <ele>96</ele>
        <time>2019-10-28T09:43:22.000Z</time>
      </trkpt>
      <trkpt lat="48.61205" lon="2.13549">
        <ele>96</ele>
        <time>2019-10-28T09:43:23.000Z</time>
      </trkpt>
      <trkpt lat="48.61207" lon="2.13548">
        <ele>96</ele>
        <time>2019-10-28T09:43:24.000Z</time>
      </trkpt>
      <trkpt lat="48.61208" lon="2.13547">
        <ele>96</ele>
        <time>2019-10-28T09:43:25.000Z</time>
      </trkpt>
      <trkpt lat="48.61209" lon="2.13546">
        <ele>96</ele>
        <time>2019-10-28T09:43:26.000Z</time>
      </trkpt>
      <trkpt lat="48.61211" lon="2.13546">
        <ele>96</ele>
        <time>2019-10-28T09:43:27.000Z</time>
      </trkpt>
      <trkpt lat="48.61212" lon="2.13545">
        <ele>97</ele>
        <time>2019-10-28T09:43:28.000Z</time>
      </trkpt>
      <trkpt lat="48.61214" lon="2.13544">
        <ele>96</ele>
        <time>2019-10-28T09:43:29.000Z</time>
      </trkpt>
      <trkpt lat="48.61215" lon="2.13543">
        <ele>97</ele>
        <time>2019-10-28T09:43:30.000Z</time>
      </trkpt>
      <trkpt lat="48.61216" lon="2.13542">
        <ele>96</ele>
        <time>2019-10-28T09:43:31.000Z</time>
      </trkpt>
      <trkpt lat="48.61218" lon="2.13541">
        <ele>96</ele>
        <time>2019-10-28T09:43:32.000Z</time>
      </trkpt>
      <trkpt lat="48.61219" lon="2.1354">
        <ele>96</ele>
        <time>2019-10-28T09:43:33.000Z</time>
      </trkpt>
      <trkpt lat="48.6122" lon="2.13539">
        <ele>96</ele>
        <time>2019-10-28T09:43:34.000Z</time>
      </trkpt>
      <trkpt lat="48.61222" lon="2.13538">
        <ele>97</ele>
        <time>2019-10-28T09:43:35.000Z</time>
      </trkpt>
      <trkpt lat="48.61223" lon="2.13538">
        <ele>97</ele>
        <time>2019-10-28T09:43:36.000Z</time>
      </trkpt>
      <trkpt lat="48.61224" lon="2.13537">
        <ele>96</ele>
        <time>2019-10-28T09:43:37.000Z</time>
      </trkpt>
      <trkpt lat="48.61226" lon="2.13536">
        <ele>96</ele>
        <time>2019-10-28T09:43:38.000Z</time>
      </trkpt>
      <trkpt lat="48.61227" lon="2.13535">
        <ele>97</ele>
        <time>2019-10-28T09:43:39.000Z</time>
      </trkpt>
      <trkpt lat="48.61228" lon="2.13534">
        <ele>96</ele>
        <time>2019-10-28T09:43:40.000Z</time>
      </trkpt>
      <trkpt lat="48.61229" lon="2.13533">
        <ele>96</ele>
        <time>2019-10-28T09:43:41.000Z</time>
      </trkpt>
      <trkpt lat="48.61231" lon="2.13532">
        <ele>96</ele>
        <time>2019-10-28T09:43:42.000Z</time>
      </trkpt>
      <trkpt lat="48.61232" lon="2.13531">
        <ele>96</ele>
        <time>2019-10-28T09:43:43.000Z</time>
      </trkpt>
      <trkpt lat="48.61233" lon="2.1353">
        <ele>96</ele>
        <time>2019-10-28T09:43:44.000Z</time>
      </trkpt>
      <trkpt lat="48.61235" lon="2.13529">
        <ele>96</ele>
        <time>2019-10-28T09:43:45.000Z</time>
      </trkpt>
      <trkpt lat="48.61236" lon="2.13529">
        <ele>96</ele>
        <time>2019-10-28T09:43:46.000Z</time>
      </trkpt>
      <trkpt lat="48.61237" lon="2.13528">
        <ele>96</ele>
        <time>2019-10-28T09:43:47.000Z</time>
      </trkpt>
      <trkpt lat="48.61239" lon="2.13527">
        <ele>97</ele>
        <time>2019-10-28T09:43:48.000Z</time>
      </trkpt>
      <trkpt lat="48.6124" lon="2.13526">
        <ele>97</ele>
        <time>2019-10-28T09:43:49.000Z</time>
      </trkpt>
      <trkpt lat="48.61241" lon="2.13526">
        <ele>97</ele>
        <time>2019-10-28T09:43:50.000Z</time>
      </trkpt>
      <trkpt lat="48.61243" lon="2.13525">
        <ele>97</ele>
        <time>2019-10-28T09:43:51.000Z</time>
      </trkpt>
      <trkpt lat="48.61244" lon="2.13524">
        <ele>97</ele>
        <time>2019-10-28T09:43:52.000Z</time>
      </trkpt>
      <trkpt lat="48.61245" lon="2.13524">
        <ele>97</ele>
        <time>2019-10-28T09:43:53.000Z</time>
      </trkpt>
      <trkpt lat="48.61247" lon="2.13523">
        <ele>97</ele>
        <time>2019-10-28T09:43:54.000Z</time>
      </trkpt>
      <trkpt lat="48.61248" lon="2.13522">
        <ele>97</ele>
        <time>2019-10-28T09:43:55.000Z</time>
      </trkpt>
      <trkpt lat="48.61249" lon="2.13521">
        <ele>97</ele>
        <time>2019-10-28T09:43:56.000Z</time>
      </trkpt>
      <trkpt lat="48.61251" lon="2.13521">
        <ele>97</ele>
        <time>2019-10-28T09:43:57.000Z</time>
      </trkpt>
      <trkpt lat="48.61252" lon="2.1352">
        <ele>97</ele>
        <time>2019-10-28T09:43:58.000Z</time>
      </trkpt>
      <trkpt lat="48.61253" lon="2.13519">
        <ele>97</ele>
        <time>2019-10-28T09:43:59.000Z</time>
      </trkpt>
      <trkpt lat="48.61255" lon="2.13519">
        <ele>97</ele>
        <time>2019-10-28T09:44:00.000Z</time>
      </trkpt>
      <trkpt lat="48.61256" lon="2.13518">
        <ele>97</ele>
        <time>2019-10-28T09:44:01.000Z</time>
      </trkpt>
      <trkpt lat="48.61257" lon="2.13517">
        <ele>97</ele>
        <time>2019-10-28T09:44:02.000Z</time>
      </trkpt>
      <trkpt lat="48.61259" lon="2.13516">
        <ele>97</ele>
        <time>2019-10-28T09:44:03.000Z</time>
      </trkpt>
      <trkpt lat="48.6126" lon="2.13515">
        <ele>97</ele>
        <time>2019-10-28T09:44:04.000Z</time>
      </trkpt>
      <trkpt lat="48.61262" lon="2.13515">
        <ele>97</ele>
        <time>2019-10-28T09:44:05.000Z</time>
      </trkpt>
      <trkpt lat="48.61263" lon="2.13514">
        <ele>97</ele>
        <time>2019-10-28T09:44:06.000Z</time>
      </trkpt>
      <trkpt lat="48.61264" lon="2.13513">
        <ele>97</ele>
        <time>2019-10-28T09:44:07.000Z</time>
      </trkpt>
      <trkpt lat="48.61266" lon="2.13512">
        <ele>97</ele>
        <time>2019-10-28T09:44:08.000Z</time>
      </trkpt>
      <trkpt lat="48.61267" lon="2.13512">
        <ele>97</ele>
        <time>2019-10-28T09:44:09.000Z</time>
      </trkpt>
      <trkpt lat="48.61268" lon="2.13511">
        <ele>97</ele>
        <time>2019-10-28T09:44:10.000Z</time>
      </trkpt>
      <trkpt lat="48.6127" lon="2.1351">
        <ele>97</ele>
        <time>2019-10-28T09:44:11.000Z</time>
      </trkpt>
      <trkpt lat="48.61271" lon="2.1351">
        <ele>97</ele>
        <time>2019-10-28T09:44:12.000Z</time>
      </trkpt>
      <trkpt lat="48.61273" lon="2.13509">
        <ele>97</ele>
        <time>2019-10-28T09:44:13.000Z</time>
      </trkpt>
      <trkpt lat="48.61274" lon="2.13508">
        <ele>97</ele>
        <time>2019-10-28T09:44:14.000Z</time>
      </trkpt>
      <trkpt lat="48.61275" lon="2.13507">
        <ele>97</ele>
        <time>2019-10-28T09:44:15.000Z</time>
      </trkpt>
      <trkpt lat="48.61277" lon="2.13506">
        <ele>97</ele>
        <time>2019-10-28T09:44:16.000Z</time>
      </trkpt>
      <trkpt lat="48.61278" lon="2.13506">
        <ele>97</ele>
        <time>2019-10-28T09:44:17.000Z</time>
      </trkpt>
      <trkpt lat="48.6128" lon="2.13505">
        <ele>98</ele>
        <time>2019-10-28T09:44:18.000Z</time>
      </trkpt>
      <trkpt lat="48.61281" lon="2.13504">
        <ele>97</ele>
        <time>2019-10-28T09:44:19.000Z</time>
      </trkpt>
      <trkpt lat="48.61282" lon="2.13504">
        <ele>98</ele>
        <time>2019-10-28T09:44:20.000Z</time>
      </trkpt>
      <trkpt lat="48.61284" lon="2.13503">
        <ele>98</ele>
        <time>2019-10-28T09:44:21.000Z</time>
      </trkpt>
      <trkpt lat="48.61285" lon="2.13502">
        <ele>98</ele>
        <time>2019-10-28T09:44:22.000Z</time>
      </trkpt>
      <trkpt lat="48.61286" lon="2.13501">
        <ele>98</ele>
        <time>2019-10-28T09:44:23.000Z</time>
      </trkpt>
      <trkpt lat="48.61288" lon="2.135">
        <ele>98</ele>
        <time>2019-10-28T09:44:24.000Z</time>
      </trkpt>
      <trkpt lat="48.61289" lon="2.13499">
        <ele>98</ele>
        <time>2019-10-28T09:44:25.000Z</time>
      </trkpt>
      <trkpt lat="48.6129" lon="2.13498">
        <ele>98</ele>
        <time>2019-10-28T09:44:26.000Z</time>
      </trkpt>
      <trkpt lat="48.61292" lon="2.13498">
        <ele>98</ele>
        <time>2019-10-28T09:44:27.000Z</time>
      </trkpt>
      <trkpt lat="48.61293" lon="2.13497">
        <ele>98</ele>
        <time>2019-10-28T09:44:28.000Z</time>
      </trkpt>
      <trkpt lat="48.61294" lon="2.13496">
        <ele>98</ele>
        <time>2019-10-28T09:44:29.000Z</time>
      </trkpt>
      <trkpt lat="48.61296" lon="2.13495">
        <ele>98</ele>
        <time>2019-10-28T09:44:30.000Z</time>
      </trkpt>
      <trkpt lat="48.61297" lon="2.13495">
        <ele>98</ele>
        <time>2019-10-28T09:44:31.000Z</time>
      </trkpt>
      <trkpt lat="48.61298" lon="2.13494">
        <ele>98</ele>
        <time>2019-10-28T09:44:32.000Z</time>
      </trkpt>
      <trkpt lat="48.613" lon="2.13493">
        <ele>97</ele>
        <time>2019-10-28T09:44:33.000Z</time>
      </trkpt>
      <trkpt lat="48.61301" lon="2.13492">
        <ele>98</ele>
        <time>2019-10-28T09:44:34.000Z</time>
      </trkpt>
      <trkpt lat="48.61302" lon="2.13491">
        <ele>98</ele>
        <time>2019-10-28T09:44:35.000Z</time>
      </trkpt>
      <trkpt lat="48.61304" lon="2.13491">
        <ele>98</ele>
        <time>2019-10-28T09:44:36.000Z</time>
      </trkpt>
      <trkpt lat="48.61305" lon="2.1349">
        <ele>98</ele>
        <time>2019-10-28T09:44:37.000Z</time>
      </trkpt>
      <trkpt lat="48.61306" lon="2.13489">
        <ele>98</ele>
        <time>2019-10-28T09:44:38.000Z</time>
      </trkpt>
      <trkpt lat="48.61308" lon="2.13489">
        <ele>98</ele>
        <time>2019-10-28T09:44:39.000Z</time>
      </trkpt>
      <trkpt lat="48.61309" lon="2.13488">
        <ele>98</ele>
        <time>2019-10-28T09:44:40.000Z</time>
      </trkpt>
      <trkpt lat="48.6131" lon="2.13487">
        <ele>98</ele>
        <time>2019-10-28T09:44:41.000Z</time>
      </trkpt>
      <trkpt lat="48.61312" lon="2.13486">
        <ele>98</ele>
        <time>2019-10-28T09:44:42.000Z</time>
      </trkpt>
      <trkpt lat="48.61313" lon="2.13486">
        <ele>98</ele>
        <time>2019-10-28T09:44:43.000Z</time>
      </trkpt>
      <trkpt lat="48.61314" lon="2.13485">
        <ele>98</ele>
        <time>2019-10-28T09:44:44.000Z</time>
      </trkpt>
      <trkpt lat="48.61316" lon="2.13484">
        <ele>98</ele>
        <time>2019-10-28T09:44:45.000Z</time>
      </trkpt>
      <trkpt lat="48.61317" lon="2.13484">
        <ele>98</ele>
        <time>2019-10-28T09:44:46.000Z</time>
      </trkpt>
      <trkpt lat="48.61318" lon="2.13483">
        <ele>98</ele>
        <time>2019-10-28T09:44:47.000Z</time>
      </trkpt>
      <trkpt lat="48.6132" lon="2.13482">
        <ele>98</ele>
        <time>2019-10-28T09:44:48.000Z</time>
      </trkpt>
      <trkpt lat="48.61321" lon="2.13481">
        <ele>98</ele>
        <time>2019-10-28T09:44:49.000Z</time>
      </trkpt>
      <trkpt lat="48.61322" lon="2.13481">
        <ele>98</ele>
        <time>2019-10-28T09:44:50.000Z</time>
      </trkpt>
      <trkpt lat="48.61323" lon="2.1348">
        <ele>98</ele>
        <time>2019-10-28T09:44:51.000Z</time>
      </trkpt>
      <trkpt lat="48.61325" lon="2.13479">
        <ele>98</ele>
        <time>2019-10-28T09:44:52.000Z</time>
      </trkpt>
      <trkpt lat="48.61326" lon="2.13478">
        <ele>98</ele>
        <time>2019-10-28T09:44:53.000Z</time>
      </trkpt>
      <trkpt lat="48.61327" lon="2.13477">
        <ele>98</ele>
        <time>2019-10-28T09:44:54.000Z</time>
      </trkpt>
      <trkpt lat="48.61329" lon="2.13476">
        <ele>98</ele>
        <time>2019-10-28T09:44:55.000Z</time>
      </trkpt>
      <trkpt lat="48.6133" lon="2.13476">
        <ele>98</ele>
        <time>2019-10-28T09:44:56.000Z</time>
      </trkpt>
      <trkpt lat="48.61331" lon="2.13475">
        <ele>98</ele>
        <time>2019-10-28T09:44:57.000Z</time>
      </trkpt>
      <trkpt lat="48.61332" lon="2.13474">
        <ele>98</ele>
        <time>2019-10-28T09:44:58.000Z</time>
      </trkpt>
      <trkpt lat="48.61334" lon="2.13473">
        <ele>98</ele>
        <time>2019-10-28T09:44:59.000Z</time>
      </trkpt>
      <trkpt lat="48.61335" lon="2.13472">
        <ele>98</ele>
        <time>2019-10-28T09:45:00.000Z</time>
      </trkpt>
      <trkpt lat="48.61336" lon="2.13471">
        <ele>98</ele>
        <time>2019-10-28T09:45:01.000Z</time>
      </trkpt>
      <trkpt lat="48.61338" lon="2.1347">
        <ele>98</ele>
        <time>2019-10-28T09:45:02.000Z</time>
      </trkpt>
      <trkpt lat="48.61339" lon="2.13469">
        <ele>99</ele>
        <time>2019-10-28T09:45:03.000Z</time>
      </trkpt>
      <trkpt lat="48.6134" lon="2.13468">
        <ele>99</ele>
        <time>2019-10-28T09:45:04.000Z</time>
      </trkpt>
      <trkpt lat="48.61341" lon="2.13467">
        <ele>99</ele>
        <time>2019-10-28T09:45:05.000Z</time>
      </trkpt>
      <trkpt lat="48.61343" lon="2.13467">
        <ele>98</ele>
        <time>2019-10-28T09:45:06.000Z</time>
      </trkpt>
      <trkpt lat="48.61344" lon="2.13466">
        <ele>98</ele>
        <time>2019-10-28T09:45:07.000Z</time>
      </trkpt>
      <trkpt lat="48.61345" lon="2.13465">
        <ele>99</ele>
        <time>2019-10-28T09:45:08.000Z</time>
      </trkpt>
      <trkpt lat="48.61347" lon="2.13464">
        <ele>99</ele>
        <time>2019-10-28T09:45:09.000Z</time>
      </trkpt>
      <trkpt lat="48.61348" lon="2.13463">
        <ele>98</ele>
        <time>2019-10-28T09:45:10.000Z</time>
      </trkpt>
      <trkpt lat="48.61349" lon="2.13462">
        <ele>99</ele>
        <time>2019-10-28T09:45:11.000Z</time>
      </trkpt>
      <trkpt lat="48.61351" lon="2.13462">
        <ele>99</ele>
        <time>2019-10-28T09:45:12.000Z</time>
      </trkpt>
      <trkpt lat="48.61352" lon="2.13461">
        <ele>99</ele>
        <time>2019-10-28T09:45:13.000Z</time>
      </trkpt>
      <trkpt lat="48.61353" lon="2.1346">
        <ele>99</ele>
        <time>2019-10-28T09:45:14.000Z</time>
      </trkpt>
      <trkpt lat="48.61355" lon="2.13459">
        <ele>99</ele>
        <time>2019-10-28T09:45:15.000Z</time>
      </trkpt>
      <trkpt lat="48.61356" lon="2.13458">
        <ele>99</ele>
        <time>2019-10-28T09:45:16.000Z</time>
      </trkpt>
      <trkpt lat="48.61357" lon="2.13458">
        <ele>99</ele>
        <time>2019-10-28T09:45:17.000Z</time>
      </trkpt>
      <trkpt lat="48.61358" lon="2.13457">
        <ele>99</ele>
        <time>2019-10-28T09:45:18.000Z</time>
      </trkpt>
      <trkpt lat="48.6136" lon="2.13456">
        <ele>99</ele>
        <time>2019-10-28T09:45:19.000Z</time>
      </trkpt>
      <trkpt lat="48.61361" lon="2.13455">
        <ele>99</ele>
        <time>2019-10-28T09:45:20.000Z</time>
      </trkpt>
      <trkpt lat="48.61362" lon="2.13455">
        <ele>99</ele>
        <time>2019-10-28T09:45:21.000Z</time>
      </trkpt>
      <trkpt lat="48.61364" lon="2.13454">
        <ele>99</ele>
        <time>2019-10-28T09:45:22.000Z</time>
      </trkpt>
      <trkpt lat="48.61365" lon="2.13453">
        <ele>99</ele>
        <time>2019-10-28T09:45:23.000Z</time>
      </trkpt>
      <trkpt lat="48.61366" lon="2.13452">
        <ele>99</ele>
        <time>2019-10-28T09:45:24.000Z</time>
      </trkpt>
      <trkpt lat="48.61368" lon="2.13451">
        <ele>99</ele>
        <time>2019-10-28T09:45:25.000Z</time>
      </trkpt>
      <trkpt lat="48.61369" lon="2.13451">
        <ele>99</ele>
        <time>2019-10-28T09:45:26.000Z</time>
      </trkpt>
      <trkpt lat="48.6137" lon="2.1345">
        <ele>99</ele>
        <time>2019-10-28T09:45:27.000Z</time>
      </trkpt>
      <trkpt lat="48.61371" lon="2.13449">
        <ele>99</ele>
        <time>2019-10-28T09:45:28.000Z</time>
      </trkpt>
      <trkpt lat="48.61373" lon="2.13448">
        <ele>99</ele>
        <time>2019-10-28T09:45:29.000Z</time>
      </trkpt>
      <trkpt lat="48.61374" lon="2.13447">
        <ele>99</ele>
        <time>2019-10-28T09:45:30.000Z</time>
      </trkpt>
      <trkpt lat="48.61376" lon="2.13446">
        <ele>99</ele>
        <time>2019-10-28T09:45:31.000Z</time>
      </trkpt>
      <trkpt lat="48.61377" lon="2.13446">
        <ele>99</ele>
        <time>2019-10-28T09:45:32.000Z</time>
      </trkpt>
      <trkpt lat="48.61378" lon="2.13445">
        <ele>99</ele>
        <time>2019-10-28T09:45:33.000Z</time>
      </trkpt>
      <trkpt lat="48.6138" lon="2.13444">
        <ele>99</ele>
        <time>2019-10-28T09:45:34.000Z</time>
      </trkpt>
      <trkpt lat="48.61381" lon="2.13443">
        <ele>99</ele>
        <time>2019-10-28T09:45:35.000Z</time>
      </trkpt>
      <trkpt lat="48.61382" lon="2.13442">
        <ele>99</ele>
        <time>2019-10-28T09:45:36.000Z</time>
      </trkpt>
      <trkpt lat="48.61383" lon="2.13442">
        <ele>99</ele>
        <time>2019-10-28T09:45:37.000Z</time>
      </trkpt>
      <trkpt lat="48.61385" lon="2.13441">
        <ele>99</ele>
        <time>2019-10-28T09:45:38.000Z</time>
      </trkpt>
      <trkpt lat="48.61386" lon="2.1344">
        <ele>99</ele>
        <time>2019-10-28T09:45:39.000Z</time>
      </trkpt>
      <trkpt lat="48.61387" lon="2.13439">
        <ele>99</ele>
        <time>2019-10-28T09:45:40.000Z</time>
      </trkpt>
      <trkpt lat="48.61389" lon="2.13439">
        <ele>99</ele>
        <time>2019-10-28T09:45:41.000Z</time>
      </trkpt>
      <trkpt lat="48.6139" lon="2.13438">
        <ele>99</ele>
        <time>2019-10-28T09:45:42.000Z</time>
      </trkpt>
      <trkpt lat="48.61391" lon="2.13437">
        <ele>99</ele>
        <time>2019-10-28T09:45:43.000Z</time>
      </trkpt>
      <trkpt lat="48.61393" lon="2.13436">
        <ele>98</ele>
        <time>2019-10-28T09:45:44.000Z</time>
      </trkpt>
      <trkpt lat="48.61394" lon="2.13435">
        <ele>98</ele>
        <time>2019-10-28T09:45:45.000Z</time>
      </trkpt>
      <trkpt lat="48.61395" lon="2.13434">
        <ele>98</ele>
        <time>2019-10-28T09:45:46.000Z</time>
      </trkpt>
      <trkpt lat="48.61396" lon="2.13434">
        <ele>99</ele>
        <time>2019-10-28T09:45:47.000Z</time>
      </trkpt>
      <trkpt lat="48.61398" lon="2.13433">
        <ele>99</ele>
        <time>2019-10-28T09:45:48.000Z</time>
      </trkpt>
      <trkpt lat="48.61399" lon="2.13432">
        <ele>98</ele>
        <time>2019-10-28T09:45:49.000Z</time>
      </trkpt>
      <trkpt lat="48.61401" lon="2.13431">
        <ele>99</ele>
        <time>2019-10-28T09:45:50.000Z</time>
      </trkpt>
      <trkpt lat="48.61402" lon="2.13431">
        <ele>99</ele>
        <time>2019-10-28T09:45:51.000Z</time>
      </trkpt>
      <trkpt lat="48.61403" lon="2.1343">
        <ele>99</ele>
        <time>2019-10-28T09:45:52.000Z</time>
      </trkpt>
      <trkpt lat="48.61405" lon="2.13429">
        <ele>99</ele>
        <time>2019-10-28T09:45:53.000Z</time>
      </trkpt>
      <trkpt lat="48.61406" lon="2.13428">
        <ele>99</ele>
        <time>2019-10-28T09:45:54.000Z</time>
      </trkpt>
      <trkpt lat="48.61408" lon="2.13428">
        <ele>99</ele>
        <time>2019-10-28T09:45:55.000Z</time>
      </trkpt>
      <trkpt lat="48.61409" lon="2.13427">
        <ele>99</ele>
        <time>2019-10-28T09:45:56.000Z</time>
      </trkpt>
      <trkpt lat="48.6141" lon="2.13426">
        <ele>98</ele>
        <time>2019-10-28T09:45:57.000Z</time>
      </trkpt>
      <trkpt lat="48.61411" lon="2.13425">
        <ele>99</ele>
        <time>2019-10-28T09:45:58.000Z</time>
      </trkpt>
      <trkpt lat="48.61413" lon="2.13425">
        <ele>98</ele>
        <time>2019-10-28T09:45:59.000Z</time>
      </trkpt>
      <trkpt lat="48.61414" lon="2.13424">
        <ele>98</ele>
        <time>2019-10-28T09:46:00.000Z</time>
      </trkpt>
      <trkpt lat="48.61416" lon="2.13424">
        <ele>98</ele>
        <time>2019-10-28T09:46:01.000Z</time>
      </trkpt>
      <trkpt lat="48.61417" lon="2.13423">
        <ele>98</ele>
        <time>2019-10-28T09:46:02.000Z</time>
      </trkpt>
      <trkpt lat="48.61418" lon="2.13423">
        <ele>98</ele>
        <time>2019-10-28T09:46:03.000Z</time>
      </trkpt>
      <trkpt lat="48.61419" lon="2.13422">
        <ele>98</ele>
        <time>2019-10-28T09:46:04.000Z</time>
      </trkpt>
      <trkpt lat="48.61421" lon="2.13421">
        <ele>99</ele>
        <time>2019-10-28T09:46:05.000Z</time>
      </trkpt>
      <trkpt lat="48.61422" lon="2.1342">
        <ele>99</ele>
        <time>2019-10-28T09:46:06.000Z</time>
      </trkpt>
      <trkpt lat="48.61423" lon="2.13419">
        <ele>99</ele>
        <time>2019-10-28T09:46:07.000Z</time>
      </trkpt>
      <trkpt lat="48.61425" lon="2.13419">
        <ele>99</ele>
        <time>2019-10-28T09:46:08.000Z</time>
      </trkpt>
      <trkpt lat="48.61426" lon="2.13418">
        <ele>99</ele>
        <time>2019-10-28T09:46:09.000Z</time>
      </trkpt>
      <trkpt lat="48.61427" lon="2.13417">
        <ele>99</ele>
        <time>2019-10-28T09:46:10.000Z</time>
      </trkpt>
      <trkpt lat="48.61429" lon="2.13416">
        <ele>99</ele>
        <time>2019-10-28T09:46:11.000Z</time>
      </trkpt>
      <trkpt lat="48.6143" lon="2.13416">
        <ele>99</ele>
        <time>2019-10-28T09:46:12.000Z</time>
      </trkpt>
      <trkpt lat="48.61431" lon="2.13415">
        <ele>99</ele>
        <time>2019-10-28T09:46:13.000Z</time>
      </trkpt>
      <trkpt lat="48.61432" lon="2.13414">
        <ele>99</ele>
        <time>2019-10-28T09:46:14.000Z</time>
      </trkpt>
      <trkpt lat="48.61434" lon="2.13413">
        <ele>99</ele>
        <time>2019-10-28T09:46:15.000Z</time>
      </trkpt>
      <trkpt lat="48.61435" lon="2.13413">
        <ele>99</ele>
        <time>2019-10-28T09:46:16.000Z</time>
      </trkpt>
      <trkpt lat="48.61436" lon="2.13412">
        <ele>99</ele>
        <time>2019-10-28T09:46:17.000Z</time>
      </trkpt>
      <trkpt lat="48.61437" lon="2.13411">
        <ele>99</ele>
        <time>2019-10-28T09:46:18.000Z</time>
      </trkpt>
      <trkpt lat="48.61439" lon="2.1341">
        <ele>99</ele>
        <time>2019-10-28T09:46:19.000Z</time>
      </trkpt>
      <trkpt lat="48.6144" lon="2.13409">
        <ele>99</ele>
        <time>2019-10-28T09:46:20.000Z</time>
      </trkpt>
      <trkpt lat="48.61441" lon="2.13408">
        <ele>99</ele>
        <time>2019-10-28T09:46:21.000Z</time>
      </trkpt>
      <trkpt lat="48.61443" lon="2.13408">
        <ele>100</ele>
        <time>2019-10-28T09:46:22.000Z</time>
      </trkpt>
      <trkpt lat="48.61444" lon="2.13407">
        <ele>99</ele>
        <time>2019-10-28T09:46:23.000Z</time>
      </trkpt>
      <trkpt lat="48.61445" lon="2.13407">
        <ele>99</ele>
        <time>2019-10-28T09:46:24.000Z</time>
      </trkpt>
      <trkpt lat="48.61446" lon="2.13406">
        <ele>99</ele>
        <time>2019-10-28T09:46:25.000Z</time>
      </trkpt>
      <trkpt lat="48.61447" lon="2.13405">
        <ele>99</ele>
        <time>2019-10-28T09:46:26.000Z</time>
      </trkpt>
      <trkpt lat="48.61449" lon="2.13404">
        <ele>99</ele>
        <time>2019-10-28T09:46:27.000Z</time>
      </trkpt>
      <trkpt lat="48.6145" lon="2.13404">
        <ele>100</ele>
        <time>2019-10-28T09:46:28.000Z</time>
      </trkpt>
      <trkpt lat="48.61451" lon="2.13403">
        <ele>100</ele>
        <time>2019-10-28T09:46:29.000Z</time>
      </trkpt>
      <trkpt lat="48.61452" lon="2.13402">
        <ele>100</ele>
        <time>2019-10-28T09:46:30.000Z</time>
      </trkpt>
      <trkpt lat="48.61454" lon="2.13402">
        <ele>100</ele>
        <time>2019-10-28T09:46:31.000Z</time>
      </trkpt>
      <trkpt lat="48.61455" lon="2.13401">
        <ele>99</ele>
        <time>2019-10-28T09:46:32.000Z</time>
      </trkpt>
      <trkpt lat="48.61456" lon="2.134">
        <ele>100</ele>
        <time>2019-10-28T09:46:33.000Z</time>
      </trkpt>
      <trkpt lat="48.61458" lon="2.13399">
        <ele>100</ele>
        <time>2019-10-28T09:46:34.000Z</time>
      </trkpt>
      <trkpt lat="48.61459" lon="2.13399">
        <ele>100</ele>
        <time>2019-10-28T09:46:35.000Z</time>
      </trkpt>
      <trkpt lat="48.6146" lon="2.13398">
        <ele>100</ele>
        <time>2019-10-28T09:46:36.000Z</time>
      </trkpt>
      <trkpt lat="48.61462" lon="2.13397">
        <ele>100</ele>
        <time>2019-10-28T09:46:37.000Z</time>
      </trkpt>
      <trkpt lat="48.61463" lon="2.13396">
        <ele>100</ele>
        <time>2019-10-28T09:46:38.000Z</time>
      </trkpt>
      <trkpt lat="48.61464" lon="2.13396">
        <ele>100</ele>
        <time>2019-10-28T09:46:39.000Z</time>
      </trkpt>
      <trkpt lat="48.61466" lon="2.13395">
        <ele>100</ele>
        <time>2019-10-28T09:46:40.000Z</time>
      </trkpt>
      <trkpt lat="48.61467" lon="2.13394">
        <ele>100</ele>
        <time>2019-10-28T09:46:41.000Z</time>
      </trkpt>
      <trkpt lat="48.61468" lon="2.13393">
        <ele>100</ele>
        <time>2019-10-28T09:46:42.000Z</time>
      </trkpt>
      <trkpt lat="48.6147" lon="2.13393">
        <ele>100</ele>
        <time>2019-10-28T09:46:43.000Z</time>
      </trkpt>
      <trkpt lat="48.61471" lon="2.13392">
        <ele>100</ele>
        <time>2019-10-28T09:46:44.000Z</time>
      </trkpt>
      <trkpt lat="48.61472" lon="2.13391">
        <ele>100</ele>
        <time>2019-10-28T09:46:45.000Z</time>
      </trkpt>
      <trkpt lat="48.61473" lon="2.1339">
        <ele>100</ele>
        <time>2019-10-28T09:46:46.000Z</time>
      </trkpt>
      <trkpt lat="48.61475" lon="2.13389">
        <ele>100</ele>
        <time>2019-10-28T09:46:47.000Z</time>
      </trkpt>
      <trkpt lat="48.61476" lon="2.13389">
        <ele>100</ele>
        <time>2019-10-28T09:46:48.000Z</time>
      </trkpt>
      <trkpt lat="48.61477" lon="2.13388">
        <ele>100</ele>
        <time>2019-10-28T09:46:49.000Z</time>
      </trkpt>
      <trkpt lat="48.61478" lon="2.13387">
        <ele>100</ele>
        <time>2019-10-28T09:46:50.000Z</time>
      </trkpt>
      <trkpt lat="48.6148" lon="2.13386">
        <ele>100</ele>
        <time>2019-10-28T09:46:51.000Z</time>
      </trkpt>
      <trkpt lat="48.61481" lon="2.13385">
        <ele>100</ele>
        <time>2019-10-28T09:46:52.000Z</time>
      </trkpt>
      <trkpt lat="48.61482" lon="2.13385">
        <ele>100</ele>
        <time>2019-10-28T09:46:53.000Z</time>
      </trkpt>
      <trkpt lat="48.61483" lon="2.13384">
        <ele>100</ele>
        <time>2019-10-28T09:46:54.000Z</time>
      </trkpt>
      <trkpt lat="48.61485" lon="2.13383">
        <ele>100</ele>
        <time>2019-10-28T09:46:55.000Z</time>
      </trkpt>
      <trkpt lat="48.61486" lon="2.13383">
        <ele>100</ele>
        <time>2019-10-28T09:46:56.000Z</time>
      </trkpt>
      <trkpt lat="48.61488" lon="2.13382">
        <ele>101</ele>
        <time>2019-10-28T09:46:57.000Z</time>
      </trkpt>
      <trkpt lat="48.61489" lon="2.13381">
        <ele>101</ele>
        <time>2019-10-28T09:46:58.000Z</time>
      </trkpt>
      <trkpt lat="48.6149" lon="2.1338">
        <ele>101</ele>
        <time>2019-10-28T09:46:59.000Z</time>
      </trkpt>
      <trkpt lat="48.61491" lon="2.1338">
        <ele>100</ele>
        <time>2019-10-28T09:47:00.000Z</time>
      </trkpt>
      <trkpt lat="48.61493" lon="2.13379">
        <ele>101</ele>
        <time>2019-10-28T09:47:01.000Z</time>
      </trkpt>
      <trkpt lat="48.61494" lon="2.13378">
        <ele>100</ele>
        <time>2019-10-28T09:47:02.000Z</time>
      </trkpt>
      <trkpt lat="48.61495" lon="2.13377">
        <ele>101</ele>
        <time>2019-10-28T09:47:03.000Z</time>
      </trkpt>
      <trkpt lat="48.61497" lon="2.13376">
        <ele>101</ele>
        <time>2019-10-28T09:47:04.000Z</time>
      </trkpt>
      <trkpt lat="48.61498" lon="2.13375">
        <ele>101</ele>
        <time>2019-10-28T09:47:05.000Z</time>
      </trkpt>
      <trkpt lat="48.61499" lon="2.13375">
        <ele>101</ele>
        <time>2019-10-28T09:47:06.000Z</time>
      </trkpt>
      <trkpt lat="48.61501" lon="2.13374">
        <ele>101</ele>
        <time>2019-10-28T09:47:07.000Z</time>
      </trkpt>
      <trkpt lat="48.61502" lon="2.13374">
        <ele>101</ele>
        <time>2019-10-28T09:47:08.000Z</time>
      </trkpt>
      <trkpt lat="48.61503" lon="2.13373">
        <ele>101</ele>
        <time>2019-10-28T09:47:09.000Z</time>
      </trkpt>
      <trkpt lat="48.61504" lon="2.13373">
        <ele>101</ele>
        <time>2019-10-28T09:47:10.000Z</time>
      </trkpt>
      <trkpt lat="48.61506" lon="2.13372">
        <ele>101</ele>
        <time>2019-10-28T09:47:11.000Z</time>
      </trkpt>
      <trkpt lat="48.61507" lon="2.13371">
        <ele>101</ele>
        <time>2019-10-28T09:47:12.000Z</time>
      </trkpt>
      <trkpt lat="48.61508" lon="2.13371">
        <ele>101</ele>
        <time>2019-10-28T09:47:13.000Z</time>
      </trkpt>
      <trkpt lat="48.61509" lon="2.1337">
        <ele>101</ele>
        <time>2019-10-28T09:47:14.000Z</time>
      </trkpt>
      <trkpt lat="48.61511" lon="2.13369">
        <ele>101</ele>
        <time>2019-10-28T09:47:15.000Z</time>
      </trkpt>
      <trkpt lat="48.61512" lon="2.13368">
        <ele>101</ele>
        <time>2019-10-28T09:47:16.000Z</time>
      </trkpt>
      <trkpt lat="48.61513" lon="2.13368">
        <ele>101</ele>
        <time>2019-10-28T09:47:17.000Z</time>
      </trkpt>
      <trkpt lat="48.61515" lon="2.13367">
        <ele>101</ele>
        <time>2019-10-28T09:47:18.000Z</time>
      </trkpt>
      <trkpt lat="48.61516" lon="2.13366">
        <ele>101</ele>
        <time>2019-10-28T09:47:19.000Z</time>
      </trkpt>
      <trkpt lat="48.61518" lon="2.13366">
        <ele>101</ele>
        <time>2019-10-28T09:47:20.000Z</time>
      </trkpt>
      <trkpt lat="48.61519" lon="2.13365">
        <ele>101</ele>
        <time>2019-10-28T09:47:21.000Z</time>
      </trkpt>
      <trkpt lat="48.6152" lon="2.13364">
        <ele>101</ele>
        <time>2019-10-28T09:47:22.000Z</time>
      </trkpt>
      <trkpt lat="48.61521" lon="2.13363">
        <ele>101</ele>
        <time>2019-10-28T09:47:23.000Z</time>
      </trkpt>
      <trkpt lat="48.61523" lon="2.13363">
        <ele>101</ele>
        <time>2019-10-28T09:47:24.000Z</time>
      </trkpt>
      <trkpt lat="48.61524" lon="2.13362">
        <ele>101</ele>
        <time>2019-10-28T09:47:25.000Z</time>
      </trkpt>
      <trkpt lat="48.61525" lon="2.13361">
        <ele>101</ele>
        <time>2019-10-28T09:47:26.000Z</time>
      </trkpt>
      <trkpt lat="48.61527" lon="2.13361">
        <ele>101</ele>
        <time>2019-10-28T09:47:27.000Z</time>
      </trkpt>
      <trkpt lat="48.61528" lon="2.1336">
        <ele>101</ele>
        <time>2019-10-28T09:47:28.000Z</time>
      </trkpt>
      <trkpt lat="48.61529" lon="2.13359">
        <ele>101</ele>
        <time>2019-10-28T09:47:29.000Z</time>
      </trkpt>
      <trkpt lat="48.61531" lon="2.13358">
        <ele>101</ele>
        <time>2019-10-28T09:47:30.000Z</time>
      </trkpt>
      <trkpt lat="48.61532" lon="2.13358">
        <ele>101</ele>
        <time>2019-10-28T09:47:31.000Z</time>
      </trkpt>
      <trkpt lat="48.61533" lon="2.13357">
        <ele>102</ele>
        <time>2019-10-28T09:47:32.000Z</time>
      </trkpt>
      <trkpt lat="48.61534" lon="2.13356">
        <ele>102</ele>
        <time>2019-10-28T09:47:33.000Z</time>
      </trkpt>
      <trkpt lat="48.61536" lon="2.13355">
        <ele>102</ele>
        <time>2019-10-28T09:47:34.000Z</time>
      </trkpt>
      <trkpt lat="48.61537" lon="2.13354">
        <ele>102</ele>
        <time>2019-10-28T09:47:35.000Z</time>
      </trkpt>
      <trkpt lat="48.61538" lon="2.13353">
        <ele>102</ele>
        <time>2019-10-28T09:47:36.000Z</time>
      </trkpt>
      <trkpt lat="48.6154" lon="2.13353">
        <ele>102</ele>
        <time>2019-10-28T09:47:37.000Z</time>
      </trkpt>
      <trkpt lat="48.61541" lon="2.13352">
        <ele>102</ele>
        <time>2019-10-28T09:47:38.000Z</time>
      </trkpt>
      <trkpt lat="48.61542" lon="2.13352">
        <ele>102</ele>
        <time>2019-10-28T09:47:39.000Z</time>
      </trkpt>
      <trkpt lat="48.61543" lon="2.13351">
        <ele>102</ele>
        <time>2019-10-28T09:47:40.000Z</time>
      </trkpt>
      <trkpt lat="48.61545" lon="2.1335">
        <ele>102</ele>
        <time>2019-10-28T09:47:41.000Z</time>
      </trkpt>
      <trkpt lat="48.61546" lon="2.1335">
        <ele>102</ele>
        <time>2019-10-28T09:47:42.000Z</time>
      </trkpt>
      <trkpt lat="48.61548" lon="2.13349">
        <ele>102</ele>
        <time>2019-10-28T09:47:43.000Z</time>
      </trkpt>
      <trkpt lat="48.61549" lon="2.13348">
        <ele>102</ele>
        <time>2019-10-28T09:47:44.000Z</time>
      </trkpt>
      <trkpt lat="48.6155" lon="2.13348">
        <ele>102</ele>
        <time>2019-10-28T09:47:45.000Z</time>
      </trkpt>
      <trkpt lat="48.61552" lon="2.13347">
        <ele>102</ele>
        <time>2019-10-28T09:47:46.000Z</time>
      </trkpt>
      <trkpt lat="48.61553" lon="2.13346">
        <ele>102</ele>
        <time>2019-10-28T09:47:47.000Z</time>
      </trkpt>
      <trkpt lat="48.61554" lon="2.13345">
        <ele>102</ele>
        <time>2019-10-28T09:47:48.000Z</time>
      </trkpt>
      <trkpt lat="48.61555" lon="2.13344">
        <ele>102</ele>
        <time>2019-10-28T09:47:49.000Z</time>
      </trkpt>
      <trkpt lat="48.61557" lon="2.13343">
        <ele>102</ele>
        <time>2019-10-28T09:47:50.000Z</time>
      </trkpt>
      <trkpt lat="48.61558" lon="2.13343">
        <ele>102</ele>
        <time>2019-10-28T09:47:51.000Z</time>
      </trkpt>
      <trkpt lat="48.6156" lon="2.13342">
        <ele>102</ele>
        <time>2019-10-28T09:47:52.000Z</time>
      </trkpt>
      <trkpt lat="48.61561" lon="2.13342">
        <ele>102</ele>
        <time>2019-10-28T09:47:53.000Z</time>
      </trkpt>
      <trkpt lat="48.61562" lon="2.13341">
        <ele>102</ele>
        <time>2019-10-28T09:47:54.000Z</time>
      </trkpt>
      <trkpt lat="48.61564" lon="2.1334">
        <ele>102</ele>
        <time>2019-10-28T09:47:55.000Z</time>
      </trkpt>
      <trkpt lat="48.61565" lon="2.13339">
        <ele>103</ele>
        <time>2019-10-28T09:47:56.000Z</time>
      </trkpt>
      <trkpt lat="48.61566" lon="2.13339">
        <ele>102</ele>
        <time>2019-10-28T09:47:57.000Z</time>
      </trkpt>
      <trkpt lat="48.61567" lon="2.13338">
        <ele>102</ele>
        <time>2019-10-28T09:47:58.000Z</time>
      </trkpt>
      <trkpt lat="48.61569" lon="2.13337">
        <ele>102</ele>
        <time>2019-10-28T09:47:59.000Z</time>
      </trkpt>
      <trkpt lat="48.6157" lon="2.13336">
        <ele>102</ele>
        <time>2019-10-28T09:48:00.000Z</time>
      </trkpt>
      <trkpt lat="48.61571" lon="2.13335">
        <ele>102</ele>
        <time>2019-10-28T09:48:01.000Z</time>
      </trkpt>
      <trkpt lat="48.61572" lon="2.13335">
        <ele>102</ele>
        <time>2019-10-28T09:48:02.000Z</time>
      </trkpt>
      <trkpt lat="48.61574" lon="2.13334">
        <ele>102</ele>
        <time>2019-10-28T09:48:03.000Z</time>
      </trkpt>
      <trkpt lat="48.61575" lon="2.13333">
        <ele>102</ele>
        <time>2019-10-28T09:48:04.000Z</time>
      </trkpt>
      <trkpt lat="48.61576" lon="2.13332">
        <ele>102</ele>
        <time>2019-10-28T09:48:05.000Z</time>
      </trkpt>
      <trkpt lat="48.61578" lon="2.13331">
        <ele>102</ele>
        <time>2019-10-28T09:48:06.000Z</time>
      </trkpt>
      <trkpt lat="48.61579" lon="2.13331">
        <ele>102</ele>
        <time>2019-10-28T09:48:07.000Z</time>
      </trkpt>
      <trkpt lat="48.6158" lon="2.1333">
        <ele>102</ele>
        <time>2019-10-28T09:48:08.000Z</time>
      </trkpt>
      <trkpt lat="48.61581" lon="2.13329">
        <ele>102</ele>
        <time>2019-10-28T09:48:09.000Z</time>
      </trkpt>
      <trkpt lat="48.61583" lon="2.13328">
        <ele>102</ele>
        <time>2019-10-28T09:48:10.000Z</time>
      </trkpt>
      <trkpt lat="48.61584" lon="2.13327">
        <ele>102</ele>
        <time>2019-10-28T09:48:11.000Z</time>
      </trkpt>
      <trkpt lat="48.61585" lon="2.13326">
        <ele>102</ele>
        <time>2019-10-28T09:48:12.000Z</time>
      </trkpt>
      <trkpt lat="48.61586" lon="2.13325">
        <ele>102</ele>
        <time>2019-10-28T09:48:13.000Z</time>
      </trkpt>
      <trkpt lat="48.61588" lon="2.13324">
        <ele>102</ele>
        <time>2019-10-28T09:48:14.000Z</time>
      </trkpt>
      <trkpt lat="48.61589" lon="2.13323">
        <ele>102</ele>
        <time>2019-10-28T09:48:15.000Z</time>
      </trkpt>
      <trkpt lat="48.6159" lon="2.13322">
        <ele>102</ele>
        <time>2019-10-28T09:48:16.000Z</time>
      </trkpt>
      <trkpt lat="48.61591" lon="2.13321">
        <ele>102</ele>
        <time>2019-10-28T09:48:17.000Z</time>
      </trkpt>
      <trkpt lat="48.61593" lon="2.1332">
        <ele>102</ele>
        <time>2019-10-28T09:48:18.000Z</time>
      </trkpt>
      <trkpt lat="48.61594" lon="2.13319">
        <ele>102</ele>
        <time>2019-10-28T09:48:19.000Z</time>
      </trkpt>
      <trkpt lat="48.61595" lon="2.13318">
        <ele>102</ele>
        <time>2019-10-28T09:48:20.000Z</time>
      </trkpt>
      <trkpt lat="48.61596" lon="2.13318">
        <ele>102</ele>
        <time>2019-10-28T09:48:21.000Z</time>
      </trkpt>
      <trkpt lat="48.61597" lon="2.13317">
        <ele>102</ele>
        <time>2019-10-28T09:48:22.000Z</time>
      </trkpt>
      <trkpt lat="48.61599" lon="2.13316">
        <ele>102</ele>
        <time>2019-10-28T09:48:23.000Z</time>
      </trkpt>
      <trkpt lat="48.616" lon="2.13315">
        <ele>102</ele>
        <time>2019-10-28T09:48:24.000Z</time>
      </trkpt>
      <trkpt lat="48.61601" lon="2.13314">
        <ele>102</ele>
        <time>2019-10-28T09:48:25.000Z</time>
      </trkpt>
      <trkpt lat="48.61602" lon="2.13313">
        <ele>102</ele>
        <time>2019-10-28T09:48:26.000Z</time>
      </trkpt>
      <trkpt lat="48.61603" lon="2.13312">
        <ele>102</ele>
        <time>2019-10-28T09:48:27.000Z</time>
      </trkpt>
      <trkpt lat="48.61604" lon="2.13311">
        <ele>102</ele>
        <time>2019-10-28T09:48:28.000Z</time>
      </trkpt>
      <trkpt lat="48.61606" lon="2.13311">
        <ele>102</ele>
        <time>2019-10-28T09:48:29.000Z</time>
      </trkpt>
      <trkpt lat="48.61607" lon="2.1331">
        <ele>103</ele>
        <time>2019-10-28T09:48:30.000Z</time>
      </trkpt>
      <trkpt lat="48.61608" lon="2.13309">
        <ele>103</ele>
        <time>2019-10-28T09:48:31.000Z</time>
      </trkpt>
      <trkpt lat="48.6161" lon="2.13308">
        <ele>103</ele>
        <time>2019-10-28T09:48:32.000Z</time>
      </trkpt>
      <trkpt lat="48.61611" lon="2.13307">
        <ele>103</ele>
        <time>2019-10-28T09:48:33.000Z</time>
      </trkpt>
      <trkpt lat="48.61613" lon="2.13306">
        <ele>103</ele>
        <time>2019-10-28T09:48:34.000Z</time>
      </trkpt>
      <trkpt lat="48.61614" lon="2.13305">
        <ele>103</ele>
        <time>2019-10-28T09:48:35.000Z</time>
      </trkpt>
      <trkpt lat="48.61615" lon="2.13304">
        <ele>103</ele>
        <time>2019-10-28T09:48:36.000Z</time>
      </trkpt>
      <trkpt lat="48.61616" lon="2.13304">
        <ele>103</ele>
        <time>2019-10-28T09:48:37.000Z</time>
      </trkpt>
      <trkpt lat="48.61618" lon="2.13303">
        <ele>103</ele>
        <time>2019-10-28T09:48:38.000Z</time>
      </trkpt>
      <trkpt lat="48.61619" lon="2.13302">
        <ele>103</ele>
        <time>2019-10-28T09:48:39.000Z</time>
      </trkpt>
      <trkpt lat="48.6162" lon="2.13301">
        <ele>103</ele>
        <time>2019-10-28T09:48:40.000Z</time>
      </trkpt>
      <trkpt lat="48.61621" lon="2.133">
        <ele>103</ele>
        <time>2019-10-28T09:48:41.000Z</time>
      </trkpt>
      <trkpt lat="48.61623" lon="2.13299">
        <ele>103</ele>
        <time>2019-10-28T09:48:42.000Z</time>
      </trkpt>
      <trkpt lat="48.61624" lon="2.13298">
        <ele>103</ele>
        <time>2019-10-28T09:48:43.000Z</time>
      </trkpt>
      <trkpt lat="48.61625" lon="2.13297">
        <ele>103</ele>
        <time>2019-10-28T09:48:44.000Z</time>
      </trkpt>
      <trkpt lat="48.61626" lon="2.13297">
        <ele>103</ele>
        <time>2019-10-28T09:48:45.000Z</time>
      </trkpt>
      <trkpt lat="48.61628" lon="2.13296">
        <ele>103</ele>
        <time>2019-10-28T09:48:46.000Z</time>
      </trkpt>
      <trkpt lat="48.61629" lon="2.13295">
        <ele>103</ele>
        <time>2019-10-28T09:48:47.000Z</time>
      </trkpt>
      <trkpt lat="48.6163" lon="2.13294">
        <ele>103</ele>
        <time>2019-10-28T09:48:48.000Z</time>
      </trkpt>
      <trkpt lat="48.61631" lon="2.13293">
        <ele>103</ele>
        <time>2019-10-28T09:48:49.000Z</time>
      </trkpt>
      <trkpt lat="48.61632" lon="2.13292">
        <ele>103</ele>
        <time>2019-10-28T09:48:50.000Z</time>
      </trkpt>
      <trkpt lat="48.61634" lon="2.13292">
        <ele>103</ele>
        <time>2019-10-28T09:48:51.000Z</time>
      </trkpt>
      <trkpt lat="48.61635" lon="2.13291">
        <ele>104</ele>
        <time>2019-10-28T09:48:52.000Z</time>
      </trkpt>
      <trkpt lat="48.61636" lon="2.1329">
        <ele>104</ele>
        <time>2019-10-28T09:48:53.000Z</time>
      </trkpt>
      <trkpt lat="48.61637" lon="2.13289">
        <ele>104</ele>
        <time>2019-10-28T09:48:54.000Z</time>
      </trkpt>
      <trkpt lat="48.61639" lon="2.13289">
        <ele>104</ele>
        <time>2019-10-28T09:48:55.000Z</time>
      </trkpt>
      <trkpt lat="48.6164" lon="2.13288">
        <ele>104</ele>
        <time>2019-10-28T09:48:56.000Z</time>
      </trkpt>
      <trkpt lat="48.61641" lon="2.13287">
        <ele>105</ele>
        <time>2019-10-28T09:48:57.000Z</time>
      </trkpt>
      <trkpt lat="48.61643" lon="2.13287">
        <ele>104</ele>
        <time>2019-10-28T09:48:58.000Z</time>
      </trkpt>
      <trkpt lat="48.61644" lon="2.13286">
        <ele>104</ele>
        <time>2019-10-28T09:48:59.000Z</time>
      </trkpt>
      <trkpt lat="48.61645" lon="2.13285">
        <ele>104</ele>
        <time>2019-10-28T09:49:00.000Z</time>
      </trkpt>
      <trkpt lat="48.61647" lon="2.13285">
        <ele>104</ele>
        <time>2019-10-28T09:49:01.000Z</time>
      </trkpt>
      <trkpt lat="48.61648" lon="2.13284">
        <ele>104</ele>
        <time>2019-10-28T09:49:02.000Z</time>
      </trkpt>
      <trkpt lat="48.61649" lon="2.13283">
        <ele>104</ele>
        <time>2019-10-28T09:49:03.000Z</time>
      </trkpt>
      <trkpt lat="48.61651" lon="2.13282">
        <ele>105</ele>
        <time>2019-10-28T09:49:04.000Z</time>
      </trkpt>
      <trkpt lat="48.61652" lon="2.13282">
        <ele>104</ele>
        <time>2019-10-28T09:49:05.000Z</time>
      </trkpt>
      <trkpt lat="48.61653" lon="2.13281">
        <ele>104</ele>
        <time>2019-10-28T09:49:06.000Z</time>
      </trkpt>
      <trkpt lat="48.61654" lon="2.1328">
        <ele>104</ele>
        <time>2019-10-28T09:49:07.000Z</time>
      </trkpt>
      <trkpt lat="48.61656" lon="2.13279">
        <ele>104</ele>
        <time>2019-10-28T09:49:08.000Z</time>
      </trkpt>
      <trkpt lat="48.61657" lon="2.13278">
        <ele>104</ele>
        <time>2019-10-28T09:49:09.000Z</time>
      </trkpt>
      <trkpt lat="48.61658" lon="2.13278">
        <ele>104</ele>
        <time>2019-10-28T09:49:10.000Z</time>
      </trkpt>
      <trkpt lat="48.6166" lon="2.13277">
        <ele>104</ele>
        <time>2019-10-28T09:49:11.000Z</time>
      </trkpt>
      <trkpt lat="48.61661" lon="2.13277">
        <ele>104</ele>
        <time>2019-10-28T09:49:12.000Z</time>
      </trkpt>
      <trkpt lat="48.61662" lon="2.13276">
        <ele>104</ele>
        <time>2019-10-28T09:49:13.000Z</time>
      </trkpt>
      <trkpt lat="48.61663" lon="2.13276">
        <ele>104</ele>
        <time>2019-10-28T09:49:14.000Z</time>
      </trkpt>
      <trkpt lat="48.61665" lon="2.13276">
        <ele>104</ele>
        <time>2019-10-28T09:49:15.000Z</time>
      </trkpt>
      <trkpt lat="48.61666" lon="2.13275">
        <ele>105</ele>
        <time>2019-10-28T09:49:16.000Z</time>
      </trkpt>
      <trkpt lat="48.61667" lon="2.13275">
        <ele>105</ele>
        <time>2019-10-28T09:49:17.000Z</time>
      </trkpt>
      <trkpt lat="48.61668" lon="2.13274">
        <ele>105</ele>
        <time>2019-10-28T09:49:18.000Z</time>
      </trkpt>
      <trkpt lat="48.6167" lon="2.13274">
        <ele>105</ele>
        <time>2019-10-28T09:49:19.000Z</time>
      </trkpt>
      <trkpt lat="48.61671" lon="2.13273">
        <ele>105</ele>
        <time>2019-10-28T09:49:20.000Z</time>
      </trkpt>
      <trkpt lat="48.61672" lon="2.13273">
        <ele>105</ele>
        <time>2019-10-28T09:49:21.000Z</time>
      </trkpt>
      <trkpt lat="48.61673" lon="2.13272">
        <ele>105</ele>
        <time>2019-10-28T09:49:22.000Z</time>
      </trkpt>
      <trkpt lat="48.61675" lon="2.13271">
        <ele>105</ele>
        <time>2019-10-28T09:49:23.000Z</time>
      </trkpt>
      <trkpt lat="48.61676" lon="2.13271">
        <ele>105</ele>
        <time>2019-10-28T09:49:24.000Z</time>
      </trkpt>
      <trkpt lat="48.61677" lon="2.1327">
        <ele>105</ele>
        <time>2019-10-28T09:49:25.000Z</time>
      </trkpt>
      <trkpt lat="48.61678" lon="2.1327">
        <ele>106</ele>
        <time>2019-10-28T09:49:26.000Z</time>
      </trkpt>
      <trkpt lat="48.6168" lon="2.13269">
        <ele>106</ele>
        <time>2019-10-28T09:49:27.000Z</time>
      </trkpt>
      <trkpt lat="48.61681" lon="2.13268">
        <ele>106</ele>
        <time>2019-10-28T09:49:28.000Z</time>
      </trkpt>
      <trkpt lat="48.61682" lon="2.13268">
        <ele>105</ele>
        <time>2019-10-28T09:49:29.000Z</time>
      </trkpt>
      <trkpt lat="48.61684" lon="2.13268">
        <ele>105</ele>
        <time>2019-10-28T09:49:30.000Z</time>
      </trkpt>
      <trkpt lat="48.61685" lon="2.13267">
        <ele>105</ele>
        <time>2019-10-28T09:49:31.000Z</time>
      </trkpt>
      <trkpt lat="48.61687" lon="2.13267">
        <ele>105</ele>
        <time>2019-10-28T09:49:32.000Z</time>
      </trkpt>
      <trkpt lat="48.61688" lon="2.13267">
        <ele>105</ele>
        <time>2019-10-28T09:49:33.000Z</time>
      </trkpt>
      <trkpt lat="48.6169" lon="2.13266">
        <ele>105</ele>
        <time>2019-10-28T09:49:34.000Z</time>
      </trkpt>
      <trkpt lat="48.61691" lon="2.13266">
        <ele>105</ele>
        <time>2019-10-28T09:49:35.000Z</time>
      </trkpt>
      <trkpt lat="48.61692" lon="2.13266">
        <ele>105</ele>
        <time>2019-10-28T09:49:36.000Z</time>
      </trkpt>
      <trkpt lat="48.61694" lon="2.13265">
        <ele>105</ele>
        <time>2019-10-28T09:49:37.000Z</time>
      </trkpt>
      <trkpt lat="48.61695" lon="2.13264">
        <ele>104</ele>
        <time>2019-10-28T09:49:38.000Z</time>
      </trkpt>
      <trkpt lat="48.61696" lon="2.13264">
        <ele>105</ele>
        <time>2019-10-28T09:49:39.000Z</time>
      </trkpt>
      <trkpt lat="48.61698" lon="2.13263">
        <ele>105</ele>
        <time>2019-10-28T09:49:40.000Z</time>
      </trkpt>
      <trkpt lat="48.61699" lon="2.13262">
        <ele>105</ele>
        <time>2019-10-28T09:49:41.000Z</time>
      </trkpt>
      <trkpt lat="48.617" lon="2.13262">
        <ele>105</ele>
        <time>2019-10-28T09:49:42.000Z</time>
      </trkpt>
      <trkpt lat="48.61702" lon="2.13261">
        <ele>105</ele>
        <time>2019-10-28T09:49:43.000Z</time>
      </trkpt>
      <trkpt lat="48.61703" lon="2.13261">
        <ele>105</ele>
        <time>2019-10-28T09:49:44.000Z</time>
      </trkpt>
      <trkpt lat="48.61704" lon="2.13261">
        <ele>105</ele>
        <time>2019-10-28T09:49:45.000Z</time>
      </trkpt>
      <trkpt lat="48.61706" lon="2.1326">
        <ele>105</ele>
        <time>2019-10-28T09:49:46.000Z</time>
      </trkpt>
      <trkpt lat="48.61707" lon="2.1326">
        <ele>105</ele>
        <time>2019-10-28T09:49:47.000Z</time>
      </trkpt>
      <trkpt lat="48.61708" lon="2.13259">
        <ele>105</ele>
        <time>2019-10-28T09:49:48.000Z</time>
      </trkpt>
      <trkpt lat="48.61709" lon="2.13258">
        <ele>105</ele>
        <time>2019-10-28T09:49:49.000Z</time>
      </trkpt>
      <trkpt lat="48.61711" lon="2.13258">
        <ele>105</ele>
        <time>2019-10-28T09:49:50.000Z</time>
      </trkpt>
      <trkpt lat="48.61712" lon="2.13257">
        <ele>105</ele>
        <time>2019-10-28T09:49:51.000Z</time>
      </trkpt>
      <trkpt lat="48.61713" lon="2.13256">
        <ele>105</ele>
        <time>2019-10-28T09:49:52.000Z</time>
      </trkpt>
      <trkpt lat="48.61714" lon="2.13256">
        <ele>105</ele>
        <time>2019-10-28T09:49:53.000Z</time>
      </trkpt>
      <trkpt lat="48.61716" lon="2.13256">
        <ele>105</ele>
        <time>2019-10-28T09:49:54.000Z</time>
      </trkpt>
      <trkpt lat="48.61717" lon="2.13256">
        <ele>105</ele>
        <time>2019-10-28T09:49:55.000Z</time>
      </trkpt>
      <trkpt lat="48.61719" lon="2.13255">
        <ele>105</ele>
        <time>2019-10-28T09:49:56.000Z</time>
      </trkpt>
      <trkpt lat="48.6172" lon="2.13255">
        <ele>106</ele>
        <time>2019-10-28T09:49:57.000Z</time>
      </trkpt>
      <trkpt lat="48.61721" lon="2.13255">
        <ele>106</ele>
        <time>2019-10-28T09:49:58.000Z</time>
      </trkpt>
      <trkpt lat="48.61722" lon="2.13254">
        <ele>105</ele>
        <time>2019-10-28T09:49:59.000Z</time>
      </trkpt>
      <trkpt lat="48.61724" lon="2.13254">
        <ele>105</ele>
        <time>2019-10-28T09:50:00.000Z</time>
      </trkpt>
      <trkpt lat="48.61725" lon="2.13253">
        <ele>105</ele>
        <time>2019-10-28T09:50:01.000Z</time>
      </trkpt>
      <trkpt lat="48.61726" lon="2.13253">
        <ele>105</ele>
        <time>2019-10-28T09:50:02.000Z</time>
      </trkpt>
      <trkpt lat="48.61728" lon="2.13252">
        <ele>105</ele>
        <time>2019-10-28T09:50:03.000Z</time>
      </trkpt>
      <trkpt lat="48.61729" lon="2.13252">
        <ele>105</ele>
        <time>2019-10-28T09:50:04.000Z</time>
      </trkpt>
      <trkpt lat="48.61731" lon="2.13251">
        <ele>105</ele>
        <time>2019-10-28T09:50:05.000Z</time>
      </trkpt>
      <trkpt lat="48.61732" lon="2.13251">
        <ele>105</ele>
        <time>2019-10-28T09:50:06.000Z</time>
      </trkpt>
      <trkpt lat="48.61734" lon="2.13251">
        <ele>105</ele>
        <time>2019-10-28T09:50:07.000Z</time>
      </trkpt>
      <trkpt lat="48.61735" lon="2.1325">
        <ele>105</ele>
        <time>2019-10-28T09:50:08.000Z</time>
      </trkpt>
      <trkpt lat="48.61736" lon="2.1325">
        <ele>105</ele>
        <time>2019-10-28T09:50:09.000Z</time>
      </trkpt>
      <trkpt lat="48.61737" lon="2.13249">
        <ele>105</ele>
        <time>2019-10-28T09:50:10.000Z</time>
      </trkpt>
      <trkpt lat="48.61738" lon="2.13249">
        <ele>105</ele>
        <time>2019-10-28T09:50:11.000Z</time>
      </trkpt>
      <trkpt lat="48.6174" lon="2.13248">
        <ele>105</ele>
        <time>2019-10-28T09:50:12.000Z</time>
      </trkpt>
      <trkpt lat="48.61741" lon="2.13247">
        <ele>105</ele>
        <time>2019-10-28T09:50:13.000Z</time>
      </trkpt>
      <trkpt lat="48.61742" lon="2.13247">
        <ele>105</ele>
        <time>2019-10-28T09:50:14.000Z</time>
      </trkpt>
      <trkpt lat="48.61743" lon="2.13246">
        <ele>105</ele>
        <time>2019-10-28T09:50:15.000Z</time>
      </trkpt>
      <trkpt lat="48.61744" lon="2.13245">
        <ele>105</ele>
        <time>2019-10-28T09:50:16.000Z</time>
      </trkpt>
      <trkpt lat="48.61745" lon="2.13245">
        <ele>105</ele>
        <time>2019-10-28T09:50:17.000Z</time>
      </trkpt>
      <trkpt lat="48.61747" lon="2.13245">
        <ele>105</ele>
        <time>2019-10-28T09:50:18.000Z</time>
      </trkpt>
      <trkpt lat="48.61748" lon="2.13244">
        <ele>105</ele>
        <time>2019-10-28T09:50:19.000Z</time>
      </trkpt>
      <trkpt lat="48.61749" lon="2.13244">
        <ele>105</ele>
        <time>2019-10-28T09:50:20.000Z</time>
      </trkpt>
      <trkpt lat="48.61751" lon="2.13243">
        <ele>105</ele>
        <time>2019-10-28T09:50:21.000Z</time>
      </trkpt>
      <trkpt lat="48.61752" lon="2.13243">
        <ele>105</ele>
        <time>2019-10-28T09:50:22.000Z</time>
      </trkpt>
      <trkpt lat="48.61754" lon="2.13242">
        <ele>105</ele>
        <time>2019-10-28T09:50:23.000Z</time>
      </trkpt>
      <trkpt lat="48.61755" lon="2.13242">
        <ele>105</ele>
        <time>2019-10-28T09:50:24.000Z</time>
      </trkpt>
      <trkpt lat="48.61756" lon="2.13241">
        <ele>105</ele>
        <time>2019-10-28T09:50:25.000Z</time>
      </trkpt>
      <trkpt lat="48.61758" lon="2.13241">
        <ele>105</ele>
        <time>2019-10-28T09:50:26.000Z</time>
      </trkpt>
      <trkpt lat="48.61759" lon="2.1324">
        <ele>105</ele>
        <time>2019-10-28T09:50:27.000Z</time>
      </trkpt>
      <trkpt lat="48.6176" lon="2.1324">
        <ele>105</ele>
        <time>2019-10-28T09:50:28.000Z</time>
      </trkpt>
      <trkpt lat="48.61762" lon="2.13239">
        <ele>105</ele>
        <time>2019-10-28T09:50:29.000Z</time>
      </trkpt>
      <trkpt lat="48.61763" lon="2.13238">
        <ele>105</ele>
        <time>2019-10-28T09:50:30.000Z</time>
      </trkpt>
      <trkpt lat="48.61764" lon="2.13238">
        <ele>105</ele>
        <time>2019-10-28T09:50:31.000Z</time>
      </trkpt>
      <trkpt lat="48.61766" lon="2.13237">
        <ele>105</ele>
        <time>2019-10-28T09:50:32.000Z</time>
      </trkpt>
      <trkpt lat="48.61767" lon="2.13237">
        <ele>106</ele>
        <time>2019-10-28T09:50:33.000Z</time>
      </trkpt>
      <trkpt lat="48.61768" lon="2.13236">
        <ele>105</ele>
        <time>2019-10-28T09:50:34.000Z</time>
      </trkpt>
      <trkpt lat="48.61769" lon="2.13236">
        <ele>106</ele>
        <time>2019-10-28T09:50:35.000Z</time>
      </trkpt>
      <trkpt lat="48.61771" lon="2.13236">
        <ele>106</ele>
        <time>2019-10-28T09:50:36.000Z</time>
      </trkpt>
      <trkpt lat="48.61772" lon="2.13235">
        <ele>106</ele>
        <time>2019-10-28T09:50:37.000Z</time>
      </trkpt>
      <trkpt lat="48.61773" lon="2.13234">
        <ele>105</ele>
        <time>2019-10-28T09:50:38.000Z</time>
      </trkpt>
      <trkpt lat="48.61775" lon="2.13234">
        <ele>106</ele>
        <time>2019-10-28T09:50:39.000Z</time>
      </trkpt>
      <trkpt lat="48.61776" lon="2.13233">
        <ele>106</ele>
        <time>2019-10-28T09:50:40.000Z</time>
      </trkpt>
      <trkpt lat="48.61777" lon="2.13232">
        <ele>105</ele>
        <time>2019-10-28T09:50:41.000Z</time>
      </trkpt>
      <trkpt lat="48.61779" lon="2.13231">
        <ele>105</ele>
        <time>2019-10-28T09:50:42.000Z</time>
      </trkpt>
      <trkpt lat="48.6178" lon="2.13231">
        <ele>105</ele>
        <time>2019-10-28T09:50:43.000Z</time>
      </trkpt>
      <trkpt lat="48.61782" lon="2.13231">
        <ele>106</ele>
        <time>2019-10-28T09:50:44.000Z</time>
      </trkpt>
      <trkpt lat="48.61783" lon="2.13231">
        <ele>106</ele>
        <time>2019-10-28T09:50:45.000Z</time>
      </trkpt>
      <trkpt lat="48.61784" lon="2.13231">
        <ele>106</ele>
        <time>2019-10-28T09:50:46.000Z</time>
      </trkpt>
      <trkpt lat="48.61786" lon="2.1323">
        <ele>106</ele>
        <time>2019-10-28T09:50:47.000Z</time>
      </trkpt>
      <trkpt lat="48.61787" lon="2.1323">
        <ele>105</ele>
        <time>2019-10-28T09:50:48.000Z</time>
      </trkpt>
      <trkpt lat="48.61789" lon="2.13229">
        <ele>106</ele>
        <time>2019-10-28T09:50:49.000Z</time>
      </trkpt>
      <trkpt lat="48.6179" lon="2.13228">
        <ele>105</ele>
        <time>2019-10-28T09:50:50.000Z</time>
      </trkpt>
      <trkpt lat="48.61791" lon="2.13228">
        <ele>106</ele>
        <time>2019-10-28T09:50:51.000Z</time>
      </trkpt>
      <trkpt lat="48.61792" lon="2.13227">
        <ele>106</ele>
        <time>2019-10-28T09:50:52.000Z</time>
      </trkpt>
      <trkpt lat="48.61794" lon="2.13226">
        <ele>106</ele>
        <time>2019-10-28T09:50:53.000Z</time>
      </trkpt>
      <trkpt lat="48.61795" lon="2.13226">
        <ele>106</ele>
        <time>2019-10-28T09:50:54.000Z</time>
      </trkpt>
      <trkpt lat="48.61796" lon="2.13225">
        <ele>106</ele>
        <time>2019-10-28T09:50:55.000Z</time>
      </trkpt>
      <trkpt lat="48.61797" lon="2.13225">
        <ele>106</ele>
        <time>2019-10-28T09:50:56.000Z</time>
      </trkpt>
      <trkpt lat="48.61799" lon="2.13224">
        <ele>106</ele>
        <time>2019-10-28T09:50:57.000Z</time>
      </trkpt>
      <trkpt lat="48.618" lon="2.13224">
        <ele>106</ele>
        <time>2019-10-28T09:50:58.000Z</time>
      </trkpt>
      <trkpt lat="48.61802" lon="2.13223">
        <ele>106</ele>
        <time>2019-10-28T09:50:59.000Z</time>
      </trkpt>
      <trkpt lat="48.61803" lon="2.13223">
        <ele>106</ele>
        <time>2019-10-28T09:51:00.000Z</time>
      </trkpt>
      <trkpt lat="48.61804" lon="2.13222">
        <ele>106</ele>
        <time>2019-10-28T09:51:01.000Z</time>
      </trkpt>
      <trkpt lat="48.61806" lon="2.13222">
        <ele>106</ele>
        <time>2019-10-28T09:51:02.000Z</time>
      </trkpt>
      <trkpt lat="48.61807" lon="2.13221">
        <ele>106</ele>
        <time>2019-10-28T09:51:03.000Z</time>
      </trkpt>
      <trkpt lat="48.61808" lon="2.13221">
        <ele>106</ele>
        <time>2019-10-28T09:51:04.000Z</time>
      </trkpt>
      <trkpt lat="48.6181" lon="2.1322">
        <ele>106</ele>
        <time>2019-10-28T09:51:05.000Z</time>
      </trkpt>
      <trkpt lat="48.61811" lon="2.1322">
        <ele>106</ele>
        <time>2019-10-28T09:51:06.000Z</time>
      </trkpt>
      <trkpt lat="48.61812" lon="2.13219">
        <ele>106</ele>
        <time>2019-10-28T09:51:07.000Z</time>
      </trkpt>
      <trkpt lat="48.61814" lon="2.13219">
        <ele>106</ele>
        <time>2019-10-28T09:51:08.000Z</time>
      </trkpt>
      <trkpt lat="48.61815" lon="2.13218">
        <ele>106</ele>
        <time>2019-10-28T09:51:09.000Z</time>
      </trkpt>
      <trkpt lat="48.61817" lon="2.13218">
        <ele>106</ele>
        <time>2019-10-28T09:51:10.000Z</time>
      </trkpt>
      <trkpt lat="48.61818" lon="2.13217">
        <ele>106</ele>
        <time>2019-10-28T09:51:11.000Z</time>
      </trkpt>
      <trkpt lat="48.61819" lon="2.13216">
        <ele>106</ele>
        <time>2019-10-28T09:51:12.000Z</time>
      </trkpt>
      <trkpt lat="48.6182" lon="2.13216">
        <ele>106</ele>
        <time>2019-10-28T09:51:13.000Z</time>
      </trkpt>
      <trkpt lat="48.61822" lon="2.13215">
        <ele>106</ele>
        <time>2019-10-28T09:51:14.000Z</time>
      </trkpt>
      <trkpt lat="48.61823" lon="2.13215">
        <ele>106</ele>
        <time>2019-10-28T09:51:15.000Z</time>
      </trkpt>
      <trkpt lat="48.61824" lon="2.13214">
        <ele>106</ele>
        <time>2019-10-28T09:51:16.000Z</time>
      </trkpt>
      <trkpt lat="48.61825" lon="2.13213">
        <ele>106</ele>
        <time>2019-10-28T09:51:17.000Z</time>
      </trkpt>
      <trkpt lat="48.61827" lon="2.13213">
        <ele>106</ele>
        <time>2019-10-28T09:51:18.000Z</time>
      </trkpt>
      <trkpt lat="48.61828" lon="2.13213">
        <ele>106</ele>
        <time>2019-10-28T09:51:19.000Z</time>
      </trkpt>
      <trkpt lat="48.61829" lon="2.13213">
        <ele>106</ele>
        <time>2019-10-28T09:51:20.000Z</time>
      </trkpt>
      <trkpt lat="48.61831" lon="2.13213">
        <ele>106</ele>
        <time>2019-10-28T09:51:21.000Z</time>
      </trkpt>
      <trkpt lat="48.61832" lon="2.13212">
        <ele>106</ele>
        <time>2019-10-28T09:51:22.000Z</time>
      </trkpt>
      <trkpt lat="48.61833" lon="2.13212">
        <ele>106</ele>
        <time>2019-10-28T09:51:23.000Z</time>
      </trkpt>
      <trkpt lat="48.61835" lon="2.13212">
        <ele>106</ele>
        <time>2019-10-28T09:51:24.000Z</time>
      </trkpt>
      <trkpt lat="48.61836" lon="2.13212">
        <ele>106</ele>
        <time>2019-10-28T09:51:25.000Z</time>
      </trkpt>
      <trkpt lat="48.61837" lon="2.13212">
        <ele>106</ele>
        <time>2019-10-28T09:51:26.000Z</time>
      </trkpt>
      <trkpt lat="48.61838" lon="2.13212">
        <ele>106</ele>
        <time>2019-10-28T09:51:27.000Z</time>
      </trkpt>
      <trkpt lat="48.61839" lon="2.13212">
        <ele>106</ele>
        <time>2019-10-28T09:51:28.000Z</time>
      </trkpt>
      <trkpt lat="48.6184" lon="2.13213">
        <ele>106</ele>
        <time>2019-10-28T09:51:29.000Z</time>
      </trkpt>
      <trkpt lat="48.61842" lon="2.13213">
        <ele>106</ele>
        <time>2019-10-28T09:51:30.000Z</time>
      </trkpt>
      <trkpt lat="48.61843" lon="2.13213">
        <ele>106</ele>
        <time>2019-10-28T09:51:31.000Z</time>
      </trkpt>
      <trkpt lat="48.61845" lon="2.13213">
        <ele>106</ele>
        <time>2019-10-28T09:51:32.000Z</time>
      </trkpt>
      <trkpt lat="48.61846" lon="2.13213">
        <ele>106</ele>
        <time>2019-10-28T09:51:33.000Z</time>
      </trkpt>
      <trkpt lat="48.61847" lon="2.13213">
        <ele>106</ele>
        <time>2019-10-28T09:51:34.000Z</time>
      </trkpt>
      <trkpt lat="48.61849" lon="2.13214">
        <ele>106</ele>
        <time>2019-10-28T09:51:35.000Z</time>
      </trkpt>
      <trkpt lat="48.6185" lon="2.13214">
        <ele>106</ele>
        <time>2019-10-28T09:51:36.000Z</time>
      </trkpt>
      <trkpt lat="48.61851" lon="2.13215">
        <ele>106</ele>
        <time>2019-10-28T09:51:37.000Z</time>
      </trkpt>
      <trkpt lat="48.61852" lon="2.13216">
        <ele>106</ele>
        <time>2019-10-28T09:51:38.000Z</time>
      </trkpt>
      <trkpt lat="48.61854" lon="2.13216">
        <ele>106</ele>
        <time>2019-10-28T09:51:39.000Z</time>
      </trkpt>
      <trkpt lat="48.61855" lon="2.13217">
        <ele>106</ele>
        <time>2019-10-28T09:51:40.000Z</time>
      </trkpt>
      <trkpt lat="48.61856" lon="2.13218">
        <ele>106</ele>
        <time>2019-10-28T09:51:41.000Z</time>
      </trkpt>
      <trkpt lat="48.61857" lon="2.13219">
        <ele>106</ele>
        <time>2019-10-28T09:51:42.000Z</time>
      </trkpt>
      <trkpt lat="48.61858" lon="2.1322">
        <ele>106</ele>
        <time>2019-10-28T09:51:43.000Z</time>
      </trkpt>
      <trkpt lat="48.61859" lon="2.13222">
        <ele>105</ele>
        <time>2019-10-28T09:51:44.000Z</time>
      </trkpt>
      <trkpt lat="48.6186" lon="2.13223">
        <ele>105</ele>
        <time>2019-10-28T09:51:45.000Z</time>
      </trkpt>
      <trkpt lat="48.61861" lon="2.13224">
        <ele>105</ele>
        <time>2019-10-28T09:51:46.000Z</time>
      </trkpt>
      <trkpt lat="48.61862" lon="2.13226">
        <ele>105</ele>
        <time>2019-10-28T09:51:47.000Z</time>
      </trkpt>
      <trkpt lat="48.61863" lon="2.13227">
        <ele>105</ele>
        <time>2019-10-28T09:51:48.000Z</time>
      </trkpt>
      <trkpt lat="48.61864" lon="2.13229">
        <ele>105</ele>
        <time>2019-10-28T09:51:49.000Z</time>
      </trkpt>
      <trkpt lat="48.61865" lon="2.1323">
        <ele>105</ele>
        <time>2019-10-28T09:51:50.000Z</time>
      </trkpt>
      <trkpt lat="48.61866" lon="2.13232">
        <ele>105</ele>
        <time>2019-10-28T09:51:51.000Z</time>
      </trkpt>
      <trkpt lat="48.61867" lon="2.13233">
        <ele>105</ele>
        <time>2019-10-28T09:51:52.000Z</time>
      </trkpt>
      <trkpt lat="48.61868" lon="2.13235">
        <ele>105</ele>
        <time>2019-10-28T09:51:53.000Z</time>
      </trkpt>
      <trkpt lat="48.61869" lon="2.13236">
        <ele>105</ele>
        <time>2019-10-28T09:51:54.000Z</time>
      </trkpt>
      <trkpt lat="48.6187" lon="2.13238">
        <ele>105</ele>
        <time>2019-10-28T09:51:55.000Z</time>
      </trkpt>
      <trkpt lat="48.61871" lon="2.13239">
        <ele>105</ele>
        <time>2019-10-28T09:51:56.000Z</time>
      </trkpt>
      <trkpt lat="48.61872" lon="2.1324">
        <ele>105</ele>
        <time>2019-10-28T09:51:57.000Z</time>
      </trkpt>
      <trkpt lat="48.61873" lon="2.13242">
        <ele>105</ele>
        <time>2019-10-28T09:51:58.000Z</time>
      </trkpt>
      <trkpt lat="48.61874" lon="2.13243">
        <ele>105</ele>
        <time>2019-10-28T09:51:59.000Z</time>
      </trkpt>
      <trkpt lat="48.61875" lon="2.13245">
        <ele>105</ele>
        <time>2019-10-28T09:52:00.000Z</time>
      </trkpt>
      <trkpt lat="48.61876" lon="2.13247">
        <ele>105</ele>
        <time>2019-10-28T09:52:01.000Z</time>
      </trkpt>
      <trkpt lat="48.61877" lon="2.13248">
        <ele>105</ele>
        <time>2019-10-28T09:52:02.000Z</time>
      </trkpt>
      <trkpt lat="48.61878" lon="2.1325">
        <ele>105</ele>
        <time>2019-10-28T09:52:03.000Z</time>
      </trkpt>
      <trkpt lat="48.61879" lon="2.13251">
        <ele>105</ele>
        <time>2019-10-28T09:52:04.000Z</time>
      </trkpt>
      <trkpt lat="48.6188" lon="2.13253">
        <ele>105</ele>
        <time>2019-10-28T09:52:05.000Z</time>
      </trkpt>
      <trkpt lat="48.61881" lon="2.13254">
        <ele>105</ele>
        <time>2019-10-28T09:52:06.000Z</time>
      </trkpt>
      <trkpt lat="48.61883" lon="2.13256">
        <ele>105</ele>
        <time>2019-10-28T09:52:07.000Z</time>
      </trkpt>
      <trkpt lat="48.61884" lon="2.13257">
        <ele>105</ele>
        <time>2019-10-28T09:52:08.000Z</time>
      </trkpt>
      <trkpt lat="48.61885" lon="2.13259">
        <ele>105</ele>
        <time>2019-10-28T09:52:09.000Z</time>
      </trkpt>
      <trkpt lat="48.61886" lon="2.1326">
        <ele>105</ele>
        <time>2019-10-28T09:52:10.000Z</time>
      </trkpt>
      <trkpt lat="48.61887" lon="2.13262">
        <ele>105</ele>
        <time>2019-10-28T09:52:11.000Z</time>
      </trkpt>
      <trkpt lat="48.61888" lon="2.13263">
        <ele>105</ele>
        <time>2019-10-28T09:52:12.000Z</time>
      </trkpt>
      <trkpt lat="48.61889" lon="2.13264">
        <ele>105</ele>
        <time>2019-10-28T09:52:13.000Z</time>
      </trkpt>
      <trkpt lat="48.6189" lon="2.13266">
        <ele>105</ele>
        <time>2019-10-28T09:52:14.000Z</time>
      </trkpt>
      <trkpt lat="48.61891" lon="2.13267">
        <ele>105</ele>
        <time>2019-10-28T09:52:15.000Z</time>
      </trkpt>
      <trkpt lat="48.61892" lon="2.13269">
        <ele>105</ele>
        <time>2019-10-28T09:52:16.000Z</time>
      </trkpt>
      <trkpt lat="48.61893" lon="2.13271">
        <ele>105</ele>
        <time>2019-10-28T09:52:17.000Z</time>
      </trkpt>
      <trkpt lat="48.61894" lon="2.13272">
        <ele>105</ele>
        <time>2019-10-28T09:52:18.000Z</time>
      </trkpt>
      <trkpt lat="48.61894" lon="2.13274">
        <ele>105</ele>
        <time>2019-10-28T09:52:19.000Z</time>
      </trkpt>
      <trkpt lat="48.61895" lon="2.13275">
        <ele>105</ele>
        <time>2019-10-28T09:52:20.000Z</time>
      </trkpt>
      <trkpt lat="48.61896" lon="2.13277">
        <ele>105</ele>
        <time>2019-10-28T09:52:21.000Z</time>
      </trkpt>
      <trkpt lat="48.61897" lon="2.13278">
        <ele>105</ele>
        <time>2019-10-28T09:52:22.000Z</time>
      </trkpt>
      <trkpt lat="48.61899" lon="2.13279">
        <ele>104</ele>
        <time>2019-10-28T09:52:23.000Z</time>
      </trkpt>
      <trkpt lat="48.619" lon="2.13281">
        <ele>105</ele>
        <time>2019-10-28T09:52:24.000Z</time>
      </trkpt>
      <trkpt lat="48.61901" lon="2.13282">
        <ele>105</ele>
        <time>2019-10-28T09:52:25.000Z</time>
      </trkpt>
      <trkpt lat="48.61902" lon="2.13284">
        <ele>105</ele>
        <time>2019-10-28T09:52:26.000Z</time>
      </trkpt>
      <trkpt lat="48.61903" lon="2.13285">
        <ele>105</ele>
        <time>2019-10-28T09:52:27.000Z</time>
      </trkpt>
      <trkpt lat="48.61904" lon="2.13287">
        <ele>105</ele>
        <time>2019-10-28T09:52:28.000Z</time>
      </trkpt>
      <trkpt lat="48.61905" lon="2.13289">
        <ele>105</ele>
        <time>2019-10-28T09:52:29.000Z</time>
      </trkpt>
      <trkpt lat="48.61906" lon="2.1329">
        <ele>105</ele>
        <time>2019-10-28T09:52:30.000Z</time>
      </trkpt>
      <trkpt lat="48.61907" lon="2.13292">
        <ele>105</ele>
        <time>2019-10-28T09:52:31.000Z</time>
      </trkpt>
      <trkpt lat="48.61908" lon="2.13293">
        <ele>105</ele>
        <time>2019-10-28T09:52:32.000Z</time>
      </trkpt>
      <trkpt lat="48.61909" lon="2.13294">
        <ele>105</ele>
        <time>2019-10-28T09:52:33.000Z</time>
      </trkpt>
      <trkpt lat="48.6191" lon="2.13296">
        <ele>105</ele>
        <time>2019-10-28T09:52:34.000Z</time>
      </trkpt>
      <trkpt lat="48.61911" lon="2.13298">
        <ele>105</ele>
        <time>2019-10-28T09:52:35.000Z</time>
      </trkpt>
      <trkpt lat="48.61912" lon="2.13299">
        <ele>105</ele>
        <time>2019-10-28T09:52:36.000Z</time>
      </trkpt>
      <trkpt lat="48.61913" lon="2.13301">
        <ele>105</ele>
        <time>2019-10-28T09:52:37.000Z</time>
      </trkpt>
      <trkpt lat="48.61914" lon="2.13302">
        <ele>105</ele>
        <time>2019-10-28T09:52:38.000Z</time>
      </trkpt>
      <trkpt lat="48.61914" lon="2.13304">
        <ele>105</ele>
        <time>2019-10-28T09:52:39.000Z</time>
      </trkpt>
      <trkpt lat="48.61915" lon="2.13305">
        <ele>105</ele>
        <time>2019-10-28T09:52:40.000Z</time>
      </trkpt>
      <trkpt lat="48.61916" lon="2.13307">
        <ele>105</ele>
        <time>2019-10-28T09:52:41.000Z</time>
      </trkpt>
      <trkpt lat="48.61917" lon="2.13308">
        <ele>105</ele>
        <time>2019-10-28T09:52:42.000Z</time>
      </trkpt>
      <trkpt lat="48.61918" lon="2.1331">
        <ele>105</ele>
        <time>2019-10-28T09:52:43.000Z</time>
      </trkpt>
      <trkpt lat="48.61919" lon="2.13311">
        <ele>106</ele>
        <time>2019-10-28T09:52:44.000Z</time>
      </trkpt>
      <trkpt lat="48.6192" lon="2.13313">
        <ele>106</ele>
        <time>2019-10-28T09:52:45.000Z</time>
      </trkpt>
      <trkpt lat="48.61921" lon="2.13315">
        <ele>106</ele>
        <time>2019-10-28T09:52:46.000Z</time>
      </trkpt>
      <trkpt lat="48.61922" lon="2.13316">
        <ele>106</ele>
        <time>2019-10-28T09:52:47.000Z</time>
      </trkpt>
      <trkpt lat="48.61923" lon="2.13318">
        <ele>106</ele>
        <time>2019-10-28T09:52:48.000Z</time>
      </trkpt>
      <trkpt lat="48.61924" lon="2.13319">
        <ele>106</ele>
        <time>2019-10-28T09:52:49.000Z</time>
      </trkpt>
      <trkpt lat="48.61925" lon="2.1332">
        <ele>106</ele>
        <time>2019-10-28T09:52:50.000Z</time>
      </trkpt>
      <trkpt lat="48.61926" lon="2.13322">
        <ele>106</ele>
        <time>2019-10-28T09:52:51.000Z</time>
      </trkpt>
      <trkpt lat="48.61927" lon="2.13323">
        <ele>106</ele>
        <time>2019-10-28T09:52:52.000Z</time>
      </trkpt>
      <trkpt lat="48.61928" lon="2.13324">
        <ele>106</ele>
        <time>2019-10-28T09:52:53.000Z</time>
      </trkpt>
      <trkpt lat="48.61929" lon="2.13325">
        <ele>106</ele>
        <time>2019-10-28T09:52:54.000Z</time>
      </trkpt>
      <trkpt lat="48.6193" lon="2.13327">
        <ele>106</ele>
        <time>2019-10-28T09:52:55.000Z</time>
      </trkpt>
      <trkpt lat="48.61931" lon="2.13328">
        <ele>106</ele>
        <time>2019-10-28T09:52:56.000Z</time>
      </trkpt>
      <trkpt lat="48.61932" lon="2.13329">
        <ele>106</ele>
        <time>2019-10-28T09:52:57.000Z</time>
      </trkpt>
      <trkpt lat="48.61933" lon="2.13331">
        <ele>106</ele>
        <time>2019-10-28T09:52:58.000Z</time>
      </trkpt>
      <trkpt lat="48.61934" lon="2.13332">
        <ele>106</ele>
        <time>2019-10-28T09:52:59.000Z</time>
      </trkpt>
      <trkpt lat="48.61935" lon="2.13333">
        <ele>106</ele>
        <time>2019-10-28T09:53:00.000Z</time>
      </trkpt>
      <trkpt lat="48.61935" lon="2.13334">
        <ele>106</ele>
        <time>2019-10-28T09:53:01.000Z</time>
      </trkpt>
      <trkpt lat="48.61936" lon="2.13335">
        <ele>106</ele>
        <time>2019-10-28T09:53:02.000Z</time>
      </trkpt>
      <trkpt lat="48.61937" lon="2.13336">
        <ele>106</ele>
        <time>2019-10-28T09:53:03.000Z</time>
      </trkpt>
      <trkpt lat="48.61937" lon="2.13336">
        <ele>106</ele>
        <time>2019-10-28T09:53:04.000Z</time>
      </trkpt>
      <trkpt lat="48.61937" lon="2.13337">
        <ele>106</ele>
        <time>2019-10-28T09:53:05.000Z</time>
      </trkpt>
      <trkpt lat="48.61938" lon="2.13338">
        <ele>106</ele>
        <time>2019-10-28T09:53:06.000Z</time>
      </trkpt>
      <trkpt lat="48.61939" lon="2.13339">
        <ele>106</ele>
        <time>2019-10-28T09:53:07.000Z</time>
      </trkpt>
      <trkpt lat="48.6194" lon="2.1334">
        <ele>106</ele>
        <time>2019-10-28T09:53:08.000Z</time>
      </trkpt>
      <trkpt lat="48.61941" lon="2.13342">
        <ele>106</ele>
        <time>2019-10-28T09:53:09.000Z</time>
      </trkpt>
      <trkpt lat="48.61942" lon="2.13343">
        <ele>106</ele>
        <time>2019-10-28T09:53:10.000Z</time>
      </trkpt>
      <trkpt lat="48.61943" lon="2.13344">
        <ele>106</ele>
        <time>2019-10-28T09:53:11.000Z</time>
      </trkpt>
      <trkpt lat="48.61943" lon="2.13345">
        <ele>105</ele>
        <time>2019-10-28T09:53:12.000Z</time>
      </trkpt>
      <trkpt lat="48.61944" lon="2.13347">
        <ele>105</ele>
        <time>2019-10-28T09:53:13.000Z</time>
      </trkpt>
      <trkpt lat="48.61945" lon="2.13348">
        <ele>105</ele>
        <time>2019-10-28T09:53:14.000Z</time>
      </trkpt>
      <trkpt lat="48.61946" lon="2.13349">
        <ele>105</ele>
        <time>2019-10-28T09:53:15.000Z</time>
      </trkpt>
      <trkpt lat="48.61947" lon="2.13351">
        <ele>105</ele>
        <time>2019-10-28T09:53:16.000Z</time>
      </trkpt>
      <trkpt lat="48.61948" lon="2.13352">
        <ele>105</ele>
        <time>2019-10-28T09:53:17.000Z</time>
      </trkpt>
      <trkpt lat="48.61949" lon="2.13353">
        <ele>105</ele>
        <time>2019-10-28T09:53:18.000Z</time>
      </trkpt>
      <trkpt lat="48.6195" lon="2.13354">
        <ele>105</ele>
        <time>2019-10-28T09:53:19.000Z</time>
      </trkpt>
      <trkpt lat="48.61951" lon="2.13355">
        <ele>105</ele>
        <time>2019-10-28T09:53:20.000Z</time>
      </trkpt>
      <trkpt lat="48.61952" lon="2.13356">
        <ele>106</ele>
        <time>2019-10-28T09:53:21.000Z</time>
      </trkpt>
      <trkpt lat="48.61953" lon="2.13357">
        <ele>106</ele>
        <time>2019-10-28T09:53:22.000Z</time>
      </trkpt>
      <trkpt lat="48.61954" lon="2.13358">
        <ele>106</ele>
        <time>2019-10-28T09:53:23.000Z</time>
      </trkpt>
      <trkpt lat="48.61955" lon="2.13359">
        <ele>106</ele>
        <time>2019-10-28T09:53:24.000Z</time>
      </trkpt>
      <trkpt lat="48.61956" lon="2.1336">
        <ele>106</ele>
        <time>2019-10-28T09:53:25.000Z</time>
      </trkpt>
      <trkpt lat="48.61957" lon="2.1336">
        <ele>106</ele>
        <time>2019-10-28T09:53:26.000Z</time>
      </trkpt>
      <trkpt lat="48.61958" lon="2.13361">
        <ele>106</ele>
        <time>2019-10-28T09:53:27.000Z</time>
      </trkpt>
      <trkpt lat="48.61959" lon="2.13362">
        <ele>106</ele>
        <time>2019-10-28T09:53:28.000Z</time>
      </trkpt>
      <trkpt lat="48.6196" lon="2.13362">
        <ele>106</ele>
        <time>2019-10-28T09:53:29.000Z</time>
      </trkpt>
      <trkpt lat="48.61961" lon="2.13363">
        <ele>106</ele>
        <time>2019-10-28T09:53:30.000Z</time>
      </trkpt>
      <trkpt lat="48.61962" lon="2.13364">
        <ele>106</ele>
        <time>2019-10-28T09:53:31.000Z</time>
      </trkpt>
      <trkpt lat="48.61963" lon="2.13365">
        <ele>106</ele>
        <time>2019-10-28T09:53:32.000Z</time>
      </trkpt>
      <trkpt lat="48.61964" lon="2.13366">
        <ele>106</ele>
        <time>2019-10-28T09:53:33.000Z</time>
      </trkpt>
      <trkpt lat="48.61965" lon="2.13367">
        <ele>106</ele>
        <time>2019-10-28T09:53:34.000Z</time>
      </trkpt>
      <trkpt lat="48.61966" lon="2.13368">
        <ele>106</ele>
        <time>2019-10-28T09:53:35.000Z</time>
      </trkpt>
      <trkpt lat="48.61967" lon="2.13369">
        <ele>106</ele>
        <time>2019-10-28T09:53:36.000Z</time>
      </trkpt>
      <trkpt lat="48.61968" lon="2.13369">
        <ele>106</ele>
        <time>2019-10-28T09:53:37.000Z</time>
      </trkpt>
      <trkpt lat="48.6197" lon="2.1337">
        <ele>106</ele>
        <time>2019-10-28T09:53:38.000Z</time>
      </trkpt>
      <trkpt lat="48.61971" lon="2.1337">
        <ele>106</ele>
        <time>2019-10-28T09:53:39.000Z</time>
      </trkpt>
      <trkpt lat="48.61972" lon="2.1337">
        <ele>106</ele>
        <time>2019-10-28T09:53:40.000Z</time>
      </trkpt>
      <trkpt lat="48.61974" lon="2.13371">
        <ele>106</ele>
        <time>2019-10-28T09:53:41.000Z</time>
      </trkpt>
      <trkpt lat="48.61975" lon="2.13371">
        <ele>106</ele>
        <time>2019-10-28T09:53:42.000Z</time>
      </trkpt>
      <trkpt lat="48.61976" lon="2.13371">
        <ele>106</ele>
        <time>2019-10-28T09:53:43.000Z</time>
      </trkpt>
      <trkpt lat="48.61978" lon="2.13372">
        <ele>106</ele>
        <time>2019-10-28T09:53:44.000Z</time>
      </trkpt>
      <trkpt lat="48.61979" lon="2.13372">
        <ele>106</ele>
        <time>2019-10-28T09:53:45.000Z</time>
      </trkpt>
      <trkpt lat="48.6198" lon="2.13372">
        <ele>106</ele>
        <time>2019-10-28T09:53:46.000Z</time>
      </trkpt>
      <trkpt lat="48.61981" lon="2.13372">
        <ele>106</ele>
        <time>2019-10-28T09:53:47.000Z</time>
      </trkpt>
      <trkpt lat="48.61982" lon="2.13373">
        <ele>106</ele>
        <time>2019-10-28T09:53:48.000Z</time>
      </trkpt>
      <trkpt lat="48.61984" lon="2.13373">
        <ele>106</ele>
        <time>2019-10-28T09:53:49.000Z</time>
      </trkpt>
      <trkpt lat="48.61985" lon="2.13373">
        <ele>106</ele>
        <time>2019-10-28T09:53:50.000Z</time>
      </trkpt>
      <trkpt lat="48.61986" lon="2.13374">
        <ele>106</ele>
        <time>2019-10-28T09:53:51.000Z</time>
      </trkpt>
      <trkpt lat="48.61987" lon="2.13374">
        <ele>106</ele>
        <time>2019-10-28T09:53:52.000Z</time>
      </trkpt>
      <trkpt lat="48.61988" lon="2.13375">
        <ele>106</ele>
        <time>2019-10-28T09:53:53.000Z</time>
      </trkpt>
      <trkpt lat="48.6199" lon="2.13375">
        <ele>106</ele>
        <time>2019-10-28T09:53:54.000Z</time>
      </trkpt>
      <trkpt lat="48.61991" lon="2.13376">
        <ele>106</ele>
        <time>2019-10-28T09:53:55.000Z</time>
      </trkpt>
      <trkpt lat="48.61992" lon="2.13376">
        <ele>106</ele>
        <time>2019-10-28T09:53:56.000Z</time>
      </trkpt>
      <trkpt lat="48.61993" lon="2.13376">
        <ele>106</ele>
        <time>2019-10-28T09:53:57.000Z</time>
      </trkpt>
      <trkpt lat="48.61994" lon="2.13377">
        <ele>106</ele>
        <time>2019-10-28T09:53:58.000Z</time>
      </trkpt>
      <trkpt lat="48.61995" lon="2.13377">
        <ele>106</ele>
        <time>2019-10-28T09:53:59.000Z</time>
      </trkpt>
      <trkpt lat="48.61997" lon="2.13377">
        <ele>106</ele>
        <time>2019-10-28T09:54:00.000Z</time>
      </trkpt>
      <trkpt lat="48.61998" lon="2.13377">
        <ele>106</ele>
        <time>2019-10-28T09:54:01.000Z</time>
      </trkpt>
      <trkpt lat="48.61999" lon="2.13377">
        <ele>106</ele>
        <time>2019-10-28T09:54:02.000Z</time>
      </trkpt>
      <trkpt lat="48.62" lon="2.13377">
        <ele>106</ele>
        <time>2019-10-28T09:54:03.000Z</time>
      </trkpt>
      <trkpt lat="48.62001" lon="2.13378">
        <ele>106</ele>
        <time>2019-10-28T09:54:04.000Z</time>
      </trkpt>
      <trkpt lat="48.62003" lon="2.13378">
        <ele>106</ele>
        <time>2019-10-28T09:54:05.000Z</time>
      </trkpt>
      <trkpt lat="48.62004" lon="2.13378">
        <ele>106</ele>
        <time>2019-10-28T09:54:06.000Z</time>
      </trkpt>
      <trkpt lat="48.62005" lon="2.13378">
        <ele>106</ele>
        <time>2019-10-28T09:54:07.000Z</time>
      </trkpt>
      <trkpt lat="48.62006" lon="2.13378">
        <ele>106</ele>
        <time>2019-10-28T09:54:08.000Z</time>
      </trkpt>
      <trkpt lat="48.62007" lon="2.13378">
        <ele>106</ele>
        <time>2019-10-28T09:54:09.000Z</time>
      </trkpt>
      <trkpt lat="48.62009" lon="2.13378">
        <ele>106</ele>
        <time>2019-10-28T09:54:10.000Z</time>
      </trkpt>
      <trkpt lat="48.6201" lon="2.13379">
        <ele>106</ele>
        <time>2019-10-28T09:54:11.000Z</time>
      </trkpt>
      <trkpt lat="48.62011" lon="2.13379">
        <ele>106</ele>
        <time>2019-10-28T09:54:12.000Z</time>
      </trkpt>
      <trkpt lat="48.62012" lon="2.1338">
        <ele>106</ele>
        <time>2019-10-28T09:54:13.000Z</time>
      </trkpt>
      <trkpt lat="48.62013" lon="2.1338">
        <ele>106</ele>
        <time>2019-10-28T09:54:14.000Z</time>
      </trkpt>
      <trkpt lat="48.62014" lon="2.13381">
        <ele>106</ele>
        <time>2019-10-28T09:54:15.000Z</time>
      </trkpt>
      <trkpt lat="48.62015" lon="2.13382">
        <ele>106</ele>
        <time>2019-10-28T09:54:16.000Z</time>
      </trkpt>
      <trkpt lat="48.62016" lon="2.13383">
        <ele>106</ele>
        <time>2019-10-28T09:54:17.000Z</time>
      </trkpt>
      <trkpt lat="48.62017" lon="2.13385">
        <ele>107</ele>
        <time>2019-10-28T09:54:18.000Z</time>
      </trkpt>
      <trkpt lat="48.62018" lon="2.13386">
        <ele>107</ele>
        <time>2019-10-28T09:54:19.000Z</time>
      </trkpt>
      <trkpt lat="48.62019" lon="2.13387">
        <ele>107</ele>
        <time>2019-10-28T09:54:20.000Z</time>
      </trkpt>
      <trkpt lat="48.6202" lon="2.13388">
        <ele>107</ele>
        <time>2019-10-28T09:54:21.000Z</time>
      </trkpt>
      <trkpt lat="48.62021" lon="2.13389">
        <ele>107</ele>
        <time>2019-10-28T09:54:22.000Z</time>
      </trkpt>
      <trkpt lat="48.62022" lon="2.1339">
        <ele>107</ele>
        <time>2019-10-28T09:54:23.000Z</time>
      </trkpt>
      <trkpt lat="48.62023" lon="2.13391">
        <ele>107</ele>
        <time>2019-10-28T09:54:24.000Z</time>
      </trkpt>
      <trkpt lat="48.62024" lon="2.13392">
        <ele>107</ele>
        <time>2019-10-28T09:54:25.000Z</time>
      </trkpt>
      <trkpt lat="48.62025" lon="2.13393">
        <ele>107</ele>
        <time>2019-10-28T09:54:26.000Z</time>
      </trkpt>
      <trkpt lat="48.62026" lon="2.13394">
        <ele>107</ele>
        <time>2019-10-28T09:54:27.000Z</time>
      </trkpt>
      <trkpt lat="48.62027" lon="2.13395">
        <ele>107</ele>
        <time>2019-10-28T09:54:28.000Z</time>
      </trkpt>
      <trkpt lat="48.62028" lon="2.13396">
        <ele>107</ele>
        <time>2019-10-28T09:54:29.000Z</time>
      </trkpt>
      <trkpt lat="48.62029" lon="2.13397">
        <ele>107</ele>
        <time>2019-10-28T09:54:30.000Z</time>
      </trkpt>
      <trkpt lat="48.6203" lon="2.13399">
        <ele>107</ele>
        <time>2019-10-28T09:54:31.000Z</time>
      </trkpt>
      <trkpt lat="48.62031" lon="2.134">
        <ele>107</ele>
        <time>2019-10-28T09:54:32.000Z</time>
      </trkpt>
      <trkpt lat="48.62032" lon="2.13401">
        <ele>107</ele>
        <time>2019-10-28T09:54:33.000Z</time>
      </trkpt>
      <trkpt lat="48.62032" lon="2.13402">
        <ele>107</ele>
        <time>2019-10-28T09:54:34.000Z</time>
      </trkpt>
      <trkpt lat="48.62033" lon="2.13404">
        <ele>107</ele>
        <time>2019-10-28T09:54:35.000Z</time>
      </trkpt>
      <trkpt lat="48.62034" lon="2.13405">
        <ele>107</ele>
        <time>2019-10-28T09:54:36.000Z</time>
      </trkpt>
      <trkpt lat="48.62035" lon="2.13406">
        <ele>107</ele>
        <time>2019-10-28T09:54:37.000Z</time>
      </trkpt>
      <trkpt lat="48.62036" lon="2.13407">
        <ele>107</ele>
        <time>2019-10-28T09:54:38.000Z</time>
      </trkpt>
      <trkpt lat="48.62037" lon="2.13408">
        <ele>107</ele>
        <time>2019-10-28T09:54:39.000Z</time>
      </trkpt>
      <trkpt lat="48.62038" lon="2.1341">
        <ele>107</ele>
        <time>2019-10-28T09:54:40.000Z</time>
      </trkpt>
      <trkpt lat="48.62039" lon="2.13411">
        <ele>107</ele>
        <time>2019-10-28T09:54:41.000Z</time>
      </trkpt>
      <trkpt lat="48.62039" lon="2.13412">
        <ele>107</ele>
        <time>2019-10-28T09:54:42.000Z</time>
      </trkpt>
      <trkpt lat="48.6204" lon="2.13414">
        <ele>107</ele>
        <time>2019-10-28T09:54:43.000Z</time>
      </trkpt>
      <trkpt lat="48.62041" lon="2.13415">
        <ele>107</ele>
        <time>2019-10-28T09:54:44.000Z</time>
      </trkpt>
      <trkpt lat="48.62042" lon="2.13416">
        <ele>107</ele>
        <time>2019-10-28T09:54:45.000Z</time>
      </trkpt>
      <trkpt lat="48.62043" lon="2.13417">
        <ele>107</ele>
        <time>2019-10-28T09:54:46.000Z</time>
      </trkpt>
      <trkpt lat="48.62044" lon="2.13418">
        <ele>107</ele>
        <time>2019-10-28T09:54:47.000Z</time>
      </trkpt>
      <trkpt lat="48.62045" lon="2.1342">
        <ele>107</ele>
        <time>2019-10-28T09:54:48.000Z</time>
      </trkpt>
      <trkpt lat="48.62046" lon="2.13421">
        <ele>107</ele>
        <time>2019-10-28T09:54:49.000Z</time>
      </trkpt>
      <trkpt lat="48.62047" lon="2.13423">
        <ele>107</ele>
        <time>2019-10-28T09:54:50.000Z</time>
      </trkpt>
      <trkpt lat="48.62047" lon="2.13424">
        <ele>107</ele>
        <time>2019-10-28T09:54:51.000Z</time>
      </trkpt>
      <trkpt lat="48.62049" lon="2.13425">
        <ele>107</ele>
        <time>2019-10-28T09:54:52.000Z</time>
      </trkpt>
      <trkpt lat="48.6205" lon="2.13426">
        <ele>107</ele>
        <time>2019-10-28T09:54:53.000Z</time>
      </trkpt>
      <trkpt lat="48.62051" lon="2.13428">
        <ele>107</ele>
        <time>2019-10-28T09:54:54.000Z</time>
      </trkpt>
      <trkpt lat="48.62051" lon="2.13429">
        <ele>107</ele>
        <time>2019-10-28T09:54:55.000Z</time>
      </trkpt>
      <trkpt lat="48.62052" lon="2.13431">
        <ele>107</ele>
        <time>2019-10-28T09:54:56.000Z</time>
      </trkpt>
      <trkpt lat="48.62053" lon="2.13432">
        <ele>107</ele>
        <time>2019-10-28T09:54:57.000Z</time>
      </trkpt>
      <trkpt lat="48.62054" lon="2.13433">
        <ele>107</ele>
        <time>2019-10-28T09:54:58.000Z</time>
      </trkpt>
      <trkpt lat="48.62055" lon="2.13435">
        <ele>107</ele>
        <time>2019-10-28T09:54:59.000Z</time>
      </trkpt>
      <trkpt lat="48.62056" lon="2.13436">
        <ele>107</ele>
        <time>2019-10-28T09:55:00.000Z</time>
      </trkpt>
      <trkpt lat="48.62057" lon="2.13437">
        <ele>107</ele>
        <time>2019-10-28T09:55:01.000Z</time>
      </trkpt>
      <trkpt lat="48.62058" lon="2.13439">
        <ele>107</ele>
        <time>2019-10-28T09:55:02.000Z</time>
      </trkpt>
      <trkpt lat="48.62059" lon="2.13441">
        <ele>107</ele>
        <time>2019-10-28T09:55:03.000Z</time>
      </trkpt>
      <trkpt lat="48.6206" lon="2.13442">
        <ele>107</ele>
        <time>2019-10-28T09:55:04.000Z</time>
      </trkpt>
      <trkpt lat="48.6206" lon="2.13443">
        <ele>107</ele>
        <time>2019-10-28T09:55:05.000Z</time>
      </trkpt>
      <trkpt lat="48.62061" lon="2.13445">
        <ele>107</ele>
        <time>2019-10-28T09:55:06.000Z</time>
      </trkpt>
      <trkpt lat="48.62062" lon="2.13446">
        <ele>107</ele>
        <time>2019-10-28T09:55:07.000Z</time>
      </trkpt>
      <trkpt lat="48.62063" lon="2.13447">
        <ele>107</ele>
        <time>2019-10-28T09:55:08.000Z</time>
      </trkpt>
      <trkpt lat="48.62064" lon="2.13449">
        <ele>107</ele>
        <time>2019-10-28T09:55:09.000Z</time>
      </trkpt>
      <trkpt lat="48.62065" lon="2.1345">
        <ele>107</ele>
        <time>2019-10-28T09:55:10.000Z</time>
      </trkpt>
      <trkpt lat="48.62066" lon="2.13451">
        <ele>107</ele>
        <time>2019-10-28T09:55:11.000Z</time>
      </trkpt>
      <trkpt lat="48.62066" lon="2.13453">
        <ele>107</ele>
        <time>2019-10-28T09:55:12.000Z</time>
      </trkpt>
      <trkpt lat="48.62067" lon="2.13454">
        <ele>107</ele>
        <time>2019-10-28T09:55:13.000Z</time>
      </trkpt>
      <trkpt lat="48.62068" lon="2.13455">
        <ele>108</ele>
        <time>2019-10-28T09:55:14.000Z</time>
      </trkpt>
      <trkpt lat="48.62069" lon="2.13456">
        <ele>108</ele>
        <time>2019-10-28T09:55:15.000Z</time>
      </trkpt>
      <trkpt lat="48.6207" lon="2.13457">
        <ele>108</ele>
        <time>2019-10-28T09:55:16.000Z</time>
      </trkpt>
      <trkpt lat="48.62071" lon="2.13458">
        <ele>108</ele>
        <time>2019-10-28T09:55:17.000Z</time>
      </trkpt>
      <trkpt lat="48.62072" lon="2.13459">
        <ele>108</ele>
        <time>2019-10-28T09:55:18.000Z</time>
      </trkpt>
      <trkpt lat="48.62073" lon="2.1346">
        <ele>108</ele>
        <time>2019-10-28T09:55:19.000Z</time>
      </trkpt>
      <trkpt lat="48.62074" lon="2.13462">
        <ele>108</ele>
        <time>2019-10-28T09:55:20.000Z</time>
      </trkpt>
      <trkpt lat="48.62075" lon="2.13463">
        <ele>108</ele>
        <time>2019-10-28T09:55:21.000Z</time>
      </trkpt>
      <trkpt lat="48.62076" lon="2.13464">
        <ele>108</ele>
        <time>2019-10-28T09:55:22.000Z</time>
      </trkpt>
      <trkpt lat="48.62076" lon="2.13465">
        <ele>108</ele>
        <time>2019-10-28T09:55:23.000Z</time>
      </trkpt>
      <trkpt lat="48.62077" lon="2.13466">
        <ele>108</ele>
        <time>2019-10-28T09:55:24.000Z</time>
      </trkpt>
      <trkpt lat="48.62078" lon="2.13468">
        <ele>108</ele>
        <time>2019-10-28T09:55:25.000Z</time>
      </trkpt>
      <trkpt lat="48.62079" lon="2.13469">
        <ele>108</ele>
        <time>2019-10-28T09:55:26.000Z</time>
      </trkpt>
      <trkpt lat="48.6208" lon="2.1347">
        <ele>108</ele>
        <time>2019-10-28T09:55:27.000Z</time>
      </trkpt>
      <trkpt lat="48.6208" lon="2.13471">
        <ele>108</ele>
        <time>2019-10-28T09:55:28.000Z</time>
      </trkpt>
      <trkpt lat="48.62081" lon="2.13472">
        <ele>108</ele>
        <time>2019-10-28T09:55:29.000Z</time>
      </trkpt>
      <trkpt lat="48.62082" lon="2.13474">
        <ele>108</ele>
        <time>2019-10-28T09:55:30.000Z</time>
      </trkpt>
      <trkpt lat="48.62083" lon="2.13475">
        <ele>108</ele>
        <time>2019-10-28T09:55:31.000Z</time>
      </trkpt>
      <trkpt lat="48.62084" lon="2.13477">
        <ele>108</ele>
        <time>2019-10-28T09:55:32.000Z</time>
      </trkpt>
      <trkpt lat="48.62085" lon="2.13479">
        <ele>108</ele>
        <time>2019-10-28T09:55:33.000Z</time>
      </trkpt>
      <trkpt lat="48.62085" lon="2.1348">
        <ele>108</ele>
        <time>2019-10-28T09:55:34.000Z</time>
      </trkpt>
      <trkpt lat="48.62086" lon="2.13482">
        <ele>108</ele>
        <time>2019-10-28T09:55:35.000Z</time>
      </trkpt>
      <trkpt lat="48.62087" lon="2.13483">
        <ele>108</ele>
        <time>2019-10-28T09:55:36.000Z</time>
      </trkpt>
      <trkpt lat="48.62088" lon="2.13484">
        <ele>108</ele>
        <time>2019-10-28T09:55:37.000Z</time>
      </trkpt>
      <trkpt lat="48.62089" lon="2.13486">
        <ele>108</ele>
        <time>2019-10-28T09:55:38.000Z</time>
      </trkpt>
      <trkpt lat="48.6209" lon="2.13487">
        <ele>108</ele>
        <time>2019-10-28T09:55:39.000Z</time>
      </trkpt>
      <trkpt lat="48.62091" lon="2.13488">
        <ele>108</ele>
        <time>2019-10-28T09:55:40.000Z</time>
      </trkpt>
      <trkpt lat="48.62092" lon="2.1349">
        <ele>108</ele>
        <time>2019-10-28T09:55:41.000Z</time>
      </trkpt>
      <trkpt lat="48.62093" lon="2.13491">
        <ele>108</ele>
        <time>2019-10-28T09:55:42.000Z</time>
      </trkpt>
      <trkpt lat="48.62094" lon="2.13492">
        <ele>108</ele>
        <time>2019-10-28T09:55:43.000Z</time>
      </trkpt>
      <trkpt lat="48.62095" lon="2.13494">
        <ele>108</ele>
        <time>2019-10-28T09:55:44.000Z</time>
      </trkpt>
      <trkpt lat="48.62096" lon="2.13495">
        <ele>108</ele>
        <time>2019-10-28T09:55:45.000Z</time>
      </trkpt>
      <trkpt lat="48.62097" lon="2.13496">
        <ele>108</ele>
        <time>2019-10-28T09:55:46.000Z</time>
      </trkpt>
      <trkpt lat="48.62098" lon="2.13498">
        <ele>108</ele>
        <time>2019-10-28T09:55:47.000Z</time>
      </trkpt>
      <trkpt lat="48.62099" lon="2.13499">
        <ele>108</ele>
        <time>2019-10-28T09:55:48.000Z</time>
      </trkpt>
      <trkpt lat="48.621" lon="2.135">
        <ele>108</ele>
        <time>2019-10-28T09:55:49.000Z</time>
      </trkpt>
      <trkpt lat="48.62101" lon="2.13501">
        <ele>108</ele>
        <time>2019-10-28T09:55:50.000Z</time>
      </trkpt>
      <trkpt lat="48.62102" lon="2.13502">
        <ele>108</ele>
        <time>2019-10-28T09:55:51.000Z</time>
      </trkpt>
      <trkpt lat="48.62102" lon="2.13503">
        <ele>108</ele>
        <time>2019-10-28T09:55:52.000Z</time>
      </trkpt>
      <trkpt lat="48.62103" lon="2.13505">
        <ele>108</ele>
        <time>2019-10-28T09:55:53.000Z</time>
      </trkpt>
      <trkpt lat="48.62104" lon="2.13506">
        <ele>108</ele>
        <time>2019-10-28T09:55:54.000Z</time>
      </trkpt>
      <trkpt lat="48.62105" lon="2.13507">
        <ele>108</ele>
        <time>2019-10-28T09:55:55.000Z</time>
      </trkpt>
      <trkpt lat="48.62106" lon="2.13508">
        <ele>108</ele>
        <time>2019-10-28T09:55:56.000Z</time>
      </trkpt>
      <trkpt lat="48.62107" lon="2.1351">
        <ele>108</ele>
        <time>2019-10-28T09:55:57.000Z</time>
      </trkpt>
      <trkpt lat="48.62108" lon="2.13511">
        <ele>108</ele>
        <time>2019-10-28T09:55:58.000Z</time>
      </trkpt>
      <trkpt lat="48.62109" lon="2.13513">
        <ele>108</ele>
        <time>2019-10-28T09:55:59.000Z</time>
      </trkpt>
      <trkpt lat="48.6211" lon="2.13514">
        <ele>108</ele>
        <time>2019-10-28T09:56:00.000Z</time>
      </trkpt>
      <trkpt lat="48.62111" lon="2.13516">
        <ele>108</ele>
        <time>2019-10-28T09:56:01.000Z</time>
      </trkpt>
      <trkpt lat="48.62112" lon="2.13518">
        <ele>108</ele>
        <time>2019-10-28T09:56:02.000Z</time>
      </trkpt>
      <trkpt lat="48.62113" lon="2.13519">
        <ele>108</ele>
        <time>2019-10-28T09:56:03.000Z</time>
      </trkpt>
      <trkpt lat="48.62113" lon="2.13521">
        <ele>108</ele>
        <time>2019-10-28T09:56:04.000Z</time>
      </trkpt>
      <trkpt lat="48.62114" lon="2.13522">
        <ele>107</ele>
        <time>2019-10-28T09:56:05.000Z</time>
      </trkpt>
      <trkpt lat="48.62115" lon="2.13523">
        <ele>107</ele>
        <time>2019-10-28T09:56:06.000Z</time>
      </trkpt>
      <trkpt lat="48.62116" lon="2.13525">
        <ele>108</ele>
        <time>2019-10-28T09:56:07.000Z</time>
      </trkpt>
      <trkpt lat="48.62117" lon="2.13526">
        <ele>108</ele>
        <time>2019-10-28T09:56:08.000Z</time>
      </trkpt>
      <trkpt lat="48.62118" lon="2.13527">
        <ele>108</ele>
        <time>2019-10-28T09:56:09.000Z</time>
      </trkpt>
      <trkpt lat="48.62119" lon="2.13528">
        <ele>108</ele>
        <time>2019-10-28T09:56:10.000Z</time>
      </trkpt>
      <trkpt lat="48.6212" lon="2.13529">
        <ele>108</ele>
        <time>2019-10-28T09:56:11.000Z</time>
      </trkpt>
      <trkpt lat="48.62121" lon="2.13531">
        <ele>108</ele>
        <time>2019-10-28T09:56:12.000Z</time>
      </trkpt>
      <trkpt lat="48.62122" lon="2.13532">
        <ele>108</ele>
        <time>2019-10-28T09:56:13.000Z</time>
      </trkpt>
      <trkpt lat="48.62123" lon="2.13533">
        <ele>108</ele>
        <time>2019-10-28T09:56:14.000Z</time>
      </trkpt>
      <trkpt lat="48.62124" lon="2.13534">
        <ele>108</ele>
        <time>2019-10-28T09:56:15.000Z</time>
      </trkpt>
      <trkpt lat="48.62125" lon="2.13536">
        <ele>108</ele>
        <time>2019-10-28T09:56:16.000Z</time>
      </trkpt>
      <trkpt lat="48.62126" lon="2.13537">
        <ele>108</ele>
        <time>2019-10-28T09:56:17.000Z</time>
      </trkpt>
      <trkpt lat="48.62127" lon="2.13538">
        <ele>108</ele>
        <time>2019-10-28T09:56:18.000Z</time>
      </trkpt>
      <trkpt lat="48.62128" lon="2.13539">
        <ele>108</ele>
        <time>2019-10-28T09:56:19.000Z</time>
      </trkpt>
      <trkpt lat="48.62129" lon="2.1354">
        <ele>108</ele>
        <time>2019-10-28T09:56:20.000Z</time>
      </trkpt>
      <trkpt lat="48.6213" lon="2.13541">
        <ele>108</ele>
        <time>2019-10-28T09:56:21.000Z</time>
      </trkpt>
      <trkpt lat="48.6213" lon="2.13542">
        <ele>108</ele>
        <time>2019-10-28T09:56:22.000Z</time>
      </trkpt>
      <trkpt lat="48.62131" lon="2.13542">
        <ele>108</ele>
        <time>2019-10-28T09:56:23.000Z</time>
      </trkpt>
      <trkpt lat="48.62132" lon="2.13543">
        <ele>108</ele>
        <time>2019-10-28T09:56:24.000Z</time>
      </trkpt>
      <trkpt lat="48.62133" lon="2.13544">
        <ele>108</ele>
        <time>2019-10-28T09:56:25.000Z</time>
      </trkpt>
      <trkpt lat="48.62134" lon="2.13545">
        <ele>109</ele>
        <time>2019-10-28T09:56:26.000Z</time>
      </trkpt>
      <trkpt lat="48.62135" lon="2.13546">
        <ele>108</ele>
        <time>2019-10-28T09:56:27.000Z</time>
      </trkpt>
      <trkpt lat="48.62136" lon="2.13546">
        <ele>108</ele>
        <time>2019-10-28T09:56:28.000Z</time>
      </trkpt>
      <trkpt lat="48.62137" lon="2.13547">
        <ele>108</ele>
        <time>2019-10-28T09:56:29.000Z</time>
      </trkpt>
      <trkpt lat="48.62137" lon="2.13548">
        <ele>108</ele>
        <time>2019-10-28T09:56:30.000Z</time>
      </trkpt>
      <trkpt lat="48.62138" lon="2.13548">
        <ele>109</ele>
        <time>2019-10-28T09:56:31.000Z</time>
      </trkpt>
      <trkpt lat="48.62139" lon="2.13549">
        <ele>109</ele>
        <time>2019-10-28T09:56:32.000Z</time>
      </trkpt>
      <trkpt lat="48.6214" lon="2.1355">
        <ele>109</ele>
        <time>2019-10-28T09:56:33.000Z</time>
      </trkpt>
      <trkpt lat="48.62141" lon="2.1355">
        <ele>109</ele>
        <time>2019-10-28T09:56:34.000Z</time>
      </trkpt>
      <trkpt lat="48.62141" lon="2.13551">
        <ele>109</ele>
        <time>2019-10-28T09:56:35.000Z</time>
      </trkpt>
      <trkpt lat="48.62142" lon="2.13552">
        <ele>109</ele>
        <time>2019-10-28T09:56:36.000Z</time>
      </trkpt>
      <trkpt lat="48.62142" lon="2.13553">
        <ele>109</ele>
        <time>2019-10-28T09:56:37.000Z</time>
      </trkpt>
      <trkpt lat="48.62142" lon="2.13554">
        <ele>109</ele>
        <time>2019-10-28T09:56:38.000Z</time>
      </trkpt>
      <trkpt lat="48.62142" lon="2.13554">
        <ele>108</ele>
        <time>2019-10-28T09:56:39.000Z</time>
      </trkpt>
      <trkpt lat="48.62142" lon="2.13554">
        <ele>109</ele>
        <time>2019-10-28T09:56:40.000Z</time>
      </trkpt>
      <trkpt lat="48.62143" lon="2.13555">
        <ele>109</ele>
        <time>2019-10-28T09:56:41.000Z</time>
      </trkpt>
      <trkpt lat="48.62143" lon="2.13556">
        <ele>109</ele>
        <time>2019-10-28T09:56:42.000Z</time>
      </trkpt>
      <trkpt lat="48.62144" lon="2.13557">
        <ele>109</ele>
        <time>2019-10-28T09:56:43.000Z</time>
      </trkpt>
      <trkpt lat="48.62145" lon="2.13558">
        <ele>109</ele>
        <time>2019-10-28T09:56:44.000Z</time>
      </trkpt>
      <trkpt lat="48.62146" lon="2.13559">
        <ele>109</ele>
        <time>2019-10-28T09:56:45.000Z</time>
      </trkpt>
      <trkpt lat="48.62146" lon="2.13559">
        <ele>109</ele>
        <time>2019-10-28T09:56:46.000Z</time>
      </trkpt>
      <trkpt lat="48.62147" lon="2.1356">
        <ele>109</ele>
        <time>2019-10-28T09:56:47.000Z</time>
      </trkpt>
      <trkpt lat="48.62148" lon="2.13561">
        <ele>109</ele>
        <time>2019-10-28T09:56:48.000Z</time>
      </trkpt>
      <trkpt lat="48.62149" lon="2.13562">
        <ele>109</ele>
        <time>2019-10-28T09:56:49.000Z</time>
      </trkpt>
      <trkpt lat="48.6215" lon="2.13563">
        <ele>109</ele>
        <time>2019-10-28T09:56:50.000Z</time>
      </trkpt>
      <trkpt lat="48.62151" lon="2.13564">
        <ele>109</ele>
        <time>2019-10-28T09:56:51.000Z</time>
      </trkpt>
      <trkpt lat="48.62152" lon="2.13565">
        <ele>109</ele>
        <time>2019-10-28T09:56:52.000Z</time>
      </trkpt>
      <trkpt lat="48.62152" lon="2.13567">
        <ele>109</ele>
        <time>2019-10-28T09:56:53.000Z</time>
      </trkpt>
      <trkpt lat="48.62153" lon="2.13569">
        <ele>109</ele>
        <time>2019-10-28T09:56:54.000Z</time>
      </trkpt>
      <trkpt lat="48.62153" lon="2.13571">
        <ele>109</ele>
        <time>2019-10-28T09:56:55.000Z</time>
      </trkpt>
      <trkpt lat="48.62153" lon="2.13573">
        <ele>109</ele>
        <time>2019-10-28T09:56:56.000Z</time>
      </trkpt>
      <trkpt lat="48.62153" lon="2.13575">
        <ele>109</ele>
        <time>2019-10-28T09:56:57.000Z</time>
      </trkpt>
      <trkpt lat="48.62153" lon="2.13577">
        <ele>109</ele>
        <time>2019-10-28T09:56:58.000Z</time>
      </trkpt>
      <trkpt lat="48.62153" lon="2.13579">
        <ele>110</ele>
        <time>2019-10-28T09:56:59.000Z</time>
      </trkpt>
      <trkpt lat="48.62152" lon="2.13581">
        <ele>109</ele>
        <time>2019-10-28T09:57:00.000Z</time>
      </trkpt>
      <trkpt lat="48.62152" lon="2.13583">
        <ele>109</ele>
        <time>2019-10-28T09:57:01.000Z</time>
      </trkpt>
      <trkpt lat="48.62151" lon="2.13585">
        <ele>109</ele>
        <time>2019-10-28T09:57:02.000Z</time>
      </trkpt>
      <trkpt lat="48.6215" lon="2.13586">
        <ele>109</ele>
        <time>2019-10-28T09:57:03.000Z</time>
      </trkpt>
      <trkpt lat="48.62149" lon="2.13588">
        <ele>109</ele>
        <time>2019-10-28T09:57:04.000Z</time>
      </trkpt>
      <trkpt lat="48.62149" lon="2.1359">
        <ele>109</ele>
        <time>2019-10-28T09:57:05.000Z</time>
      </trkpt>
      <trkpt lat="48.62148" lon="2.13591">
        <ele>109</ele>
        <time>2019-10-28T09:57:06.000Z</time>
      </trkpt>
      <trkpt lat="48.62148" lon="2.13593">
        <ele>109</ele>
        <time>2019-10-28T09:57:07.000Z</time>
      </trkpt>
      <trkpt lat="48.62147" lon="2.13594">
        <ele>109</ele>
        <time>2019-10-28T09:57:08.000Z</time>
      </trkpt>
      <trkpt lat="48.62146" lon="2.13596">
        <ele>109</ele>
        <time>2019-10-28T09:57:09.000Z</time>
      </trkpt>
      <trkpt lat="48.62146" lon="2.13598">
        <ele>109</ele>
        <time>2019-10-28T09:57:10.000Z</time>
      </trkpt>
      <trkpt lat="48.62145" lon="2.136">
        <ele>109</ele>
        <time>2019-10-28T09:57:11.000Z</time>
      </trkpt>
      <trkpt lat="48.62144" lon="2.13601">
        <ele>109</ele>
        <time>2019-10-28T09:57:12.000Z</time>
      </trkpt>
      <trkpt lat="48.62144" lon="2.13603">
        <ele>109</ele>
        <time>2019-10-28T09:57:13.000Z</time>
      </trkpt>
      <trkpt lat="48.62143" lon="2.13604">
        <ele>109</ele>
        <time>2019-10-28T09:57:14.000Z</time>
      </trkpt>
      <trkpt lat="48.62142" lon="2.13606">
        <ele>109</ele>
        <time>2019-10-28T09:57:15.000Z</time>
      </trkpt>
      <trkpt lat="48.62142" lon="2.13608">
        <ele>109</ele>
        <time>2019-10-28T09:57:16.000Z</time>
      </trkpt>
      <trkpt lat="48.62141" lon="2.1361">
        <ele>109</ele>
        <time>2019-10-28T09:57:17.000Z</time>
      </trkpt>
      <trkpt lat="48.62141" lon="2.13612">
        <ele>109</ele>
        <time>2019-10-28T09:57:18.000Z</time>
      </trkpt>
      <trkpt lat="48.6214" lon="2.13614">
        <ele>109</ele>
        <time>2019-10-28T09:57:19.000Z</time>
      </trkpt>
      <trkpt lat="48.6214" lon="2.13615">
        <ele>109</ele>
        <time>2019-10-28T09:57:20.000Z</time>
      </trkpt>
      <trkpt lat="48.6214" lon="2.13617">
        <ele>109</ele>
        <time>2019-10-28T09:57:21.000Z</time>
      </trkpt>
      <trkpt lat="48.62139" lon="2.13619">
        <ele>109</ele>
        <time>2019-10-28T09:57:22.000Z</time>
      </trkpt>
      <trkpt lat="48.62138" lon="2.13621">
        <ele>109</ele>
        <time>2019-10-28T09:57:23.000Z</time>
      </trkpt>
      <trkpt lat="48.62138" lon="2.13623">
        <ele>109</ele>
        <time>2019-10-28T09:57:24.000Z</time>
      </trkpt>
      <trkpt lat="48.62138" lon="2.13624">
        <ele>109</ele>
        <time>2019-10-28T09:57:25.000Z</time>
      </trkpt>
      <trkpt lat="48.62137" lon="2.13626">
        <ele>109</ele>
        <time>2019-10-28T09:57:26.000Z</time>
      </trkpt>
      <trkpt lat="48.62137" lon="2.13628">
        <ele>109</ele>
        <time>2019-10-28T09:57:27.000Z</time>
      </trkpt>
      <trkpt lat="48.62136" lon="2.1363">
        <ele>108</ele>
        <time>2019-10-28T09:57:28.000Z</time>
      </trkpt>
      <trkpt lat="48.62136" lon="2.13632">
        <ele>109</ele>
        <time>2019-10-28T09:57:29.000Z</time>
      </trkpt>
      <trkpt lat="48.62135" lon="2.13634">
        <ele>109</ele>
        <time>2019-10-28T09:57:30.000Z</time>
      </trkpt>
      <trkpt lat="48.62135" lon="2.13636">
        <ele>109</ele>
        <time>2019-10-28T09:57:31.000Z</time>
      </trkpt>
      <trkpt lat="48.62134" lon="2.13638">
        <ele>108</ele>
        <time>2019-10-28T09:57:32.000Z</time>
      </trkpt>
      <trkpt lat="48.62134" lon="2.13639">
        <ele>108</ele>
        <time>2019-10-28T09:57:33.000Z</time>
      </trkpt>
      <trkpt lat="48.62133" lon="2.13641">
        <ele>108</ele>
        <time>2019-10-28T09:57:34.000Z</time>
      </trkpt>
      <trkpt lat="48.62133" lon="2.13643">
        <ele>108</ele>
        <time>2019-10-28T09:57:35.000Z</time>
      </trkpt>
      <trkpt lat="48.62133" lon="2.13645">
        <ele>108</ele>
        <time>2019-10-28T09:57:36.000Z</time>
      </trkpt>
      <trkpt lat="48.62133" lon="2.13647">
        <ele>108</ele>
        <time>2019-10-28T09:57:37.000Z</time>
      </trkpt>
      <trkpt lat="48.62132" lon="2.13649">
        <ele>108</ele>
        <time>2019-10-28T09:57:38.000Z</time>
      </trkpt>
      <trkpt lat="48.62132" lon="2.1365">
        <ele>108</ele>
        <time>2019-10-28T09:57:39.000Z</time>
      </trkpt>
      <trkpt lat="48.62132" lon="2.13652">
        <ele>108</ele>
        <time>2019-10-28T09:57:40.000Z</time>
      </trkpt>
      <trkpt lat="48.62131" lon="2.13654">
        <ele>108</ele>
        <time>2019-10-28T09:57:41.000Z</time>
      </trkpt>
      <trkpt lat="48.62131" lon="2.13655">
        <ele>108</ele>
        <time>2019-10-28T09:57:42.000Z</time>
      </trkpt>
      <trkpt lat="48.62131" lon="2.13657">
        <ele>109</ele>
        <time>2019-10-28T09:57:43.000Z</time>
      </trkpt>
      <trkpt lat="48.6213" lon="2.13658">
        <ele>108</ele>
        <time>2019-10-28T09:57:44.000Z</time>
      </trkpt>
      <trkpt lat="48.6213" lon="2.1366">
        <ele>108</ele>
        <time>2019-10-28T09:57:45.000Z</time>
      </trkpt>
      <trkpt lat="48.62129" lon="2.13662">
        <ele>108</ele>
        <time>2019-10-28T09:57:46.000Z</time>
      </trkpt>
      <trkpt lat="48.62129" lon="2.13664">
        <ele>108</ele>
        <time>2019-10-28T09:57:47.000Z</time>
      </trkpt>
      <trkpt lat="48.62128" lon="2.13666">
        <ele>108</ele>
        <time>2019-10-28T09:57:48.000Z</time>
      </trkpt>
      <trkpt lat="48.62128" lon="2.13668">
        <ele>108</ele>
        <time>2019-10-28T09:57:49.000Z</time>
      </trkpt>
      <trkpt lat="48.62127" lon="2.1367">
        <ele>108</ele>
        <time>2019-10-28T09:57:50.000Z</time>
      </trkpt>
      <trkpt lat="48.62126" lon="2.13671">
        <ele>108</ele>
        <time>2019-10-28T09:57:51.000Z</time>
      </trkpt>
      <trkpt lat="48.62126" lon="2.13673">
        <ele>108</ele>
        <time>2019-10-28T09:57:52.000Z</time>
      </trkpt>
      <trkpt lat="48.62125" lon="2.13675">
        <ele>108</ele>
        <time>2019-10-28T09:57:53.000Z</time>
      </trkpt>
      <trkpt lat="48.62125" lon="2.13677">
        <ele>108</ele>
        <time>2019-10-28T09:57:54.000Z</time>
      </trkpt>
      <trkpt lat="48.62124" lon="2.13679">
        <ele>108</ele>
        <time>2019-10-28T09:57:55.000Z</time>
      </trkpt>
      <trkpt lat="48.62124" lon="2.13681">
        <ele>108</ele>
        <time>2019-10-28T09:57:56.000Z</time>
      </trkpt>
      <trkpt lat="48.62123" lon="2.13682">
        <ele>108</ele>
        <time>2019-10-28T09:57:57.000Z</time>
      </trkpt>
      <trkpt lat="48.62123" lon="2.13684">
        <ele>108</ele>
        <time>2019-10-28T09:57:58.000Z</time>
      </trkpt>
      <trkpt lat="48.62122" lon="2.13686">
        <ele>109</ele>
        <time>2019-10-28T09:57:59.000Z</time>
      </trkpt>
      <trkpt lat="48.62122" lon="2.13687">
        <ele>108</ele>
        <time>2019-10-28T09:58:00.000Z</time>
      </trkpt>
      <trkpt lat="48.62121" lon="2.13689">
        <ele>108</ele>
        <time>2019-10-28T09:58:01.000Z</time>
      </trkpt>
      <trkpt lat="48.62121" lon="2.13691">
        <ele>108</ele>
        <time>2019-10-28T09:58:02.000Z</time>
      </trkpt>
      <trkpt lat="48.62121" lon="2.13693">
        <ele>108</ele>
        <time>2019-10-28T09:58:03.000Z</time>
      </trkpt>
      <trkpt lat="48.6212" lon="2.13694">
        <ele>108</ele>
        <time>2019-10-28T09:58:04.000Z</time>
      </trkpt>
      <trkpt lat="48.62119" lon="2.13696">
        <ele>108</ele>
        <time>2019-10-28T09:58:05.000Z</time>
      </trkpt>
      <trkpt lat="48.62119" lon="2.13698">
        <ele>108</ele>
        <time>2019-10-28T09:58:06.000Z</time>
      </trkpt>
      <trkpt lat="48.62118" lon="2.137">
        <ele>108</ele>
        <time>2019-10-28T09:58:07.000Z</time>
      </trkpt>
      <trkpt lat="48.62117" lon="2.13701">
        <ele>108</ele>
        <time>2019-10-28T09:58:08.000Z</time>
      </trkpt>
      <trkpt lat="48.62116" lon="2.13703">
        <ele>108</ele>
        <time>2019-10-28T09:58:09.000Z</time>
      </trkpt>
      <trkpt lat="48.62116" lon="2.13704">
        <ele>108</ele>
        <time>2019-10-28T09:58:10.000Z</time>
      </trkpt>
      <trkpt lat="48.62115" lon="2.13706">
        <ele>108</ele>
        <time>2019-10-28T09:58:11.000Z</time>
      </trkpt>
      <trkpt lat="48.62115" lon="2.13707">
        <ele>107</ele>
        <time>2019-10-28T09:58:12.000Z</time>
      </trkpt>
      <trkpt lat="48.62114" lon="2.13709">
        <ele>107</ele>
        <time>2019-10-28T09:58:13.000Z</time>
      </trkpt>
      <trkpt lat="48.62113" lon="2.1371">
        <ele>107</ele>
        <time>2019-10-28T09:58:14.000Z</time>
      </trkpt>
      <trkpt lat="48.62113" lon="2.13712">
        <ele>107</ele>
        <time>2019-10-28T09:58:15.000Z</time>
      </trkpt>
      <trkpt lat="48.62112" lon="2.13714">
        <ele>107</ele>
        <time>2019-10-28T09:58:16.000Z</time>
      </trkpt>
      <trkpt lat="48.62112" lon="2.13715">
        <ele>107</ele>
        <time>2019-10-28T09:58:17.000Z</time>
      </trkpt>
      <trkpt lat="48.62111" lon="2.13717">
        <ele>107</ele>
        <time>2019-10-28T09:58:18.000Z</time>
      </trkpt>
      <trkpt lat="48.6211" lon="2.13719">
        <ele>107</ele>
        <time>2019-10-28T09:58:19.000Z</time>
      </trkpt>
      <trkpt lat="48.6211" lon="2.1372">
        <ele>107</ele>
        <time>2019-10-28T09:58:20.000Z</time>
      </trkpt>
      <trkpt lat="48.62109" lon="2.13722">
        <ele>108</ele>
        <time>2019-10-28T09:58:21.000Z</time>
      </trkpt>
      <trkpt lat="48.62108" lon="2.13724">
        <ele>108</ele>
        <time>2019-10-28T09:58:22.000Z</time>
      </trkpt>
      <trkpt lat="48.62108" lon="2.13725">
        <ele>108</ele>
        <time>2019-10-28T09:58:23.000Z</time>
      </trkpt>
      <trkpt lat="48.62107" lon="2.13727">
        <ele>107</ele>
        <time>2019-10-28T09:58:24.000Z</time>
      </trkpt>
      <trkpt lat="48.62106" lon="2.13728">
        <ele>107</ele>
        <time>2019-10-28T09:58:25.000Z</time>
      </trkpt>
      <trkpt lat="48.62105" lon="2.1373">
        <ele>107</ele>
        <time>2019-10-28T09:58:26.000Z</time>
      </trkpt>
      <trkpt lat="48.62105" lon="2.13731">
        <ele>107</ele>
        <time>2019-10-28T09:58:27.000Z</time>
      </trkpt>
      <trkpt lat="48.62104" lon="2.13733">
        <ele>107</ele>
        <time>2019-10-28T09:58:28.000Z</time>
      </trkpt>
      <trkpt lat="48.62103" lon="2.13734">
        <ele>107</ele>
        <time>2019-10-28T09:58:29.000Z</time>
      </trkpt>
      <trkpt lat="48.62103" lon="2.13736">
        <ele>107</ele>
        <time>2019-10-28T09:58:30.000Z</time>
      </trkpt>
      <trkpt lat="48.62102" lon="2.13738">
        <ele>108</ele>
        <time>2019-10-28T09:58:31.000Z</time>
      </trkpt>
      <trkpt lat="48.62101" lon="2.13739">
        <ele>108</ele>
        <time>2019-10-28T09:58:32.000Z</time>
      </trkpt>
      <trkpt lat="48.62101" lon="2.13741">
        <ele>108</ele>
        <time>2019-10-28T09:58:33.000Z</time>
      </trkpt>
      <trkpt lat="48.621" lon="2.13742">
        <ele>108</ele>
        <time>2019-10-28T09:58:34.000Z</time>
      </trkpt>
      <trkpt lat="48.62099" lon="2.13744">
        <ele>108</ele>
        <time>2019-10-28T09:58:35.000Z</time>
      </trkpt>
      <trkpt lat="48.62098" lon="2.13746">
        <ele>107</ele>
        <time>2019-10-28T09:58:36.000Z</time>
      </trkpt>
      <trkpt lat="48.62097" lon="2.13747">
        <ele>108</ele>
        <time>2019-10-28T09:58:37.000Z</time>
      </trkpt>
      <trkpt lat="48.62097" lon="2.13749">
        <ele>108</ele>
        <time>2019-10-28T09:58:38.000Z</time>
      </trkpt>
      <trkpt lat="48.62096" lon="2.1375">
        <ele>108</ele>
        <time>2019-10-28T09:58:39.000Z</time>
      </trkpt>
      <trkpt lat="48.62095" lon="2.13752">
        <ele>109</ele>
        <time>2019-10-28T09:58:40.000Z</time>
      </trkpt>
      <trkpt lat="48.62094" lon="2.13755">
        <ele>110</ele>
        <time>2019-10-28T09:58:41.000Z</time>
      </trkpt>
      <trkpt lat="48.62093" lon="2.13757">
        <ele>110</ele>
        <time>2019-10-28T09:58:42.000Z</time>
      </trkpt>
      <trkpt lat="48.62092" lon="2.13758">
        <ele>110</ele>
        <time>2019-10-28T09:58:43.000Z</time>
      </trkpt>
      <trkpt lat="48.62092" lon="2.1376">
        <ele>109</ele>
        <time>2019-10-28T09:58:44.000Z</time>
      </trkpt>
      <trkpt lat="48.62091" lon="2.13762">
        <ele>109</ele>
        <time>2019-10-28T09:58:45.000Z</time>
      </trkpt>
      <trkpt lat="48.6209" lon="2.13763">
        <ele>109</ele>
        <time>2019-10-28T09:58:46.000Z</time>
      </trkpt>
      <trkpt lat="48.62089" lon="2.13765">
        <ele>108</ele>
        <time>2019-10-28T09:58:47.000Z</time>
      </trkpt>
      <trkpt lat="48.62088" lon="2.13767">
        <ele>109</ele>
        <time>2019-10-28T09:58:48.000Z</time>
      </trkpt>
      <trkpt lat="48.62088" lon="2.13769">
        <ele>109</ele>
        <time>2019-10-28T09:58:49.000Z</time>
      </trkpt>
      <trkpt lat="48.62087" lon="2.1377">
        <ele>108</ele>
        <time>2019-10-28T09:58:50.000Z</time>
      </trkpt>
      <trkpt lat="48.62086" lon="2.13772">
        <ele>109</ele>
        <time>2019-10-28T09:58:51.000Z</time>
      </trkpt>
      <trkpt lat="48.62085" lon="2.13773">
        <ele>109</ele>
        <time>2019-10-28T09:58:52.000Z</time>
      </trkpt>
      <trkpt lat="48.62084" lon="2.13775">
        <ele>109</ele>
        <time>2019-10-28T09:58:53.000Z</time>
      </trkpt>
      <trkpt lat="48.62084" lon="2.13776">
        <ele>110</ele>
        <time>2019-10-28T09:58:54.000Z</time>
      </trkpt>
      <trkpt lat="48.62083" lon="2.13778">
        <ele>110</ele>
        <time>2019-10-28T09:58:55.000Z</time>
      </trkpt>
      <trkpt lat="48.62082" lon="2.13779">
        <ele>109</ele>
        <time>2019-10-28T09:58:56.000Z</time>
      </trkpt>
      <trkpt lat="48.62081" lon="2.13781">
        <ele>110</ele>
        <time>2019-10-28T09:58:57.000Z</time>
      </trkpt>
      <trkpt lat="48.62081" lon="2.13782">
        <ele>110</ele>
        <time>2019-10-28T09:58:58.000Z</time>
      </trkpt>
      <trkpt lat="48.6208" lon="2.13784">
        <ele>110</ele>
        <time>2019-10-28T09:58:59.000Z</time>
      </trkpt>
      <trkpt lat="48.62079" lon="2.13786">
        <ele>109</ele>
        <time>2019-10-28T09:59:00.000Z</time>
      </trkpt>
      <trkpt lat="48.62079" lon="2.13788">
        <ele>109</ele>
        <time>2019-10-28T09:59:01.000Z</time>
      </trkpt>
      <trkpt lat="48.62078" lon="2.13789">
        <ele>108</ele>
        <time>2019-10-28T09:59:02.000Z</time>
      </trkpt>
      <trkpt lat="48.62078" lon="2.13791">
        <ele>108</ele>
        <time>2019-10-28T09:59:03.000Z</time>
      </trkpt>
      <trkpt lat="48.62077" lon="2.13792">
        <ele>108</ele>
        <time>2019-10-28T09:59:04.000Z</time>
      </trkpt>
      <trkpt lat="48.62076" lon="2.13794">
        <ele>108</ele>
        <time>2019-10-28T09:59:05.000Z</time>
      </trkpt>
      <trkpt lat="48.62075" lon="2.13795">
        <ele>108</ele>
        <time>2019-10-28T09:59:06.000Z</time>
      </trkpt>
      <trkpt lat="48.62075" lon="2.13797">
        <ele>108</ele>
        <time>2019-10-28T09:59:07.000Z</time>
      </trkpt>
      <trkpt lat="48.62074" lon="2.13798">
        <ele>107</ele>
        <time>2019-10-28T09:59:08.000Z</time>
      </trkpt>
      <trkpt lat="48.62073" lon="2.138">
        <ele>106</ele>
        <time>2019-10-28T09:59:09.000Z</time>
      </trkpt>
      <trkpt lat="48.62073" lon="2.13802">
        <ele>107</ele>
        <time>2019-10-28T09:59:10.000Z</time>
      </trkpt>
      <trkpt lat="48.62072" lon="2.13803">
        <ele>106</ele>
        <time>2019-10-28T09:59:11.000Z</time>
      </trkpt>
      <trkpt lat="48.62071" lon="2.13805">
        <ele>106</ele>
        <time>2019-10-28T09:59:12.000Z</time>
      </trkpt>
      <trkpt lat="48.62071" lon="2.13807">
        <ele>106</ele>
        <time>2019-10-28T09:59:13.000Z</time>
      </trkpt>
      <trkpt lat="48.6207" lon="2.13809">
        <ele>107</ele>
        <time>2019-10-28T09:59:14.000Z</time>
      </trkpt>
      <trkpt lat="48.62069" lon="2.1381">
        <ele>107</ele>
        <time>2019-10-28T09:59:15.000Z</time>
      </trkpt>
      <trkpt lat="48.62069" lon="2.13812">
        <ele>107</ele>
        <time>2019-10-28T09:59:16.000Z</time>
      </trkpt>
      <trkpt lat="48.62068" lon="2.13814">
        <ele>106</ele>
        <time>2019-10-28T09:59:17.000Z</time>
      </trkpt>
      <trkpt lat="48.62068" lon="2.13815">
        <ele>107</ele>
        <time>2019-10-28T09:59:18.000Z</time>
      </trkpt>
      <trkpt lat="48.62067" lon="2.13817">
        <ele>107</ele>
        <time>2019-10-28T09:59:19.000Z</time>
      </trkpt>
      <trkpt lat="48.62067" lon="2.13819">
        <ele>107</ele>
        <time>2019-10-28T09:59:20.000Z</time>
      </trkpt>
      <trkpt lat="48.62066" lon="2.13821">
        <ele>108</ele>
        <time>2019-10-28T09:59:21.000Z</time>
      </trkpt>
      <trkpt lat="48.62066" lon="2.13822">
        <ele>108</ele>
        <time>2019-10-28T09:59:22.000Z</time>
      </trkpt>
      <trkpt lat="48.62065" lon="2.13824">
        <ele>108</ele>
        <time>2019-10-28T09:59:23.000Z</time>
      </trkpt>
      <trkpt lat="48.62065" lon="2.13825">
        <ele>109</ele>
        <time>2019-10-28T09:59:24.000Z</time>
      </trkpt>
      <trkpt lat="48.62064" lon="2.13827">
        <ele>109</ele>
        <time>2019-10-28T09:59:25.000Z</time>
      </trkpt>
      <trkpt lat="48.62064" lon="2.13829">
        <ele>109</ele>
        <time>2019-10-28T09:59:26.000Z</time>
      </trkpt>
      <trkpt lat="48.62063" lon="2.13831">
        <ele>110</ele>
        <time>2019-10-28T09:59:27.000Z</time>
      </trkpt>
      <trkpt lat="48.62063" lon="2.13832">
        <ele>110</ele>
        <time>2019-10-28T09:59:28.000Z</time>
      </trkpt>
      <trkpt lat="48.62062" lon="2.13834">
        <ele>111</ele>
        <time>2019-10-28T09:59:29.000Z</time>
      </trkpt>
      <trkpt lat="48.62061" lon="2.13836">
        <ele>111</ele>
        <time>2019-10-28T09:59:30.000Z</time>
      </trkpt>
      <trkpt lat="48.62061" lon="2.13838">
        <ele>111</ele>
        <time>2019-10-28T09:59:31.000Z</time>
      </trkpt>
      <trkpt lat="48.6206" lon="2.13839">
        <ele>111</ele>
        <time>2019-10-28T09:59:32.000Z</time>
      </trkpt>
      <trkpt lat="48.6206" lon="2.13841">
        <ele>110</ele>
        <time>2019-10-28T09:59:33.000Z</time>
      </trkpt>
      <trkpt lat="48.62059" lon="2.13843">
        <ele>110</ele>
        <time>2019-10-28T09:59:34.000Z</time>
      </trkpt>
      <trkpt lat="48.62059" lon="2.13845">
        <ele>110</ele>
        <time>2019-10-28T09:59:35.000Z</time>
      </trkpt>
      <trkpt lat="48.62058" lon="2.13846">
        <ele>111</ele>
        <time>2019-10-28T09:59:36.000Z</time>
      </trkpt>
      <trkpt lat="48.62057" lon="2.13848">
        <ele>111</ele>
        <time>2019-10-28T09:59:37.000Z</time>
      </trkpt>
      <trkpt lat="48.62057" lon="2.1385">
        <ele>110</ele>
        <time>2019-10-28T09:59:38.000Z</time>
      </trkpt>
      <trkpt lat="48.62057" lon="2.13851">
        <ele>110</ele>
        <time>2019-10-28T09:59:39.000Z</time>
      </trkpt>
      <trkpt lat="48.62056" lon="2.13853">
        <ele>110</ele>
        <time>2019-10-28T09:59:40.000Z</time>
      </trkpt>
      <trkpt lat="48.62056" lon="2.13855">
        <ele>110</ele>
        <time>2019-10-28T09:59:41.000Z</time>
      </trkpt>
      <trkpt lat="48.62055" lon="2.13857">
        <ele>110</ele>
        <time>2019-10-28T09:59:42.000Z</time>
      </trkpt>
      <trkpt lat="48.62055" lon="2.13859">
        <ele>111</ele>
        <time>2019-10-28T09:59:43.000Z</time>
      </trkpt>
      <trkpt lat="48.62054" lon="2.1386">
        <ele>111</ele>
        <time>2019-10-28T09:59:44.000Z</time>
      </trkpt>
      <trkpt lat="48.62054" lon="2.13862">
        <ele>111</ele>
        <time>2019-10-28T09:59:45.000Z</time>
      </trkpt>
      <trkpt lat="48.62053" lon="2.13864">
        <ele>110</ele>
        <time>2019-10-28T09:59:46.000Z</time>
      </trkpt>
      <trkpt lat="48.62053" lon="2.13866">
        <ele>110</ele>
        <time>2019-10-28T09:59:47.000Z</time>
      </trkpt>
      <trkpt lat="48.62052" lon="2.13868">
        <ele>110</ele>
        <time>2019-10-28T09:59:48.000Z</time>
      </trkpt>
      <trkpt lat="48.62052" lon="2.13869">
        <ele>111</ele>
        <time>2019-10-28T09:59:49.000Z</time>
      </trkpt>
      <trkpt lat="48.62051" lon="2.13871">
        <ele>110</ele>
        <time>2019-10-28T09:59:50.000Z</time>
      </trkpt>
      <trkpt lat="48.6205" lon="2.13873">
        <ele>110</ele>
        <time>2019-10-28T09:59:51.000Z</time>
      </trkpt>
      <trkpt lat="48.6205" lon="2.13874">
        <ele>110</ele>
        <time>2019-10-28T09:59:52.000Z</time>
      </trkpt>
      <trkpt lat="48.62049" lon="2.13876">
        <ele>110</ele>
        <time>2019-10-28T09:59:53.000Z</time>
      </trkpt>
      <trkpt lat="48.62049" lon="2.13878">
        <ele>110</ele>
        <time>2019-10-28T09:59:54.000Z</time>
      </trkpt>
      <trkpt lat="48.62048" lon="2.13879">
        <ele>110</ele>
        <time>2019-10-28T09:59:55.000Z</time>
      </trkpt>
      <trkpt lat="48.62048" lon="2.13881">
        <ele>110</ele>
        <time>2019-10-28T09:59:56.000Z</time>
      </trkpt>
      <trkpt lat="48.62047" lon="2.13883">
        <ele>110</ele>
        <time>2019-10-28T09:59:57.000Z</time>
      </trkpt>
      <trkpt lat="48.62046" lon="2.13884">
        <ele>111</ele>
        <time>2019-10-28T09:59:58.000Z</time>
      </trkpt>
      <trkpt lat="48.62046" lon="2.13886">
        <ele>111</ele>
        <time>2019-10-28T09:59:59.000Z</time>
      </trkpt>
      <trkpt lat="48.62045" lon="2.13888">
        <ele>111</ele>
        <time>2019-10-28T10:00:00.000Z</time>
      </trkpt>
      <trkpt lat="48.62045" lon="2.13889">
        <ele>111</ele>
        <time>2019-10-28T10:00:01.000Z</time>
      </trkpt>
      <trkpt lat="48.62044" lon="2.13891">
        <ele>110</ele>
        <time>2019-10-28T10:00:02.000Z</time>
      </trkpt>
      <trkpt lat="48.62043" lon="2.13893">
        <ele>110</ele>
        <time>2019-10-28T10:00:03.000Z</time>
      </trkpt>
      <trkpt lat="48.62043" lon="2.13894">
        <ele>110</ele>
        <time>2019-10-28T10:00:04.000Z</time>
      </trkpt>
      <trkpt lat="48.62042" lon="2.13896">
        <ele>110</ele>
        <time>2019-10-28T10:00:05.000Z</time>
      </trkpt>
      <trkpt lat="48.62042" lon="2.13898">
        <ele>110</ele>
        <time>2019-10-28T10:00:06.000Z</time>
      </trkpt>
      <trkpt lat="48.62041" lon="2.139">
        <ele>110</ele>
        <time>2019-10-28T10:00:07.000Z</time>
      </trkpt>
      <trkpt lat="48.62041" lon="2.13901">
        <ele>110</ele>
        <time>2019-10-28T10:00:08.000Z</time>
      </trkpt>
      <trkpt lat="48.6204" lon="2.13903">
        <ele>111</ele>
        <time>2019-10-28T10:00:09.000Z</time>
      </trkpt>
      <trkpt lat="48.62039" lon="2.13905">
        <ele>110</ele>
        <time>2019-10-28T10:00:10.000Z</time>
      </trkpt>
      <trkpt lat="48.62039" lon="2.13907">
        <ele>110</ele>
        <time>2019-10-28T10:00:11.000Z</time>
      </trkpt>
      <trkpt lat="48.62038" lon="2.13908">
        <ele>110</ele>
        <time>2019-10-28T10:00:12.000Z</time>
      </trkpt>
      <trkpt lat="48.62037" lon="2.1391">
        <ele>110</ele>
        <time>2019-10-28T10:00:13.000Z</time>
      </trkpt>
      <trkpt lat="48.62037" lon="2.13911">
        <ele>111</ele>
        <time>2019-10-28T10:00:14.000Z</time>
      </trkpt>
      <trkpt lat="48.62036" lon="2.13913">
        <ele>111</ele>
        <time>2019-10-28T10:00:15.000Z</time>
      </trkpt>
      <trkpt lat="48.62036" lon="2.13914">
        <ele>111</ele>
        <time>2019-10-28T10:00:16.000Z</time>
      </trkpt>
      <trkpt lat="48.62035" lon="2.13916">
        <ele>111</ele>
        <time>2019-10-28T10:00:17.000Z</time>
      </trkpt>
      <trkpt lat="48.62034" lon="2.13918">
        <ele>111</ele>
        <time>2019-10-28T10:00:18.000Z</time>
      </trkpt>
      <trkpt lat="48.62034" lon="2.13919">
        <ele>110</ele>
        <time>2019-10-28T10:00:19.000Z</time>
      </trkpt>
      <trkpt lat="48.62033" lon="2.13921">
        <ele>110</ele>
        <time>2019-10-28T10:00:20.000Z</time>
      </trkpt>
      <trkpt lat="48.62033" lon="2.13922">
        <ele>110</ele>
        <time>2019-10-28T10:00:21.000Z</time>
      </trkpt>
      <trkpt lat="48.62032" lon="2.13924">
        <ele>110</ele>
        <time>2019-10-28T10:00:22.000Z</time>
      </trkpt>
      <trkpt lat="48.62032" lon="2.13926">
        <ele>110</ele>
        <time>2019-10-28T10:00:23.000Z</time>
      </trkpt>
      <trkpt lat="48.62032" lon="2.13927">
        <ele>110</ele>
        <time>2019-10-28T10:00:24.000Z</time>
      </trkpt>
      <trkpt lat="48.62031" lon="2.13929">
        <ele>110</ele>
        <time>2019-10-28T10:00:25.000Z</time>
      </trkpt>
      <trkpt lat="48.62031" lon="2.13931">
        <ele>110</ele>
        <time>2019-10-28T10:00:26.000Z</time>
      </trkpt>
      <trkpt lat="48.62031" lon="2.13933">
        <ele>110</ele>
        <time>2019-10-28T10:00:27.000Z</time>
      </trkpt>
      <trkpt lat="48.62031" lon="2.13934">
        <ele>110</ele>
        <time>2019-10-28T10:00:28.000Z</time>
      </trkpt>
      <trkpt lat="48.6203" lon="2.13936">
        <ele>110</ele>
        <time>2019-10-28T10:00:29.000Z</time>
      </trkpt>
      <trkpt lat="48.6203" lon="2.13938">
        <ele>111</ele>
        <time>2019-10-28T10:00:30.000Z</time>
      </trkpt>
      <trkpt lat="48.62031" lon="2.13939">
        <ele>111</ele>
        <time>2019-10-28T10:00:31.000Z</time>
      </trkpt>
      <trkpt lat="48.62031" lon="2.13941">
        <ele>111</ele>
        <time>2019-10-28T10:00:32.000Z</time>
      </trkpt>
      <trkpt lat="48.62031" lon="2.13943">
        <ele>111</ele>
        <time>2019-10-28T10:00:33.000Z</time>
      </trkpt>
      <trkpt lat="48.62032" lon="2.13944">
        <ele>111</ele>
        <time>2019-10-28T10:00:34.000Z</time>
      </trkpt>
      <trkpt lat="48.62033" lon="2.13945">
        <ele>112</ele>
        <time>2019-10-28T10:00:35.000Z</time>
      </trkpt>
      <trkpt lat="48.62034" lon="2.13947">
        <ele>112</ele>
        <time>2019-10-28T10:00:36.000Z</time>
      </trkpt>
      <trkpt lat="48.62035" lon="2.13948">
        <ele>112</ele>
        <time>2019-10-28T10:00:37.000Z</time>
      </trkpt>
      <trkpt lat="48.62036" lon="2.13949">
        <ele>112</ele>
        <time>2019-10-28T10:00:38.000Z</time>
      </trkpt>
      <trkpt lat="48.62037" lon="2.1395">
        <ele>112</ele>
        <time>2019-10-28T10:00:39.000Z</time>
      </trkpt>
      <trkpt lat="48.62038" lon="2.1395">
        <ele>112</ele>
        <time>2019-10-28T10:00:40.000Z</time>
      </trkpt>
      <trkpt lat="48.62039" lon="2.13951">
        <ele>112</ele>
        <time>2019-10-28T10:00:41.000Z</time>
      </trkpt>
      <trkpt lat="48.6204" lon="2.13952">
        <ele>112</ele>
        <time>2019-10-28T10:00:42.000Z</time>
      </trkpt>
      <trkpt lat="48.62041" lon="2.13953">
        <ele>112</ele>
        <time>2019-10-28T10:00:43.000Z</time>
      </trkpt>
      <trkpt lat="48.62042" lon="2.13954">
        <ele>112</ele>
        <time>2019-10-28T10:00:44.000Z</time>
      </trkpt>
      <trkpt lat="48.62043" lon="2.13955">
        <ele>112</ele>
        <time>2019-10-28T10:00:45.000Z</time>
      </trkpt>
      <trkpt lat="48.62044" lon="2.13957">
        <ele>112</ele>
        <time>2019-10-28T10:00:46.000Z</time>
      </trkpt>
      <trkpt lat="48.62045" lon="2.13958">
        <ele>112</ele>
        <time>2019-10-28T10:00:47.000Z</time>
      </trkpt>
      <trkpt lat="48.62046" lon="2.13959">
        <ele>113</ele>
        <time>2019-10-28T10:00:48.000Z</time>
      </trkpt>
      <trkpt lat="48.62047" lon="2.1396">
        <ele>113</ele>
        <time>2019-10-28T10:00:49.000Z</time>
      </trkpt>
      <trkpt lat="48.62048" lon="2.13961">
        <ele>113</ele>
        <time>2019-10-28T10:00:50.000Z</time>
      </trkpt>
      <trkpt lat="48.62049" lon="2.13962">
        <ele>113</ele>
        <time>2019-10-28T10:00:51.000Z</time>
      </trkpt>
      <trkpt lat="48.6205" lon="2.13962">
        <ele>113</ele>
        <time>2019-10-28T10:00:52.000Z</time>
      </trkpt>
      <trkpt lat="48.62051" lon="2.13963">
        <ele>113</ele>
        <time>2019-10-28T10:00:53.000Z</time>
      </trkpt>
      <trkpt lat="48.62052" lon="2.13964">
        <ele>113</ele>
        <time>2019-10-28T10:00:54.000Z</time>
      </trkpt>
      <trkpt lat="48.62053" lon="2.13965">
        <ele>114</ele>
        <time>2019-10-28T10:00:55.000Z</time>
      </trkpt>
      <trkpt lat="48.62054" lon="2.13966">
        <ele>114</ele>
        <time>2019-10-28T10:00:56.000Z</time>
      </trkpt>
      <trkpt lat="48.62056" lon="2.13967">
        <ele>113</ele>
        <time>2019-10-28T10:00:57.000Z</time>
      </trkpt>
      <trkpt lat="48.62057" lon="2.13968">
        <ele>114</ele>
        <time>2019-10-28T10:00:58.000Z</time>
      </trkpt>
      <trkpt lat="48.62058" lon="2.13968">
        <ele>114</ele>
        <time>2019-10-28T10:00:59.000Z</time>
      </trkpt>
      <trkpt lat="48.62059" lon="2.13969">
        <ele>114</ele>
        <time>2019-10-28T10:01:00.000Z</time>
      </trkpt>
      <trkpt lat="48.6206" lon="2.1397">
        <ele>114</ele>
        <time>2019-10-28T10:01:01.000Z</time>
      </trkpt>
      <trkpt lat="48.62061" lon="2.13971">
        <ele>114</ele>
        <time>2019-10-28T10:01:02.000Z</time>
      </trkpt>
      <trkpt lat="48.62062" lon="2.13971">
        <ele>114</ele>
        <time>2019-10-28T10:01:03.000Z</time>
      </trkpt>
      <trkpt lat="48.62063" lon="2.13972">
        <ele>114</ele>
        <time>2019-10-28T10:01:04.000Z</time>
      </trkpt>
      <trkpt lat="48.62064" lon="2.13973">
        <ele>114</ele>
        <time>2019-10-28T10:01:05.000Z</time>
      </trkpt>
      <trkpt lat="48.62066" lon="2.13974">
        <ele>114</ele>
        <time>2019-10-28T10:01:06.000Z</time>
      </trkpt>
      <trkpt lat="48.62067" lon="2.13974">
        <ele>114</ele>
        <time>2019-10-28T10:01:07.000Z</time>
      </trkpt>
      <trkpt lat="48.62068" lon="2.13975">
        <ele>114</ele>
        <time>2019-10-28T10:01:08.000Z</time>
      </trkpt>
      <trkpt lat="48.62069" lon="2.13975">
        <ele>114</ele>
        <time>2019-10-28T10:01:09.000Z</time>
      </trkpt>
      <trkpt lat="48.6207" lon="2.13976">
        <ele>114</ele>
        <time>2019-10-28T10:01:10.000Z</time>
      </trkpt>
      <trkpt lat="48.62071" lon="2.13976">
        <ele>114</ele>
        <time>2019-10-28T10:01:11.000Z</time>
      </trkpt>
      <trkpt lat="48.62072" lon="2.13977">
        <ele>114</ele>
        <time>2019-10-28T10:01:12.000Z</time>
      </trkpt>
      <trkpt lat="48.62073" lon="2.13977">
        <ele>114</ele>
        <time>2019-10-28T10:01:13.000Z</time>
      </trkpt>
      <trkpt lat="48.62074" lon="2.13977">
        <ele>114</ele>
        <time>2019-10-28T10:01:14.000Z</time>
      </trkpt>
      <trkpt lat="48.62075" lon="2.13977">
        <ele>115</ele>
        <time>2019-10-28T10:01:15.000Z</time>
      </trkpt>
      <trkpt lat="48.62076" lon="2.13976">
        <ele>115</ele>
        <time>2019-10-28T10:01:16.000Z</time>
      </trkpt>
      <trkpt lat="48.62077" lon="2.13976">
        <ele>115</ele>
        <time>2019-10-28T10:01:17.000Z</time>
      </trkpt>
      <trkpt lat="48.62078" lon="2.13976">
        <ele>115</ele>
        <time>2019-10-28T10:01:18.000Z</time>
      </trkpt>
      <trkpt lat="48.62079" lon="2.13976">
        <ele>115</ele>
        <time>2019-10-28T10:01:19.000Z</time>
      </trkpt>
      <trkpt lat="48.6208" lon="2.13976">
        <ele>115</ele>
        <time>2019-10-28T10:01:20.000Z</time>
      </trkpt>
      <trkpt lat="48.62081" lon="2.13977">
        <ele>115</ele>
        <time>2019-10-28T10:01:21.000Z</time>
      </trkpt>
      <trkpt lat="48.62081" lon="2.13977">
        <ele>115</ele>
        <time>2019-10-28T10:01:22.000Z</time>
      </trkpt>
      <trkpt lat="48.62082" lon="2.13978">
        <ele>114</ele>
        <time>2019-10-28T10:01:23.000Z</time>
      </trkpt>
      <trkpt lat="48.62082" lon="2.13979">
        <ele>114</ele>
        <time>2019-10-28T10:01:24.000Z</time>
      </trkpt>
      <trkpt lat="48.62082" lon="2.13981">
        <ele>114</ele>
        <time>2019-10-28T10:01:25.000Z</time>
      </trkpt>
      <trkpt lat="48.62082" lon="2.13983">
        <ele>114</ele>
        <time>2019-10-28T10:01:26.000Z</time>
      </trkpt>
      <trkpt lat="48.62082" lon="2.13985">
        <ele>114</ele>
        <time>2019-10-28T10:01:27.000Z</time>
      </trkpt>
      <trkpt lat="48.62083" lon="2.13986">
        <ele>115</ele>
        <time>2019-10-28T10:01:28.000Z</time>
      </trkpt>
      <trkpt lat="48.62084" lon="2.13987">
        <ele>115</ele>
        <time>2019-10-28T10:01:29.000Z</time>
      </trkpt>
      <trkpt lat="48.62085" lon="2.13988">
        <ele>115</ele>
        <time>2019-10-28T10:01:30.000Z</time>
      </trkpt>
      <trkpt lat="48.62085" lon="2.13988">
        <ele>115</ele>
        <time>2019-10-28T10:01:31.000Z</time>
      </trkpt>
      <trkpt lat="48.62086" lon="2.13989">
        <ele>115</ele>
        <time>2019-10-28T10:01:32.000Z</time>
      </trkpt>
      <trkpt lat="48.62087" lon="2.13989">
        <ele>115</ele>
        <time>2019-10-28T10:01:33.000Z</time>
      </trkpt>
      <trkpt lat="48.62087" lon="2.13989">
        <ele>115</ele>
        <time>2019-10-28T10:01:34.000Z</time>
      </trkpt>
      <trkpt lat="48.62088" lon="2.13989">
        <ele>115</ele>
        <time>2019-10-28T10:01:35.000Z</time>
      </trkpt>
      <trkpt lat="48.62088" lon="2.13989">
        <ele>115</ele>
        <time>2019-10-28T10:01:36.000Z</time>
      </trkpt>
      <trkpt lat="48.62088" lon="2.13989">
        <ele>115</ele>
        <time>2019-10-28T10:01:37.000Z</time>
      </trkpt>
      <trkpt lat="48.62088" lon="2.13989">
        <ele>115</ele>
        <time>2019-10-28T10:01:38.000Z</time>
      </trkpt>
      <trkpt lat="48.62088" lon="2.13989">
        <ele>115</ele>
        <time>2019-10-28T10:01:39.000Z</time>
      </trkpt>
      <trkpt lat="48.62088" lon="2.13989">
        <ele>115</ele>
        <time>2019-10-28T10:01:40.000Z</time>
      </trkpt>
      <trkpt lat="48.62089" lon="2.13989">
        <ele>115</ele>
        <time>2019-10-28T10:01:41.000Z</time>
      </trkpt>
      <trkpt lat="48.62089" lon="2.13989">
        <ele>115</ele>
        <time>2019-10-28T10:01:42.000Z</time>
      </trkpt>
      <trkpt lat="48.6209" lon="2.1399">
        <ele>115</ele>
        <time>2019-10-28T10:01:43.000Z</time>
      </trkpt>
      <trkpt lat="48.62091" lon="2.1399">
        <ele>115</ele>
        <time>2019-10-28T10:01:44.000Z</time>
      </trkpt>
      <trkpt lat="48.62092" lon="2.13991">
        <ele>115</ele>
        <time>2019-10-28T10:01:45.000Z</time>
      </trkpt>
      <trkpt lat="48.62093" lon="2.13991">
        <ele>115</ele>
        <time>2019-10-28T10:01:46.000Z</time>
      </trkpt>
      <trkpt lat="48.62094" lon="2.13992">
        <ele>115</ele>
        <time>2019-10-28T10:01:47.000Z</time>
      </trkpt>
      <trkpt lat="48.62096" lon="2.13992">
        <ele>115</ele>
        <time>2019-10-28T10:01:48.000Z</time>
      </trkpt>
      <trkpt lat="48.62097" lon="2.13993">
        <ele>115</ele>
        <time>2019-10-28T10:01:49.000Z</time>
      </trkpt>
      <trkpt lat="48.62099" lon="2.13994">
        <ele>115</ele>
        <time>2019-10-28T10:01:50.000Z</time>
      </trkpt>
      <trkpt lat="48.621" lon="2.13994">
        <ele>115</ele>
        <time>2019-10-28T10:01:51.000Z</time>
      </trkpt>
      <trkpt lat="48.62101" lon="2.13995">
        <ele>115</ele>
        <time>2019-10-28T10:01:52.000Z</time>
      </trkpt>
      <trkpt lat="48.62102" lon="2.13996">
        <ele>115</ele>
        <time>2019-10-28T10:01:53.000Z</time>
      </trkpt>
      <trkpt lat="48.62103" lon="2.13997">
        <ele>115</ele>
        <time>2019-10-28T10:01:54.000Z</time>
      </trkpt>
      <trkpt lat="48.62105" lon="2.13998">
        <ele>115</ele>
        <time>2019-10-28T10:01:55.000Z</time>
      </trkpt>
      <trkpt lat="48.62106" lon="2.13999">
        <ele>115</ele>
        <time>2019-10-28T10:01:56.000Z</time>
      </trkpt>
      <trkpt lat="48.62107" lon="2.14">
        <ele>115</ele>
        <time>2019-10-28T10:01:57.000Z</time>
      </trkpt>
      <trkpt lat="48.62108" lon="2.14">
        <ele>114</ele>
        <time>2019-10-28T10:01:58.000Z</time>
      </trkpt>
      <trkpt lat="48.62109" lon="2.14001">
        <ele>115</ele>
        <time>2019-10-28T10:01:59.000Z</time>
      </trkpt>
      <trkpt lat="48.6211" lon="2.14002">
        <ele>114</ele>
        <time>2019-10-28T10:02:00.000Z</time>
      </trkpt>
      <trkpt lat="48.62111" lon="2.14002">
        <ele>115</ele>
        <time>2019-10-28T10:02:01.000Z</time>
      </trkpt>
      <trkpt lat="48.62112" lon="2.14003">
        <ele>114</ele>
        <time>2019-10-28T10:02:02.000Z</time>
      </trkpt>
      <trkpt lat="48.62113" lon="2.14003">
        <ele>115</ele>
        <time>2019-10-28T10:02:03.000Z</time>
      </trkpt>
      <trkpt lat="48.62115" lon="2.14003">
        <ele>115</ele>
        <time>2019-10-28T10:02:04.000Z</time>
      </trkpt>
      <trkpt lat="48.62116" lon="2.14003">
        <ele>115</ele>
        <time>2019-10-28T10:02:05.000Z</time>
      </trkpt>
      <trkpt lat="48.62117" lon="2.14002">
        <ele>115</ele>
        <time>2019-10-28T10:02:06.000Z</time>
      </trkpt>
      <trkpt lat="48.62118" lon="2.14002">
        <ele>115</ele>
        <time>2019-10-28T10:02:07.000Z</time>
      </trkpt>
      <trkpt lat="48.6212" lon="2.14002">
        <ele>115</ele>
        <time>2019-10-28T10:02:08.000Z</time>
      </trkpt>
      <trkpt lat="48.62121" lon="2.14001">
        <ele>115</ele>
        <time>2019-10-28T10:02:09.000Z</time>
      </trkpt>
      <trkpt lat="48.62122" lon="2.14001">
        <ele>115</ele>
        <time>2019-10-28T10:02:10.000Z</time>
      </trkpt>
      <trkpt lat="48.62123" lon="2.14001">
        <ele>115</ele>
        <time>2019-10-28T10:02:11.000Z</time>
      </trkpt>
      <trkpt lat="48.62124" lon="2.14">
        <ele>115</ele>
        <time>2019-10-28T10:02:12.000Z</time>
      </trkpt>
      <trkpt lat="48.62125" lon="2.14">
        <ele>115</ele>
        <time>2019-10-28T10:02:13.000Z</time>
      </trkpt>
      <trkpt lat="48.62126" lon="2.14">
        <ele>116</ele>
        <time>2019-10-28T10:02:14.000Z</time>
      </trkpt>
      <trkpt lat="48.62128" lon="2.13999">
        <ele>116</ele>
        <time>2019-10-28T10:02:15.000Z</time>
      </trkpt>
      <trkpt lat="48.62129" lon="2.13998">
        <ele>117</ele>
        <time>2019-10-28T10:02:16.000Z</time>
      </trkpt>
      <trkpt lat="48.62131" lon="2.13998">
        <ele>116</ele>
        <time>2019-10-28T10:02:17.000Z</time>
      </trkpt>
      <trkpt lat="48.62132" lon="2.13997">
        <ele>116</ele>
        <time>2019-10-28T10:02:18.000Z</time>
      </trkpt>
      <trkpt lat="48.62133" lon="2.13996">
        <ele>116</ele>
        <time>2019-10-28T10:02:19.000Z</time>
      </trkpt>
      <trkpt lat="48.62135" lon="2.13995">
        <ele>117</ele>
        <time>2019-10-28T10:02:20.000Z</time>
      </trkpt>
      <trkpt lat="48.62136" lon="2.13995">
        <ele>117</ele>
        <time>2019-10-28T10:02:21.000Z</time>
      </trkpt>
      <trkpt lat="48.62137" lon="2.13994">
        <ele>117</ele>
        <time>2019-10-28T10:02:22.000Z</time>
      </trkpt>
      <trkpt lat="48.62138" lon="2.13994">
        <ele>118</ele>
        <time>2019-10-28T10:02:23.000Z</time>
      </trkpt>
      <trkpt lat="48.62139" lon="2.13993">
        <ele>118</ele>
        <time>2019-10-28T10:02:24.000Z</time>
      </trkpt>
      <trkpt lat="48.62141" lon="2.13993">
        <ele>117</ele>
        <time>2019-10-28T10:02:25.000Z</time>
      </trkpt>
      <trkpt lat="48.62142" lon="2.13992">
        <ele>118</ele>
        <time>2019-10-28T10:02:26.000Z</time>
      </trkpt>
      <trkpt lat="48.62143" lon="2.13991">
        <ele>118</ele>
        <time>2019-10-28T10:02:27.000Z</time>
      </trkpt>
      <trkpt lat="48.62144" lon="2.13991">
        <ele>118</ele>
        <time>2019-10-28T10:02:28.000Z</time>
      </trkpt>
      <trkpt lat="48.62146" lon="2.1399">
        <ele>118</ele>
        <time>2019-10-28T10:02:29.000Z</time>
      </trkpt>
      <trkpt lat="48.62147" lon="2.1399">
        <ele>118</ele>
        <time>2019-10-28T10:02:30.000Z</time>
      </trkpt>
      <trkpt lat="48.62148" lon="2.13989">
        <ele>118</ele>
        <time>2019-10-28T10:02:31.000Z</time>
      </trkpt>
      <trkpt lat="48.62149" lon="2.13989">
        <ele>118</ele>
        <time>2019-10-28T10:02:32.000Z</time>
      </trkpt>
      <trkpt lat="48.6215" lon="2.13988">
        <ele>118</ele>
        <time>2019-10-28T10:02:33.000Z</time>
      </trkpt>
      <trkpt lat="48.62151" lon="2.13988">
        <ele>118</ele>
        <time>2019-10-28T10:02:34.000Z</time>
      </trkpt>
      <trkpt lat="48.62153" lon="2.13988">
        <ele>118</ele>
        <time>2019-10-28T10:02:35.000Z</time>
      </trkpt>
      <trkpt lat="48.62154" lon="2.13987">
        <ele>119</ele>
        <time>2019-10-28T10:02:36.000Z</time>
      </trkpt>
      <trkpt lat="48.62155" lon="2.13987">
        <ele>119</ele>
        <time>2019-10-28T10:02:37.000Z</time>
      </trkpt>
      <trkpt lat="48.62157" lon="2.13986">
        <ele>119</ele>
        <time>2019-10-28T10:02:38.000Z</time>
      </trkpt>
      <trkpt lat="48.62158" lon="2.13986">
        <ele>119</ele>
        <time>2019-10-28T10:02:39.000Z</time>
      </trkpt>
      <trkpt lat="48.62159" lon="2.13986">
        <ele>119</ele>
        <time>2019-10-28T10:02:40.000Z</time>
      </trkpt>
      <trkpt lat="48.6216" lon="2.13985">
        <ele>119</ele>
        <time>2019-10-28T10:02:41.000Z</time>
      </trkpt>
      <trkpt lat="48.62162" lon="2.13985">
        <ele>119</ele>
        <time>2019-10-28T10:02:42.000Z</time>
      </trkpt>
      <trkpt lat="48.62163" lon="2.13984">
        <ele>119</ele>
        <time>2019-10-28T10:02:43.000Z</time>
      </trkpt>
      <trkpt lat="48.62164" lon="2.13984">
        <ele>119</ele>
        <time>2019-10-28T10:02:44.000Z</time>
      </trkpt>
      <trkpt lat="48.62165" lon="2.13984">
        <ele>119</ele>
        <time>2019-10-28T10:02:45.000Z</time>
      </trkpt>
      <trkpt lat="48.62166" lon="2.13984">
        <ele>119</ele>
        <time>2019-10-28T10:02:46.000Z</time>
      </trkpt>
      <trkpt lat="48.62168" lon="2.13983">
        <ele>120</ele>
        <time>2019-10-28T10:02:47.000Z</time>
      </trkpt>
      <trkpt lat="48.62169" lon="2.13983">
        <ele>120</ele>
        <time>2019-10-28T10:02:48.000Z</time>
      </trkpt>
      <trkpt lat="48.6217" lon="2.13982">
        <ele>120</ele>
        <time>2019-10-28T10:02:49.000Z</time>
      </trkpt>
      <trkpt lat="48.62172" lon="2.13982">
        <ele>120</ele>
        <time>2019-10-28T10:02:50.000Z</time>
      </trkpt>
      <trkpt lat="48.62173" lon="2.13982">
        <ele>120</ele>
        <time>2019-10-28T10:02:51.000Z</time>
      </trkpt>
      <trkpt lat="48.62174" lon="2.13981">
        <ele>120</ele>
        <time>2019-10-28T10:02:52.000Z</time>
      </trkpt>
      <trkpt lat="48.62175" lon="2.13981">
        <ele>121</ele>
        <time>2019-10-28T10:02:53.000Z</time>
      </trkpt>
      <trkpt lat="48.62176" lon="2.1398">
        <ele>121</ele>
        <time>2019-10-28T10:02:54.000Z</time>
      </trkpt>
      <trkpt lat="48.62177" lon="2.1398">
        <ele>121</ele>
        <time>2019-10-28T10:02:55.000Z</time>
      </trkpt>
      <trkpt lat="48.62178" lon="2.1398">
        <ele>121</ele>
        <time>2019-10-28T10:02:56.000Z</time>
      </trkpt>
      <trkpt lat="48.62179" lon="2.13979">
        <ele>122</ele>
        <time>2019-10-28T10:02:57.000Z</time>
      </trkpt>
      <trkpt lat="48.6218" lon="2.13979">
        <ele>123</ele>
        <time>2019-10-28T10:02:58.000Z</time>
      </trkpt>
      <trkpt lat="48.62182" lon="2.13979">
        <ele>123</ele>
        <time>2019-10-28T10:02:59.000Z</time>
      </trkpt>
      <trkpt lat="48.62183" lon="2.13978">
        <ele>122</ele>
        <time>2019-10-28T10:03:00.000Z</time>
      </trkpt>
      <trkpt lat="48.62185" lon="2.13978">
        <ele>122</ele>
        <time>2019-10-28T10:03:01.000Z</time>
      </trkpt>
      <trkpt lat="48.62186" lon="2.13977">
        <ele>122</ele>
        <time>2019-10-28T10:03:02.000Z</time>
      </trkpt>
      <trkpt lat="48.62187" lon="2.13977">
        <ele>122</ele>
        <time>2019-10-28T10:03:03.000Z</time>
      </trkpt>
      <trkpt lat="48.62188" lon="2.13976">
        <ele>122</ele>
        <time>2019-10-28T10:03:04.000Z</time>
      </trkpt>
      <trkpt lat="48.62189" lon="2.13976">
        <ele>120</ele>
        <time>2019-10-28T10:03:05.000Z</time>
      </trkpt>
      <trkpt lat="48.6219" lon="2.13975">
        <ele>120</ele>
        <time>2019-10-28T10:03:06.000Z</time>
      </trkpt>
      <trkpt lat="48.62191" lon="2.13975">
        <ele>120</ele>
        <time>2019-10-28T10:03:07.000Z</time>
      </trkpt>
      <trkpt lat="48.62192" lon="2.13975">
        <ele>121</ele>
        <time>2019-10-28T10:03:08.000Z</time>
      </trkpt>
      <trkpt lat="48.62194" lon="2.13974">
        <ele>122</ele>
        <time>2019-10-28T10:03:09.000Z</time>
      </trkpt>
      <trkpt lat="48.62195" lon="2.13974">
        <ele>123</ele>
        <time>2019-10-28T10:03:10.000Z</time>
      </trkpt>
      <trkpt lat="48.62196" lon="2.13974">
        <ele>123</ele>
        <time>2019-10-28T10:03:11.000Z</time>
      </trkpt>
      <trkpt lat="48.62197" lon="2.13974">
        <ele>124</ele>
        <time>2019-10-28T10:03:12.000Z</time>
      </trkpt>
      <trkpt lat="48.62198" lon="2.13974">
        <ele>125</ele>
        <time>2019-10-28T10:03:13.000Z</time>
      </trkpt>
      <trkpt lat="48.62199" lon="2.13974">
        <ele>126</ele>
        <time>2019-10-28T10:03:14.000Z</time>
      </trkpt>
      <trkpt lat="48.622" lon="2.13974">
        <ele>127</ele>
        <time>2019-10-28T10:03:15.000Z</time>
      </trkpt>
      <trkpt lat="48.62201" lon="2.13974">
        <ele>128</ele>
        <time>2019-10-28T10:03:16.000Z</time>
      </trkpt>
      <trkpt lat="48.62202" lon="2.13974">
        <ele>129</ele>
        <time>2019-10-28T10:03:17.000Z</time>
      </trkpt>
      <trkpt lat="48.62203" lon="2.13974">
        <ele>129</ele>
        <time>2019-10-28T10:03:18.000Z</time>
      </trkpt>
      <trkpt lat="48.62203" lon="2.13974">
        <ele>129</ele>
        <time>2019-10-28T10:03:19.000Z</time>
      </trkpt>
      <trkpt lat="48.62204" lon="2.13974">
        <ele>129</ele>
        <time>2019-10-28T10:03:20.000Z</time>
      </trkpt>
      <trkpt lat="48.62205" lon="2.13974">
        <ele>129</ele>
        <time>2019-10-28T10:03:21.000Z</time>
      </trkpt>
      <trkpt lat="48.62206" lon="2.13974">
        <ele>129</ele>
        <time>2019-10-28T10:03:22.000Z</time>
      </trkpt>
      <trkpt lat="48.62207" lon="2.13974">
        <ele>130</ele>
        <time>2019-10-28T10:03:23.000Z</time>
      </trkpt>
      <trkpt lat="48.62208" lon="2.13974">
        <ele>130</ele>
        <time>2019-10-28T10:03:24.000Z</time>
      </trkpt>
      <trkpt lat="48.62209" lon="2.13974">
        <ele>129</ele>
        <time>2019-10-28T10:03:25.000Z</time>
      </trkpt>
      <trkpt lat="48.62211" lon="2.13974">
        <ele>129</ele>
        <time>2019-10-28T10:03:26.000Z</time>
      </trkpt>
      <trkpt lat="48.62213" lon="2.13974">
        <ele>129</ele>
        <time>2019-10-28T10:03:27.000Z</time>
      </trkpt>
      <trkpt lat="48.62214" lon="2.13974">
        <ele>130</ele>
        <time>2019-10-28T10:03:28.000Z</time>
      </trkpt>
      <trkpt lat="48.62215" lon="2.13973">
        <ele>130</ele>
        <time>2019-10-28T10:03:29.000Z</time>
      </trkpt>
      <trkpt lat="48.62217" lon="2.13974">
        <ele>129</ele>
        <time>2019-10-28T10:03:30.000Z</time>
      </trkpt>
      <trkpt lat="48.62218" lon="2.13974">
        <ele>128</ele>
        <time>2019-10-28T10:03:31.000Z</time>
      </trkpt>
      <trkpt lat="48.62219" lon="2.13974">
        <ele>128</ele>
        <time>2019-10-28T10:03:32.000Z</time>
      </trkpt>
      <trkpt lat="48.6222" lon="2.13975">
        <ele>129</ele>
        <time>2019-10-28T10:03:33.000Z</time>
      </trkpt>
      <trkpt lat="48.6222" lon="2.13975">
        <ele>129</ele>
        <time>2019-10-28T10:03:34.000Z</time>
      </trkpt>
      <trkpt lat="48.62221" lon="2.13975">
        <ele>129</ele>
        <time>2019-10-28T10:03:35.000Z</time>
      </trkpt>
      <trkpt lat="48.62222" lon="2.13976">
        <ele>129</ele>
        <time>2019-10-28T10:03:36.000Z</time>
      </trkpt>
      <trkpt lat="48.62223" lon="2.13976">
        <ele>129</ele>
        <time>2019-10-28T10:03:37.000Z</time>
      </trkpt>
      <trkpt lat="48.62224" lon="2.13976">
        <ele>129</ele>
        <time>2019-10-28T10:03:38.000Z</time>
      </trkpt>
      <trkpt lat="48.62225" lon="2.13976">
        <ele>129</ele>
        <time>2019-10-28T10:03:39.000Z</time>
      </trkpt>
      <trkpt lat="48.62226" lon="2.13976">
        <ele>129</ele>
        <time>2019-10-28T10:03:40.000Z</time>
      </trkpt>
      <trkpt lat="48.62227" lon="2.13976">
        <ele>129</ele>
        <time>2019-10-28T10:03:41.000Z</time>
      </trkpt>
      <trkpt lat="48.62228" lon="2.13975">
        <ele>130</ele>
        <time>2019-10-28T10:03:42.000Z</time>
      </trkpt>
      <trkpt lat="48.62229" lon="2.13975">
        <ele>130</ele>
        <time>2019-10-28T10:03:43.000Z</time>
      </trkpt>
      <trkpt lat="48.6223" lon="2.13975">
        <ele>131</ele>
        <time>2019-10-28T10:03:44.000Z</time>
      </trkpt>
      <trkpt lat="48.62231" lon="2.13975">
        <ele>132</ele>
        <time>2019-10-28T10:03:45.000Z</time>
      </trkpt>
      <trkpt lat="48.62232" lon="2.13976">
        <ele>132</ele>
        <time>2019-10-28T10:03:46.000Z</time>
      </trkpt>
      <trkpt lat="48.62233" lon="2.13976">
        <ele>132</ele>
        <time>2019-10-28T10:03:47.000Z</time>
      </trkpt>
      <trkpt lat="48.62234" lon="2.13976">
        <ele>133</ele>
        <time>2019-10-28T10:03:48.000Z</time>
      </trkpt>
      <trkpt lat="48.62235" lon="2.13976">
        <ele>133</ele>
        <time>2019-10-28T10:03:49.000Z</time>
      </trkpt>
      <trkpt lat="48.62236" lon="2.13977">
        <ele>133</ele>
        <time>2019-10-28T10:03:50.000Z</time>
      </trkpt>
      <trkpt lat="48.62237" lon="2.13977">
        <ele>133</ele>
        <time>2019-10-28T10:03:51.000Z</time>
      </trkpt>
      <trkpt lat="48.62238" lon="2.13977">
        <ele>134</ele>
        <time>2019-10-28T10:03:52.000Z</time>
      </trkpt>
      <trkpt lat="48.62239" lon="2.13977">
        <ele>135</ele>
        <time>2019-10-28T10:03:53.000Z</time>
      </trkpt>
      <trkpt lat="48.6224" lon="2.13977">
        <ele>135</ele>
        <time>2019-10-28T10:03:54.000Z</time>
      </trkpt>
      <trkpt lat="48.62241" lon="2.13978">
        <ele>135</ele>
        <time>2019-10-28T10:03:55.000Z</time>
      </trkpt>
      <trkpt lat="48.62242" lon="2.13978">
        <ele>135</ele>
        <time>2019-10-28T10:03:56.000Z</time>
      </trkpt>
      <trkpt lat="48.62243" lon="2.13978">
        <ele>135</ele>
        <time>2019-10-28T10:03:57.000Z</time>
      </trkpt>
      <trkpt lat="48.62245" lon="2.13979">
        <ele>135</ele>
        <time>2019-10-28T10:03:58.000Z</time>
      </trkpt>
      <trkpt lat="48.62246" lon="2.13979">
        <ele>135</ele>
        <time>2019-10-28T10:03:59.000Z</time>
      </trkpt>
      <trkpt lat="48.62247" lon="2.13979">
        <ele>135</ele>
        <time>2019-10-28T10:04:00.000Z</time>
      </trkpt>
      <trkpt lat="48.62248" lon="2.1398">
        <ele>135</ele>
        <time>2019-10-28T10:04:01.000Z</time>
      </trkpt>
      <trkpt lat="48.62249" lon="2.1398">
        <ele>135</ele>
        <time>2019-10-28T10:04:02.000Z</time>
      </trkpt>
      <trkpt lat="48.62251" lon="2.1398">
        <ele>135</ele>
        <time>2019-10-28T10:04:03.000Z</time>
      </trkpt>
      <trkpt lat="48.62252" lon="2.13981">
        <ele>134</ele>
        <time>2019-10-28T10:04:04.000Z</time>
      </trkpt>
      <trkpt lat="48.62253" lon="2.13981">
        <ele>134</ele>
        <time>2019-10-28T10:04:05.000Z</time>
      </trkpt>
      <trkpt lat="48.62254" lon="2.13982">
        <ele>134</ele>
        <time>2019-10-28T10:04:06.000Z</time>
      </trkpt>
      <trkpt lat="48.62255" lon="2.13982">
        <ele>134</ele>
        <time>2019-10-28T10:04:07.000Z</time>
      </trkpt>
      <trkpt lat="48.62256" lon="2.13983">
        <ele>135</ele>
        <time>2019-10-28T10:04:08.000Z</time>
      </trkpt>
      <trkpt lat="48.62257" lon="2.13983">
        <ele>135</ele>
        <time>2019-10-28T10:04:09.000Z</time>
      </trkpt>
      <trkpt lat="48.62258" lon="2.13984">
        <ele>135</ele>
        <time>2019-10-28T10:04:10.000Z</time>
      </trkpt>
      <trkpt lat="48.62259" lon="2.13984">
        <ele>135</ele>
        <time>2019-10-28T10:04:11.000Z</time>
      </trkpt>
      <trkpt lat="48.62261" lon="2.13985">
        <ele>135</ele>
        <time>2019-10-28T10:04:12.000Z</time>
      </trkpt>
      <trkpt lat="48.62263" lon="2.13986">
        <ele>134</ele>
        <time>2019-10-28T10:04:13.000Z</time>
      </trkpt>
      <trkpt lat="48.62265" lon="2.13986">
        <ele>134</ele>
        <time>2019-10-28T10:04:14.000Z</time>
      </trkpt>
      <trkpt lat="48.62267" lon="2.13987">
        <ele>134</ele>
        <time>2019-10-28T10:04:15.000Z</time>
      </trkpt>
      <trkpt lat="48.62268" lon="2.13988">
        <ele>134</ele>
        <time>2019-10-28T10:04:16.000Z</time>
      </trkpt>
      <trkpt lat="48.62269" lon="2.13989">
        <ele>134</ele>
        <time>2019-10-28T10:04:17.000Z</time>
      </trkpt>
      <trkpt lat="48.62271" lon="2.1399">
        <ele>134</ele>
        <time>2019-10-28T10:04:18.000Z</time>
      </trkpt>
      <trkpt lat="48.62272" lon="2.13991">
        <ele>134</ele>
        <time>2019-10-28T10:04:19.000Z</time>
      </trkpt>
      <trkpt lat="48.62273" lon="2.13991">
        <ele>134</ele>
        <time>2019-10-28T10:04:20.000Z</time>
      </trkpt>
      <trkpt lat="48.62274" lon="2.13992">
        <ele>135</ele>
        <time>2019-10-28T10:04:21.000Z</time>
      </trkpt>
      <trkpt lat="48.62275" lon="2.13992">
        <ele>135</ele>
        <time>2019-10-28T10:04:22.000Z</time>
      </trkpt>
      <trkpt lat="48.62276" lon="2.13993">
        <ele>134</ele>
        <time>2019-10-28T10:04:23.000Z</time>
      </trkpt>
      <trkpt lat="48.62277" lon="2.13994">
        <ele>135</ele>
        <time>2019-10-28T10:04:24.000Z</time>
      </trkpt>
      <trkpt lat="48.62278" lon="2.13994">
        <ele>135</ele>
        <time>2019-10-28T10:04:25.000Z</time>
      </trkpt>
      <trkpt lat="48.62279" lon="2.13995">
        <ele>135</ele>
        <time>2019-10-28T10:04:26.000Z</time>
      </trkpt>
      <trkpt lat="48.6228" lon="2.13996">
        <ele>136</ele>
        <time>2019-10-28T10:04:27.000Z</time>
      </trkpt>
      <trkpt lat="48.62281" lon="2.13996">
        <ele>136</ele>
        <time>2019-10-28T10:04:28.000Z</time>
      </trkpt>
      <trkpt lat="48.62282" lon="2.13997">
        <ele>136</ele>
        <time>2019-10-28T10:04:29.000Z</time>
      </trkpt>
      <trkpt lat="48.62284" lon="2.13998">
        <ele>136</ele>
        <time>2019-10-28T10:04:30.000Z</time>
      </trkpt>
      <trkpt lat="48.62285" lon="2.13999">
        <ele>137</ele>
        <time>2019-10-28T10:04:31.000Z</time>
      </trkpt>
      <trkpt lat="48.62286" lon="2.13999">
        <ele>137</ele>
        <time>2019-10-28T10:04:32.000Z</time>
      </trkpt>
      <trkpt lat="48.62287" lon="2.14">
        <ele>138</ele>
        <time>2019-10-28T10:04:33.000Z</time>
      </trkpt>
      <trkpt lat="48.62288" lon="2.14001">
        <ele>138</ele>
        <time>2019-10-28T10:04:34.000Z</time>
      </trkpt>
      <trkpt lat="48.62289" lon="2.14001">
        <ele>138</ele>
        <time>2019-10-28T10:04:35.000Z</time>
      </trkpt>
      <trkpt lat="48.62289" lon="2.14002">
        <ele>138</ele>
        <time>2019-10-28T10:04:36.000Z</time>
      </trkpt>
      <trkpt lat="48.6229" lon="2.14002">
        <ele>138</ele>
        <time>2019-10-28T10:04:37.000Z</time>
      </trkpt>
      <trkpt lat="48.62291" lon="2.14003">
        <ele>139</ele>
        <time>2019-10-28T10:04:38.000Z</time>
      </trkpt>
      <trkpt lat="48.62292" lon="2.14004">
        <ele>139</ele>
        <time>2019-10-28T10:04:39.000Z</time>
      </trkpt>
      <trkpt lat="48.62294" lon="2.14005">
        <ele>140</ele>
        <time>2019-10-28T10:04:40.000Z</time>
      </trkpt>
      <trkpt lat="48.62295" lon="2.14006">
        <ele>140</ele>
        <time>2019-10-28T10:04:41.000Z</time>
      </trkpt>
      <trkpt lat="48.62296" lon="2.14007">
        <ele>140</ele>
        <time>2019-10-28T10:04:42.000Z</time>
      </trkpt>
      <trkpt lat="48.62297" lon="2.14007">
        <ele>141</ele>
        <time>2019-10-28T10:04:43.000Z</time>
      </trkpt>
      <trkpt lat="48.62298" lon="2.14008">
        <ele>142</ele>
        <time>2019-10-28T10:04:44.000Z</time>
      </trkpt>
      <trkpt lat="48.62299" lon="2.14009">
        <ele>143</ele>
        <time>2019-10-28T10:04:45.000Z</time>
      </trkpt>
      <trkpt lat="48.623" lon="2.14009">
        <ele>143</ele>
        <time>2019-10-28T10:04:46.000Z</time>
      </trkpt>
      <trkpt lat="48.62302" lon="2.14009">
        <ele>143</ele>
        <time>2019-10-28T10:04:47.000Z</time>
      </trkpt>
      <trkpt lat="48.62303" lon="2.1401">
        <ele>143</ele>
        <time>2019-10-28T10:04:48.000Z</time>
      </trkpt>
      <trkpt lat="48.62304" lon="2.14011">
        <ele>143</ele>
        <time>2019-10-28T10:04:49.000Z</time>
      </trkpt>
      <trkpt lat="48.62306" lon="2.14011">
        <ele>142</ele>
        <time>2019-10-28T10:04:50.000Z</time>
      </trkpt>
      <trkpt lat="48.62307" lon="2.14011">
        <ele>142</ele>
        <time>2019-10-28T10:04:51.000Z</time>
      </trkpt>
      <trkpt lat="48.62308" lon="2.14012">
        <ele>142</ele>
        <time>2019-10-28T10:04:52.000Z</time>
      </trkpt>
      <trkpt lat="48.62308" lon="2.14012">
        <ele>143</ele>
        <time>2019-10-28T10:04:53.000Z</time>
      </trkpt>
      <trkpt lat="48.62309" lon="2.14013">
        <ele>143</ele>
        <time>2019-10-28T10:04:54.000Z</time>
      </trkpt>
      <trkpt lat="48.6231" lon="2.14014">
        <ele>143</ele>
        <time>2019-10-28T10:04:55.000Z</time>
      </trkpt>
      <trkpt lat="48.62311" lon="2.14015">
        <ele>143</ele>
        <time>2019-10-28T10:04:56.000Z</time>
      </trkpt>
      <trkpt lat="48.62312" lon="2.14016">
        <ele>143</ele>
        <time>2019-10-28T10:04:57.000Z</time>
      </trkpt>
      <trkpt lat="48.62313" lon="2.14017">
        <ele>143</ele>
        <time>2019-10-28T10:04:58.000Z</time>
      </trkpt>
      <trkpt lat="48.62314" lon="2.14018">
        <ele>143</ele>
        <time>2019-10-28T10:04:59.000Z</time>
      </trkpt>
      <trkpt lat="48.62314" lon="2.14018">
        <ele>143</ele>
        <time>2019-10-28T10:05:00.000Z</time>
      </trkpt>
      <trkpt lat="48.62315" lon="2.14019">
        <ele>143</ele>
        <time>2019-10-28T10:05:01.000Z</time>
      </trkpt>
      <trkpt lat="48.62316" lon="2.14019">
        <ele>143</ele>
        <time>2019-10-28T10:05:02.000Z</time>
      </trkpt>
      <trkpt lat="48.62317" lon="2.14019">
        <ele>143</ele>
        <time>2019-10-28T10:05:03.000Z</time>
      </trkpt>
      <trkpt lat="48.62318" lon="2.1402">
        <ele>144</ele>
        <time>2019-10-28T10:05:04.000Z</time>
      </trkpt>
      <trkpt lat="48.62319" lon="2.1402">
        <ele>144</ele>
        <time>2019-10-28T10:05:05.000Z</time>
      </trkpt>
      <trkpt lat="48.6232" lon="2.14021">
        <ele>145</ele>
        <time>2019-10-28T10:05:06.000Z</time>
      </trkpt>
      <trkpt lat="48.62321" lon="2.14022">
        <ele>145</ele>
        <time>2019-10-28T10:05:07.000Z</time>
      </trkpt>
      <trkpt lat="48.62322" lon="2.14023">
        <ele>146</ele>
        <time>2019-10-28T10:05:08.000Z</time>
      </trkpt>
      <trkpt lat="48.62323" lon="2.14024">
        <ele>146</ele>
        <time>2019-10-28T10:05:09.000Z</time>
      </trkpt>
      <trkpt lat="48.62324" lon="2.14025">
        <ele>146</ele>
        <time>2019-10-28T10:05:10.000Z</time>
      </trkpt>
      <trkpt lat="48.62325" lon="2.14025">
        <ele>145</ele>
        <time>2019-10-28T10:05:11.000Z</time>
      </trkpt>
      <trkpt lat="48.62326" lon="2.14026">
        <ele>146</ele>
        <time>2019-10-28T10:05:12.000Z</time>
      </trkpt>
      <trkpt lat="48.62326" lon="2.14027">
        <ele>145</ele>
        <time>2019-10-28T10:05:13.000Z</time>
      </trkpt>
      <trkpt lat="48.62327" lon="2.14028">
        <ele>145</ele>
        <time>2019-10-28T10:05:14.000Z</time>
      </trkpt>
      <trkpt lat="48.62328" lon="2.14029">
        <ele>146</ele>
        <time>2019-10-28T10:05:15.000Z</time>
      </trkpt>
      <trkpt lat="48.62329" lon="2.1403">
        <ele>146</ele>
        <time>2019-10-28T10:05:16.000Z</time>
      </trkpt>
      <trkpt lat="48.6233" lon="2.14032">
        <ele>147</ele>
        <time>2019-10-28T10:05:17.000Z</time>
      </trkpt>
      <trkpt lat="48.62331" lon="2.14033">
        <ele>147</ele>
        <time>2019-10-28T10:05:18.000Z</time>
      </trkpt>
      <trkpt lat="48.62332" lon="2.14034">
        <ele>147</ele>
        <time>2019-10-28T10:05:19.000Z</time>
      </trkpt>
      <trkpt lat="48.62333" lon="2.14035">
        <ele>147</ele>
        <time>2019-10-28T10:05:20.000Z</time>
      </trkpt>
      <trkpt lat="48.62333" lon="2.14036">
        <ele>147</ele>
        <time>2019-10-28T10:05:21.000Z</time>
      </trkpt>
      <trkpt lat="48.62334" lon="2.14037">
        <ele>148</ele>
        <time>2019-10-28T10:05:22.000Z</time>
      </trkpt>
      <trkpt lat="48.62335" lon="2.14039">
        <ele>147</ele>
        <time>2019-10-28T10:05:23.000Z</time>
      </trkpt>
      <trkpt lat="48.62336" lon="2.1404">
        <ele>147</ele>
        <time>2019-10-28T10:05:24.000Z</time>
      </trkpt>
      <trkpt lat="48.62337" lon="2.14041">
        <ele>148</ele>
        <time>2019-10-28T10:05:25.000Z</time>
      </trkpt>
      <trkpt lat="48.62338" lon="2.14043">
        <ele>149</ele>
        <time>2019-10-28T10:05:26.000Z</time>
      </trkpt>
      <trkpt lat="48.62339" lon="2.14043">
        <ele>149</ele>
        <time>2019-10-28T10:05:27.000Z</time>
      </trkpt>
      <trkpt lat="48.6234" lon="2.14044">
        <ele>149</ele>
        <time>2019-10-28T10:05:28.000Z</time>
      </trkpt>
      <trkpt lat="48.62341" lon="2.14045">
        <ele>150</ele>
        <time>2019-10-28T10:05:29.000Z</time>
      </trkpt>
      <trkpt lat="48.62341" lon="2.14046">
        <ele>150</ele>
        <time>2019-10-28T10:05:30.000Z</time>
      </trkpt>
      <trkpt lat="48.62342" lon="2.14047">
        <ele>149</ele>
        <time>2019-10-28T10:05:31.000Z</time>
      </trkpt>
      <trkpt lat="48.62343" lon="2.14049">
        <ele>148</ele>
        <time>2019-10-28T10:05:32.000Z</time>
      </trkpt>
      <trkpt lat="48.62344" lon="2.14051">
        <ele>148</ele>
        <time>2019-10-28T10:05:33.000Z</time>
      </trkpt>
      <trkpt lat="48.62345" lon="2.14052">
        <ele>147</ele>
        <time>2019-10-28T10:05:34.000Z</time>
      </trkpt>
      <trkpt lat="48.62346" lon="2.14054">
        <ele>147</ele>
        <time>2019-10-28T10:05:35.000Z</time>
      </trkpt>
      <trkpt lat="48.62347" lon="2.14055">
        <ele>146</ele>
        <time>2019-10-28T10:05:36.000Z</time>
      </trkpt>
      <trkpt lat="48.62348" lon="2.14057">
        <ele>146</ele>
        <time>2019-10-28T10:05:37.000Z</time>
      </trkpt>
      <trkpt lat="48.62349" lon="2.14059">
        <ele>147</ele>
        <time>2019-10-28T10:05:38.000Z</time>
      </trkpt>
      <trkpt lat="48.6235" lon="2.1406">
        <ele>146</ele>
        <time>2019-10-28T10:05:39.000Z</time>
      </trkpt>
      <trkpt lat="48.62351" lon="2.14062">
        <ele>144</ele>
        <time>2019-10-28T10:05:40.000Z</time>
      </trkpt>
      <trkpt lat="48.62353" lon="2.14064">
        <ele>143</ele>
        <time>2019-10-28T10:05:41.000Z</time>
      </trkpt>
      <trkpt lat="48.62354" lon="2.14065">
        <ele>143</ele>
        <time>2019-10-28T10:05:42.000Z</time>
      </trkpt>
      <trkpt lat="48.62355" lon="2.14067">
        <ele>143</ele>
        <time>2019-10-28T10:05:43.000Z</time>
      </trkpt>
      <trkpt lat="48.62356" lon="2.14068">
        <ele>142</ele>
        <time>2019-10-28T10:05:44.000Z</time>
      </trkpt>
      <trkpt lat="48.62357" lon="2.1407">
        <ele>142</ele>
        <time>2019-10-28T10:05:45.000Z</time>
      </trkpt>
      <trkpt lat="48.62358" lon="2.14071">
        <ele>141</ele>
        <time>2019-10-28T10:05:46.000Z</time>
      </trkpt>
      <trkpt lat="48.62358" lon="2.14073">
        <ele>141</ele>
        <time>2019-10-28T10:05:47.000Z</time>
      </trkpt>
      <trkpt lat="48.62359" lon="2.14075">
        <ele>141</ele>
        <time>2019-10-28T10:05:48.000Z</time>
      </trkpt>
      <trkpt lat="48.6236" lon="2.14076">
        <ele>142</ele>
        <time>2019-10-28T10:05:49.000Z</time>
      </trkpt>
      <trkpt lat="48.6236" lon="2.14078">
        <ele>142</ele>
        <time>2019-10-28T10:05:50.000Z</time>
      </trkpt>
      <trkpt lat="48.62361" lon="2.1408">
        <ele>142</ele>
        <time>2019-10-28T10:05:51.000Z</time>
      </trkpt>
      <trkpt lat="48.62362" lon="2.14081">
        <ele>142</ele>
        <time>2019-10-28T10:05:52.000Z</time>
      </trkpt>
      <trkpt lat="48.62362" lon="2.14082">
        <ele>142</ele>
        <time>2019-10-28T10:05:53.000Z</time>
      </trkpt>
      <trkpt lat="48.62363" lon="2.14084">
        <ele>142</ele>
        <time>2019-10-28T10:05:54.000Z</time>
      </trkpt>
      <trkpt lat="48.62364" lon="2.14086">
        <ele>142</ele>
        <time>2019-10-28T10:05:55.000Z</time>
      </trkpt>
      <trkpt lat="48.62365" lon="2.14087">
        <ele>142</ele>
        <time>2019-10-28T10:05:56.000Z</time>
      </trkpt>
      <trkpt lat="48.62365" lon="2.14089">
        <ele>142</ele>
        <time>2019-10-28T10:05:57.000Z</time>
      </trkpt>
      <trkpt lat="48.62365" lon="2.14091">
        <ele>142</ele>
        <time>2019-10-28T10:05:58.000Z</time>
      </trkpt>
      <trkpt lat="48.62366" lon="2.14093">
        <ele>143</ele>
        <time>2019-10-28T10:05:59.000Z</time>
      </trkpt>
      <trkpt lat="48.62366" lon="2.14094">
        <ele>143</ele>
        <time>2019-10-28T10:06:00.000Z</time>
      </trkpt>
      <trkpt lat="48.62367" lon="2.14096">
        <ele>144</ele>
        <time>2019-10-28T10:06:01.000Z</time>
      </trkpt>
      <trkpt lat="48.62368" lon="2.14098">
        <ele>143</ele>
        <time>2019-10-28T10:06:02.000Z</time>
      </trkpt>
      <trkpt lat="48.62369" lon="2.141">
        <ele>144</ele>
        <time>2019-10-28T10:06:03.000Z</time>
      </trkpt>
      <trkpt lat="48.6237" lon="2.14102">
        <ele>145</ele>
        <time>2019-10-28T10:06:04.000Z</time>
      </trkpt>
      <trkpt lat="48.62371" lon="2.14104">
        <ele>145</ele>
        <time>2019-10-28T10:06:05.000Z</time>
      </trkpt>
      <trkpt lat="48.62371" lon="2.14106">
        <ele>146</ele>
        <time>2019-10-28T10:06:06.000Z</time>
      </trkpt>
      <trkpt lat="48.62372" lon="2.14107">
        <ele>146</ele>
        <time>2019-10-28T10:06:07.000Z</time>
      </trkpt>
      <trkpt lat="48.62373" lon="2.14109">
        <ele>146</ele>
        <time>2019-10-28T10:06:08.000Z</time>
      </trkpt>
      <trkpt lat="48.62373" lon="2.14111">
        <ele>146</ele>
        <time>2019-10-28T10:06:09.000Z</time>
      </trkpt>
      <trkpt lat="48.62374" lon="2.14112">
        <ele>146</ele>
        <time>2019-10-28T10:06:10.000Z</time>
      </trkpt>
      <trkpt lat="48.62375" lon="2.14114">
        <ele>147</ele>
        <time>2019-10-28T10:06:11.000Z</time>
      </trkpt>
      <trkpt lat="48.62375" lon="2.14115">
        <ele>146</ele>
        <time>2019-10-28T10:06:12.000Z</time>
      </trkpt>
      <trkpt lat="48.62376" lon="2.14117">
        <ele>146</ele>
        <time>2019-10-28T10:06:13.000Z</time>
      </trkpt>
      <trkpt lat="48.62377" lon="2.14119">
        <ele>146</ele>
        <time>2019-10-28T10:06:14.000Z</time>
      </trkpt>
      <trkpt lat="48.62378" lon="2.1412">
        <ele>147</ele>
        <time>2019-10-28T10:06:15.000Z</time>
      </trkpt>
      <trkpt lat="48.62378" lon="2.14122">
        <ele>147</ele>
        <time>2019-10-28T10:06:16.000Z</time>
      </trkpt>
      <trkpt lat="48.62379" lon="2.14123">
        <ele>148</ele>
        <time>2019-10-28T10:06:17.000Z</time>
      </trkpt>
      <trkpt lat="48.6238" lon="2.14125">
        <ele>148</ele>
        <time>2019-10-28T10:06:18.000Z</time>
      </trkpt>
      <trkpt lat="48.6238" lon="2.14126">
        <ele>148</ele>
        <time>2019-10-28T10:06:19.000Z</time>
      </trkpt>
      <trkpt lat="48.62381" lon="2.14127">
        <ele>149</ele>
        <time>2019-10-28T10:06:20.000Z</time>
      </trkpt>
      <trkpt lat="48.62382" lon="2.14128">
        <ele>150</ele>
        <time>2019-10-28T10:06:21.000Z</time>
      </trkpt>
      <trkpt lat="48.62383" lon="2.1413">
        <ele>150</ele>
        <time>2019-10-28T10:06:22.000Z</time>
      </trkpt>
      <trkpt lat="48.62383" lon="2.14131">
        <ele>151</ele>
        <time>2019-10-28T10:06:23.000Z</time>
      </trkpt>
      <trkpt lat="48.62384" lon="2.14132">
        <ele>151</ele>
        <time>2019-10-28T10:06:24.000Z</time>
      </trkpt>
      <trkpt lat="48.62385" lon="2.14133">
        <ele>152</ele>
        <time>2019-10-28T10:06:25.000Z</time>
      </trkpt>
      <trkpt lat="48.62385" lon="2.14135">
        <ele>152</ele>
        <time>2019-10-28T10:06:26.000Z</time>
      </trkpt>
      <trkpt lat="48.62386" lon="2.14136">
        <ele>152</ele>
        <time>2019-10-28T10:06:27.000Z</time>
      </trkpt>
      <trkpt lat="48.62387" lon="2.14137">
        <ele>152</ele>
        <time>2019-10-28T10:06:28.000Z</time>
      </trkpt>
      <trkpt lat="48.62388" lon="2.14138">
        <ele>152</ele>
        <time>2019-10-28T10:06:29.000Z</time>
      </trkpt>
      <trkpt lat="48.62389" lon="2.14139">
        <ele>152</ele>
        <time>2019-10-28T10:06:30.000Z</time>
      </trkpt>
      <trkpt lat="48.62389" lon="2.1414">
        <ele>152</ele>
        <time>2019-10-28T10:06:31.000Z</time>
      </trkpt>
      <trkpt lat="48.6239" lon="2.14141">
        <ele>152</ele>
        <time>2019-10-28T10:06:32.000Z</time>
      </trkpt>
      <trkpt lat="48.6239" lon="2.14141">
        <ele>152</ele>
        <time>2019-10-28T10:06:33.000Z</time>
      </trkpt>
      <trkpt lat="48.6239" lon="2.14141">
        <ele>152</ele>
        <time>2019-10-28T10:06:34.000Z</time>
      </trkpt>
      <trkpt lat="48.6239" lon="2.14141">
        <ele>152</ele>
        <time>2019-10-28T10:06:35.000Z</time>
      </trkpt>
      <trkpt lat="48.62391" lon="2.14141">
        <ele>152</ele>
        <time>2019-10-28T10:06:36.000Z</time>
      </trkpt>
      <trkpt lat="48.62391" lon="2.14141">
        <ele>152</ele>
        <time>2019-10-28T10:06:37.000Z</time>
      </trkpt>
      <trkpt lat="48.62391" lon="2.14141">
        <ele>151</ele>
        <time>2019-10-28T10:06:38.000Z</time>
      </trkpt>
      <trkpt lat="48.62391" lon="2.14141">
        <ele>151</ele>
        <time>2019-10-28T10:06:39.000Z</time>
      </trkpt>
      <trkpt lat="48.62391" lon="2.14141">
        <ele>151</ele>
        <time>2019-10-28T10:06:40.000Z</time>
      </trkpt>
      <trkpt lat="48.62391" lon="2.14142">
        <ele>150</ele>
        <time>2019-10-28T10:06:41.000Z</time>
      </trkpt>
      <trkpt lat="48.62391" lon="2.14142">
        <ele>150</ele>
        <time>2019-10-28T10:06:42.000Z</time>
      </trkpt>
      <trkpt lat="48.62392" lon="2.14144">
        <ele>149</ele>
        <time>2019-10-28T10:06:43.000Z</time>
      </trkpt>
      <trkpt lat="48.62393" lon="2.14145">
        <ele>149</ele>
        <time>2019-10-28T10:06:44.000Z</time>
      </trkpt>
      <trkpt lat="48.62394" lon="2.14146">
        <ele>149</ele>
        <time>2019-10-28T10:06:45.000Z</time>
      </trkpt>
      <trkpt lat="48.62395" lon="2.14147">
        <ele>149</ele>
        <time>2019-10-28T10:06:46.000Z</time>
      </trkpt>
      <trkpt lat="48.62396" lon="2.14148">
        <ele>151</ele>
        <time>2019-10-28T10:06:47.000Z</time>
      </trkpt>
      <trkpt lat="48.62397" lon="2.14149">
        <ele>152</ele>
        <time>2019-10-28T10:06:48.000Z</time>
      </trkpt>
      <trkpt lat="48.62399" lon="2.14151">
        <ele>151</ele>
        <time>2019-10-28T10:06:49.000Z</time>
      </trkpt>
      <trkpt lat="48.624" lon="2.14151">
        <ele>151</ele>
        <time>2019-10-28T10:06:50.000Z</time>
      </trkpt>
      <trkpt lat="48.62401" lon="2.14152">
        <ele>151</ele>
        <time>2019-10-28T10:06:51.000Z</time>
      </trkpt>
      <trkpt lat="48.62402" lon="2.14154">
        <ele>151</ele>
        <time>2019-10-28T10:06:52.000Z</time>
      </trkpt>
      <trkpt lat="48.62403" lon="2.14155">
        <ele>151</ele>
        <time>2019-10-28T10:06:53.000Z</time>
      </trkpt>
      <trkpt lat="48.62404" lon="2.14157">
        <ele>150</ele>
        <time>2019-10-28T10:06:54.000Z</time>
      </trkpt>
      <trkpt lat="48.62405" lon="2.14158">
        <ele>150</ele>
        <time>2019-10-28T10:06:55.000Z</time>
      </trkpt>
      <trkpt lat="48.62406" lon="2.14159">
        <ele>150</ele>
        <time>2019-10-28T10:06:56.000Z</time>
      </trkpt>
      <trkpt lat="48.62407" lon="2.14161">
        <ele>150</ele>
        <time>2019-10-28T10:06:57.000Z</time>
      </trkpt>
      <trkpt lat="48.62408" lon="2.14162">
        <ele>150</ele>
        <time>2019-10-28T10:06:58.000Z</time>
      </trkpt>
      <trkpt lat="48.62409" lon="2.14163">
        <ele>150</ele>
        <time>2019-10-28T10:06:59.000Z</time>
      </trkpt>
      <trkpt lat="48.62411" lon="2.14164">
        <ele>150</ele>
        <time>2019-10-28T10:07:00.000Z</time>
      </trkpt>
      <trkpt lat="48.62412" lon="2.14165">
        <ele>150</ele>
        <time>2019-10-28T10:07:01.000Z</time>
      </trkpt>
      <trkpt lat="48.62413" lon="2.14167">
        <ele>150</ele>
        <time>2019-10-28T10:07:02.000Z</time>
      </trkpt>
      <trkpt lat="48.62414" lon="2.14168">
        <ele>149</ele>
        <time>2019-10-28T10:07:03.000Z</time>
      </trkpt>
      <trkpt lat="48.62415" lon="2.14169">
        <ele>150</ele>
        <time>2019-10-28T10:07:04.000Z</time>
      </trkpt>
      <trkpt lat="48.62416" lon="2.1417">
        <ele>150</ele>
        <time>2019-10-28T10:07:05.000Z</time>
      </trkpt>
      <trkpt lat="48.62417" lon="2.14171">
        <ele>150</ele>
        <time>2019-10-28T10:07:06.000Z</time>
      </trkpt>
      <trkpt lat="48.62418" lon="2.14172">
        <ele>150</ele>
        <time>2019-10-28T10:07:07.000Z</time>
      </trkpt>
      <trkpt lat="48.62419" lon="2.14174">
        <ele>150</ele>
        <time>2019-10-28T10:07:08.000Z</time>
      </trkpt>
      <trkpt lat="48.6242" lon="2.14175">
        <ele>150</ele>
        <time>2019-10-28T10:07:09.000Z</time>
      </trkpt>
      <trkpt lat="48.62421" lon="2.14176">
        <ele>151</ele>
        <time>2019-10-28T10:07:10.000Z</time>
      </trkpt>
      <trkpt lat="48.62422" lon="2.14177">
        <ele>152</ele>
        <time>2019-10-28T10:07:11.000Z</time>
      </trkpt>
      <trkpt lat="48.62423" lon="2.14178">
        <ele>152</ele>
        <time>2019-10-28T10:07:12.000Z</time>
      </trkpt>
      <trkpt lat="48.62424" lon="2.14179">
        <ele>152</ele>
        <time>2019-10-28T10:07:13.000Z</time>
      </trkpt>
      <trkpt lat="48.62425" lon="2.1418">
        <ele>152</ele>
        <time>2019-10-28T10:07:14.000Z</time>
      </trkpt>
      <trkpt lat="48.62426" lon="2.14181">
        <ele>152</ele>
        <time>2019-10-28T10:07:15.000Z</time>
      </trkpt>
      <trkpt lat="48.62427" lon="2.14182">
        <ele>153</ele>
        <time>2019-10-28T10:07:16.000Z</time>
      </trkpt>
      <trkpt lat="48.62428" lon="2.14183">
        <ele>153</ele>
        <time>2019-10-28T10:07:17.000Z</time>
      </trkpt>
      <trkpt lat="48.62429" lon="2.14185">
        <ele>153</ele>
        <time>2019-10-28T10:07:18.000Z</time>
      </trkpt>
      <trkpt lat="48.6243" lon="2.14186">
        <ele>154</ele>
        <time>2019-10-28T10:07:19.000Z</time>
      </trkpt>
      <trkpt lat="48.62431" lon="2.14187">
        <ele>154</ele>
        <time>2019-10-28T10:07:20.000Z</time>
      </trkpt>
      <trkpt lat="48.62432" lon="2.14188">
        <ele>154</ele>
        <time>2019-10-28T10:07:21.000Z</time>
      </trkpt>
      <trkpt lat="48.62433" lon="2.14189">
        <ele>153</ele>
        <time>2019-10-28T10:07:22.000Z</time>
      </trkpt>
      <trkpt lat="48.62434" lon="2.1419">
        <ele>153</ele>
        <time>2019-10-28T10:07:23.000Z</time>
      </trkpt>
      <trkpt lat="48.62435" lon="2.14192">
        <ele>153</ele>
        <time>2019-10-28T10:07:24.000Z</time>
      </trkpt>
      <trkpt lat="48.62436" lon="2.14193">
        <ele>153</ele>
        <time>2019-10-28T10:07:25.000Z</time>
      </trkpt>
      <trkpt lat="48.62437" lon="2.14194">
        <ele>153</ele>
        <time>2019-10-28T10:07:26.000Z</time>
      </trkpt>
      <trkpt lat="48.62438" lon="2.14195">
        <ele>153</ele>
        <time>2019-10-28T10:07:27.000Z</time>
      </trkpt>
      <trkpt lat="48.6244" lon="2.14196">
        <ele>153</ele>
        <time>2019-10-28T10:07:28.000Z</time>
      </trkpt>
      <trkpt lat="48.62441" lon="2.14198">
        <ele>152</ele>
        <time>2019-10-28T10:07:29.000Z</time>
      </trkpt>
      <trkpt lat="48.62442" lon="2.14199">
        <ele>153</ele>
        <time>2019-10-28T10:07:30.000Z</time>
      </trkpt>
      <trkpt lat="48.62443" lon="2.142">
        <ele>153</ele>
        <time>2019-10-28T10:07:31.000Z</time>
      </trkpt>
      <trkpt lat="48.62443" lon="2.14201">
        <ele>153</ele>
        <time>2019-10-28T10:07:32.000Z</time>
      </trkpt>
      <trkpt lat="48.62444" lon="2.14203">
        <ele>153</ele>
        <time>2019-10-28T10:07:33.000Z</time>
      </trkpt>
      <trkpt lat="48.62445" lon="2.14204">
        <ele>154</ele>
        <time>2019-10-28T10:07:34.000Z</time>
      </trkpt>
      <trkpt lat="48.62447" lon="2.14205">
        <ele>154</ele>
        <time>2019-10-28T10:07:35.000Z</time>
      </trkpt>
      <trkpt lat="48.62448" lon="2.14207">
        <ele>154</ele>
        <time>2019-10-28T10:07:36.000Z</time>
      </trkpt>
      <trkpt lat="48.62449" lon="2.14208">
        <ele>154</ele>
        <time>2019-10-28T10:07:37.000Z</time>
      </trkpt>
      <trkpt lat="48.6245" lon="2.14209">
        <ele>154</ele>
        <time>2019-10-28T10:07:38.000Z</time>
      </trkpt>
      <trkpt lat="48.62451" lon="2.1421">
        <ele>155</ele>
        <time>2019-10-28T10:07:39.000Z</time>
      </trkpt>
      <trkpt lat="48.62452" lon="2.14211">
        <ele>155</ele>
        <time>2019-10-28T10:07:40.000Z</time>
      </trkpt>
      <trkpt lat="48.62453" lon="2.14213">
        <ele>155</ele>
        <time>2019-10-28T10:07:41.000Z</time>
      </trkpt>
      <trkpt lat="48.62454" lon="2.14214">
        <ele>154</ele>
        <time>2019-10-28T10:07:42.000Z</time>
      </trkpt>
      <trkpt lat="48.62455" lon="2.14215">
        <ele>154</ele>
        <time>2019-10-28T10:07:43.000Z</time>
      </trkpt>
      <trkpt lat="48.62456" lon="2.14216">
        <ele>153</ele>
        <time>2019-10-28T10:07:44.000Z</time>
      </trkpt>
      <trkpt lat="48.62457" lon="2.14217">
        <ele>154</ele>
        <time>2019-10-28T10:07:45.000Z</time>
      </trkpt>
      <trkpt lat="48.62458" lon="2.14218">
        <ele>154</ele>
        <time>2019-10-28T10:07:46.000Z</time>
      </trkpt>
      <trkpt lat="48.6246" lon="2.14219">
        <ele>154</ele>
        <time>2019-10-28T10:07:47.000Z</time>
      </trkpt>
      <trkpt lat="48.62461" lon="2.14219">
        <ele>155</ele>
        <time>2019-10-28T10:07:48.000Z</time>
      </trkpt>
      <trkpt lat="48.62462" lon="2.1422">
        <ele>156</ele>
        <time>2019-10-28T10:07:49.000Z</time>
      </trkpt>
      <trkpt lat="48.62463" lon="2.1422">
        <ele>155</ele>
        <time>2019-10-28T10:07:50.000Z</time>
      </trkpt>
      <trkpt lat="48.62463" lon="2.1422">
        <ele>155</ele>
        <time>2019-10-28T10:07:51.000Z</time>
      </trkpt>
      <trkpt lat="48.62464" lon="2.1422">
        <ele>155</ele>
        <time>2019-10-28T10:07:52.000Z</time>
      </trkpt>
      <trkpt lat="48.62465" lon="2.14221">
        <ele>156</ele>
        <time>2019-10-28T10:07:53.000Z</time>
      </trkpt>
      <trkpt lat="48.62466" lon="2.14223">
        <ele>156</ele>
        <time>2019-10-28T10:07:54.000Z</time>
      </trkpt>
      <trkpt lat="48.62467" lon="2.14224">
        <ele>156</ele>
        <time>2019-10-28T10:07:55.000Z</time>
      </trkpt>
      <trkpt lat="48.62468" lon="2.14225">
        <ele>156</ele>
        <time>2019-10-28T10:07:56.000Z</time>
      </trkpt>
      <trkpt lat="48.62469" lon="2.14226">
        <ele>156</ele>
        <time>2019-10-28T10:07:57.000Z</time>
      </trkpt>
      <trkpt lat="48.6247" lon="2.14228">
        <ele>156</ele>
        <time>2019-10-28T10:07:58.000Z</time>
      </trkpt>
      <trkpt lat="48.62471" lon="2.14229">
        <ele>156</ele>
        <time>2019-10-28T10:07:59.000Z</time>
      </trkpt>
      <trkpt lat="48.62472" lon="2.1423">
        <ele>156</ele>
        <time>2019-10-28T10:08:00.000Z</time>
      </trkpt>
      <trkpt lat="48.62473" lon="2.14231">
        <ele>156</ele>
        <time>2019-10-28T10:08:01.000Z</time>
      </trkpt>
      <trkpt lat="48.62474" lon="2.14232">
        <ele>156</ele>
        <time>2019-10-28T10:08:02.000Z</time>
      </trkpt>
      <trkpt lat="48.62476" lon="2.14233">
        <ele>156</ele>
        <time>2019-10-28T10:08:03.000Z</time>
      </trkpt>
      <trkpt lat="48.62477" lon="2.14234">
        <ele>155</ele>
        <time>2019-10-28T10:08:04.000Z</time>
      </trkpt>
      <trkpt lat="48.62478" lon="2.14235">
        <ele>156</ele>
        <time>2019-10-28T10:08:05.000Z</time>
      </trkpt>
      <trkpt lat="48.62479" lon="2.14236">
        <ele>156</ele>
        <time>2019-10-28T10:08:06.000Z</time>
      </trkpt>
      <trkpt lat="48.6248" lon="2.14236">
        <ele>155</ele>
        <time>2019-10-28T10:08:07.000Z</time>
      </trkpt>
      <trkpt lat="48.62482" lon="2.14237">
        <ele>155</ele>
        <time>2019-10-28T10:08:08.000Z</time>
      </trkpt>
      <trkpt lat="48.62483" lon="2.14238">
        <ele>155</ele>
        <time>2019-10-28T10:08:09.000Z</time>
      </trkpt>
      <trkpt lat="48.62484" lon="2.14239">
        <ele>156</ele>
        <time>2019-10-28T10:08:10.000Z</time>
      </trkpt>
      <trkpt lat="48.62485" lon="2.1424">
        <ele>155</ele>
        <time>2019-10-28T10:08:11.000Z</time>
      </trkpt>
      <trkpt lat="48.62487" lon="2.14242">
        <ele>155</ele>
        <time>2019-10-28T10:08:12.000Z</time>
      </trkpt>
      <trkpt lat="48.62488" lon="2.14243">
        <ele>155</ele>
        <time>2019-10-28T10:08:13.000Z</time>
      </trkpt>
      <trkpt lat="48.62489" lon="2.14244">
        <ele>155</ele>
        <time>2019-10-28T10:08:14.000Z</time>
      </trkpt>
      <trkpt lat="48.6249" lon="2.14245">
        <ele>155</ele>
        <time>2019-10-28T10:08:15.000Z</time>
      </trkpt>
      <trkpt lat="48.62492" lon="2.14246">
        <ele>155</ele>
        <time>2019-10-28T10:08:16.000Z</time>
      </trkpt>
      <trkpt lat="48.62493" lon="2.14247">
        <ele>155</ele>
        <time>2019-10-28T10:08:17.000Z</time>
      </trkpt>
      <trkpt lat="48.62494" lon="2.14248">
        <ele>156</ele>
        <time>2019-10-28T10:08:18.000Z</time>
      </trkpt>
      <trkpt lat="48.62495" lon="2.14249">
        <ele>156</ele>
        <time>2019-10-28T10:08:19.000Z</time>
      </trkpt>
      <trkpt lat="48.62496" lon="2.1425">
        <ele>157</ele>
        <time>2019-10-28T10:08:20.000Z</time>
      </trkpt>
      <trkpt lat="48.62497" lon="2.14251">
        <ele>157</ele>
        <time>2019-10-28T10:08:21.000Z</time>
      </trkpt>
      <trkpt lat="48.62498" lon="2.14252">
        <ele>157</ele>
        <time>2019-10-28T10:08:22.000Z</time>
      </trkpt>
      <trkpt lat="48.62499" lon="2.14254">
        <ele>157</ele>
        <time>2019-10-28T10:08:23.000Z</time>
      </trkpt>
      <trkpt lat="48.625" lon="2.14255">
        <ele>157</ele>
        <time>2019-10-28T10:08:24.000Z</time>
      </trkpt>
      <trkpt lat="48.62501" lon="2.14257">
        <ele>157</ele>
        <time>2019-10-28T10:08:25.000Z</time>
      </trkpt>
      <trkpt lat="48.62502" lon="2.14258">
        <ele>157</ele>
        <time>2019-10-28T10:08:26.000Z</time>
      </trkpt>
      <trkpt lat="48.62503" lon="2.14259">
        <ele>157</ele>
        <time>2019-10-28T10:08:27.000Z</time>
      </trkpt>
      <trkpt lat="48.62504" lon="2.14261">
        <ele>157</ele>
        <time>2019-10-28T10:08:28.000Z</time>
      </trkpt>
      <trkpt lat="48.62505" lon="2.14262">
        <ele>156</ele>
        <time>2019-10-28T10:08:29.000Z</time>
      </trkpt>
      <trkpt lat="48.62506" lon="2.14264">
        <ele>157</ele>
        <time>2019-10-28T10:08:30.000Z</time>
      </trkpt>
      <trkpt lat="48.62506" lon="2.14265">
        <ele>156</ele>
        <time>2019-10-28T10:08:31.000Z</time>
      </trkpt>
      <trkpt lat="48.62506" lon="2.14267">
        <ele>156</ele>
        <time>2019-10-28T10:08:32.000Z</time>
      </trkpt>
      <trkpt lat="48.62506" lon="2.14269">
        <ele>157</ele>
        <time>2019-10-28T10:08:33.000Z</time>
      </trkpt>
      <trkpt lat="48.62506" lon="2.14271">
        <ele>157</ele>
        <time>2019-10-28T10:08:34.000Z</time>
      </trkpt>
      <trkpt lat="48.62506" lon="2.14273">
        <ele>157</ele>
        <time>2019-10-28T10:08:35.000Z</time>
      </trkpt>
      <trkpt lat="48.62505" lon="2.14274">
        <ele>157</ele>
        <time>2019-10-28T10:08:36.000Z</time>
      </trkpt>
      <trkpt lat="48.62505" lon="2.14276">
        <ele>157</ele>
        <time>2019-10-28T10:08:37.000Z</time>
      </trkpt>
      <trkpt lat="48.62505" lon="2.14277">
        <ele>157</ele>
        <time>2019-10-28T10:08:38.000Z</time>
      </trkpt>
      <trkpt lat="48.62504" lon="2.14279">
        <ele>157</ele>
        <time>2019-10-28T10:08:39.000Z</time>
      </trkpt>
      <trkpt lat="48.62504" lon="2.14281">
        <ele>157</ele>
        <time>2019-10-28T10:08:40.000Z</time>
      </trkpt>
      <trkpt lat="48.62504" lon="2.14282">
        <ele>157</ele>
        <time>2019-10-28T10:08:41.000Z</time>
      </trkpt>
      <trkpt lat="48.62503" lon="2.14284">
        <ele>157</ele>
        <time>2019-10-28T10:08:42.000Z</time>
      </trkpt>
      <trkpt lat="48.62503" lon="2.14286">
        <ele>157</ele>
        <time>2019-10-28T10:08:43.000Z</time>
      </trkpt>
      <trkpt lat="48.62502" lon="2.14288">
        <ele>157</ele>
        <time>2019-10-28T10:08:44.000Z</time>
      </trkpt>
      <trkpt lat="48.62502" lon="2.14289">
        <ele>157</ele>
        <time>2019-10-28T10:08:45.000Z</time>
      </trkpt>
      <trkpt lat="48.62501" lon="2.14291">
        <ele>156</ele>
        <time>2019-10-28T10:08:46.000Z</time>
      </trkpt>
      <trkpt lat="48.62501" lon="2.14293">
        <ele>156</ele>
        <time>2019-10-28T10:08:47.000Z</time>
      </trkpt>
      <trkpt lat="48.625" lon="2.14294">
        <ele>156</ele>
        <time>2019-10-28T10:08:48.000Z</time>
      </trkpt>
      <trkpt lat="48.625" lon="2.14296">
        <ele>156</ele>
        <time>2019-10-28T10:08:49.000Z</time>
      </trkpt>
      <trkpt lat="48.62499" lon="2.14297">
        <ele>156</ele>
        <time>2019-10-28T10:08:50.000Z</time>
      </trkpt>
      <trkpt lat="48.62498" lon="2.14299">
        <ele>156</ele>
        <time>2019-10-28T10:08:51.000Z</time>
      </trkpt>
      <trkpt lat="48.62498" lon="2.14301">
        <ele>156</ele>
        <time>2019-10-28T10:08:52.000Z</time>
      </trkpt>
      <trkpt lat="48.62497" lon="2.14302">
        <ele>156</ele>
        <time>2019-10-28T10:08:53.000Z</time>
      </trkpt>
      <trkpt lat="48.62496" lon="2.14304">
        <ele>156</ele>
        <time>2019-10-28T10:08:54.000Z</time>
      </trkpt>
      <trkpt lat="48.62496" lon="2.14306">
        <ele>156</ele>
        <time>2019-10-28T10:08:55.000Z</time>
      </trkpt>
      <trkpt lat="48.62495" lon="2.14308">
        <ele>156</ele>
        <time>2019-10-28T10:08:56.000Z</time>
      </trkpt>
      <trkpt lat="48.62494" lon="2.1431">
        <ele>156</ele>
        <time>2019-10-28T10:08:57.000Z</time>
      </trkpt>
      <trkpt lat="48.62494" lon="2.14312">
        <ele>156</ele>
        <time>2019-10-28T10:08:58.000Z</time>
      </trkpt>
      <trkpt lat="48.62493" lon="2.14314">
        <ele>156</ele>
        <time>2019-10-28T10:08:59.000Z</time>
      </trkpt>
      <trkpt lat="48.62492" lon="2.14316">
        <ele>156</ele>
        <time>2019-10-28T10:09:00.000Z</time>
      </trkpt>
      <trkpt lat="48.62492" lon="2.14318">
        <ele>155</ele>
        <time>2019-10-28T10:09:01.000Z</time>
      </trkpt>
      <trkpt lat="48.62491" lon="2.1432">
        <ele>155</ele>
        <time>2019-10-28T10:09:02.000Z</time>
      </trkpt>
      <trkpt lat="48.62491" lon="2.14322">
        <ele>155</ele>
        <time>2019-10-28T10:09:03.000Z</time>
      </trkpt>
      <trkpt lat="48.6249" lon="2.14324">
        <ele>155</ele>
        <time>2019-10-28T10:09:04.000Z</time>
      </trkpt>
      <trkpt lat="48.6249" lon="2.14326">
        <ele>155</ele>
        <time>2019-10-28T10:09:05.000Z</time>
      </trkpt>
      <trkpt lat="48.62489" lon="2.14328">
        <ele>155</ele>
        <time>2019-10-28T10:09:06.000Z</time>
      </trkpt>
      <trkpt lat="48.62488" lon="2.1433">
        <ele>155</ele>
        <time>2019-10-28T10:09:07.000Z</time>
      </trkpt>
      <trkpt lat="48.62488" lon="2.14332">
        <ele>155</ele>
        <time>2019-10-28T10:09:08.000Z</time>
      </trkpt>
      <trkpt lat="48.62487" lon="2.14334">
        <ele>155</ele>
        <time>2019-10-28T10:09:09.000Z</time>
      </trkpt>
      <trkpt lat="48.62487" lon="2.14335">
        <ele>155</ele>
        <time>2019-10-28T10:09:10.000Z</time>
      </trkpt>
      <trkpt lat="48.62486" lon="2.14337">
        <ele>155</ele>
        <time>2019-10-28T10:09:11.000Z</time>
      </trkpt>
      <trkpt lat="48.62486" lon="2.14339">
        <ele>155</ele>
        <time>2019-10-28T10:09:12.000Z</time>
      </trkpt>
      <trkpt lat="48.62485" lon="2.14341">
        <ele>155</ele>
        <time>2019-10-28T10:09:13.000Z</time>
      </trkpt>
      <trkpt lat="48.62485" lon="2.14343">
        <ele>155</ele>
        <time>2019-10-28T10:09:14.000Z</time>
      </trkpt>
      <trkpt lat="48.62484" lon="2.14345">
        <ele>155</ele>
        <time>2019-10-28T10:09:15.000Z</time>
      </trkpt>
      <trkpt lat="48.62484" lon="2.14347">
        <ele>155</ele>
        <time>2019-10-28T10:09:16.000Z</time>
      </trkpt>
      <trkpt lat="48.62483" lon="2.14349">
        <ele>155</ele>
        <time>2019-10-28T10:09:17.000Z</time>
      </trkpt>
      <trkpt lat="48.62483" lon="2.14351">
        <ele>155</ele>
        <time>2019-10-28T10:09:18.000Z</time>
      </trkpt>
      <trkpt lat="48.62482" lon="2.14352">
        <ele>155</ele>
        <time>2019-10-28T10:09:19.000Z</time>
      </trkpt>
      <trkpt lat="48.62482" lon="2.14354">
        <ele>156</ele>
        <time>2019-10-28T10:09:20.000Z</time>
      </trkpt>
      <trkpt lat="48.62481" lon="2.14356">
        <ele>156</ele>
        <time>2019-10-28T10:09:21.000Z</time>
      </trkpt>
      <trkpt lat="48.62481" lon="2.14358">
        <ele>156</ele>
        <time>2019-10-28T10:09:22.000Z</time>
      </trkpt>
      <trkpt lat="48.6248" lon="2.1436">
        <ele>156</ele>
        <time>2019-10-28T10:09:23.000Z</time>
      </trkpt>
      <trkpt lat="48.6248" lon="2.14361">
        <ele>156</ele>
        <time>2019-10-28T10:09:24.000Z</time>
      </trkpt>
      <trkpt lat="48.62479" lon="2.14363">
        <ele>156</ele>
        <time>2019-10-28T10:09:25.000Z</time>
      </trkpt>
      <trkpt lat="48.62479" lon="2.14365">
        <ele>156</ele>
        <time>2019-10-28T10:09:26.000Z</time>
      </trkpt>
      <trkpt lat="48.62478" lon="2.14367">
        <ele>156</ele>
        <time>2019-10-28T10:09:27.000Z</time>
      </trkpt>
      <trkpt lat="48.62477" lon="2.14368">
        <ele>156</ele>
        <time>2019-10-28T10:09:28.000Z</time>
      </trkpt>
      <trkpt lat="48.62477" lon="2.1437">
        <ele>156</ele>
        <time>2019-10-28T10:09:29.000Z</time>
      </trkpt>
      <trkpt lat="48.62476" lon="2.14372">
        <ele>156</ele>
        <time>2019-10-28T10:09:30.000Z</time>
      </trkpt>
      <trkpt lat="48.62476" lon="2.14374">
        <ele>156</ele>
        <time>2019-10-28T10:09:31.000Z</time>
      </trkpt>
      <trkpt lat="48.62476" lon="2.14376">
        <ele>156</ele>
        <time>2019-10-28T10:09:32.000Z</time>
      </trkpt>
      <trkpt lat="48.62475" lon="2.14377">
        <ele>156</ele>
        <time>2019-10-28T10:09:33.000Z</time>
      </trkpt>
      <trkpt lat="48.62475" lon="2.14379">
        <ele>156</ele>
        <time>2019-10-28T10:09:34.000Z</time>
      </trkpt>
      <trkpt lat="48.62474" lon="2.1438">
        <ele>156</ele>
        <time>2019-10-28T10:09:35.000Z</time>
      </trkpt>
      <trkpt lat="48.62474" lon="2.14381">
        <ele>156</ele>
        <time>2019-10-28T10:09:36.000Z</time>
      </trkpt>
      <trkpt lat="48.62473" lon="2.14383">
        <ele>156</ele>
        <time>2019-10-28T10:09:37.000Z</time>
      </trkpt>
      <trkpt lat="48.62472" lon="2.14384">
        <ele>156</ele>
        <time>2019-10-28T10:09:38.000Z</time>
      </trkpt>
      <trkpt lat="48.62471" lon="2.14385">
        <ele>155</ele>
        <time>2019-10-28T10:09:39.000Z</time>
      </trkpt>
      <trkpt lat="48.6247" lon="2.14386">
        <ele>155</ele>
        <time>2019-10-28T10:09:40.000Z</time>
      </trkpt>
      <trkpt lat="48.62469" lon="2.14387">
        <ele>155</ele>
        <time>2019-10-28T10:09:41.000Z</time>
      </trkpt>
      <trkpt lat="48.62469" lon="2.14389">
        <ele>156</ele>
        <time>2019-10-28T10:09:42.000Z</time>
      </trkpt>
      <trkpt lat="48.62469" lon="2.14391">
        <ele>156</ele>
        <time>2019-10-28T10:09:43.000Z</time>
      </trkpt>
      <trkpt lat="48.62469" lon="2.14393">
        <ele>157</ele>
        <time>2019-10-28T10:09:44.000Z</time>
      </trkpt>
      <trkpt lat="48.62469" lon="2.14395">
        <ele>157</ele>
        <time>2019-10-28T10:09:45.000Z</time>
      </trkpt>
      <trkpt lat="48.62469" lon="2.14397">
        <ele>157</ele>
        <time>2019-10-28T10:09:46.000Z</time>
      </trkpt>
      <trkpt lat="48.6247" lon="2.14398">
        <ele>157</ele>
        <time>2019-10-28T10:09:47.000Z</time>
      </trkpt>
      <trkpt lat="48.6247" lon="2.14399">
        <ele>157</ele>
        <time>2019-10-28T10:09:48.000Z</time>
      </trkpt>
      <trkpt lat="48.62471" lon="2.144">
        <ele>157</ele>
        <time>2019-10-28T10:09:49.000Z</time>
      </trkpt>
      <trkpt lat="48.62472" lon="2.144">
        <ele>157</ele>
        <time>2019-10-28T10:09:50.000Z</time>
      </trkpt>
      <trkpt lat="48.62473" lon="2.144">
        <ele>157</ele>
        <time>2019-10-28T10:09:51.000Z</time>
      </trkpt>
      <trkpt lat="48.62474" lon="2.14399">
        <ele>157</ele>
        <time>2019-10-28T10:09:52.000Z</time>
      </trkpt>
      <trkpt lat="48.62475" lon="2.14397">
        <ele>156</ele>
        <time>2019-10-28T10:09:53.000Z</time>
      </trkpt>
      <trkpt lat="48.62476" lon="2.14397">
        <ele>157</ele>
        <time>2019-10-28T10:09:54.000Z</time>
      </trkpt>
      <trkpt lat="48.62477" lon="2.14396">
        <ele>156</ele>
        <time>2019-10-28T10:09:55.000Z</time>
      </trkpt>
      <trkpt lat="48.62479" lon="2.14396">
        <ele>156</ele>
        <time>2019-10-28T10:09:56.000Z</time>
      </trkpt>
      <trkpt lat="48.6248" lon="2.14396">
        <ele>156</ele>
        <time>2019-10-28T10:09:57.000Z</time>
      </trkpt>
      <trkpt lat="48.62481" lon="2.14397">
        <ele>157</ele>
        <time>2019-10-28T10:09:58.000Z</time>
      </trkpt>
      <trkpt lat="48.62482" lon="2.14397">
        <ele>157</ele>
        <time>2019-10-28T10:09:59.000Z</time>
      </trkpt>
      <trkpt lat="48.62484" lon="2.14397">
        <ele>157</ele>
        <time>2019-10-28T10:10:00.000Z</time>
      </trkpt>
      <trkpt lat="48.62485" lon="2.14398">
        <ele>157</ele>
        <time>2019-10-28T10:10:01.000Z</time>
      </trkpt>
      <trkpt lat="48.62486" lon="2.14399">
        <ele>157</ele>
        <time>2019-10-28T10:10:02.000Z</time>
      </trkpt>
      <trkpt lat="48.62487" lon="2.144">
        <ele>158</ele>
        <time>2019-10-28T10:10:03.000Z</time>
      </trkpt>
      <trkpt lat="48.62488" lon="2.14401">
        <ele>158</ele>
        <time>2019-10-28T10:10:04.000Z</time>
      </trkpt>
      <trkpt lat="48.62489" lon="2.14402">
        <ele>158</ele>
        <time>2019-10-28T10:10:05.000Z</time>
      </trkpt>
      <trkpt lat="48.6249" lon="2.14403">
        <ele>158</ele>
        <time>2019-10-28T10:10:06.000Z</time>
      </trkpt>
      <trkpt lat="48.62492" lon="2.14404">
        <ele>158</ele>
        <time>2019-10-28T10:10:07.000Z</time>
      </trkpt>
      <trkpt lat="48.62493" lon="2.14405">
        <ele>158</ele>
        <time>2019-10-28T10:10:08.000Z</time>
      </trkpt>
      <trkpt lat="48.62494" lon="2.14405">
        <ele>158</ele>
        <time>2019-10-28T10:10:09.000Z</time>
      </trkpt>
      <trkpt lat="48.62495" lon="2.14406">
        <ele>159</ele>
        <time>2019-10-28T10:10:10.000Z</time>
      </trkpt>
      <trkpt lat="48.62496" lon="2.14407">
        <ele>159</ele>
        <time>2019-10-28T10:10:11.000Z</time>
      </trkpt>
      <trkpt lat="48.62497" lon="2.14408">
        <ele>158</ele>
        <time>2019-10-28T10:10:12.000Z</time>
      </trkpt>
      <trkpt lat="48.62499" lon="2.14409">
        <ele>159</ele>
        <time>2019-10-28T10:10:13.000Z</time>
      </trkpt>
      <trkpt lat="48.625" lon="2.1441">
        <ele>159</ele>
        <time>2019-10-28T10:10:14.000Z</time>
      </trkpt>
      <trkpt lat="48.62501" lon="2.14411">
        <ele>159</ele>
        <time>2019-10-28T10:10:15.000Z</time>
      </trkpt>
      <trkpt lat="48.62502" lon="2.14412">
        <ele>159</ele>
        <time>2019-10-28T10:10:16.000Z</time>
      </trkpt>
      <trkpt lat="48.62503" lon="2.14413">
        <ele>159</ele>
        <time>2019-10-28T10:10:17.000Z</time>
      </trkpt>
      <trkpt lat="48.62504" lon="2.14414">
        <ele>159</ele>
        <time>2019-10-28T10:10:18.000Z</time>
      </trkpt>
      <trkpt lat="48.62505" lon="2.14414">
        <ele>159</ele>
        <time>2019-10-28T10:10:19.000Z</time>
      </trkpt>
      <trkpt lat="48.62506" lon="2.14415">
        <ele>159</ele>
        <time>2019-10-28T10:10:20.000Z</time>
      </trkpt>
      <trkpt lat="48.62508" lon="2.14416">
        <ele>159</ele>
        <time>2019-10-28T10:10:21.000Z</time>
      </trkpt>
      <trkpt lat="48.62509" lon="2.14417">
        <ele>159</ele>
        <time>2019-10-28T10:10:22.000Z</time>
      </trkpt>
      <trkpt lat="48.6251" lon="2.14418">
        <ele>159</ele>
        <time>2019-10-28T10:10:23.000Z</time>
      </trkpt>
      <trkpt lat="48.62511" lon="2.14419">
        <ele>159</ele>
        <time>2019-10-28T10:10:24.000Z</time>
      </trkpt>
      <trkpt lat="48.62512" lon="2.1442">
        <ele>159</ele>
        <time>2019-10-28T10:10:25.000Z</time>
      </trkpt>
      <trkpt lat="48.62513" lon="2.1442">
        <ele>159</ele>
        <time>2019-10-28T10:10:26.000Z</time>
      </trkpt>
      <trkpt lat="48.62514" lon="2.14421">
        <ele>159</ele>
        <time>2019-10-28T10:10:27.000Z</time>
      </trkpt>
      <trkpt lat="48.62516" lon="2.14421">
        <ele>159</ele>
        <time>2019-10-28T10:10:28.000Z</time>
      </trkpt>
      <trkpt lat="48.62517" lon="2.14422">
        <ele>159</ele>
        <time>2019-10-28T10:10:29.000Z</time>
      </trkpt>
      <trkpt lat="48.62518" lon="2.14423">
        <ele>159</ele>
        <time>2019-10-28T10:10:30.000Z</time>
      </trkpt>
      <trkpt lat="48.62519" lon="2.14423">
        <ele>159</ele>
        <time>2019-10-28T10:10:31.000Z</time>
      </trkpt>
      <trkpt lat="48.6252" lon="2.14424">
        <ele>159</ele>
        <time>2019-10-28T10:10:32.000Z</time>
      </trkpt>
      <trkpt lat="48.62521" lon="2.14425">
        <ele>159</ele>
        <time>2019-10-28T10:10:33.000Z</time>
      </trkpt>
      <trkpt lat="48.62523" lon="2.14426">
        <ele>159</ele>
        <time>2019-10-28T10:10:34.000Z</time>
      </trkpt>
      <trkpt lat="48.62524" lon="2.14427">
        <ele>159</ele>
        <time>2019-10-28T10:10:35.000Z</time>
      </trkpt>
      <trkpt lat="48.62525" lon="2.14427">
        <ele>159</ele>
        <time>2019-10-28T10:10:36.000Z</time>
      </trkpt>
      <trkpt lat="48.62526" lon="2.14428">
        <ele>159</ele>
        <time>2019-10-28T10:10:37.000Z</time>
      </trkpt>
      <trkpt lat="48.62527" lon="2.14429">
        <ele>159</ele>
        <time>2019-10-28T10:10:38.000Z</time>
      </trkpt>
      <trkpt lat="48.62528" lon="2.1443">
        <ele>159</ele>
        <time>2019-10-28T10:10:39.000Z</time>
      </trkpt>
      <trkpt lat="48.6253" lon="2.14431">
        <ele>159</ele>
        <time>2019-10-28T10:10:40.000Z</time>
      </trkpt>
      <trkpt lat="48.62531" lon="2.14431">
        <ele>159</ele>
        <time>2019-10-28T10:10:41.000Z</time>
      </trkpt>
      <trkpt lat="48.62532" lon="2.14432">
        <ele>159</ele>
        <time>2019-10-28T10:10:42.000Z</time>
      </trkpt>
      <trkpt lat="48.62533" lon="2.14433">
        <ele>159</ele>
        <time>2019-10-28T10:10:43.000Z</time>
      </trkpt>
      <trkpt lat="48.62534" lon="2.14434">
        <ele>159</ele>
        <time>2019-10-28T10:10:44.000Z</time>
      </trkpt>
      <trkpt lat="48.62535" lon="2.14435">
        <ele>159</ele>
        <time>2019-10-28T10:10:45.000Z</time>
      </trkpt>
      <trkpt lat="48.62537" lon="2.14435">
        <ele>159</ele>
        <time>2019-10-28T10:10:46.000Z</time>
      </trkpt>
      <trkpt lat="48.62538" lon="2.14436">
        <ele>159</ele>
        <time>2019-10-28T10:10:47.000Z</time>
      </trkpt>
      <trkpt lat="48.62539" lon="2.14437">
        <ele>160</ele>
        <time>2019-10-28T10:10:48.000Z</time>
      </trkpt>
      <trkpt lat="48.6254" lon="2.14438">
        <ele>160</ele>
        <time>2019-10-28T10:10:49.000Z</time>
      </trkpt>
      <trkpt lat="48.62541" lon="2.14439">
        <ele>160</ele>
        <time>2019-10-28T10:10:50.000Z</time>
      </trkpt>
      <trkpt lat="48.62542" lon="2.1444">
        <ele>160</ele>
        <time>2019-10-28T10:10:51.000Z</time>
      </trkpt>
      <trkpt lat="48.62544" lon="2.14441">
        <ele>160</ele>
        <time>2019-10-28T10:10:52.000Z</time>
      </trkpt>
      <trkpt lat="48.62545" lon="2.14442">
        <ele>160</ele>
        <time>2019-10-28T10:10:53.000Z</time>
      </trkpt>
      <trkpt lat="48.62546" lon="2.14443">
        <ele>160</ele>
        <time>2019-10-28T10:10:54.000Z</time>
      </trkpt>
      <trkpt lat="48.62547" lon="2.14445">
        <ele>160</ele>
        <time>2019-10-28T10:10:55.000Z</time>
      </trkpt>
      <trkpt lat="48.62548" lon="2.14446">
        <ele>160</ele>
        <time>2019-10-28T10:10:56.000Z</time>
      </trkpt>
      <trkpt lat="48.62549" lon="2.14447">
        <ele>160</ele>
        <time>2019-10-28T10:10:57.000Z</time>
      </trkpt>
      <trkpt lat="48.6255" lon="2.14449">
        <ele>160</ele>
        <time>2019-10-28T10:10:58.000Z</time>
      </trkpt>
      <trkpt lat="48.62551" lon="2.14451">
        <ele>160</ele>
        <time>2019-10-28T10:10:59.000Z</time>
      </trkpt>
      <trkpt lat="48.62552" lon="2.14453">
        <ele>160</ele>
        <time>2019-10-28T10:11:00.000Z</time>
      </trkpt>
      <trkpt lat="48.62553" lon="2.14454">
        <ele>160</ele>
        <time>2019-10-28T10:11:01.000Z</time>
      </trkpt>
      <trkpt lat="48.62555" lon="2.14455">
        <ele>160</ele>
        <time>2019-10-28T10:11:02.000Z</time>
      </trkpt>
      <trkpt lat="48.62556" lon="2.14456">
        <ele>160</ele>
        <time>2019-10-28T10:11:03.000Z</time>
      </trkpt>
      <trkpt lat="48.62557" lon="2.14457">
        <ele>160</ele>
        <time>2019-10-28T10:11:04.000Z</time>
      </trkpt>
      <trkpt lat="48.62558" lon="2.14458">
        <ele>160</ele>
        <time>2019-10-28T10:11:05.000Z</time>
      </trkpt>
      <trkpt lat="48.62559" lon="2.14459">
        <ele>160</ele>
        <time>2019-10-28T10:11:06.000Z</time>
      </trkpt>
      <trkpt lat="48.62561" lon="2.1446">
        <ele>160</ele>
        <time>2019-10-28T10:11:07.000Z</time>
      </trkpt>
      <trkpt lat="48.62562" lon="2.14461">
        <ele>160</ele>
        <time>2019-10-28T10:11:08.000Z</time>
      </trkpt>
      <trkpt lat="48.62563" lon="2.14462">
        <ele>160</ele>
        <time>2019-10-28T10:11:09.000Z</time>
      </trkpt>
      <trkpt lat="48.62565" lon="2.14463">
        <ele>160</ele>
        <time>2019-10-28T10:11:10.000Z</time>
      </trkpt>
      <trkpt lat="48.62566" lon="2.14464">
        <ele>160</ele>
        <time>2019-10-28T10:11:11.000Z</time>
      </trkpt>
      <trkpt lat="48.62567" lon="2.14466">
        <ele>160</ele>
        <time>2019-10-28T10:11:12.000Z</time>
      </trkpt>
      <trkpt lat="48.62568" lon="2.14467">
        <ele>160</ele>
        <time>2019-10-28T10:11:13.000Z</time>
      </trkpt>
      <trkpt lat="48.6257" lon="2.14468">
        <ele>160</ele>
        <time>2019-10-28T10:11:14.000Z</time>
      </trkpt>
      <trkpt lat="48.62571" lon="2.14469">
        <ele>160</ele>
        <time>2019-10-28T10:11:15.000Z</time>
      </trkpt>
      <trkpt lat="48.62572" lon="2.1447">
        <ele>160</ele>
        <time>2019-10-28T10:11:16.000Z</time>
      </trkpt>
      <trkpt lat="48.62573" lon="2.14471">
        <ele>160</ele>
        <time>2019-10-28T10:11:17.000Z</time>
      </trkpt>
      <trkpt lat="48.62574" lon="2.14472">
        <ele>160</ele>
        <time>2019-10-28T10:11:18.000Z</time>
      </trkpt>
      <trkpt lat="48.62575" lon="2.14473">
        <ele>160</ele>
        <time>2019-10-28T10:11:19.000Z</time>
      </trkpt>
      <trkpt lat="48.62577" lon="2.14475">
        <ele>160</ele>
        <time>2019-10-28T10:11:20.000Z</time>
      </trkpt>
      <trkpt lat="48.62578" lon="2.14476">
        <ele>160</ele>
        <time>2019-10-28T10:11:21.000Z</time>
      </trkpt>
      <trkpt lat="48.62579" lon="2.14477">
        <ele>160</ele>
        <time>2019-10-28T10:11:22.000Z</time>
      </trkpt>
      <trkpt lat="48.6258" lon="2.14478">
        <ele>160</ele>
        <time>2019-10-28T10:11:23.000Z</time>
      </trkpt>
      <trkpt lat="48.62581" lon="2.14479">
        <ele>160</ele>
        <time>2019-10-28T10:11:24.000Z</time>
      </trkpt>
      <trkpt lat="48.62582" lon="2.1448">
        <ele>160</ele>
        <time>2019-10-28T10:11:25.000Z</time>
      </trkpt>
      <trkpt lat="48.62583" lon="2.14481">
        <ele>160</ele>
        <time>2019-10-28T10:11:26.000Z</time>
      </trkpt>
      <trkpt lat="48.62585" lon="2.14482">
        <ele>160</ele>
        <time>2019-10-28T10:11:27.000Z</time>
      </trkpt>
      <trkpt lat="48.62586" lon="2.14483">
        <ele>160</ele>
        <time>2019-10-28T10:11:28.000Z</time>
      </trkpt>
      <trkpt lat="48.62587" lon="2.14485">
        <ele>160</ele>
        <time>2019-10-28T10:11:29.000Z</time>
      </trkpt>
      <trkpt lat="48.62588" lon="2.14486">
        <ele>160</ele>
        <time>2019-10-28T10:11:30.000Z</time>
      </trkpt>
      <trkpt lat="48.62589" lon="2.14487">
        <ele>160</ele>
        <time>2019-10-28T10:11:31.000Z</time>
      </trkpt>
      <trkpt lat="48.62591" lon="2.14488">
        <ele>160</ele>
        <time>2019-10-28T10:11:32.000Z</time>
      </trkpt>
      <trkpt lat="48.62592" lon="2.14489">
        <ele>160</ele>
        <time>2019-10-28T10:11:33.000Z</time>
      </trkpt>
      <trkpt lat="48.62593" lon="2.1449">
        <ele>160</ele>
        <time>2019-10-28T10:11:34.000Z</time>
      </trkpt>
      <trkpt lat="48.62594" lon="2.14491">
        <ele>160</ele>
        <time>2019-10-28T10:11:35.000Z</time>
      </trkpt>
      <trkpt lat="48.62595" lon="2.14492">
        <ele>161</ele>
        <time>2019-10-28T10:11:36.000Z</time>
      </trkpt>
      <trkpt lat="48.62597" lon="2.14493">
        <ele>161</ele>
        <time>2019-10-28T10:11:37.000Z</time>
      </trkpt>
      <trkpt lat="48.62598" lon="2.14494">
        <ele>161</ele>
        <time>2019-10-28T10:11:38.000Z</time>
      </trkpt>
      <trkpt lat="48.62599" lon="2.14495">
        <ele>161</ele>
        <time>2019-10-28T10:11:39.000Z</time>
      </trkpt>
      <trkpt lat="48.626" lon="2.14496">
        <ele>160</ele>
        <time>2019-10-28T10:11:40.000Z</time>
      </trkpt>
      <trkpt lat="48.62601" lon="2.14497">
        <ele>160</ele>
        <time>2019-10-28T10:11:41.000Z</time>
      </trkpt>
      <trkpt lat="48.62603" lon="2.14498">
        <ele>160</ele>
        <time>2019-10-28T10:11:42.000Z</time>
      </trkpt>
      <trkpt lat="48.62604" lon="2.14499">
        <ele>161</ele>
        <time>2019-10-28T10:11:43.000Z</time>
      </trkpt>
      <trkpt lat="48.62605" lon="2.145">
        <ele>161</ele>
        <time>2019-10-28T10:11:44.000Z</time>
      </trkpt>
      <trkpt lat="48.62606" lon="2.14501">
        <ele>161</ele>
        <time>2019-10-28T10:11:45.000Z</time>
      </trkpt>
      <trkpt lat="48.62608" lon="2.14502">
        <ele>161</ele>
        <time>2019-10-28T10:11:46.000Z</time>
      </trkpt>
      <trkpt lat="48.62609" lon="2.14503">
        <ele>161</ele>
        <time>2019-10-28T10:11:47.000Z</time>
      </trkpt>
      <trkpt lat="48.6261" lon="2.14504">
        <ele>161</ele>
        <time>2019-10-28T10:11:48.000Z</time>
      </trkpt>
      <trkpt lat="48.62612" lon="2.14505">
        <ele>161</ele>
        <time>2019-10-28T10:11:49.000Z</time>
      </trkpt>
      <trkpt lat="48.62613" lon="2.14506">
        <ele>161</ele>
        <time>2019-10-28T10:11:50.000Z</time>
      </trkpt>
      <trkpt lat="48.62614" lon="2.14507">
        <ele>161</ele>
        <time>2019-10-28T10:11:51.000Z</time>
      </trkpt>
      <trkpt lat="48.62615" lon="2.14508">
        <ele>161</ele>
        <time>2019-10-28T10:11:52.000Z</time>
      </trkpt>
      <trkpt lat="48.62616" lon="2.14509">
        <ele>161</ele>
        <time>2019-10-28T10:11:53.000Z</time>
      </trkpt>
      <trkpt lat="48.62618" lon="2.1451">
        <ele>161</ele>
        <time>2019-10-28T10:11:54.000Z</time>
      </trkpt>
      <trkpt lat="48.62619" lon="2.14511">
        <ele>161</ele>
        <time>2019-10-28T10:11:55.000Z</time>
      </trkpt>
      <trkpt lat="48.6262" lon="2.14512">
        <ele>161</ele>
        <time>2019-10-28T10:11:56.000Z</time>
      </trkpt>
      <trkpt lat="48.62621" lon="2.14512">
        <ele>161</ele>
        <time>2019-10-28T10:11:57.000Z</time>
      </trkpt>
      <trkpt lat="48.62621" lon="2.14513">
        <ele>161</ele>
        <time>2019-10-28T10:11:58.000Z</time>
      </trkpt>
      <trkpt lat="48.62622" lon="2.14513">
        <ele>161</ele>
        <time>2019-10-28T10:11:59.000Z</time>
      </trkpt>
      <trkpt lat="48.62622" lon="2.14513">
        <ele>161</ele>
        <time>2019-10-28T10:12:00.000Z</time>
      </trkpt>
      <trkpt lat="48.62622" lon="2.14513">
        <ele>161</ele>
        <time>2019-10-28T10:12:01.000Z</time>
      </trkpt>
      <trkpt lat="48.62622" lon="2.14513">
        <ele>161</ele>
        <time>2019-10-28T10:12:02.000Z</time>
      </trkpt>
      <trkpt lat="48.62622" lon="2.14513">
        <ele>161</ele>
        <time>2019-10-28T10:12:03.000Z</time>
      </trkpt>
      <trkpt lat="48.62622" lon="2.14513">
        <ele>161</ele>
        <time>2019-10-28T10:12:04.000Z</time>
      </trkpt>
      <trkpt lat="48.62622" lon="2.14513">
        <ele>161</ele>
        <time>2019-10-28T10:12:05.000Z</time>
      </trkpt>
      <trkpt lat="48.62622" lon="2.14513">
        <ele>161</ele>
        <time>2019-10-28T10:12:06.000Z</time>
      </trkpt>
      <trkpt lat="48.62622" lon="2.14513">
        <ele>162</ele>
        <time>2019-10-28T10:12:07.000Z</time>
      </trkpt>
      <trkpt lat="48.62622" lon="2.14513">
        <ele>161</ele>
        <time>2019-10-28T10:12:08.000Z</time>
      </trkpt>
      <trkpt lat="48.62622" lon="2.14514">
        <ele>161</ele>
        <time>2019-10-28T10:12:09.000Z</time>
      </trkpt>
      <trkpt lat="48.62623" lon="2.14515">
        <ele>161</ele>
        <time>2019-10-28T10:12:10.000Z</time>
      </trkpt>
      <trkpt lat="48.62624" lon="2.14516">
        <ele>161</ele>
        <time>2019-10-28T10:12:11.000Z</time>
      </trkpt>
      <trkpt lat="48.62625" lon="2.14517">
        <ele>161</ele>
        <time>2019-10-28T10:12:12.000Z</time>
      </trkpt>
      <trkpt lat="48.62627" lon="2.14518">
        <ele>161</ele>
        <time>2019-10-28T10:12:13.000Z</time>
      </trkpt>
      <trkpt lat="48.62628" lon="2.14519">
        <ele>161</ele>
        <time>2019-10-28T10:12:14.000Z</time>
      </trkpt>
      <trkpt lat="48.62629" lon="2.14519">
        <ele>161</ele>
        <time>2019-10-28T10:12:15.000Z</time>
      </trkpt>
      <trkpt lat="48.6263" lon="2.1452">
        <ele>161</ele>
        <time>2019-10-28T10:12:16.000Z</time>
      </trkpt>
      <trkpt lat="48.62631" lon="2.14521">
        <ele>161</ele>
        <time>2019-10-28T10:12:17.000Z</time>
      </trkpt>
      <trkpt lat="48.62632" lon="2.14522">
        <ele>161</ele>
        <time>2019-10-28T10:12:18.000Z</time>
      </trkpt>
      <trkpt lat="48.62633" lon="2.14523">
        <ele>161</ele>
        <time>2019-10-28T10:12:19.000Z</time>
      </trkpt>
      <trkpt lat="48.62634" lon="2.14524">
        <ele>161</ele>
        <time>2019-10-28T10:12:20.000Z</time>
      </trkpt>
      <trkpt lat="48.62635" lon="2.14525">
        <ele>161</ele>
        <time>2019-10-28T10:12:21.000Z</time>
      </trkpt>
      <trkpt lat="48.62636" lon="2.14526">
        <ele>161</ele>
        <time>2019-10-28T10:12:22.000Z</time>
      </trkpt>
      <trkpt lat="48.62637" lon="2.14526">
        <ele>161</ele>
        <time>2019-10-28T10:12:23.000Z</time>
      </trkpt>
      <trkpt lat="48.62639" lon="2.14527">
        <ele>161</ele>
        <time>2019-10-28T10:12:24.000Z</time>
      </trkpt>
      <trkpt lat="48.6264" lon="2.14528">
        <ele>161</ele>
        <time>2019-10-28T10:12:25.000Z</time>
      </trkpt>
      <trkpt lat="48.62641" lon="2.1453">
        <ele>161</ele>
        <time>2019-10-28T10:12:26.000Z</time>
      </trkpt>
      <trkpt lat="48.62642" lon="2.14531">
        <ele>161</ele>
        <time>2019-10-28T10:12:27.000Z</time>
      </trkpt>
      <trkpt lat="48.62643" lon="2.14532">
        <ele>162</ele>
        <time>2019-10-28T10:12:28.000Z</time>
      </trkpt>
      <trkpt lat="48.62644" lon="2.14533">
        <ele>162</ele>
        <time>2019-10-28T10:12:29.000Z</time>
      </trkpt>
      <trkpt lat="48.62646" lon="2.14533">
        <ele>161</ele>
        <time>2019-10-28T10:12:30.000Z</time>
      </trkpt>
      <trkpt lat="48.62647" lon="2.14534">
        <ele>161</ele>
        <time>2019-10-28T10:12:31.000Z</time>
      </trkpt>
      <trkpt lat="48.62648" lon="2.14535">
        <ele>161</ele>
        <time>2019-10-28T10:12:32.000Z</time>
      </trkpt>
      <trkpt lat="48.62649" lon="2.14536">
        <ele>161</ele>
        <time>2019-10-28T10:12:33.000Z</time>
      </trkpt>
      <trkpt lat="48.6265" lon="2.14537">
        <ele>161</ele>
        <time>2019-10-28T10:12:34.000Z</time>
      </trkpt>
      <trkpt lat="48.62651" lon="2.14538">
        <ele>161</ele>
        <time>2019-10-28T10:12:35.000Z</time>
      </trkpt>
      <trkpt lat="48.62652" lon="2.14539">
        <ele>162</ele>
        <time>2019-10-28T10:12:36.000Z</time>
      </trkpt>
      <trkpt lat="48.62653" lon="2.1454">
        <ele>162</ele>
        <time>2019-10-28T10:12:37.000Z</time>
      </trkpt>
      <trkpt lat="48.62655" lon="2.14541">
        <ele>162</ele>
        <time>2019-10-28T10:12:38.000Z</time>
      </trkpt>
      <trkpt lat="48.62656" lon="2.14542">
        <ele>162</ele>
        <time>2019-10-28T10:12:39.000Z</time>
      </trkpt>
      <trkpt lat="48.62657" lon="2.14543">
        <ele>161</ele>
        <time>2019-10-28T10:12:40.000Z</time>
      </trkpt>
      <trkpt lat="48.62658" lon="2.14544">
        <ele>161</ele>
        <time>2019-10-28T10:12:41.000Z</time>
      </trkpt>
      <trkpt lat="48.62659" lon="2.14545">
        <ele>162</ele>
        <time>2019-10-28T10:12:42.000Z</time>
      </trkpt>
      <trkpt lat="48.6266" lon="2.14546">
        <ele>162</ele>
        <time>2019-10-28T10:12:43.000Z</time>
      </trkpt>
      <trkpt lat="48.62661" lon="2.14547">
        <ele>161</ele>
        <time>2019-10-28T10:12:44.000Z</time>
      </trkpt>
      <trkpt lat="48.62662" lon="2.14549">
        <ele>161</ele>
        <time>2019-10-28T10:12:45.000Z</time>
      </trkpt>
      <trkpt lat="48.62663" lon="2.1455">
        <ele>161</ele>
        <time>2019-10-28T10:12:46.000Z</time>
      </trkpt>
      <trkpt lat="48.62665" lon="2.14551">
        <ele>161</ele>
        <time>2019-10-28T10:12:47.000Z</time>
      </trkpt>
      <trkpt lat="48.62666" lon="2.14552">
        <ele>161</ele>
        <time>2019-10-28T10:12:48.000Z</time>
      </trkpt>
      <trkpt lat="48.62667" lon="2.14553">
        <ele>161</ele>
        <time>2019-10-28T10:12:49.000Z</time>
      </trkpt>
      <trkpt lat="48.62668" lon="2.14554">
        <ele>161</ele>
        <time>2019-10-28T10:12:50.000Z</time>
      </trkpt>
      <trkpt lat="48.62669" lon="2.14555">
        <ele>161</ele>
        <time>2019-10-28T10:12:51.000Z</time>
      </trkpt>
      <trkpt lat="48.6267" lon="2.14556">
        <ele>161</ele>
        <time>2019-10-28T10:12:52.000Z</time>
      </trkpt>
      <trkpt lat="48.62672" lon="2.14558">
        <ele>161</ele>
        <time>2019-10-28T10:12:53.000Z</time>
      </trkpt>
      <trkpt lat="48.62673" lon="2.14559">
        <ele>161</ele>
        <time>2019-10-28T10:12:54.000Z</time>
      </trkpt>
      <trkpt lat="48.62674" lon="2.1456">
        <ele>161</ele>
        <time>2019-10-28T10:12:55.000Z</time>
      </trkpt>
      <trkpt lat="48.62675" lon="2.14561">
        <ele>161</ele>
        <time>2019-10-28T10:12:56.000Z</time>
      </trkpt>
      <trkpt lat="48.62676" lon="2.14562">
        <ele>161</ele>
        <time>2019-10-28T10:12:57.000Z</time>
      </trkpt>
      <trkpt lat="48.62677" lon="2.14563">
        <ele>161</ele>
        <time>2019-10-28T10:12:58.000Z</time>
      </trkpt>
      <trkpt lat="48.62678" lon="2.14564">
        <ele>161</ele>
        <time>2019-10-28T10:12:59.000Z</time>
      </trkpt>
      <trkpt lat="48.62679" lon="2.14565">
        <ele>161</ele>
        <time>2019-10-28T10:13:00.000Z</time>
      </trkpt>
      <trkpt lat="48.6268" lon="2.14567">
        <ele>161</ele>
        <time>2019-10-28T10:13:01.000Z</time>
      </trkpt>
      <trkpt lat="48.62681" lon="2.14568">
        <ele>161</ele>
        <time>2019-10-28T10:13:02.000Z</time>
      </trkpt>
      <trkpt lat="48.62682" lon="2.1457">
        <ele>161</ele>
        <time>2019-10-28T10:13:03.000Z</time>
      </trkpt>
      <trkpt lat="48.62683" lon="2.14572">
        <ele>161</ele>
        <time>2019-10-28T10:13:04.000Z</time>
      </trkpt>
      <trkpt lat="48.62683" lon="2.14573">
        <ele>161</ele>
        <time>2019-10-28T10:13:05.000Z</time>
      </trkpt>
      <trkpt lat="48.62684" lon="2.14575">
        <ele>161</ele>
        <time>2019-10-28T10:13:06.000Z</time>
      </trkpt>
      <trkpt lat="48.62684" lon="2.14577">
        <ele>161</ele>
        <time>2019-10-28T10:13:07.000Z</time>
      </trkpt>
      <trkpt lat="48.62684" lon="2.14579">
        <ele>161</ele>
        <time>2019-10-28T10:13:08.000Z</time>
      </trkpt>
      <trkpt lat="48.62684" lon="2.14581">
        <ele>161</ele>
        <time>2019-10-28T10:13:09.000Z</time>
      </trkpt>
      <trkpt lat="48.62685" lon="2.14583">
        <ele>161</ele>
        <time>2019-10-28T10:13:10.000Z</time>
      </trkpt>
      <trkpt lat="48.62685" lon="2.14585">
        <ele>161</ele>
        <time>2019-10-28T10:13:11.000Z</time>
      </trkpt>
      <trkpt lat="48.62685" lon="2.14587">
        <ele>162</ele>
        <time>2019-10-28T10:13:12.000Z</time>
      </trkpt>
      <trkpt lat="48.62686" lon="2.14588">
        <ele>162</ele>
        <time>2019-10-28T10:13:13.000Z</time>
      </trkpt>
      <trkpt lat="48.62686" lon="2.1459">
        <ele>162</ele>
        <time>2019-10-28T10:13:14.000Z</time>
      </trkpt>
      <trkpt lat="48.62687" lon="2.14591">
        <ele>162</ele>
        <time>2019-10-28T10:13:15.000Z</time>
      </trkpt>
      <trkpt lat="48.62688" lon="2.14592">
        <ele>162</ele>
        <time>2019-10-28T10:13:16.000Z</time>
      </trkpt>
      <trkpt lat="48.62689" lon="2.14593">
        <ele>162</ele>
        <time>2019-10-28T10:13:17.000Z</time>
      </trkpt>
      <trkpt lat="48.6269" lon="2.14594">
        <ele>162</ele>
        <time>2019-10-28T10:13:18.000Z</time>
      </trkpt>
      <trkpt lat="48.62691" lon="2.14595">
        <ele>162</ele>
        <time>2019-10-28T10:13:19.000Z</time>
      </trkpt>
      <trkpt lat="48.62691" lon="2.14597">
        <ele>162</ele>
        <time>2019-10-28T10:13:20.000Z</time>
      </trkpt>
      <trkpt lat="48.62692" lon="2.14599">
        <ele>162</ele>
        <time>2019-10-28T10:13:21.000Z</time>
      </trkpt>
      <trkpt lat="48.62692" lon="2.14601">
        <ele>162</ele>
        <time>2019-10-28T10:13:22.000Z</time>
      </trkpt>
      <trkpt lat="48.62693" lon="2.14602">
        <ele>162</ele>
        <time>2019-10-28T10:13:23.000Z</time>
      </trkpt>
      <trkpt lat="48.62694" lon="2.14603">
        <ele>162</ele>
        <time>2019-10-28T10:13:24.000Z</time>
      </trkpt>
      <trkpt lat="48.62695" lon="2.14604">
        <ele>162</ele>
        <time>2019-10-28T10:13:25.000Z</time>
      </trkpt>
      <trkpt lat="48.62696" lon="2.14605">
        <ele>162</ele>
        <time>2019-10-28T10:13:26.000Z</time>
      </trkpt>
      <trkpt lat="48.62698" lon="2.14606">
        <ele>163</ele>
        <time>2019-10-28T10:13:27.000Z</time>
      </trkpt>
      <trkpt lat="48.62699" lon="2.14607">
        <ele>163</ele>
        <time>2019-10-28T10:13:28.000Z</time>
      </trkpt>
      <trkpt lat="48.627" lon="2.14608">
        <ele>164</ele>
        <time>2019-10-28T10:13:29.000Z</time>
      </trkpt>
      <trkpt lat="48.62701" lon="2.14609">
        <ele>164</ele>
        <time>2019-10-28T10:13:30.000Z</time>
      </trkpt>
      <trkpt lat="48.62702" lon="2.1461">
        <ele>164</ele>
        <time>2019-10-28T10:13:31.000Z</time>
      </trkpt>
      <trkpt lat="48.62704" lon="2.14611">
        <ele>164</ele>
        <time>2019-10-28T10:13:32.000Z</time>
      </trkpt>
      <trkpt lat="48.62705" lon="2.14613">
        <ele>164</ele>
        <time>2019-10-28T10:13:33.000Z</time>
      </trkpt>
      <trkpt lat="48.62706" lon="2.14614">
        <ele>164</ele>
        <time>2019-10-28T10:13:34.000Z</time>
      </trkpt>
      <trkpt lat="48.62707" lon="2.14615">
        <ele>164</ele>
        <time>2019-10-28T10:13:35.000Z</time>
      </trkpt>
      <trkpt lat="48.62708" lon="2.14616">
        <ele>164</ele>
        <time>2019-10-28T10:13:36.000Z</time>
      </trkpt>
      <trkpt lat="48.62709" lon="2.14617">
        <ele>164</ele>
        <time>2019-10-28T10:13:37.000Z</time>
      </trkpt>
      <trkpt lat="48.6271" lon="2.14618">
        <ele>163</ele>
        <time>2019-10-28T10:13:38.000Z</time>
      </trkpt>
      <trkpt lat="48.62712" lon="2.14619">
        <ele>163</ele>
        <time>2019-10-28T10:13:39.000Z</time>
      </trkpt>
      <trkpt lat="48.62713" lon="2.14619">
        <ele>163</ele>
        <time>2019-10-28T10:13:40.000Z</time>
      </trkpt>
      <trkpt lat="48.62714" lon="2.1462">
        <ele>163</ele>
        <time>2019-10-28T10:13:41.000Z</time>
      </trkpt>
      <trkpt lat="48.62716" lon="2.14621">
        <ele>163</ele>
        <time>2019-10-28T10:13:42.000Z</time>
      </trkpt>
      <trkpt lat="48.62717" lon="2.14622">
        <ele>163</ele>
        <time>2019-10-28T10:13:43.000Z</time>
      </trkpt>
      <trkpt lat="48.62718" lon="2.14623">
        <ele>163</ele>
        <time>2019-10-28T10:13:44.000Z</time>
      </trkpt>
      <trkpt lat="48.62719" lon="2.14624">
        <ele>163</ele>
        <time>2019-10-28T10:13:45.000Z</time>
      </trkpt>
      <trkpt lat="48.6272" lon="2.14625">
        <ele>163</ele>
        <time>2019-10-28T10:13:46.000Z</time>
      </trkpt>
      <trkpt lat="48.62721" lon="2.14625">
        <ele>163</ele>
        <time>2019-10-28T10:13:47.000Z</time>
      </trkpt>
      <trkpt lat="48.62723" lon="2.14626">
        <ele>162</ele>
        <time>2019-10-28T10:13:48.000Z</time>
      </trkpt>
      <trkpt lat="48.62724" lon="2.14626">
        <ele>162</ele>
        <time>2019-10-28T10:13:49.000Z</time>
      </trkpt>
      <trkpt lat="48.62725" lon="2.14627">
        <ele>162</ele>
        <time>2019-10-28T10:13:50.000Z</time>
      </trkpt>
      <trkpt lat="48.62726" lon="2.14628">
        <ele>162</ele>
        <time>2019-10-28T10:13:51.000Z</time>
      </trkpt>
      <trkpt lat="48.62728" lon="2.14629">
        <ele>162</ele>
        <time>2019-10-28T10:13:52.000Z</time>
      </trkpt>
      <trkpt lat="48.62729" lon="2.1463">
        <ele>162</ele>
        <time>2019-10-28T10:13:53.000Z</time>
      </trkpt>
      <trkpt lat="48.6273" lon="2.14631">
        <ele>162</ele>
        <time>2019-10-28T10:13:54.000Z</time>
      </trkpt>
      <trkpt lat="48.62731" lon="2.14631">
        <ele>162</ele>
        <time>2019-10-28T10:13:55.000Z</time>
      </trkpt>
      <trkpt lat="48.62732" lon="2.14632">
        <ele>162</ele>
        <time>2019-10-28T10:13:56.000Z</time>
      </trkpt>
      <trkpt lat="48.62733" lon="2.14633">
        <ele>162</ele>
        <time>2019-10-28T10:13:57.000Z</time>
      </trkpt>
      <trkpt lat="48.62734" lon="2.14634">
        <ele>162</ele>
        <time>2019-10-28T10:13:58.000Z</time>
      </trkpt>
      <trkpt lat="48.62736" lon="2.14634">
        <ele>162</ele>
        <time>2019-10-28T10:13:59.000Z</time>
      </trkpt>
      <trkpt lat="48.62737" lon="2.14635">
        <ele>162</ele>
        <time>2019-10-28T10:14:00.000Z</time>
      </trkpt>
      <trkpt lat="48.62738" lon="2.14636">
        <ele>162</ele>
        <time>2019-10-28T10:14:01.000Z</time>
      </trkpt>
      <trkpt lat="48.6274" lon="2.14637">
        <ele>161</ele>
        <time>2019-10-28T10:14:02.000Z</time>
      </trkpt>
      <trkpt lat="48.62741" lon="2.14638">
        <ele>161</ele>
        <time>2019-10-28T10:14:03.000Z</time>
      </trkpt>
      <trkpt lat="48.62742" lon="2.14638">
        <ele>162</ele>
        <time>2019-10-28T10:14:04.000Z</time>
      </trkpt>
      <trkpt lat="48.62743" lon="2.14639">
        <ele>162</ele>
        <time>2019-10-28T10:14:05.000Z</time>
      </trkpt>
      <trkpt lat="48.62744" lon="2.1464">
        <ele>162</ele>
        <time>2019-10-28T10:14:06.000Z</time>
      </trkpt>
      <trkpt lat="48.62745" lon="2.1464">
        <ele>162</ele>
        <time>2019-10-28T10:14:07.000Z</time>
      </trkpt>
      <trkpt lat="48.62746" lon="2.14641">
        <ele>162</ele>
        <time>2019-10-28T10:14:08.000Z</time>
      </trkpt>
      <trkpt lat="48.62747" lon="2.14642">
        <ele>162</ele>
        <time>2019-10-28T10:14:09.000Z</time>
      </trkpt>
      <trkpt lat="48.62747" lon="2.14642">
        <ele>162</ele>
        <time>2019-10-28T10:14:10.000Z</time>
      </trkpt>
      <trkpt lat="48.62748" lon="2.14643">
        <ele>162</ele>
        <time>2019-10-28T10:14:11.000Z</time>
      </trkpt>
      <trkpt lat="48.62748" lon="2.14644">
        <ele>161</ele>
        <time>2019-10-28T10:14:12.000Z</time>
      </trkpt>
      <trkpt lat="48.62749" lon="2.14645">
        <ele>162</ele>
        <time>2019-10-28T10:14:13.000Z</time>
      </trkpt>
      <trkpt lat="48.62749" lon="2.14646">
        <ele>161</ele>
        <time>2019-10-28T10:14:14.000Z</time>
      </trkpt>
      <trkpt lat="48.62749" lon="2.14646">
        <ele>161</ele>
        <time>2019-10-28T10:14:15.000Z</time>
      </trkpt>
      <trkpt lat="48.62749" lon="2.14646">
        <ele>162</ele>
        <time>2019-10-28T10:14:16.000Z</time>
      </trkpt>
      <trkpt lat="48.62749" lon="2.14646">
        <ele>162</ele>
        <time>2019-10-28T10:14:17.000Z</time>
      </trkpt>
      <trkpt lat="48.6275" lon="2.14647">
        <ele>162</ele>
        <time>2019-10-28T10:14:18.000Z</time>
      </trkpt>
      <trkpt lat="48.6275" lon="2.14646">
        <ele>162</ele>
        <time>2019-10-28T10:14:19.000Z</time>
      </trkpt>
      <trkpt lat="48.6275" lon="2.14646">
        <ele>163</ele>
        <time>2019-10-28T10:14:20.000Z</time>
      </trkpt>
      <trkpt lat="48.6275" lon="2.14646">
        <ele>163</ele>
        <time>2019-10-28T10:14:21.000Z</time>
      </trkpt>
      <trkpt lat="48.6275" lon="2.14647">
        <ele>163</ele>
        <time>2019-10-28T10:14:22.000Z</time>
      </trkpt>
      <trkpt lat="48.62751" lon="2.14647">
        <ele>162</ele>
        <time>2019-10-28T10:14:23.000Z</time>
      </trkpt>
      <trkpt lat="48.62751" lon="2.14648">
        <ele>162</ele>
        <time>2019-10-28T10:14:24.000Z</time>
      </trkpt>
      <trkpt lat="48.62752" lon="2.14648">
        <ele>162</ele>
        <time>2019-10-28T10:14:25.000Z</time>
      </trkpt>
      <trkpt lat="48.62753" lon="2.14649">
        <ele>162</ele>
        <time>2019-10-28T10:14:26.000Z</time>
      </trkpt>
      <trkpt lat="48.62754" lon="2.1465">
        <ele>162</ele>
        <time>2019-10-28T10:14:27.000Z</time>
      </trkpt>
      <trkpt lat="48.62755" lon="2.14652">
        <ele>162</ele>
        <time>2019-10-28T10:14:28.000Z</time>
      </trkpt>
      <trkpt lat="48.62756" lon="2.14653">
        <ele>162</ele>
        <time>2019-10-28T10:14:29.000Z</time>
      </trkpt>
      <trkpt lat="48.62757" lon="2.14654">
        <ele>162</ele>
        <time>2019-10-28T10:14:30.000Z</time>
      </trkpt>
      <trkpt lat="48.62758" lon="2.14655">
        <ele>162</ele>
        <time>2019-10-28T10:14:31.000Z</time>
      </trkpt>
      <trkpt lat="48.6276" lon="2.14656">
        <ele>162</ele>
        <time>2019-10-28T10:14:32.000Z</time>
      </trkpt>
      <trkpt lat="48.62761" lon="2.14657">
        <ele>162</ele>
        <time>2019-10-28T10:14:33.000Z</time>
      </trkpt>
      <trkpt lat="48.62762" lon="2.14658">
        <ele>162</ele>
        <time>2019-10-28T10:14:34.000Z</time>
      </trkpt>
      <trkpt lat="48.62763" lon="2.14659">
        <ele>162</ele>
        <time>2019-10-28T10:14:35.000Z</time>
      </trkpt>
      <trkpt lat="48.62764" lon="2.1466">
        <ele>162</ele>
        <time>2019-10-28T10:14:36.000Z</time>
      </trkpt>
      <trkpt lat="48.62765" lon="2.14662">
        <ele>162</ele>
        <time>2019-10-28T10:14:37.000Z</time>
      </trkpt>
      <trkpt lat="48.62766" lon="2.14662">
        <ele>162</ele>
        <time>2019-10-28T10:14:38.000Z</time>
      </trkpt>
      <trkpt lat="48.62768" lon="2.14663">
        <ele>162</ele>
        <time>2019-10-28T10:14:39.000Z</time>
      </trkpt>
      <trkpt lat="48.62769" lon="2.14664">
        <ele>162</ele>
        <time>2019-10-28T10:14:40.000Z</time>
      </trkpt>
      <trkpt lat="48.6277" lon="2.14665">
        <ele>162</ele>
        <time>2019-10-28T10:14:41.000Z</time>
      </trkpt>
      <trkpt lat="48.62771" lon="2.14666">
        <ele>162</ele>
        <time>2019-10-28T10:14:42.000Z</time>
      </trkpt>
      <trkpt lat="48.62772" lon="2.14667">
        <ele>162</ele>
        <time>2019-10-28T10:14:43.000Z</time>
      </trkpt>
      <trkpt lat="48.62773" lon="2.14668">
        <ele>162</ele>
        <time>2019-10-28T10:14:44.000Z</time>
      </trkpt>
      <trkpt lat="48.62774" lon="2.14669">
        <ele>162</ele>
        <time>2019-10-28T10:14:45.000Z</time>
      </trkpt>
      <trkpt lat="48.62775" lon="2.1467">
        <ele>162</ele>
        <time>2019-10-28T10:14:46.000Z</time>
      </trkpt>
      <trkpt lat="48.62776" lon="2.14671">
        <ele>162</ele>
        <time>2019-10-28T10:14:47.000Z</time>
      </trkpt>
      <trkpt lat="48.62777" lon="2.14672">
        <ele>162</ele>
        <time>2019-10-28T10:14:48.000Z</time>
      </trkpt>
      <trkpt lat="48.62778" lon="2.14673">
        <ele>162</ele>
        <time>2019-10-28T10:14:49.000Z</time>
      </trkpt>
      <trkpt lat="48.6278" lon="2.14674">
        <ele>162</ele>
        <time>2019-10-28T10:14:50.000Z</time>
      </trkpt>
      <trkpt lat="48.62781" lon="2.14674">
        <ele>162</ele>
        <time>2019-10-28T10:14:51.000Z</time>
      </trkpt>
      <trkpt lat="48.62782" lon="2.14675">
        <ele>162</ele>
        <time>2019-10-28T10:14:52.000Z</time>
      </trkpt>
      <trkpt lat="48.62783" lon="2.14676">
        <ele>162</ele>
        <time>2019-10-28T10:14:53.000Z</time>
      </trkpt>
      <trkpt lat="48.62784" lon="2.14677">
        <ele>162</ele>
        <time>2019-10-28T10:14:54.000Z</time>
      </trkpt>
      <trkpt lat="48.62785" lon="2.14678">
        <ele>162</ele>
        <time>2019-10-28T10:14:55.000Z</time>
      </trkpt>
      <trkpt lat="48.62786" lon="2.14679">
        <ele>162</ele>
        <time>2019-10-28T10:14:56.000Z</time>
      </trkpt>
      <trkpt lat="48.62787" lon="2.1468">
        <ele>162</ele>
        <time>2019-10-28T10:14:57.000Z</time>
      </trkpt>
      <trkpt lat="48.62788" lon="2.14681">
        <ele>162</ele>
        <time>2019-10-28T10:14:58.000Z</time>
      </trkpt>
      <trkpt lat="48.62788" lon="2.14682">
        <ele>162</ele>
        <time>2019-10-28T10:14:59.000Z</time>
      </trkpt>
      <trkpt lat="48.62789" lon="2.14683">
        <ele>162</ele>
        <time>2019-10-28T10:15:00.000Z</time>
      </trkpt>
      <trkpt lat="48.6279" lon="2.14684">
        <ele>162</ele>
        <time>2019-10-28T10:15:01.000Z</time>
      </trkpt>
      <trkpt lat="48.6279" lon="2.14685">
        <ele>163</ele>
        <time>2019-10-28T10:15:02.000Z</time>
      </trkpt>
      <trkpt lat="48.62791" lon="2.14687">
        <ele>163</ele>
        <time>2019-10-28T10:15:03.000Z</time>
      </trkpt>
      <trkpt lat="48.62792" lon="2.14689">
        <ele>163</ele>
        <time>2019-10-28T10:15:04.000Z</time>
      </trkpt>
      <trkpt lat="48.62793" lon="2.1469">
        <ele>163</ele>
        <time>2019-10-28T10:15:05.000Z</time>
      </trkpt>
      <trkpt lat="48.62794" lon="2.14691">
        <ele>163</ele>
        <time>2019-10-28T10:15:06.000Z</time>
      </trkpt>
      <trkpt lat="48.62795" lon="2.14692">
        <ele>163</ele>
        <time>2019-10-28T10:15:07.000Z</time>
      </trkpt>
      <trkpt lat="48.62796" lon="2.14692">
        <ele>163</ele>
        <time>2019-10-28T10:15:08.000Z</time>
      </trkpt>
      <trkpt lat="48.62798" lon="2.14693">
        <ele>163</ele>
        <time>2019-10-28T10:15:09.000Z</time>
      </trkpt>
      <trkpt lat="48.62799" lon="2.14694">
        <ele>164</ele>
        <time>2019-10-28T10:15:10.000Z</time>
      </trkpt>
      <trkpt lat="48.628" lon="2.14695">
        <ele>164</ele>
        <time>2019-10-28T10:15:11.000Z</time>
      </trkpt>
      <trkpt lat="48.62801" lon="2.14696">
        <ele>164</ele>
        <time>2019-10-28T10:15:12.000Z</time>
      </trkpt>
      <trkpt lat="48.62802" lon="2.14697">
        <ele>164</ele>
        <time>2019-10-28T10:15:13.000Z</time>
      </trkpt>
      <trkpt lat="48.62803" lon="2.14699">
        <ele>164</ele>
        <time>2019-10-28T10:15:14.000Z</time>
      </trkpt>
      <trkpt lat="48.62804" lon="2.147">
        <ele>164</ele>
        <time>2019-10-28T10:15:15.000Z</time>
      </trkpt>
      <trkpt lat="48.62806" lon="2.14701">
        <ele>164</ele>
        <time>2019-10-28T10:15:16.000Z</time>
      </trkpt>
      <trkpt lat="48.62807" lon="2.14702">
        <ele>164</ele>
        <time>2019-10-28T10:15:17.000Z</time>
      </trkpt>
      <trkpt lat="48.62808" lon="2.14702">
        <ele>164</ele>
        <time>2019-10-28T10:15:18.000Z</time>
      </trkpt>
      <trkpt lat="48.62809" lon="2.14703">
        <ele>164</ele>
        <time>2019-10-28T10:15:19.000Z</time>
      </trkpt>
      <trkpt lat="48.6281" lon="2.14704">
        <ele>164</ele>
        <time>2019-10-28T10:15:20.000Z</time>
      </trkpt>
      <trkpt lat="48.62811" lon="2.14705">
        <ele>163</ele>
        <time>2019-10-28T10:15:21.000Z</time>
      </trkpt>
      <trkpt lat="48.62812" lon="2.14706">
        <ele>163</ele>
        <time>2019-10-28T10:15:22.000Z</time>
      </trkpt>
      <trkpt lat="48.62813" lon="2.14706">
        <ele>163</ele>
        <time>2019-10-28T10:15:23.000Z</time>
      </trkpt>
      <trkpt lat="48.62815" lon="2.14706">
        <ele>163</ele>
        <time>2019-10-28T10:15:24.000Z</time>
      </trkpt>
      <trkpt lat="48.62816" lon="2.14706">
        <ele>163</ele>
        <time>2019-10-28T10:15:25.000Z</time>
      </trkpt>
      <trkpt lat="48.62818" lon="2.14706">
        <ele>163</ele>
        <time>2019-10-28T10:15:26.000Z</time>
      </trkpt>
      <trkpt lat="48.62819" lon="2.14707">
        <ele>163</ele>
        <time>2019-10-28T10:15:27.000Z</time>
      </trkpt>
      <trkpt lat="48.6282" lon="2.14708">
        <ele>163</ele>
        <time>2019-10-28T10:15:28.000Z</time>
      </trkpt>
      <trkpt lat="48.62821" lon="2.14709">
        <ele>162</ele>
        <time>2019-10-28T10:15:29.000Z</time>
      </trkpt>
      <trkpt lat="48.62822" lon="2.1471">
        <ele>162</ele>
        <time>2019-10-28T10:15:30.000Z</time>
      </trkpt>
      <trkpt lat="48.62824" lon="2.14711">
        <ele>162</ele>
        <time>2019-10-28T10:15:31.000Z</time>
      </trkpt>
      <trkpt lat="48.62825" lon="2.14712">
        <ele>161</ele>
        <time>2019-10-28T10:15:32.000Z</time>
      </trkpt>
      <trkpt lat="48.62827" lon="2.14714">
        <ele>161</ele>
        <time>2019-10-28T10:15:33.000Z</time>
      </trkpt>
      <trkpt lat="48.62829" lon="2.14716">
        <ele>161</ele>
        <time>2019-10-28T10:15:34.000Z</time>
      </trkpt>
      <trkpt lat="48.62831" lon="2.14718">
        <ele>162</ele>
        <time>2019-10-28T10:15:35.000Z</time>
      </trkpt>
      <trkpt lat="48.62834" lon="2.1472">
        <ele>162</ele>
        <time>2019-10-28T10:15:36.000Z</time>
      </trkpt>
      <trkpt lat="48.62836" lon="2.14722">
        <ele>162</ele>
        <time>2019-10-28T10:15:37.000Z</time>
      </trkpt>
      <trkpt lat="48.62839" lon="2.14724">
        <ele>161</ele>
        <time>2019-10-28T10:15:38.000Z</time>
      </trkpt>
      <trkpt lat="48.62841" lon="2.14726">
        <ele>162</ele>
        <time>2019-10-28T10:15:39.000Z</time>
      </trkpt>
      <trkpt lat="48.62844" lon="2.14729">
        <ele>161</ele>
        <time>2019-10-28T10:15:40.000Z</time>
      </trkpt>
      <trkpt lat="48.62846" lon="2.14731">
        <ele>161</ele>
        <time>2019-10-28T10:15:41.000Z</time>
      </trkpt>
      <trkpt lat="48.62849" lon="2.14733">
        <ele>161</ele>
        <time>2019-10-28T10:15:42.000Z</time>
      </trkpt>
      <trkpt lat="48.62851" lon="2.14736">
        <ele>160</ele>
        <time>2019-10-28T10:15:43.000Z</time>
      </trkpt>
      <trkpt lat="48.62853" lon="2.14738">
        <ele>159</ele>
        <time>2019-10-28T10:15:44.000Z</time>
      </trkpt>
      <trkpt lat="48.62856" lon="2.14741">
        <ele>160</ele>
        <time>2019-10-28T10:15:45.000Z</time>
      </trkpt>
      <trkpt lat="48.62858" lon="2.14743">
        <ele>160</ele>
        <time>2019-10-28T10:15:46.000Z</time>
      </trkpt>
      <trkpt lat="48.62861" lon="2.14745">
        <ele>160</ele>
        <time>2019-10-28T10:15:47.000Z</time>
      </trkpt>
      <trkpt lat="48.62864" lon="2.14747">
        <ele>160</ele>
        <time>2019-10-28T10:15:48.000Z</time>
      </trkpt>
      <trkpt lat="48.62866" lon="2.1475">
        <ele>160</ele>
        <time>2019-10-28T10:15:49.000Z</time>
      </trkpt>
      <trkpt lat="48.62869" lon="2.14752">
        <ele>160</ele>
        <time>2019-10-28T10:15:50.000Z</time>
      </trkpt>
      <trkpt lat="48.62871" lon="2.14754">
        <ele>160</ele>
        <time>2019-10-28T10:15:51.000Z</time>
      </trkpt>
      <trkpt lat="48.62874" lon="2.14756">
        <ele>160</ele>
        <time>2019-10-28T10:15:52.000Z</time>
      </trkpt>
      <trkpt lat="48.62876" lon="2.14759">
        <ele>160</ele>
        <time>2019-10-28T10:15:53.000Z</time>
      </trkpt>
      <trkpt lat="48.62879" lon="2.14761">
        <ele>160</ele>
        <time>2019-10-28T10:15:54.000Z</time>
      </trkpt>
      <trkpt lat="48.62881" lon="2.14763">
        <ele>160</ele>
        <time>2019-10-28T10:15:55.000Z</time>
      </trkpt>
      <trkpt lat="48.62884" lon="2.14766">
        <ele>160</ele>
        <time>2019-10-28T10:15:56.000Z</time>
      </trkpt>
      <trkpt lat="48.62886" lon="2.14768">
        <ele>160</ele>
        <time>2019-10-28T10:15:57.000Z</time>
      </trkpt>
      <trkpt lat="48.62889" lon="2.14771">
        <ele>160</ele>
        <time>2019-10-28T10:15:58.000Z</time>
      </trkpt>
      <trkpt lat="48.62891" lon="2.14774">
        <ele>160</ele>
        <time>2019-10-28T10:15:59.000Z</time>
      </trkpt>
      <trkpt lat="48.62894" lon="2.14777">
        <ele>161</ele>
        <time>2019-10-28T10:16:00.000Z</time>
      </trkpt>
      <trkpt lat="48.62896" lon="2.14779">
        <ele>161</ele>
        <time>2019-10-28T10:16:01.000Z</time>
      </trkpt>
      <trkpt lat="48.62899" lon="2.14782">
        <ele>161</ele>
        <time>2019-10-28T10:16:02.000Z</time>
      </trkpt>
      <trkpt lat="48.62901" lon="2.14784">
        <ele>162</ele>
        <time>2019-10-28T10:16:03.000Z</time>
      </trkpt>
      <trkpt lat="48.62904" lon="2.14786">
        <ele>162</ele>
        <time>2019-10-28T10:16:04.000Z</time>
      </trkpt>
      <trkpt lat="48.62907" lon="2.14789">
        <ele>162</ele>
        <time>2019-10-28T10:16:05.000Z</time>
      </trkpt>
      <trkpt lat="48.62909" lon="2.14791">
        <ele>162</ele>
        <time>2019-10-28T10:16:06.000Z</time>
      </trkpt>
      <trkpt lat="48.62912" lon="2.14794">
        <ele>161</ele>
        <time>2019-10-28T10:16:07.000Z</time>
      </trkpt>
      <trkpt lat="48.62915" lon="2.14796">
        <ele>162</ele>
        <time>2019-10-28T10:16:08.000Z</time>
      </trkpt>
      <trkpt lat="48.62918" lon="2.14799">
        <ele>161</ele>
        <time>2019-10-28T10:16:09.000Z</time>
      </trkpt>
      <trkpt lat="48.62921" lon="2.14802">
        <ele>161</ele>
        <time>2019-10-28T10:16:10.000Z</time>
      </trkpt>
      <trkpt lat="48.62923" lon="2.14804">
        <ele>161</ele>
        <time>2019-10-28T10:16:11.000Z</time>
      </trkpt>
      <trkpt lat="48.62926" lon="2.14807">
        <ele>161</ele>
        <time>2019-10-28T10:16:12.000Z</time>
      </trkpt>
      <trkpt lat="48.62929" lon="2.14809">
        <ele>161</ele>
        <time>2019-10-28T10:16:13.000Z</time>
      </trkpt>
      <trkpt lat="48.62931" lon="2.14812">
        <ele>161</ele>
        <time>2019-10-28T10:16:14.000Z</time>
      </trkpt>
      <trkpt lat="48.62934" lon="2.14814">
        <ele>161</ele>
        <time>2019-10-28T10:16:15.000Z</time>
      </trkpt>
      <trkpt lat="48.62937" lon="2.14816">
        <ele>161</ele>
        <time>2019-10-28T10:16:16.000Z</time>
      </trkpt>
      <trkpt lat="48.6294" lon="2.14819">
        <ele>161</ele>
        <time>2019-10-28T10:16:17.000Z</time>
      </trkpt>
      <trkpt lat="48.62942" lon="2.14822">
        <ele>160</ele>
        <time>2019-10-28T10:16:18.000Z</time>
      </trkpt>
      <trkpt lat="48.62945" lon="2.14824">
        <ele>160</ele>
        <time>2019-10-28T10:16:19.000Z</time>
      </trkpt>
      <trkpt lat="48.62948" lon="2.14826">
        <ele>160</ele>
        <time>2019-10-28T10:16:20.000Z</time>
      </trkpt>
      <trkpt lat="48.62951" lon="2.14829">
        <ele>160</ele>
        <time>2019-10-28T10:16:21.000Z</time>
      </trkpt>
      <trkpt lat="48.62954" lon="2.14831">
        <ele>160</ele>
        <time>2019-10-28T10:16:22.000Z</time>
      </trkpt>
      <trkpt lat="48.62957" lon="2.14833">
        <ele>160</ele>
        <time>2019-10-28T10:16:23.000Z</time>
      </trkpt>
      <trkpt lat="48.6296" lon="2.14836">
        <ele>161</ele>
        <time>2019-10-28T10:16:24.000Z</time>
      </trkpt>
      <trkpt lat="48.62963" lon="2.14838">
        <ele>161</ele>
        <time>2019-10-28T10:16:25.000Z</time>
      </trkpt>
      <trkpt lat="48.62966" lon="2.1484">
        <ele>161</ele>
        <time>2019-10-28T10:16:26.000Z</time>
      </trkpt>
      <trkpt lat="48.62968" lon="2.14843">
        <ele>161</ele>
        <time>2019-10-28T10:16:27.000Z</time>
      </trkpt>
      <trkpt lat="48.62971" lon="2.14845">
        <ele>161</ele>
        <time>2019-10-28T10:16:28.000Z</time>
      </trkpt>
      <trkpt lat="48.62974" lon="2.14848">
        <ele>161</ele>
        <time>2019-10-28T10:16:29.000Z</time>
      </trkpt>
      <trkpt lat="48.62977" lon="2.1485">
        <ele>160</ele>
        <time>2019-10-28T10:16:30.000Z</time>
      </trkpt>
      <trkpt lat="48.6298" lon="2.14852">
        <ele>161</ele>
        <time>2019-10-28T10:16:31.000Z</time>
      </trkpt>
      <trkpt lat="48.62983" lon="2.14855">
        <ele>161</ele>
        <time>2019-10-28T10:16:32.000Z</time>
      </trkpt>
      <trkpt lat="48.62986" lon="2.14857">
        <ele>160</ele>
        <time>2019-10-28T10:16:33.000Z</time>
      </trkpt>
      <trkpt lat="48.62988" lon="2.1486">
        <ele>161</ele>
        <time>2019-10-28T10:16:34.000Z</time>
      </trkpt>
      <trkpt lat="48.62991" lon="2.14862">
        <ele>161</ele>
        <time>2019-10-28T10:16:35.000Z</time>
      </trkpt>
      <trkpt lat="48.62994" lon="2.14865">
        <ele>161</ele>
        <time>2019-10-28T10:16:36.000Z</time>
      </trkpt>
      <trkpt lat="48.62997" lon="2.14867">
        <ele>161</ele>
        <time>2019-10-28T10:16:37.000Z</time>
      </trkpt>
      <trkpt lat="48.63" lon="2.14869">
        <ele>162</ele>
        <time>2019-10-28T10:16:38.000Z</time>
      </trkpt>
      <trkpt lat="48.63002" lon="2.14871">
        <ele>162</ele>
        <time>2019-10-28T10:16:39.000Z</time>
      </trkpt>
      <trkpt lat="48.63005" lon="2.14873">
        <ele>163</ele>
        <time>2019-10-28T10:16:40.000Z</time>
      </trkpt>
      <trkpt lat="48.63008" lon="2.14876">
        <ele>163</ele>
        <time>2019-10-28T10:16:41.000Z</time>
      </trkpt>
      <trkpt lat="48.63011" lon="2.14878">
        <ele>163</ele>
        <time>2019-10-28T10:16:42.000Z</time>
      </trkpt>
      <trkpt lat="48.63014" lon="2.1488">
        <ele>164</ele>
        <time>2019-10-28T10:16:43.000Z</time>
      </trkpt>
      <trkpt lat="48.63016" lon="2.14883">
        <ele>163</ele>
        <time>2019-10-28T10:16:44.000Z</time>
      </trkpt>
      <trkpt lat="48.63019" lon="2.14885">
        <ele>163</ele>
        <time>2019-10-28T10:16:45.000Z</time>
      </trkpt>
      <trkpt lat="48.63021" lon="2.14887">
        <ele>163</ele>
        <time>2019-10-28T10:16:46.000Z</time>
      </trkpt>
      <trkpt lat="48.63024" lon="2.1489">
        <ele>165</ele>
        <time>2019-10-28T10:16:47.000Z</time>
      </trkpt>
      <trkpt lat="48.63027" lon="2.14892">
        <ele>165</ele>
        <time>2019-10-28T10:16:48.000Z</time>
      </trkpt>
      <trkpt lat="48.63029" lon="2.14894">
        <ele>165</ele>
        <time>2019-10-28T10:16:49.000Z</time>
      </trkpt>
      <trkpt lat="48.63032" lon="2.14896">
        <ele>165</ele>
        <time>2019-10-28T10:16:50.000Z</time>
      </trkpt>
      <trkpt lat="48.63035" lon="2.14899">
        <ele>165</ele>
        <time>2019-10-28T10:16:51.000Z</time>
      </trkpt>
      <trkpt lat="48.63037" lon="2.14901">
        <ele>165</ele>
        <time>2019-10-28T10:16:52.000Z</time>
      </trkpt>
      <trkpt lat="48.6304" lon="2.14903">
        <ele>165</ele>
        <time>2019-10-28T10:16:53.000Z</time>
      </trkpt>
      <trkpt lat="48.63042" lon="2.14906">
        <ele>164</ele>
        <time>2019-10-28T10:16:54.000Z</time>
      </trkpt>
      <trkpt lat="48.63045" lon="2.14908">
        <ele>164</ele>
        <time>2019-10-28T10:16:55.000Z</time>
      </trkpt>
      <trkpt lat="48.63047" lon="2.1491">
        <ele>164</ele>
        <time>2019-10-28T10:16:56.000Z</time>
      </trkpt>
      <trkpt lat="48.63049" lon="2.14912">
        <ele>163</ele>
        <time>2019-10-28T10:16:57.000Z</time>
      </trkpt>
      <trkpt lat="48.63052" lon="2.14914">
        <ele>163</ele>
        <time>2019-10-28T10:16:58.000Z</time>
      </trkpt>
      <trkpt lat="48.63054" lon="2.14916">
        <ele>163</ele>
        <time>2019-10-28T10:16:59.000Z</time>
      </trkpt>
      <trkpt lat="48.63057" lon="2.14919">
        <ele>163</ele>
        <time>2019-10-28T10:17:00.000Z</time>
      </trkpt>
      <trkpt lat="48.6306" lon="2.14921">
        <ele>164</ele>
        <time>2019-10-28T10:17:01.000Z</time>
      </trkpt>
      <trkpt lat="48.63062" lon="2.14923">
        <ele>163</ele>
        <time>2019-10-28T10:17:02.000Z</time>
      </trkpt>
      <trkpt lat="48.63065" lon="2.14925">
        <ele>163</ele>
        <time>2019-10-28T10:17:03.000Z</time>
      </trkpt>
      <trkpt lat="48.63067" lon="2.14927">
        <ele>163</ele>
        <time>2019-10-28T10:17:04.000Z</time>
      </trkpt>
      <trkpt lat="48.6307" lon="2.1493">
        <ele>163</ele>
        <time>2019-10-28T10:17:05.000Z</time>
      </trkpt>
      <trkpt lat="48.63073" lon="2.14932">
        <ele>164</ele>
        <time>2019-10-28T10:17:06.000Z</time>
      </trkpt>
      <trkpt lat="48.63076" lon="2.14934">
        <ele>164</ele>
        <time>2019-10-28T10:17:07.000Z</time>
      </trkpt>
      <trkpt lat="48.63078" lon="2.14936">
        <ele>164</ele>
        <time>2019-10-28T10:17:08.000Z</time>
      </trkpt>
      <trkpt lat="48.63081" lon="2.14938">
        <ele>164</ele>
        <time>2019-10-28T10:17:09.000Z</time>
      </trkpt>
      <trkpt lat="48.63084" lon="2.14941">
        <ele>164</ele>
        <time>2019-10-28T10:17:10.000Z</time>
      </trkpt>
      <trkpt lat="48.63086" lon="2.14943">
        <ele>164</ele>
        <time>2019-10-28T10:17:11.000Z</time>
      </trkpt>
      <trkpt lat="48.63089" lon="2.14945">
        <ele>164</ele>
        <time>2019-10-28T10:17:12.000Z</time>
      </trkpt>
      <trkpt lat="48.63091" lon="2.14947">
        <ele>163</ele>
        <time>2019-10-28T10:17:13.000Z</time>
      </trkpt>
      <trkpt lat="48.63093" lon="2.14949">
        <ele>163</ele>
        <time>2019-10-28T10:17:14.000Z</time>
      </trkpt>
      <trkpt lat="48.63095" lon="2.14951">
        <ele>163</ele>
        <time>2019-10-28T10:17:15.000Z</time>
      </trkpt>
      <trkpt lat="48.63097" lon="2.14953">
        <ele>163</ele>
        <time>2019-10-28T10:17:16.000Z</time>
      </trkpt>
      <trkpt lat="48.63099" lon="2.14956">
        <ele>163</ele>
        <time>2019-10-28T10:17:17.000Z</time>
      </trkpt>
      <trkpt lat="48.63102" lon="2.14958">
        <ele>163</ele>
        <time>2019-10-28T10:17:18.000Z</time>
      </trkpt>
      <trkpt lat="48.63104" lon="2.14959">
        <ele>164</ele>
        <time>2019-10-28T10:17:19.000Z</time>
      </trkpt>
      <trkpt lat="48.63107" lon="2.14961">
        <ele>164</ele>
        <time>2019-10-28T10:17:20.000Z</time>
      </trkpt>
      <trkpt lat="48.63109" lon="2.14963">
        <ele>164</ele>
        <time>2019-10-28T10:17:21.000Z</time>
      </trkpt>
      <trkpt lat="48.63112" lon="2.14964">
        <ele>164</ele>
        <time>2019-10-28T10:17:22.000Z</time>
      </trkpt>
      <trkpt lat="48.63114" lon="2.14965">
        <ele>165</ele>
        <time>2019-10-28T10:17:23.000Z</time>
      </trkpt>
      <trkpt lat="48.63116" lon="2.14966">
        <ele>165</ele>
        <time>2019-10-28T10:17:24.000Z</time>
      </trkpt>
      <trkpt lat="48.63117" lon="2.14967">
        <ele>165</ele>
        <time>2019-10-28T10:17:25.000Z</time>
      </trkpt>
      <trkpt lat="48.63119" lon="2.14968">
        <ele>165</ele>
        <time>2019-10-28T10:17:26.000Z</time>
      </trkpt>
      <trkpt lat="48.6312" lon="2.14969">
        <ele>165</ele>
        <time>2019-10-28T10:17:27.000Z</time>
      </trkpt>
      <trkpt lat="48.63121" lon="2.14969">
        <ele>165</ele>
        <time>2019-10-28T10:17:28.000Z</time>
      </trkpt>
      <trkpt lat="48.63123" lon="2.1497">
        <ele>164</ele>
        <time>2019-10-28T10:17:29.000Z</time>
      </trkpt>
      <trkpt lat="48.63124" lon="2.14971">
        <ele>164</ele>
        <time>2019-10-28T10:17:30.000Z</time>
      </trkpt>
      <trkpt lat="48.63125" lon="2.14972">
        <ele>164</ele>
        <time>2019-10-28T10:17:31.000Z</time>
      </trkpt>
      <trkpt lat="48.63126" lon="2.14972">
        <ele>164</ele>
        <time>2019-10-28T10:17:32.000Z</time>
      </trkpt>
      <trkpt lat="48.63127" lon="2.14974">
        <ele>164</ele>
        <time>2019-10-28T10:17:33.000Z</time>
      </trkpt>
      <trkpt lat="48.63128" lon="2.14975">
        <ele>164</ele>
        <time>2019-10-28T10:17:34.000Z</time>
      </trkpt>
      <trkpt lat="48.63129" lon="2.14976">
        <ele>164</ele>
        <time>2019-10-28T10:17:35.000Z</time>
      </trkpt>
      <trkpt lat="48.6313" lon="2.14977">
        <ele>164</ele>
        <time>2019-10-28T10:17:36.000Z</time>
      </trkpt>
      <trkpt lat="48.63131" lon="2.14978">
        <ele>164</ele>
        <time>2019-10-28T10:17:37.000Z</time>
      </trkpt>
      <trkpt lat="48.63131" lon="2.14979">
        <ele>164</ele>
        <time>2019-10-28T10:17:38.000Z</time>
      </trkpt>
      <trkpt lat="48.63132" lon="2.1498">
        <ele>164</ele>
        <time>2019-10-28T10:17:39.000Z</time>
      </trkpt>
      <trkpt lat="48.63133" lon="2.1498">
        <ele>164</ele>
        <time>2019-10-28T10:17:40.000Z</time>
      </trkpt>
      <trkpt lat="48.63134" lon="2.14981">
        <ele>164</ele>
        <time>2019-10-28T10:17:41.000Z</time>
      </trkpt>
      <trkpt lat="48.63135" lon="2.14982">
        <ele>164</ele>
        <time>2019-10-28T10:17:42.000Z</time>
      </trkpt>
      <trkpt lat="48.63136" lon="2.14983">
        <ele>164</ele>
        <time>2019-10-28T10:17:43.000Z</time>
      </trkpt>
      <trkpt lat="48.63137" lon="2.14985">
        <ele>164</ele>
        <time>2019-10-28T10:17:44.000Z</time>
      </trkpt>
      <trkpt lat="48.63138" lon="2.14986">
        <ele>164</ele>
        <time>2019-10-28T10:17:45.000Z</time>
      </trkpt>
      <trkpt lat="48.63138" lon="2.14987">
        <ele>164</ele>
        <time>2019-10-28T10:17:46.000Z</time>
      </trkpt>
      <trkpt lat="48.63139" lon="2.14989">
        <ele>164</ele>
        <time>2019-10-28T10:17:47.000Z</time>
      </trkpt>
      <trkpt lat="48.6314" lon="2.1499">
        <ele>164</ele>
        <time>2019-10-28T10:17:48.000Z</time>
      </trkpt>
      <trkpt lat="48.63141" lon="2.14991">
        <ele>164</ele>
        <time>2019-10-28T10:17:49.000Z</time>
      </trkpt>
      <trkpt lat="48.63141" lon="2.14993">
        <ele>164</ele>
        <time>2019-10-28T10:17:50.000Z</time>
      </trkpt>
      <trkpt lat="48.63142" lon="2.14994">
        <ele>164</ele>
        <time>2019-10-28T10:17:51.000Z</time>
      </trkpt>
      <trkpt lat="48.63143" lon="2.14996">
        <ele>164</ele>
        <time>2019-10-28T10:17:52.000Z</time>
      </trkpt>
      <trkpt lat="48.63144" lon="2.14997">
        <ele>163</ele>
        <time>2019-10-28T10:17:53.000Z</time>
      </trkpt>
      <trkpt lat="48.63145" lon="2.14999">
        <ele>163</ele>
        <time>2019-10-28T10:17:54.000Z</time>
      </trkpt>
      <trkpt lat="48.63146" lon="2.15">
        <ele>164</ele>
        <time>2019-10-28T10:17:55.000Z</time>
      </trkpt>
      <trkpt lat="48.63146" lon="2.15002">
        <ele>163</ele>
        <time>2019-10-28T10:17:56.000Z</time>
      </trkpt>
      <trkpt lat="48.63147" lon="2.15003">
        <ele>163</ele>
        <time>2019-10-28T10:17:57.000Z</time>
      </trkpt>
      <trkpt lat="48.63147" lon="2.15005">
        <ele>163</ele>
        <time>2019-10-28T10:17:58.000Z</time>
      </trkpt>
      <trkpt lat="48.63148" lon="2.15007">
        <ele>164</ele>
        <time>2019-10-28T10:17:59.000Z</time>
      </trkpt>
      <trkpt lat="48.63149" lon="2.15009">
        <ele>164</ele>
        <time>2019-10-28T10:18:00.000Z</time>
      </trkpt>
      <trkpt lat="48.6315" lon="2.1501">
        <ele>164</ele>
        <time>2019-10-28T10:18:01.000Z</time>
      </trkpt>
      <trkpt lat="48.63151" lon="2.15012">
        <ele>164</ele>
        <time>2019-10-28T10:18:02.000Z</time>
      </trkpt>
      <trkpt lat="48.63151" lon="2.15013">
        <ele>164</ele>
        <time>2019-10-28T10:18:03.000Z</time>
      </trkpt>
      <trkpt lat="48.63152" lon="2.15015">
        <ele>164</ele>
        <time>2019-10-28T10:18:04.000Z</time>
      </trkpt>
      <trkpt lat="48.63153" lon="2.15016">
        <ele>164</ele>
        <time>2019-10-28T10:18:05.000Z</time>
      </trkpt>
      <trkpt lat="48.63154" lon="2.15017">
        <ele>163</ele>
        <time>2019-10-28T10:18:06.000Z</time>
      </trkpt>
      <trkpt lat="48.63155" lon="2.15019">
        <ele>163</ele>
        <time>2019-10-28T10:18:07.000Z</time>
      </trkpt>
      <trkpt lat="48.63156" lon="2.1502">
        <ele>164</ele>
        <time>2019-10-28T10:18:08.000Z</time>
      </trkpt>
      <trkpt lat="48.63156" lon="2.15021">
        <ele>164</ele>
        <time>2019-10-28T10:18:09.000Z</time>
      </trkpt>
      <trkpt lat="48.63157" lon="2.15023">
        <ele>164</ele>
        <time>2019-10-28T10:18:10.000Z</time>
      </trkpt>
      <trkpt lat="48.63158" lon="2.15024">
        <ele>164</ele>
        <time>2019-10-28T10:18:11.000Z</time>
      </trkpt>
      <trkpt lat="48.63159" lon="2.15025">
        <ele>164</ele>
        <time>2019-10-28T10:18:12.000Z</time>
      </trkpt>
      <trkpt lat="48.6316" lon="2.15026">
        <ele>164</ele>
        <time>2019-10-28T10:18:13.000Z</time>
      </trkpt>
      <trkpt lat="48.63161" lon="2.15027">
        <ele>164</ele>
        <time>2019-10-28T10:18:14.000Z</time>
      </trkpt>
      <trkpt lat="48.63162" lon="2.15029">
        <ele>164</ele>
        <time>2019-10-28T10:18:15.000Z</time>
      </trkpt>
      <trkpt lat="48.63162" lon="2.15031">
        <ele>164</ele>
        <time>2019-10-28T10:18:16.000Z</time>
      </trkpt>
      <trkpt lat="48.63163" lon="2.15032">
        <ele>163</ele>
        <time>2019-10-28T10:18:17.000Z</time>
      </trkpt>
      <trkpt lat="48.63164" lon="2.15034">
        <ele>163</ele>
        <time>2019-10-28T10:18:18.000Z</time>
      </trkpt>
      <trkpt lat="48.63164" lon="2.15035">
        <ele>163</ele>
        <time>2019-10-28T10:18:19.000Z</time>
      </trkpt>
      <trkpt lat="48.63165" lon="2.15037">
        <ele>163</ele>
        <time>2019-10-28T10:18:20.000Z</time>
      </trkpt>
      <trkpt lat="48.63166" lon="2.15038">
        <ele>163</ele>
        <time>2019-10-28T10:18:21.000Z</time>
      </trkpt>
      <trkpt lat="48.63166" lon="2.1504">
        <ele>163</ele>
        <time>2019-10-28T10:18:22.000Z</time>
      </trkpt>
      <trkpt lat="48.63167" lon="2.15041">
        <ele>163</ele>
        <time>2019-10-28T10:18:23.000Z</time>
      </trkpt>
      <trkpt lat="48.63168" lon="2.15042">
        <ele>163</ele>
        <time>2019-10-28T10:18:24.000Z</time>
      </trkpt>
      <trkpt lat="48.63169" lon="2.15043">
        <ele>163</ele>
        <time>2019-10-28T10:18:25.000Z</time>
      </trkpt>
      <trkpt lat="48.6317" lon="2.15045">
        <ele>163</ele>
        <time>2019-10-28T10:18:26.000Z</time>
      </trkpt>
      <trkpt lat="48.63171" lon="2.15046">
        <ele>163</ele>
        <time>2019-10-28T10:18:27.000Z</time>
      </trkpt>
      <trkpt lat="48.63172" lon="2.15048">
        <ele>163</ele>
        <time>2019-10-28T10:18:28.000Z</time>
      </trkpt>
      <trkpt lat="48.63173" lon="2.15049">
        <ele>163</ele>
        <time>2019-10-28T10:18:29.000Z</time>
      </trkpt>
      <trkpt lat="48.63174" lon="2.15051">
        <ele>163</ele>
        <time>2019-10-28T10:18:30.000Z</time>
      </trkpt>
      <trkpt lat="48.63175" lon="2.15053">
        <ele>163</ele>
        <time>2019-10-28T10:18:31.000Z</time>
      </trkpt>
      <trkpt lat="48.63176" lon="2.15055">
        <ele>163</ele>
        <time>2019-10-28T10:18:32.000Z</time>
      </trkpt>
      <trkpt lat="48.63177" lon="2.15057">
        <ele>163</ele>
        <time>2019-10-28T10:18:33.000Z</time>
      </trkpt>
      <trkpt lat="48.63178" lon="2.15059">
        <ele>163</ele>
        <time>2019-10-28T10:18:34.000Z</time>
      </trkpt>
      <trkpt lat="48.63178" lon="2.1506">
        <ele>163</ele>
        <time>2019-10-28T10:18:35.000Z</time>
      </trkpt>
      <trkpt lat="48.63179" lon="2.15062">
        <ele>163</ele>
        <time>2019-10-28T10:18:36.000Z</time>
      </trkpt>
      <trkpt lat="48.6318" lon="2.15064">
        <ele>163</ele>
        <time>2019-10-28T10:18:37.000Z</time>
      </trkpt>
      <trkpt lat="48.63181" lon="2.15065">
        <ele>163</ele>
        <time>2019-10-28T10:18:38.000Z</time>
      </trkpt>
      <trkpt lat="48.63182" lon="2.15067">
        <ele>164</ele>
        <time>2019-10-28T10:18:39.000Z</time>
      </trkpt>
      <trkpt lat="48.63183" lon="2.15069">
        <ele>164</ele>
        <time>2019-10-28T10:18:40.000Z</time>
      </trkpt>
      <trkpt lat="48.63184" lon="2.15071">
        <ele>164</ele>
        <time>2019-10-28T10:18:41.000Z</time>
      </trkpt>
      <trkpt lat="48.63185" lon="2.15073">
        <ele>164</ele>
        <time>2019-10-28T10:18:42.000Z</time>
      </trkpt>
      <trkpt lat="48.63186" lon="2.15074">
        <ele>164</ele>
        <time>2019-10-28T10:18:43.000Z</time>
      </trkpt>
      <trkpt lat="48.63187" lon="2.15076">
        <ele>164</ele>
        <time>2019-10-28T10:18:44.000Z</time>
      </trkpt>
      <trkpt lat="48.63187" lon="2.15077">
        <ele>164</ele>
        <time>2019-10-28T10:18:45.000Z</time>
      </trkpt>
      <trkpt lat="48.63188" lon="2.15079">
        <ele>164</ele>
        <time>2019-10-28T10:18:46.000Z</time>
      </trkpt>
      <trkpt lat="48.63189" lon="2.15081">
        <ele>163</ele>
        <time>2019-10-28T10:18:47.000Z</time>
      </trkpt>
      <trkpt lat="48.6319" lon="2.15082">
        <ele>164</ele>
        <time>2019-10-28T10:18:48.000Z</time>
      </trkpt>
      <trkpt lat="48.63191" lon="2.15084">
        <ele>164</ele>
        <time>2019-10-28T10:18:49.000Z</time>
      </trkpt>
      <trkpt lat="48.63191" lon="2.15086">
        <ele>164</ele>
        <time>2019-10-28T10:18:50.000Z</time>
      </trkpt>
      <trkpt lat="48.63192" lon="2.15088">
        <ele>164</ele>
        <time>2019-10-28T10:18:51.000Z</time>
      </trkpt>
      <trkpt lat="48.63193" lon="2.1509">
        <ele>164</ele>
        <time>2019-10-28T10:18:52.000Z</time>
      </trkpt>
      <trkpt lat="48.63194" lon="2.15092">
        <ele>164</ele>
        <time>2019-10-28T10:18:53.000Z</time>
      </trkpt>
      <trkpt lat="48.63195" lon="2.15094">
        <ele>164</ele>
        <time>2019-10-28T10:18:54.000Z</time>
      </trkpt>
      <trkpt lat="48.63196" lon="2.15095">
        <ele>164</ele>
        <time>2019-10-28T10:18:55.000Z</time>
      </trkpt>
      <trkpt lat="48.63197" lon="2.15097">
        <ele>164</ele>
        <time>2019-10-28T10:18:56.000Z</time>
      </trkpt>
      <trkpt lat="48.63198" lon="2.15099">
        <ele>164</ele>
        <time>2019-10-28T10:18:57.000Z</time>
      </trkpt>
      <trkpt lat="48.63198" lon="2.15101">
        <ele>164</ele>
        <time>2019-10-28T10:18:58.000Z</time>
      </trkpt>
      <trkpt lat="48.63199" lon="2.15103">
        <ele>164</ele>
        <time>2019-10-28T10:18:59.000Z</time>
      </trkpt>
      <trkpt lat="48.632" lon="2.15105">
        <ele>164</ele>
        <time>2019-10-28T10:19:00.000Z</time>
      </trkpt>
      <trkpt lat="48.63201" lon="2.15106">
        <ele>164</ele>
        <time>2019-10-28T10:19:01.000Z</time>
      </trkpt>
      <trkpt lat="48.63202" lon="2.15108">
        <ele>164</ele>
        <time>2019-10-28T10:19:02.000Z</time>
      </trkpt>
      <trkpt lat="48.63203" lon="2.1511">
        <ele>164</ele>
        <time>2019-10-28T10:19:03.000Z</time>
      </trkpt>
      <trkpt lat="48.63204" lon="2.15112">
        <ele>164</ele>
        <time>2019-10-28T10:19:04.000Z</time>
      </trkpt>
      <trkpt lat="48.63204" lon="2.15114">
        <ele>164</ele>
        <time>2019-10-28T10:19:05.000Z</time>
      </trkpt>
      <trkpt lat="48.63205" lon="2.15116">
        <ele>164</ele>
        <time>2019-10-28T10:19:06.000Z</time>
      </trkpt>
      <trkpt lat="48.63206" lon="2.15117">
        <ele>164</ele>
        <time>2019-10-28T10:19:07.000Z</time>
      </trkpt>
      <trkpt lat="48.63207" lon="2.15119">
        <ele>164</ele>
        <time>2019-10-28T10:19:08.000Z</time>
      </trkpt>
      <trkpt lat="48.63207" lon="2.15121">
        <ele>164</ele>
        <time>2019-10-28T10:19:09.000Z</time>
      </trkpt>
      <trkpt lat="48.63208" lon="2.15123">
        <ele>164</ele>
        <time>2019-10-28T10:19:10.000Z</time>
      </trkpt>
      <trkpt lat="48.63209" lon="2.15124">
        <ele>164</ele>
        <time>2019-10-28T10:19:11.000Z</time>
      </trkpt>
      <trkpt lat="48.63209" lon="2.15126">
        <ele>164</ele>
        <time>2019-10-28T10:19:12.000Z</time>
      </trkpt>
      <trkpt lat="48.6321" lon="2.15128">
        <ele>164</ele>
        <time>2019-10-28T10:19:13.000Z</time>
      </trkpt>
      <trkpt lat="48.63211" lon="2.1513">
        <ele>164</ele>
        <time>2019-10-28T10:19:14.000Z</time>
      </trkpt>
      <trkpt lat="48.63212" lon="2.15132">
        <ele>164</ele>
        <time>2019-10-28T10:19:15.000Z</time>
      </trkpt>
      <trkpt lat="48.63212" lon="2.15134">
        <ele>164</ele>
        <time>2019-10-28T10:19:16.000Z</time>
      </trkpt>
      <trkpt lat="48.63213" lon="2.15135">
        <ele>164</ele>
        <time>2019-10-28T10:19:17.000Z</time>
      </trkpt>
      <trkpt lat="48.63214" lon="2.15137">
        <ele>164</ele>
        <time>2019-10-28T10:19:18.000Z</time>
      </trkpt>
      <trkpt lat="48.63215" lon="2.15139">
        <ele>164</ele>
        <time>2019-10-28T10:19:19.000Z</time>
      </trkpt>
      <trkpt lat="48.63216" lon="2.1514">
        <ele>164</ele>
        <time>2019-10-28T10:19:20.000Z</time>
      </trkpt>
      <trkpt lat="48.63217" lon="2.15142">
        <ele>164</ele>
        <time>2019-10-28T10:19:21.000Z</time>
      </trkpt>
      <trkpt lat="48.63218" lon="2.15144">
        <ele>164</ele>
        <time>2019-10-28T10:19:22.000Z</time>
      </trkpt>
      <trkpt lat="48.63219" lon="2.15146">
        <ele>164</ele>
        <time>2019-10-28T10:19:23.000Z</time>
      </trkpt>
      <trkpt lat="48.6322" lon="2.15147">
        <ele>164</ele>
        <time>2019-10-28T10:19:24.000Z</time>
      </trkpt>
      <trkpt lat="48.6322" lon="2.15149">
        <ele>164</ele>
        <time>2019-10-28T10:19:25.000Z</time>
      </trkpt>
      <trkpt lat="48.63221" lon="2.1515">
        <ele>164</ele>
        <time>2019-10-28T10:19:26.000Z</time>
      </trkpt>
      <trkpt lat="48.63222" lon="2.15152">
        <ele>163</ele>
        <time>2019-10-28T10:19:27.000Z</time>
      </trkpt>
      <trkpt lat="48.63223" lon="2.15153">
        <ele>163</ele>
        <time>2019-10-28T10:19:28.000Z</time>
      </trkpt>
      <trkpt lat="48.63224" lon="2.15155">
        <ele>163</ele>
        <time>2019-10-28T10:19:29.000Z</time>
      </trkpt>
      <trkpt lat="48.63225" lon="2.15157">
        <ele>164</ele>
        <time>2019-10-28T10:19:30.000Z</time>
      </trkpt>
      <trkpt lat="48.63225" lon="2.15158">
        <ele>164</ele>
        <time>2019-10-28T10:19:31.000Z</time>
      </trkpt>
      <trkpt lat="48.63226" lon="2.1516">
        <ele>163</ele>
        <time>2019-10-28T10:19:32.000Z</time>
      </trkpt>
      <trkpt lat="48.63227" lon="2.15162">
        <ele>163</ele>
        <time>2019-10-28T10:19:33.000Z</time>
      </trkpt>
      <trkpt lat="48.63228" lon="2.15163">
        <ele>163</ele>
        <time>2019-10-28T10:19:34.000Z</time>
      </trkpt>
      <trkpt lat="48.63229" lon="2.15165">
        <ele>163</ele>
        <time>2019-10-28T10:19:35.000Z</time>
      </trkpt>
      <trkpt lat="48.63229" lon="2.15167">
        <ele>163</ele>
        <time>2019-10-28T10:19:36.000Z</time>
      </trkpt>
      <trkpt lat="48.6323" lon="2.15168">
        <ele>163</ele>
        <time>2019-10-28T10:19:37.000Z</time>
      </trkpt>
      <trkpt lat="48.63231" lon="2.1517">
        <ele>163</ele>
        <time>2019-10-28T10:19:38.000Z</time>
      </trkpt>
      <trkpt lat="48.63232" lon="2.15172">
        <ele>163</ele>
        <time>2019-10-28T10:19:39.000Z</time>
      </trkpt>
      <trkpt lat="48.63233" lon="2.15174">
        <ele>163</ele>
        <time>2019-10-28T10:19:40.000Z</time>
      </trkpt>
      <trkpt lat="48.63234" lon="2.15175">
        <ele>164</ele>
        <time>2019-10-28T10:19:41.000Z</time>
      </trkpt>
      <trkpt lat="48.63235" lon="2.15177">
        <ele>164</ele>
        <time>2019-10-28T10:19:42.000Z</time>
      </trkpt>
      <trkpt lat="48.63235" lon="2.15179">
        <ele>164</ele>
        <time>2019-10-28T10:19:43.000Z</time>
      </trkpt>
      <trkpt lat="48.63236" lon="2.1518">
        <ele>164</ele>
        <time>2019-10-28T10:19:44.000Z</time>
      </trkpt>
      <trkpt lat="48.63237" lon="2.15182">
        <ele>164</ele>
        <time>2019-10-28T10:19:45.000Z</time>
      </trkpt>
      <trkpt lat="48.63238" lon="2.15183">
        <ele>164</ele>
        <time>2019-10-28T10:19:46.000Z</time>
      </trkpt>
      <trkpt lat="48.63239" lon="2.15185">
        <ele>165</ele>
        <time>2019-10-28T10:19:47.000Z</time>
      </trkpt>
      <trkpt lat="48.6324" lon="2.15187">
        <ele>165</ele>
        <time>2019-10-28T10:19:48.000Z</time>
      </trkpt>
      <trkpt lat="48.63241" lon="2.15189">
        <ele>165</ele>
        <time>2019-10-28T10:19:49.000Z</time>
      </trkpt>
      <trkpt lat="48.63242" lon="2.1519">
        <ele>165</ele>
        <time>2019-10-28T10:19:50.000Z</time>
      </trkpt>
      <trkpt lat="48.63243" lon="2.15191">
        <ele>165</ele>
        <time>2019-10-28T10:19:51.000Z</time>
      </trkpt>
      <trkpt lat="48.63244" lon="2.15193">
        <ele>165</ele>
        <time>2019-10-28T10:19:52.000Z</time>
      </trkpt>
      <trkpt lat="48.63244" lon="2.15194">
        <ele>165</ele>
        <time>2019-10-28T10:19:53.000Z</time>
      </trkpt>
      <trkpt lat="48.63245" lon="2.15196">
        <ele>165</ele>
        <time>2019-10-28T10:19:54.000Z</time>
      </trkpt>
      <trkpt lat="48.63246" lon="2.15197">
        <ele>165</ele>
        <time>2019-10-28T10:19:55.000Z</time>
      </trkpt>
      <trkpt lat="48.63247" lon="2.15199">
        <ele>165</ele>
        <time>2019-10-28T10:19:56.000Z</time>
      </trkpt>
      <trkpt lat="48.63248" lon="2.152">
        <ele>164</ele>
        <time>2019-10-28T10:19:57.000Z</time>
      </trkpt>
      <trkpt lat="48.63249" lon="2.15202">
        <ele>164</ele>
        <time>2019-10-28T10:19:58.000Z</time>
      </trkpt>
      <trkpt lat="48.63249" lon="2.15203">
        <ele>165</ele>
        <time>2019-10-28T10:19:59.000Z</time>
      </trkpt>
      <trkpt lat="48.6325" lon="2.15205">
        <ele>164</ele>
        <time>2019-10-28T10:20:00.000Z</time>
      </trkpt>
      <trkpt lat="48.63251" lon="2.15206">
        <ele>164</ele>
        <time>2019-10-28T10:20:01.000Z</time>
      </trkpt>
      <trkpt lat="48.63252" lon="2.15208">
        <ele>164</ele>
        <time>2019-10-28T10:20:02.000Z</time>
      </trkpt>
      <trkpt lat="48.63253" lon="2.15209">
        <ele>164</ele>
        <time>2019-10-28T10:20:03.000Z</time>
      </trkpt>
      <trkpt lat="48.63254" lon="2.15211">
        <ele>164</ele>
        <time>2019-10-28T10:20:04.000Z</time>
      </trkpt>
      <trkpt lat="48.63255" lon="2.15212">
        <ele>164</ele>
        <time>2019-10-28T10:20:05.000Z</time>
      </trkpt>
      <trkpt lat="48.63255" lon="2.15214">
        <ele>164</ele>
        <time>2019-10-28T10:20:06.000Z</time>
      </trkpt>
      <trkpt lat="48.63256" lon="2.15215">
        <ele>164</ele>
        <time>2019-10-28T10:20:07.000Z</time>
      </trkpt>
      <trkpt lat="48.63257" lon="2.15217">
        <ele>164</ele>
        <time>2019-10-28T10:20:08.000Z</time>
      </trkpt>
      <trkpt lat="48.63258" lon="2.15218">
        <ele>164</ele>
        <time>2019-10-28T10:20:09.000Z</time>
      </trkpt>
      <trkpt lat="48.63259" lon="2.15219">
        <ele>164</ele>
        <time>2019-10-28T10:20:10.000Z</time>
      </trkpt>
      <trkpt lat="48.6326" lon="2.15221">
        <ele>164</ele>
        <time>2019-10-28T10:20:11.000Z</time>
      </trkpt>
      <trkpt lat="48.63261" lon="2.15222">
        <ele>164</ele>
        <time>2019-10-28T10:20:12.000Z</time>
      </trkpt>
      <trkpt lat="48.63262" lon="2.15224">
        <ele>164</ele>
        <time>2019-10-28T10:20:13.000Z</time>
      </trkpt>
      <trkpt lat="48.63262" lon="2.15225">
        <ele>164</ele>
        <time>2019-10-28T10:20:14.000Z</time>
      </trkpt>
      <trkpt lat="48.63263" lon="2.15227">
        <ele>164</ele>
        <time>2019-10-28T10:20:15.000Z</time>
      </trkpt>
      <trkpt lat="48.63264" lon="2.15228">
        <ele>164</ele>
        <time>2019-10-28T10:20:16.000Z</time>
      </trkpt>
      <trkpt lat="48.63265" lon="2.15229">
        <ele>164</ele>
        <time>2019-10-28T10:20:17.000Z</time>
      </trkpt>
      <trkpt lat="48.63266" lon="2.15231">
        <ele>164</ele>
        <time>2019-10-28T10:20:18.000Z</time>
      </trkpt>
      <trkpt lat="48.63267" lon="2.15232">
        <ele>164</ele>
        <time>2019-10-28T10:20:19.000Z</time>
      </trkpt>
      <trkpt lat="48.63268" lon="2.15234">
        <ele>164</ele>
        <time>2019-10-28T10:20:20.000Z</time>
      </trkpt>
      <trkpt lat="48.63269" lon="2.15236">
        <ele>164</ele>
        <time>2019-10-28T10:20:21.000Z</time>
      </trkpt>
      <trkpt lat="48.6327" lon="2.15238">
        <ele>164</ele>
        <time>2019-10-28T10:20:22.000Z</time>
      </trkpt>
      <trkpt lat="48.6327" lon="2.15239">
        <ele>164</ele>
        <time>2019-10-28T10:20:23.000Z</time>
      </trkpt>
      <trkpt lat="48.63271" lon="2.15241">
        <ele>164</ele>
        <time>2019-10-28T10:20:24.000Z</time>
      </trkpt>
      <trkpt lat="48.63272" lon="2.15242">
        <ele>164</ele>
        <time>2019-10-28T10:20:25.000Z</time>
      </trkpt>
      <trkpt lat="48.63273" lon="2.15244">
        <ele>164</ele>
        <time>2019-10-28T10:20:26.000Z</time>
      </trkpt>
      <trkpt lat="48.63274" lon="2.15245">
        <ele>164</ele>
        <time>2019-10-28T10:20:27.000Z</time>
      </trkpt>
      <trkpt lat="48.63275" lon="2.15247">
        <ele>164</ele>
        <time>2019-10-28T10:20:28.000Z</time>
      </trkpt>
      <trkpt lat="48.63276" lon="2.15248">
        <ele>164</ele>
        <time>2019-10-28T10:20:29.000Z</time>
      </trkpt>
      <trkpt lat="48.63277" lon="2.1525">
        <ele>164</ele>
        <time>2019-10-28T10:20:30.000Z</time>
      </trkpt>
      <trkpt lat="48.63277" lon="2.15252">
        <ele>165</ele>
        <time>2019-10-28T10:20:31.000Z</time>
      </trkpt>
      <trkpt lat="48.63278" lon="2.15254">
        <ele>164</ele>
        <time>2019-10-28T10:20:32.000Z</time>
      </trkpt>
      <trkpt lat="48.63279" lon="2.15255">
        <ele>165</ele>
        <time>2019-10-28T10:20:33.000Z</time>
      </trkpt>
      <trkpt lat="48.6328" lon="2.15257">
        <ele>165</ele>
        <time>2019-10-28T10:20:34.000Z</time>
      </trkpt>
      <trkpt lat="48.63281" lon="2.15258">
        <ele>165</ele>
        <time>2019-10-28T10:20:35.000Z</time>
      </trkpt>
      <trkpt lat="48.63282" lon="2.1526">
        <ele>165</ele>
        <time>2019-10-28T10:20:36.000Z</time>
      </trkpt>
      <trkpt lat="48.63283" lon="2.15261">
        <ele>165</ele>
        <time>2019-10-28T10:20:37.000Z</time>
      </trkpt>
      <trkpt lat="48.63284" lon="2.15263">
        <ele>164</ele>
        <time>2019-10-28T10:20:38.000Z</time>
      </trkpt>
      <trkpt lat="48.63285" lon="2.15264">
        <ele>164</ele>
        <time>2019-10-28T10:20:39.000Z</time>
      </trkpt>
      <trkpt lat="48.63286" lon="2.15266">
        <ele>165</ele>
        <time>2019-10-28T10:20:40.000Z</time>
      </trkpt>
      <trkpt lat="48.63287" lon="2.15267">
        <ele>165</ele>
        <time>2019-10-28T10:20:41.000Z</time>
      </trkpt>
      <trkpt lat="48.63288" lon="2.15268">
        <ele>165</ele>
        <time>2019-10-28T10:20:42.000Z</time>
      </trkpt>
      <trkpt lat="48.63288" lon="2.1527">
        <ele>165</ele>
        <time>2019-10-28T10:20:43.000Z</time>
      </trkpt>
      <trkpt lat="48.63289" lon="2.15271">
        <ele>165</ele>
        <time>2019-10-28T10:20:44.000Z</time>
      </trkpt>
      <trkpt lat="48.6329" lon="2.15273">
        <ele>165</ele>
        <time>2019-10-28T10:20:45.000Z</time>
      </trkpt>
      <trkpt lat="48.63291" lon="2.15274">
        <ele>164</ele>
        <time>2019-10-28T10:20:46.000Z</time>
      </trkpt>
      <trkpt lat="48.63292" lon="2.15275">
        <ele>164</ele>
        <time>2019-10-28T10:20:47.000Z</time>
      </trkpt>
      <trkpt lat="48.63293" lon="2.15277">
        <ele>164</ele>
        <time>2019-10-28T10:20:48.000Z</time>
      </trkpt>
      <trkpt lat="48.63294" lon="2.15278">
        <ele>164</ele>
        <time>2019-10-28T10:20:49.000Z</time>
      </trkpt>
      <trkpt lat="48.63295" lon="2.1528">
        <ele>164</ele>
        <time>2019-10-28T10:20:50.000Z</time>
      </trkpt>
      <trkpt lat="48.63296" lon="2.15281">
        <ele>164</ele>
        <time>2019-10-28T10:20:51.000Z</time>
      </trkpt>
      <trkpt lat="48.63297" lon="2.15283">
        <ele>164</ele>
        <time>2019-10-28T10:20:52.000Z</time>
      </trkpt>
      <trkpt lat="48.63298" lon="2.15284">
        <ele>164</ele>
        <time>2019-10-28T10:20:53.000Z</time>
      </trkpt>
      <trkpt lat="48.63298" lon="2.15286">
        <ele>164</ele>
        <time>2019-10-28T10:20:54.000Z</time>
      </trkpt>
      <trkpt lat="48.63299" lon="2.15287">
        <ele>164</ele>
        <time>2019-10-28T10:20:55.000Z</time>
      </trkpt>
      <trkpt lat="48.633" lon="2.15288">
        <ele>164</ele>
        <time>2019-10-28T10:20:56.000Z</time>
      </trkpt>
      <trkpt lat="48.63301" lon="2.15289">
        <ele>164</ele>
        <time>2019-10-28T10:20:57.000Z</time>
      </trkpt>
      <trkpt lat="48.63302" lon="2.1529">
        <ele>164</ele>
        <time>2019-10-28T10:20:58.000Z</time>
      </trkpt>
      <trkpt lat="48.63303" lon="2.15292">
        <ele>164</ele>
        <time>2019-10-28T10:20:59.000Z</time>
      </trkpt>
      <trkpt lat="48.63304" lon="2.15294">
        <ele>164</ele>
        <time>2019-10-28T10:21:00.000Z</time>
      </trkpt>
      <trkpt lat="48.63305" lon="2.15295">
        <ele>165</ele>
        <time>2019-10-28T10:21:01.000Z</time>
      </trkpt>
      <trkpt lat="48.63306" lon="2.15297">
        <ele>165</ele>
        <time>2019-10-28T10:21:02.000Z</time>
      </trkpt>
      <trkpt lat="48.63307" lon="2.15298">
        <ele>165</ele>
        <time>2019-10-28T10:21:03.000Z</time>
      </trkpt>
      <trkpt lat="48.63307" lon="2.15299">
        <ele>165</ele>
        <time>2019-10-28T10:21:04.000Z</time>
      </trkpt>
      <trkpt lat="48.63308" lon="2.15301">
        <ele>165</ele>
        <time>2019-10-28T10:21:05.000Z</time>
      </trkpt>
      <trkpt lat="48.63309" lon="2.15303">
        <ele>165</ele>
        <time>2019-10-28T10:21:06.000Z</time>
      </trkpt>
      <trkpt lat="48.6331" lon="2.15304">
        <ele>165</ele>
        <time>2019-10-28T10:21:07.000Z</time>
      </trkpt>
      <trkpt lat="48.63311" lon="2.15306">
        <ele>165</ele>
        <time>2019-10-28T10:21:08.000Z</time>
      </trkpt>
      <trkpt lat="48.63312" lon="2.15307">
        <ele>165</ele>
        <time>2019-10-28T10:21:09.000Z</time>
      </trkpt>
      <trkpt lat="48.63313" lon="2.15309">
        <ele>165</ele>
        <time>2019-10-28T10:21:10.000Z</time>
      </trkpt>
      <trkpt lat="48.63313" lon="2.15311">
        <ele>165</ele>
        <time>2019-10-28T10:21:11.000Z</time>
      </trkpt>
      <trkpt lat="48.63314" lon="2.15312">
        <ele>165</ele>
        <time>2019-10-28T10:21:12.000Z</time>
      </trkpt>
      <trkpt lat="48.63315" lon="2.15314">
        <ele>165</ele>
        <time>2019-10-28T10:21:13.000Z</time>
      </trkpt>
      <trkpt lat="48.63316" lon="2.15315">
        <ele>165</ele>
        <time>2019-10-28T10:21:14.000Z</time>
      </trkpt>
      <trkpt lat="48.63316" lon="2.15316">
        <ele>165</ele>
        <time>2019-10-28T10:21:15.000Z</time>
      </trkpt>
      <trkpt lat="48.63317" lon="2.15317">
        <ele>165</ele>
        <time>2019-10-28T10:21:16.000Z</time>
      </trkpt>
      <trkpt lat="48.63318" lon="2.15319">
        <ele>165</ele>
        <time>2019-10-28T10:21:17.000Z</time>
      </trkpt>
      <trkpt lat="48.63318" lon="2.1532">
        <ele>164</ele>
        <time>2019-10-28T10:21:18.000Z</time>
      </trkpt>
      <trkpt lat="48.63319" lon="2.15322">
        <ele>164</ele>
        <time>2019-10-28T10:21:19.000Z</time>
      </trkpt>
      <trkpt lat="48.6332" lon="2.15323">
        <ele>164</ele>
        <time>2019-10-28T10:21:20.000Z</time>
      </trkpt>
      <trkpt lat="48.63321" lon="2.15325">
        <ele>164</ele>
        <time>2019-10-28T10:21:21.000Z</time>
      </trkpt>
      <trkpt lat="48.63322" lon="2.15327">
        <ele>164</ele>
        <time>2019-10-28T10:21:22.000Z</time>
      </trkpt>
      <trkpt lat="48.63322" lon="2.15328">
        <ele>164</ele>
        <time>2019-10-28T10:21:23.000Z</time>
      </trkpt>
      <trkpt lat="48.63323" lon="2.1533">
        <ele>164</ele>
        <time>2019-10-28T10:21:24.000Z</time>
      </trkpt>
      <trkpt lat="48.63324" lon="2.15332">
        <ele>164</ele>
        <time>2019-10-28T10:21:25.000Z</time>
      </trkpt>
      <trkpt lat="48.63324" lon="2.15333">
        <ele>164</ele>
        <time>2019-10-28T10:21:26.000Z</time>
      </trkpt>
      <trkpt lat="48.63325" lon="2.15335">
        <ele>164</ele>
        <time>2019-10-28T10:21:27.000Z</time>
      </trkpt>
      <trkpt lat="48.63326" lon="2.15336">
        <ele>164</ele>
        <time>2019-10-28T10:21:28.000Z</time>
      </trkpt>
      <trkpt lat="48.63327" lon="2.15337">
        <ele>164</ele>
        <time>2019-10-28T10:21:29.000Z</time>
      </trkpt>
      <trkpt lat="48.63327" lon="2.15338">
        <ele>164</ele>
        <time>2019-10-28T10:21:30.000Z</time>
      </trkpt>
      <trkpt lat="48.63328" lon="2.1534">
        <ele>164</ele>
        <time>2019-10-28T10:21:31.000Z</time>
      </trkpt>
      <trkpt lat="48.63329" lon="2.15341">
        <ele>164</ele>
        <time>2019-10-28T10:21:32.000Z</time>
      </trkpt>
      <trkpt lat="48.6333" lon="2.15342">
        <ele>164</ele>
        <time>2019-10-28T10:21:33.000Z</time>
      </trkpt>
      <trkpt lat="48.63331" lon="2.15343">
        <ele>164</ele>
        <time>2019-10-28T10:21:34.000Z</time>
      </trkpt>
      <trkpt lat="48.63331" lon="2.15345">
        <ele>164</ele>
        <time>2019-10-28T10:21:35.000Z</time>
      </trkpt>
      <trkpt lat="48.63332" lon="2.15346">
        <ele>164</ele>
        <time>2019-10-28T10:21:36.000Z</time>
      </trkpt>
      <trkpt lat="48.63333" lon="2.15348">
        <ele>164</ele>
        <time>2019-10-28T10:21:37.000Z</time>
      </trkpt>
      <trkpt lat="48.63334" lon="2.15349">
        <ele>164</ele>
        <time>2019-10-28T10:21:38.000Z</time>
      </trkpt>
      <trkpt lat="48.63335" lon="2.15351">
        <ele>164</ele>
        <time>2019-10-28T10:21:39.000Z</time>
      </trkpt>
      <trkpt lat="48.63336" lon="2.15353">
        <ele>164</ele>
        <time>2019-10-28T10:21:40.000Z</time>
      </trkpt>
      <trkpt lat="48.63336" lon="2.15354">
        <ele>164</ele>
        <time>2019-10-28T10:21:41.000Z</time>
      </trkpt>
      <trkpt lat="48.63337" lon="2.15356">
        <ele>164</ele>
        <time>2019-10-28T10:21:42.000Z</time>
      </trkpt>
      <trkpt lat="48.63338" lon="2.15357">
        <ele>164</ele>
        <time>2019-10-28T10:21:43.000Z</time>
      </trkpt>
      <trkpt lat="48.63339" lon="2.15359">
        <ele>164</ele>
        <time>2019-10-28T10:21:44.000Z</time>
      </trkpt>
      <trkpt lat="48.63339" lon="2.1536">
        <ele>164</ele>
        <time>2019-10-28T10:21:45.000Z</time>
      </trkpt>
      <trkpt lat="48.6334" lon="2.15362">
        <ele>164</ele>
        <time>2019-10-28T10:21:46.000Z</time>
      </trkpt>
      <trkpt lat="48.63341" lon="2.15363">
        <ele>164</ele>
        <time>2019-10-28T10:21:47.000Z</time>
      </trkpt>
      <trkpt lat="48.63342" lon="2.15365">
        <ele>164</ele>
        <time>2019-10-28T10:21:48.000Z</time>
      </trkpt>
      <trkpt lat="48.63343" lon="2.15366">
        <ele>164</ele>
        <time>2019-10-28T10:21:49.000Z</time>
      </trkpt>
      <trkpt lat="48.63344" lon="2.15368">
        <ele>164</ele>
        <time>2019-10-28T10:21:50.000Z</time>
      </trkpt>
      <trkpt lat="48.63344" lon="2.15369">
        <ele>164</ele>
        <time>2019-10-28T10:21:51.000Z</time>
      </trkpt>
      <trkpt lat="48.63345" lon="2.15371">
        <ele>164</ele>
        <time>2019-10-28T10:21:52.000Z</time>
      </trkpt>
      <trkpt lat="48.63346" lon="2.15373">
        <ele>164</ele>
        <time>2019-10-28T10:21:53.000Z</time>
      </trkpt>
      <trkpt lat="48.63347" lon="2.15374">
        <ele>164</ele>
        <time>2019-10-28T10:21:54.000Z</time>
      </trkpt>
      <trkpt lat="48.63348" lon="2.15375">
        <ele>164</ele>
        <time>2019-10-28T10:21:55.000Z</time>
      </trkpt>
      <trkpt lat="48.63349" lon="2.15377">
        <ele>164</ele>
        <time>2019-10-28T10:21:56.000Z</time>
      </trkpt>
      <trkpt lat="48.6335" lon="2.15378">
        <ele>164</ele>
        <time>2019-10-28T10:21:57.000Z</time>
      </trkpt>
      <trkpt lat="48.63351" lon="2.1538">
        <ele>164</ele>
        <time>2019-10-28T10:21:58.000Z</time>
      </trkpt>
      <trkpt lat="48.63351" lon="2.15381">
        <ele>164</ele>
        <time>2019-10-28T10:21:59.000Z</time>
      </trkpt>
      <trkpt lat="48.63352" lon="2.15383">
        <ele>164</ele>
        <time>2019-10-28T10:22:00.000Z</time>
      </trkpt>
      <trkpt lat="48.63353" lon="2.15384">
        <ele>164</ele>
        <time>2019-10-28T10:22:01.000Z</time>
      </trkpt>
      <trkpt lat="48.63354" lon="2.15386">
        <ele>164</ele>
        <time>2019-10-28T10:22:02.000Z</time>
      </trkpt>
      <trkpt lat="48.63355" lon="2.15388">
        <ele>164</ele>
        <time>2019-10-28T10:22:03.000Z</time>
      </trkpt>
      <trkpt lat="48.63356" lon="2.15389">
        <ele>164</ele>
        <time>2019-10-28T10:22:04.000Z</time>
      </trkpt>
      <trkpt lat="48.63356" lon="2.15391">
        <ele>164</ele>
        <time>2019-10-28T10:22:05.000Z</time>
      </trkpt>
      <trkpt lat="48.63357" lon="2.15392">
        <ele>164</ele>
        <time>2019-10-28T10:22:06.000Z</time>
      </trkpt>
      <trkpt lat="48.63358" lon="2.15394">
        <ele>164</ele>
        <time>2019-10-28T10:22:07.000Z</time>
      </trkpt>
      <trkpt lat="48.63359" lon="2.15396">
        <ele>164</ele>
        <time>2019-10-28T10:22:08.000Z</time>
      </trkpt>
      <trkpt lat="48.63359" lon="2.15397">
        <ele>164</ele>
        <time>2019-10-28T10:22:09.000Z</time>
      </trkpt>
      <trkpt lat="48.6336" lon="2.15399">
        <ele>164</ele>
        <time>2019-10-28T10:22:10.000Z</time>
      </trkpt>
      <trkpt lat="48.63361" lon="2.15401">
        <ele>164</ele>
        <time>2019-10-28T10:22:11.000Z</time>
      </trkpt>
      <trkpt lat="48.63361" lon="2.15402">
        <ele>164</ele>
        <time>2019-10-28T10:22:12.000Z</time>
      </trkpt>
      <trkpt lat="48.63362" lon="2.15404">
        <ele>164</ele>
        <time>2019-10-28T10:22:13.000Z</time>
      </trkpt>
      <trkpt lat="48.63363" lon="2.15405">
        <ele>164</ele>
        <time>2019-10-28T10:22:14.000Z</time>
      </trkpt>
      <trkpt lat="48.63364" lon="2.15406">
        <ele>164</ele>
        <time>2019-10-28T10:22:15.000Z</time>
      </trkpt>
      <trkpt lat="48.63365" lon="2.15408">
        <ele>164</ele>
        <time>2019-10-28T10:22:16.000Z</time>
      </trkpt>
      <trkpt lat="48.63366" lon="2.15409">
        <ele>164</ele>
        <time>2019-10-28T10:22:17.000Z</time>
      </trkpt>
      <trkpt lat="48.63367" lon="2.1541">
        <ele>164</ele>
        <time>2019-10-28T10:22:18.000Z</time>
      </trkpt>
      <trkpt lat="48.63368" lon="2.15412">
        <ele>164</ele>
        <time>2019-10-28T10:22:19.000Z</time>
      </trkpt>
      <trkpt lat="48.63368" lon="2.15413">
        <ele>164</ele>
        <time>2019-10-28T10:22:20.000Z</time>
      </trkpt>
      <trkpt lat="48.63369" lon="2.15415">
        <ele>164</ele>
        <time>2019-10-28T10:22:21.000Z</time>
      </trkpt>
      <trkpt lat="48.6337" lon="2.15416">
        <ele>164</ele>
        <time>2019-10-28T10:22:22.000Z</time>
      </trkpt>
      <trkpt lat="48.63371" lon="2.15418">
        <ele>163</ele>
        <time>2019-10-28T10:22:23.000Z</time>
      </trkpt>
      <trkpt lat="48.63371" lon="2.15419">
        <ele>163</ele>
        <time>2019-10-28T10:22:24.000Z</time>
      </trkpt>
      <trkpt lat="48.63372" lon="2.15421">
        <ele>164</ele>
        <time>2019-10-28T10:22:25.000Z</time>
      </trkpt>
      <trkpt lat="48.63373" lon="2.15422">
        <ele>164</ele>
        <time>2019-10-28T10:22:26.000Z</time>
      </trkpt>
      <trkpt lat="48.63374" lon="2.15424">
        <ele>164</ele>
        <time>2019-10-28T10:22:27.000Z</time>
      </trkpt>
      <trkpt lat="48.63375" lon="2.15425">
        <ele>163</ele>
        <time>2019-10-28T10:22:28.000Z</time>
      </trkpt>
      <trkpt lat="48.63376" lon="2.15427">
        <ele>164</ele>
        <time>2019-10-28T10:22:29.000Z</time>
      </trkpt>
      <trkpt lat="48.63376" lon="2.15428">
        <ele>164</ele>
        <time>2019-10-28T10:22:30.000Z</time>
      </trkpt>
      <trkpt lat="48.63377" lon="2.1543">
        <ele>164</ele>
        <time>2019-10-28T10:22:31.000Z</time>
      </trkpt>
      <trkpt lat="48.63378" lon="2.15431">
        <ele>164</ele>
        <time>2019-10-28T10:22:32.000Z</time>
      </trkpt>
      <trkpt lat="48.63379" lon="2.15433">
        <ele>164</ele>
        <time>2019-10-28T10:22:33.000Z</time>
      </trkpt>
      <trkpt lat="48.6338" lon="2.15435">
        <ele>164</ele>
        <time>2019-10-28T10:22:34.000Z</time>
      </trkpt>
      <trkpt lat="48.6338" lon="2.15436">
        <ele>164</ele>
        <time>2019-10-28T10:22:35.000Z</time>
      </trkpt>
      <trkpt lat="48.63381" lon="2.15438">
        <ele>164</ele>
        <time>2019-10-28T10:22:36.000Z</time>
      </trkpt>
      <trkpt lat="48.63382" lon="2.15439">
        <ele>164</ele>
        <time>2019-10-28T10:22:37.000Z</time>
      </trkpt>
      <trkpt lat="48.63383" lon="2.15441">
        <ele>164</ele>
        <time>2019-10-28T10:22:38.000Z</time>
      </trkpt>
      <trkpt lat="48.63384" lon="2.15442">
        <ele>164</ele>
        <time>2019-10-28T10:22:39.000Z</time>
      </trkpt>
      <trkpt lat="48.63384" lon="2.15444">
        <ele>164</ele>
        <time>2019-10-28T10:22:40.000Z</time>
      </trkpt>
      <trkpt lat="48.63385" lon="2.15445">
        <ele>164</ele>
        <time>2019-10-28T10:22:41.000Z</time>
      </trkpt>
      <trkpt lat="48.63386" lon="2.15447">
        <ele>164</ele>
        <time>2019-10-28T10:22:42.000Z</time>
      </trkpt>
      <trkpt lat="48.63387" lon="2.15448">
        <ele>164</ele>
        <time>2019-10-28T10:22:43.000Z</time>
      </trkpt>
      <trkpt lat="48.63388" lon="2.1545">
        <ele>164</ele>
        <time>2019-10-28T10:22:44.000Z</time>
      </trkpt>
      <trkpt lat="48.63389" lon="2.15451">
        <ele>164</ele>
        <time>2019-10-28T10:22:45.000Z</time>
      </trkpt>
      <trkpt lat="48.63389" lon="2.15452">
        <ele>164</ele>
        <time>2019-10-28T10:22:46.000Z</time>
      </trkpt>
      <trkpt lat="48.6339" lon="2.15454">
        <ele>164</ele>
        <time>2019-10-28T10:22:47.000Z</time>
      </trkpt>
      <trkpt lat="48.63391" lon="2.15456">
        <ele>164</ele>
        <time>2019-10-28T10:22:48.000Z</time>
      </trkpt>
      <trkpt lat="48.63391" lon="2.15457">
        <ele>164</ele>
        <time>2019-10-28T10:22:49.000Z</time>
      </trkpt>
      <trkpt lat="48.63392" lon="2.15459">
        <ele>163</ele>
        <time>2019-10-28T10:22:50.000Z</time>
      </trkpt>
      <trkpt lat="48.63393" lon="2.1546">
        <ele>164</ele>
        <time>2019-10-28T10:22:51.000Z</time>
      </trkpt>
      <trkpt lat="48.63394" lon="2.15462">
        <ele>164</ele>
        <time>2019-10-28T10:22:52.000Z</time>
      </trkpt>
      <trkpt lat="48.63394" lon="2.15464">
        <ele>163</ele>
        <time>2019-10-28T10:22:53.000Z</time>
      </trkpt>
      <trkpt lat="48.63395" lon="2.15465">
        <ele>163</ele>
        <time>2019-10-28T10:22:54.000Z</time>
      </trkpt>
      <trkpt lat="48.63396" lon="2.15466">
        <ele>163</ele>
        <time>2019-10-28T10:22:55.000Z</time>
      </trkpt>
      <trkpt lat="48.63397" lon="2.15468">
        <ele>163</ele>
        <time>2019-10-28T10:22:56.000Z</time>
      </trkpt>
      <trkpt lat="48.63398" lon="2.1547">
        <ele>163</ele>
        <time>2019-10-28T10:22:57.000Z</time>
      </trkpt>
      <trkpt lat="48.63398" lon="2.15471">
        <ele>163</ele>
        <time>2019-10-28T10:22:58.000Z</time>
      </trkpt>
      <trkpt lat="48.63399" lon="2.15473">
        <ele>163</ele>
        <time>2019-10-28T10:22:59.000Z</time>
      </trkpt>
      <trkpt lat="48.634" lon="2.15474">
        <ele>163</ele>
        <time>2019-10-28T10:23:00.000Z</time>
      </trkpt>
      <trkpt lat="48.63401" lon="2.15476">
        <ele>163</ele>
        <time>2019-10-28T10:23:01.000Z</time>
      </trkpt>
      <trkpt lat="48.63402" lon="2.15477">
        <ele>163</ele>
        <time>2019-10-28T10:23:02.000Z</time>
      </trkpt>
      <trkpt lat="48.63403" lon="2.15479">
        <ele>163</ele>
        <time>2019-10-28T10:23:03.000Z</time>
      </trkpt>
      <trkpt lat="48.63404" lon="2.1548">
        <ele>163</ele>
        <time>2019-10-28T10:23:04.000Z</time>
      </trkpt>
      <trkpt lat="48.63404" lon="2.15482">
        <ele>163</ele>
        <time>2019-10-28T10:23:05.000Z</time>
      </trkpt>
      <trkpt lat="48.63405" lon="2.15483">
        <ele>163</ele>
        <time>2019-10-28T10:23:06.000Z</time>
      </trkpt>
      <trkpt lat="48.63406" lon="2.15485">
        <ele>163</ele>
        <time>2019-10-28T10:23:07.000Z</time>
      </trkpt>
      <trkpt lat="48.63406" lon="2.15487">
        <ele>163</ele>
        <time>2019-10-28T10:23:08.000Z</time>
      </trkpt>
      <trkpt lat="48.63407" lon="2.15488">
        <ele>163</ele>
        <time>2019-10-28T10:23:09.000Z</time>
      </trkpt>
      <trkpt lat="48.63408" lon="2.1549">
        <ele>163</ele>
        <time>2019-10-28T10:23:10.000Z</time>
      </trkpt>
      <trkpt lat="48.63409" lon="2.15492">
        <ele>163</ele>
        <time>2019-10-28T10:23:11.000Z</time>
      </trkpt>
      <trkpt lat="48.6341" lon="2.15493">
        <ele>163</ele>
        <time>2019-10-28T10:23:12.000Z</time>
      </trkpt>
      <trkpt lat="48.6341" lon="2.15495">
        <ele>163</ele>
        <time>2019-10-28T10:23:13.000Z</time>
      </trkpt>
      <trkpt lat="48.63411" lon="2.15496">
        <ele>163</ele>
        <time>2019-10-28T10:23:14.000Z</time>
      </trkpt>
      <trkpt lat="48.63412" lon="2.15498">
        <ele>163</ele>
        <time>2019-10-28T10:23:15.000Z</time>
      </trkpt>
      <trkpt lat="48.63413" lon="2.15499">
        <ele>163</ele>
        <time>2019-10-28T10:23:16.000Z</time>
      </trkpt>
      <trkpt lat="48.63414" lon="2.15501">
        <ele>163</ele>
        <time>2019-10-28T10:23:17.000Z</time>
      </trkpt>
      <trkpt lat="48.63415" lon="2.15502">
        <ele>163</ele>
        <time>2019-10-28T10:23:18.000Z</time>
      </trkpt>
      <trkpt lat="48.63416" lon="2.15503">
        <ele>163</ele>
        <time>2019-10-28T10:23:19.000Z</time>
      </trkpt>
      <trkpt lat="48.63417" lon="2.15504">
        <ele>163</ele>
        <time>2019-10-28T10:23:20.000Z</time>
      </trkpt>
      <trkpt lat="48.63418" lon="2.15506">
        <ele>163</ele>
        <time>2019-10-28T10:23:21.000Z</time>
      </trkpt>
      <trkpt lat="48.63419" lon="2.15507">
        <ele>162</ele>
        <time>2019-10-28T10:23:22.000Z</time>
      </trkpt>
      <trkpt lat="48.6342" lon="2.15508">
        <ele>163</ele>
        <time>2019-10-28T10:23:23.000Z</time>
      </trkpt>
      <trkpt lat="48.63421" lon="2.1551">
        <ele>162</ele>
        <time>2019-10-28T10:23:24.000Z</time>
      </trkpt>
      <trkpt lat="48.63422" lon="2.15512">
        <ele>162</ele>
        <time>2019-10-28T10:23:25.000Z</time>
      </trkpt>
      <trkpt lat="48.63423" lon="2.15513">
        <ele>162</ele>
        <time>2019-10-28T10:23:26.000Z</time>
      </trkpt>
      <trkpt lat="48.63424" lon="2.15515">
        <ele>162</ele>
        <time>2019-10-28T10:23:27.000Z</time>
      </trkpt>
      <trkpt lat="48.63424" lon="2.15517">
        <ele>162</ele>
        <time>2019-10-28T10:23:28.000Z</time>
      </trkpt>
      <trkpt lat="48.63425" lon="2.15518">
        <ele>162</ele>
        <time>2019-10-28T10:23:29.000Z</time>
      </trkpt>
      <trkpt lat="48.63426" lon="2.1552">
        <ele>162</ele>
        <time>2019-10-28T10:23:30.000Z</time>
      </trkpt>
      <trkpt lat="48.63427" lon="2.15522">
        <ele>162</ele>
        <time>2019-10-28T10:23:31.000Z</time>
      </trkpt>
      <trkpt lat="48.63428" lon="2.15523">
        <ele>162</ele>
        <time>2019-10-28T10:23:32.000Z</time>
      </trkpt>
      <trkpt lat="48.63429" lon="2.15525">
        <ele>162</ele>
        <time>2019-10-28T10:23:33.000Z</time>
      </trkpt>
      <trkpt lat="48.6343" lon="2.15526">
        <ele>162</ele>
        <time>2019-10-28T10:23:34.000Z</time>
      </trkpt>
      <trkpt lat="48.63431" lon="2.15528">
        <ele>162</ele>
        <time>2019-10-28T10:23:35.000Z</time>
      </trkpt>
      <trkpt lat="48.63432" lon="2.15529">
        <ele>162</ele>
        <time>2019-10-28T10:23:36.000Z</time>
      </trkpt>
      <trkpt lat="48.63433" lon="2.1553">
        <ele>162</ele>
        <time>2019-10-28T10:23:37.000Z</time>
      </trkpt>
      <trkpt lat="48.63434" lon="2.15532">
        <ele>162</ele>
        <time>2019-10-28T10:23:38.000Z</time>
      </trkpt>
      <trkpt lat="48.63435" lon="2.15533">
        <ele>162</ele>
        <time>2019-10-28T10:23:39.000Z</time>
      </trkpt>
      <trkpt lat="48.63436" lon="2.15534">
        <ele>162</ele>
        <time>2019-10-28T10:23:40.000Z</time>
      </trkpt>
      <trkpt lat="48.63437" lon="2.15535">
        <ele>162</ele>
        <time>2019-10-28T10:23:41.000Z</time>
      </trkpt>
      <trkpt lat="48.63438" lon="2.15536">
        <ele>162</ele>
        <time>2019-10-28T10:23:42.000Z</time>
      </trkpt>
      <trkpt lat="48.63439" lon="2.15537">
        <ele>162</ele>
        <time>2019-10-28T10:23:43.000Z</time>
      </trkpt>
      <trkpt lat="48.63439" lon="2.15538">
        <ele>162</ele>
        <time>2019-10-28T10:23:44.000Z</time>
      </trkpt>
      <trkpt lat="48.6344" lon="2.15538">
        <ele>162</ele>
        <time>2019-10-28T10:23:45.000Z</time>
      </trkpt>
      <trkpt lat="48.63441" lon="2.15539">
        <ele>161</ele>
        <time>2019-10-28T10:23:46.000Z</time>
      </trkpt>
      <trkpt lat="48.63443" lon="2.1554">
        <ele>161</ele>
        <time>2019-10-28T10:23:47.000Z</time>
      </trkpt>
      <trkpt lat="48.63444" lon="2.15542">
        <ele>162</ele>
        <time>2019-10-28T10:23:48.000Z</time>
      </trkpt>
      <trkpt lat="48.63445" lon="2.15543">
        <ele>162</ele>
        <time>2019-10-28T10:23:49.000Z</time>
      </trkpt>
      <trkpt lat="48.63446" lon="2.15544">
        <ele>161</ele>
        <time>2019-10-28T10:23:50.000Z</time>
      </trkpt>
      <trkpt lat="48.63447" lon="2.15545">
        <ele>161</ele>
        <time>2019-10-28T10:23:51.000Z</time>
      </trkpt>
      <trkpt lat="48.63448" lon="2.15547">
        <ele>162</ele>
        <time>2019-10-28T10:23:52.000Z</time>
      </trkpt>
      <trkpt lat="48.63449" lon="2.15548">
        <ele>161</ele>
        <time>2019-10-28T10:23:53.000Z</time>
      </trkpt>
      <trkpt lat="48.63449" lon="2.1555">
        <ele>161</ele>
        <time>2019-10-28T10:23:54.000Z</time>
      </trkpt>
      <trkpt lat="48.6345" lon="2.15551">
        <ele>161</ele>
        <time>2019-10-28T10:23:55.000Z</time>
      </trkpt>
      <trkpt lat="48.63451" lon="2.15552">
        <ele>161</ele>
        <time>2019-10-28T10:23:56.000Z</time>
      </trkpt>
      <trkpt lat="48.63452" lon="2.15554">
        <ele>161</ele>
        <time>2019-10-28T10:23:57.000Z</time>
      </trkpt>
      <trkpt lat="48.63453" lon="2.15555">
        <ele>161</ele>
        <time>2019-10-28T10:23:58.000Z</time>
      </trkpt>
      <trkpt lat="48.63454" lon="2.15557">
        <ele>161</ele>
        <time>2019-10-28T10:23:59.000Z</time>
      </trkpt>
      <trkpt lat="48.63455" lon="2.15558">
        <ele>161</ele>
        <time>2019-10-28T10:24:00.000Z</time>
      </trkpt>
      <trkpt lat="48.63455" lon="2.1556">
        <ele>161</ele>
        <time>2019-10-28T10:24:01.000Z</time>
      </trkpt>
      <trkpt lat="48.63456" lon="2.15562">
        <ele>161</ele>
        <time>2019-10-28T10:24:02.000Z</time>
      </trkpt>
      <trkpt lat="48.63457" lon="2.15563">
        <ele>161</ele>
        <time>2019-10-28T10:24:03.000Z</time>
      </trkpt>
      <trkpt lat="48.63457" lon="2.15565">
        <ele>161</ele>
        <time>2019-10-28T10:24:04.000Z</time>
      </trkpt>
      <trkpt lat="48.63458" lon="2.15567">
        <ele>161</ele>
        <time>2019-10-28T10:24:05.000Z</time>
      </trkpt>
      <trkpt lat="48.63459" lon="2.15569">
        <ele>161</ele>
        <time>2019-10-28T10:24:06.000Z</time>
      </trkpt>
      <trkpt lat="48.63459" lon="2.1557">
        <ele>161</ele>
        <time>2019-10-28T10:24:07.000Z</time>
      </trkpt>
      <trkpt lat="48.6346" lon="2.15572">
        <ele>161</ele>
        <time>2019-10-28T10:24:08.000Z</time>
      </trkpt>
      <trkpt lat="48.63461" lon="2.15574">
        <ele>161</ele>
        <time>2019-10-28T10:24:09.000Z</time>
      </trkpt>
      <trkpt lat="48.63461" lon="2.15576">
        <ele>161</ele>
        <time>2019-10-28T10:24:10.000Z</time>
      </trkpt>
      <trkpt lat="48.63461" lon="2.15578">
        <ele>161</ele>
        <time>2019-10-28T10:24:11.000Z</time>
      </trkpt>
      <trkpt lat="48.63462" lon="2.1558">
        <ele>161</ele>
        <time>2019-10-28T10:24:12.000Z</time>
      </trkpt>
      <trkpt lat="48.63462" lon="2.15582">
        <ele>161</ele>
        <time>2019-10-28T10:24:13.000Z</time>
      </trkpt>
      <trkpt lat="48.63463" lon="2.15584">
        <ele>161</ele>
        <time>2019-10-28T10:24:14.000Z</time>
      </trkpt>
      <trkpt lat="48.63463" lon="2.15585">
        <ele>161</ele>
        <time>2019-10-28T10:24:15.000Z</time>
      </trkpt>
      <trkpt lat="48.63464" lon="2.15587">
        <ele>161</ele>
        <time>2019-10-28T10:24:16.000Z</time>
      </trkpt>
      <trkpt lat="48.63464" lon="2.15589">
        <ele>161</ele>
        <time>2019-10-28T10:24:17.000Z</time>
      </trkpt>
      <trkpt lat="48.63465" lon="2.15591">
        <ele>161</ele>
        <time>2019-10-28T10:24:18.000Z</time>
      </trkpt>
      <trkpt lat="48.63465" lon="2.15593">
        <ele>161</ele>
        <time>2019-10-28T10:24:19.000Z</time>
      </trkpt>
      <trkpt lat="48.63465" lon="2.15595">
        <ele>161</ele>
        <time>2019-10-28T10:24:20.000Z</time>
      </trkpt>
      <trkpt lat="48.63466" lon="2.15597">
        <ele>161</ele>
        <time>2019-10-28T10:24:21.000Z</time>
      </trkpt>
      <trkpt lat="48.63466" lon="2.15598">
        <ele>161</ele>
        <time>2019-10-28T10:24:22.000Z</time>
      </trkpt>
      <trkpt lat="48.63466" lon="2.156">
        <ele>162</ele>
        <time>2019-10-28T10:24:23.000Z</time>
      </trkpt>
      <trkpt lat="48.63467" lon="2.15602">
        <ele>162</ele>
        <time>2019-10-28T10:24:24.000Z</time>
      </trkpt>
      <trkpt lat="48.63467" lon="2.15604">
        <ele>162</ele>
        <time>2019-10-28T10:24:25.000Z</time>
      </trkpt>
      <trkpt lat="48.63467" lon="2.15606">
        <ele>162</ele>
        <time>2019-10-28T10:24:26.000Z</time>
      </trkpt>
      <trkpt lat="48.63467" lon="2.15608">
        <ele>162</ele>
        <time>2019-10-28T10:24:27.000Z</time>
      </trkpt>
      <trkpt lat="48.63467" lon="2.1561">
        <ele>162</ele>
        <time>2019-10-28T10:24:28.000Z</time>
      </trkpt>
      <trkpt lat="48.63467" lon="2.15612">
        <ele>162</ele>
        <time>2019-10-28T10:24:29.000Z</time>
      </trkpt>
      <trkpt lat="48.63468" lon="2.15614">
        <ele>162</ele>
        <time>2019-10-28T10:24:30.000Z</time>
      </trkpt>
      <trkpt lat="48.63468" lon="2.15616">
        <ele>162</ele>
        <time>2019-10-28T10:24:31.000Z</time>
      </trkpt>
      <trkpt lat="48.63468" lon="2.15618">
        <ele>162</ele>
        <time>2019-10-28T10:24:32.000Z</time>
      </trkpt>
      <trkpt lat="48.63468" lon="2.1562">
        <ele>162</ele>
        <time>2019-10-28T10:24:33.000Z</time>
      </trkpt>
      <trkpt lat="48.63468" lon="2.15622">
        <ele>162</ele>
        <time>2019-10-28T10:24:34.000Z</time>
      </trkpt>
      <trkpt lat="48.63468" lon="2.15624">
        <ele>162</ele>
        <time>2019-10-28T10:24:35.000Z</time>
      </trkpt>
      <trkpt lat="48.63468" lon="2.15625">
        <ele>162</ele>
        <time>2019-10-28T10:24:36.000Z</time>
      </trkpt>
      <trkpt lat="48.63468" lon="2.15627">
        <ele>162</ele>
        <time>2019-10-28T10:24:37.000Z</time>
      </trkpt>
      <trkpt lat="48.63468" lon="2.15628">
        <ele>162</ele>
        <time>2019-10-28T10:24:38.000Z</time>
      </trkpt>
      <trkpt lat="48.63467" lon="2.15629">
        <ele>162</ele>
        <time>2019-10-28T10:24:39.000Z</time>
      </trkpt>
      <trkpt lat="48.63467" lon="2.1563">
        <ele>162</ele>
        <time>2019-10-28T10:24:40.000Z</time>
      </trkpt>
      <trkpt lat="48.63467" lon="2.15631">
        <ele>162</ele>
        <time>2019-10-28T10:24:41.000Z</time>
      </trkpt>
      <trkpt lat="48.63467" lon="2.15633">
        <ele>162</ele>
        <time>2019-10-28T10:24:42.000Z</time>
      </trkpt>
      <trkpt lat="48.63466" lon="2.15634">
        <ele>161</ele>
        <time>2019-10-28T10:24:43.000Z</time>
      </trkpt>
      <trkpt lat="48.63466" lon="2.15635">
        <ele>162</ele>
        <time>2019-10-28T10:24:44.000Z</time>
      </trkpt>
      <trkpt lat="48.63466" lon="2.15636">
        <ele>162</ele>
        <time>2019-10-28T10:24:45.000Z</time>
      </trkpt>
      <trkpt lat="48.63465" lon="2.15638">
        <ele>162</ele>
        <time>2019-10-28T10:24:46.000Z</time>
      </trkpt>
      <trkpt lat="48.63465" lon="2.15639">
        <ele>162</ele>
        <time>2019-10-28T10:24:47.000Z</time>
      </trkpt>
      <trkpt lat="48.63465" lon="2.15641">
        <ele>162</ele>
        <time>2019-10-28T10:24:48.000Z</time>
      </trkpt>
      <trkpt lat="48.63465" lon="2.15643">
        <ele>162</ele>
        <time>2019-10-28T10:24:49.000Z</time>
      </trkpt>
      <trkpt lat="48.63465" lon="2.15644">
        <ele>162</ele>
        <time>2019-10-28T10:24:50.000Z</time>
      </trkpt>
      <trkpt lat="48.63464" lon="2.15646">
        <ele>162</ele>
        <time>2019-10-28T10:24:51.000Z</time>
      </trkpt>
      <trkpt lat="48.63464" lon="2.15647">
        <ele>161</ele>
        <time>2019-10-28T10:24:52.000Z</time>
      </trkpt>
      <trkpt lat="48.63464" lon="2.15649">
        <ele>161</ele>
        <time>2019-10-28T10:24:53.000Z</time>
      </trkpt>
      <trkpt lat="48.63463" lon="2.1565">
        <ele>161</ele>
        <time>2019-10-28T10:24:54.000Z</time>
      </trkpt>
      <trkpt lat="48.63462" lon="2.15651">
        <ele>161</ele>
        <time>2019-10-28T10:24:55.000Z</time>
      </trkpt>
      <trkpt lat="48.63461" lon="2.15651">
        <ele>161</ele>
        <time>2019-10-28T10:24:56.000Z</time>
      </trkpt>
      <trkpt lat="48.6346" lon="2.15652">
        <ele>161</ele>
        <time>2019-10-28T10:24:57.000Z</time>
      </trkpt>
      <trkpt lat="48.6346" lon="2.15652">
        <ele>161</ele>
        <time>2019-10-28T10:24:58.000Z</time>
      </trkpt>
      <trkpt lat="48.63459" lon="2.15653">
        <ele>160</ele>
        <time>2019-10-28T10:24:59.000Z</time>
      </trkpt>
      <trkpt lat="48.63458" lon="2.15653">
        <ele>160</ele>
        <time>2019-10-28T10:25:00.000Z</time>
      </trkpt>
      <trkpt lat="48.63457" lon="2.15653">
        <ele>160</ele>
        <time>2019-10-28T10:25:01.000Z</time>
      </trkpt>
      <trkpt lat="48.63456" lon="2.15654">
        <ele>160</ele>
        <time>2019-10-28T10:25:02.000Z</time>
      </trkpt>
      <trkpt lat="48.63455" lon="2.15654">
        <ele>160</ele>
        <time>2019-10-28T10:25:03.000Z</time>
      </trkpt>
      <trkpt lat="48.63454" lon="2.15654">
        <ele>160</ele>
        <time>2019-10-28T10:25:04.000Z</time>
      </trkpt>
      <trkpt lat="48.63453" lon="2.15655">
        <ele>160</ele>
        <time>2019-10-28T10:25:05.000Z</time>
      </trkpt>
      <trkpt lat="48.63452" lon="2.15655">
        <ele>159</ele>
        <time>2019-10-28T10:25:06.000Z</time>
      </trkpt>
      <trkpt lat="48.6345" lon="2.15655">
        <ele>159</ele>
        <time>2019-10-28T10:25:07.000Z</time>
      </trkpt>
      <trkpt lat="48.63449" lon="2.15656">
        <ele>159</ele>
        <time>2019-10-28T10:25:08.000Z</time>
      </trkpt>
      <trkpt lat="48.63448" lon="2.15656">
        <ele>159</ele>
        <time>2019-10-28T10:25:09.000Z</time>
      </trkpt>
      <trkpt lat="48.63447" lon="2.15657">
        <ele>158</ele>
        <time>2019-10-28T10:25:10.000Z</time>
      </trkpt>
      <trkpt lat="48.63446" lon="2.15657">
        <ele>158</ele>
        <time>2019-10-28T10:25:11.000Z</time>
      </trkpt>
      <trkpt lat="48.63445" lon="2.15657">
        <ele>158</ele>
        <time>2019-10-28T10:25:12.000Z</time>
      </trkpt>
      <trkpt lat="48.63444" lon="2.15658">
        <ele>158</ele>
        <time>2019-10-28T10:25:13.000Z</time>
      </trkpt>
      <trkpt lat="48.63443" lon="2.15658">
        <ele>158</ele>
        <time>2019-10-28T10:25:14.000Z</time>
      </trkpt>
      <trkpt lat="48.63442" lon="2.15659">
        <ele>157</ele>
        <time>2019-10-28T10:25:15.000Z</time>
      </trkpt>
      <trkpt lat="48.63441" lon="2.15659">
        <ele>157</ele>
        <time>2019-10-28T10:25:16.000Z</time>
      </trkpt>
      <trkpt lat="48.6344" lon="2.1566">
        <ele>157</ele>
        <time>2019-10-28T10:25:17.000Z</time>
      </trkpt>
      <trkpt lat="48.63439" lon="2.1566">
        <ele>157</ele>
        <time>2019-10-28T10:25:18.000Z</time>
      </trkpt>
      <trkpt lat="48.63438" lon="2.15661">
        <ele>156</ele>
        <time>2019-10-28T10:25:19.000Z</time>
      </trkpt>
      <trkpt lat="48.63437" lon="2.15661">
        <ele>156</ele>
        <time>2019-10-28T10:25:20.000Z</time>
      </trkpt>
      <trkpt lat="48.63436" lon="2.15662">
        <ele>156</ele>
        <time>2019-10-28T10:25:21.000Z</time>
      </trkpt>
      <trkpt lat="48.63435" lon="2.15662">
        <ele>156</ele>
        <time>2019-10-28T10:25:22.000Z</time>
      </trkpt>
      <trkpt lat="48.63434" lon="2.15663">
        <ele>156</ele>
        <time>2019-10-28T10:25:23.000Z</time>
      </trkpt>
      <trkpt lat="48.63433" lon="2.15664">
        <ele>156</ele>
        <time>2019-10-28T10:25:24.000Z</time>
      </trkpt>
      <trkpt lat="48.63432" lon="2.15664">
        <ele>155</ele>
        <time>2019-10-28T10:25:25.000Z</time>
      </trkpt>
      <trkpt lat="48.63431" lon="2.15665">
        <ele>155</ele>
        <time>2019-10-28T10:25:26.000Z</time>
      </trkpt>
      <trkpt lat="48.6343" lon="2.15665">
        <ele>155</ele>
        <time>2019-10-28T10:25:27.000Z</time>
      </trkpt>
      <trkpt lat="48.63429" lon="2.15665">
        <ele>155</ele>
        <time>2019-10-28T10:25:28.000Z</time>
      </trkpt>
      <trkpt lat="48.63428" lon="2.15666">
        <ele>155</ele>
        <time>2019-10-28T10:25:29.000Z</time>
      </trkpt>
      <trkpt lat="48.63427" lon="2.15667">
        <ele>155</ele>
        <time>2019-10-28T10:25:30.000Z</time>
      </trkpt>
      <trkpt lat="48.63425" lon="2.15668">
        <ele>155</ele>
        <time>2019-10-28T10:25:31.000Z</time>
      </trkpt>
      <trkpt lat="48.63424" lon="2.15668">
        <ele>155</ele>
        <time>2019-10-28T10:25:32.000Z</time>
      </trkpt>
      <trkpt lat="48.63423" lon="2.15669">
        <ele>156</ele>
        <time>2019-10-28T10:25:33.000Z</time>
      </trkpt>
      <trkpt lat="48.63421" lon="2.15669">
        <ele>156</ele>
        <time>2019-10-28T10:25:34.000Z</time>
      </trkpt>
      <trkpt lat="48.6342" lon="2.1567">
        <ele>155</ele>
        <time>2019-10-28T10:25:35.000Z</time>
      </trkpt>
      <trkpt lat="48.63419" lon="2.1567">
        <ele>155</ele>
        <time>2019-10-28T10:25:36.000Z</time>
      </trkpt>
      <trkpt lat="48.63418" lon="2.15671">
        <ele>155</ele>
        <time>2019-10-28T10:25:37.000Z</time>
      </trkpt>
      <trkpt lat="48.63416" lon="2.15671">
        <ele>154</ele>
        <time>2019-10-28T10:25:38.000Z</time>
      </trkpt>
      <trkpt lat="48.63415" lon="2.15672">
        <ele>154</ele>
        <time>2019-10-28T10:25:39.000Z</time>
      </trkpt>
      <trkpt lat="48.63414" lon="2.15672">
        <ele>154</ele>
        <time>2019-10-28T10:25:40.000Z</time>
      </trkpt>
      <trkpt lat="48.63413" lon="2.15673">
        <ele>154</ele>
        <time>2019-10-28T10:25:41.000Z</time>
      </trkpt>
      <trkpt lat="48.63412" lon="2.15673">
        <ele>154</ele>
        <time>2019-10-28T10:25:42.000Z</time>
      </trkpt>
      <trkpt lat="48.63411" lon="2.15674">
        <ele>154</ele>
        <time>2019-10-28T10:25:43.000Z</time>
      </trkpt>
      <trkpt lat="48.63409" lon="2.15674">
        <ele>154</ele>
        <time>2019-10-28T10:25:44.000Z</time>
      </trkpt>
      <trkpt lat="48.63408" lon="2.15675">
        <ele>154</ele>
        <time>2019-10-28T10:25:45.000Z</time>
      </trkpt>
      <trkpt lat="48.63407" lon="2.15676">
        <ele>154</ele>
        <time>2019-10-28T10:25:46.000Z</time>
      </trkpt>
      <trkpt lat="48.63406" lon="2.15676">
        <ele>153</ele>
        <time>2019-10-28T10:25:47.000Z</time>
      </trkpt>
      <trkpt lat="48.63405" lon="2.15676">
        <ele>153</ele>
        <time>2019-10-28T10:25:48.000Z</time>
      </trkpt>
      <trkpt lat="48.63404" lon="2.15677">
        <ele>153</ele>
        <time>2019-10-28T10:25:49.000Z</time>
      </trkpt>
      <trkpt lat="48.63403" lon="2.15677">
        <ele>153</ele>
        <time>2019-10-28T10:25:50.000Z</time>
      </trkpt>
      <trkpt lat="48.63402" lon="2.15678">
        <ele>152</ele>
        <time>2019-10-28T10:25:51.000Z</time>
      </trkpt>
      <trkpt lat="48.63401" lon="2.15678">
        <ele>152</ele>
        <time>2019-10-28T10:25:52.000Z</time>
      </trkpt>
      <trkpt lat="48.63399" lon="2.15679">
        <ele>152</ele>
        <time>2019-10-28T10:25:53.000Z</time>
      </trkpt>
      <trkpt lat="48.63398" lon="2.15679">
        <ele>152</ele>
        <time>2019-10-28T10:25:54.000Z</time>
      </trkpt>
      <trkpt lat="48.63397" lon="2.15679">
        <ele>152</ele>
        <time>2019-10-28T10:25:55.000Z</time>
      </trkpt>
      <trkpt lat="48.63396" lon="2.1568">
        <ele>152</ele>
        <time>2019-10-28T10:25:56.000Z</time>
      </trkpt>
      <trkpt lat="48.63394" lon="2.1568">
        <ele>152</ele>
        <time>2019-10-28T10:25:57.000Z</time>
      </trkpt>
      <trkpt lat="48.63393" lon="2.1568">
        <ele>151</ele>
        <time>2019-10-28T10:25:58.000Z</time>
      </trkpt>
      <trkpt lat="48.63392" lon="2.15681">
        <ele>151</ele>
        <time>2019-10-28T10:25:59.000Z</time>
      </trkpt>
      <trkpt lat="48.63391" lon="2.15681">
        <ele>151</ele>
        <time>2019-10-28T10:26:00.000Z</time>
      </trkpt>
      <trkpt lat="48.63389" lon="2.15681">
        <ele>150</ele>
        <time>2019-10-28T10:26:01.000Z</time>
      </trkpt>
      <trkpt lat="48.63388" lon="2.15682">
        <ele>150</ele>
        <time>2019-10-28T10:26:02.000Z</time>
      </trkpt>
      <trkpt lat="48.63387" lon="2.15682">
        <ele>149</ele>
        <time>2019-10-28T10:26:03.000Z</time>
      </trkpt>
      <trkpt lat="48.63386" lon="2.15682">
        <ele>149</ele>
        <time>2019-10-28T10:26:04.000Z</time>
      </trkpt>
      <trkpt lat="48.63385" lon="2.15683">
        <ele>149</ele>
        <time>2019-10-28T10:26:05.000Z</time>
      </trkpt>
      <trkpt lat="48.63384" lon="2.15683">
        <ele>149</ele>
        <time>2019-10-28T10:26:06.000Z</time>
      </trkpt>
      <trkpt lat="48.63383" lon="2.15683">
        <ele>150</ele>
        <time>2019-10-28T10:26:07.000Z</time>
      </trkpt>
      <trkpt lat="48.63381" lon="2.15684">
        <ele>150</ele>
        <time>2019-10-28T10:26:08.000Z</time>
      </trkpt>
      <trkpt lat="48.6338" lon="2.15684">
        <ele>149</ele>
        <time>2019-10-28T10:26:09.000Z</time>
      </trkpt>
      <trkpt lat="48.63379" lon="2.15684">
        <ele>148</ele>
        <time>2019-10-28T10:26:10.000Z</time>
      </trkpt>
      <trkpt lat="48.63378" lon="2.15684">
        <ele>148</ele>
        <time>2019-10-28T10:26:11.000Z</time>
      </trkpt>
      <trkpt lat="48.63377" lon="2.15685">
        <ele>147</ele>
        <time>2019-10-28T10:26:12.000Z</time>
      </trkpt>
      <trkpt lat="48.63376" lon="2.15685">
        <ele>147</ele>
        <time>2019-10-28T10:26:13.000Z</time>
      </trkpt>
      <trkpt lat="48.63375" lon="2.15685">
        <ele>147</ele>
        <time>2019-10-28T10:26:14.000Z</time>
      </trkpt>
      <trkpt lat="48.63373" lon="2.15686">
        <ele>147</ele>
        <time>2019-10-28T10:26:15.000Z</time>
      </trkpt>
      <trkpt lat="48.63372" lon="2.15686">
        <ele>147</ele>
        <time>2019-10-28T10:26:16.000Z</time>
      </trkpt>
      <trkpt lat="48.63371" lon="2.15686">
        <ele>147</ele>
        <time>2019-10-28T10:26:17.000Z</time>
      </trkpt>
      <trkpt lat="48.6337" lon="2.15687">
        <ele>147</ele>
        <time>2019-10-28T10:26:18.000Z</time>
      </trkpt>
      <trkpt lat="48.63369" lon="2.15687">
        <ele>147</ele>
        <time>2019-10-28T10:26:19.000Z</time>
      </trkpt>
      <trkpt lat="48.63367" lon="2.15688">
        <ele>147</ele>
        <time>2019-10-28T10:26:20.000Z</time>
      </trkpt>
      <trkpt lat="48.63366" lon="2.15689">
        <ele>147</ele>
        <time>2019-10-28T10:26:21.000Z</time>
      </trkpt>
      <trkpt lat="48.63365" lon="2.15689">
        <ele>147</ele>
        <time>2019-10-28T10:26:22.000Z</time>
      </trkpt>
      <trkpt lat="48.63363" lon="2.1569">
        <ele>147</ele>
        <time>2019-10-28T10:26:23.000Z</time>
      </trkpt>
      <trkpt lat="48.63362" lon="2.15691">
        <ele>147</ele>
        <time>2019-10-28T10:26:24.000Z</time>
      </trkpt>
      <trkpt lat="48.63361" lon="2.15691">
        <ele>147</ele>
        <time>2019-10-28T10:26:25.000Z</time>
      </trkpt>
      <trkpt lat="48.6336" lon="2.15692">
        <ele>147</ele>
        <time>2019-10-28T10:26:26.000Z</time>
      </trkpt>
      <trkpt lat="48.63358" lon="2.15693">
        <ele>147</ele>
        <time>2019-10-28T10:26:27.000Z</time>
      </trkpt>
      <trkpt lat="48.63357" lon="2.15693">
        <ele>148</ele>
        <time>2019-10-28T10:26:28.000Z</time>
      </trkpt>
      <trkpt lat="48.63355" lon="2.15694">
        <ele>148</ele>
        <time>2019-10-28T10:26:29.000Z</time>
      </trkpt>
      <trkpt lat="48.63354" lon="2.15694">
        <ele>148</ele>
        <time>2019-10-28T10:26:30.000Z</time>
      </trkpt>
      <trkpt lat="48.63352" lon="2.15695">
        <ele>148</ele>
        <time>2019-10-28T10:26:31.000Z</time>
      </trkpt>
      <trkpt lat="48.63351" lon="2.15696">
        <ele>148</ele>
        <time>2019-10-28T10:26:32.000Z</time>
      </trkpt>
      <trkpt lat="48.6335" lon="2.15696">
        <ele>148</ele>
        <time>2019-10-28T10:26:33.000Z</time>
      </trkpt>
      <trkpt lat="48.63348" lon="2.15696">
        <ele>148</ele>
        <time>2019-10-28T10:26:34.000Z</time>
      </trkpt>
      <trkpt lat="48.63347" lon="2.15697">
        <ele>148</ele>
        <time>2019-10-28T10:26:35.000Z</time>
      </trkpt>
      <trkpt lat="48.63346" lon="2.15697">
        <ele>147</ele>
        <time>2019-10-28T10:26:36.000Z</time>
      </trkpt>
      <trkpt lat="48.63345" lon="2.15698">
        <ele>147</ele>
        <time>2019-10-28T10:26:37.000Z</time>
      </trkpt>
      <trkpt lat="48.63343" lon="2.15699">
        <ele>147</ele>
        <time>2019-10-28T10:26:38.000Z</time>
      </trkpt>
      <trkpt lat="48.63342" lon="2.15699">
        <ele>147</ele>
        <time>2019-10-28T10:26:39.000Z</time>
      </trkpt>
      <trkpt lat="48.63341" lon="2.157">
        <ele>147</ele>
        <time>2019-10-28T10:26:40.000Z</time>
      </trkpt>
      <trkpt lat="48.6334" lon="2.157">
        <ele>147</ele>
        <time>2019-10-28T10:26:41.000Z</time>
      </trkpt>
      <trkpt lat="48.63338" lon="2.157">
        <ele>147</ele>
        <time>2019-10-28T10:26:42.000Z</time>
      </trkpt>
      <trkpt lat="48.63337" lon="2.157">
        <ele>146</ele>
        <time>2019-10-28T10:26:43.000Z</time>
      </trkpt>
      <trkpt lat="48.63336" lon="2.15701">
        <ele>146</ele>
        <time>2019-10-28T10:26:44.000Z</time>
      </trkpt>
      <trkpt lat="48.63334" lon="2.15701">
        <ele>146</ele>
        <time>2019-10-28T10:26:45.000Z</time>
      </trkpt>
      <trkpt lat="48.63333" lon="2.15702">
        <ele>146</ele>
        <time>2019-10-28T10:26:46.000Z</time>
      </trkpt>
      <trkpt lat="48.63332" lon="2.15702">
        <ele>146</ele>
        <time>2019-10-28T10:26:47.000Z</time>
      </trkpt>
      <trkpt lat="48.6333" lon="2.15703">
        <ele>146</ele>
        <time>2019-10-28T10:26:48.000Z</time>
      </trkpt>
      <trkpt lat="48.63329" lon="2.15703">
        <ele>146</ele>
        <time>2019-10-28T10:26:49.000Z</time>
      </trkpt>
      <trkpt lat="48.63327" lon="2.15704">
        <ele>146</ele>
        <time>2019-10-28T10:26:50.000Z</time>
      </trkpt>
      <trkpt lat="48.63326" lon="2.15704">
        <ele>146</ele>
        <time>2019-10-28T10:26:51.000Z</time>
      </trkpt>
      <trkpt lat="48.63325" lon="2.15705">
        <ele>146</ele>
        <time>2019-10-28T10:26:52.000Z</time>
      </trkpt>
      <trkpt lat="48.63323" lon="2.15705">
        <ele>146</ele>
        <time>2019-10-28T10:26:53.000Z</time>
      </trkpt>
      <trkpt lat="48.63322" lon="2.15705">
        <ele>145</ele>
        <time>2019-10-28T10:26:54.000Z</time>
      </trkpt>
      <trkpt lat="48.63321" lon="2.15705">
        <ele>145</ele>
        <time>2019-10-28T10:26:55.000Z</time>
      </trkpt>
      <trkpt lat="48.6332" lon="2.15705">
        <ele>145</ele>
        <time>2019-10-28T10:26:56.000Z</time>
      </trkpt>
      <trkpt lat="48.63319" lon="2.15705">
        <ele>145</ele>
        <time>2019-10-28T10:26:57.000Z</time>
      </trkpt>
      <trkpt lat="48.63317" lon="2.15706">
        <ele>145</ele>
        <time>2019-10-28T10:26:58.000Z</time>
      </trkpt>
      <trkpt lat="48.63316" lon="2.15707">
        <ele>144</ele>
        <time>2019-10-28T10:26:59.000Z</time>
      </trkpt>
      <trkpt lat="48.63315" lon="2.15708">
        <ele>144</ele>
        <time>2019-10-28T10:27:00.000Z</time>
      </trkpt>
      <trkpt lat="48.63314" lon="2.15709">
        <ele>144</ele>
        <time>2019-10-28T10:27:01.000Z</time>
      </trkpt>
      <trkpt lat="48.63313" lon="2.1571">
        <ele>144</ele>
        <time>2019-10-28T10:27:02.000Z</time>
      </trkpt>
      <trkpt lat="48.63312" lon="2.1571">
        <ele>144</ele>
        <time>2019-10-28T10:27:03.000Z</time>
      </trkpt>
      <trkpt lat="48.6331" lon="2.15711">
        <ele>144</ele>
        <time>2019-10-28T10:27:04.000Z</time>
      </trkpt>
      <trkpt lat="48.63309" lon="2.15712">
        <ele>144</ele>
        <time>2019-10-28T10:27:05.000Z</time>
      </trkpt>
      <trkpt lat="48.63308" lon="2.15712">
        <ele>144</ele>
        <time>2019-10-28T10:27:06.000Z</time>
      </trkpt>
      <trkpt lat="48.63308" lon="2.15712">
        <ele>144</ele>
        <time>2019-10-28T10:27:07.000Z</time>
      </trkpt>
      <trkpt lat="48.63308" lon="2.15712">
        <ele>144</ele>
        <time>2019-10-28T10:27:08.000Z</time>
      </trkpt>
      <trkpt lat="48.63308" lon="2.15713">
        <ele>144</ele>
        <time>2019-10-28T10:27:09.000Z</time>
      </trkpt>
      <trkpt lat="48.63308" lon="2.15713">
        <ele>144</ele>
        <time>2019-10-28T10:27:10.000Z</time>
      </trkpt>
      <trkpt lat="48.63307" lon="2.15714">
        <ele>144</ele>
        <time>2019-10-28T10:27:11.000Z</time>
      </trkpt>
      <trkpt lat="48.63306" lon="2.15715">
        <ele>144</ele>
        <time>2019-10-28T10:27:12.000Z</time>
      </trkpt>
      <trkpt lat="48.63305" lon="2.15716">
        <ele>143</ele>
        <time>2019-10-28T10:27:13.000Z</time>
      </trkpt>
      <trkpt lat="48.63303" lon="2.15717">
        <ele>143</ele>
        <time>2019-10-28T10:27:14.000Z</time>
      </trkpt>
      <trkpt lat="48.63302" lon="2.15718">
        <ele>143</ele>
        <time>2019-10-28T10:27:15.000Z</time>
      </trkpt>
      <trkpt lat="48.63301" lon="2.15718">
        <ele>143</ele>
        <time>2019-10-28T10:27:16.000Z</time>
      </trkpt>
      <trkpt lat="48.633" lon="2.15719">
        <ele>142</ele>
        <time>2019-10-28T10:27:17.000Z</time>
      </trkpt>
      <trkpt lat="48.63299" lon="2.15719">
        <ele>142</ele>
        <time>2019-10-28T10:27:18.000Z</time>
      </trkpt>
      <trkpt lat="48.63298" lon="2.1572">
        <ele>142</ele>
        <time>2019-10-28T10:27:19.000Z</time>
      </trkpt>
      <trkpt lat="48.63296" lon="2.15721">
        <ele>142</ele>
        <time>2019-10-28T10:27:20.000Z</time>
      </trkpt>
      <trkpt lat="48.63295" lon="2.15722">
        <ele>141</ele>
        <time>2019-10-28T10:27:21.000Z</time>
      </trkpt>
      <trkpt lat="48.63294" lon="2.15722">
        <ele>141</ele>
        <time>2019-10-28T10:27:22.000Z</time>
      </trkpt>
      <trkpt lat="48.63293" lon="2.15723">
        <ele>141</ele>
        <time>2019-10-28T10:27:23.000Z</time>
      </trkpt>
      <trkpt lat="48.63292" lon="2.15723">
        <ele>141</ele>
        <time>2019-10-28T10:27:24.000Z</time>
      </trkpt>
      <trkpt lat="48.63291" lon="2.15724">
        <ele>141</ele>
        <time>2019-10-28T10:27:25.000Z</time>
      </trkpt>
      <trkpt lat="48.6329" lon="2.15724">
        <ele>141</ele>
        <time>2019-10-28T10:27:26.000Z</time>
      </trkpt>
      <trkpt lat="48.63289" lon="2.15725">
        <ele>141</ele>
        <time>2019-10-28T10:27:27.000Z</time>
      </trkpt>
      <trkpt lat="48.63288" lon="2.15725">
        <ele>140</ele>
        <time>2019-10-28T10:27:28.000Z</time>
      </trkpt>
      <trkpt lat="48.63287" lon="2.15726">
        <ele>141</ele>
        <time>2019-10-28T10:27:29.000Z</time>
      </trkpt>
      <trkpt lat="48.63286" lon="2.15727">
        <ele>140</ele>
        <time>2019-10-28T10:27:30.000Z</time>
      </trkpt>
      <trkpt lat="48.63285" lon="2.15728">
        <ele>140</ele>
        <time>2019-10-28T10:27:31.000Z</time>
      </trkpt>
      <trkpt lat="48.63284" lon="2.15729">
        <ele>140</ele>
        <time>2019-10-28T10:27:32.000Z</time>
      </trkpt>
      <trkpt lat="48.63283" lon="2.1573">
        <ele>140</ele>
        <time>2019-10-28T10:27:33.000Z</time>
      </trkpt>
      <trkpt lat="48.63282" lon="2.1573">
        <ele>139</ele>
        <time>2019-10-28T10:27:34.000Z</time>
      </trkpt>
      <trkpt lat="48.63281" lon="2.15731">
        <ele>139</ele>
        <time>2019-10-28T10:27:35.000Z</time>
      </trkpt>
      <trkpt lat="48.6328" lon="2.15732">
        <ele>139</ele>
        <time>2019-10-28T10:27:36.000Z</time>
      </trkpt>
      <trkpt lat="48.63279" lon="2.15732">
        <ele>138</ele>
        <time>2019-10-28T10:27:37.000Z</time>
      </trkpt>
      <trkpt lat="48.63278" lon="2.15733">
        <ele>138</ele>
        <time>2019-10-28T10:27:38.000Z</time>
      </trkpt>
      <trkpt lat="48.63277" lon="2.15734">
        <ele>138</ele>
        <time>2019-10-28T10:27:39.000Z</time>
      </trkpt>
      <trkpt lat="48.63276" lon="2.15735">
        <ele>138</ele>
        <time>2019-10-28T10:27:40.000Z</time>
      </trkpt>
      <trkpt lat="48.63275" lon="2.15735">
        <ele>137</ele>
        <time>2019-10-28T10:27:41.000Z</time>
      </trkpt>
      <trkpt lat="48.63273" lon="2.15736">
        <ele>138</ele>
        <time>2019-10-28T10:27:42.000Z</time>
      </trkpt>
      <trkpt lat="48.63272" lon="2.15737">
        <ele>138</ele>
        <time>2019-10-28T10:27:43.000Z</time>
      </trkpt>
      <trkpt lat="48.63271" lon="2.15738">
        <ele>138</ele>
        <time>2019-10-28T10:27:44.000Z</time>
      </trkpt>
      <trkpt lat="48.6327" lon="2.15739">
        <ele>138</ele>
        <time>2019-10-28T10:27:45.000Z</time>
      </trkpt>
      <trkpt lat="48.63268" lon="2.15739">
        <ele>137</ele>
        <time>2019-10-28T10:27:46.000Z</time>
      </trkpt>
      <trkpt lat="48.63267" lon="2.1574">
        <ele>138</ele>
        <time>2019-10-28T10:27:47.000Z</time>
      </trkpt>
      <trkpt lat="48.63266" lon="2.15741">
        <ele>138</ele>
        <time>2019-10-28T10:27:48.000Z</time>
      </trkpt>
      <trkpt lat="48.63264" lon="2.15741">
        <ele>138</ele>
        <time>2019-10-28T10:27:49.000Z</time>
      </trkpt>
      <trkpt lat="48.63263" lon="2.15742">
        <ele>138</ele>
        <time>2019-10-28T10:27:50.000Z</time>
      </trkpt>
      <trkpt lat="48.63262" lon="2.15742">
        <ele>139</ele>
        <time>2019-10-28T10:27:51.000Z</time>
      </trkpt>
      <trkpt lat="48.6326" lon="2.15743">
        <ele>139</ele>
        <time>2019-10-28T10:27:52.000Z</time>
      </trkpt>
      <trkpt lat="48.63259" lon="2.15744">
        <ele>139</ele>
        <time>2019-10-28T10:27:53.000Z</time>
      </trkpt>
      <trkpt lat="48.63258" lon="2.15745">
        <ele>139</ele>
        <time>2019-10-28T10:27:54.000Z</time>
      </trkpt>
      <trkpt lat="48.63257" lon="2.15745">
        <ele>139</ele>
        <time>2019-10-28T10:27:55.000Z</time>
      </trkpt>
      <trkpt lat="48.63256" lon="2.15746">
        <ele>139</ele>
        <time>2019-10-28T10:27:56.000Z</time>
      </trkpt>
      <trkpt lat="48.63255" lon="2.15746">
        <ele>139</ele>
        <time>2019-10-28T10:27:57.000Z</time>
      </trkpt>
      <trkpt lat="48.63254" lon="2.15747">
        <ele>139</ele>
        <time>2019-10-28T10:27:58.000Z</time>
      </trkpt>
      <trkpt lat="48.63253" lon="2.15747">
        <ele>139</ele>
        <time>2019-10-28T10:27:59.000Z</time>
      </trkpt>
      <trkpt lat="48.63252" lon="2.15748">
        <ele>139</ele>
        <time>2019-10-28T10:28:00.000Z</time>
      </trkpt>
      <trkpt lat="48.63251" lon="2.15748">
        <ele>139</ele>
        <time>2019-10-28T10:28:01.000Z</time>
      </trkpt>
      <trkpt lat="48.6325" lon="2.15749">
        <ele>139</ele>
        <time>2019-10-28T10:28:02.000Z</time>
      </trkpt>
      <trkpt lat="48.63249" lon="2.1575">
        <ele>138</ele>
        <time>2019-10-28T10:28:03.000Z</time>
      </trkpt>
      <trkpt lat="48.63248" lon="2.15751">
        <ele>139</ele>
        <time>2019-10-28T10:28:04.000Z</time>
      </trkpt>
      <trkpt lat="48.63246" lon="2.15752">
        <ele>139</ele>
        <time>2019-10-28T10:28:05.000Z</time>
      </trkpt>
      <trkpt lat="48.63245" lon="2.15752">
        <ele>139</ele>
        <time>2019-10-28T10:28:06.000Z</time>
      </trkpt>
      <trkpt lat="48.63244" lon="2.15753">
        <ele>139</ele>
        <time>2019-10-28T10:28:07.000Z</time>
      </trkpt>
      <trkpt lat="48.63242" lon="2.15753">
        <ele>138</ele>
        <time>2019-10-28T10:28:08.000Z</time>
      </trkpt>
      <trkpt lat="48.63241" lon="2.15754">
        <ele>139</ele>
        <time>2019-10-28T10:28:09.000Z</time>
      </trkpt>
      <trkpt lat="48.63239" lon="2.15754">
        <ele>138</ele>
        <time>2019-10-28T10:28:10.000Z</time>
      </trkpt>
      <trkpt lat="48.63238" lon="2.15755">
        <ele>139</ele>
        <time>2019-10-28T10:28:11.000Z</time>
      </trkpt>
      <trkpt lat="48.63237" lon="2.15756">
        <ele>138</ele>
        <time>2019-10-28T10:28:12.000Z</time>
      </trkpt>
      <trkpt lat="48.63235" lon="2.15757">
        <ele>139</ele>
        <time>2019-10-28T10:28:13.000Z</time>
      </trkpt>
      <trkpt lat="48.63234" lon="2.15757">
        <ele>139</ele>
        <time>2019-10-28T10:28:14.000Z</time>
      </trkpt>
      <trkpt lat="48.63233" lon="2.15758">
        <ele>139</ele>
        <time>2019-10-28T10:28:15.000Z</time>
      </trkpt>
      <trkpt lat="48.63231" lon="2.15759">
        <ele>139</ele>
        <time>2019-10-28T10:28:16.000Z</time>
      </trkpt>
      <trkpt lat="48.6323" lon="2.15759">
        <ele>139</ele>
        <time>2019-10-28T10:28:17.000Z</time>
      </trkpt>
      <trkpt lat="48.63229" lon="2.1576">
        <ele>139</ele>
        <time>2019-10-28T10:28:18.000Z</time>
      </trkpt>
      <trkpt lat="48.63228" lon="2.1576">
        <ele>139</ele>
        <time>2019-10-28T10:28:19.000Z</time>
      </trkpt>
      <trkpt lat="48.63226" lon="2.15761">
        <ele>139</ele>
        <time>2019-10-28T10:28:20.000Z</time>
      </trkpt>
      <trkpt lat="48.63225" lon="2.15762">
        <ele>139</ele>
        <time>2019-10-28T10:28:21.000Z</time>
      </trkpt>
      <trkpt lat="48.63224" lon="2.15762">
        <ele>139</ele>
        <time>2019-10-28T10:28:22.000Z</time>
      </trkpt>
      <trkpt lat="48.63223" lon="2.15763">
        <ele>139</ele>
        <time>2019-10-28T10:28:23.000Z</time>
      </trkpt>
      <trkpt lat="48.63222" lon="2.15763">
        <ele>139</ele>
        <time>2019-10-28T10:28:24.000Z</time>
      </trkpt>
      <trkpt lat="48.63221" lon="2.15764">
        <ele>139</ele>
        <time>2019-10-28T10:28:25.000Z</time>
      </trkpt>
      <trkpt lat="48.6322" lon="2.15764">
        <ele>138</ele>
        <time>2019-10-28T10:28:26.000Z</time>
      </trkpt>
      <trkpt lat="48.63219" lon="2.15764">
        <ele>138</ele>
        <time>2019-10-28T10:28:27.000Z</time>
      </trkpt>
      <trkpt lat="48.63218" lon="2.15765">
        <ele>138</ele>
        <time>2019-10-28T10:28:28.000Z</time>
      </trkpt>
      <trkpt lat="48.63217" lon="2.15765">
        <ele>137</ele>
        <time>2019-10-28T10:28:29.000Z</time>
      </trkpt>
      <trkpt lat="48.63216" lon="2.15766">
        <ele>137</ele>
        <time>2019-10-28T10:28:30.000Z</time>
      </trkpt>
      <trkpt lat="48.63215" lon="2.15767">
        <ele>136</ele>
        <time>2019-10-28T10:28:31.000Z</time>
      </trkpt>
      <trkpt lat="48.63214" lon="2.15768">
        <ele>136</ele>
        <time>2019-10-28T10:28:32.000Z</time>
      </trkpt>
      <trkpt lat="48.63212" lon="2.15768">
        <ele>136</ele>
        <time>2019-10-28T10:28:33.000Z</time>
      </trkpt>
      <trkpt lat="48.63211" lon="2.15769">
        <ele>136</ele>
        <time>2019-10-28T10:28:34.000Z</time>
      </trkpt>
      <trkpt lat="48.6321" lon="2.1577">
        <ele>136</ele>
        <time>2019-10-28T10:28:35.000Z</time>
      </trkpt>
      <trkpt lat="48.63208" lon="2.15771">
        <ele>136</ele>
        <time>2019-10-28T10:28:36.000Z</time>
      </trkpt>
      <trkpt lat="48.63207" lon="2.15771">
        <ele>136</ele>
        <time>2019-10-28T10:28:37.000Z</time>
      </trkpt>
      <trkpt lat="48.63206" lon="2.15772">
        <ele>136</ele>
        <time>2019-10-28T10:28:38.000Z</time>
      </trkpt>
      <trkpt lat="48.63204" lon="2.15773">
        <ele>136</ele>
        <time>2019-10-28T10:28:39.000Z</time>
      </trkpt>
      <trkpt lat="48.63203" lon="2.15773">
        <ele>136</ele>
        <time>2019-10-28T10:28:40.000Z</time>
      </trkpt>
      <trkpt lat="48.63202" lon="2.15774">
        <ele>136</ele>
        <time>2019-10-28T10:28:41.000Z</time>
      </trkpt>
      <trkpt lat="48.63201" lon="2.15775">
        <ele>135</ele>
        <time>2019-10-28T10:28:42.000Z</time>
      </trkpt>
      <trkpt lat="48.632" lon="2.15776">
        <ele>135</ele>
        <time>2019-10-28T10:28:43.000Z</time>
      </trkpt>
      <trkpt lat="48.63199" lon="2.15776">
        <ele>135</ele>
        <time>2019-10-28T10:28:44.000Z</time>
      </trkpt>
      <trkpt lat="48.63198" lon="2.15777">
        <ele>135</ele>
        <time>2019-10-28T10:28:45.000Z</time>
      </trkpt>
      <trkpt lat="48.63196" lon="2.15778">
        <ele>136</ele>
        <time>2019-10-28T10:28:46.000Z</time>
      </trkpt>
      <trkpt lat="48.63195" lon="2.15778">
        <ele>136</ele>
        <time>2019-10-28T10:28:47.000Z</time>
      </trkpt>
      <trkpt lat="48.63194" lon="2.15779">
        <ele>136</ele>
        <time>2019-10-28T10:28:48.000Z</time>
      </trkpt>
      <trkpt lat="48.63193" lon="2.1578">
        <ele>135</ele>
        <time>2019-10-28T10:28:49.000Z</time>
      </trkpt>
      <trkpt lat="48.63191" lon="2.15781">
        <ele>135</ele>
        <time>2019-10-28T10:28:50.000Z</time>
      </trkpt>
      <trkpt lat="48.6319" lon="2.15782">
        <ele>135</ele>
        <time>2019-10-28T10:28:51.000Z</time>
      </trkpt>
      <trkpt lat="48.63189" lon="2.15783">
        <ele>135</ele>
        <time>2019-10-28T10:28:52.000Z</time>
      </trkpt>
      <trkpt lat="48.63187" lon="2.15783">
        <ele>135</ele>
        <time>2019-10-28T10:28:53.000Z</time>
      </trkpt>
      <trkpt lat="48.63186" lon="2.15784">
        <ele>135</ele>
        <time>2019-10-28T10:28:54.000Z</time>
      </trkpt>
      <trkpt lat="48.63184" lon="2.15785">
        <ele>135</ele>
        <time>2019-10-28T10:28:55.000Z</time>
      </trkpt>
      <trkpt lat="48.63183" lon="2.15786">
        <ele>135</ele>
        <time>2019-10-28T10:28:56.000Z</time>
      </trkpt>
      <trkpt lat="48.63181" lon="2.15786">
        <ele>134</ele>
        <time>2019-10-28T10:28:57.000Z</time>
      </trkpt>
      <trkpt lat="48.6318" lon="2.15787">
        <ele>134</ele>
        <time>2019-10-28T10:28:58.000Z</time>
      </trkpt>
      <trkpt lat="48.63179" lon="2.15787">
        <ele>134</ele>
        <time>2019-10-28T10:28:59.000Z</time>
      </trkpt>
      <trkpt lat="48.63178" lon="2.15788">
        <ele>134</ele>
        <time>2019-10-28T10:29:00.000Z</time>
      </trkpt>
      <trkpt lat="48.63176" lon="2.15789">
        <ele>134</ele>
        <time>2019-10-28T10:29:01.000Z</time>
      </trkpt>
      <trkpt lat="48.63175" lon="2.1579">
        <ele>133</ele>
        <time>2019-10-28T10:29:02.000Z</time>
      </trkpt>
      <trkpt lat="48.63174" lon="2.15791">
        <ele>133</ele>
        <time>2019-10-28T10:29:03.000Z</time>
      </trkpt>
      <trkpt lat="48.63173" lon="2.15792">
        <ele>133</ele>
        <time>2019-10-28T10:29:04.000Z</time>
      </trkpt>
      <trkpt lat="48.63172" lon="2.15793">
        <ele>134</ele>
        <time>2019-10-28T10:29:05.000Z</time>
      </trkpt>
      <trkpt lat="48.63171" lon="2.15794">
        <ele>133</ele>
        <time>2019-10-28T10:29:06.000Z</time>
      </trkpt>
      <trkpt lat="48.6317" lon="2.15795">
        <ele>133</ele>
        <time>2019-10-28T10:29:07.000Z</time>
      </trkpt>
      <trkpt lat="48.63168" lon="2.15795">
        <ele>134</ele>
        <time>2019-10-28T10:29:08.000Z</time>
      </trkpt>
      <trkpt lat="48.63167" lon="2.15796">
        <ele>134</ele>
        <time>2019-10-28T10:29:09.000Z</time>
      </trkpt>
      <trkpt lat="48.63165" lon="2.15797">
        <ele>134</ele>
        <time>2019-10-28T10:29:10.000Z</time>
      </trkpt>
      <trkpt lat="48.63164" lon="2.15798">
        <ele>133</ele>
        <time>2019-10-28T10:29:11.000Z</time>
      </trkpt>
      <trkpt lat="48.63163" lon="2.15799">
        <ele>134</ele>
        <time>2019-10-28T10:29:12.000Z</time>
      </trkpt>
      <trkpt lat="48.63161" lon="2.15799">
        <ele>134</ele>
        <time>2019-10-28T10:29:13.000Z</time>
      </trkpt>
      <trkpt lat="48.6316" lon="2.158">
        <ele>134</ele>
        <time>2019-10-28T10:29:14.000Z</time>
      </trkpt>
      <trkpt lat="48.63158" lon="2.15801">
        <ele>134</ele>
        <time>2019-10-28T10:29:15.000Z</time>
      </trkpt>
      <trkpt lat="48.63157" lon="2.15803">
        <ele>134</ele>
        <time>2019-10-28T10:29:16.000Z</time>
      </trkpt>
      <trkpt lat="48.63156" lon="2.15804">
        <ele>134</ele>
        <time>2019-10-28T10:29:17.000Z</time>
      </trkpt>
      <trkpt lat="48.63155" lon="2.15805">
        <ele>134</ele>
        <time>2019-10-28T10:29:18.000Z</time>
      </trkpt>
      <trkpt lat="48.63154" lon="2.15806">
        <ele>133</ele>
        <time>2019-10-28T10:29:19.000Z</time>
      </trkpt>
      <trkpt lat="48.63152" lon="2.15808">
        <ele>133</ele>
        <time>2019-10-28T10:29:20.000Z</time>
      </trkpt>
      <trkpt lat="48.63151" lon="2.15809">
        <ele>133</ele>
        <time>2019-10-28T10:29:21.000Z</time>
      </trkpt>
      <trkpt lat="48.6315" lon="2.1581">
        <ele>133</ele>
        <time>2019-10-28T10:29:22.000Z</time>
      </trkpt>
      <trkpt lat="48.63149" lon="2.15811">
        <ele>133</ele>
        <time>2019-10-28T10:29:23.000Z</time>
      </trkpt>
      <trkpt lat="48.63148" lon="2.15813">
        <ele>134</ele>
        <time>2019-10-28T10:29:24.000Z</time>
      </trkpt>
      <trkpt lat="48.63147" lon="2.15814">
        <ele>134</ele>
        <time>2019-10-28T10:29:25.000Z</time>
      </trkpt>
      <trkpt lat="48.63146" lon="2.15816">
        <ele>134</ele>
        <time>2019-10-28T10:29:26.000Z</time>
      </trkpt>
      <trkpt lat="48.63145" lon="2.15818">
        <ele>134</ele>
        <time>2019-10-28T10:29:27.000Z</time>
      </trkpt>
      <trkpt lat="48.63144" lon="2.15819">
        <ele>134</ele>
        <time>2019-10-28T10:29:28.000Z</time>
      </trkpt>
      <trkpt lat="48.63143" lon="2.15821">
        <ele>134</ele>
        <time>2019-10-28T10:29:29.000Z</time>
      </trkpt>
      <trkpt lat="48.63142" lon="2.15824">
        <ele>134</ele>
        <time>2019-10-28T10:29:30.000Z</time>
      </trkpt>
      <trkpt lat="48.63141" lon="2.15826">
        <ele>134</ele>
        <time>2019-10-28T10:29:31.000Z</time>
      </trkpt>
      <trkpt lat="48.63139" lon="2.15827">
        <ele>133</ele>
        <time>2019-10-28T10:29:32.000Z</time>
      </trkpt>
      <trkpt lat="48.63138" lon="2.15829">
        <ele>133</ele>
        <time>2019-10-28T10:29:33.000Z</time>
      </trkpt>
      <trkpt lat="48.63137" lon="2.15831">
        <ele>133</ele>
        <time>2019-10-28T10:29:34.000Z</time>
      </trkpt>
      <trkpt lat="48.63136" lon="2.15832">
        <ele>133</ele>
        <time>2019-10-28T10:29:35.000Z</time>
      </trkpt>
      <trkpt lat="48.63135" lon="2.15833">
        <ele>133</ele>
        <time>2019-10-28T10:29:36.000Z</time>
      </trkpt>
      <trkpt lat="48.63134" lon="2.15835">
        <ele>133</ele>
        <time>2019-10-28T10:29:37.000Z</time>
      </trkpt>
      <trkpt lat="48.63133" lon="2.15836">
        <ele>133</ele>
        <time>2019-10-28T10:29:38.000Z</time>
      </trkpt>
      <trkpt lat="48.63131" lon="2.15838">
        <ele>133</ele>
        <time>2019-10-28T10:29:39.000Z</time>
      </trkpt>
      <trkpt lat="48.6313" lon="2.15839">
        <ele>133</ele>
        <time>2019-10-28T10:29:40.000Z</time>
      </trkpt>
      <trkpt lat="48.63129" lon="2.1584">
        <ele>133</ele>
        <time>2019-10-28T10:29:41.000Z</time>
      </trkpt>
      <trkpt lat="48.63128" lon="2.15842">
        <ele>133</ele>
        <time>2019-10-28T10:29:42.000Z</time>
      </trkpt>
      <trkpt lat="48.63127" lon="2.15843">
        <ele>133</ele>
        <time>2019-10-28T10:29:43.000Z</time>
      </trkpt>
      <trkpt lat="48.63126" lon="2.15844">
        <ele>133</ele>
        <time>2019-10-28T10:29:44.000Z</time>
      </trkpt>
      <trkpt lat="48.63125" lon="2.15846">
        <ele>133</ele>
        <time>2019-10-28T10:29:45.000Z</time>
      </trkpt>
      <trkpt lat="48.63124" lon="2.15847">
        <ele>133</ele>
        <time>2019-10-28T10:29:46.000Z</time>
      </trkpt>
      <trkpt lat="48.63123" lon="2.15848">
        <ele>133</ele>
        <time>2019-10-28T10:29:47.000Z</time>
      </trkpt>
      <trkpt lat="48.63122" lon="2.15849">
        <ele>133</ele>
        <time>2019-10-28T10:29:48.000Z</time>
      </trkpt>
      <trkpt lat="48.63121" lon="2.1585">
        <ele>133</ele>
        <time>2019-10-28T10:29:49.000Z</time>
      </trkpt>
      <trkpt lat="48.6312" lon="2.15851">
        <ele>133</ele>
        <time>2019-10-28T10:29:50.000Z</time>
      </trkpt>
      <trkpt lat="48.63119" lon="2.15852">
        <ele>132</ele>
        <time>2019-10-28T10:29:51.000Z</time>
      </trkpt>
      <trkpt lat="48.63119" lon="2.15853">
        <ele>132</ele>
        <time>2019-10-28T10:29:52.000Z</time>
      </trkpt>
      <trkpt lat="48.63118" lon="2.15854">
        <ele>132</ele>
        <time>2019-10-28T10:29:53.000Z</time>
      </trkpt>
      <trkpt lat="48.63117" lon="2.15855">
        <ele>132</ele>
        <time>2019-10-28T10:29:54.000Z</time>
      </trkpt>
      <trkpt lat="48.63115" lon="2.15856">
        <ele>132</ele>
        <time>2019-10-28T10:29:55.000Z</time>
      </trkpt>
      <trkpt lat="48.63114" lon="2.15857">
        <ele>132</ele>
        <time>2019-10-28T10:29:56.000Z</time>
      </trkpt>
      <trkpt lat="48.63113" lon="2.15858">
        <ele>131</ele>
        <time>2019-10-28T10:29:57.000Z</time>
      </trkpt>
      <trkpt lat="48.63112" lon="2.15859">
        <ele>131</ele>
        <time>2019-10-28T10:29:58.000Z</time>
      </trkpt>
      <trkpt lat="48.63111" lon="2.15861">
        <ele>131</ele>
        <time>2019-10-28T10:29:59.000Z</time>
      </trkpt>
      <trkpt lat="48.6311" lon="2.15862">
        <ele>131</ele>
        <time>2019-10-28T10:30:00.000Z</time>
      </trkpt>
      <trkpt lat="48.63109" lon="2.15863">
        <ele>131</ele>
        <time>2019-10-28T10:30:01.000Z</time>
      </trkpt>
      <trkpt lat="48.63108" lon="2.15864">
        <ele>131</ele>
        <time>2019-10-28T10:30:02.000Z</time>
      </trkpt>
      <trkpt lat="48.63107" lon="2.15866">
        <ele>131</ele>
        <time>2019-10-28T10:30:03.000Z</time>
      </trkpt>
      <trkpt lat="48.63106" lon="2.15867">
        <ele>131</ele>
        <time>2019-10-28T10:30:04.000Z</time>
      </trkpt>
      <trkpt lat="48.63105" lon="2.15869">
        <ele>131</ele>
        <time>2019-10-28T10:30:05.000Z</time>
      </trkpt>
      <trkpt lat="48.63104" lon="2.1587">
        <ele>131</ele>
        <time>2019-10-28T10:30:06.000Z</time>
      </trkpt>
      <trkpt lat="48.63103" lon="2.15872">
        <ele>131</ele>
        <time>2019-10-28T10:30:07.000Z</time>
      </trkpt>
      <trkpt lat="48.63102" lon="2.15873">
        <ele>131</ele>
        <time>2019-10-28T10:30:08.000Z</time>
      </trkpt>
      <trkpt lat="48.63101" lon="2.15875">
        <ele>131</ele>
        <time>2019-10-28T10:30:09.000Z</time>
      </trkpt>
      <trkpt lat="48.631" lon="2.15876">
        <ele>132</ele>
        <time>2019-10-28T10:30:10.000Z</time>
      </trkpt>
      <trkpt lat="48.63099" lon="2.15878">
        <ele>132</ele>
        <time>2019-10-28T10:30:11.000Z</time>
      </trkpt>
      <trkpt lat="48.63099" lon="2.15879">
        <ele>132</ele>
        <time>2019-10-28T10:30:12.000Z</time>
      </trkpt>
      <trkpt lat="48.63098" lon="2.1588">
        <ele>132</ele>
        <time>2019-10-28T10:30:13.000Z</time>
      </trkpt>
      <trkpt lat="48.63097" lon="2.15882">
        <ele>131</ele>
        <time>2019-10-28T10:30:14.000Z</time>
      </trkpt>
      <trkpt lat="48.63096" lon="2.15883">
        <ele>131</ele>
        <time>2019-10-28T10:30:15.000Z</time>
      </trkpt>
      <trkpt lat="48.63095" lon="2.15885">
        <ele>131</ele>
        <time>2019-10-28T10:30:16.000Z</time>
      </trkpt>
      <trkpt lat="48.63094" lon="2.15886">
        <ele>131</ele>
        <time>2019-10-28T10:30:17.000Z</time>
      </trkpt>
      <trkpt lat="48.63093" lon="2.15887">
        <ele>132</ele>
        <time>2019-10-28T10:30:18.000Z</time>
      </trkpt>
      <trkpt lat="48.63092" lon="2.15888">
        <ele>131</ele>
        <time>2019-10-28T10:30:19.000Z</time>
      </trkpt>
      <trkpt lat="48.63091" lon="2.1589">
        <ele>131</ele>
        <time>2019-10-28T10:30:20.000Z</time>
      </trkpt>
      <trkpt lat="48.6309" lon="2.15892">
        <ele>131</ele>
        <time>2019-10-28T10:30:21.000Z</time>
      </trkpt>
      <trkpt lat="48.63089" lon="2.15893">
        <ele>131</ele>
        <time>2019-10-28T10:30:22.000Z</time>
      </trkpt>
      <trkpt lat="48.63088" lon="2.15895">
        <ele>132</ele>
        <time>2019-10-28T10:30:23.000Z</time>
      </trkpt>
      <trkpt lat="48.63086" lon="2.15896">
        <ele>131</ele>
        <time>2019-10-28T10:30:24.000Z</time>
      </trkpt>
      <trkpt lat="48.63085" lon="2.15897">
        <ele>131</ele>
        <time>2019-10-28T10:30:25.000Z</time>
      </trkpt>
      <trkpt lat="48.63084" lon="2.15899">
        <ele>131</ele>
        <time>2019-10-28T10:30:26.000Z</time>
      </trkpt>
      <trkpt lat="48.63083" lon="2.159">
        <ele>131</ele>
        <time>2019-10-28T10:30:27.000Z</time>
      </trkpt>
      <trkpt lat="48.63082" lon="2.15901">
        <ele>131</ele>
        <time>2019-10-28T10:30:28.000Z</time>
      </trkpt>
      <trkpt lat="48.63081" lon="2.15903">
        <ele>131</ele>
        <time>2019-10-28T10:30:29.000Z</time>
      </trkpt>
      <trkpt lat="48.6308" lon="2.15904">
        <ele>131</ele>
        <time>2019-10-28T10:30:30.000Z</time>
      </trkpt>
      <trkpt lat="48.63079" lon="2.15905">
        <ele>131</ele>
        <time>2019-10-28T10:30:31.000Z</time>
      </trkpt>
      <trkpt lat="48.63078" lon="2.15907">
        <ele>131</ele>
        <time>2019-10-28T10:30:32.000Z</time>
      </trkpt>
      <trkpt lat="48.63077" lon="2.15908">
        <ele>131</ele>
        <time>2019-10-28T10:30:33.000Z</time>
      </trkpt>
      <trkpt lat="48.63076" lon="2.15909">
        <ele>131</ele>
        <time>2019-10-28T10:30:34.000Z</time>
      </trkpt>
      <trkpt lat="48.63075" lon="2.1591">
        <ele>131</ele>
        <time>2019-10-28T10:30:35.000Z</time>
      </trkpt>
      <trkpt lat="48.63074" lon="2.15912">
        <ele>131</ele>
        <time>2019-10-28T10:30:36.000Z</time>
      </trkpt>
      <trkpt lat="48.63073" lon="2.15913">
        <ele>131</ele>
        <time>2019-10-28T10:30:37.000Z</time>
      </trkpt>
      <trkpt lat="48.63072" lon="2.15914">
        <ele>131</ele>
        <time>2019-10-28T10:30:38.000Z</time>
      </trkpt>
      <trkpt lat="48.63071" lon="2.15916">
        <ele>131</ele>
        <time>2019-10-28T10:30:39.000Z</time>
      </trkpt>
      <trkpt lat="48.6307" lon="2.15917">
        <ele>131</ele>
        <time>2019-10-28T10:30:40.000Z</time>
      </trkpt>
      <trkpt lat="48.63069" lon="2.15918">
        <ele>131</ele>
        <time>2019-10-28T10:30:41.000Z</time>
      </trkpt>
      <trkpt lat="48.63068" lon="2.1592">
        <ele>131</ele>
        <time>2019-10-28T10:30:42.000Z</time>
      </trkpt>
      <trkpt lat="48.63067" lon="2.15921">
        <ele>131</ele>
        <time>2019-10-28T10:30:43.000Z</time>
      </trkpt>
      <trkpt lat="48.63065" lon="2.15922">
        <ele>131</ele>
        <time>2019-10-28T10:30:44.000Z</time>
      </trkpt>
      <trkpt lat="48.63064" lon="2.15924">
        <ele>131</ele>
        <time>2019-10-28T10:30:45.000Z</time>
      </trkpt>
      <trkpt lat="48.63063" lon="2.15925">
        <ele>131</ele>
        <time>2019-10-28T10:30:46.000Z</time>
      </trkpt>
      <trkpt lat="48.63062" lon="2.15926">
        <ele>131</ele>
        <time>2019-10-28T10:30:47.000Z</time>
      </trkpt>
      <trkpt lat="48.63061" lon="2.15928">
        <ele>131</ele>
        <time>2019-10-28T10:30:48.000Z</time>
      </trkpt>
      <trkpt lat="48.6306" lon="2.15929">
        <ele>131</ele>
        <time>2019-10-28T10:30:49.000Z</time>
      </trkpt>
      <trkpt lat="48.63059" lon="2.1593">
        <ele>131</ele>
        <time>2019-10-28T10:30:50.000Z</time>
      </trkpt>
      <trkpt lat="48.63058" lon="2.15931">
        <ele>131</ele>
        <time>2019-10-28T10:30:51.000Z</time>
      </trkpt>
      <trkpt lat="48.63057" lon="2.15932">
        <ele>131</ele>
        <time>2019-10-28T10:30:52.000Z</time>
      </trkpt>
      <trkpt lat="48.63056" lon="2.15934">
        <ele>131</ele>
        <time>2019-10-28T10:30:53.000Z</time>
      </trkpt>
      <trkpt lat="48.63055" lon="2.15935">
        <ele>131</ele>
        <time>2019-10-28T10:30:54.000Z</time>
      </trkpt>
      <trkpt lat="48.63054" lon="2.15936">
        <ele>131</ele>
        <time>2019-10-28T10:30:55.000Z</time>
      </trkpt>
      <trkpt lat="48.63053" lon="2.15937">
        <ele>131</ele>
        <time>2019-10-28T10:30:56.000Z</time>
      </trkpt>
      <trkpt lat="48.63052" lon="2.15938">
        <ele>131</ele>
        <time>2019-10-28T10:30:57.000Z</time>
      </trkpt>
      <trkpt lat="48.63051" lon="2.1594">
        <ele>131</ele>
        <time>2019-10-28T10:30:58.000Z</time>
      </trkpt>
      <trkpt lat="48.6305" lon="2.15941">
        <ele>131</ele>
        <time>2019-10-28T10:30:59.000Z</time>
      </trkpt>
      <trkpt lat="48.63049" lon="2.15942">
        <ele>131</ele>
        <time>2019-10-28T10:31:00.000Z</time>
      </trkpt>
      <trkpt lat="48.63048" lon="2.15943">
        <ele>131</ele>
        <time>2019-10-28T10:31:01.000Z</time>
      </trkpt>
      <trkpt lat="48.63047" lon="2.15945">
        <ele>131</ele>
        <time>2019-10-28T10:31:02.000Z</time>
      </trkpt>
      <trkpt lat="48.63046" lon="2.15946">
        <ele>131</ele>
        <time>2019-10-28T10:31:03.000Z</time>
      </trkpt>
      <trkpt lat="48.63045" lon="2.15947">
        <ele>131</ele>
        <time>2019-10-28T10:31:04.000Z</time>
      </trkpt>
      <trkpt lat="48.63044" lon="2.15949">
        <ele>131</ele>
        <time>2019-10-28T10:31:05.000Z</time>
      </trkpt>
      <trkpt lat="48.63043" lon="2.1595">
        <ele>131</ele>
        <time>2019-10-28T10:31:06.000Z</time>
      </trkpt>
      <trkpt lat="48.63042" lon="2.15952">
        <ele>131</ele>
        <time>2019-10-28T10:31:07.000Z</time>
      </trkpt>
      <trkpt lat="48.63041" lon="2.15953">
        <ele>131</ele>
        <time>2019-10-28T10:31:08.000Z</time>
      </trkpt>
      <trkpt lat="48.6304" lon="2.15955">
        <ele>130</ele>
        <time>2019-10-28T10:31:09.000Z</time>
      </trkpt>
      <trkpt lat="48.63039" lon="2.15956">
        <ele>130</ele>
        <time>2019-10-28T10:31:10.000Z</time>
      </trkpt>
      <trkpt lat="48.63038" lon="2.15957">
        <ele>130</ele>
        <time>2019-10-28T10:31:11.000Z</time>
      </trkpt>
      <trkpt lat="48.63037" lon="2.15958">
        <ele>130</ele>
        <time>2019-10-28T10:31:12.000Z</time>
      </trkpt>
      <trkpt lat="48.63036" lon="2.1596">
        <ele>130</ele>
        <time>2019-10-28T10:31:13.000Z</time>
      </trkpt>
      <trkpt lat="48.63035" lon="2.15961">
        <ele>130</ele>
        <time>2019-10-28T10:31:14.000Z</time>
      </trkpt>
      <trkpt lat="48.63033" lon="2.15962">
        <ele>130</ele>
        <time>2019-10-28T10:31:15.000Z</time>
      </trkpt>
      <trkpt lat="48.63032" lon="2.15963">
        <ele>129</ele>
        <time>2019-10-28T10:31:16.000Z</time>
      </trkpt>
      <trkpt lat="48.63031" lon="2.15965">
        <ele>129</ele>
        <time>2019-10-28T10:31:17.000Z</time>
      </trkpt>
      <trkpt lat="48.6303" lon="2.15966">
        <ele>129</ele>
        <time>2019-10-28T10:31:18.000Z</time>
      </trkpt>
      <trkpt lat="48.63029" lon="2.15967">
        <ele>129</ele>
        <time>2019-10-28T10:31:19.000Z</time>
      </trkpt>
      <trkpt lat="48.63028" lon="2.15968">
        <ele>129</ele>
        <time>2019-10-28T10:31:20.000Z</time>
      </trkpt>
      <trkpt lat="48.63027" lon="2.15969">
        <ele>129</ele>
        <time>2019-10-28T10:31:21.000Z</time>
      </trkpt>
      <trkpt lat="48.63026" lon="2.1597">
        <ele>128</ele>
        <time>2019-10-28T10:31:22.000Z</time>
      </trkpt>
      <trkpt lat="48.63025" lon="2.15971">
        <ele>129</ele>
        <time>2019-10-28T10:31:23.000Z</time>
      </trkpt>
      <trkpt lat="48.63024" lon="2.15973">
        <ele>128</ele>
        <time>2019-10-28T10:31:24.000Z</time>
      </trkpt>
      <trkpt lat="48.63022" lon="2.15974">
        <ele>128</ele>
        <time>2019-10-28T10:31:25.000Z</time>
      </trkpt>
      <trkpt lat="48.63021" lon="2.15975">
        <ele>129</ele>
        <time>2019-10-28T10:31:26.000Z</time>
      </trkpt>
      <trkpt lat="48.6302" lon="2.15977">
        <ele>129</ele>
        <time>2019-10-28T10:31:27.000Z</time>
      </trkpt>
      <trkpt lat="48.63019" lon="2.15978">
        <ele>129</ele>
        <time>2019-10-28T10:31:28.000Z</time>
      </trkpt>
      <trkpt lat="48.63018" lon="2.15979">
        <ele>128</ele>
        <time>2019-10-28T10:31:29.000Z</time>
      </trkpt>
      <trkpt lat="48.63017" lon="2.15981">
        <ele>128</ele>
        <time>2019-10-28T10:31:30.000Z</time>
      </trkpt>
      <trkpt lat="48.63016" lon="2.15982">
        <ele>128</ele>
        <time>2019-10-28T10:31:31.000Z</time>
      </trkpt>
      <trkpt lat="48.63015" lon="2.15983">
        <ele>128</ele>
        <time>2019-10-28T10:31:32.000Z</time>
      </trkpt>
      <trkpt lat="48.63013" lon="2.15985">
        <ele>128</ele>
        <time>2019-10-28T10:31:33.000Z</time>
      </trkpt>
      <trkpt lat="48.63012" lon="2.15986">
        <ele>128</ele>
        <time>2019-10-28T10:31:34.000Z</time>
      </trkpt>
      <trkpt lat="48.63011" lon="2.15988">
        <ele>128</ele>
        <time>2019-10-28T10:31:35.000Z</time>
      </trkpt>
      <trkpt lat="48.6301" lon="2.15989">
        <ele>128</ele>
        <time>2019-10-28T10:31:36.000Z</time>
      </trkpt>
      <trkpt lat="48.63009" lon="2.15991">
        <ele>128</ele>
        <time>2019-10-28T10:31:37.000Z</time>
      </trkpt>
      <trkpt lat="48.63008" lon="2.15992">
        <ele>128</ele>
        <time>2019-10-28T10:31:38.000Z</time>
      </trkpt>
      <trkpt lat="48.63007" lon="2.15994">
        <ele>128</ele>
        <time>2019-10-28T10:31:39.000Z</time>
      </trkpt>
      <trkpt lat="48.63006" lon="2.15995">
        <ele>128</ele>
        <time>2019-10-28T10:31:40.000Z</time>
      </trkpt>
      <trkpt lat="48.63005" lon="2.15996">
        <ele>128</ele>
        <time>2019-10-28T10:31:41.000Z</time>
      </trkpt>
      <trkpt lat="48.63004" lon="2.15998">
        <ele>128</ele>
        <time>2019-10-28T10:31:42.000Z</time>
      </trkpt>
      <trkpt lat="48.63003" lon="2.15999">
        <ele>128</ele>
        <time>2019-10-28T10:31:43.000Z</time>
      </trkpt>
      <trkpt lat="48.63002" lon="2.16">
        <ele>128</ele>
        <time>2019-10-28T10:31:44.000Z</time>
      </trkpt>
      <trkpt lat="48.63001" lon="2.16001">
        <ele>128</ele>
        <time>2019-10-28T10:31:45.000Z</time>
      </trkpt>
      <trkpt lat="48.62999" lon="2.16002">
        <ele>128</ele>
        <time>2019-10-28T10:31:46.000Z</time>
      </trkpt>
      <trkpt lat="48.62998" lon="2.16003">
        <ele>128</ele>
        <time>2019-10-28T10:31:47.000Z</time>
      </trkpt>
      <trkpt lat="48.62997" lon="2.16004">
        <ele>128</ele>
        <time>2019-10-28T10:31:48.000Z</time>
      </trkpt>
      <trkpt lat="48.62997" lon="2.16005">
        <ele>128</ele>
        <time>2019-10-28T10:31:49.000Z</time>
      </trkpt>
      <trkpt lat="48.62997" lon="2.16005">
        <ele>128</ele>
        <time>2019-10-28T10:31:50.000Z</time>
      </trkpt>
      <trkpt lat="48.62996" lon="2.16006">
        <ele>128</ele>
        <time>2019-10-28T10:31:51.000Z</time>
      </trkpt>
      <trkpt lat="48.62995" lon="2.16007">
        <ele>128</ele>
        <time>2019-10-28T10:31:52.000Z</time>
      </trkpt>
      <trkpt lat="48.62994" lon="2.16008">
        <ele>128</ele>
        <time>2019-10-28T10:31:53.000Z</time>
      </trkpt>
      <trkpt lat="48.62993" lon="2.16009">
        <ele>128</ele>
        <time>2019-10-28T10:31:54.000Z</time>
      </trkpt>
      <trkpt lat="48.62992" lon="2.1601">
        <ele>128</ele>
        <time>2019-10-28T10:31:55.000Z</time>
      </trkpt>
      <trkpt lat="48.62991" lon="2.16011">
        <ele>127</ele>
        <time>2019-10-28T10:31:56.000Z</time>
      </trkpt>
      <trkpt lat="48.6299" lon="2.16012">
        <ele>127</ele>
        <time>2019-10-28T10:31:57.000Z</time>
      </trkpt>
      <trkpt lat="48.62989" lon="2.16014">
        <ele>127</ele>
        <time>2019-10-28T10:31:58.000Z</time>
      </trkpt>
      <trkpt lat="48.62988" lon="2.16015">
        <ele>127</ele>
        <time>2019-10-28T10:31:59.000Z</time>
      </trkpt>
      <trkpt lat="48.62986" lon="2.16016">
        <ele>127</ele>
        <time>2019-10-28T10:32:00.000Z</time>
      </trkpt>
      <trkpt lat="48.62985" lon="2.16017">
        <ele>127</ele>
        <time>2019-10-28T10:32:01.000Z</time>
      </trkpt>
      <trkpt lat="48.62984" lon="2.16019">
        <ele>127</ele>
        <time>2019-10-28T10:32:02.000Z</time>
      </trkpt>
      <trkpt lat="48.62983" lon="2.1602">
        <ele>127</ele>
        <time>2019-10-28T10:32:03.000Z</time>
      </trkpt>
      <trkpt lat="48.62981" lon="2.16021">
        <ele>127</ele>
        <time>2019-10-28T10:32:04.000Z</time>
      </trkpt>
      <trkpt lat="48.6298" lon="2.16022">
        <ele>126</ele>
        <time>2019-10-28T10:32:05.000Z</time>
      </trkpt>
      <trkpt lat="48.62979" lon="2.16023">
        <ele>126</ele>
        <time>2019-10-28T10:32:06.000Z</time>
      </trkpt>
      <trkpt lat="48.62978" lon="2.16024">
        <ele>126</ele>
        <time>2019-10-28T10:32:07.000Z</time>
      </trkpt>
      <trkpt lat="48.62976" lon="2.16024">
        <ele>126</ele>
        <time>2019-10-28T10:32:08.000Z</time>
      </trkpt>
      <trkpt lat="48.62975" lon="2.16025">
        <ele>126</ele>
        <time>2019-10-28T10:32:09.000Z</time>
      </trkpt>
      <trkpt lat="48.62974" lon="2.16026">
        <ele>126</ele>
        <time>2019-10-28T10:32:10.000Z</time>
      </trkpt>
      <trkpt lat="48.62973" lon="2.16027">
        <ele>126</ele>
        <time>2019-10-28T10:32:11.000Z</time>
      </trkpt>
      <trkpt lat="48.62972" lon="2.16028">
        <ele>126</ele>
        <time>2019-10-28T10:32:12.000Z</time>
      </trkpt>
      <trkpt lat="48.6297" lon="2.16029">
        <ele>126</ele>
        <time>2019-10-28T10:32:13.000Z</time>
      </trkpt>
      <trkpt lat="48.62969" lon="2.16029">
        <ele>126</ele>
        <time>2019-10-28T10:32:14.000Z</time>
      </trkpt>
      <trkpt lat="48.62968" lon="2.1603">
        <ele>126</ele>
        <time>2019-10-28T10:32:15.000Z</time>
      </trkpt>
      <trkpt lat="48.62967" lon="2.16031">
        <ele>126</ele>
        <time>2019-10-28T10:32:16.000Z</time>
      </trkpt>
      <trkpt lat="48.62966" lon="2.16032">
        <ele>126</ele>
        <time>2019-10-28T10:32:17.000Z</time>
      </trkpt>
      <trkpt lat="48.62964" lon="2.16034">
        <ele>126</ele>
        <time>2019-10-28T10:32:18.000Z</time>
      </trkpt>
      <trkpt lat="48.62963" lon="2.16035">
        <ele>126</ele>
        <time>2019-10-28T10:32:19.000Z</time>
      </trkpt>
      <trkpt lat="48.62962" lon="2.16036">
        <ele>126</ele>
        <time>2019-10-28T10:32:20.000Z</time>
      </trkpt>
      <trkpt lat="48.62961" lon="2.16037">
        <ele>126</ele>
        <time>2019-10-28T10:32:21.000Z</time>
      </trkpt>
      <trkpt lat="48.62959" lon="2.16038">
        <ele>126</ele>
        <time>2019-10-28T10:32:22.000Z</time>
      </trkpt>
      <trkpt lat="48.62958" lon="2.16039">
        <ele>125</ele>
        <time>2019-10-28T10:32:23.000Z</time>
      </trkpt>
      <trkpt lat="48.62956" lon="2.1604">
        <ele>125</ele>
        <time>2019-10-28T10:32:24.000Z</time>
      </trkpt>
      <trkpt lat="48.62955" lon="2.16041">
        <ele>126</ele>
        <time>2019-10-28T10:32:25.000Z</time>
      </trkpt>
      <trkpt lat="48.62954" lon="2.16042">
        <ele>126</ele>
        <time>2019-10-28T10:32:26.000Z</time>
      </trkpt>
      <trkpt lat="48.62952" lon="2.16043">
        <ele>126</ele>
        <time>2019-10-28T10:32:27.000Z</time>
      </trkpt>
      <trkpt lat="48.62951" lon="2.16044">
        <ele>126</ele>
        <time>2019-10-28T10:32:28.000Z</time>
      </trkpt>
      <trkpt lat="48.6295" lon="2.16045">
        <ele>126</ele>
        <time>2019-10-28T10:32:29.000Z</time>
      </trkpt>
      <trkpt lat="48.62948" lon="2.16046">
        <ele>126</ele>
        <time>2019-10-28T10:32:30.000Z</time>
      </trkpt>
      <trkpt lat="48.62947" lon="2.16047">
        <ele>126</ele>
        <time>2019-10-28T10:32:31.000Z</time>
      </trkpt>
      <trkpt lat="48.62946" lon="2.16048">
        <ele>126</ele>
        <time>2019-10-28T10:32:32.000Z</time>
      </trkpt>
      <trkpt lat="48.62944" lon="2.16049">
        <ele>126</ele>
        <time>2019-10-28T10:32:33.000Z</time>
      </trkpt>
      <trkpt lat="48.62943" lon="2.1605">
        <ele>125</ele>
        <time>2019-10-28T10:32:34.000Z</time>
      </trkpt>
      <trkpt lat="48.62942" lon="2.16051">
        <ele>125</ele>
        <time>2019-10-28T10:32:35.000Z</time>
      </trkpt>
      <trkpt lat="48.6294" lon="2.16052">
        <ele>125</ele>
        <time>2019-10-28T10:32:36.000Z</time>
      </trkpt>
      <trkpt lat="48.62939" lon="2.16054">
        <ele>125</ele>
        <time>2019-10-28T10:32:37.000Z</time>
      </trkpt>
      <trkpt lat="48.62938" lon="2.16055">
        <ele>125</ele>
        <time>2019-10-28T10:32:38.000Z</time>
      </trkpt>
      <trkpt lat="48.62936" lon="2.16056">
        <ele>125</ele>
        <time>2019-10-28T10:32:39.000Z</time>
      </trkpt>
      <trkpt lat="48.62935" lon="2.16057">
        <ele>125</ele>
        <time>2019-10-28T10:32:40.000Z</time>
      </trkpt>
      <trkpt lat="48.62934" lon="2.16058">
        <ele>125</ele>
        <time>2019-10-28T10:32:41.000Z</time>
      </trkpt>
      <trkpt lat="48.62932" lon="2.16059">
        <ele>125</ele>
        <time>2019-10-28T10:32:42.000Z</time>
      </trkpt>
      <trkpt lat="48.62931" lon="2.1606">
        <ele>125</ele>
        <time>2019-10-28T10:32:43.000Z</time>
      </trkpt>
      <trkpt lat="48.62929" lon="2.16061">
        <ele>125</ele>
        <time>2019-10-28T10:32:44.000Z</time>
      </trkpt>
      <trkpt lat="48.62928" lon="2.16062">
        <ele>125</ele>
        <time>2019-10-28T10:32:45.000Z</time>
      </trkpt>
      <trkpt lat="48.62927" lon="2.16063">
        <ele>125</ele>
        <time>2019-10-28T10:32:46.000Z</time>
      </trkpt>
      <trkpt lat="48.62925" lon="2.16064">
        <ele>125</ele>
        <time>2019-10-28T10:32:47.000Z</time>
      </trkpt>
      <trkpt lat="48.62924" lon="2.16065">
        <ele>125</ele>
        <time>2019-10-28T10:32:48.000Z</time>
      </trkpt>
      <trkpt lat="48.62923" lon="2.16066">
        <ele>125</ele>
        <time>2019-10-28T10:32:49.000Z</time>
      </trkpt>
      <trkpt lat="48.62921" lon="2.16067">
        <ele>125</ele>
        <time>2019-10-28T10:32:50.000Z</time>
      </trkpt>
      <trkpt lat="48.6292" lon="2.16068">
        <ele>124</ele>
        <time>2019-10-28T10:32:51.000Z</time>
      </trkpt>
      <trkpt lat="48.62919" lon="2.16068">
        <ele>124</ele>
        <time>2019-10-28T10:32:52.000Z</time>
      </trkpt>
      <trkpt lat="48.62918" lon="2.16069">
        <ele>124</ele>
        <time>2019-10-28T10:32:53.000Z</time>
      </trkpt>
      <trkpt lat="48.62917" lon="2.16069">
        <ele>124</ele>
        <time>2019-10-28T10:32:54.000Z</time>
      </trkpt>
      <trkpt lat="48.62916" lon="2.16069">
        <ele>124</ele>
        <time>2019-10-28T10:32:55.000Z</time>
      </trkpt>
      <trkpt lat="48.62914" lon="2.1607">
        <ele>124</ele>
        <time>2019-10-28T10:32:56.000Z</time>
      </trkpt>
      <trkpt lat="48.62913" lon="2.16071">
        <ele>124</ele>
        <time>2019-10-28T10:32:57.000Z</time>
      </trkpt>
      <trkpt lat="48.62912" lon="2.16072">
        <ele>124</ele>
        <time>2019-10-28T10:32:58.000Z</time>
      </trkpt>
      <trkpt lat="48.62911" lon="2.16073">
        <ele>124</ele>
        <time>2019-10-28T10:32:59.000Z</time>
      </trkpt>
      <trkpt lat="48.62909" lon="2.16074">
        <ele>124</ele>
        <time>2019-10-28T10:33:00.000Z</time>
      </trkpt>
      <trkpt lat="48.62908" lon="2.16075">
        <ele>124</ele>
        <time>2019-10-28T10:33:01.000Z</time>
      </trkpt>
      <trkpt lat="48.62907" lon="2.16077">
        <ele>124</ele>
        <time>2019-10-28T10:33:02.000Z</time>
      </trkpt>
      <trkpt lat="48.62905" lon="2.16078">
        <ele>124</ele>
        <time>2019-10-28T10:33:03.000Z</time>
      </trkpt>
      <trkpt lat="48.62904" lon="2.1608">
        <ele>124</ele>
        <time>2019-10-28T10:33:04.000Z</time>
      </trkpt>
      <trkpt lat="48.62903" lon="2.16081">
        <ele>124</ele>
        <time>2019-10-28T10:33:05.000Z</time>
      </trkpt>
      <trkpt lat="48.62902" lon="2.16083">
        <ele>124</ele>
        <time>2019-10-28T10:33:06.000Z</time>
      </trkpt>
      <trkpt lat="48.62901" lon="2.16084">
        <ele>124</ele>
        <time>2019-10-28T10:33:07.000Z</time>
      </trkpt>
      <trkpt lat="48.629" lon="2.16086">
        <ele>124</ele>
        <time>2019-10-28T10:33:08.000Z</time>
      </trkpt>
      <trkpt lat="48.62898" lon="2.16087">
        <ele>124</ele>
        <time>2019-10-28T10:33:09.000Z</time>
      </trkpt>
      <trkpt lat="48.62897" lon="2.16088">
        <ele>124</ele>
        <time>2019-10-28T10:33:10.000Z</time>
      </trkpt>
      <trkpt lat="48.62896" lon="2.16089">
        <ele>124</ele>
        <time>2019-10-28T10:33:11.000Z</time>
      </trkpt>
      <trkpt lat="48.62894" lon="2.16091">
        <ele>124</ele>
        <time>2019-10-28T10:33:12.000Z</time>
      </trkpt>
      <trkpt lat="48.62893" lon="2.16092">
        <ele>124</ele>
        <time>2019-10-28T10:33:13.000Z</time>
      </trkpt>
      <trkpt lat="48.62892" lon="2.16092">
        <ele>124</ele>
        <time>2019-10-28T10:33:14.000Z</time>
      </trkpt>
      <trkpt lat="48.6289" lon="2.16093">
        <ele>124</ele>
        <time>2019-10-28T10:33:15.000Z</time>
      </trkpt>
      <trkpt lat="48.62889" lon="2.16093">
        <ele>124</ele>
        <time>2019-10-28T10:33:16.000Z</time>
      </trkpt>
      <trkpt lat="48.62887" lon="2.16094">
        <ele>124</ele>
        <time>2019-10-28T10:33:17.000Z</time>
      </trkpt>
      <trkpt lat="48.62886" lon="2.16094">
        <ele>124</ele>
        <time>2019-10-28T10:33:18.000Z</time>
      </trkpt>
      <trkpt lat="48.62885" lon="2.16094">
        <ele>124</ele>
        <time>2019-10-28T10:33:19.000Z</time>
      </trkpt>
      <trkpt lat="48.62883" lon="2.16094">
        <ele>124</ele>
        <time>2019-10-28T10:33:20.000Z</time>
      </trkpt>
      <trkpt lat="48.62882" lon="2.16095">
        <ele>124</ele>
        <time>2019-10-28T10:33:21.000Z</time>
      </trkpt>
      <trkpt lat="48.6288" lon="2.16095">
        <ele>124</ele>
        <time>2019-10-28T10:33:22.000Z</time>
      </trkpt>
      <trkpt lat="48.62879" lon="2.16096">
        <ele>124</ele>
        <time>2019-10-28T10:33:23.000Z</time>
      </trkpt>
      <trkpt lat="48.62878" lon="2.16097">
        <ele>124</ele>
        <time>2019-10-28T10:33:24.000Z</time>
      </trkpt>
      <trkpt lat="48.62876" lon="2.16098">
        <ele>124</ele>
        <time>2019-10-28T10:33:25.000Z</time>
      </trkpt>
      <trkpt lat="48.62875" lon="2.16098">
        <ele>124</ele>
        <time>2019-10-28T10:33:26.000Z</time>
      </trkpt>
      <trkpt lat="48.62874" lon="2.16099">
        <ele>124</ele>
        <time>2019-10-28T10:33:27.000Z</time>
      </trkpt>
      <trkpt lat="48.62873" lon="2.161">
        <ele>124</ele>
        <time>2019-10-28T10:33:28.000Z</time>
      </trkpt>
      <trkpt lat="48.62871" lon="2.16101">
        <ele>124</ele>
        <time>2019-10-28T10:33:29.000Z</time>
      </trkpt>
      <trkpt lat="48.6287" lon="2.16102">
        <ele>123</ele>
        <time>2019-10-28T10:33:30.000Z</time>
      </trkpt>
      <trkpt lat="48.62869" lon="2.16103">
        <ele>123</ele>
        <time>2019-10-28T10:33:31.000Z</time>
      </trkpt>
      <trkpt lat="48.62868" lon="2.16104">
        <ele>123</ele>
        <time>2019-10-28T10:33:32.000Z</time>
      </trkpt>
      <trkpt lat="48.62866" lon="2.16105">
        <ele>123</ele>
        <time>2019-10-28T10:33:33.000Z</time>
      </trkpt>
      <trkpt lat="48.62865" lon="2.16106">
        <ele>123</ele>
        <time>2019-10-28T10:33:34.000Z</time>
      </trkpt>
      <trkpt lat="48.62864" lon="2.16107">
        <ele>122</ele>
        <time>2019-10-28T10:33:35.000Z</time>
      </trkpt>
      <trkpt lat="48.62863" lon="2.16108">
        <ele>122</ele>
        <time>2019-10-28T10:33:36.000Z</time>
      </trkpt>
      <trkpt lat="48.62861" lon="2.1611">
        <ele>121</ele>
        <time>2019-10-28T10:33:37.000Z</time>
      </trkpt>
      <trkpt lat="48.6286" lon="2.16111">
        <ele>121</ele>
        <time>2019-10-28T10:33:38.000Z</time>
      </trkpt>
      <trkpt lat="48.62859" lon="2.16112">
        <ele>121</ele>
        <time>2019-10-28T10:33:39.000Z</time>
      </trkpt>
      <trkpt lat="48.62858" lon="2.16114">
        <ele>121</ele>
        <time>2019-10-28T10:33:40.000Z</time>
      </trkpt>
      <trkpt lat="48.62857" lon="2.16115">
        <ele>120</ele>
        <time>2019-10-28T10:33:41.000Z</time>
      </trkpt>
      <trkpt lat="48.62856" lon="2.16116">
        <ele>120</ele>
        <time>2019-10-28T10:33:42.000Z</time>
      </trkpt>
      <trkpt lat="48.62855" lon="2.16117">
        <ele>120</ele>
        <time>2019-10-28T10:33:43.000Z</time>
      </trkpt>
      <trkpt lat="48.62854" lon="2.16118">
        <ele>120</ele>
        <time>2019-10-28T10:33:44.000Z</time>
      </trkpt>
      <trkpt lat="48.62852" lon="2.16119">
        <ele>121</ele>
        <time>2019-10-28T10:33:45.000Z</time>
      </trkpt>
      <trkpt lat="48.62851" lon="2.1612">
        <ele>121</ele>
        <time>2019-10-28T10:33:46.000Z</time>
      </trkpt>
      <trkpt lat="48.6285" lon="2.16121">
        <ele>121</ele>
        <time>2019-10-28T10:33:47.000Z</time>
      </trkpt>
      <trkpt lat="48.62849" lon="2.16121">
        <ele>120</ele>
        <time>2019-10-28T10:33:48.000Z</time>
      </trkpt>
      <trkpt lat="48.62847" lon="2.16122">
        <ele>120</ele>
        <time>2019-10-28T10:33:49.000Z</time>
      </trkpt>
      <trkpt lat="48.62846" lon="2.16122">
        <ele>120</ele>
        <time>2019-10-28T10:33:50.000Z</time>
      </trkpt>
      <trkpt lat="48.62845" lon="2.16123">
        <ele>121</ele>
        <time>2019-10-28T10:33:51.000Z</time>
      </trkpt>
      <trkpt lat="48.62843" lon="2.16124">
        <ele>121</ele>
        <time>2019-10-28T10:33:52.000Z</time>
      </trkpt>
      <trkpt lat="48.62842" lon="2.16126">
        <ele>121</ele>
        <time>2019-10-28T10:33:53.000Z</time>
      </trkpt>
      <trkpt lat="48.6284" lon="2.16127">
        <ele>120</ele>
        <time>2019-10-28T10:33:54.000Z</time>
      </trkpt>
      <trkpt lat="48.62838" lon="2.16128">
        <ele>120</ele>
        <time>2019-10-28T10:33:55.000Z</time>
      </trkpt>
      <trkpt lat="48.62837" lon="2.16129">
        <ele>121</ele>
        <time>2019-10-28T10:33:56.000Z</time>
      </trkpt>
      <trkpt lat="48.62835" lon="2.1613">
        <ele>121</ele>
        <time>2019-10-28T10:33:57.000Z</time>
      </trkpt>
      <trkpt lat="48.62834" lon="2.16131">
        <ele>121</ele>
        <time>2019-10-28T10:33:58.000Z</time>
      </trkpt>
      <trkpt lat="48.62832" lon="2.16131">
        <ele>121</ele>
        <time>2019-10-28T10:33:59.000Z</time>
      </trkpt>
      <trkpt lat="48.62831" lon="2.16132">
        <ele>121</ele>
        <time>2019-10-28T10:34:00.000Z</time>
      </trkpt>
      <trkpt lat="48.6283" lon="2.16133">
        <ele>121</ele>
        <time>2019-10-28T10:34:01.000Z</time>
      </trkpt>
      <trkpt lat="48.62829" lon="2.16134">
        <ele>121</ele>
        <time>2019-10-28T10:34:02.000Z</time>
      </trkpt>
      <trkpt lat="48.62828" lon="2.16134">
        <ele>120</ele>
        <time>2019-10-28T10:34:03.000Z</time>
      </trkpt>
      <trkpt lat="48.62827" lon="2.16135">
        <ele>120</ele>
        <time>2019-10-28T10:34:04.000Z</time>
      </trkpt>
      <trkpt lat="48.62825" lon="2.16136">
        <ele>120</ele>
        <time>2019-10-28T10:34:05.000Z</time>
      </trkpt>
      <trkpt lat="48.62824" lon="2.16137">
        <ele>119</ele>
        <time>2019-10-28T10:34:06.000Z</time>
      </trkpt>
      <trkpt lat="48.62822" lon="2.16139">
        <ele>120</ele>
        <time>2019-10-28T10:34:07.000Z</time>
      </trkpt>
      <trkpt lat="48.62821" lon="2.1614">
        <ele>120</ele>
        <time>2019-10-28T10:34:08.000Z</time>
      </trkpt>
      <trkpt lat="48.62819" lon="2.16141">
        <ele>120</ele>
        <time>2019-10-28T10:34:09.000Z</time>
      </trkpt>
      <trkpt lat="48.62818" lon="2.16143">
        <ele>121</ele>
        <time>2019-10-28T10:34:10.000Z</time>
      </trkpt>
      <trkpt lat="48.62816" lon="2.16144">
        <ele>121</ele>
        <time>2019-10-28T10:34:11.000Z</time>
      </trkpt>
      <trkpt lat="48.62814" lon="2.16145">
        <ele>121</ele>
        <time>2019-10-28T10:34:12.000Z</time>
      </trkpt>
      <trkpt lat="48.62813" lon="2.16147">
        <ele>121</ele>
        <time>2019-10-28T10:34:13.000Z</time>
      </trkpt>
      <trkpt lat="48.62811" lon="2.16148">
        <ele>121</ele>
        <time>2019-10-28T10:34:14.000Z</time>
      </trkpt>
      <trkpt lat="48.62809" lon="2.16149">
        <ele>121</ele>
        <time>2019-10-28T10:34:15.000Z</time>
      </trkpt>
      <trkpt lat="48.62808" lon="2.1615">
        <ele>121</ele>
        <time>2019-10-28T10:34:16.000Z</time>
      </trkpt>
      <trkpt lat="48.62806" lon="2.16151">
        <ele>121</ele>
        <time>2019-10-28T10:34:17.000Z</time>
      </trkpt>
      <trkpt lat="48.62805" lon="2.16152">
        <ele>122</ele>
        <time>2019-10-28T10:34:18.000Z</time>
      </trkpt>
      <trkpt lat="48.62803" lon="2.16153">
        <ele>122</ele>
        <time>2019-10-28T10:34:19.000Z</time>
      </trkpt>
      <trkpt lat="48.62802" lon="2.16154">
        <ele>122</ele>
        <time>2019-10-28T10:34:20.000Z</time>
      </trkpt>
      <trkpt lat="48.628" lon="2.16155">
        <ele>122</ele>
        <time>2019-10-28T10:34:21.000Z</time>
      </trkpt>
      <trkpt lat="48.62799" lon="2.16156">
        <ele>122</ele>
        <time>2019-10-28T10:34:22.000Z</time>
      </trkpt>
      <trkpt lat="48.62797" lon="2.16157">
        <ele>123</ele>
        <time>2019-10-28T10:34:23.000Z</time>
      </trkpt>
      <trkpt lat="48.62796" lon="2.16158">
        <ele>122</ele>
        <time>2019-10-28T10:34:24.000Z</time>
      </trkpt>
      <trkpt lat="48.62794" lon="2.16159">
        <ele>122</ele>
        <time>2019-10-28T10:34:25.000Z</time>
      </trkpt>
      <trkpt lat="48.62793" lon="2.1616">
        <ele>122</ele>
        <time>2019-10-28T10:34:26.000Z</time>
      </trkpt>
      <trkpt lat="48.62792" lon="2.1616">
        <ele>122</ele>
        <time>2019-10-28T10:34:27.000Z</time>
      </trkpt>
      <trkpt lat="48.6279" lon="2.16161">
        <ele>122</ele>
        <time>2019-10-28T10:34:28.000Z</time>
      </trkpt>
      <trkpt lat="48.62789" lon="2.16162">
        <ele>123</ele>
        <time>2019-10-28T10:34:29.000Z</time>
      </trkpt>
      <trkpt lat="48.62787" lon="2.16163">
        <ele>123</ele>
        <time>2019-10-28T10:34:30.000Z</time>
      </trkpt>
      <trkpt lat="48.62786" lon="2.16164">
        <ele>123</ele>
        <time>2019-10-28T10:34:31.000Z</time>
      </trkpt>
      <trkpt lat="48.62784" lon="2.16165">
        <ele>123</ele>
        <time>2019-10-28T10:34:32.000Z</time>
      </trkpt>
      <trkpt lat="48.62783" lon="2.16165">
        <ele>123</ele>
        <time>2019-10-28T10:34:33.000Z</time>
      </trkpt>
      <trkpt lat="48.62781" lon="2.16166">
        <ele>123</ele>
        <time>2019-10-28T10:34:34.000Z</time>
      </trkpt>
      <trkpt lat="48.6278" lon="2.16167">
        <ele>123</ele>
        <time>2019-10-28T10:34:35.000Z</time>
      </trkpt>
      <trkpt lat="48.62778" lon="2.16167">
        <ele>123</ele>
        <time>2019-10-28T10:34:36.000Z</time>
      </trkpt>
      <trkpt lat="48.62777" lon="2.16168">
        <ele>124</ele>
        <time>2019-10-28T10:34:37.000Z</time>
      </trkpt>
      <trkpt lat="48.62776" lon="2.16169">
        <ele>124</ele>
        <time>2019-10-28T10:34:38.000Z</time>
      </trkpt>
      <trkpt lat="48.62774" lon="2.1617">
        <ele>123</ele>
        <time>2019-10-28T10:34:39.000Z</time>
      </trkpt>
      <trkpt lat="48.62773" lon="2.1617">
        <ele>123</ele>
        <time>2019-10-28T10:34:40.000Z</time>
      </trkpt>
      <trkpt lat="48.62772" lon="2.16171">
        <ele>123</ele>
        <time>2019-10-28T10:34:41.000Z</time>
      </trkpt>
      <trkpt lat="48.6277" lon="2.16172">
        <ele>123</ele>
        <time>2019-10-28T10:34:42.000Z</time>
      </trkpt>
      <trkpt lat="48.62769" lon="2.16173">
        <ele>124</ele>
        <time>2019-10-28T10:34:43.000Z</time>
      </trkpt>
      <trkpt lat="48.62767" lon="2.16173">
        <ele>124</ele>
        <time>2019-10-28T10:34:44.000Z</time>
      </trkpt>
      <trkpt lat="48.62766" lon="2.16174">
        <ele>124</ele>
        <time>2019-10-28T10:34:45.000Z</time>
      </trkpt>
      <trkpt lat="48.62765" lon="2.16175">
        <ele>124</ele>
        <time>2019-10-28T10:34:46.000Z</time>
      </trkpt>
      <trkpt lat="48.62763" lon="2.16176">
        <ele>124</ele>
        <time>2019-10-28T10:34:47.000Z</time>
      </trkpt>
      <trkpt lat="48.62762" lon="2.16176">
        <ele>124</ele>
        <time>2019-10-28T10:34:48.000Z</time>
      </trkpt>
      <trkpt lat="48.6276" lon="2.16177">
        <ele>124</ele>
        <time>2019-10-28T10:34:49.000Z</time>
      </trkpt>
      <trkpt lat="48.62759" lon="2.16178">
        <ele>124</ele>
        <time>2019-10-28T10:34:50.000Z</time>
      </trkpt>
      <trkpt lat="48.62758" lon="2.16178">
        <ele>124</ele>
        <time>2019-10-28T10:34:51.000Z</time>
      </trkpt>
      <trkpt lat="48.62756" lon="2.16179">
        <ele>124</ele>
        <time>2019-10-28T10:34:52.000Z</time>
      </trkpt>
      <trkpt lat="48.62755" lon="2.1618">
        <ele>124</ele>
        <time>2019-10-28T10:34:53.000Z</time>
      </trkpt>
      <trkpt lat="48.62754" lon="2.1618">
        <ele>124</ele>
        <time>2019-10-28T10:34:54.000Z</time>
      </trkpt>
      <trkpt lat="48.62752" lon="2.16181">
        <ele>124</ele>
        <time>2019-10-28T10:34:55.000Z</time>
      </trkpt>
      <trkpt lat="48.62751" lon="2.16182">
        <ele>124</ele>
        <time>2019-10-28T10:34:56.000Z</time>
      </trkpt>
      <trkpt lat="48.6275" lon="2.16183">
        <ele>124</ele>
        <time>2019-10-28T10:34:57.000Z</time>
      </trkpt>
      <trkpt lat="48.62748" lon="2.16184">
        <ele>124</ele>
        <time>2019-10-28T10:34:58.000Z</time>
      </trkpt>
      <trkpt lat="48.62747" lon="2.16184">
        <ele>124</ele>
        <time>2019-10-28T10:34:59.000Z</time>
      </trkpt>
      <trkpt lat="48.62745" lon="2.16185">
        <ele>124</ele>
        <time>2019-10-28T10:35:00.000Z</time>
      </trkpt>
      <trkpt lat="48.62744" lon="2.16186">
        <ele>124</ele>
        <time>2019-10-28T10:35:01.000Z</time>
      </trkpt>
      <trkpt lat="48.62743" lon="2.16186">
        <ele>123</ele>
        <time>2019-10-28T10:35:02.000Z</time>
      </trkpt>
      <trkpt lat="48.62741" lon="2.16187">
        <ele>123</ele>
        <time>2019-10-28T10:35:03.000Z</time>
      </trkpt>
      <trkpt lat="48.6274" lon="2.16188">
        <ele>123</ele>
        <time>2019-10-28T10:35:04.000Z</time>
      </trkpt>
      <trkpt lat="48.62738" lon="2.16188">
        <ele>124</ele>
        <time>2019-10-28T10:35:05.000Z</time>
      </trkpt>
      <trkpt lat="48.62737" lon="2.16189">
        <ele>123</ele>
        <time>2019-10-28T10:35:06.000Z</time>
      </trkpt>
      <trkpt lat="48.62736" lon="2.16189">
        <ele>123</ele>
        <time>2019-10-28T10:35:07.000Z</time>
      </trkpt>
      <trkpt lat="48.62734" lon="2.16189">
        <ele>123</ele>
        <time>2019-10-28T10:35:08.000Z</time>
      </trkpt>
      <trkpt lat="48.62733" lon="2.1619">
        <ele>124</ele>
        <time>2019-10-28T10:35:09.000Z</time>
      </trkpt>
      <trkpt lat="48.62732" lon="2.16191">
        <ele>123</ele>
        <time>2019-10-28T10:35:10.000Z</time>
      </trkpt>
      <trkpt lat="48.62731" lon="2.16191">
        <ele>123</ele>
        <time>2019-10-28T10:35:11.000Z</time>
      </trkpt>
      <trkpt lat="48.6273" lon="2.16192">
        <ele>123</ele>
        <time>2019-10-28T10:35:12.000Z</time>
      </trkpt>
      <trkpt lat="48.62729" lon="2.16192">
        <ele>123</ele>
        <time>2019-10-28T10:35:13.000Z</time>
      </trkpt>
      <trkpt lat="48.62729" lon="2.16193">
        <ele>123</ele>
        <time>2019-10-28T10:35:14.000Z</time>
      </trkpt>
      <trkpt lat="48.62729" lon="2.16193">
        <ele>123</ele>
        <time>2019-10-28T10:35:15.000Z</time>
      </trkpt>
      <trkpt lat="48.62728" lon="2.16193">
        <ele>123</ele>
        <time>2019-10-28T10:35:16.000Z</time>
      </trkpt>
      <trkpt lat="48.62727" lon="2.16194">
        <ele>123</ele>
        <time>2019-10-28T10:35:17.000Z</time>
      </trkpt>
      <trkpt lat="48.62726" lon="2.16195">
        <ele>123</ele>
        <time>2019-10-28T10:35:18.000Z</time>
      </trkpt>
      <trkpt lat="48.62726" lon="2.16196">
        <ele>123</ele>
        <time>2019-10-28T10:35:19.000Z</time>
      </trkpt>
      <trkpt lat="48.62726" lon="2.16198">
        <ele>123</ele>
        <time>2019-10-28T10:35:20.000Z</time>
      </trkpt>
      <trkpt lat="48.62726" lon="2.16199">
        <ele>122</ele>
        <time>2019-10-28T10:35:21.000Z</time>
      </trkpt>
      <trkpt lat="48.62726" lon="2.16201">
        <ele>123</ele>
        <time>2019-10-28T10:35:22.000Z</time>
      </trkpt>
      <trkpt lat="48.62727" lon="2.16203">
        <ele>123</ele>
        <time>2019-10-28T10:35:23.000Z</time>
      </trkpt>
      <trkpt lat="48.62728" lon="2.16205">
        <ele>123</ele>
        <time>2019-10-28T10:35:24.000Z</time>
      </trkpt>
      <trkpt lat="48.62729" lon="2.16206">
        <ele>123</ele>
        <time>2019-10-28T10:35:25.000Z</time>
      </trkpt>
      <trkpt lat="48.6273" lon="2.16207">
        <ele>123</ele>
        <time>2019-10-28T10:35:26.000Z</time>
      </trkpt>
      <trkpt lat="48.62731" lon="2.16209">
        <ele>123</ele>
        <time>2019-10-28T10:35:27.000Z</time>
      </trkpt>
      <trkpt lat="48.62732" lon="2.1621">
        <ele>123</ele>
        <time>2019-10-28T10:35:28.000Z</time>
      </trkpt>
      <trkpt lat="48.62733" lon="2.16211">
        <ele>123</ele>
        <time>2019-10-28T10:35:29.000Z</time>
      </trkpt>
      <trkpt lat="48.62734" lon="2.16213">
        <ele>123</ele>
        <time>2019-10-28T10:35:30.000Z</time>
      </trkpt>
      <trkpt lat="48.62735" lon="2.16214">
        <ele>123</ele>
        <time>2019-10-28T10:35:31.000Z</time>
      </trkpt>
      <trkpt lat="48.62736" lon="2.16215">
        <ele>123</ele>
        <time>2019-10-28T10:35:32.000Z</time>
      </trkpt>
      <trkpt lat="48.62737" lon="2.16216">
        <ele>123</ele>
        <time>2019-10-28T10:35:33.000Z</time>
      </trkpt>
      <trkpt lat="48.62738" lon="2.16217">
        <ele>123</ele>
        <time>2019-10-28T10:35:34.000Z</time>
      </trkpt>
      <trkpt lat="48.62739" lon="2.16219">
        <ele>123</ele>
        <time>2019-10-28T10:35:35.000Z</time>
      </trkpt>
      <trkpt lat="48.62741" lon="2.1622">
        <ele>123</ele>
        <time>2019-10-28T10:35:36.000Z</time>
      </trkpt>
      <trkpt lat="48.62742" lon="2.16221">
        <ele>123</ele>
        <time>2019-10-28T10:35:37.000Z</time>
      </trkpt>
      <trkpt lat="48.62743" lon="2.16222">
        <ele>123</ele>
        <time>2019-10-28T10:35:38.000Z</time>
      </trkpt>
      <trkpt lat="48.62744" lon="2.16224">
        <ele>123</ele>
        <time>2019-10-28T10:35:39.000Z</time>
      </trkpt>
      <trkpt lat="48.62745" lon="2.16225">
        <ele>123</ele>
        <time>2019-10-28T10:35:40.000Z</time>
      </trkpt>
      <trkpt lat="48.62746" lon="2.16226">
        <ele>123</ele>
        <time>2019-10-28T10:35:41.000Z</time>
      </trkpt>
      <trkpt lat="48.62748" lon="2.16227">
        <ele>123</ele>
        <time>2019-10-28T10:35:42.000Z</time>
      </trkpt>
      <trkpt lat="48.62749" lon="2.16229">
        <ele>123</ele>
        <time>2019-10-28T10:35:43.000Z</time>
      </trkpt>
      <trkpt lat="48.6275" lon="2.1623">
        <ele>123</ele>
        <time>2019-10-28T10:35:44.000Z</time>
      </trkpt>
      <trkpt lat="48.62751" lon="2.16231">
        <ele>123</ele>
        <time>2019-10-28T10:35:45.000Z</time>
      </trkpt>
      <trkpt lat="48.62752" lon="2.16232">
        <ele>123</ele>
        <time>2019-10-28T10:35:46.000Z</time>
      </trkpt>
      <trkpt lat="48.62753" lon="2.16234">
        <ele>123</ele>
        <time>2019-10-28T10:35:47.000Z</time>
      </trkpt>
      <trkpt lat="48.62754" lon="2.16235">
        <ele>123</ele>
        <time>2019-10-28T10:35:48.000Z</time>
      </trkpt>
      <trkpt lat="48.62755" lon="2.16237">
        <ele>123</ele>
        <time>2019-10-28T10:35:49.000Z</time>
      </trkpt>
      <trkpt lat="48.62756" lon="2.16238">
        <ele>123</ele>
        <time>2019-10-28T10:35:50.000Z</time>
      </trkpt>
      <trkpt lat="48.62757" lon="2.1624">
        <ele>123</ele>
        <time>2019-10-28T10:35:51.000Z</time>
      </trkpt>
      <trkpt lat="48.62758" lon="2.16241">
        <ele>123</ele>
        <time>2019-10-28T10:35:52.000Z</time>
      </trkpt>
      <trkpt lat="48.62759" lon="2.16242">
        <ele>123</ele>
        <time>2019-10-28T10:35:53.000Z</time>
      </trkpt>
      <trkpt lat="48.62761" lon="2.16243">
        <ele>123</ele>
        <time>2019-10-28T10:35:54.000Z</time>
      </trkpt>
      <trkpt lat="48.62762" lon="2.16244">
        <ele>123</ele>
        <time>2019-10-28T10:35:55.000Z</time>
      </trkpt>
      <trkpt lat="48.62763" lon="2.16245">
        <ele>123</ele>
        <time>2019-10-28T10:35:56.000Z</time>
      </trkpt>
      <trkpt lat="48.62765" lon="2.16246">
        <ele>123</ele>
        <time>2019-10-28T10:35:57.000Z</time>
      </trkpt>
      <trkpt lat="48.62766" lon="2.16247">
        <ele>123</ele>
        <time>2019-10-28T10:35:58.000Z</time>
      </trkpt>
      <trkpt lat="48.62767" lon="2.16248">
        <ele>123</ele>
        <time>2019-10-28T10:35:59.000Z</time>
      </trkpt>
      <trkpt lat="48.62769" lon="2.1625">
        <ele>123</ele>
        <time>2019-10-28T10:36:00.000Z</time>
      </trkpt>
      <trkpt lat="48.6277" lon="2.16251">
        <ele>123</ele>
        <time>2019-10-28T10:36:01.000Z</time>
      </trkpt>
      <trkpt lat="48.62771" lon="2.16252">
        <ele>123</ele>
        <time>2019-10-28T10:36:02.000Z</time>
      </trkpt>
      <trkpt lat="48.62772" lon="2.16253">
        <ele>123</ele>
        <time>2019-10-28T10:36:03.000Z</time>
      </trkpt>
      <trkpt lat="48.62773" lon="2.16255">
        <ele>123</ele>
        <time>2019-10-28T10:36:04.000Z</time>
      </trkpt>
      <trkpt lat="48.62774" lon="2.16256">
        <ele>123</ele>
        <time>2019-10-28T10:36:05.000Z</time>
      </trkpt>
      <trkpt lat="48.62776" lon="2.16257">
        <ele>123</ele>
        <time>2019-10-28T10:36:06.000Z</time>
      </trkpt>
      <trkpt lat="48.62777" lon="2.16258">
        <ele>123</ele>
        <time>2019-10-28T10:36:07.000Z</time>
      </trkpt>
      <trkpt lat="48.62778" lon="2.16259">
        <ele>123</ele>
        <time>2019-10-28T10:36:08.000Z</time>
      </trkpt>
      <trkpt lat="48.62779" lon="2.16261">
        <ele>123</ele>
        <time>2019-10-28T10:36:09.000Z</time>
      </trkpt>
      <trkpt lat="48.6278" lon="2.16262">
        <ele>123</ele>
        <time>2019-10-28T10:36:10.000Z</time>
      </trkpt>
      <trkpt lat="48.62781" lon="2.16263">
        <ele>123</ele>
        <time>2019-10-28T10:36:11.000Z</time>
      </trkpt>
      <trkpt lat="48.62783" lon="2.16264">
        <ele>123</ele>
        <time>2019-10-28T10:36:12.000Z</time>
      </trkpt>
      <trkpt lat="48.62784" lon="2.16266">
        <ele>123</ele>
        <time>2019-10-28T10:36:13.000Z</time>
      </trkpt>
      <trkpt lat="48.62785" lon="2.16267">
        <ele>123</ele>
        <time>2019-10-28T10:36:14.000Z</time>
      </trkpt>
      <trkpt lat="48.62786" lon="2.16268">
        <ele>123</ele>
        <time>2019-10-28T10:36:15.000Z</time>
      </trkpt>
      <trkpt lat="48.62787" lon="2.16269">
        <ele>123</ele>
        <time>2019-10-28T10:36:16.000Z</time>
      </trkpt>
      <trkpt lat="48.62788" lon="2.1627">
        <ele>123</ele>
        <time>2019-10-28T10:36:17.000Z</time>
      </trkpt>
      <trkpt lat="48.62789" lon="2.16271">
        <ele>122</ele>
        <time>2019-10-28T10:36:18.000Z</time>
      </trkpt>
      <trkpt lat="48.6279" lon="2.16273">
        <ele>122</ele>
        <time>2019-10-28T10:36:19.000Z</time>
      </trkpt>
      <trkpt lat="48.62791" lon="2.16274">
        <ele>122</ele>
        <time>2019-10-28T10:36:20.000Z</time>
      </trkpt>
      <trkpt lat="48.62792" lon="2.16275">
        <ele>122</ele>
        <time>2019-10-28T10:36:21.000Z</time>
      </trkpt>
      <trkpt lat="48.62794" lon="2.16276">
        <ele>122</ele>
        <time>2019-10-28T10:36:22.000Z</time>
      </trkpt>
      <trkpt lat="48.62795" lon="2.16277">
        <ele>122</ele>
        <time>2019-10-28T10:36:23.000Z</time>
      </trkpt>
      <trkpt lat="48.62796" lon="2.16279">
        <ele>122</ele>
        <time>2019-10-28T10:36:24.000Z</time>
      </trkpt>
      <trkpt lat="48.62797" lon="2.1628">
        <ele>122</ele>
        <time>2019-10-28T10:36:25.000Z</time>
      </trkpt>
      <trkpt lat="48.62798" lon="2.16281">
        <ele>122</ele>
        <time>2019-10-28T10:36:26.000Z</time>
      </trkpt>
      <trkpt lat="48.62799" lon="2.16282">
        <ele>122</ele>
        <time>2019-10-28T10:36:27.000Z</time>
      </trkpt>
      <trkpt lat="48.62801" lon="2.16284">
        <ele>122</ele>
        <time>2019-10-28T10:36:28.000Z</time>
      </trkpt>
      <trkpt lat="48.62802" lon="2.16285">
        <ele>122</ele>
        <time>2019-10-28T10:36:29.000Z</time>
      </trkpt>
      <trkpt lat="48.62803" lon="2.16286">
        <ele>122</ele>
        <time>2019-10-28T10:36:30.000Z</time>
      </trkpt>
      <trkpt lat="48.62804" lon="2.16288">
        <ele>122</ele>
        <time>2019-10-28T10:36:31.000Z</time>
      </trkpt>
      <trkpt lat="48.62805" lon="2.16289">
        <ele>122</ele>
        <time>2019-10-28T10:36:32.000Z</time>
      </trkpt>
      <trkpt lat="48.62806" lon="2.1629">
        <ele>122</ele>
        <time>2019-10-28T10:36:33.000Z</time>
      </trkpt>
      <trkpt lat="48.62807" lon="2.16292">
        <ele>122</ele>
        <time>2019-10-28T10:36:34.000Z</time>
      </trkpt>
      <trkpt lat="48.62808" lon="2.16293">
        <ele>122</ele>
        <time>2019-10-28T10:36:35.000Z</time>
      </trkpt>
      <trkpt lat="48.62809" lon="2.16294">
        <ele>123</ele>
        <time>2019-10-28T10:36:36.000Z</time>
      </trkpt>
      <trkpt lat="48.6281" lon="2.16295">
        <ele>123</ele>
        <time>2019-10-28T10:36:37.000Z</time>
      </trkpt>
      <trkpt lat="48.62811" lon="2.16296">
        <ele>123</ele>
        <time>2019-10-28T10:36:38.000Z</time>
      </trkpt>
      <trkpt lat="48.62812" lon="2.16298">
        <ele>123</ele>
        <time>2019-10-28T10:36:39.000Z</time>
      </trkpt>
      <trkpt lat="48.62814" lon="2.16299">
        <ele>123</ele>
        <time>2019-10-28T10:36:40.000Z</time>
      </trkpt>
      <trkpt lat="48.62815" lon="2.163">
        <ele>123</ele>
        <time>2019-10-28T10:36:41.000Z</time>
      </trkpt>
      <trkpt lat="48.62816" lon="2.16301">
        <ele>123</ele>
        <time>2019-10-28T10:36:42.000Z</time>
      </trkpt>
      <trkpt lat="48.62817" lon="2.16303">
        <ele>123</ele>
        <time>2019-10-28T10:36:43.000Z</time>
      </trkpt>
      <trkpt lat="48.62818" lon="2.16304">
        <ele>123</ele>
        <time>2019-10-28T10:36:44.000Z</time>
      </trkpt>
      <trkpt lat="48.62819" lon="2.16306">
        <ele>123</ele>
        <time>2019-10-28T10:36:45.000Z</time>
      </trkpt>
      <trkpt lat="48.6282" lon="2.16307">
        <ele>123</ele>
        <time>2019-10-28T10:36:46.000Z</time>
      </trkpt>
      <trkpt lat="48.62821" lon="2.16309">
        <ele>123</ele>
        <time>2019-10-28T10:36:47.000Z</time>
      </trkpt>
      <trkpt lat="48.62821" lon="2.1631">
        <ele>123</ele>
        <time>2019-10-28T10:36:48.000Z</time>
      </trkpt>
      <trkpt lat="48.62821" lon="2.16312">
        <ele>123</ele>
        <time>2019-10-28T10:36:49.000Z</time>
      </trkpt>
      <trkpt lat="48.62822" lon="2.16314">
        <ele>123</ele>
        <time>2019-10-28T10:36:50.000Z</time>
      </trkpt>
      <trkpt lat="48.62822" lon="2.16316">
        <ele>123</ele>
        <time>2019-10-28T10:36:51.000Z</time>
      </trkpt>
      <trkpt lat="48.62822" lon="2.16318">
        <ele>123</ele>
        <time>2019-10-28T10:36:52.000Z</time>
      </trkpt>
      <trkpt lat="48.62822" lon="2.1632">
        <ele>123</ele>
        <time>2019-10-28T10:36:53.000Z</time>
      </trkpt>
      <trkpt lat="48.62822" lon="2.16322">
        <ele>122</ele>
        <time>2019-10-28T10:36:54.000Z</time>
      </trkpt>
      <trkpt lat="48.62822" lon="2.16325">
        <ele>122</ele>
        <time>2019-10-28T10:36:55.000Z</time>
      </trkpt>
      <trkpt lat="48.62822" lon="2.16327">
        <ele>123</ele>
        <time>2019-10-28T10:36:56.000Z</time>
      </trkpt>
      <trkpt lat="48.62822" lon="2.16329">
        <ele>123</ele>
        <time>2019-10-28T10:36:57.000Z</time>
      </trkpt>
      <trkpt lat="48.62822" lon="2.16331">
        <ele>123</ele>
        <time>2019-10-28T10:36:58.000Z</time>
      </trkpt>
      <trkpt lat="48.62822" lon="2.16333">
        <ele>123</ele>
        <time>2019-10-28T10:36:59.000Z</time>
      </trkpt>
      <trkpt lat="48.62821" lon="2.16335">
        <ele>122</ele>
        <time>2019-10-28T10:37:00.000Z</time>
      </trkpt>
      <trkpt lat="48.62821" lon="2.16337">
        <ele>122</ele>
        <time>2019-10-28T10:37:01.000Z</time>
      </trkpt>
      <trkpt lat="48.62821" lon="2.1634">
        <ele>122</ele>
        <time>2019-10-28T10:37:02.000Z</time>
      </trkpt>
      <trkpt lat="48.62821" lon="2.16342">
        <ele>122</ele>
        <time>2019-10-28T10:37:03.000Z</time>
      </trkpt>
      <trkpt lat="48.6282" lon="2.16344">
        <ele>122</ele>
        <time>2019-10-28T10:37:04.000Z</time>
      </trkpt>
      <trkpt lat="48.6282" lon="2.16346">
        <ele>121</ele>
        <time>2019-10-28T10:37:05.000Z</time>
      </trkpt>
      <trkpt lat="48.6282" lon="2.16347">
        <ele>121</ele>
        <time>2019-10-28T10:37:06.000Z</time>
      </trkpt>
      <trkpt lat="48.62819" lon="2.16349">
        <ele>121</ele>
        <time>2019-10-28T10:37:07.000Z</time>
      </trkpt>
      <trkpt lat="48.62819" lon="2.16351">
        <ele>121</ele>
        <time>2019-10-28T10:37:08.000Z</time>
      </trkpt>
      <trkpt lat="48.62818" lon="2.16353">
        <ele>121</ele>
        <time>2019-10-28T10:37:09.000Z</time>
      </trkpt>
      <trkpt lat="48.62818" lon="2.16355">
        <ele>121</ele>
        <time>2019-10-28T10:37:10.000Z</time>
      </trkpt>
      <trkpt lat="48.62818" lon="2.16357">
        <ele>121</ele>
        <time>2019-10-28T10:37:11.000Z</time>
      </trkpt>
      <trkpt lat="48.62817" lon="2.16359">
        <ele>121</ele>
        <time>2019-10-28T10:37:12.000Z</time>
      </trkpt>
      <trkpt lat="48.62817" lon="2.16361">
        <ele>121</ele>
        <time>2019-10-28T10:37:13.000Z</time>
      </trkpt>
      <trkpt lat="48.62817" lon="2.16363">
        <ele>121</ele>
        <time>2019-10-28T10:37:14.000Z</time>
      </trkpt>
      <trkpt lat="48.62816" lon="2.16365">
        <ele>120</ele>
        <time>2019-10-28T10:37:15.000Z</time>
      </trkpt>
      <trkpt lat="48.62816" lon="2.16367">
        <ele>120</ele>
        <time>2019-10-28T10:37:16.000Z</time>
      </trkpt>
      <trkpt lat="48.62816" lon="2.16369">
        <ele>120</ele>
        <time>2019-10-28T10:37:17.000Z</time>
      </trkpt>
      <trkpt lat="48.62815" lon="2.16371">
        <ele>120</ele>
        <time>2019-10-28T10:37:18.000Z</time>
      </trkpt>
      <trkpt lat="48.62815" lon="2.16373">
        <ele>119</ele>
        <time>2019-10-28T10:37:19.000Z</time>
      </trkpt>
      <trkpt lat="48.62815" lon="2.16375">
        <ele>119</ele>
        <time>2019-10-28T10:37:20.000Z</time>
      </trkpt>
      <trkpt lat="48.62814" lon="2.16377">
        <ele>119</ele>
        <time>2019-10-28T10:37:21.000Z</time>
      </trkpt>
      <trkpt lat="48.62814" lon="2.16379">
        <ele>119</ele>
        <time>2019-10-28T10:37:22.000Z</time>
      </trkpt>
      <trkpt lat="48.62814" lon="2.16381">
        <ele>119</ele>
        <time>2019-10-28T10:37:23.000Z</time>
      </trkpt>
      <trkpt lat="48.62814" lon="2.16383">
        <ele>119</ele>
        <time>2019-10-28T10:37:24.000Z</time>
      </trkpt>
      <trkpt lat="48.62813" lon="2.16385">
        <ele>119</ele>
        <time>2019-10-28T10:37:25.000Z</time>
      </trkpt>
      <trkpt lat="48.62813" lon="2.16387">
        <ele>119</ele>
        <time>2019-10-28T10:37:26.000Z</time>
      </trkpt>
      <trkpt lat="48.62813" lon="2.16389">
        <ele>119</ele>
        <time>2019-10-28T10:37:27.000Z</time>
      </trkpt>
      <trkpt lat="48.62812" lon="2.16391">
        <ele>119</ele>
        <time>2019-10-28T10:37:28.000Z</time>
      </trkpt>
      <trkpt lat="48.62812" lon="2.16393">
        <ele>119</ele>
        <time>2019-10-28T10:37:29.000Z</time>
      </trkpt>
      <trkpt lat="48.62812" lon="2.16396">
        <ele>119</ele>
        <time>2019-10-28T10:37:30.000Z</time>
      </trkpt>
      <trkpt lat="48.62811" lon="2.16397">
        <ele>118</ele>
        <time>2019-10-28T10:37:31.000Z</time>
      </trkpt>
      <trkpt lat="48.62811" lon="2.16399">
        <ele>119</ele>
        <time>2019-10-28T10:37:32.000Z</time>
      </trkpt>
      <trkpt lat="48.6281" lon="2.16401">
        <ele>119</ele>
        <time>2019-10-28T10:37:33.000Z</time>
      </trkpt>
      <trkpt lat="48.6281" lon="2.16404">
        <ele>119</ele>
        <time>2019-10-28T10:37:34.000Z</time>
      </trkpt>
      <trkpt lat="48.6281" lon="2.16406">
        <ele>119</ele>
        <time>2019-10-28T10:37:35.000Z</time>
      </trkpt>
      <trkpt lat="48.62809" lon="2.16408">
        <ele>120</ele>
        <time>2019-10-28T10:37:36.000Z</time>
      </trkpt>
      <trkpt lat="48.62809" lon="2.1641">
        <ele>120</ele>
        <time>2019-10-28T10:37:37.000Z</time>
      </trkpt>
      <trkpt lat="48.62809" lon="2.16413">
        <ele>121</ele>
        <time>2019-10-28T10:37:38.000Z</time>
      </trkpt>
      <trkpt lat="48.62809" lon="2.16415">
        <ele>121</ele>
        <time>2019-10-28T10:37:39.000Z</time>
      </trkpt>
      <trkpt lat="48.62809" lon="2.16417">
        <ele>120</ele>
        <time>2019-10-28T10:37:40.000Z</time>
      </trkpt>
      <trkpt lat="48.62808" lon="2.16419">
        <ele>121</ele>
        <time>2019-10-28T10:37:41.000Z</time>
      </trkpt>
      <trkpt lat="48.62808" lon="2.16421">
        <ele>121</ele>
        <time>2019-10-28T10:37:42.000Z</time>
      </trkpt>
      <trkpt lat="48.62807" lon="2.16423">
        <ele>121</ele>
        <time>2019-10-28T10:37:43.000Z</time>
      </trkpt>
      <trkpt lat="48.62807" lon="2.16425">
        <ele>120</ele>
        <time>2019-10-28T10:37:44.000Z</time>
      </trkpt>
      <trkpt lat="48.62806" lon="2.16426">
        <ele>120</ele>
        <time>2019-10-28T10:37:45.000Z</time>
      </trkpt>
      <trkpt lat="48.62806" lon="2.16428">
        <ele>120</ele>
        <time>2019-10-28T10:37:46.000Z</time>
      </trkpt>
      <trkpt lat="48.62805" lon="2.1643">
        <ele>119</ele>
        <time>2019-10-28T10:37:47.000Z</time>
      </trkpt>
      <trkpt lat="48.62805" lon="2.16432">
        <ele>120</ele>
        <time>2019-10-28T10:37:48.000Z</time>
      </trkpt>
      <trkpt lat="48.62804" lon="2.16433">
        <ele>120</ele>
        <time>2019-10-28T10:37:49.000Z</time>
      </trkpt>
      <trkpt lat="48.62804" lon="2.16435">
        <ele>119</ele>
        <time>2019-10-28T10:37:50.000Z</time>
      </trkpt>
      <trkpt lat="48.62803" lon="2.16436">
        <ele>119</ele>
        <time>2019-10-28T10:37:51.000Z</time>
      </trkpt>
      <trkpt lat="48.62803" lon="2.16438">
        <ele>119</ele>
        <time>2019-10-28T10:37:52.000Z</time>
      </trkpt>
      <trkpt lat="48.62803" lon="2.1644">
        <ele>119</ele>
        <time>2019-10-28T10:37:53.000Z</time>
      </trkpt>
      <trkpt lat="48.62802" lon="2.16442">
        <ele>119</ele>
        <time>2019-10-28T10:37:54.000Z</time>
      </trkpt>
      <trkpt lat="48.62802" lon="2.16443">
        <ele>120</ele>
        <time>2019-10-28T10:37:55.000Z</time>
      </trkpt>
      <trkpt lat="48.62802" lon="2.16445">
        <ele>120</ele>
        <time>2019-10-28T10:37:56.000Z</time>
      </trkpt>
      <trkpt lat="48.62801" lon="2.16447">
        <ele>120</ele>
        <time>2019-10-28T10:37:57.000Z</time>
      </trkpt>
      <trkpt lat="48.62801" lon="2.16448">
        <ele>120</ele>
        <time>2019-10-28T10:37:58.000Z</time>
      </trkpt>
      <trkpt lat="48.628" lon="2.1645">
        <ele>120</ele>
        <time>2019-10-28T10:37:59.000Z</time>
      </trkpt>
      <trkpt lat="48.628" lon="2.16452">
        <ele>120</ele>
        <time>2019-10-28T10:38:00.000Z</time>
      </trkpt>
      <trkpt lat="48.628" lon="2.16453">
        <ele>120</ele>
        <time>2019-10-28T10:38:01.000Z</time>
      </trkpt>
      <trkpt lat="48.628" lon="2.16455">
        <ele>120</ele>
        <time>2019-10-28T10:38:02.000Z</time>
      </trkpt>
      <trkpt lat="48.62799" lon="2.16457">
        <ele>120</ele>
        <time>2019-10-28T10:38:03.000Z</time>
      </trkpt>
      <trkpt lat="48.62799" lon="2.16458">
        <ele>120</ele>
        <time>2019-10-28T10:38:04.000Z</time>
      </trkpt>
      <trkpt lat="48.62799" lon="2.1646">
        <ele>120</ele>
        <time>2019-10-28T10:38:05.000Z</time>
      </trkpt>
      <trkpt lat="48.62799" lon="2.16462">
        <ele>121</ele>
        <time>2019-10-28T10:38:06.000Z</time>
      </trkpt>
      <trkpt lat="48.62798" lon="2.16464">
        <ele>121</ele>
        <time>2019-10-28T10:38:07.000Z</time>
      </trkpt>
      <trkpt lat="48.62798" lon="2.16467">
        <ele>121</ele>
        <time>2019-10-28T10:38:08.000Z</time>
      </trkpt>
      <trkpt lat="48.62798" lon="2.16469">
        <ele>122</ele>
        <time>2019-10-28T10:38:09.000Z</time>
      </trkpt>
      <trkpt lat="48.62797" lon="2.16472">
        <ele>121</ele>
        <time>2019-10-28T10:38:10.000Z</time>
      </trkpt>
      <trkpt lat="48.62796" lon="2.16474">
        <ele>122</ele>
        <time>2019-10-28T10:38:11.000Z</time>
      </trkpt>
      <trkpt lat="48.62796" lon="2.16477">
        <ele>122</ele>
        <time>2019-10-28T10:38:12.000Z</time>
      </trkpt>
      <trkpt lat="48.62796" lon="2.16479">
        <ele>122</ele>
        <time>2019-10-28T10:38:13.000Z</time>
      </trkpt>
      <trkpt lat="48.62796" lon="2.16481">
        <ele>122</ele>
        <time>2019-10-28T10:38:14.000Z</time>
      </trkpt>
      <trkpt lat="48.62795" lon="2.16483">
        <ele>123</ele>
        <time>2019-10-28T10:38:15.000Z</time>
      </trkpt>
      <trkpt lat="48.62795" lon="2.16485">
        <ele>123</ele>
        <time>2019-10-28T10:38:16.000Z</time>
      </trkpt>
      <trkpt lat="48.62795" lon="2.16487">
        <ele>123</ele>
        <time>2019-10-28T10:38:17.000Z</time>
      </trkpt>
      <trkpt lat="48.62794" lon="2.16488">
        <ele>124</ele>
        <time>2019-10-28T10:38:18.000Z</time>
      </trkpt>
      <trkpt lat="48.62794" lon="2.1649">
        <ele>124</ele>
        <time>2019-10-28T10:38:19.000Z</time>
      </trkpt>
      <trkpt lat="48.62794" lon="2.16492">
        <ele>124</ele>
        <time>2019-10-28T10:38:20.000Z</time>
      </trkpt>
      <trkpt lat="48.62793" lon="2.16493">
        <ele>123</ele>
        <time>2019-10-28T10:38:21.000Z</time>
      </trkpt>
      <trkpt lat="48.62793" lon="2.16495">
        <ele>123</ele>
        <time>2019-10-28T10:38:22.000Z</time>
      </trkpt>
      <trkpt lat="48.62793" lon="2.16497">
        <ele>123</ele>
        <time>2019-10-28T10:38:23.000Z</time>
      </trkpt>
      <trkpt lat="48.62793" lon="2.16498">
        <ele>123</ele>
        <time>2019-10-28T10:38:24.000Z</time>
      </trkpt>
      <trkpt lat="48.62792" lon="2.165">
        <ele>123</ele>
        <time>2019-10-28T10:38:25.000Z</time>
      </trkpt>
      <trkpt lat="48.62792" lon="2.16501">
        <ele>124</ele>
        <time>2019-10-28T10:38:26.000Z</time>
      </trkpt>
      <trkpt lat="48.62792" lon="2.16503">
        <ele>123</ele>
        <time>2019-10-28T10:38:27.000Z</time>
      </trkpt>
      <trkpt lat="48.62791" lon="2.16505">
        <ele>123</ele>
        <time>2019-10-28T10:38:28.000Z</time>
      </trkpt>
      <trkpt lat="48.62791" lon="2.16507">
        <ele>124</ele>
        <time>2019-10-28T10:38:29.000Z</time>
      </trkpt>
      <trkpt lat="48.6279" lon="2.16509">
        <ele>124</ele>
        <time>2019-10-28T10:38:30.000Z</time>
      </trkpt>
      <trkpt lat="48.62789" lon="2.16511">
        <ele>125</ele>
        <time>2019-10-28T10:38:31.000Z</time>
      </trkpt>
      <trkpt lat="48.62789" lon="2.16513">
        <ele>126</ele>
        <time>2019-10-28T10:38:32.000Z</time>
      </trkpt>
      <trkpt lat="48.62788" lon="2.16515">
        <ele>126</ele>
        <time>2019-10-28T10:38:33.000Z</time>
      </trkpt>
      <trkpt lat="48.62788" lon="2.16517">
        <ele>127</ele>
        <time>2019-10-28T10:38:34.000Z</time>
      </trkpt>
      <trkpt lat="48.62787" lon="2.16519">
        <ele>127</ele>
        <time>2019-10-28T10:38:35.000Z</time>
      </trkpt>
      <trkpt lat="48.62787" lon="2.16522">
        <ele>127</ele>
        <time>2019-10-28T10:38:36.000Z</time>
      </trkpt>
      <trkpt lat="48.62786" lon="2.16524">
        <ele>127</ele>
        <time>2019-10-28T10:38:37.000Z</time>
      </trkpt>
      <trkpt lat="48.62786" lon="2.16526">
        <ele>126</ele>
        <time>2019-10-28T10:38:38.000Z</time>
      </trkpt>
      <trkpt lat="48.62786" lon="2.16527">
        <ele>126</ele>
        <time>2019-10-28T10:38:39.000Z</time>
      </trkpt>
      <trkpt lat="48.62786" lon="2.16529">
        <ele>126</ele>
        <time>2019-10-28T10:38:40.000Z</time>
      </trkpt>
      <trkpt lat="48.62785" lon="2.16531">
        <ele>127</ele>
        <time>2019-10-28T10:38:41.000Z</time>
      </trkpt>
      <trkpt lat="48.62785" lon="2.16534">
        <ele>127</ele>
        <time>2019-10-28T10:38:42.000Z</time>
      </trkpt>
      <trkpt lat="48.62784" lon="2.16536">
        <ele>127</ele>
        <time>2019-10-28T10:38:43.000Z</time>
      </trkpt>
      <trkpt lat="48.62784" lon="2.16538">
        <ele>126</ele>
        <time>2019-10-28T10:38:44.000Z</time>
      </trkpt>
      <trkpt lat="48.62784" lon="2.1654">
        <ele>126</ele>
        <time>2019-10-28T10:38:45.000Z</time>
      </trkpt>
      <trkpt lat="48.62784" lon="2.16542">
        <ele>127</ele>
        <time>2019-10-28T10:38:46.000Z</time>
      </trkpt>
      <trkpt lat="48.62783" lon="2.16543">
        <ele>127</ele>
        <time>2019-10-28T10:38:47.000Z</time>
      </trkpt>
      <trkpt lat="48.62783" lon="2.16545">
        <ele>126</ele>
        <time>2019-10-28T10:38:48.000Z</time>
      </trkpt>
      <trkpt lat="48.62783" lon="2.16547">
        <ele>126</ele>
        <time>2019-10-28T10:38:49.000Z</time>
      </trkpt>
      <trkpt lat="48.62782" lon="2.16549">
        <ele>126</ele>
        <time>2019-10-28T10:38:50.000Z</time>
      </trkpt>
      <trkpt lat="48.62782" lon="2.16551">
        <ele>125</ele>
        <time>2019-10-28T10:38:51.000Z</time>
      </trkpt>
      <trkpt lat="48.62782" lon="2.16553">
        <ele>125</ele>
        <time>2019-10-28T10:38:52.000Z</time>
      </trkpt>
      <trkpt lat="48.62782" lon="2.16554">
        <ele>124</ele>
        <time>2019-10-28T10:38:53.000Z</time>
      </trkpt>
      <trkpt lat="48.62782" lon="2.16556">
        <ele>124</ele>
        <time>2019-10-28T10:38:54.000Z</time>
      </trkpt>
      <trkpt lat="48.62781" lon="2.16558">
        <ele>123</ele>
        <time>2019-10-28T10:38:55.000Z</time>
      </trkpt>
      <trkpt lat="48.62781" lon="2.1656">
        <ele>124</ele>
        <time>2019-10-28T10:38:56.000Z</time>
      </trkpt>
      <trkpt lat="48.62781" lon="2.16561">
        <ele>124</ele>
        <time>2019-10-28T10:38:57.000Z</time>
      </trkpt>
      <trkpt lat="48.6278" lon="2.16563">
        <ele>124</ele>
        <time>2019-10-28T10:38:58.000Z</time>
      </trkpt>
      <trkpt lat="48.6278" lon="2.16565">
        <ele>124</ele>
        <time>2019-10-28T10:38:59.000Z</time>
      </trkpt>
      <trkpt lat="48.62779" lon="2.16567">
        <ele>124</ele>
        <time>2019-10-28T10:39:00.000Z</time>
      </trkpt>
      <trkpt lat="48.62779" lon="2.16569">
        <ele>124</ele>
        <time>2019-10-28T10:39:01.000Z</time>
      </trkpt>
      <trkpt lat="48.62778" lon="2.16571">
        <ele>124</ele>
        <time>2019-10-28T10:39:02.000Z</time>
      </trkpt>
      <trkpt lat="48.62778" lon="2.16573">
        <ele>125</ele>
        <time>2019-10-28T10:39:03.000Z</time>
      </trkpt>
      <trkpt lat="48.62777" lon="2.16575">
        <ele>125</ele>
        <time>2019-10-28T10:39:04.000Z</time>
      </trkpt>
      <trkpt lat="48.62777" lon="2.16576">
        <ele>124</ele>
        <time>2019-10-28T10:39:05.000Z</time>
      </trkpt>
      <trkpt lat="48.62776" lon="2.16578">
        <ele>123</ele>
        <time>2019-10-28T10:39:06.000Z</time>
      </trkpt>
      <trkpt lat="48.62776" lon="2.1658">
        <ele>124</ele>
        <time>2019-10-28T10:39:07.000Z</time>
      </trkpt>
      <trkpt lat="48.62775" lon="2.16582">
        <ele>123</ele>
        <time>2019-10-28T10:39:08.000Z</time>
      </trkpt>
      <trkpt lat="48.62775" lon="2.16583">
        <ele>123</ele>
        <time>2019-10-28T10:39:09.000Z</time>
      </trkpt>
      <trkpt lat="48.62774" lon="2.16585">
        <ele>123</ele>
        <time>2019-10-28T10:39:10.000Z</time>
      </trkpt>
      <trkpt lat="48.62773" lon="2.16587">
        <ele>123</ele>
        <time>2019-10-28T10:39:11.000Z</time>
      </trkpt>
      <trkpt lat="48.62773" lon="2.16589">
        <ele>122</ele>
        <time>2019-10-28T10:39:12.000Z</time>
      </trkpt>
      <trkpt lat="48.62772" lon="2.16591">
        <ele>121</ele>
        <time>2019-10-28T10:39:13.000Z</time>
      </trkpt>
      <trkpt lat="48.62772" lon="2.16593">
        <ele>120</ele>
        <time>2019-10-28T10:39:14.000Z</time>
      </trkpt>
      <trkpt lat="48.62771" lon="2.16596">
        <ele>121</ele>
        <time>2019-10-28T10:39:15.000Z</time>
      </trkpt>
      <trkpt lat="48.6277" lon="2.16598">
        <ele>120</ele>
        <time>2019-10-28T10:39:16.000Z</time>
      </trkpt>
      <trkpt lat="48.62769" lon="2.166">
        <ele>120</ele>
        <time>2019-10-28T10:39:17.000Z</time>
      </trkpt>
      <trkpt lat="48.62768" lon="2.16602">
        <ele>120</ele>
        <time>2019-10-28T10:39:18.000Z</time>
      </trkpt>
      <trkpt lat="48.62767" lon="2.16604">
        <ele>120</ele>
        <time>2019-10-28T10:39:19.000Z</time>
      </trkpt>
      <trkpt lat="48.62766" lon="2.16605">
        <ele>120</ele>
        <time>2019-10-28T10:39:20.000Z</time>
      </trkpt>
      <trkpt lat="48.62765" lon="2.16607">
        <ele>119</ele>
        <time>2019-10-28T10:39:21.000Z</time>
      </trkpt>
      <trkpt lat="48.62765" lon="2.16609">
        <ele>119</ele>
        <time>2019-10-28T10:39:22.000Z</time>
      </trkpt>
      <trkpt lat="48.62764" lon="2.16611">
        <ele>118</ele>
        <time>2019-10-28T10:39:23.000Z</time>
      </trkpt>
      <trkpt lat="48.62763" lon="2.16613">
        <ele>118</ele>
        <time>2019-10-28T10:39:24.000Z</time>
      </trkpt>
      <trkpt lat="48.62762" lon="2.16616">
        <ele>118</ele>
        <time>2019-10-28T10:39:25.000Z</time>
      </trkpt>
      <trkpt lat="48.62761" lon="2.16618">
        <ele>118</ele>
        <time>2019-10-28T10:39:26.000Z</time>
      </trkpt>
      <trkpt lat="48.62761" lon="2.16621">
        <ele>118</ele>
        <time>2019-10-28T10:39:27.000Z</time>
      </trkpt>
      <trkpt lat="48.6276" lon="2.16623">
        <ele>118</ele>
        <time>2019-10-28T10:39:28.000Z</time>
      </trkpt>
      <trkpt lat="48.62759" lon="2.16624">
        <ele>117</ele>
        <time>2019-10-28T10:39:29.000Z</time>
      </trkpt>
      <trkpt lat="48.62758" lon="2.16626">
        <ele>118</ele>
        <time>2019-10-28T10:39:30.000Z</time>
      </trkpt>
      <trkpt lat="48.62758" lon="2.16629">
        <ele>118</ele>
        <time>2019-10-28T10:39:31.000Z</time>
      </trkpt>
      <trkpt lat="48.62757" lon="2.16631">
        <ele>118</ele>
        <time>2019-10-28T10:39:32.000Z</time>
      </trkpt>
      <trkpt lat="48.62756" lon="2.16632">
        <ele>118</ele>
        <time>2019-10-28T10:39:33.000Z</time>
      </trkpt>
      <trkpt lat="48.62756" lon="2.16634">
        <ele>118</ele>
        <time>2019-10-28T10:39:34.000Z</time>
      </trkpt>
      <trkpt lat="48.62755" lon="2.16636">
        <ele>117</ele>
        <time>2019-10-28T10:39:35.000Z</time>
      </trkpt>
      <trkpt lat="48.62754" lon="2.16638">
        <ele>118</ele>
        <time>2019-10-28T10:39:36.000Z</time>
      </trkpt>
      <trkpt lat="48.62753" lon="2.1664">
        <ele>118</ele>
        <time>2019-10-28T10:39:37.000Z</time>
      </trkpt>
      <trkpt lat="48.62753" lon="2.16642">
        <ele>118</ele>
        <time>2019-10-28T10:39:38.000Z</time>
      </trkpt>
      <trkpt lat="48.62752" lon="2.16644">
        <ele>118</ele>
        <time>2019-10-28T10:39:39.000Z</time>
      </trkpt>
      <trkpt lat="48.62751" lon="2.16646">
        <ele>118</ele>
        <time>2019-10-28T10:39:40.000Z</time>
      </trkpt>
      <trkpt lat="48.62751" lon="2.16648">
        <ele>118</ele>
        <time>2019-10-28T10:39:41.000Z</time>
      </trkpt>
      <trkpt lat="48.6275" lon="2.1665">
        <ele>118</ele>
        <time>2019-10-28T10:39:42.000Z</time>
      </trkpt>
      <trkpt lat="48.62749" lon="2.16652">
        <ele>118</ele>
        <time>2019-10-28T10:39:43.000Z</time>
      </trkpt>
      <trkpt lat="48.62749" lon="2.16654">
        <ele>118</ele>
        <time>2019-10-28T10:39:44.000Z</time>
      </trkpt>
      <trkpt lat="48.62748" lon="2.16656">
        <ele>118</ele>
        <time>2019-10-28T10:39:45.000Z</time>
      </trkpt>
      <trkpt lat="48.62748" lon="2.16658">
        <ele>118</ele>
        <time>2019-10-28T10:39:46.000Z</time>
      </trkpt>
      <trkpt lat="48.62747" lon="2.16659">
        <ele>118</ele>
        <time>2019-10-28T10:39:47.000Z</time>
      </trkpt>
      <trkpt lat="48.62746" lon="2.16661">
        <ele>118</ele>
        <time>2019-10-28T10:39:48.000Z</time>
      </trkpt>
      <trkpt lat="48.62745" lon="2.16663">
        <ele>118</ele>
        <time>2019-10-28T10:39:49.000Z</time>
      </trkpt>
      <trkpt lat="48.62745" lon="2.16665">
        <ele>118</ele>
        <time>2019-10-28T10:39:50.000Z</time>
      </trkpt>
      <trkpt lat="48.62744" lon="2.16667">
        <ele>118</ele>
        <time>2019-10-28T10:39:51.000Z</time>
      </trkpt>
      <trkpt lat="48.62743" lon="2.16669">
        <ele>118</ele>
        <time>2019-10-28T10:39:52.000Z</time>
      </trkpt>
      <trkpt lat="48.62742" lon="2.16671">
        <ele>118</ele>
        <time>2019-10-28T10:39:53.000Z</time>
      </trkpt>
      <trkpt lat="48.62742" lon="2.16673">
        <ele>118</ele>
        <time>2019-10-28T10:39:54.000Z</time>
      </trkpt>
      <trkpt lat="48.62741" lon="2.16675">
        <ele>118</ele>
        <time>2019-10-28T10:39:55.000Z</time>
      </trkpt>
      <trkpt lat="48.6274" lon="2.16677">
        <ele>119</ele>
        <time>2019-10-28T10:39:56.000Z</time>
      </trkpt>
      <trkpt lat="48.6274" lon="2.16679">
        <ele>119</ele>
        <time>2019-10-28T10:39:57.000Z</time>
      </trkpt>
      <trkpt lat="48.62739" lon="2.16681">
        <ele>118</ele>
        <time>2019-10-28T10:39:58.000Z</time>
      </trkpt>
      <trkpt lat="48.62738" lon="2.16683">
        <ele>118</ele>
        <time>2019-10-28T10:39:59.000Z</time>
      </trkpt>
      <trkpt lat="48.62737" lon="2.16684">
        <ele>118</ele>
        <time>2019-10-28T10:40:00.000Z</time>
      </trkpt>
      <trkpt lat="48.62737" lon="2.16686">
        <ele>118</ele>
        <time>2019-10-28T10:40:01.000Z</time>
      </trkpt>
      <trkpt lat="48.62736" lon="2.16688">
        <ele>118</ele>
        <time>2019-10-28T10:40:02.000Z</time>
      </trkpt>
      <trkpt lat="48.62735" lon="2.1669">
        <ele>118</ele>
        <time>2019-10-28T10:40:03.000Z</time>
      </trkpt>
      <trkpt lat="48.62735" lon="2.16691">
        <ele>117</ele>
        <time>2019-10-28T10:40:04.000Z</time>
      </trkpt>
      <trkpt lat="48.62734" lon="2.16693">
        <ele>118</ele>
        <time>2019-10-28T10:40:05.000Z</time>
      </trkpt>
      <trkpt lat="48.62734" lon="2.16695">
        <ele>118</ele>
        <time>2019-10-28T10:40:06.000Z</time>
      </trkpt>
      <trkpt lat="48.62734" lon="2.16697">
        <ele>118</ele>
        <time>2019-10-28T10:40:07.000Z</time>
      </trkpt>
      <trkpt lat="48.62733" lon="2.16699">
        <ele>118</ele>
        <time>2019-10-28T10:40:08.000Z</time>
      </trkpt>
      <trkpt lat="48.62733" lon="2.16701">
        <ele>118</ele>
        <time>2019-10-28T10:40:09.000Z</time>
      </trkpt>
      <trkpt lat="48.62732" lon="2.16703">
        <ele>118</ele>
        <time>2019-10-28T10:40:10.000Z</time>
      </trkpt>
      <trkpt lat="48.62731" lon="2.16705">
        <ele>118</ele>
        <time>2019-10-28T10:40:11.000Z</time>
      </trkpt>
      <trkpt lat="48.6273" lon="2.16707">
        <ele>118</ele>
        <time>2019-10-28T10:40:12.000Z</time>
      </trkpt>
      <trkpt lat="48.62729" lon="2.16709">
        <ele>118</ele>
        <time>2019-10-28T10:40:13.000Z</time>
      </trkpt>
      <trkpt lat="48.62728" lon="2.16711">
        <ele>118</ele>
        <time>2019-10-28T10:40:14.000Z</time>
      </trkpt>
      <trkpt lat="48.62727" lon="2.16712">
        <ele>118</ele>
        <time>2019-10-28T10:40:15.000Z</time>
      </trkpt>
      <trkpt lat="48.62726" lon="2.16714">
        <ele>118</ele>
        <time>2019-10-28T10:40:16.000Z</time>
      </trkpt>
      <trkpt lat="48.62726" lon="2.16715">
        <ele>118</ele>
        <time>2019-10-28T10:40:17.000Z</time>
      </trkpt>
      <trkpt lat="48.62725" lon="2.16717">
        <ele>118</ele>
        <time>2019-10-28T10:40:18.000Z</time>
      </trkpt>
      <trkpt lat="48.62724" lon="2.16719">
        <ele>119</ele>
        <time>2019-10-28T10:40:19.000Z</time>
      </trkpt>
      <trkpt lat="48.62723" lon="2.1672">
        <ele>119</ele>
        <time>2019-10-28T10:40:20.000Z</time>
      </trkpt>
      <trkpt lat="48.62722" lon="2.16722">
        <ele>119</ele>
        <time>2019-10-28T10:40:21.000Z</time>
      </trkpt>
      <trkpt lat="48.62722" lon="2.16724">
        <ele>119</ele>
        <time>2019-10-28T10:40:22.000Z</time>
      </trkpt>
      <trkpt lat="48.62721" lon="2.16726">
        <ele>119</ele>
        <time>2019-10-28T10:40:23.000Z</time>
      </trkpt>
      <trkpt lat="48.6272" lon="2.16728">
        <ele>119</ele>
        <time>2019-10-28T10:40:24.000Z</time>
      </trkpt>
      <trkpt lat="48.6272" lon="2.1673">
        <ele>119</ele>
        <time>2019-10-28T10:40:25.000Z</time>
      </trkpt>
      <trkpt lat="48.62719" lon="2.16732">
        <ele>119</ele>
        <time>2019-10-28T10:40:26.000Z</time>
      </trkpt>
      <trkpt lat="48.62718" lon="2.16734">
        <ele>119</ele>
        <time>2019-10-28T10:40:27.000Z</time>
      </trkpt>
      <trkpt lat="48.62718" lon="2.16736">
        <ele>120</ele>
        <time>2019-10-28T10:40:28.000Z</time>
      </trkpt>
      <trkpt lat="48.62717" lon="2.16737">
        <ele>120</ele>
        <time>2019-10-28T10:40:29.000Z</time>
      </trkpt>
      <trkpt lat="48.62716" lon="2.16739">
        <ele>120</ele>
        <time>2019-10-28T10:40:30.000Z</time>
      </trkpt>
      <trkpt lat="48.62716" lon="2.16741">
        <ele>120</ele>
        <time>2019-10-28T10:40:31.000Z</time>
      </trkpt>
      <trkpt lat="48.62715" lon="2.16743">
        <ele>120</ele>
        <time>2019-10-28T10:40:32.000Z</time>
      </trkpt>
      <trkpt lat="48.62714" lon="2.16745">
        <ele>120</ele>
        <time>2019-10-28T10:40:33.000Z</time>
      </trkpt>
      <trkpt lat="48.62714" lon="2.16747">
        <ele>120</ele>
        <time>2019-10-28T10:40:34.000Z</time>
      </trkpt>
      <trkpt lat="48.62713" lon="2.16748">
        <ele>120</ele>
        <time>2019-10-28T10:40:35.000Z</time>
      </trkpt>
      <trkpt lat="48.62712" lon="2.1675">
        <ele>120</ele>
        <time>2019-10-28T10:40:36.000Z</time>
      </trkpt>
      <trkpt lat="48.62712" lon="2.16752">
        <ele>120</ele>
        <time>2019-10-28T10:40:37.000Z</time>
      </trkpt>
      <trkpt lat="48.62711" lon="2.16754">
        <ele>120</ele>
        <time>2019-10-28T10:40:38.000Z</time>
      </trkpt>
      <trkpt lat="48.6271" lon="2.16756">
        <ele>120</ele>
        <time>2019-10-28T10:40:39.000Z</time>
      </trkpt>
      <trkpt lat="48.62709" lon="2.16757">
        <ele>120</ele>
        <time>2019-10-28T10:40:40.000Z</time>
      </trkpt>
      <trkpt lat="48.62709" lon="2.16759">
        <ele>120</ele>
        <time>2019-10-28T10:40:41.000Z</time>
      </trkpt>
      <trkpt lat="48.62708" lon="2.16761">
        <ele>120</ele>
        <time>2019-10-28T10:40:42.000Z</time>
      </trkpt>
      <trkpt lat="48.62708" lon="2.16763">
        <ele>120</ele>
        <time>2019-10-28T10:40:43.000Z</time>
      </trkpt>
      <trkpt lat="48.62707" lon="2.16765">
        <ele>120</ele>
        <time>2019-10-28T10:40:44.000Z</time>
      </trkpt>
      <trkpt lat="48.62706" lon="2.16766">
        <ele>120</ele>
        <time>2019-10-28T10:40:45.000Z</time>
      </trkpt>
      <trkpt lat="48.62706" lon="2.16768">
        <ele>120</ele>
        <time>2019-10-28T10:40:46.000Z</time>
      </trkpt>
      <trkpt lat="48.62705" lon="2.1677">
        <ele>120</ele>
        <time>2019-10-28T10:40:47.000Z</time>
      </trkpt>
      <trkpt lat="48.62704" lon="2.16771">
        <ele>120</ele>
        <time>2019-10-28T10:40:48.000Z</time>
      </trkpt>
      <trkpt lat="48.62703" lon="2.16773">
        <ele>121</ele>
        <time>2019-10-28T10:40:49.000Z</time>
      </trkpt>
      <trkpt lat="48.62703" lon="2.16775">
        <ele>121</ele>
        <time>2019-10-28T10:40:50.000Z</time>
      </trkpt>
      <trkpt lat="48.62702" lon="2.16776">
        <ele>121</ele>
        <time>2019-10-28T10:40:51.000Z</time>
      </trkpt>
      <trkpt lat="48.62701" lon="2.16778">
        <ele>120</ele>
        <time>2019-10-28T10:40:52.000Z</time>
      </trkpt>
      <trkpt lat="48.627" lon="2.1678">
        <ele>121</ele>
        <time>2019-10-28T10:40:53.000Z</time>
      </trkpt>
      <trkpt lat="48.627" lon="2.16782">
        <ele>120</ele>
        <time>2019-10-28T10:40:54.000Z</time>
      </trkpt>
      <trkpt lat="48.62699" lon="2.16783">
        <ele>120</ele>
        <time>2019-10-28T10:40:55.000Z</time>
      </trkpt>
      <trkpt lat="48.62698" lon="2.16785">
        <ele>120</ele>
        <time>2019-10-28T10:40:56.000Z</time>
      </trkpt>
      <trkpt lat="48.62698" lon="2.16787">
        <ele>120</ele>
        <time>2019-10-28T10:40:57.000Z</time>
      </trkpt>
      <trkpt lat="48.62697" lon="2.16788">
        <ele>120</ele>
        <time>2019-10-28T10:40:58.000Z</time>
      </trkpt>
      <trkpt lat="48.62696" lon="2.1679">
        <ele>120</ele>
        <time>2019-10-28T10:40:59.000Z</time>
      </trkpt>
      <trkpt lat="48.62695" lon="2.16792">
        <ele>120</ele>
        <time>2019-10-28T10:41:00.000Z</time>
      </trkpt>
      <trkpt lat="48.62695" lon="2.16793">
        <ele>120</ele>
        <time>2019-10-28T10:41:01.000Z</time>
      </trkpt>
      <trkpt lat="48.62694" lon="2.16795">
        <ele>120</ele>
        <time>2019-10-28T10:41:02.000Z</time>
      </trkpt>
      <trkpt lat="48.62694" lon="2.16797">
        <ele>120</ele>
        <time>2019-10-28T10:41:03.000Z</time>
      </trkpt>
      <trkpt lat="48.62693" lon="2.16798">
        <ele>120</ele>
        <time>2019-10-28T10:41:04.000Z</time>
      </trkpt>
      <trkpt lat="48.62693" lon="2.168">
        <ele>119</ele>
        <time>2019-10-28T10:41:05.000Z</time>
      </trkpt>
      <trkpt lat="48.62693" lon="2.16802">
        <ele>120</ele>
        <time>2019-10-28T10:41:06.000Z</time>
      </trkpt>
      <trkpt lat="48.62692" lon="2.16803">
        <ele>120</ele>
        <time>2019-10-28T10:41:07.000Z</time>
      </trkpt>
      <trkpt lat="48.62691" lon="2.16805">
        <ele>120</ele>
        <time>2019-10-28T10:41:08.000Z</time>
      </trkpt>
      <trkpt lat="48.62691" lon="2.16806">
        <ele>119</ele>
        <time>2019-10-28T10:41:09.000Z</time>
      </trkpt>
      <trkpt lat="48.6269" lon="2.16808">
        <ele>119</ele>
        <time>2019-10-28T10:41:10.000Z</time>
      </trkpt>
      <trkpt lat="48.62689" lon="2.16809">
        <ele>119</ele>
        <time>2019-10-28T10:41:11.000Z</time>
      </trkpt>
      <trkpt lat="48.62689" lon="2.16811">
        <ele>119</ele>
        <time>2019-10-28T10:41:12.000Z</time>
      </trkpt>
      <trkpt lat="48.62688" lon="2.16813">
        <ele>119</ele>
        <time>2019-10-28T10:41:13.000Z</time>
      </trkpt>
      <trkpt lat="48.62688" lon="2.16814">
        <ele>119</ele>
        <time>2019-10-28T10:41:14.000Z</time>
      </trkpt>
      <trkpt lat="48.62687" lon="2.16816">
        <ele>120</ele>
        <time>2019-10-28T10:41:15.000Z</time>
      </trkpt>
      <trkpt lat="48.62687" lon="2.16817">
        <ele>120</ele>
        <time>2019-10-28T10:41:16.000Z</time>
      </trkpt>
      <trkpt lat="48.62686" lon="2.16819">
        <ele>119</ele>
        <time>2019-10-28T10:41:17.000Z</time>
      </trkpt>
      <trkpt lat="48.62686" lon="2.16821">
        <ele>119</ele>
        <time>2019-10-28T10:41:18.000Z</time>
      </trkpt>
      <trkpt lat="48.62685" lon="2.16823">
        <ele>119</ele>
        <time>2019-10-28T10:41:19.000Z</time>
      </trkpt>
      <trkpt lat="48.62684" lon="2.16824">
        <ele>119</ele>
        <time>2019-10-28T10:41:20.000Z</time>
      </trkpt>
      <trkpt lat="48.62684" lon="2.16826">
        <ele>119</ele>
        <time>2019-10-28T10:41:21.000Z</time>
      </trkpt>
      <trkpt lat="48.62683" lon="2.16827">
        <ele>119</ele>
        <time>2019-10-28T10:41:22.000Z</time>
      </trkpt>
      <trkpt lat="48.62682" lon="2.16829">
        <ele>119</ele>
        <time>2019-10-28T10:41:23.000Z</time>
      </trkpt>
      <trkpt lat="48.62681" lon="2.16831">
        <ele>119</ele>
        <time>2019-10-28T10:41:24.000Z</time>
      </trkpt>
      <trkpt lat="48.62681" lon="2.16832">
        <ele>119</ele>
        <time>2019-10-28T10:41:25.000Z</time>
      </trkpt>
      <trkpt lat="48.6268" lon="2.16834">
        <ele>119</ele>
        <time>2019-10-28T10:41:26.000Z</time>
      </trkpt>
      <trkpt lat="48.6268" lon="2.16836">
        <ele>119</ele>
        <time>2019-10-28T10:41:27.000Z</time>
      </trkpt>
      <trkpt lat="48.62679" lon="2.16838">
        <ele>119</ele>
        <time>2019-10-28T10:41:28.000Z</time>
      </trkpt>
      <trkpt lat="48.62678" lon="2.1684">
        <ele>119</ele>
        <time>2019-10-28T10:41:29.000Z</time>
      </trkpt>
      <trkpt lat="48.62678" lon="2.16841">
        <ele>118</ele>
        <time>2019-10-28T10:41:30.000Z</time>
      </trkpt>
      <trkpt lat="48.62677" lon="2.16843">
        <ele>118</ele>
        <time>2019-10-28T10:41:31.000Z</time>
      </trkpt>
      <trkpt lat="48.62676" lon="2.16845">
        <ele>118</ele>
        <time>2019-10-28T10:41:32.000Z</time>
      </trkpt>
      <trkpt lat="48.62675" lon="2.16847">
        <ele>118</ele>
        <time>2019-10-28T10:41:33.000Z</time>
      </trkpt>
      <trkpt lat="48.62675" lon="2.16848">
        <ele>118</ele>
        <time>2019-10-28T10:41:34.000Z</time>
      </trkpt>
      <trkpt lat="48.62674" lon="2.1685">
        <ele>118</ele>
        <time>2019-10-28T10:41:35.000Z</time>
      </trkpt>
      <trkpt lat="48.62673" lon="2.16852">
        <ele>118</ele>
        <time>2019-10-28T10:41:36.000Z</time>
      </trkpt>
      <trkpt lat="48.62672" lon="2.16854">
        <ele>118</ele>
        <time>2019-10-28T10:41:37.000Z</time>
      </trkpt>
      <trkpt lat="48.62671" lon="2.16856">
        <ele>118</ele>
        <time>2019-10-28T10:41:38.000Z</time>
      </trkpt>
      <trkpt lat="48.6267" lon="2.16858">
        <ele>118</ele>
        <time>2019-10-28T10:41:39.000Z</time>
      </trkpt>
      <trkpt lat="48.6267" lon="2.1686">
        <ele>118</ele>
        <time>2019-10-28T10:41:40.000Z</time>
      </trkpt>
      <trkpt lat="48.62669" lon="2.16861">
        <ele>118</ele>
        <time>2019-10-28T10:41:41.000Z</time>
      </trkpt>
      <trkpt lat="48.62668" lon="2.16863">
        <ele>118</ele>
        <time>2019-10-28T10:41:42.000Z</time>
      </trkpt>
      <trkpt lat="48.62667" lon="2.16865">
        <ele>117</ele>
        <time>2019-10-28T10:41:43.000Z</time>
      </trkpt>
      <trkpt lat="48.62666" lon="2.16867">
        <ele>117</ele>
        <time>2019-10-28T10:41:44.000Z</time>
      </trkpt>
      <trkpt lat="48.62666" lon="2.16868">
        <ele>117</ele>
        <time>2019-10-28T10:41:45.000Z</time>
      </trkpt>
      <trkpt lat="48.62665" lon="2.1687">
        <ele>117</ele>
        <time>2019-10-28T10:41:46.000Z</time>
      </trkpt>
      <trkpt lat="48.62664" lon="2.16872">
        <ele>117</ele>
        <time>2019-10-28T10:41:47.000Z</time>
      </trkpt>
      <trkpt lat="48.62663" lon="2.16874">
        <ele>117</ele>
        <time>2019-10-28T10:41:48.000Z</time>
      </trkpt>
      <trkpt lat="48.62662" lon="2.16876">
        <ele>117</ele>
        <time>2019-10-28T10:41:49.000Z</time>
      </trkpt>
      <trkpt lat="48.62661" lon="2.16877">
        <ele>117</ele>
        <time>2019-10-28T10:41:50.000Z</time>
      </trkpt>
      <trkpt lat="48.6266" lon="2.16879">
        <ele>117</ele>
        <time>2019-10-28T10:41:51.000Z</time>
      </trkpt>
      <trkpt lat="48.62659" lon="2.16881">
        <ele>117</ele>
        <time>2019-10-28T10:41:52.000Z</time>
      </trkpt>
      <trkpt lat="48.62658" lon="2.16882">
        <ele>117</ele>
        <time>2019-10-28T10:41:53.000Z</time>
      </trkpt>
      <trkpt lat="48.62657" lon="2.16884">
        <ele>117</ele>
        <time>2019-10-28T10:41:54.000Z</time>
      </trkpt>
      <trkpt lat="48.62656" lon="2.16886">
        <ele>117</ele>
        <time>2019-10-28T10:41:55.000Z</time>
      </trkpt>
      <trkpt lat="48.62656" lon="2.16888">
        <ele>117</ele>
        <time>2019-10-28T10:41:56.000Z</time>
      </trkpt>
      <trkpt lat="48.62655" lon="2.16889">
        <ele>117</ele>
        <time>2019-10-28T10:41:57.000Z</time>
      </trkpt>
      <trkpt lat="48.62654" lon="2.16891">
        <ele>118</ele>
        <time>2019-10-28T10:41:58.000Z</time>
      </trkpt>
      <trkpt lat="48.62653" lon="2.16893">
        <ele>118</ele>
        <time>2019-10-28T10:41:59.000Z</time>
      </trkpt>
      <trkpt lat="48.62652" lon="2.16895">
        <ele>118</ele>
        <time>2019-10-28T10:42:00.000Z</time>
      </trkpt>
      <trkpt lat="48.62652" lon="2.16897">
        <ele>118</ele>
        <time>2019-10-28T10:42:01.000Z</time>
      </trkpt>
      <trkpt lat="48.62651" lon="2.169">
        <ele>118</ele>
        <time>2019-10-28T10:42:02.000Z</time>
      </trkpt>
      <trkpt lat="48.6265" lon="2.16902">
        <ele>118</ele>
        <time>2019-10-28T10:42:03.000Z</time>
      </trkpt>
      <trkpt lat="48.62649" lon="2.16904">
        <ele>118</ele>
        <time>2019-10-28T10:42:04.000Z</time>
      </trkpt>
      <trkpt lat="48.62649" lon="2.16906">
        <ele>118</ele>
        <time>2019-10-28T10:42:05.000Z</time>
      </trkpt>
      <trkpt lat="48.62649" lon="2.16908">
        <ele>118</ele>
        <time>2019-10-28T10:42:06.000Z</time>
      </trkpt>
      <trkpt lat="48.62648" lon="2.1691">
        <ele>118</ele>
        <time>2019-10-28T10:42:07.000Z</time>
      </trkpt>
      <trkpt lat="48.62648" lon="2.16912">
        <ele>118</ele>
        <time>2019-10-28T10:42:08.000Z</time>
      </trkpt>
      <trkpt lat="48.62648" lon="2.16914">
        <ele>118</ele>
        <time>2019-10-28T10:42:09.000Z</time>
      </trkpt>
      <trkpt lat="48.62647" lon="2.16916">
        <ele>118</ele>
        <time>2019-10-28T10:42:10.000Z</time>
      </trkpt>
      <trkpt lat="48.62647" lon="2.16918">
        <ele>118</ele>
        <time>2019-10-28T10:42:11.000Z</time>
      </trkpt>
      <trkpt lat="48.62646" lon="2.16919">
        <ele>118</ele>
        <time>2019-10-28T10:42:12.000Z</time>
      </trkpt>
      <trkpt lat="48.62646" lon="2.16921">
        <ele>118</ele>
        <time>2019-10-28T10:42:13.000Z</time>
      </trkpt>
      <trkpt lat="48.62645" lon="2.16923">
        <ele>118</ele>
        <time>2019-10-28T10:42:14.000Z</time>
      </trkpt>
      <trkpt lat="48.62645" lon="2.16925">
        <ele>118</ele>
        <time>2019-10-28T10:42:15.000Z</time>
      </trkpt>
      <trkpt lat="48.62644" lon="2.16926">
        <ele>118</ele>
        <time>2019-10-28T10:42:16.000Z</time>
      </trkpt>
      <trkpt lat="48.62643" lon="2.16928">
        <ele>117</ele>
        <time>2019-10-28T10:42:17.000Z</time>
      </trkpt>
      <trkpt lat="48.62643" lon="2.1693">
        <ele>117</ele>
        <time>2019-10-28T10:42:18.000Z</time>
      </trkpt>
      <trkpt lat="48.62642" lon="2.16931">
        <ele>116</ele>
        <time>2019-10-28T10:42:19.000Z</time>
      </trkpt>
      <trkpt lat="48.62642" lon="2.16933">
        <ele>116</ele>
        <time>2019-10-28T10:42:20.000Z</time>
      </trkpt>
      <trkpt lat="48.62641" lon="2.16934">
        <ele>117</ele>
        <time>2019-10-28T10:42:21.000Z</time>
      </trkpt>
      <trkpt lat="48.6264" lon="2.16936">
        <ele>116</ele>
        <time>2019-10-28T10:42:22.000Z</time>
      </trkpt>
      <trkpt lat="48.62639" lon="2.16938">
        <ele>116</ele>
        <time>2019-10-28T10:42:23.000Z</time>
      </trkpt>
      <trkpt lat="48.62638" lon="2.1694">
        <ele>116</ele>
        <time>2019-10-28T10:42:24.000Z</time>
      </trkpt>
      <trkpt lat="48.62637" lon="2.16941">
        <ele>115</ele>
        <time>2019-10-28T10:42:25.000Z</time>
      </trkpt>
      <trkpt lat="48.62636" lon="2.16943">
        <ele>115</ele>
        <time>2019-10-28T10:42:26.000Z</time>
      </trkpt>
      <trkpt lat="48.62635" lon="2.16945">
        <ele>115</ele>
        <time>2019-10-28T10:42:27.000Z</time>
      </trkpt>
      <trkpt lat="48.62634" lon="2.16947">
        <ele>115</ele>
        <time>2019-10-28T10:42:28.000Z</time>
      </trkpt>
      <trkpt lat="48.62633" lon="2.16948">
        <ele>115</ele>
        <time>2019-10-28T10:42:29.000Z</time>
      </trkpt>
      <trkpt lat="48.62632" lon="2.1695">
        <ele>115</ele>
        <time>2019-10-28T10:42:30.000Z</time>
      </trkpt>
      <trkpt lat="48.62631" lon="2.16952">
        <ele>115</ele>
        <time>2019-10-28T10:42:31.000Z</time>
      </trkpt>
      <trkpt lat="48.6263" lon="2.16953">
        <ele>114</ele>
        <time>2019-10-28T10:42:32.000Z</time>
      </trkpt>
      <trkpt lat="48.62629" lon="2.16955">
        <ele>115</ele>
        <time>2019-10-28T10:42:33.000Z</time>
      </trkpt>
      <trkpt lat="48.62628" lon="2.16957">
        <ele>115</ele>
        <time>2019-10-28T10:42:34.000Z</time>
      </trkpt>
      <trkpt lat="48.62627" lon="2.16959">
        <ele>115</ele>
        <time>2019-10-28T10:42:35.000Z</time>
      </trkpt>
      <trkpt lat="48.62627" lon="2.16961">
        <ele>115</ele>
        <time>2019-10-28T10:42:36.000Z</time>
      </trkpt>
      <trkpt lat="48.62626" lon="2.16962">
        <ele>115</ele>
        <time>2019-10-28T10:42:37.000Z</time>
      </trkpt>
      <trkpt lat="48.62625" lon="2.16964">
        <ele>115</ele>
        <time>2019-10-28T10:42:38.000Z</time>
      </trkpt>
      <trkpt lat="48.62625" lon="2.16967">
        <ele>115</ele>
        <time>2019-10-28T10:42:39.000Z</time>
      </trkpt>
      <trkpt lat="48.62624" lon="2.16969">
        <ele>115</ele>
        <time>2019-10-28T10:42:40.000Z</time>
      </trkpt>
      <trkpt lat="48.62624" lon="2.16971">
        <ele>115</ele>
        <time>2019-10-28T10:42:41.000Z</time>
      </trkpt>
      <trkpt lat="48.62623" lon="2.16973">
        <ele>115</ele>
        <time>2019-10-28T10:42:42.000Z</time>
      </trkpt>
      <trkpt lat="48.62623" lon="2.16975">
        <ele>115</ele>
        <time>2019-10-28T10:42:43.000Z</time>
      </trkpt>
      <trkpt lat="48.62623" lon="2.16976">
        <ele>116</ele>
        <time>2019-10-28T10:42:44.000Z</time>
      </trkpt>
      <trkpt lat="48.62622" lon="2.16978">
        <ele>116</ele>
        <time>2019-10-28T10:42:45.000Z</time>
      </trkpt>
      <trkpt lat="48.62622" lon="2.1698">
        <ele>116</ele>
        <time>2019-10-28T10:42:46.000Z</time>
      </trkpt>
      <trkpt lat="48.62621" lon="2.16982">
        <ele>116</ele>
        <time>2019-10-28T10:42:47.000Z</time>
      </trkpt>
      <trkpt lat="48.62621" lon="2.16984">
        <ele>115</ele>
        <time>2019-10-28T10:42:48.000Z</time>
      </trkpt>
      <trkpt lat="48.6262" lon="2.16985">
        <ele>115</ele>
        <time>2019-10-28T10:42:49.000Z</time>
      </trkpt>
      <trkpt lat="48.62619" lon="2.16987">
        <ele>115</ele>
        <time>2019-10-28T10:42:50.000Z</time>
      </trkpt>
      <trkpt lat="48.62618" lon="2.16989">
        <ele>115</ele>
        <time>2019-10-28T10:42:51.000Z</time>
      </trkpt>
      <trkpt lat="48.62618" lon="2.16991">
        <ele>116</ele>
        <time>2019-10-28T10:42:52.000Z</time>
      </trkpt>
      <trkpt lat="48.62617" lon="2.16993">
        <ele>116</ele>
        <time>2019-10-28T10:42:53.000Z</time>
      </trkpt>
      <trkpt lat="48.62616" lon="2.16995">
        <ele>115</ele>
        <time>2019-10-28T10:42:54.000Z</time>
      </trkpt>
      <trkpt lat="48.62615" lon="2.16997">
        <ele>115</ele>
        <time>2019-10-28T10:42:55.000Z</time>
      </trkpt>
      <trkpt lat="48.62615" lon="2.16999">
        <ele>115</ele>
        <time>2019-10-28T10:42:56.000Z</time>
      </trkpt>
      <trkpt lat="48.62615" lon="2.17001">
        <ele>115</ele>
        <time>2019-10-28T10:42:57.000Z</time>
      </trkpt>
      <trkpt lat="48.62614" lon="2.17002">
        <ele>115</ele>
        <time>2019-10-28T10:42:58.000Z</time>
      </trkpt>
      <trkpt lat="48.62614" lon="2.17004">
        <ele>115</ele>
        <time>2019-10-28T10:42:59.000Z</time>
      </trkpt>
      <trkpt lat="48.62613" lon="2.17006">
        <ele>115</ele>
        <time>2019-10-28T10:43:00.000Z</time>
      </trkpt>
      <trkpt lat="48.62613" lon="2.17008">
        <ele>115</ele>
        <time>2019-10-28T10:43:01.000Z</time>
      </trkpt>
      <trkpt lat="48.62612" lon="2.1701">
        <ele>115</ele>
        <time>2019-10-28T10:43:02.000Z</time>
      </trkpt>
      <trkpt lat="48.62611" lon="2.17012">
        <ele>115</ele>
        <time>2019-10-28T10:43:03.000Z</time>
      </trkpt>
      <trkpt lat="48.6261" lon="2.17014">
        <ele>115</ele>
        <time>2019-10-28T10:43:04.000Z</time>
      </trkpt>
      <trkpt lat="48.62609" lon="2.17015">
        <ele>115</ele>
        <time>2019-10-28T10:43:05.000Z</time>
      </trkpt>
      <trkpt lat="48.62609" lon="2.17017">
        <ele>114</ele>
        <time>2019-10-28T10:43:06.000Z</time>
      </trkpt>
      <trkpt lat="48.62608" lon="2.17019">
        <ele>114</ele>
        <time>2019-10-28T10:43:07.000Z</time>
      </trkpt>
      <trkpt lat="48.62607" lon="2.17021">
        <ele>114</ele>
        <time>2019-10-28T10:43:08.000Z</time>
      </trkpt>
      <trkpt lat="48.62607" lon="2.17022">
        <ele>114</ele>
        <time>2019-10-28T10:43:09.000Z</time>
      </trkpt>
      <trkpt lat="48.62606" lon="2.17024">
        <ele>114</ele>
        <time>2019-10-28T10:43:10.000Z</time>
      </trkpt>
      <trkpt lat="48.62606" lon="2.17026">
        <ele>114</ele>
        <time>2019-10-28T10:43:11.000Z</time>
      </trkpt>
      <trkpt lat="48.62606" lon="2.17028">
        <ele>114</ele>
        <time>2019-10-28T10:43:12.000Z</time>
      </trkpt>
      <trkpt lat="48.62605" lon="2.1703">
        <ele>115</ele>
        <time>2019-10-28T10:43:13.000Z</time>
      </trkpt>
      <trkpt lat="48.62605" lon="2.17033">
        <ele>115</ele>
        <time>2019-10-28T10:43:14.000Z</time>
      </trkpt>
      <trkpt lat="48.62605" lon="2.17035">
        <ele>115</ele>
        <time>2019-10-28T10:43:15.000Z</time>
      </trkpt>
      <trkpt lat="48.62605" lon="2.17036">
        <ele>115</ele>
        <time>2019-10-28T10:43:16.000Z</time>
      </trkpt>
      <trkpt lat="48.62605" lon="2.17038">
        <ele>115</ele>
        <time>2019-10-28T10:43:17.000Z</time>
      </trkpt>
      <trkpt lat="48.62604" lon="2.1704">
        <ele>115</ele>
        <time>2019-10-28T10:43:18.000Z</time>
      </trkpt>
      <trkpt lat="48.62604" lon="2.17041">
        <ele>115</ele>
        <time>2019-10-28T10:43:19.000Z</time>
      </trkpt>
      <trkpt lat="48.62603" lon="2.17043">
        <ele>115</ele>
        <time>2019-10-28T10:43:20.000Z</time>
      </trkpt>
      <trkpt lat="48.62602" lon="2.17045">
        <ele>115</ele>
        <time>2019-10-28T10:43:21.000Z</time>
      </trkpt>
      <trkpt lat="48.62601" lon="2.17046">
        <ele>115</ele>
        <time>2019-10-28T10:43:22.000Z</time>
      </trkpt>
      <trkpt lat="48.62601" lon="2.17048">
        <ele>115</ele>
        <time>2019-10-28T10:43:23.000Z</time>
      </trkpt>
      <trkpt lat="48.626" lon="2.1705">
        <ele>115</ele>
        <time>2019-10-28T10:43:24.000Z</time>
      </trkpt>
      <trkpt lat="48.62599" lon="2.17051">
        <ele>114</ele>
        <time>2019-10-28T10:43:25.000Z</time>
      </trkpt>
      <trkpt lat="48.62598" lon="2.17053">
        <ele>114</ele>
        <time>2019-10-28T10:43:26.000Z</time>
      </trkpt>
      <trkpt lat="48.62597" lon="2.17054">
        <ele>114</ele>
        <time>2019-10-28T10:43:27.000Z</time>
      </trkpt>
      <trkpt lat="48.62596" lon="2.17055">
        <ele>114</ele>
        <time>2019-10-28T10:43:28.000Z</time>
      </trkpt>
      <trkpt lat="48.62596" lon="2.17057">
        <ele>114</ele>
        <time>2019-10-28T10:43:29.000Z</time>
      </trkpt>
      <trkpt lat="48.62595" lon="2.17059">
        <ele>115</ele>
        <time>2019-10-28T10:43:30.000Z</time>
      </trkpt>
      <trkpt lat="48.62595" lon="2.1706">
        <ele>115</ele>
        <time>2019-10-28T10:43:31.000Z</time>
      </trkpt>
      <trkpt lat="48.62595" lon="2.17062">
        <ele>115</ele>
        <time>2019-10-28T10:43:32.000Z</time>
      </trkpt>
      <trkpt lat="48.62594" lon="2.17064">
        <ele>115</ele>
        <time>2019-10-28T10:43:33.000Z</time>
      </trkpt>
      <trkpt lat="48.62594" lon="2.17065">
        <ele>115</ele>
        <time>2019-10-28T10:43:34.000Z</time>
      </trkpt>
      <trkpt lat="48.62594" lon="2.17067">
        <ele>115</ele>
        <time>2019-10-28T10:43:35.000Z</time>
      </trkpt>
      <trkpt lat="48.62594" lon="2.17069">
        <ele>114</ele>
        <time>2019-10-28T10:43:36.000Z</time>
      </trkpt>
      <trkpt lat="48.62593" lon="2.1707">
        <ele>114</ele>
        <time>2019-10-28T10:43:37.000Z</time>
      </trkpt>
      <trkpt lat="48.62593" lon="2.17072">
        <ele>113</ele>
        <time>2019-10-28T10:43:38.000Z</time>
      </trkpt>
      <trkpt lat="48.62592" lon="2.17073">
        <ele>114</ele>
        <time>2019-10-28T10:43:39.000Z</time>
      </trkpt>
      <trkpt lat="48.62592" lon="2.17075">
        <ele>114</ele>
        <time>2019-10-28T10:43:40.000Z</time>
      </trkpt>
      <trkpt lat="48.62591" lon="2.17077">
        <ele>114</ele>
        <time>2019-10-28T10:43:41.000Z</time>
      </trkpt>
      <trkpt lat="48.6259" lon="2.17079">
        <ele>115</ele>
        <time>2019-10-28T10:43:42.000Z</time>
      </trkpt>
      <trkpt lat="48.6259" lon="2.17081">
        <ele>114</ele>
        <time>2019-10-28T10:43:43.000Z</time>
      </trkpt>
      <trkpt lat="48.6259" lon="2.17083">
        <ele>115</ele>
        <time>2019-10-28T10:43:44.000Z</time>
      </trkpt>
      <trkpt lat="48.62589" lon="2.17084">
        <ele>114</ele>
        <time>2019-10-28T10:43:45.000Z</time>
      </trkpt>
      <trkpt lat="48.62589" lon="2.17085">
        <ele>114</ele>
        <time>2019-10-28T10:43:46.000Z</time>
      </trkpt>
      <trkpt lat="48.62589" lon="2.17086">
        <ele>114</ele>
        <time>2019-10-28T10:43:47.000Z</time>
      </trkpt>
      <trkpt lat="48.62589" lon="2.17087">
        <ele>115</ele>
        <time>2019-10-28T10:43:48.000Z</time>
      </trkpt>
      <trkpt lat="48.62589" lon="2.17087">
        <ele>115</ele>
        <time>2019-10-28T10:43:49.000Z</time>
      </trkpt>
      <trkpt lat="48.62589" lon="2.17088">
        <ele>115</ele>
        <time>2019-10-28T10:43:50.000Z</time>
      </trkpt>
      <trkpt lat="48.62589" lon="2.17088">
        <ele>115</ele>
        <time>2019-10-28T10:43:51.000Z</time>
      </trkpt>
      <trkpt lat="48.62589" lon="2.17088">
        <ele>116</ele>
        <time>2019-10-28T10:43:52.000Z</time>
      </trkpt>
      <trkpt lat="48.62589" lon="2.17089">
        <ele>116</ele>
        <time>2019-10-28T10:43:53.000Z</time>
      </trkpt>
      <trkpt lat="48.62589" lon="2.17089">
        <ele>115</ele>
        <time>2019-10-28T10:43:54.000Z</time>
      </trkpt>
      <trkpt lat="48.62588" lon="2.1709">
        <ele>115</ele>
        <time>2019-10-28T10:43:55.000Z</time>
      </trkpt>
      <trkpt lat="48.62588" lon="2.17091">
        <ele>115</ele>
        <time>2019-10-28T10:43:56.000Z</time>
      </trkpt>
      <trkpt lat="48.62587" lon="2.17092">
        <ele>115</ele>
        <time>2019-10-28T10:43:57.000Z</time>
      </trkpt>
      <trkpt lat="48.62587" lon="2.17094">
        <ele>115</ele>
        <time>2019-10-28T10:43:58.000Z</time>
      </trkpt>
      <trkpt lat="48.62586" lon="2.17095">
        <ele>114</ele>
        <time>2019-10-28T10:43:59.000Z</time>
      </trkpt>
      <trkpt lat="48.62586" lon="2.17096">
        <ele>114</ele>
        <time>2019-10-28T10:44:00.000Z</time>
      </trkpt>
      <trkpt lat="48.62586" lon="2.17097">
        <ele>114</ele>
        <time>2019-10-28T10:44:01.000Z</time>
      </trkpt>
      <trkpt lat="48.62585" lon="2.17098">
        <ele>115</ele>
        <time>2019-10-28T10:44:02.000Z</time>
      </trkpt>
      <trkpt lat="48.62585" lon="2.17098">
        <ele>116</ele>
        <time>2019-10-28T10:44:03.000Z</time>
      </trkpt>
      <trkpt lat="48.62585" lon="2.17099">
        <ele>117</ele>
        <time>2019-10-28T10:44:04.000Z</time>
      </trkpt>
      <trkpt lat="48.62585" lon="2.17099">
        <ele>117</ele>
        <time>2019-10-28T10:44:05.000Z</time>
      </trkpt>
      <trkpt lat="48.62585" lon="2.171">
        <ele>117</ele>
        <time>2019-10-28T10:44:06.000Z</time>
      </trkpt>
      <trkpt lat="48.62584" lon="2.17101">
        <ele>116</ele>
        <time>2019-10-28T10:44:07.000Z</time>
      </trkpt>
      <trkpt lat="48.62584" lon="2.17103">
        <ele>117</ele>
        <time>2019-10-28T10:44:08.000Z</time>
      </trkpt>
      <trkpt lat="48.62583" lon="2.17104">
        <ele>116</ele>
        <time>2019-10-28T10:44:09.000Z</time>
      </trkpt>
      <trkpt lat="48.62583" lon="2.17106">
        <ele>116</ele>
        <time>2019-10-28T10:44:10.000Z</time>
      </trkpt>
      <trkpt lat="48.62582" lon="2.17107">
        <ele>117</ele>
        <time>2019-10-28T10:44:11.000Z</time>
      </trkpt>
      <trkpt lat="48.62581" lon="2.17108">
        <ele>117</ele>
        <time>2019-10-28T10:44:12.000Z</time>
      </trkpt>
      <trkpt lat="48.62581" lon="2.17109">
        <ele>117</ele>
        <time>2019-10-28T10:44:13.000Z</time>
      </trkpt>
      <trkpt lat="48.6258" lon="2.1711">
        <ele>117</ele>
        <time>2019-10-28T10:44:14.000Z</time>
      </trkpt>
      <trkpt lat="48.6258" lon="2.17112">
        <ele>116</ele>
        <time>2019-10-28T10:44:15.000Z</time>
      </trkpt>
      <trkpt lat="48.62579" lon="2.17113">
        <ele>116</ele>
        <time>2019-10-28T10:44:16.000Z</time>
      </trkpt>
      <trkpt lat="48.62578" lon="2.17115">
        <ele>116</ele>
        <time>2019-10-28T10:44:17.000Z</time>
      </trkpt>
      <trkpt lat="48.62578" lon="2.17116">
        <ele>116</ele>
        <time>2019-10-28T10:44:18.000Z</time>
      </trkpt>
      <trkpt lat="48.62578" lon="2.17118">
        <ele>117</ele>
        <time>2019-10-28T10:44:19.000Z</time>
      </trkpt>
      <trkpt lat="48.62577" lon="2.17119">
        <ele>117</ele>
        <time>2019-10-28T10:44:20.000Z</time>
      </trkpt>
      <trkpt lat="48.62577" lon="2.1712">
        <ele>116</ele>
        <time>2019-10-28T10:44:21.000Z</time>
      </trkpt>
      <trkpt lat="48.62576" lon="2.17121">
        <ele>116</ele>
        <time>2019-10-28T10:44:22.000Z</time>
      </trkpt>
      <trkpt lat="48.62575" lon="2.17123">
        <ele>116</ele>
        <time>2019-10-28T10:44:23.000Z</time>
      </trkpt>
      <trkpt lat="48.62575" lon="2.17125">
        <ele>116</ele>
        <time>2019-10-28T10:44:24.000Z</time>
      </trkpt>
      <trkpt lat="48.62574" lon="2.17126">
        <ele>116</ele>
        <time>2019-10-28T10:44:25.000Z</time>
      </trkpt>
      <trkpt lat="48.62573" lon="2.17127">
        <ele>115</ele>
        <time>2019-10-28T10:44:26.000Z</time>
      </trkpt>
      <trkpt lat="48.62573" lon="2.17128">
        <ele>116</ele>
        <time>2019-10-28T10:44:27.000Z</time>
      </trkpt>
      <trkpt lat="48.62572" lon="2.1713">
        <ele>116</ele>
        <time>2019-10-28T10:44:28.000Z</time>
      </trkpt>
      <trkpt lat="48.62571" lon="2.17131">
        <ele>116</ele>
        <time>2019-10-28T10:44:29.000Z</time>
      </trkpt>
      <trkpt lat="48.62571" lon="2.17133">
        <ele>116</ele>
        <time>2019-10-28T10:44:30.000Z</time>
      </trkpt>
      <trkpt lat="48.6257" lon="2.17135">
        <ele>116</ele>
        <time>2019-10-28T10:44:31.000Z</time>
      </trkpt>
      <trkpt lat="48.62569" lon="2.17137">
        <ele>117</ele>
        <time>2019-10-28T10:44:32.000Z</time>
      </trkpt>
      <trkpt lat="48.62569" lon="2.17139">
        <ele>117</ele>
        <time>2019-10-28T10:44:33.000Z</time>
      </trkpt>
      <trkpt lat="48.62568" lon="2.17141">
        <ele>117</ele>
        <time>2019-10-28T10:44:34.000Z</time>
      </trkpt>
      <trkpt lat="48.62568" lon="2.17142">
        <ele>117</ele>
        <time>2019-10-28T10:44:35.000Z</time>
      </trkpt>
      <trkpt lat="48.62567" lon="2.17144">
        <ele>117</ele>
        <time>2019-10-28T10:44:36.000Z</time>
      </trkpt>
      <trkpt lat="48.62566" lon="2.17146">
        <ele>117</ele>
        <time>2019-10-28T10:44:37.000Z</time>
      </trkpt>
      <trkpt lat="48.62566" lon="2.17148">
        <ele>117</ele>
        <time>2019-10-28T10:44:38.000Z</time>
      </trkpt>
      <trkpt lat="48.62565" lon="2.17149">
        <ele>118</ele>
        <time>2019-10-28T10:44:39.000Z</time>
      </trkpt>
      <trkpt lat="48.62565" lon="2.17151">
        <ele>118</ele>
        <time>2019-10-28T10:44:40.000Z</time>
      </trkpt>
      <trkpt lat="48.62564" lon="2.17153">
        <ele>119</ele>
        <time>2019-10-28T10:44:41.000Z</time>
      </trkpt>
      <trkpt lat="48.62564" lon="2.17155">
        <ele>119</ele>
        <time>2019-10-28T10:44:42.000Z</time>
      </trkpt>
      <trkpt lat="48.62563" lon="2.17156">
        <ele>119</ele>
        <time>2019-10-28T10:44:43.000Z</time>
      </trkpt>
      <trkpt lat="48.62562" lon="2.17158">
        <ele>118</ele>
        <time>2019-10-28T10:44:44.000Z</time>
      </trkpt>
      <trkpt lat="48.62562" lon="2.17159">
        <ele>118</ele>
        <time>2019-10-28T10:44:45.000Z</time>
      </trkpt>
      <trkpt lat="48.62562" lon="2.1716">
        <ele>118</ele>
        <time>2019-10-28T10:44:46.000Z</time>
      </trkpt>
      <trkpt lat="48.62561" lon="2.17162">
        <ele>118</ele>
        <time>2019-10-28T10:44:47.000Z</time>
      </trkpt>
      <trkpt lat="48.62561" lon="2.17164">
        <ele>118</ele>
        <time>2019-10-28T10:44:48.000Z</time>
      </trkpt>
      <trkpt lat="48.6256" lon="2.17166">
        <ele>117</ele>
        <time>2019-10-28T10:44:49.000Z</time>
      </trkpt>
      <trkpt lat="48.6256" lon="2.17167">
        <ele>117</ele>
        <time>2019-10-28T10:44:50.000Z</time>
      </trkpt>
      <trkpt lat="48.62559" lon="2.17168">
        <ele>117</ele>
        <time>2019-10-28T10:44:51.000Z</time>
      </trkpt>
      <trkpt lat="48.62559" lon="2.17169">
        <ele>117</ele>
        <time>2019-10-28T10:44:52.000Z</time>
      </trkpt>
      <trkpt lat="48.62558" lon="2.1717">
        <ele>116</ele>
        <time>2019-10-28T10:44:53.000Z</time>
      </trkpt>
      <trkpt lat="48.62558" lon="2.17171">
        <ele>116</ele>
        <time>2019-10-28T10:44:54.000Z</time>
      </trkpt>
      <trkpt lat="48.62557" lon="2.17172">
        <ele>116</ele>
        <time>2019-10-28T10:44:55.000Z</time>
      </trkpt>
      <trkpt lat="48.62557" lon="2.17172">
        <ele>116</ele>
        <time>2019-10-28T10:44:56.000Z</time>
      </trkpt>
      <trkpt lat="48.62557" lon="2.17174">
        <ele>116</ele>
        <time>2019-10-28T10:44:57.000Z</time>
      </trkpt>
      <trkpt lat="48.62557" lon="2.17175">
        <ele>116</ele>
        <time>2019-10-28T10:44:58.000Z</time>
      </trkpt>
      <trkpt lat="48.62556" lon="2.17176">
        <ele>116</ele>
        <time>2019-10-28T10:44:59.000Z</time>
      </trkpt>
      <trkpt lat="48.62556" lon="2.17177">
        <ele>116</ele>
        <time>2019-10-28T10:45:00.000Z</time>
      </trkpt>
      <trkpt lat="48.62555" lon="2.17178">
        <ele>116</ele>
        <time>2019-10-28T10:45:01.000Z</time>
      </trkpt>
      <trkpt lat="48.62555" lon="2.17179">
        <ele>116</ele>
        <time>2019-10-28T10:45:02.000Z</time>
      </trkpt>
      <trkpt lat="48.62554" lon="2.1718">
        <ele>116</ele>
        <time>2019-10-28T10:45:03.000Z</time>
      </trkpt>
      <trkpt lat="48.62554" lon="2.17182">
        <ele>116</ele>
        <time>2019-10-28T10:45:04.000Z</time>
      </trkpt>
      <trkpt lat="48.62553" lon="2.17183">
        <ele>116</ele>
        <time>2019-10-28T10:45:05.000Z</time>
      </trkpt>
      <trkpt lat="48.62552" lon="2.17185">
        <ele>116</ele>
        <time>2019-10-28T10:45:06.000Z</time>
      </trkpt>
      <trkpt lat="48.62552" lon="2.17187">
        <ele>115</ele>
        <time>2019-10-28T10:45:07.000Z</time>
      </trkpt>
      <trkpt lat="48.62551" lon="2.17189">
        <ele>116</ele>
        <time>2019-10-28T10:45:08.000Z</time>
      </trkpt>
      <trkpt lat="48.6255" lon="2.17191">
        <ele>116</ele>
        <time>2019-10-28T10:45:09.000Z</time>
      </trkpt>
      <trkpt lat="48.6255" lon="2.17193">
        <ele>116</ele>
        <time>2019-10-28T10:45:10.000Z</time>
      </trkpt>
      <trkpt lat="48.62549" lon="2.17195">
        <ele>116</ele>
        <time>2019-10-28T10:45:11.000Z</time>
      </trkpt>
      <trkpt lat="48.62549" lon="2.17196">
        <ele>116</ele>
        <time>2019-10-28T10:45:12.000Z</time>
      </trkpt>
      <trkpt lat="48.62548" lon="2.17198">
        <ele>116</ele>
        <time>2019-10-28T10:45:13.000Z</time>
      </trkpt>
      <trkpt lat="48.62548" lon="2.17199">
        <ele>116</ele>
        <time>2019-10-28T10:45:14.000Z</time>
      </trkpt>
      <trkpt lat="48.62547" lon="2.17201">
        <ele>116</ele>
        <time>2019-10-28T10:45:15.000Z</time>
      </trkpt>
      <trkpt lat="48.62546" lon="2.17203">
        <ele>117</ele>
        <time>2019-10-28T10:45:16.000Z</time>
      </trkpt>
      <trkpt lat="48.62546" lon="2.17204">
        <ele>117</ele>
        <time>2019-10-28T10:45:17.000Z</time>
      </trkpt>
      <trkpt lat="48.62545" lon="2.17205">
        <ele>116</ele>
        <time>2019-10-28T10:45:18.000Z</time>
      </trkpt>
      <trkpt lat="48.62545" lon="2.17207">
        <ele>116</ele>
        <time>2019-10-28T10:45:19.000Z</time>
      </trkpt>
      <trkpt lat="48.62544" lon="2.17208">
        <ele>116</ele>
        <time>2019-10-28T10:45:20.000Z</time>
      </trkpt>
      <trkpt lat="48.62544" lon="2.1721">
        <ele>116</ele>
        <time>2019-10-28T10:45:21.000Z</time>
      </trkpt>
      <trkpt lat="48.62543" lon="2.17211">
        <ele>117</ele>
        <time>2019-10-28T10:45:22.000Z</time>
      </trkpt>
      <trkpt lat="48.62542" lon="2.17212">
        <ele>117</ele>
        <time>2019-10-28T10:45:23.000Z</time>
      </trkpt>
      <trkpt lat="48.62542" lon="2.17214">
        <ele>117</ele>
        <time>2019-10-28T10:45:24.000Z</time>
      </trkpt>
      <trkpt lat="48.62541" lon="2.17216">
        <ele>116</ele>
        <time>2019-10-28T10:45:25.000Z</time>
      </trkpt>
      <trkpt lat="48.62541" lon="2.17218">
        <ele>117</ele>
        <time>2019-10-28T10:45:26.000Z</time>
      </trkpt>
      <trkpt lat="48.62541" lon="2.1722">
        <ele>117</ele>
        <time>2019-10-28T10:45:27.000Z</time>
      </trkpt>
      <trkpt lat="48.62541" lon="2.17222">
        <ele>117</ele>
        <time>2019-10-28T10:45:28.000Z</time>
      </trkpt>
      <trkpt lat="48.6254" lon="2.17223">
        <ele>117</ele>
        <time>2019-10-28T10:45:29.000Z</time>
      </trkpt>
      <trkpt lat="48.62539" lon="2.17225">
        <ele>117</ele>
        <time>2019-10-28T10:45:30.000Z</time>
      </trkpt>
      <trkpt lat="48.62538" lon="2.17226">
        <ele>117</ele>
        <time>2019-10-28T10:45:31.000Z</time>
      </trkpt>
      <trkpt lat="48.62537" lon="2.17228">
        <ele>117</ele>
        <time>2019-10-28T10:45:32.000Z</time>
      </trkpt>
      <trkpt lat="48.62537" lon="2.1723">
        <ele>117</ele>
        <time>2019-10-28T10:45:33.000Z</time>
      </trkpt>
      <trkpt lat="48.62536" lon="2.17232">
        <ele>116</ele>
        <time>2019-10-28T10:45:34.000Z</time>
      </trkpt>
      <trkpt lat="48.62535" lon="2.17234">
        <ele>116</ele>
        <time>2019-10-28T10:45:35.000Z</time>
      </trkpt>
      <trkpt lat="48.62534" lon="2.17235">
        <ele>116</ele>
        <time>2019-10-28T10:45:36.000Z</time>
      </trkpt>
      <trkpt lat="48.62533" lon="2.17237">
        <ele>117</ele>
        <time>2019-10-28T10:45:37.000Z</time>
      </trkpt>
      <trkpt lat="48.62533" lon="2.17239">
        <ele>117</ele>
        <time>2019-10-28T10:45:38.000Z</time>
      </trkpt>
      <trkpt lat="48.62532" lon="2.17241">
        <ele>117</ele>
        <time>2019-10-28T10:45:39.000Z</time>
      </trkpt>
      <trkpt lat="48.62531" lon="2.17243">
        <ele>117</ele>
        <time>2019-10-28T10:45:40.000Z</time>
      </trkpt>
      <trkpt lat="48.62531" lon="2.17245">
        <ele>117</ele>
        <time>2019-10-28T10:45:41.000Z</time>
      </trkpt>
      <trkpt lat="48.6253" lon="2.17246">
        <ele>117</ele>
        <time>2019-10-28T10:45:42.000Z</time>
      </trkpt>
      <trkpt lat="48.62529" lon="2.17248">
        <ele>118</ele>
        <time>2019-10-28T10:45:43.000Z</time>
      </trkpt>
      <trkpt lat="48.62528" lon="2.1725">
        <ele>118</ele>
        <time>2019-10-28T10:45:44.000Z</time>
      </trkpt>
      <trkpt lat="48.62527" lon="2.17252">
        <ele>118</ele>
        <time>2019-10-28T10:45:45.000Z</time>
      </trkpt>
      <trkpt lat="48.62527" lon="2.17253">
        <ele>118</ele>
        <time>2019-10-28T10:45:46.000Z</time>
      </trkpt>
      <trkpt lat="48.62526" lon="2.17255">
        <ele>119</ele>
        <time>2019-10-28T10:45:47.000Z</time>
      </trkpt>
      <trkpt lat="48.62525" lon="2.17257">
        <ele>119</ele>
        <time>2019-10-28T10:45:48.000Z</time>
      </trkpt>
      <trkpt lat="48.62525" lon="2.17259">
        <ele>118</ele>
        <time>2019-10-28T10:45:49.000Z</time>
      </trkpt>
      <trkpt lat="48.62524" lon="2.17261">
        <ele>118</ele>
        <time>2019-10-28T10:45:50.000Z</time>
      </trkpt>
      <trkpt lat="48.62524" lon="2.17262">
        <ele>118</ele>
        <time>2019-10-28T10:45:51.000Z</time>
      </trkpt>
      <trkpt lat="48.62523" lon="2.17264">
        <ele>119</ele>
        <time>2019-10-28T10:45:52.000Z</time>
      </trkpt>
      <trkpt lat="48.62522" lon="2.17266">
        <ele>119</ele>
        <time>2019-10-28T10:45:53.000Z</time>
      </trkpt>
      <trkpt lat="48.62521" lon="2.17267">
        <ele>118</ele>
        <time>2019-10-28T10:45:54.000Z</time>
      </trkpt>
      <trkpt lat="48.62521" lon="2.17268">
        <ele>119</ele>
        <time>2019-10-28T10:45:55.000Z</time>
      </trkpt>
      <trkpt lat="48.6252" lon="2.1727">
        <ele>119</ele>
        <time>2019-10-28T10:45:56.000Z</time>
      </trkpt>
      <trkpt lat="48.6252" lon="2.17272">
        <ele>119</ele>
        <time>2019-10-28T10:45:57.000Z</time>
      </trkpt>
      <trkpt lat="48.62519" lon="2.17273">
        <ele>120</ele>
        <time>2019-10-28T10:45:58.000Z</time>
      </trkpt>
      <trkpt lat="48.62519" lon="2.17275">
        <ele>120</ele>
        <time>2019-10-28T10:45:59.000Z</time>
      </trkpt>
      <trkpt lat="48.62518" lon="2.17276">
        <ele>120</ele>
        <time>2019-10-28T10:46:00.000Z</time>
      </trkpt>
      <trkpt lat="48.62518" lon="2.17278">
        <ele>120</ele>
        <time>2019-10-28T10:46:01.000Z</time>
      </trkpt>
      <trkpt lat="48.62518" lon="2.17279">
        <ele>120</ele>
        <time>2019-10-28T10:46:02.000Z</time>
      </trkpt>
      <trkpt lat="48.62518" lon="2.1728">
        <ele>120</ele>
        <time>2019-10-28T10:46:03.000Z</time>
      </trkpt>
      <trkpt lat="48.62517" lon="2.1728">
        <ele>120</ele>
        <time>2019-10-28T10:46:04.000Z</time>
      </trkpt>
      <trkpt lat="48.62517" lon="2.17282">
        <ele>120</ele>
        <time>2019-10-28T10:46:05.000Z</time>
      </trkpt>
      <trkpt lat="48.62517" lon="2.17283">
        <ele>121</ele>
        <time>2019-10-28T10:46:06.000Z</time>
      </trkpt>
      <trkpt lat="48.62516" lon="2.17285">
        <ele>121</ele>
        <time>2019-10-28T10:46:07.000Z</time>
      </trkpt>
      <trkpt lat="48.62516" lon="2.17286">
        <ele>122</ele>
        <time>2019-10-28T10:46:08.000Z</time>
      </trkpt>
      <trkpt lat="48.62515" lon="2.17288">
        <ele>122</ele>
        <time>2019-10-28T10:46:09.000Z</time>
      </trkpt>
      <trkpt lat="48.62515" lon="2.1729">
        <ele>123</ele>
        <time>2019-10-28T10:46:10.000Z</time>
      </trkpt>
      <trkpt lat="48.62514" lon="2.17292">
        <ele>123</ele>
        <time>2019-10-28T10:46:11.000Z</time>
      </trkpt>
      <trkpt lat="48.62514" lon="2.17294">
        <ele>124</ele>
        <time>2019-10-28T10:46:12.000Z</time>
      </trkpt>
      <trkpt lat="48.62513" lon="2.17296">
        <ele>123</ele>
        <time>2019-10-28T10:46:13.000Z</time>
      </trkpt>
      <trkpt lat="48.62512" lon="2.17298">
        <ele>123</ele>
        <time>2019-10-28T10:46:14.000Z</time>
      </trkpt>
      <trkpt lat="48.62511" lon="2.173">
        <ele>124</ele>
        <time>2019-10-28T10:46:15.000Z</time>
      </trkpt>
      <trkpt lat="48.6251" lon="2.17303">
        <ele>124</ele>
        <time>2019-10-28T10:46:16.000Z</time>
      </trkpt>
      <trkpt lat="48.62509" lon="2.17304">
        <ele>124</ele>
        <time>2019-10-28T10:46:17.000Z</time>
      </trkpt>
      <trkpt lat="48.62508" lon="2.17306">
        <ele>124</ele>
        <time>2019-10-28T10:46:18.000Z</time>
      </trkpt>
      <trkpt lat="48.62508" lon="2.17308">
        <ele>124</ele>
        <time>2019-10-28T10:46:19.000Z</time>
      </trkpt>
      <trkpt lat="48.62507" lon="2.1731">
        <ele>124</ele>
        <time>2019-10-28T10:46:20.000Z</time>
      </trkpt>
      <trkpt lat="48.62506" lon="2.17312">
        <ele>124</ele>
        <time>2019-10-28T10:46:21.000Z</time>
      </trkpt>
      <trkpt lat="48.62505" lon="2.17313">
        <ele>124</ele>
        <time>2019-10-28T10:46:22.000Z</time>
      </trkpt>
      <trkpt lat="48.62505" lon="2.17315">
        <ele>124</ele>
        <time>2019-10-28T10:46:23.000Z</time>
      </trkpt>
      <trkpt lat="48.62504" lon="2.17317">
        <ele>124</ele>
        <time>2019-10-28T10:46:24.000Z</time>
      </trkpt>
      <trkpt lat="48.62503" lon="2.17318">
        <ele>123</ele>
        <time>2019-10-28T10:46:25.000Z</time>
      </trkpt>
      <trkpt lat="48.62503" lon="2.1732">
        <ele>123</ele>
        <time>2019-10-28T10:46:26.000Z</time>
      </trkpt>
      <trkpt lat="48.62502" lon="2.17322">
        <ele>123</ele>
        <time>2019-10-28T10:46:27.000Z</time>
      </trkpt>
      <trkpt lat="48.62502" lon="2.17323">
        <ele>124</ele>
        <time>2019-10-28T10:46:28.000Z</time>
      </trkpt>
      <trkpt lat="48.62502" lon="2.17325">
        <ele>124</ele>
        <time>2019-10-28T10:46:29.000Z</time>
      </trkpt>
      <trkpt lat="48.62502" lon="2.17327">
        <ele>124</ele>
        <time>2019-10-28T10:46:30.000Z</time>
      </trkpt>
      <trkpt lat="48.62501" lon="2.1733">
        <ele>124</ele>
        <time>2019-10-28T10:46:31.000Z</time>
      </trkpt>
      <trkpt lat="48.625" lon="2.17332">
        <ele>125</ele>
        <time>2019-10-28T10:46:32.000Z</time>
      </trkpt>
      <trkpt lat="48.625" lon="2.17334">
        <ele>125</ele>
        <time>2019-10-28T10:46:33.000Z</time>
      </trkpt>
      <trkpt lat="48.62499" lon="2.17336">
        <ele>126</ele>
        <time>2019-10-28T10:46:34.000Z</time>
      </trkpt>
      <trkpt lat="48.62498" lon="2.17338">
        <ele>126</ele>
        <time>2019-10-28T10:46:35.000Z</time>
      </trkpt>
      <trkpt lat="48.62497" lon="2.1734">
        <ele>126</ele>
        <time>2019-10-28T10:46:36.000Z</time>
      </trkpt>
      <trkpt lat="48.62496" lon="2.17341">
        <ele>126</ele>
        <time>2019-10-28T10:46:37.000Z</time>
      </trkpt>
      <trkpt lat="48.62496" lon="2.17343">
        <ele>126</ele>
        <time>2019-10-28T10:46:38.000Z</time>
      </trkpt>
      <trkpt lat="48.62495" lon="2.17345">
        <ele>127</ele>
        <time>2019-10-28T10:46:39.000Z</time>
      </trkpt>
      <trkpt lat="48.62494" lon="2.17346">
        <ele>127</ele>
        <time>2019-10-28T10:46:40.000Z</time>
      </trkpt>
      <trkpt lat="48.62494" lon="2.17347">
        <ele>127</ele>
        <time>2019-10-28T10:46:41.000Z</time>
      </trkpt>
      <trkpt lat="48.62493" lon="2.17349">
        <ele>126</ele>
        <time>2019-10-28T10:46:42.000Z</time>
      </trkpt>
      <trkpt lat="48.62493" lon="2.1735">
        <ele>125</ele>
        <time>2019-10-28T10:46:43.000Z</time>
      </trkpt>
      <trkpt lat="48.62492" lon="2.17352">
        <ele>125</ele>
        <time>2019-10-28T10:46:44.000Z</time>
      </trkpt>
      <trkpt lat="48.62491" lon="2.17354">
        <ele>126</ele>
        <time>2019-10-28T10:46:45.000Z</time>
      </trkpt>
      <trkpt lat="48.6249" lon="2.17356">
        <ele>126</ele>
        <time>2019-10-28T10:46:46.000Z</time>
      </trkpt>
      <trkpt lat="48.62489" lon="2.17358">
        <ele>126</ele>
        <time>2019-10-28T10:46:47.000Z</time>
      </trkpt>
      <trkpt lat="48.62489" lon="2.1736">
        <ele>127</ele>
        <time>2019-10-28T10:46:48.000Z</time>
      </trkpt>
      <trkpt lat="48.62488" lon="2.17361">
        <ele>127</ele>
        <time>2019-10-28T10:46:49.000Z</time>
      </trkpt>
      <trkpt lat="48.62488" lon="2.17363">
        <ele>127</ele>
        <time>2019-10-28T10:46:50.000Z</time>
      </trkpt>
      <trkpt lat="48.62488" lon="2.17364">
        <ele>126</ele>
        <time>2019-10-28T10:46:51.000Z</time>
      </trkpt>
      <trkpt lat="48.62487" lon="2.17366">
        <ele>126</ele>
        <time>2019-10-28T10:46:52.000Z</time>
      </trkpt>
      <trkpt lat="48.62486" lon="2.17368">
        <ele>126</ele>
        <time>2019-10-28T10:46:53.000Z</time>
      </trkpt>
      <trkpt lat="48.62485" lon="2.17369">
        <ele>124</ele>
        <time>2019-10-28T10:46:54.000Z</time>
      </trkpt>
      <trkpt lat="48.62485" lon="2.17371">
        <ele>125</ele>
        <time>2019-10-28T10:46:55.000Z</time>
      </trkpt>
      <trkpt lat="48.62484" lon="2.17373">
        <ele>125</ele>
        <time>2019-10-28T10:46:56.000Z</time>
      </trkpt>
      <trkpt lat="48.62483" lon="2.17375">
        <ele>125</ele>
        <time>2019-10-28T10:46:57.000Z</time>
      </trkpt>
      <trkpt lat="48.62482" lon="2.17377">
        <ele>125</ele>
        <time>2019-10-28T10:46:58.000Z</time>
      </trkpt>
      <trkpt lat="48.62482" lon="2.17379">
        <ele>125</ele>
        <time>2019-10-28T10:46:59.000Z</time>
      </trkpt>
      <trkpt lat="48.62481" lon="2.17381">
        <ele>125</ele>
        <time>2019-10-28T10:47:00.000Z</time>
      </trkpt>
      <trkpt lat="48.6248" lon="2.17383">
        <ele>125</ele>
        <time>2019-10-28T10:47:01.000Z</time>
      </trkpt>
      <trkpt lat="48.6248" lon="2.17385">
        <ele>126</ele>
        <time>2019-10-28T10:47:02.000Z</time>
      </trkpt>
      <trkpt lat="48.62479" lon="2.17387">
        <ele>127</ele>
        <time>2019-10-28T10:47:03.000Z</time>
      </trkpt>
      <trkpt lat="48.62479" lon="2.17389">
        <ele>127</ele>
        <time>2019-10-28T10:47:04.000Z</time>
      </trkpt>
      <trkpt lat="48.62478" lon="2.17391">
        <ele>126</ele>
        <time>2019-10-28T10:47:05.000Z</time>
      </trkpt>
      <trkpt lat="48.62478" lon="2.17393">
        <ele>126</ele>
        <time>2019-10-28T10:47:06.000Z</time>
      </trkpt>
      <trkpt lat="48.62477" lon="2.17395">
        <ele>126</ele>
        <time>2019-10-28T10:47:07.000Z</time>
      </trkpt>
      <trkpt lat="48.62476" lon="2.17396">
        <ele>126</ele>
        <time>2019-10-28T10:47:08.000Z</time>
      </trkpt>
      <trkpt lat="48.62476" lon="2.17398">
        <ele>127</ele>
        <time>2019-10-28T10:47:09.000Z</time>
      </trkpt>
      <trkpt lat="48.62475" lon="2.17399">
        <ele>127</ele>
        <time>2019-10-28T10:47:10.000Z</time>
      </trkpt>
      <trkpt lat="48.62474" lon="2.17401">
        <ele>128</ele>
        <time>2019-10-28T10:47:11.000Z</time>
      </trkpt>
      <trkpt lat="48.62473" lon="2.17402">
        <ele>128</ele>
        <time>2019-10-28T10:47:12.000Z</time>
      </trkpt>
      <trkpt lat="48.62473" lon="2.17404">
        <ele>128</ele>
        <time>2019-10-28T10:47:13.000Z</time>
      </trkpt>
      <trkpt lat="48.62472" lon="2.17406">
        <ele>128</ele>
        <time>2019-10-28T10:47:14.000Z</time>
      </trkpt>
      <trkpt lat="48.62471" lon="2.17407">
        <ele>129</ele>
        <time>2019-10-28T10:47:15.000Z</time>
      </trkpt>
      <trkpt lat="48.62471" lon="2.17409">
        <ele>130</ele>
        <time>2019-10-28T10:47:16.000Z</time>
      </trkpt>
      <trkpt lat="48.6247" lon="2.17411">
        <ele>129</ele>
        <time>2019-10-28T10:47:17.000Z</time>
      </trkpt>
      <trkpt lat="48.6247" lon="2.17414">
        <ele>130</ele>
        <time>2019-10-28T10:47:18.000Z</time>
      </trkpt>
      <trkpt lat="48.62469" lon="2.17416">
        <ele>130</ele>
        <time>2019-10-28T10:47:19.000Z</time>
      </trkpt>
      <trkpt lat="48.62469" lon="2.17418">
        <ele>129</ele>
        <time>2019-10-28T10:47:20.000Z</time>
      </trkpt>
      <trkpt lat="48.62468" lon="2.1742">
        <ele>130</ele>
        <time>2019-10-28T10:47:21.000Z</time>
      </trkpt>
      <trkpt lat="48.62468" lon="2.17422">
        <ele>129</ele>
        <time>2019-10-28T10:47:22.000Z</time>
      </trkpt>
      <trkpt lat="48.62467" lon="2.17424">
        <ele>131</ele>
        <time>2019-10-28T10:47:23.000Z</time>
      </trkpt>
      <trkpt lat="48.62466" lon="2.17425">
        <ele>131</ele>
        <time>2019-10-28T10:47:24.000Z</time>
      </trkpt>
      <trkpt lat="48.62466" lon="2.17427">
        <ele>131</ele>
        <time>2019-10-28T10:47:25.000Z</time>
      </trkpt>
      <trkpt lat="48.62466" lon="2.17429">
        <ele>131</ele>
        <time>2019-10-28T10:47:26.000Z</time>
      </trkpt>
      <trkpt lat="48.62465" lon="2.1743">
        <ele>130</ele>
        <time>2019-10-28T10:47:27.000Z</time>
      </trkpt>
      <trkpt lat="48.62464" lon="2.17432">
        <ele>130</ele>
        <time>2019-10-28T10:47:28.000Z</time>
      </trkpt>
      <trkpt lat="48.62464" lon="2.17433">
        <ele>129</ele>
        <time>2019-10-28T10:47:29.000Z</time>
      </trkpt>
      <trkpt lat="48.62463" lon="2.17434">
        <ele>128</ele>
        <time>2019-10-28T10:47:30.000Z</time>
      </trkpt>
      <trkpt lat="48.62462" lon="2.17436">
        <ele>127</ele>
        <time>2019-10-28T10:47:31.000Z</time>
      </trkpt>
      <trkpt lat="48.62462" lon="2.17437">
        <ele>127</ele>
        <time>2019-10-28T10:47:32.000Z</time>
      </trkpt>
      <trkpt lat="48.62461" lon="2.17439">
        <ele>128</ele>
        <time>2019-10-28T10:47:33.000Z</time>
      </trkpt>
      <trkpt lat="48.6246" lon="2.17441">
        <ele>129</ele>
        <time>2019-10-28T10:47:34.000Z</time>
      </trkpt>
      <trkpt lat="48.6246" lon="2.17442">
        <ele>130</ele>
        <time>2019-10-28T10:47:35.000Z</time>
      </trkpt>
      <trkpt lat="48.62459" lon="2.17444">
        <ele>130</ele>
        <time>2019-10-28T10:47:36.000Z</time>
      </trkpt>
      <trkpt lat="48.62458" lon="2.17446">
        <ele>130</ele>
        <time>2019-10-28T10:47:37.000Z</time>
      </trkpt>
      <trkpt lat="48.62457" lon="2.17448">
        <ele>130</ele>
        <time>2019-10-28T10:47:38.000Z</time>
      </trkpt>
      <trkpt lat="48.62457" lon="2.17449">
        <ele>130</ele>
        <time>2019-10-28T10:47:39.000Z</time>
      </trkpt>
      <trkpt lat="48.62456" lon="2.17451">
        <ele>131</ele>
        <time>2019-10-28T10:47:40.000Z</time>
      </trkpt>
      <trkpt lat="48.62455" lon="2.17453">
        <ele>131</ele>
        <time>2019-10-28T10:47:41.000Z</time>
      </trkpt>
      <trkpt lat="48.62455" lon="2.17454">
        <ele>131</ele>
        <time>2019-10-28T10:47:42.000Z</time>
      </trkpt>
      <trkpt lat="48.62454" lon="2.17456">
        <ele>130</ele>
        <time>2019-10-28T10:47:43.000Z</time>
      </trkpt>
      <trkpt lat="48.62454" lon="2.17457">
        <ele>130</ele>
        <time>2019-10-28T10:47:44.000Z</time>
      </trkpt>
      <trkpt lat="48.62453" lon="2.17459">
        <ele>130</ele>
        <time>2019-10-28T10:47:45.000Z</time>
      </trkpt>
      <trkpt lat="48.62452" lon="2.17461">
        <ele>129</ele>
        <time>2019-10-28T10:47:46.000Z</time>
      </trkpt>
      <trkpt lat="48.62452" lon="2.17463">
        <ele>130</ele>
        <time>2019-10-28T10:47:47.000Z</time>
      </trkpt>
      <trkpt lat="48.62451" lon="2.17465">
        <ele>130</ele>
        <time>2019-10-28T10:47:48.000Z</time>
      </trkpt>
      <trkpt lat="48.6245" lon="2.17467">
        <ele>130</ele>
        <time>2019-10-28T10:47:49.000Z</time>
      </trkpt>
      <trkpt lat="48.62449" lon="2.17469">
        <ele>131</ele>
        <time>2019-10-28T10:47:50.000Z</time>
      </trkpt>
      <trkpt lat="48.62448" lon="2.17471">
        <ele>131</ele>
        <time>2019-10-28T10:47:51.000Z</time>
      </trkpt>
      <trkpt lat="48.62447" lon="2.17473">
        <ele>131</ele>
        <time>2019-10-28T10:47:52.000Z</time>
      </trkpt>
      <trkpt lat="48.62447" lon="2.17475">
        <ele>132</ele>
        <time>2019-10-28T10:47:53.000Z</time>
      </trkpt>
      <trkpt lat="48.62446" lon="2.17477">
        <ele>132</ele>
        <time>2019-10-28T10:47:54.000Z</time>
      </trkpt>
      <trkpt lat="48.62445" lon="2.17478">
        <ele>131</ele>
        <time>2019-10-28T10:47:55.000Z</time>
      </trkpt>
      <trkpt lat="48.62445" lon="2.1748">
        <ele>130</ele>
        <time>2019-10-28T10:47:56.000Z</time>
      </trkpt>
      <trkpt lat="48.62444" lon="2.17481">
        <ele>131</ele>
        <time>2019-10-28T10:47:57.000Z</time>
      </trkpt>
      <trkpt lat="48.62443" lon="2.17483">
        <ele>132</ele>
        <time>2019-10-28T10:47:58.000Z</time>
      </trkpt>
      <trkpt lat="48.62442" lon="2.17485">
        <ele>132</ele>
        <time>2019-10-28T10:47:59.000Z</time>
      </trkpt>
      <trkpt lat="48.62441" lon="2.17487">
        <ele>131</ele>
        <time>2019-10-28T10:48:00.000Z</time>
      </trkpt>
      <trkpt lat="48.6244" lon="2.17489">
        <ele>130</ele>
        <time>2019-10-28T10:48:01.000Z</time>
      </trkpt>
      <trkpt lat="48.6244" lon="2.17491">
        <ele>130</ele>
        <time>2019-10-28T10:48:02.000Z</time>
      </trkpt>
      <trkpt lat="48.62439" lon="2.17493">
        <ele>130</ele>
        <time>2019-10-28T10:48:03.000Z</time>
      </trkpt>
      <trkpt lat="48.62438" lon="2.17495">
        <ele>130</ele>
        <time>2019-10-28T10:48:04.000Z</time>
      </trkpt>
      <trkpt lat="48.62437" lon="2.17497">
        <ele>131</ele>
        <time>2019-10-28T10:48:05.000Z</time>
      </trkpt>
      <trkpt lat="48.62436" lon="2.17499">
        <ele>131</ele>
        <time>2019-10-28T10:48:06.000Z</time>
      </trkpt>
      <trkpt lat="48.62436" lon="2.17501">
        <ele>130</ele>
        <time>2019-10-28T10:48:07.000Z</time>
      </trkpt>
      <trkpt lat="48.62435" lon="2.17503">
        <ele>131</ele>
        <time>2019-10-28T10:48:08.000Z</time>
      </trkpt>
      <trkpt lat="48.62435" lon="2.17505">
        <ele>131</ele>
        <time>2019-10-28T10:48:09.000Z</time>
      </trkpt>
      <trkpt lat="48.62435" lon="2.17506">
        <ele>131</ele>
        <time>2019-10-28T10:48:10.000Z</time>
      </trkpt>
      <trkpt lat="48.62434" lon="2.17508">
        <ele>131</ele>
        <time>2019-10-28T10:48:11.000Z</time>
      </trkpt>
      <trkpt lat="48.62434" lon="2.1751">
        <ele>131</ele>
        <time>2019-10-28T10:48:12.000Z</time>
      </trkpt>
      <trkpt lat="48.62434" lon="2.17512">
        <ele>131</ele>
        <time>2019-10-28T10:48:13.000Z</time>
      </trkpt>
      <trkpt lat="48.62433" lon="2.17513">
        <ele>132</ele>
        <time>2019-10-28T10:48:14.000Z</time>
      </trkpt>
      <trkpt lat="48.62433" lon="2.17515">
        <ele>131</ele>
        <time>2019-10-28T10:48:15.000Z</time>
      </trkpt>
      <trkpt lat="48.62432" lon="2.17517">
        <ele>132</ele>
        <time>2019-10-28T10:48:16.000Z</time>
      </trkpt>
      <trkpt lat="48.62432" lon="2.17519">
        <ele>132</ele>
        <time>2019-10-28T10:48:17.000Z</time>
      </trkpt>
      <trkpt lat="48.62431" lon="2.17521">
        <ele>132</ele>
        <time>2019-10-28T10:48:18.000Z</time>
      </trkpt>
      <trkpt lat="48.62431" lon="2.17522">
        <ele>132</ele>
        <time>2019-10-28T10:48:19.000Z</time>
      </trkpt>
      <trkpt lat="48.6243" lon="2.17524">
        <ele>132</ele>
        <time>2019-10-28T10:48:20.000Z</time>
      </trkpt>
      <trkpt lat="48.6243" lon="2.17526">
        <ele>132</ele>
        <time>2019-10-28T10:48:21.000Z</time>
      </trkpt>
      <trkpt lat="48.62429" lon="2.17527">
        <ele>132</ele>
        <time>2019-10-28T10:48:22.000Z</time>
      </trkpt>
      <trkpt lat="48.62428" lon="2.17529">
        <ele>132</ele>
        <time>2019-10-28T10:48:23.000Z</time>
      </trkpt>
      <trkpt lat="48.62427" lon="2.17531">
        <ele>131</ele>
        <time>2019-10-28T10:48:24.000Z</time>
      </trkpt>
      <trkpt lat="48.62426" lon="2.17533">
        <ele>131</ele>
        <time>2019-10-28T10:48:25.000Z</time>
      </trkpt>
      <trkpt lat="48.62426" lon="2.17535">
        <ele>131</ele>
        <time>2019-10-28T10:48:26.000Z</time>
      </trkpt>
      <trkpt lat="48.62425" lon="2.17536">
        <ele>131</ele>
        <time>2019-10-28T10:48:27.000Z</time>
      </trkpt>
      <trkpt lat="48.62425" lon="2.17538">
        <ele>131</ele>
        <time>2019-10-28T10:48:28.000Z</time>
      </trkpt>
      <trkpt lat="48.62424" lon="2.17539">
        <ele>131</ele>
        <time>2019-10-28T10:48:29.000Z</time>
      </trkpt>
      <trkpt lat="48.62424" lon="2.17541">
        <ele>130</ele>
        <time>2019-10-28T10:48:30.000Z</time>
      </trkpt>
      <trkpt lat="48.62423" lon="2.17542">
        <ele>130</ele>
        <time>2019-10-28T10:48:31.000Z</time>
      </trkpt>
      <trkpt lat="48.62422" lon="2.17544">
        <ele>131</ele>
        <time>2019-10-28T10:48:32.000Z</time>
      </trkpt>
      <trkpt lat="48.62421" lon="2.17546">
        <ele>131</ele>
        <time>2019-10-28T10:48:33.000Z</time>
      </trkpt>
      <trkpt lat="48.62421" lon="2.17548">
        <ele>131</ele>
        <time>2019-10-28T10:48:34.000Z</time>
      </trkpt>
      <trkpt lat="48.6242" lon="2.1755">
        <ele>131</ele>
        <time>2019-10-28T10:48:35.000Z</time>
      </trkpt>
      <trkpt lat="48.62419" lon="2.17552">
        <ele>132</ele>
        <time>2019-10-28T10:48:36.000Z</time>
      </trkpt>
      <trkpt lat="48.62418" lon="2.17553">
        <ele>132</ele>
        <time>2019-10-28T10:48:37.000Z</time>
      </trkpt>
      <trkpt lat="48.62418" lon="2.17555">
        <ele>132</ele>
        <time>2019-10-28T10:48:38.000Z</time>
      </trkpt>
      <trkpt lat="48.62417" lon="2.17556">
        <ele>133</ele>
        <time>2019-10-28T10:48:39.000Z</time>
      </trkpt>
      <trkpt lat="48.62417" lon="2.17558">
        <ele>134</ele>
        <time>2019-10-28T10:48:40.000Z</time>
      </trkpt>
      <trkpt lat="48.62416" lon="2.1756">
        <ele>134</ele>
        <time>2019-10-28T10:48:41.000Z</time>
      </trkpt>
      <trkpt lat="48.62416" lon="2.17562">
        <ele>133</ele>
        <time>2019-10-28T10:48:42.000Z</time>
      </trkpt>
      <trkpt lat="48.62415" lon="2.17563">
        <ele>133</ele>
        <time>2019-10-28T10:48:43.000Z</time>
      </trkpt>
      <trkpt lat="48.62415" lon="2.17565">
        <ele>134</ele>
        <time>2019-10-28T10:48:44.000Z</time>
      </trkpt>
      <trkpt lat="48.62414" lon="2.17567">
        <ele>134</ele>
        <time>2019-10-28T10:48:45.000Z</time>
      </trkpt>
      <trkpt lat="48.62414" lon="2.17569">
        <ele>135</ele>
        <time>2019-10-28T10:48:46.000Z</time>
      </trkpt>
      <trkpt lat="48.62413" lon="2.17572">
        <ele>134</ele>
        <time>2019-10-28T10:48:47.000Z</time>
      </trkpt>
      <trkpt lat="48.62412" lon="2.17574">
        <ele>134</ele>
        <time>2019-10-28T10:48:48.000Z</time>
      </trkpt>
      <trkpt lat="48.62412" lon="2.17576">
        <ele>133</ele>
        <time>2019-10-28T10:48:49.000Z</time>
      </trkpt>
      <trkpt lat="48.62411" lon="2.17577">
        <ele>133</ele>
        <time>2019-10-28T10:48:50.000Z</time>
      </trkpt>
      <trkpt lat="48.62411" lon="2.17578">
        <ele>134</ele>
        <time>2019-10-28T10:48:51.000Z</time>
      </trkpt>
      <trkpt lat="48.6241" lon="2.1758">
        <ele>134</ele>
        <time>2019-10-28T10:48:52.000Z</time>
      </trkpt>
      <trkpt lat="48.62409" lon="2.17581">
        <ele>134</ele>
        <time>2019-10-28T10:48:53.000Z</time>
      </trkpt>
      <trkpt lat="48.62408" lon="2.17583">
        <ele>134</ele>
        <time>2019-10-28T10:48:54.000Z</time>
      </trkpt>
      <trkpt lat="48.62408" lon="2.17585">
        <ele>133</ele>
        <time>2019-10-28T10:48:55.000Z</time>
      </trkpt>
      <trkpt lat="48.62407" lon="2.17586">
        <ele>134</ele>
        <time>2019-10-28T10:48:56.000Z</time>
      </trkpt>
      <trkpt lat="48.62406" lon="2.17588">
        <ele>134</ele>
        <time>2019-10-28T10:48:57.000Z</time>
      </trkpt>
      <trkpt lat="48.62406" lon="2.1759">
        <ele>134</ele>
        <time>2019-10-28T10:48:58.000Z</time>
      </trkpt>
      <trkpt lat="48.62405" lon="2.17591">
        <ele>136</ele>
        <time>2019-10-28T10:48:59.000Z</time>
      </trkpt>
      <trkpt lat="48.62404" lon="2.17593">
        <ele>136</ele>
        <time>2019-10-28T10:49:00.000Z</time>
      </trkpt>
      <trkpt lat="48.62403" lon="2.17595">
        <ele>136</ele>
        <time>2019-10-28T10:49:01.000Z</time>
      </trkpt>
      <trkpt lat="48.62403" lon="2.17597">
        <ele>136</ele>
        <time>2019-10-28T10:49:02.000Z</time>
      </trkpt>
      <trkpt lat="48.62402" lon="2.17599">
        <ele>136</ele>
        <time>2019-10-28T10:49:03.000Z</time>
      </trkpt>
      <trkpt lat="48.62401" lon="2.176">
        <ele>137</ele>
        <time>2019-10-28T10:49:04.000Z</time>
      </trkpt>
      <trkpt lat="48.62401" lon="2.17602">
        <ele>136</ele>
        <time>2019-10-28T10:49:05.000Z</time>
      </trkpt>
      <trkpt lat="48.62401" lon="2.17603">
        <ele>137</ele>
        <time>2019-10-28T10:49:06.000Z</time>
      </trkpt>
      <trkpt lat="48.624" lon="2.17604">
        <ele>136</ele>
        <time>2019-10-28T10:49:07.000Z</time>
      </trkpt>
      <trkpt lat="48.624" lon="2.17606">
        <ele>135</ele>
        <time>2019-10-28T10:49:08.000Z</time>
      </trkpt>
      <trkpt lat="48.62399" lon="2.17607">
        <ele>135</ele>
        <time>2019-10-28T10:49:09.000Z</time>
      </trkpt>
      <trkpt lat="48.62399" lon="2.17609">
        <ele>135</ele>
        <time>2019-10-28T10:49:10.000Z</time>
      </trkpt>
      <trkpt lat="48.62398" lon="2.17611">
        <ele>134</ele>
        <time>2019-10-28T10:49:11.000Z</time>
      </trkpt>
      <trkpt lat="48.62398" lon="2.17613">
        <ele>134</ele>
        <time>2019-10-28T10:49:12.000Z</time>
      </trkpt>
      <trkpt lat="48.62397" lon="2.17614">
        <ele>135</ele>
        <time>2019-10-28T10:49:13.000Z</time>
      </trkpt>
      <trkpt lat="48.62396" lon="2.17616">
        <ele>136</ele>
        <time>2019-10-28T10:49:14.000Z</time>
      </trkpt>
      <trkpt lat="48.62395" lon="2.17617">
        <ele>136</ele>
        <time>2019-10-28T10:49:15.000Z</time>
      </trkpt>
      <trkpt lat="48.62395" lon="2.17619">
        <ele>136</ele>
        <time>2019-10-28T10:49:16.000Z</time>
      </trkpt>
      <trkpt lat="48.62394" lon="2.1762">
        <ele>136</ele>
        <time>2019-10-28T10:49:17.000Z</time>
      </trkpt>
      <trkpt lat="48.62394" lon="2.17622">
        <ele>136</ele>
        <time>2019-10-28T10:49:18.000Z</time>
      </trkpt>
      <trkpt lat="48.62393" lon="2.17623">
        <ele>137</ele>
        <time>2019-10-28T10:49:19.000Z</time>
      </trkpt>
      <trkpt lat="48.62392" lon="2.17625">
        <ele>138</ele>
        <time>2019-10-28T10:49:20.000Z</time>
      </trkpt>
      <trkpt lat="48.62391" lon="2.17627">
        <ele>138</ele>
        <time>2019-10-28T10:49:21.000Z</time>
      </trkpt>
      <trkpt lat="48.62391" lon="2.17629">
        <ele>138</ele>
        <time>2019-10-28T10:49:22.000Z</time>
      </trkpt>
      <trkpt lat="48.6239" lon="2.17631">
        <ele>138</ele>
        <time>2019-10-28T10:49:23.000Z</time>
      </trkpt>
      <trkpt lat="48.62389" lon="2.17633">
        <ele>138</ele>
        <time>2019-10-28T10:49:24.000Z</time>
      </trkpt>
      <trkpt lat="48.62388" lon="2.17635">
        <ele>139</ele>
        <time>2019-10-28T10:49:25.000Z</time>
      </trkpt>
      <trkpt lat="48.62388" lon="2.17637">
        <ele>139</ele>
        <time>2019-10-28T10:49:26.000Z</time>
      </trkpt>
      <trkpt lat="48.62387" lon="2.17639">
        <ele>139</ele>
        <time>2019-10-28T10:49:27.000Z</time>
      </trkpt>
      <trkpt lat="48.62386" lon="2.17641">
        <ele>139</ele>
        <time>2019-10-28T10:49:28.000Z</time>
      </trkpt>
      <trkpt lat="48.62386" lon="2.17642">
        <ele>140</ele>
        <time>2019-10-28T10:49:29.000Z</time>
      </trkpt>
      <trkpt lat="48.62385" lon="2.17644">
        <ele>140</ele>
        <time>2019-10-28T10:49:30.000Z</time>
      </trkpt>
      <trkpt lat="48.62384" lon="2.17645">
        <ele>140</ele>
        <time>2019-10-28T10:49:31.000Z</time>
      </trkpt>
      <trkpt lat="48.62384" lon="2.17647">
        <ele>140</ele>
        <time>2019-10-28T10:49:32.000Z</time>
      </trkpt>
      <trkpt lat="48.62383" lon="2.17648">
        <ele>141</ele>
        <time>2019-10-28T10:49:33.000Z</time>
      </trkpt>
      <trkpt lat="48.62382" lon="2.17649">
        <ele>141</ele>
        <time>2019-10-28T10:49:34.000Z</time>
      </trkpt>
      <trkpt lat="48.62382" lon="2.1765">
        <ele>141</ele>
        <time>2019-10-28T10:49:35.000Z</time>
      </trkpt>
      <trkpt lat="48.62381" lon="2.17652">
        <ele>142</ele>
        <time>2019-10-28T10:49:36.000Z</time>
      </trkpt>
      <trkpt lat="48.62381" lon="2.17654">
        <ele>143</ele>
        <time>2019-10-28T10:49:37.000Z</time>
      </trkpt>
      <trkpt lat="48.6238" lon="2.17655">
        <ele>143</ele>
        <time>2019-10-28T10:49:38.000Z</time>
      </trkpt>
      <trkpt lat="48.62379" lon="2.17657">
        <ele>144</ele>
        <time>2019-10-28T10:49:39.000Z</time>
      </trkpt>
      <trkpt lat="48.62379" lon="2.17658">
        <ele>144</ele>
        <time>2019-10-28T10:49:40.000Z</time>
      </trkpt>
      <trkpt lat="48.62378" lon="2.1766">
        <ele>145</ele>
        <time>2019-10-28T10:49:41.000Z</time>
      </trkpt>
      <trkpt lat="48.62377" lon="2.17661">
        <ele>145</ele>
        <time>2019-10-28T10:49:42.000Z</time>
      </trkpt>
      <trkpt lat="48.62377" lon="2.17663">
        <ele>145</ele>
        <time>2019-10-28T10:49:43.000Z</time>
      </trkpt>
      <trkpt lat="48.62377" lon="2.17666">
        <ele>146</ele>
        <time>2019-10-28T10:49:44.000Z</time>
      </trkpt>
      <trkpt lat="48.62376" lon="2.17668">
        <ele>143</ele>
        <time>2019-10-28T10:49:45.000Z</time>
      </trkpt>
      <trkpt lat="48.62376" lon="2.1767">
        <ele>143</ele>
        <time>2019-10-28T10:49:46.000Z</time>
      </trkpt>
      <trkpt lat="48.62376" lon="2.17672">
        <ele>142</ele>
        <time>2019-10-28T10:49:47.000Z</time>
      </trkpt>
      <trkpt lat="48.62375" lon="2.17673">
        <ele>141</ele>
        <time>2019-10-28T10:49:48.000Z</time>
      </trkpt>
      <trkpt lat="48.62374" lon="2.17675">
        <ele>139</ele>
        <time>2019-10-28T10:49:49.000Z</time>
      </trkpt>
      <trkpt lat="48.62372" lon="2.17677">
        <ele>138</ele>
        <time>2019-10-28T10:49:50.000Z</time>
      </trkpt>
      <trkpt lat="48.62371" lon="2.17679">
        <ele>137</ele>
        <time>2019-10-28T10:49:51.000Z</time>
      </trkpt>
      <trkpt lat="48.62371" lon="2.1768">
        <ele>137</ele>
        <time>2019-10-28T10:49:52.000Z</time>
      </trkpt>
      <trkpt lat="48.6237" lon="2.17682">
        <ele>137</ele>
        <time>2019-10-28T10:49:53.000Z</time>
      </trkpt>
      <trkpt lat="48.6237" lon="2.17684">
        <ele>138</ele>
        <time>2019-10-28T10:49:54.000Z</time>
      </trkpt>
      <trkpt lat="48.62369" lon="2.17686">
        <ele>138</ele>
        <time>2019-10-28T10:49:55.000Z</time>
      </trkpt>
      <trkpt lat="48.62368" lon="2.17688">
        <ele>138</ele>
        <time>2019-10-28T10:49:56.000Z</time>
      </trkpt>
      <trkpt lat="48.62368" lon="2.1769">
        <ele>138</ele>
        <time>2019-10-28T10:49:57.000Z</time>
      </trkpt>
      <trkpt lat="48.62367" lon="2.17691">
        <ele>138</ele>
        <time>2019-10-28T10:49:58.000Z</time>
      </trkpt>
      <trkpt lat="48.62366" lon="2.17693">
        <ele>138</ele>
        <time>2019-10-28T10:49:59.000Z</time>
      </trkpt>
      <trkpt lat="48.62366" lon="2.17694">
        <ele>137</ele>
        <time>2019-10-28T10:50:00.000Z</time>
      </trkpt>
      <trkpt lat="48.62365" lon="2.17696">
        <ele>137</ele>
        <time>2019-10-28T10:50:01.000Z</time>
      </trkpt>
      <trkpt lat="48.62365" lon="2.17697">
        <ele>137</ele>
        <time>2019-10-28T10:50:02.000Z</time>
      </trkpt>
      <trkpt lat="48.62364" lon="2.17699">
        <ele>137</ele>
        <time>2019-10-28T10:50:03.000Z</time>
      </trkpt>
      <trkpt lat="48.62364" lon="2.17701">
        <ele>137</ele>
        <time>2019-10-28T10:50:04.000Z</time>
      </trkpt>
      <trkpt lat="48.62363" lon="2.17703">
        <ele>137</ele>
        <time>2019-10-28T10:50:05.000Z</time>
      </trkpt>
      <trkpt lat="48.62363" lon="2.17704">
        <ele>138</ele>
        <time>2019-10-28T10:50:06.000Z</time>
      </trkpt>
      <trkpt lat="48.62363" lon="2.17706">
        <ele>138</ele>
        <time>2019-10-28T10:50:07.000Z</time>
      </trkpt>
      <trkpt lat="48.62362" lon="2.17707">
        <ele>137</ele>
        <time>2019-10-28T10:50:08.000Z</time>
      </trkpt>
      <trkpt lat="48.62361" lon="2.17709">
        <ele>137</ele>
        <time>2019-10-28T10:50:09.000Z</time>
      </trkpt>
      <trkpt lat="48.62361" lon="2.17711">
        <ele>138</ele>
        <time>2019-10-28T10:50:10.000Z</time>
      </trkpt>
      <trkpt lat="48.6236" lon="2.17713">
        <ele>138</ele>
        <time>2019-10-28T10:50:11.000Z</time>
      </trkpt>
      <trkpt lat="48.62359" lon="2.17716">
        <ele>136</ele>
        <time>2019-10-28T10:50:12.000Z</time>
      </trkpt>
      <trkpt lat="48.62358" lon="2.17718">
        <ele>135</ele>
        <time>2019-10-28T10:50:13.000Z</time>
      </trkpt>
      <trkpt lat="48.62357" lon="2.1772">
        <ele>135</ele>
        <time>2019-10-28T10:50:14.000Z</time>
      </trkpt>
      <trkpt lat="48.62357" lon="2.17722">
        <ele>135</ele>
        <time>2019-10-28T10:50:15.000Z</time>
      </trkpt>
      <trkpt lat="48.62356" lon="2.17724">
        <ele>135</ele>
        <time>2019-10-28T10:50:16.000Z</time>
      </trkpt>
      <trkpt lat="48.62355" lon="2.17726">
        <ele>135</ele>
        <time>2019-10-28T10:50:17.000Z</time>
      </trkpt>
      <trkpt lat="48.62355" lon="2.17728">
        <ele>135</ele>
        <time>2019-10-28T10:50:18.000Z</time>
      </trkpt>
      <trkpt lat="48.62354" lon="2.1773">
        <ele>136</ele>
        <time>2019-10-28T10:50:19.000Z</time>
      </trkpt>
      <trkpt lat="48.62353" lon="2.17732">
        <ele>135</ele>
        <time>2019-10-28T10:50:20.000Z</time>
      </trkpt>
      <trkpt lat="48.62352" lon="2.17734">
        <ele>135</ele>
        <time>2019-10-28T10:50:21.000Z</time>
      </trkpt>
      <trkpt lat="48.62352" lon="2.17737">
        <ele>136</ele>
        <time>2019-10-28T10:50:22.000Z</time>
      </trkpt>
      <trkpt lat="48.62351" lon="2.17739">
        <ele>135</ele>
        <time>2019-10-28T10:50:23.000Z</time>
      </trkpt>
      <trkpt lat="48.6235" lon="2.17741">
        <ele>136</ele>
        <time>2019-10-28T10:50:24.000Z</time>
      </trkpt>
      <trkpt lat="48.6235" lon="2.17743">
        <ele>135</ele>
        <time>2019-10-28T10:50:25.000Z</time>
      </trkpt>
      <trkpt lat="48.6235" lon="2.17744">
        <ele>136</ele>
        <time>2019-10-28T10:50:26.000Z</time>
      </trkpt>
      <trkpt lat="48.62349" lon="2.17746">
        <ele>135</ele>
        <time>2019-10-28T10:50:27.000Z</time>
      </trkpt>
      <trkpt lat="48.62348" lon="2.17747">
        <ele>135</ele>
        <time>2019-10-28T10:50:28.000Z</time>
      </trkpt>
      <trkpt lat="48.62347" lon="2.17749">
        <ele>135</ele>
        <time>2019-10-28T10:50:29.000Z</time>
      </trkpt>
      <trkpt lat="48.62347" lon="2.1775">
        <ele>135</ele>
        <time>2019-10-28T10:50:30.000Z</time>
      </trkpt>
      <trkpt lat="48.62346" lon="2.17752">
        <ele>135</ele>
        <time>2019-10-28T10:50:31.000Z</time>
      </trkpt>
      <trkpt lat="48.62346" lon="2.17754">
        <ele>135</ele>
        <time>2019-10-28T10:50:32.000Z</time>
      </trkpt>
      <trkpt lat="48.62345" lon="2.17756">
        <ele>135</ele>
        <time>2019-10-28T10:50:33.000Z</time>
      </trkpt>
      <trkpt lat="48.62345" lon="2.17758">
        <ele>135</ele>
        <time>2019-10-28T10:50:34.000Z</time>
      </trkpt>
      <trkpt lat="48.62344" lon="2.17759">
        <ele>134</ele>
        <time>2019-10-28T10:50:35.000Z</time>
      </trkpt>
      <trkpt lat="48.62344" lon="2.17761">
        <ele>134</ele>
        <time>2019-10-28T10:50:36.000Z</time>
      </trkpt>
      <trkpt lat="48.62343" lon="2.17763">
        <ele>135</ele>
        <time>2019-10-28T10:50:37.000Z</time>
      </trkpt>
      <trkpt lat="48.62342" lon="2.17765">
        <ele>135</ele>
        <time>2019-10-28T10:50:38.000Z</time>
      </trkpt>
      <trkpt lat="48.62341" lon="2.17767">
        <ele>135</ele>
        <time>2019-10-28T10:50:39.000Z</time>
      </trkpt>
      <trkpt lat="48.62341" lon="2.17769">
        <ele>135</ele>
        <time>2019-10-28T10:50:40.000Z</time>
      </trkpt>
      <trkpt lat="48.6234" lon="2.1777">
        <ele>135</ele>
        <time>2019-10-28T10:50:41.000Z</time>
      </trkpt>
      <trkpt lat="48.62339" lon="2.17772">
        <ele>134</ele>
        <time>2019-10-28T10:50:42.000Z</time>
      </trkpt>
      <trkpt lat="48.62338" lon="2.17774">
        <ele>134</ele>
        <time>2019-10-28T10:50:43.000Z</time>
      </trkpt>
      <trkpt lat="48.62338" lon="2.17775">
        <ele>134</ele>
        <time>2019-10-28T10:50:44.000Z</time>
      </trkpt>
      <trkpt lat="48.62337" lon="2.17777">
        <ele>135</ele>
        <time>2019-10-28T10:50:45.000Z</time>
      </trkpt>
      <trkpt lat="48.62336" lon="2.17779">
        <ele>135</ele>
        <time>2019-10-28T10:50:46.000Z</time>
      </trkpt>
      <trkpt lat="48.62335" lon="2.1778">
        <ele>135</ele>
        <time>2019-10-28T10:50:47.000Z</time>
      </trkpt>
      <trkpt lat="48.62334" lon="2.17781">
        <ele>135</ele>
        <time>2019-10-28T10:50:48.000Z</time>
      </trkpt>
      <trkpt lat="48.62333" lon="2.17782">
        <ele>135</ele>
        <time>2019-10-28T10:50:49.000Z</time>
      </trkpt>
      <trkpt lat="48.62333" lon="2.17782">
        <ele>135</ele>
        <time>2019-10-28T10:50:50.000Z</time>
      </trkpt>
      <trkpt lat="48.62332" lon="2.17783">
        <ele>135</ele>
        <time>2019-10-28T10:50:51.000Z</time>
      </trkpt>
      <trkpt lat="48.62331" lon="2.17785">
        <ele>135</ele>
        <time>2019-10-28T10:50:52.000Z</time>
      </trkpt>
      <trkpt lat="48.62331" lon="2.17786">
        <ele>135</ele>
        <time>2019-10-28T10:50:53.000Z</time>
      </trkpt>
      <trkpt lat="48.6233" lon="2.17787">
        <ele>135</ele>
        <time>2019-10-28T10:50:54.000Z</time>
      </trkpt>
      <trkpt lat="48.6233" lon="2.17788">
        <ele>134</ele>
        <time>2019-10-28T10:50:55.000Z</time>
      </trkpt>
      <trkpt lat="48.62329" lon="2.17789">
        <ele>133</ele>
        <time>2019-10-28T10:50:56.000Z</time>
      </trkpt>
      <trkpt lat="48.62329" lon="2.1779">
        <ele>133</ele>
        <time>2019-10-28T10:50:57.000Z</time>
      </trkpt>
      <trkpt lat="48.62329" lon="2.17792">
        <ele>133</ele>
        <time>2019-10-28T10:50:58.000Z</time>
      </trkpt>
      <trkpt lat="48.62328" lon="2.17793">
        <ele>133</ele>
        <time>2019-10-28T10:50:59.000Z</time>
      </trkpt>
      <trkpt lat="48.62328" lon="2.17795">
        <ele>133</ele>
        <time>2019-10-28T10:51:00.000Z</time>
      </trkpt>
      <trkpt lat="48.62328" lon="2.17797">
        <ele>133</ele>
        <time>2019-10-28T10:51:01.000Z</time>
      </trkpt>
      <trkpt lat="48.62327" lon="2.17799">
        <ele>134</ele>
        <time>2019-10-28T10:51:02.000Z</time>
      </trkpt>
      <trkpt lat="48.62327" lon="2.17801">
        <ele>134</ele>
        <time>2019-10-28T10:51:03.000Z</time>
      </trkpt>
      <trkpt lat="48.62326" lon="2.17803">
        <ele>134</ele>
        <time>2019-10-28T10:51:04.000Z</time>
      </trkpt>
      <trkpt lat="48.62325" lon="2.17805">
        <ele>135</ele>
        <time>2019-10-28T10:51:05.000Z</time>
      </trkpt>
      <trkpt lat="48.62325" lon="2.17807">
        <ele>135</ele>
        <time>2019-10-28T10:51:06.000Z</time>
      </trkpt>
      <trkpt lat="48.62324" lon="2.17809">
        <ele>136</ele>
        <time>2019-10-28T10:51:07.000Z</time>
      </trkpt>
      <trkpt lat="48.62323" lon="2.1781">
        <ele>137</ele>
        <time>2019-10-28T10:51:08.000Z</time>
      </trkpt>
      <trkpt lat="48.62323" lon="2.17812">
        <ele>138</ele>
        <time>2019-10-28T10:51:09.000Z</time>
      </trkpt>
      <trkpt lat="48.62323" lon="2.17813">
        <ele>138</ele>
        <time>2019-10-28T10:51:10.000Z</time>
      </trkpt>
      <trkpt lat="48.62323" lon="2.17815">
        <ele>139</ele>
        <time>2019-10-28T10:51:11.000Z</time>
      </trkpt>
      <trkpt lat="48.62323" lon="2.17816">
        <ele>138</ele>
        <time>2019-10-28T10:51:12.000Z</time>
      </trkpt>
      <trkpt lat="48.62322" lon="2.17818">
        <ele>139</ele>
        <time>2019-10-28T10:51:13.000Z</time>
      </trkpt>
      <trkpt lat="48.62322" lon="2.1782">
        <ele>139</ele>
        <time>2019-10-28T10:51:14.000Z</time>
      </trkpt>
      <trkpt lat="48.62322" lon="2.17822">
        <ele>140</ele>
        <time>2019-10-28T10:51:15.000Z</time>
      </trkpt>
      <trkpt lat="48.62322" lon="2.17823">
        <ele>139</ele>
        <time>2019-10-28T10:51:16.000Z</time>
      </trkpt>
      <trkpt lat="48.62322" lon="2.17825">
        <ele>139</ele>
        <time>2019-10-28T10:51:17.000Z</time>
      </trkpt>
      <trkpt lat="48.62321" lon="2.17826">
        <ele>138</ele>
        <time>2019-10-28T10:51:18.000Z</time>
      </trkpt>
      <trkpt lat="48.62321" lon="2.17827">
        <ele>138</ele>
        <time>2019-10-28T10:51:19.000Z</time>
      </trkpt>
      <trkpt lat="48.6232" lon="2.17829">
        <ele>137</ele>
        <time>2019-10-28T10:51:20.000Z</time>
      </trkpt>
      <trkpt lat="48.62319" lon="2.1783">
        <ele>137</ele>
        <time>2019-10-28T10:51:21.000Z</time>
      </trkpt>
      <trkpt lat="48.62318" lon="2.17832">
        <ele>136</ele>
        <time>2019-10-28T10:51:22.000Z</time>
      </trkpt>
      <trkpt lat="48.62318" lon="2.17834">
        <ele>136</ele>
        <time>2019-10-28T10:51:23.000Z</time>
      </trkpt>
      <trkpt lat="48.62317" lon="2.17835">
        <ele>137</ele>
        <time>2019-10-28T10:51:24.000Z</time>
      </trkpt>
      <trkpt lat="48.62316" lon="2.17837">
        <ele>137</ele>
        <time>2019-10-28T10:51:25.000Z</time>
      </trkpt>
      <trkpt lat="48.62316" lon="2.17838">
        <ele>138</ele>
        <time>2019-10-28T10:51:26.000Z</time>
      </trkpt>
      <trkpt lat="48.62315" lon="2.1784">
        <ele>139</ele>
        <time>2019-10-28T10:51:27.000Z</time>
      </trkpt>
      <trkpt lat="48.62315" lon="2.17843">
        <ele>140</ele>
        <time>2019-10-28T10:51:28.000Z</time>
      </trkpt>
      <trkpt lat="48.62313" lon="2.17845">
        <ele>140</ele>
        <time>2019-10-28T10:51:29.000Z</time>
      </trkpt>
      <trkpt lat="48.62312" lon="2.17848">
        <ele>141</ele>
        <time>2019-10-28T10:51:30.000Z</time>
      </trkpt>
      <trkpt lat="48.62311" lon="2.1785">
        <ele>142</ele>
        <time>2019-10-28T10:51:31.000Z</time>
      </trkpt>
      <trkpt lat="48.6231" lon="2.17852">
        <ele>142</ele>
        <time>2019-10-28T10:51:32.000Z</time>
      </trkpt>
      <trkpt lat="48.6231" lon="2.17854">
        <ele>143</ele>
        <time>2019-10-28T10:51:33.000Z</time>
      </trkpt>
      <trkpt lat="48.62309" lon="2.17856">
        <ele>143</ele>
        <time>2019-10-28T10:51:34.000Z</time>
      </trkpt>
      <trkpt lat="48.62308" lon="2.17858">
        <ele>143</ele>
        <time>2019-10-28T10:51:35.000Z</time>
      </trkpt>
      <trkpt lat="48.62307" lon="2.1786">
        <ele>143</ele>
        <time>2019-10-28T10:51:36.000Z</time>
      </trkpt>
      <trkpt lat="48.62306" lon="2.17861">
        <ele>143</ele>
        <time>2019-10-28T10:51:37.000Z</time>
      </trkpt>
      <trkpt lat="48.62306" lon="2.17863">
        <ele>144</ele>
        <time>2019-10-28T10:51:38.000Z</time>
      </trkpt>
      <trkpt lat="48.62305" lon="2.17865">
        <ele>143</ele>
        <time>2019-10-28T10:51:39.000Z</time>
      </trkpt>
      <trkpt lat="48.62304" lon="2.17866">
        <ele>142</ele>
        <time>2019-10-28T10:51:40.000Z</time>
      </trkpt>
      <trkpt lat="48.62303" lon="2.17868">
        <ele>142</ele>
        <time>2019-10-28T10:51:41.000Z</time>
      </trkpt>
      <trkpt lat="48.62303" lon="2.1787">
        <ele>141</ele>
        <time>2019-10-28T10:51:42.000Z</time>
      </trkpt>
      <trkpt lat="48.62302" lon="2.17872">
        <ele>141</ele>
        <time>2019-10-28T10:51:43.000Z</time>
      </trkpt>
      <trkpt lat="48.62302" lon="2.17874">
        <ele>141</ele>
        <time>2019-10-28T10:51:44.000Z</time>
      </trkpt>
      <trkpt lat="48.62301" lon="2.17876">
        <ele>141</ele>
        <time>2019-10-28T10:51:45.000Z</time>
      </trkpt>
      <trkpt lat="48.62301" lon="2.17877">
        <ele>141</ele>
        <time>2019-10-28T10:51:46.000Z</time>
      </trkpt>
      <trkpt lat="48.623" lon="2.17879">
        <ele>141</ele>
        <time>2019-10-28T10:51:47.000Z</time>
      </trkpt>
      <trkpt lat="48.623" lon="2.17881">
        <ele>141</ele>
        <time>2019-10-28T10:51:48.000Z</time>
      </trkpt>
      <trkpt lat="48.62299" lon="2.17883">
        <ele>140</ele>
        <time>2019-10-28T10:51:49.000Z</time>
      </trkpt>
      <trkpt lat="48.62299" lon="2.17884">
        <ele>140</ele>
        <time>2019-10-28T10:51:50.000Z</time>
      </trkpt>
      <trkpt lat="48.62298" lon="2.17886">
        <ele>140</ele>
        <time>2019-10-28T10:51:51.000Z</time>
      </trkpt>
      <trkpt lat="48.62297" lon="2.17887">
        <ele>139</ele>
        <time>2019-10-28T10:51:52.000Z</time>
      </trkpt>
      <trkpt lat="48.62296" lon="2.17888">
        <ele>140</ele>
        <time>2019-10-28T10:51:53.000Z</time>
      </trkpt>
      <trkpt lat="48.62296" lon="2.1789">
        <ele>140</ele>
        <time>2019-10-28T10:51:54.000Z</time>
      </trkpt>
      <trkpt lat="48.62295" lon="2.17891">
        <ele>140</ele>
        <time>2019-10-28T10:51:55.000Z</time>
      </trkpt>
      <trkpt lat="48.62294" lon="2.17892">
        <ele>140</ele>
        <time>2019-10-28T10:51:56.000Z</time>
      </trkpt>
      <trkpt lat="48.62293" lon="2.17894">
        <ele>140</ele>
        <time>2019-10-28T10:51:57.000Z</time>
      </trkpt>
      <trkpt lat="48.62292" lon="2.17895">
        <ele>140</ele>
        <time>2019-10-28T10:51:58.000Z</time>
      </trkpt>
      <trkpt lat="48.62291" lon="2.17897">
        <ele>140</ele>
        <time>2019-10-28T10:51:59.000Z</time>
      </trkpt>
      <trkpt lat="48.6229" lon="2.17899">
        <ele>141</ele>
        <time>2019-10-28T10:52:00.000Z</time>
      </trkpt>
      <trkpt lat="48.62289" lon="2.179">
        <ele>141</ele>
        <time>2019-10-28T10:52:01.000Z</time>
      </trkpt>
      <trkpt lat="48.62288" lon="2.17901">
        <ele>141</ele>
        <time>2019-10-28T10:52:02.000Z</time>
      </trkpt>
      <trkpt lat="48.62288" lon="2.17903">
        <ele>141</ele>
        <time>2019-10-28T10:52:03.000Z</time>
      </trkpt>
      <trkpt lat="48.62287" lon="2.17905">
        <ele>141</ele>
        <time>2019-10-28T10:52:04.000Z</time>
      </trkpt>
      <trkpt lat="48.62287" lon="2.17906">
        <ele>141</ele>
        <time>2019-10-28T10:52:05.000Z</time>
      </trkpt>
      <trkpt lat="48.62286" lon="2.17908">
        <ele>141</ele>
        <time>2019-10-28T10:52:06.000Z</time>
      </trkpt>
      <trkpt lat="48.62285" lon="2.17909">
        <ele>141</ele>
        <time>2019-10-28T10:52:07.000Z</time>
      </trkpt>
      <trkpt lat="48.62284" lon="2.17911">
        <ele>142</ele>
        <time>2019-10-28T10:52:08.000Z</time>
      </trkpt>
      <trkpt lat="48.62283" lon="2.17913">
        <ele>142</ele>
        <time>2019-10-28T10:52:09.000Z</time>
      </trkpt>
      <trkpt lat="48.62282" lon="2.17915">
        <ele>143</ele>
        <time>2019-10-28T10:52:10.000Z</time>
      </trkpt>
      <trkpt lat="48.6228" lon="2.17916">
        <ele>143</ele>
        <time>2019-10-28T10:52:11.000Z</time>
      </trkpt>
      <trkpt lat="48.62279" lon="2.17917">
        <ele>143</ele>
        <time>2019-10-28T10:52:12.000Z</time>
      </trkpt>
      <trkpt lat="48.62278" lon="2.17919">
        <ele>144</ele>
        <time>2019-10-28T10:52:13.000Z</time>
      </trkpt>
      <trkpt lat="48.62277" lon="2.1792">
        <ele>143</ele>
        <time>2019-10-28T10:52:14.000Z</time>
      </trkpt>
      <trkpt lat="48.62277" lon="2.17922">
        <ele>143</ele>
        <time>2019-10-28T10:52:15.000Z</time>
      </trkpt>
      <trkpt lat="48.62276" lon="2.17924">
        <ele>143</ele>
        <time>2019-10-28T10:52:16.000Z</time>
      </trkpt>
      <trkpt lat="48.62276" lon="2.17925">
        <ele>143</ele>
        <time>2019-10-28T10:52:17.000Z</time>
      </trkpt>
      <trkpt lat="48.62275" lon="2.17926">
        <ele>142</ele>
        <time>2019-10-28T10:52:18.000Z</time>
      </trkpt>
      <trkpt lat="48.62275" lon="2.17928">
        <ele>142</ele>
        <time>2019-10-28T10:52:19.000Z</time>
      </trkpt>
      <trkpt lat="48.62274" lon="2.17929">
        <ele>142</ele>
        <time>2019-10-28T10:52:20.000Z</time>
      </trkpt>
      <trkpt lat="48.62274" lon="2.17931">
        <ele>142</ele>
        <time>2019-10-28T10:52:21.000Z</time>
      </trkpt>
      <trkpt lat="48.62273" lon="2.17932">
        <ele>141</ele>
        <time>2019-10-28T10:52:22.000Z</time>
      </trkpt>
      <trkpt lat="48.62272" lon="2.17934">
        <ele>142</ele>
        <time>2019-10-28T10:52:23.000Z</time>
      </trkpt>
      <trkpt lat="48.62271" lon="2.17935">
        <ele>142</ele>
        <time>2019-10-28T10:52:24.000Z</time>
      </trkpt>
      <trkpt lat="48.6227" lon="2.17937">
        <ele>141</ele>
        <time>2019-10-28T10:52:25.000Z</time>
      </trkpt>
      <trkpt lat="48.62269" lon="2.17939">
        <ele>141</ele>
        <time>2019-10-28T10:52:26.000Z</time>
      </trkpt>
      <trkpt lat="48.62268" lon="2.1794">
        <ele>141</ele>
        <time>2019-10-28T10:52:27.000Z</time>
      </trkpt>
      <trkpt lat="48.62267" lon="2.17942">
        <ele>142</ele>
        <time>2019-10-28T10:52:28.000Z</time>
      </trkpt>
      <trkpt lat="48.62267" lon="2.17943">
        <ele>142</ele>
        <time>2019-10-28T10:52:29.000Z</time>
      </trkpt>
      <trkpt lat="48.62266" lon="2.17944">
        <ele>142</ele>
        <time>2019-10-28T10:52:30.000Z</time>
      </trkpt>
      <trkpt lat="48.62266" lon="2.17946">
        <ele>142</ele>
        <time>2019-10-28T10:52:31.000Z</time>
      </trkpt>
      <trkpt lat="48.62265" lon="2.17947">
        <ele>141</ele>
        <time>2019-10-28T10:52:32.000Z</time>
      </trkpt>
      <trkpt lat="48.62265" lon="2.17949">
        <ele>142</ele>
        <time>2019-10-28T10:52:33.000Z</time>
      </trkpt>
      <trkpt lat="48.62264" lon="2.17951">
        <ele>142</ele>
        <time>2019-10-28T10:52:34.000Z</time>
      </trkpt>
      <trkpt lat="48.62263" lon="2.17952">
        <ele>142</ele>
        <time>2019-10-28T10:52:35.000Z</time>
      </trkpt>
      <trkpt lat="48.62263" lon="2.17954">
        <ele>142</ele>
        <time>2019-10-28T10:52:36.000Z</time>
      </trkpt>
      <trkpt lat="48.62262" lon="2.17955">
        <ele>142</ele>
        <time>2019-10-28T10:52:37.000Z</time>
      </trkpt>
      <trkpt lat="48.62261" lon="2.17956">
        <ele>142</ele>
        <time>2019-10-28T10:52:38.000Z</time>
      </trkpt>
      <trkpt lat="48.6226" lon="2.17957">
        <ele>142</ele>
        <time>2019-10-28T10:52:39.000Z</time>
      </trkpt>
      <trkpt lat="48.62259" lon="2.17958">
        <ele>142</ele>
        <time>2019-10-28T10:52:40.000Z</time>
      </trkpt>
      <trkpt lat="48.62258" lon="2.17959">
        <ele>142</ele>
        <time>2019-10-28T10:52:41.000Z</time>
      </trkpt>
      <trkpt lat="48.62257" lon="2.17959">
        <ele>142</ele>
        <time>2019-10-28T10:52:42.000Z</time>
      </trkpt>
      <trkpt lat="48.62257" lon="2.17957">
        <ele>142</ele>
        <time>2019-10-28T10:52:43.000Z</time>
      </trkpt>
      <trkpt lat="48.62257" lon="2.17956">
        <ele>142</ele>
        <time>2019-10-28T10:52:44.000Z</time>
      </trkpt>
      <trkpt lat="48.62257" lon="2.17955">
        <ele>141</ele>
        <time>2019-10-28T10:52:45.000Z</time>
      </trkpt>
      <trkpt lat="48.62258" lon="2.17955">
        <ele>140</ele>
        <time>2019-10-28T10:52:46.000Z</time>
      </trkpt>
      <trkpt lat="48.62258" lon="2.17956">
        <ele>141</ele>
        <time>2019-10-28T10:52:47.000Z</time>
      </trkpt>
      <trkpt lat="48.62258" lon="2.17957">
        <ele>141</ele>
        <time>2019-10-28T10:52:48.000Z</time>
      </trkpt>
      <trkpt lat="48.62258" lon="2.17957">
        <ele>140</ele>
        <time>2019-10-28T10:52:49.000Z</time>
      </trkpt>
      <trkpt lat="48.62258" lon="2.17958">
        <ele>140</ele>
        <time>2019-10-28T10:52:50.000Z</time>
      </trkpt>
      <trkpt lat="48.62258" lon="2.17958">
        <ele>141</ele>
        <time>2019-10-28T10:52:51.000Z</time>
      </trkpt>
      <trkpt lat="48.62258" lon="2.17958">
        <ele>140</ele>
        <time>2019-10-28T10:52:52.000Z</time>
      </trkpt>
      <trkpt lat="48.62258" lon="2.17959">
        <ele>140</ele>
        <time>2019-10-28T10:52:53.000Z</time>
      </trkpt>
      <trkpt lat="48.62257" lon="2.1796">
        <ele>140</ele>
        <time>2019-10-28T10:52:54.000Z</time>
      </trkpt>
      <trkpt lat="48.62257" lon="2.17961">
        <ele>140</ele>
        <time>2019-10-28T10:52:55.000Z</time>
      </trkpt>
      <trkpt lat="48.62257" lon="2.17962">
        <ele>140</ele>
        <time>2019-10-28T10:52:56.000Z</time>
      </trkpt>
      <trkpt lat="48.62256" lon="2.17963">
        <ele>140</ele>
        <time>2019-10-28T10:52:57.000Z</time>
      </trkpt>
      <trkpt lat="48.62256" lon="2.17964">
        <ele>140</ele>
        <time>2019-10-28T10:52:58.000Z</time>
      </trkpt>
      <trkpt lat="48.62255" lon="2.17966">
        <ele>139</ele>
        <time>2019-10-28T10:52:59.000Z</time>
      </trkpt>
      <trkpt lat="48.62255" lon="2.17967">
        <ele>139</ele>
        <time>2019-10-28T10:53:00.000Z</time>
      </trkpt>
      <trkpt lat="48.62254" lon="2.17969">
        <ele>139</ele>
        <time>2019-10-28T10:53:01.000Z</time>
      </trkpt>
      <trkpt lat="48.62253" lon="2.1797">
        <ele>138</ele>
        <time>2019-10-28T10:53:02.000Z</time>
      </trkpt>
      <trkpt lat="48.62253" lon="2.17972">
        <ele>137</ele>
        <time>2019-10-28T10:53:03.000Z</time>
      </trkpt>
      <trkpt lat="48.62251" lon="2.17974">
        <ele>137</ele>
        <time>2019-10-28T10:53:04.000Z</time>
      </trkpt>
      <trkpt lat="48.6225" lon="2.17976">
        <ele>137</ele>
        <time>2019-10-28T10:53:05.000Z</time>
      </trkpt>
      <trkpt lat="48.62249" lon="2.17978">
        <ele>136</ele>
        <time>2019-10-28T10:53:06.000Z</time>
      </trkpt>
      <trkpt lat="48.62248" lon="2.17981">
        <ele>135</ele>
        <time>2019-10-28T10:53:07.000Z</time>
      </trkpt>
      <trkpt lat="48.62247" lon="2.17984">
        <ele>135</ele>
        <time>2019-10-28T10:53:08.000Z</time>
      </trkpt>
      <trkpt lat="48.62245" lon="2.17986">
        <ele>134</ele>
        <time>2019-10-28T10:53:09.000Z</time>
      </trkpt>
      <trkpt lat="48.62244" lon="2.17989">
        <ele>134</ele>
        <time>2019-10-28T10:53:10.000Z</time>
      </trkpt>
      <trkpt lat="48.62243" lon="2.17991">
        <ele>133</ele>
        <time>2019-10-28T10:53:11.000Z</time>
      </trkpt>
      <trkpt lat="48.62242" lon="2.17994">
        <ele>133</ele>
        <time>2019-10-28T10:53:12.000Z</time>
      </trkpt>
      <trkpt lat="48.62241" lon="2.17997">
        <ele>132</ele>
        <time>2019-10-28T10:53:13.000Z</time>
      </trkpt>
      <trkpt lat="48.6224" lon="2.18">
        <ele>132</ele>
        <time>2019-10-28T10:53:14.000Z</time>
      </trkpt>
      <trkpt lat="48.62239" lon="2.18003">
        <ele>132</ele>
        <time>2019-10-28T10:53:15.000Z</time>
      </trkpt>
      <trkpt lat="48.62237" lon="2.18006">
        <ele>131</ele>
        <time>2019-10-28T10:53:16.000Z</time>
      </trkpt>
      <trkpt lat="48.62237" lon="2.18009">
        <ele>131</ele>
        <time>2019-10-28T10:53:17.000Z</time>
      </trkpt>
      <trkpt lat="48.62236" lon="2.18013">
        <ele>131</ele>
        <time>2019-10-28T10:53:18.000Z</time>
      </trkpt>
      <trkpt lat="48.62235" lon="2.18017">
        <ele>130</ele>
        <time>2019-10-28T10:53:19.000Z</time>
      </trkpt>
      <trkpt lat="48.62234" lon="2.18021">
        <ele>130</ele>
        <time>2019-10-28T10:53:20.000Z</time>
      </trkpt>
      <trkpt lat="48.62233" lon="2.18025">
        <ele>130</ele>
        <time>2019-10-28T10:53:21.000Z</time>
      </trkpt>
      <trkpt lat="48.62232" lon="2.18029">
        <ele>130</ele>
        <time>2019-10-28T10:53:22.000Z</time>
      </trkpt>
      <trkpt lat="48.62231" lon="2.18034">
        <ele>129</ele>
        <time>2019-10-28T10:53:23.000Z</time>
      </trkpt>
      <trkpt lat="48.62229" lon="2.18039">
        <ele>127</ele>
        <time>2019-10-28T10:53:24.000Z</time>
      </trkpt>
      <trkpt lat="48.62228" lon="2.18044">
        <ele>127</ele>
        <time>2019-10-28T10:53:25.000Z</time>
      </trkpt>
      <trkpt lat="48.62226" lon="2.1805">
        <ele>127</ele>
        <time>2019-10-28T10:53:26.000Z</time>
      </trkpt>
      <trkpt lat="48.62224" lon="2.18054">
        <ele>128</ele>
        <time>2019-10-28T10:53:27.000Z</time>
      </trkpt>
      <trkpt lat="48.62223" lon="2.18059">
        <ele>128</ele>
        <time>2019-10-28T10:53:28.000Z</time>
      </trkpt>
      <trkpt lat="48.62222" lon="2.18063">
        <ele>128</ele>
        <time>2019-10-28T10:53:29.000Z</time>
      </trkpt>
      <trkpt lat="48.6222" lon="2.18068">
        <ele>128</ele>
        <time>2019-10-28T10:53:30.000Z</time>
      </trkpt>
      <trkpt lat="48.62218" lon="2.18072">
        <ele>126</ele>
        <time>2019-10-28T10:53:31.000Z</time>
      </trkpt>
      <trkpt lat="48.62217" lon="2.18076">
        <ele>127</ele>
        <time>2019-10-28T10:53:32.000Z</time>
      </trkpt>
      <trkpt lat="48.62216" lon="2.18081">
        <ele>127</ele>
        <time>2019-10-28T10:53:33.000Z</time>
      </trkpt>
      <trkpt lat="48.62214" lon="2.18086">
        <ele>127</ele>
        <time>2019-10-28T10:53:34.000Z</time>
      </trkpt>
      <trkpt lat="48.62212" lon="2.1809">
        <ele>126</ele>
        <time>2019-10-28T10:53:35.000Z</time>
      </trkpt>
      <trkpt lat="48.6221" lon="2.18094">
        <ele>126</ele>
        <time>2019-10-28T10:53:36.000Z</time>
      </trkpt>
      <trkpt lat="48.62208" lon="2.18097">
        <ele>125</ele>
        <time>2019-10-28T10:53:37.000Z</time>
      </trkpt>
      <trkpt lat="48.62206" lon="2.18101">
        <ele>125</ele>
        <time>2019-10-28T10:53:38.000Z</time>
      </trkpt>
      <trkpt lat="48.62204" lon="2.18105">
        <ele>125</ele>
        <time>2019-10-28T10:53:39.000Z</time>
      </trkpt>
      <trkpt lat="48.62202" lon="2.1811">
        <ele>124</ele>
        <time>2019-10-28T10:53:40.000Z</time>
      </trkpt>
      <trkpt lat="48.622" lon="2.18114">
        <ele>124</ele>
        <time>2019-10-28T10:53:41.000Z</time>
      </trkpt>
      <trkpt lat="48.62198" lon="2.18118">
        <ele>124</ele>
        <time>2019-10-28T10:53:42.000Z</time>
      </trkpt>
      <trkpt lat="48.62196" lon="2.18122">
        <ele>124</ele>
        <time>2019-10-28T10:53:43.000Z</time>
      </trkpt>
      <trkpt lat="48.62194" lon="2.18127">
        <ele>126</ele>
        <time>2019-10-28T10:53:44.000Z</time>
      </trkpt>
      <trkpt lat="48.62192" lon="2.18133">
        <ele>126</ele>
        <time>2019-10-28T10:53:45.000Z</time>
      </trkpt>
      <trkpt lat="48.6219" lon="2.18138">
        <ele>126</ele>
        <time>2019-10-28T10:53:46.000Z</time>
      </trkpt>
      <trkpt lat="48.62189" lon="2.18143">
        <ele>126</ele>
        <time>2019-10-28T10:53:47.000Z</time>
      </trkpt>
      <trkpt lat="48.62187" lon="2.18147">
        <ele>126</ele>
        <time>2019-10-28T10:53:48.000Z</time>
      </trkpt>
      <trkpt lat="48.62185" lon="2.18152">
        <ele>126</ele>
        <time>2019-10-28T10:53:49.000Z</time>
      </trkpt>
      <trkpt lat="48.62183" lon="2.18156">
        <ele>127</ele>
        <time>2019-10-28T10:53:50.000Z</time>
      </trkpt>
      <trkpt lat="48.6218" lon="2.18162">
        <ele>128</ele>
        <time>2019-10-28T10:53:51.000Z</time>
      </trkpt>
      <trkpt lat="48.62178" lon="2.18167">
        <ele>128</ele>
        <time>2019-10-28T10:53:52.000Z</time>
      </trkpt>
      <trkpt lat="48.62177" lon="2.18172">
        <ele>128</ele>
        <time>2019-10-28T10:53:53.000Z</time>
      </trkpt>
      <trkpt lat="48.62175" lon="2.18176">
        <ele>128</ele>
        <time>2019-10-28T10:53:54.000Z</time>
      </trkpt>
      <trkpt lat="48.62173" lon="2.1818">
        <ele>129</ele>
        <time>2019-10-28T10:53:55.000Z</time>
      </trkpt>
      <trkpt lat="48.62171" lon="2.18184">
        <ele>129</ele>
        <time>2019-10-28T10:53:56.000Z</time>
      </trkpt>
      <trkpt lat="48.6217" lon="2.18188">
        <ele>129</ele>
        <time>2019-10-28T10:53:57.000Z</time>
      </trkpt>
      <trkpt lat="48.62169" lon="2.18192">
        <ele>129</ele>
        <time>2019-10-28T10:53:58.000Z</time>
      </trkpt>
      <trkpt lat="48.62168" lon="2.18196">
        <ele>129</ele>
        <time>2019-10-28T10:53:59.000Z</time>
      </trkpt>
      <trkpt lat="48.62166" lon="2.18201">
        <ele>129</ele>
        <time>2019-10-28T10:54:00.000Z</time>
      </trkpt>
      <trkpt lat="48.62164" lon="2.18206">
        <ele>130</ele>
        <time>2019-10-28T10:54:01.000Z</time>
      </trkpt>
      <trkpt lat="48.62162" lon="2.1821">
        <ele>130</ele>
        <time>2019-10-28T10:54:02.000Z</time>
      </trkpt>
      <trkpt lat="48.62161" lon="2.18214">
        <ele>130</ele>
        <time>2019-10-28T10:54:03.000Z</time>
      </trkpt>
      <trkpt lat="48.62159" lon="2.18217">
        <ele>130</ele>
        <time>2019-10-28T10:54:04.000Z</time>
      </trkpt>
      <trkpt lat="48.62158" lon="2.18222">
        <ele>130</ele>
        <time>2019-10-28T10:54:05.000Z</time>
      </trkpt>
      <trkpt lat="48.62156" lon="2.18227">
        <ele>130</ele>
        <time>2019-10-28T10:54:06.000Z</time>
      </trkpt>
      <trkpt lat="48.62155" lon="2.18233">
        <ele>131</ele>
        <time>2019-10-28T10:54:07.000Z</time>
      </trkpt>
      <trkpt lat="48.62153" lon="2.18238">
        <ele>131</ele>
        <time>2019-10-28T10:54:08.000Z</time>
      </trkpt>
      <trkpt lat="48.62152" lon="2.18242">
        <ele>131</ele>
        <time>2019-10-28T10:54:09.000Z</time>
      </trkpt>
      <trkpt lat="48.62151" lon="2.18245">
        <ele>131</ele>
        <time>2019-10-28T10:54:10.000Z</time>
      </trkpt>
      <trkpt lat="48.62149" lon="2.18249">
        <ele>129</ele>
        <time>2019-10-28T10:54:11.000Z</time>
      </trkpt>
      <trkpt lat="48.62148" lon="2.18253">
        <ele>129</ele>
        <time>2019-10-28T10:54:12.000Z</time>
      </trkpt>
      <trkpt lat="48.62148" lon="2.18256">
        <ele>129</ele>
        <time>2019-10-28T10:54:13.000Z</time>
      </trkpt>
      <trkpt lat="48.62147" lon="2.18258">
        <ele>130</ele>
        <time>2019-10-28T10:54:14.000Z</time>
      </trkpt>
      <trkpt lat="48.62146" lon="2.18261">
        <ele>131</ele>
        <time>2019-10-28T10:54:15.000Z</time>
      </trkpt>
      <trkpt lat="48.62145" lon="2.18265">
        <ele>130</ele>
        <time>2019-10-28T10:54:16.000Z</time>
      </trkpt>
      <trkpt lat="48.62143" lon="2.18268">
        <ele>131</ele>
        <time>2019-10-28T10:54:17.000Z</time>
      </trkpt>
      <trkpt lat="48.62141" lon="2.18271">
        <ele>131</ele>
        <time>2019-10-28T10:54:18.000Z</time>
      </trkpt>
      <trkpt lat="48.62139" lon="2.18274">
        <ele>131</ele>
        <time>2019-10-28T10:54:19.000Z</time>
      </trkpt>
      <trkpt lat="48.62138" lon="2.18277">
        <ele>132</ele>
        <time>2019-10-28T10:54:20.000Z</time>
      </trkpt>
      <trkpt lat="48.62136" lon="2.18281">
        <ele>131</ele>
        <time>2019-10-28T10:54:21.000Z</time>
      </trkpt>
      <trkpt lat="48.62135" lon="2.18285">
        <ele>131</ele>
        <time>2019-10-28T10:54:22.000Z</time>
      </trkpt>
      <trkpt lat="48.62133" lon="2.18289">
        <ele>130</ele>
        <time>2019-10-28T10:54:23.000Z</time>
      </trkpt>
      <trkpt lat="48.62131" lon="2.18293">
        <ele>129</ele>
        <time>2019-10-28T10:54:24.000Z</time>
      </trkpt>
      <trkpt lat="48.6213" lon="2.18296">
        <ele>129</ele>
        <time>2019-10-28T10:54:25.000Z</time>
      </trkpt>
      <trkpt lat="48.62129" lon="2.18298">
        <ele>129</ele>
        <time>2019-10-28T10:54:26.000Z</time>
      </trkpt>
      <trkpt lat="48.62128" lon="2.18301">
        <ele>128</ele>
        <time>2019-10-28T10:54:27.000Z</time>
      </trkpt>
      <trkpt lat="48.62127" lon="2.18305">
        <ele>128</ele>
        <time>2019-10-28T10:54:28.000Z</time>
      </trkpt>
      <trkpt lat="48.62126" lon="2.18309">
        <ele>128</ele>
        <time>2019-10-28T10:54:29.000Z</time>
      </trkpt>
      <trkpt lat="48.62125" lon="2.18314">
        <ele>127</ele>
        <time>2019-10-28T10:54:30.000Z</time>
      </trkpt>
      <trkpt lat="48.62123" lon="2.18318">
        <ele>125</ele>
        <time>2019-10-28T10:54:31.000Z</time>
      </trkpt>
      <trkpt lat="48.62122" lon="2.18322">
        <ele>124</ele>
        <time>2019-10-28T10:54:32.000Z</time>
      </trkpt>
      <trkpt lat="48.6212" lon="2.18328">
        <ele>123</ele>
        <time>2019-10-28T10:54:33.000Z</time>
      </trkpt>
      <trkpt lat="48.62118" lon="2.18333">
        <ele>123</ele>
        <time>2019-10-28T10:54:34.000Z</time>
      </trkpt>
      <trkpt lat="48.62117" lon="2.18337">
        <ele>123</ele>
        <time>2019-10-28T10:54:35.000Z</time>
      </trkpt>
      <trkpt lat="48.62116" lon="2.18341">
        <ele>122</ele>
        <time>2019-10-28T10:54:36.000Z</time>
      </trkpt>
      <trkpt lat="48.62114" lon="2.18344">
        <ele>123</ele>
        <time>2019-10-28T10:54:37.000Z</time>
      </trkpt>
      <trkpt lat="48.62112" lon="2.18348">
        <ele>124</ele>
        <time>2019-10-28T10:54:38.000Z</time>
      </trkpt>
      <trkpt lat="48.62109" lon="2.18352">
        <ele>124</ele>
        <time>2019-10-28T10:54:39.000Z</time>
      </trkpt>
      <trkpt lat="48.62107" lon="2.18355">
        <ele>125</ele>
        <time>2019-10-28T10:54:40.000Z</time>
      </trkpt>
      <trkpt lat="48.62106" lon="2.18358">
        <ele>125</ele>
        <time>2019-10-28T10:54:41.000Z</time>
      </trkpt>
      <trkpt lat="48.62104" lon="2.18361">
        <ele>125</ele>
        <time>2019-10-28T10:54:42.000Z</time>
      </trkpt>
      <trkpt lat="48.62101" lon="2.18364">
        <ele>125</ele>
        <time>2019-10-28T10:54:43.000Z</time>
      </trkpt>
      <trkpt lat="48.62097" lon="2.18368">
        <ele>124</ele>
        <time>2019-10-28T10:54:44.000Z</time>
      </trkpt>
      <trkpt lat="48.62094" lon="2.18372">
        <ele>124</ele>
        <time>2019-10-28T10:54:45.000Z</time>
      </trkpt>
      <trkpt lat="48.6209" lon="2.18376">
        <ele>124</ele>
        <time>2019-10-28T10:54:46.000Z</time>
      </trkpt>
      <trkpt lat="48.62087" lon="2.18379">
        <ele>124</ele>
        <time>2019-10-28T10:54:47.000Z</time>
      </trkpt>
      <trkpt lat="48.62084" lon="2.18382">
        <ele>124</ele>
        <time>2019-10-28T10:54:48.000Z</time>
      </trkpt>
      <trkpt lat="48.62081" lon="2.18384">
        <ele>124</ele>
        <time>2019-10-28T10:54:49.000Z</time>
      </trkpt>
      <trkpt lat="48.62078" lon="2.18386">
        <ele>124</ele>
        <time>2019-10-28T10:54:50.000Z</time>
      </trkpt>
      <trkpt lat="48.62074" lon="2.18388">
        <ele>124</ele>
        <time>2019-10-28T10:54:51.000Z</time>
      </trkpt>
      <trkpt lat="48.62071" lon="2.18389">
        <ele>125</ele>
        <time>2019-10-28T10:54:52.000Z</time>
      </trkpt>
      <trkpt lat="48.62069" lon="2.1839">
        <ele>125</ele>
        <time>2019-10-28T10:54:53.000Z</time>
      </trkpt>
      <trkpt lat="48.62066" lon="2.18391">
        <ele>125</ele>
        <time>2019-10-28T10:54:54.000Z</time>
      </trkpt>
      <trkpt lat="48.62063" lon="2.18392">
        <ele>126</ele>
        <time>2019-10-28T10:54:55.000Z</time>
      </trkpt>
      <trkpt lat="48.62059" lon="2.18393">
        <ele>127</ele>
        <time>2019-10-28T10:54:56.000Z</time>
      </trkpt>
      <trkpt lat="48.62055" lon="2.18394">
        <ele>127</ele>
        <time>2019-10-28T10:54:57.000Z</time>
      </trkpt>
      <trkpt lat="48.62052" lon="2.18393">
        <ele>127</ele>
        <time>2019-10-28T10:54:58.000Z</time>
      </trkpt>
      <trkpt lat="48.62049" lon="2.18392">
        <ele>128</ele>
        <time>2019-10-28T10:54:59.000Z</time>
      </trkpt>
      <trkpt lat="48.62046" lon="2.18391">
        <ele>127</ele>
        <time>2019-10-28T10:55:00.000Z</time>
      </trkpt>
      <trkpt lat="48.62043" lon="2.18389">
        <ele>127</ele>
        <time>2019-10-28T10:55:01.000Z</time>
      </trkpt>
      <trkpt lat="48.62041" lon="2.18386">
        <ele>127</ele>
        <time>2019-10-28T10:55:02.000Z</time>
      </trkpt>
      <trkpt lat="48.62038" lon="2.18384">
        <ele>127</ele>
        <time>2019-10-28T10:55:03.000Z</time>
      </trkpt>
      <trkpt lat="48.62035" lon="2.18382">
        <ele>127</ele>
        <time>2019-10-28T10:55:04.000Z</time>
      </trkpt>
      <trkpt lat="48.62031" lon="2.18379">
        <ele>127</ele>
        <time>2019-10-28T10:55:05.000Z</time>
      </trkpt>
      <trkpt lat="48.62028" lon="2.18376">
        <ele>127</ele>
        <time>2019-10-28T10:55:06.000Z</time>
      </trkpt>
      <trkpt lat="48.62025" lon="2.18371">
        <ele>127</ele>
        <time>2019-10-28T10:55:07.000Z</time>
      </trkpt>
      <trkpt lat="48.62022" lon="2.18367">
        <ele>127</ele>
        <time>2019-10-28T10:55:08.000Z</time>
      </trkpt>
      <trkpt lat="48.62019" lon="2.18363">
        <ele>127</ele>
        <time>2019-10-28T10:55:09.000Z</time>
      </trkpt>
      <trkpt lat="48.62017" lon="2.18358">
        <ele>127</ele>
        <time>2019-10-28T10:55:10.000Z</time>
      </trkpt>
      <trkpt lat="48.62013" lon="2.18353">
        <ele>126</ele>
        <time>2019-10-28T10:55:11.000Z</time>
      </trkpt>
      <trkpt lat="48.62009" lon="2.18348">
        <ele>126</ele>
        <time>2019-10-28T10:55:12.000Z</time>
      </trkpt>
      <trkpt lat="48.62005" lon="2.18342">
        <ele>125</ele>
        <time>2019-10-28T10:55:13.000Z</time>
      </trkpt>
      <trkpt lat="48.62001" lon="2.18336">
        <ele>125</ele>
        <time>2019-10-28T10:55:14.000Z</time>
      </trkpt>
      <trkpt lat="48.61996" lon="2.1833">
        <ele>125</ele>
        <time>2019-10-28T10:55:15.000Z</time>
      </trkpt>
      <trkpt lat="48.61993" lon="2.18324">
        <ele>125</ele>
        <time>2019-10-28T10:55:16.000Z</time>
      </trkpt>
      <trkpt lat="48.61989" lon="2.18318">
        <ele>125</ele>
        <time>2019-10-28T10:55:17.000Z</time>
      </trkpt>
      <trkpt lat="48.61986" lon="2.18312">
        <ele>125</ele>
        <time>2019-10-28T10:55:18.000Z</time>
      </trkpt>
      <trkpt lat="48.61982" lon="2.18305">
        <ele>125</ele>
        <time>2019-10-28T10:55:19.000Z</time>
      </trkpt>
      <trkpt lat="48.61978" lon="2.18298">
        <ele>125</ele>
        <time>2019-10-28T10:55:20.000Z</time>
      </trkpt>
      <trkpt lat="48.61975" lon="2.18291">
        <ele>124</ele>
        <time>2019-10-28T10:55:21.000Z</time>
      </trkpt>
      <trkpt lat="48.61972" lon="2.18284">
        <ele>124</ele>
        <time>2019-10-28T10:55:22.000Z</time>
      </trkpt>
      <trkpt lat="48.61969" lon="2.18278">
        <ele>124</ele>
        <time>2019-10-28T10:55:23.000Z</time>
      </trkpt>
      <trkpt lat="48.61965" lon="2.18271">
        <ele>124</ele>
        <time>2019-10-28T10:55:24.000Z</time>
      </trkpt>
      <trkpt lat="48.61961" lon="2.18264">
        <ele>123</ele>
        <time>2019-10-28T10:55:25.000Z</time>
      </trkpt>
      <trkpt lat="48.61956" lon="2.18258">
        <ele>124</ele>
        <time>2019-10-28T10:55:26.000Z</time>
      </trkpt>
      <trkpt lat="48.61951" lon="2.18251">
        <ele>124</ele>
        <time>2019-10-28T10:55:27.000Z</time>
      </trkpt>
      <trkpt lat="48.61947" lon="2.18244">
        <ele>123</ele>
        <time>2019-10-28T10:55:28.000Z</time>
      </trkpt>
      <trkpt lat="48.61942" lon="2.18236">
        <ele>123</ele>
        <time>2019-10-28T10:55:29.000Z</time>
      </trkpt>
      <trkpt lat="48.61938" lon="2.18227">
        <ele>124</ele>
        <time>2019-10-28T10:55:30.000Z</time>
      </trkpt>
      <trkpt lat="48.61933" lon="2.18219">
        <ele>124</ele>
        <time>2019-10-28T10:55:31.000Z</time>
      </trkpt>
      <trkpt lat="48.61929" lon="2.18212">
        <ele>124</ele>
        <time>2019-10-28T10:55:32.000Z</time>
      </trkpt>
      <trkpt lat="48.61925" lon="2.18205">
        <ele>124</ele>
        <time>2019-10-28T10:55:33.000Z</time>
      </trkpt>
      <trkpt lat="48.61921" lon="2.18198">
        <ele>125</ele>
        <time>2019-10-28T10:55:34.000Z</time>
      </trkpt>
      <trkpt lat="48.61917" lon="2.18191">
        <ele>125</ele>
        <time>2019-10-28T10:55:35.000Z</time>
      </trkpt>
      <trkpt lat="48.61914" lon="2.18185">
        <ele>126</ele>
        <time>2019-10-28T10:55:36.000Z</time>
      </trkpt>
      <trkpt lat="48.6191" lon="2.18179">
        <ele>126</ele>
        <time>2019-10-28T10:55:37.000Z</time>
      </trkpt>
      <trkpt lat="48.61907" lon="2.18173">
        <ele>126</ele>
        <time>2019-10-28T10:55:38.000Z</time>
      </trkpt>
      <trkpt lat="48.61903" lon="2.18167">
        <ele>126</ele>
        <time>2019-10-28T10:55:39.000Z</time>
      </trkpt>
      <trkpt lat="48.619" lon="2.18161">
        <ele>126</ele>
        <time>2019-10-28T10:55:40.000Z</time>
      </trkpt>
      <trkpt lat="48.61897" lon="2.18155">
        <ele>127</ele>
        <time>2019-10-28T10:55:41.000Z</time>
      </trkpt>
      <trkpt lat="48.61894" lon="2.1815">
        <ele>127</ele>
        <time>2019-10-28T10:55:42.000Z</time>
      </trkpt>
      <trkpt lat="48.61891" lon="2.18143">
        <ele>128</ele>
        <time>2019-10-28T10:55:43.000Z</time>
      </trkpt>
      <trkpt lat="48.61888" lon="2.18136">
        <ele>129</ele>
        <time>2019-10-28T10:55:44.000Z</time>
      </trkpt>
      <trkpt lat="48.61884" lon="2.1813">
        <ele>129</ele>
        <time>2019-10-28T10:55:45.000Z</time>
      </trkpt>
      <trkpt lat="48.6188" lon="2.18124">
        <ele>130</ele>
        <time>2019-10-28T10:55:46.000Z</time>
      </trkpt>
      <trkpt lat="48.61877" lon="2.18118">
        <ele>131</ele>
        <time>2019-10-28T10:55:47.000Z</time>
      </trkpt>
      <trkpt lat="48.61874" lon="2.18111">
        <ele>131</ele>
        <time>2019-10-28T10:55:48.000Z</time>
      </trkpt>
      <trkpt lat="48.61871" lon="2.18105">
        <ele>132</ele>
        <time>2019-10-28T10:55:49.000Z</time>
      </trkpt>
      <trkpt lat="48.61868" lon="2.181">
        <ele>133</ele>
        <time>2019-10-28T10:55:50.000Z</time>
      </trkpt>
      <trkpt lat="48.61865" lon="2.18095">
        <ele>133</ele>
        <time>2019-10-28T10:55:51.000Z</time>
      </trkpt>
      <trkpt lat="48.61862" lon="2.18089">
        <ele>133</ele>
        <time>2019-10-28T10:55:52.000Z</time>
      </trkpt>
      <trkpt lat="48.61859" lon="2.18083">
        <ele>133</ele>
        <time>2019-10-28T10:55:53.000Z</time>
      </trkpt>
      <trkpt lat="48.61856" lon="2.18077">
        <ele>133</ele>
        <time>2019-10-28T10:55:54.000Z</time>
      </trkpt>
      <trkpt lat="48.61853" lon="2.18071">
        <ele>134</ele>
        <time>2019-10-28T10:55:55.000Z</time>
      </trkpt>
      <trkpt lat="48.6185" lon="2.18065">
        <ele>135</ele>
        <time>2019-10-28T10:55:56.000Z</time>
      </trkpt>
      <trkpt lat="48.61847" lon="2.1806">
        <ele>135</ele>
        <time>2019-10-28T10:55:57.000Z</time>
      </trkpt>
      <trkpt lat="48.61844" lon="2.18053">
        <ele>136</ele>
        <time>2019-10-28T10:55:58.000Z</time>
      </trkpt>
      <trkpt lat="48.61842" lon="2.18048">
        <ele>136</ele>
        <time>2019-10-28T10:55:59.000Z</time>
      </trkpt>
      <trkpt lat="48.61839" lon="2.18043">
        <ele>136</ele>
        <time>2019-10-28T10:56:00.000Z</time>
      </trkpt>
      <trkpt lat="48.61835" lon="2.18039">
        <ele>137</ele>
        <time>2019-10-28T10:56:01.000Z</time>
      </trkpt>
      <trkpt lat="48.61832" lon="2.18035">
        <ele>137</ele>
        <time>2019-10-28T10:56:02.000Z</time>
      </trkpt>
      <trkpt lat="48.61829" lon="2.18032">
        <ele>138</ele>
        <time>2019-10-28T10:56:03.000Z</time>
      </trkpt>
      <trkpt lat="48.61825" lon="2.18031">
        <ele>138</ele>
        <time>2019-10-28T10:56:04.000Z</time>
      </trkpt>
      <trkpt lat="48.61822" lon="2.18029">
        <ele>139</ele>
        <time>2019-10-28T10:56:05.000Z</time>
      </trkpt>
      <trkpt lat="48.61819" lon="2.18027">
        <ele>140</ele>
        <time>2019-10-28T10:56:06.000Z</time>
      </trkpt>
      <trkpt lat="48.61817" lon="2.18025">
        <ele>141</ele>
        <time>2019-10-28T10:56:07.000Z</time>
      </trkpt>
      <trkpt lat="48.61815" lon="2.18024">
        <ele>141</ele>
        <time>2019-10-28T10:56:08.000Z</time>
      </trkpt>
      <trkpt lat="48.61814" lon="2.18023">
        <ele>141</ele>
        <time>2019-10-28T10:56:09.000Z</time>
      </trkpt>
      <trkpt lat="48.61814" lon="2.18022">
        <ele>142</ele>
        <time>2019-10-28T10:56:10.000Z</time>
      </trkpt>
      <trkpt lat="48.61813" lon="2.18022">
        <ele>143</ele>
        <time>2019-10-28T10:56:11.000Z</time>
      </trkpt>
      <trkpt lat="48.61813" lon="2.18021">
        <ele>143</ele>
        <time>2019-10-28T10:56:12.000Z</time>
      </trkpt>
      <trkpt lat="48.61812" lon="2.18021">
        <ele>143</ele>
        <time>2019-10-28T10:56:13.000Z</time>
      </trkpt>
      <trkpt lat="48.61812" lon="2.18021">
        <ele>143</ele>
        <time>2019-10-28T10:56:14.000Z</time>
      </trkpt>
      <trkpt lat="48.61811" lon="2.18021">
        <ele>144</ele>
        <time>2019-10-28T10:56:15.000Z</time>
      </trkpt>
      <trkpt lat="48.61811" lon="2.18022">
        <ele>144</ele>
        <time>2019-10-28T10:56:16.000Z</time>
      </trkpt>
      <trkpt lat="48.6181" lon="2.18023">
        <ele>144</ele>
        <time>2019-10-28T10:56:17.000Z</time>
      </trkpt>
      <trkpt lat="48.61809" lon="2.18024">
        <ele>145</ele>
        <time>2019-10-28T10:56:18.000Z</time>
      </trkpt>
      <trkpt lat="48.61809" lon="2.18025">
        <ele>145</ele>
        <time>2019-10-28T10:56:19.000Z</time>
      </trkpt>
      <trkpt lat="48.61808" lon="2.18026">
        <ele>146</ele>
        <time>2019-10-28T10:56:20.000Z</time>
      </trkpt>
      <trkpt lat="48.61807" lon="2.18028">
        <ele>146</ele>
        <time>2019-10-28T10:56:21.000Z</time>
      </trkpt>
      <trkpt lat="48.61806" lon="2.1803">
        <ele>147</ele>
        <time>2019-10-28T10:56:22.000Z</time>
      </trkpt>
      <trkpt lat="48.61805" lon="2.18033">
        <ele>148</ele>
        <time>2019-10-28T10:56:23.000Z</time>
      </trkpt>
      <trkpt lat="48.61804" lon="2.18035">
        <ele>148</ele>
        <time>2019-10-28T10:56:24.000Z</time>
      </trkpt>
      <trkpt lat="48.61803" lon="2.18037">
        <ele>147</ele>
        <time>2019-10-28T10:56:25.000Z</time>
      </trkpt>
      <trkpt lat="48.61802" lon="2.1804">
        <ele>147</ele>
        <time>2019-10-28T10:56:26.000Z</time>
      </trkpt>
      <trkpt lat="48.61802" lon="2.18044">
        <ele>146</ele>
        <time>2019-10-28T10:56:27.000Z</time>
      </trkpt>
      <trkpt lat="48.618" lon="2.18048">
        <ele>146</ele>
        <time>2019-10-28T10:56:28.000Z</time>
      </trkpt>
      <trkpt lat="48.61799" lon="2.18053">
        <ele>146</ele>
        <time>2019-10-28T10:56:29.000Z</time>
      </trkpt>
      <trkpt lat="48.61797" lon="2.18057">
        <ele>146</ele>
        <time>2019-10-28T10:56:30.000Z</time>
      </trkpt>
      <trkpt lat="48.61796" lon="2.18062">
        <ele>147</ele>
        <time>2019-10-28T10:56:31.000Z</time>
      </trkpt>
      <trkpt lat="48.61795" lon="2.18066">
        <ele>147</ele>
        <time>2019-10-28T10:56:32.000Z</time>
      </trkpt>
      <trkpt lat="48.61794" lon="2.18072">
        <ele>147</ele>
        <time>2019-10-28T10:56:33.000Z</time>
      </trkpt>
      <trkpt lat="48.61792" lon="2.18077">
        <ele>146</ele>
        <time>2019-10-28T10:56:34.000Z</time>
      </trkpt>
      <trkpt lat="48.6179" lon="2.18082">
        <ele>147</ele>
        <time>2019-10-28T10:56:35.000Z</time>
      </trkpt>
      <trkpt lat="48.61789" lon="2.18087">
        <ele>147</ele>
        <time>2019-10-28T10:56:36.000Z</time>
      </trkpt>
      <trkpt lat="48.61786" lon="2.18092">
        <ele>147</ele>
        <time>2019-10-28T10:56:37.000Z</time>
      </trkpt>
      <trkpt lat="48.61784" lon="2.18097">
        <ele>147</ele>
        <time>2019-10-28T10:56:38.000Z</time>
      </trkpt>
      <trkpt lat="48.61782" lon="2.18103">
        <ele>147</ele>
        <time>2019-10-28T10:56:39.000Z</time>
      </trkpt>
      <trkpt lat="48.61779" lon="2.18109">
        <ele>147</ele>
        <time>2019-10-28T10:56:40.000Z</time>
      </trkpt>
      <trkpt lat="48.61777" lon="2.18116">
        <ele>147</ele>
        <time>2019-10-28T10:56:41.000Z</time>
      </trkpt>
      <trkpt lat="48.61775" lon="2.18123">
        <ele>147</ele>
        <time>2019-10-28T10:56:42.000Z</time>
      </trkpt>
      <trkpt lat="48.61773" lon="2.18128">
        <ele>146</ele>
        <time>2019-10-28T10:56:43.000Z</time>
      </trkpt>
      <trkpt lat="48.61771" lon="2.18133">
        <ele>146</ele>
        <time>2019-10-28T10:56:44.000Z</time>
      </trkpt>
      <trkpt lat="48.6177" lon="2.18139">
        <ele>145</ele>
        <time>2019-10-28T10:56:45.000Z</time>
      </trkpt>
      <trkpt lat="48.61768" lon="2.18146">
        <ele>145</ele>
        <time>2019-10-28T10:56:46.000Z</time>
      </trkpt>
      <trkpt lat="48.61767" lon="2.18154">
        <ele>145</ele>
        <time>2019-10-28T10:56:47.000Z</time>
      </trkpt>
      <trkpt lat="48.61765" lon="2.1816">
        <ele>145</ele>
        <time>2019-10-28T10:56:48.000Z</time>
      </trkpt>
      <trkpt lat="48.61763" lon="2.18167">
        <ele>145</ele>
        <time>2019-10-28T10:56:49.000Z</time>
      </trkpt>
      <trkpt lat="48.61762" lon="2.18173">
        <ele>145</ele>
        <time>2019-10-28T10:56:50.000Z</time>
      </trkpt>
      <trkpt lat="48.6176" lon="2.1818">
        <ele>143</ele>
        <time>2019-10-28T10:56:51.000Z</time>
      </trkpt>
      <trkpt lat="48.61758" lon="2.18186">
        <ele>143</ele>
        <time>2019-10-28T10:56:52.000Z</time>
      </trkpt>
      <trkpt lat="48.61756" lon="2.18193">
        <ele>142</ele>
        <time>2019-10-28T10:56:53.000Z</time>
      </trkpt>
      <trkpt lat="48.61755" lon="2.18199">
        <ele>141</ele>
        <time>2019-10-28T10:56:54.000Z</time>
      </trkpt>
      <trkpt lat="48.61754" lon="2.18206">
        <ele>141</ele>
        <time>2019-10-28T10:56:55.000Z</time>
      </trkpt>
      <trkpt lat="48.61753" lon="2.18213">
        <ele>140</ele>
        <time>2019-10-28T10:56:56.000Z</time>
      </trkpt>
      <trkpt lat="48.61752" lon="2.18221">
        <ele>139</ele>
        <time>2019-10-28T10:56:57.000Z</time>
      </trkpt>
      <trkpt lat="48.61751" lon="2.18228">
        <ele>138</ele>
        <time>2019-10-28T10:56:58.000Z</time>
      </trkpt>
      <trkpt lat="48.6175" lon="2.18236">
        <ele>137</ele>
        <time>2019-10-28T10:56:59.000Z</time>
      </trkpt>
      <trkpt lat="48.61748" lon="2.18243">
        <ele>136</ele>
        <time>2019-10-28T10:57:00.000Z</time>
      </trkpt>
      <trkpt lat="48.61747" lon="2.18251">
        <ele>136</ele>
        <time>2019-10-28T10:57:01.000Z</time>
      </trkpt>
      <trkpt lat="48.61745" lon="2.18259">
        <ele>136</ele>
        <time>2019-10-28T10:57:02.000Z</time>
      </trkpt>
      <trkpt lat="48.61744" lon="2.18267">
        <ele>136</ele>
        <time>2019-10-28T10:57:03.000Z</time>
      </trkpt>
      <trkpt lat="48.61742" lon="2.18274">
        <ele>136</ele>
        <time>2019-10-28T10:57:04.000Z</time>
      </trkpt>
      <trkpt lat="48.61739" lon="2.18281">
        <ele>136</ele>
        <time>2019-10-28T10:57:05.000Z</time>
      </trkpt>
      <trkpt lat="48.61737" lon="2.1829">
        <ele>136</ele>
        <time>2019-10-28T10:57:06.000Z</time>
      </trkpt>
      <trkpt lat="48.61735" lon="2.18298">
        <ele>136</ele>
        <time>2019-10-28T10:57:07.000Z</time>
      </trkpt>
      <trkpt lat="48.61733" lon="2.18306">
        <ele>135</ele>
        <time>2019-10-28T10:57:08.000Z</time>
      </trkpt>
      <trkpt lat="48.61731" lon="2.18313">
        <ele>135</ele>
        <time>2019-10-28T10:57:09.000Z</time>
      </trkpt>
      <trkpt lat="48.6173" lon="2.1832">
        <ele>136</ele>
        <time>2019-10-28T10:57:10.000Z</time>
      </trkpt>
      <trkpt lat="48.61728" lon="2.18328">
        <ele>136</ele>
        <time>2019-10-28T10:57:11.000Z</time>
      </trkpt>
      <trkpt lat="48.61726" lon="2.18336">
        <ele>136</ele>
        <time>2019-10-28T10:57:12.000Z</time>
      </trkpt>
      <trkpt lat="48.61725" lon="2.18344">
        <ele>136</ele>
        <time>2019-10-28T10:57:13.000Z</time>
      </trkpt>
      <trkpt lat="48.61724" lon="2.18351">
        <ele>136</ele>
        <time>2019-10-28T10:57:14.000Z</time>
      </trkpt>
      <trkpt lat="48.61723" lon="2.18358">
        <ele>136</ele>
        <time>2019-10-28T10:57:15.000Z</time>
      </trkpt>
      <trkpt lat="48.61721" lon="2.18364">
        <ele>137</ele>
        <time>2019-10-28T10:57:16.000Z</time>
      </trkpt>
      <trkpt lat="48.61719" lon="2.18371">
        <ele>137</ele>
        <time>2019-10-28T10:57:17.000Z</time>
      </trkpt>
      <trkpt lat="48.61717" lon="2.18378">
        <ele>136</ele>
        <time>2019-10-28T10:57:18.000Z</time>
      </trkpt>
      <trkpt lat="48.61715" lon="2.18386">
        <ele>136</ele>
        <time>2019-10-28T10:57:19.000Z</time>
      </trkpt>
      <trkpt lat="48.61713" lon="2.18395">
        <ele>137</ele>
        <time>2019-10-28T10:57:20.000Z</time>
      </trkpt>
      <trkpt lat="48.61711" lon="2.18403">
        <ele>137</ele>
        <time>2019-10-28T10:57:21.000Z</time>
      </trkpt>
      <trkpt lat="48.61709" lon="2.18412">
        <ele>137</ele>
        <time>2019-10-28T10:57:22.000Z</time>
      </trkpt>
      <trkpt lat="48.61708" lon="2.1842">
        <ele>136</ele>
        <time>2019-10-28T10:57:23.000Z</time>
      </trkpt>
      <trkpt lat="48.61705" lon="2.18428">
        <ele>136</ele>
        <time>2019-10-28T10:57:24.000Z</time>
      </trkpt>
      <trkpt lat="48.61703" lon="2.18437">
        <ele>136</ele>
        <time>2019-10-28T10:57:25.000Z</time>
      </trkpt>
      <trkpt lat="48.61701" lon="2.18446">
        <ele>136</ele>
        <time>2019-10-28T10:57:26.000Z</time>
      </trkpt>
      <trkpt lat="48.61699" lon="2.18456">
        <ele>136</ele>
        <time>2019-10-28T10:57:27.000Z</time>
      </trkpt>
      <trkpt lat="48.61697" lon="2.18466">
        <ele>136</ele>
        <time>2019-10-28T10:57:28.000Z</time>
      </trkpt>
      <trkpt lat="48.61695" lon="2.18475">
        <ele>136</ele>
        <time>2019-10-28T10:57:29.000Z</time>
      </trkpt>
      <trkpt lat="48.61693" lon="2.18484">
        <ele>137</ele>
        <time>2019-10-28T10:57:30.000Z</time>
      </trkpt>
      <trkpt lat="48.61691" lon="2.18493">
        <ele>137</ele>
        <time>2019-10-28T10:57:31.000Z</time>
      </trkpt>
      <trkpt lat="48.6169" lon="2.18501">
        <ele>137</ele>
        <time>2019-10-28T10:57:32.000Z</time>
      </trkpt>
      <trkpt lat="48.61688" lon="2.18508">
        <ele>137</ele>
        <time>2019-10-28T10:57:33.000Z</time>
      </trkpt>
      <trkpt lat="48.61685" lon="2.18515">
        <ele>138</ele>
        <time>2019-10-28T10:57:34.000Z</time>
      </trkpt>
      <trkpt lat="48.61683" lon="2.18523">
        <ele>138</ele>
        <time>2019-10-28T10:57:35.000Z</time>
      </trkpt>
      <trkpt lat="48.61682" lon="2.1853">
        <ele>139</ele>
        <time>2019-10-28T10:57:36.000Z</time>
      </trkpt>
      <trkpt lat="48.6168" lon="2.18538">
        <ele>140</ele>
        <time>2019-10-28T10:57:37.000Z</time>
      </trkpt>
      <trkpt lat="48.61679" lon="2.18546">
        <ele>141</ele>
        <time>2019-10-28T10:57:38.000Z</time>
      </trkpt>
      <trkpt lat="48.61677" lon="2.18554">
        <ele>141</ele>
        <time>2019-10-28T10:57:39.000Z</time>
      </trkpt>
      <trkpt lat="48.61677" lon="2.18562">
        <ele>140</ele>
        <time>2019-10-28T10:57:40.000Z</time>
      </trkpt>
      <trkpt lat="48.61675" lon="2.1857">
        <ele>140</ele>
        <time>2019-10-28T10:57:41.000Z</time>
      </trkpt>
      <trkpt lat="48.61674" lon="2.1858">
        <ele>141</ele>
        <time>2019-10-28T10:57:42.000Z</time>
      </trkpt>
      <trkpt lat="48.61671" lon="2.18589">
        <ele>141</ele>
        <time>2019-10-28T10:57:43.000Z</time>
      </trkpt>
      <trkpt lat="48.61669" lon="2.18598">
        <ele>141</ele>
        <time>2019-10-28T10:57:44.000Z</time>
      </trkpt>
      <trkpt lat="48.61667" lon="2.18606">
        <ele>140</ele>
        <time>2019-10-28T10:57:45.000Z</time>
      </trkpt>
      <trkpt lat="48.61666" lon="2.18614">
        <ele>140</ele>
        <time>2019-10-28T10:57:46.000Z</time>
      </trkpt>
      <trkpt lat="48.61664" lon="2.18622">
        <ele>140</ele>
        <time>2019-10-28T10:57:47.000Z</time>
      </trkpt>
      <trkpt lat="48.61663" lon="2.18631">
        <ele>140</ele>
        <time>2019-10-28T10:57:48.000Z</time>
      </trkpt>
      <trkpt lat="48.61661" lon="2.18638">
        <ele>140</ele>
        <time>2019-10-28T10:57:49.000Z</time>
      </trkpt>
      <trkpt lat="48.6166" lon="2.18645">
        <ele>140</ele>
        <time>2019-10-28T10:57:50.000Z</time>
      </trkpt>
      <trkpt lat="48.61659" lon="2.18652">
        <ele>140</ele>
        <time>2019-10-28T10:57:51.000Z</time>
      </trkpt>
      <trkpt lat="48.61658" lon="2.18658">
        <ele>141</ele>
        <time>2019-10-28T10:57:52.000Z</time>
      </trkpt>
      <trkpt lat="48.61657" lon="2.18666">
        <ele>141</ele>
        <time>2019-10-28T10:57:53.000Z</time>
      </trkpt>
      <trkpt lat="48.61655" lon="2.18674">
        <ele>141</ele>
        <time>2019-10-28T10:57:54.000Z</time>
      </trkpt>
      <trkpt lat="48.61654" lon="2.18683">
        <ele>142</ele>
        <time>2019-10-28T10:57:55.000Z</time>
      </trkpt>
      <trkpt lat="48.61651" lon="2.1869">
        <ele>142</ele>
        <time>2019-10-28T10:57:56.000Z</time>
      </trkpt>
      <trkpt lat="48.61649" lon="2.18697">
        <ele>142</ele>
        <time>2019-10-28T10:57:57.000Z</time>
      </trkpt>
      <trkpt lat="48.61647" lon="2.18703">
        <ele>141</ele>
        <time>2019-10-28T10:57:58.000Z</time>
      </trkpt>
      <trkpt lat="48.61644" lon="2.18709">
        <ele>141</ele>
        <time>2019-10-28T10:57:59.000Z</time>
      </trkpt>
      <trkpt lat="48.61642" lon="2.18716">
        <ele>142</ele>
        <time>2019-10-28T10:58:00.000Z</time>
      </trkpt>
      <trkpt lat="48.61639" lon="2.18722">
        <ele>142</ele>
        <time>2019-10-28T10:58:01.000Z</time>
      </trkpt>
      <trkpt lat="48.61637" lon="2.1873">
        <ele>143</ele>
        <time>2019-10-28T10:58:02.000Z</time>
      </trkpt>
      <trkpt lat="48.61635" lon="2.18736">
        <ele>143</ele>
        <time>2019-10-28T10:58:03.000Z</time>
      </trkpt>
      <trkpt lat="48.61633" lon="2.18743">
        <ele>143</ele>
        <time>2019-10-28T10:58:04.000Z</time>
      </trkpt>
      <trkpt lat="48.61631" lon="2.18749">
        <ele>143</ele>
        <time>2019-10-28T10:58:05.000Z</time>
      </trkpt>
      <trkpt lat="48.6163" lon="2.18756">
        <ele>142</ele>
        <time>2019-10-28T10:58:06.000Z</time>
      </trkpt>
      <trkpt lat="48.61629" lon="2.18763">
        <ele>142</ele>
        <time>2019-10-28T10:58:07.000Z</time>
      </trkpt>
      <trkpt lat="48.61628" lon="2.1877">
        <ele>142</ele>
        <time>2019-10-28T10:58:08.000Z</time>
      </trkpt>
      <trkpt lat="48.61626" lon="2.18778">
        <ele>142</ele>
        <time>2019-10-28T10:58:09.000Z</time>
      </trkpt>
      <trkpt lat="48.61625" lon="2.18785">
        <ele>143</ele>
        <time>2019-10-28T10:58:10.000Z</time>
      </trkpt>
      <trkpt lat="48.61623" lon="2.18792">
        <ele>143</ele>
        <time>2019-10-28T10:58:11.000Z</time>
      </trkpt>
      <trkpt lat="48.61622" lon="2.18797">
        <ele>143</ele>
        <time>2019-10-28T10:58:12.000Z</time>
      </trkpt>
      <trkpt lat="48.6162" lon="2.18802">
        <ele>143</ele>
        <time>2019-10-28T10:58:13.000Z</time>
      </trkpt>
      <trkpt lat="48.61619" lon="2.18806">
        <ele>142</ele>
        <time>2019-10-28T10:58:14.000Z</time>
      </trkpt>
      <trkpt lat="48.61618" lon="2.18811">
        <ele>143</ele>
        <time>2019-10-28T10:58:15.000Z</time>
      </trkpt>
      <trkpt lat="48.61617" lon="2.18816">
        <ele>142</ele>
        <time>2019-10-28T10:58:16.000Z</time>
      </trkpt>
      <trkpt lat="48.61616" lon="2.18819">
        <ele>143</ele>
        <time>2019-10-28T10:58:17.000Z</time>
      </trkpt>
      <trkpt lat="48.61616" lon="2.18823">
        <ele>143</ele>
        <time>2019-10-28T10:58:18.000Z</time>
      </trkpt>
      <trkpt lat="48.61615" lon="2.18826">
        <ele>144</ele>
        <time>2019-10-28T10:58:19.000Z</time>
      </trkpt>
      <trkpt lat="48.61614" lon="2.1883">
        <ele>145</ele>
        <time>2019-10-28T10:58:20.000Z</time>
      </trkpt>
      <trkpt lat="48.61613" lon="2.18835">
        <ele>144</ele>
        <time>2019-10-28T10:58:21.000Z</time>
      </trkpt>
      <trkpt lat="48.61612" lon="2.1884">
        <ele>144</ele>
        <time>2019-10-28T10:58:22.000Z</time>
      </trkpt>
      <trkpt lat="48.6161" lon="2.18845">
        <ele>144</ele>
        <time>2019-10-28T10:58:23.000Z</time>
      </trkpt>
      <trkpt lat="48.61609" lon="2.18849">
        <ele>144</ele>
        <time>2019-10-28T10:58:24.000Z</time>
      </trkpt>
      <trkpt lat="48.61608" lon="2.18854">
        <ele>145</ele>
        <time>2019-10-28T10:58:25.000Z</time>
      </trkpt>
      <trkpt lat="48.61606" lon="2.18858">
        <ele>145</ele>
        <time>2019-10-28T10:58:26.000Z</time>
      </trkpt>
      <trkpt lat="48.61605" lon="2.18862">
        <ele>146</ele>
        <time>2019-10-28T10:58:27.000Z</time>
      </trkpt>
      <trkpt lat="48.61604" lon="2.18866">
        <ele>146</ele>
        <time>2019-10-28T10:58:28.000Z</time>
      </trkpt>
      <trkpt lat="48.61603" lon="2.1887">
        <ele>146</ele>
        <time>2019-10-28T10:58:29.000Z</time>
      </trkpt>
      <trkpt lat="48.61602" lon="2.18874">
        <ele>147</ele>
        <time>2019-10-28T10:58:30.000Z</time>
      </trkpt>
      <trkpt lat="48.61601" lon="2.1888">
        <ele>147</ele>
        <time>2019-10-28T10:58:31.000Z</time>
      </trkpt>
      <trkpt lat="48.61601" lon="2.18885">
        <ele>147</ele>
        <time>2019-10-28T10:58:32.000Z</time>
      </trkpt>
      <trkpt lat="48.61599" lon="2.18892">
        <ele>148</ele>
        <time>2019-10-28T10:58:33.000Z</time>
      </trkpt>
      <trkpt lat="48.61598" lon="2.18897">
        <ele>147</ele>
        <time>2019-10-28T10:58:34.000Z</time>
      </trkpt>
      <trkpt lat="48.61597" lon="2.18902">
        <ele>147</ele>
        <time>2019-10-28T10:58:35.000Z</time>
      </trkpt>
      <trkpt lat="48.61596" lon="2.18907">
        <ele>147</ele>
        <time>2019-10-28T10:58:36.000Z</time>
      </trkpt>
      <trkpt lat="48.61595" lon="2.18911">
        <ele>146</ele>
        <time>2019-10-28T10:58:37.000Z</time>
      </trkpt>
      <trkpt lat="48.61594" lon="2.18916">
        <ele>147</ele>
        <time>2019-10-28T10:58:38.000Z</time>
      </trkpt>
      <trkpt lat="48.61593" lon="2.1892">
        <ele>147</ele>
        <time>2019-10-28T10:58:39.000Z</time>
      </trkpt>
      <trkpt lat="48.61591" lon="2.18925">
        <ele>147</ele>
        <time>2019-10-28T10:58:40.000Z</time>
      </trkpt>
      <trkpt lat="48.6159" lon="2.18928">
        <ele>147</ele>
        <time>2019-10-28T10:58:41.000Z</time>
      </trkpt>
      <trkpt lat="48.61589" lon="2.18932">
        <ele>147</ele>
        <time>2019-10-28T10:58:42.000Z</time>
      </trkpt>
      <trkpt lat="48.61587" lon="2.18936">
        <ele>147</ele>
        <time>2019-10-28T10:58:43.000Z</time>
      </trkpt>
      <trkpt lat="48.61586" lon="2.1894">
        <ele>147</ele>
        <time>2019-10-28T10:58:44.000Z</time>
      </trkpt>
      <trkpt lat="48.61584" lon="2.18945">
        <ele>148</ele>
        <time>2019-10-28T10:58:45.000Z</time>
      </trkpt>
      <trkpt lat="48.61583" lon="2.1895">
        <ele>147</ele>
        <time>2019-10-28T10:58:46.000Z</time>
      </trkpt>
      <trkpt lat="48.61581" lon="2.18955">
        <ele>148</ele>
        <time>2019-10-28T10:58:47.000Z</time>
      </trkpt>
      <trkpt lat="48.61581" lon="2.18959">
        <ele>148</ele>
        <time>2019-10-28T10:58:48.000Z</time>
      </trkpt>
      <trkpt lat="48.6158" lon="2.18964">
        <ele>148</ele>
        <time>2019-10-28T10:58:49.000Z</time>
      </trkpt>
      <trkpt lat="48.6158" lon="2.18969">
        <ele>147</ele>
        <time>2019-10-28T10:58:50.000Z</time>
      </trkpt>
      <trkpt lat="48.61579" lon="2.18975">
        <ele>147</ele>
        <time>2019-10-28T10:58:51.000Z</time>
      </trkpt>
      <trkpt lat="48.61577" lon="2.18981">
        <ele>148</ele>
        <time>2019-10-28T10:58:52.000Z</time>
      </trkpt>
      <trkpt lat="48.61576" lon="2.18986">
        <ele>148</ele>
        <time>2019-10-28T10:58:53.000Z</time>
      </trkpt>
      <trkpt lat="48.61575" lon="2.18991">
        <ele>149</ele>
        <time>2019-10-28T10:58:54.000Z</time>
      </trkpt>
      <trkpt lat="48.61575" lon="2.18996">
        <ele>149</ele>
        <time>2019-10-28T10:58:55.000Z</time>
      </trkpt>
      <trkpt lat="48.61575" lon="2.19">
        <ele>149</ele>
        <time>2019-10-28T10:58:56.000Z</time>
      </trkpt>
      <trkpt lat="48.61574" lon="2.19005">
        <ele>150</ele>
        <time>2019-10-28T10:58:57.000Z</time>
      </trkpt>
      <trkpt lat="48.61573" lon="2.19009">
        <ele>150</ele>
        <time>2019-10-28T10:58:58.000Z</time>
      </trkpt>
      <trkpt lat="48.61572" lon="2.19014">
        <ele>150</ele>
        <time>2019-10-28T10:58:59.000Z</time>
      </trkpt>
      <trkpt lat="48.61571" lon="2.19018">
        <ele>150</ele>
        <time>2019-10-28T10:59:00.000Z</time>
      </trkpt>
      <trkpt lat="48.6157" lon="2.19022">
        <ele>150</ele>
        <time>2019-10-28T10:59:01.000Z</time>
      </trkpt>
      <trkpt lat="48.61569" lon="2.19026">
        <ele>150</ele>
        <time>2019-10-28T10:59:02.000Z</time>
      </trkpt>
      <trkpt lat="48.61568" lon="2.1903">
        <ele>151</ele>
        <time>2019-10-28T10:59:03.000Z</time>
      </trkpt>
      <trkpt lat="48.61567" lon="2.19034">
        <ele>151</ele>
        <time>2019-10-28T10:59:04.000Z</time>
      </trkpt>
      <trkpt lat="48.61566" lon="2.19038">
        <ele>151</ele>
        <time>2019-10-28T10:59:05.000Z</time>
      </trkpt>
      <trkpt lat="48.61565" lon="2.19042">
        <ele>151</ele>
        <time>2019-10-28T10:59:06.000Z</time>
      </trkpt>
      <trkpt lat="48.61564" lon="2.19047">
        <ele>150</ele>
        <time>2019-10-28T10:59:07.000Z</time>
      </trkpt>
      <trkpt lat="48.61563" lon="2.19051">
        <ele>150</ele>
        <time>2019-10-28T10:59:08.000Z</time>
      </trkpt>
      <trkpt lat="48.61562" lon="2.19055">
        <ele>150</ele>
        <time>2019-10-28T10:59:09.000Z</time>
      </trkpt>
      <trkpt lat="48.61561" lon="2.1906">
        <ele>150</ele>
        <time>2019-10-28T10:59:10.000Z</time>
      </trkpt>
      <trkpt lat="48.61559" lon="2.19065">
        <ele>150</ele>
        <time>2019-10-28T10:59:11.000Z</time>
      </trkpt>
      <trkpt lat="48.61557" lon="2.1907">
        <ele>150</ele>
        <time>2019-10-28T10:59:12.000Z</time>
      </trkpt>
      <trkpt lat="48.61556" lon="2.19075">
        <ele>150</ele>
        <time>2019-10-28T10:59:13.000Z</time>
      </trkpt>
      <trkpt lat="48.61555" lon="2.19079">
        <ele>150</ele>
        <time>2019-10-28T10:59:14.000Z</time>
      </trkpt>
      <trkpt lat="48.61554" lon="2.19085">
        <ele>150</ele>
        <time>2019-10-28T10:59:15.000Z</time>
      </trkpt>
      <trkpt lat="48.61553" lon="2.1909">
        <ele>150</ele>
        <time>2019-10-28T10:59:16.000Z</time>
      </trkpt>
      <trkpt lat="48.61552" lon="2.19095">
        <ele>150</ele>
        <time>2019-10-28T10:59:17.000Z</time>
      </trkpt>
      <trkpt lat="48.61551" lon="2.19101">
        <ele>150</ele>
        <time>2019-10-28T10:59:18.000Z</time>
      </trkpt>
      <trkpt lat="48.6155" lon="2.19106">
        <ele>151</ele>
        <time>2019-10-28T10:59:19.000Z</time>
      </trkpt>
      <trkpt lat="48.61548" lon="2.19111">
        <ele>151</ele>
        <time>2019-10-28T10:59:20.000Z</time>
      </trkpt>
      <trkpt lat="48.61547" lon="2.19116">
        <ele>151</ele>
        <time>2019-10-28T10:59:21.000Z</time>
      </trkpt>
      <trkpt lat="48.61545" lon="2.19122">
        <ele>151</ele>
        <time>2019-10-28T10:59:22.000Z</time>
      </trkpt>
      <trkpt lat="48.61544" lon="2.19127">
        <ele>151</ele>
        <time>2019-10-28T10:59:23.000Z</time>
      </trkpt>
      <trkpt lat="48.61542" lon="2.19132">
        <ele>151</ele>
        <time>2019-10-28T10:59:24.000Z</time>
      </trkpt>
      <trkpt lat="48.6154" lon="2.19137">
        <ele>151</ele>
        <time>2019-10-28T10:59:25.000Z</time>
      </trkpt>
      <trkpt lat="48.61538" lon="2.19142">
        <ele>151</ele>
        <time>2019-10-28T10:59:26.000Z</time>
      </trkpt>
      <trkpt lat="48.61537" lon="2.19146">
        <ele>151</ele>
        <time>2019-10-28T10:59:27.000Z</time>
      </trkpt>
      <trkpt lat="48.61535" lon="2.19151">
        <ele>152</ele>
        <time>2019-10-28T10:59:28.000Z</time>
      </trkpt>
      <trkpt lat="48.61534" lon="2.19155">
        <ele>152</ele>
        <time>2019-10-28T10:59:29.000Z</time>
      </trkpt>
      <trkpt lat="48.61532" lon="2.1916">
        <ele>153</ele>
        <time>2019-10-28T10:59:30.000Z</time>
      </trkpt>
      <trkpt lat="48.61531" lon="2.19165">
        <ele>153</ele>
        <time>2019-10-28T10:59:31.000Z</time>
      </trkpt>
      <trkpt lat="48.6153" lon="2.1917">
        <ele>153</ele>
        <time>2019-10-28T10:59:32.000Z</time>
      </trkpt>
      <trkpt lat="48.61529" lon="2.19174">
        <ele>153</ele>
        <time>2019-10-28T10:59:33.000Z</time>
      </trkpt>
      <trkpt lat="48.61529" lon="2.19178">
        <ele>153</ele>
        <time>2019-10-28T10:59:34.000Z</time>
      </trkpt>
      <trkpt lat="48.61528" lon="2.19182">
        <ele>152</ele>
        <time>2019-10-28T10:59:35.000Z</time>
      </trkpt>
      <trkpt lat="48.61527" lon="2.19187">
        <ele>153</ele>
        <time>2019-10-28T10:59:36.000Z</time>
      </trkpt>
      <trkpt lat="48.61526" lon="2.19192">
        <ele>153</ele>
        <time>2019-10-28T10:59:37.000Z</time>
      </trkpt>
      <trkpt lat="48.61525" lon="2.19196">
        <ele>153</ele>
        <time>2019-10-28T10:59:38.000Z</time>
      </trkpt>
      <trkpt lat="48.61524" lon="2.19201">
        <ele>152</ele>
        <time>2019-10-28T10:59:39.000Z</time>
      </trkpt>
      <trkpt lat="48.61523" lon="2.19207">
        <ele>153</ele>
        <time>2019-10-28T10:59:40.000Z</time>
      </trkpt>
      <trkpt lat="48.61521" lon="2.19213">
        <ele>153</ele>
        <time>2019-10-28T10:59:41.000Z</time>
      </trkpt>
      <trkpt lat="48.61519" lon="2.19219">
        <ele>154</ele>
        <time>2019-10-28T10:59:42.000Z</time>
      </trkpt>
      <trkpt lat="48.61518" lon="2.19224">
        <ele>154</ele>
        <time>2019-10-28T10:59:43.000Z</time>
      </trkpt>
      <trkpt lat="48.61517" lon="2.19229">
        <ele>155</ele>
        <time>2019-10-28T10:59:44.000Z</time>
      </trkpt>
      <trkpt lat="48.61515" lon="2.19233">
        <ele>155</ele>
        <time>2019-10-28T10:59:45.000Z</time>
      </trkpt>
      <trkpt lat="48.61514" lon="2.19238">
        <ele>155</ele>
        <time>2019-10-28T10:59:46.000Z</time>
      </trkpt>
      <trkpt lat="48.61512" lon="2.19243">
        <ele>155</ele>
        <time>2019-10-28T10:59:47.000Z</time>
      </trkpt>
      <trkpt lat="48.61511" lon="2.19247">
        <ele>154</ele>
        <time>2019-10-28T10:59:48.000Z</time>
      </trkpt>
      <trkpt lat="48.6151" lon="2.19251">
        <ele>154</ele>
        <time>2019-10-28T10:59:49.000Z</time>
      </trkpt>
      <trkpt lat="48.61508" lon="2.19254">
        <ele>154</ele>
        <time>2019-10-28T10:59:50.000Z</time>
      </trkpt>
      <trkpt lat="48.61507" lon="2.19256">
        <ele>154</ele>
        <time>2019-10-28T10:59:51.000Z</time>
      </trkpt>
      <trkpt lat="48.61505" lon="2.19259">
        <ele>155</ele>
        <time>2019-10-28T10:59:52.000Z</time>
      </trkpt>
      <trkpt lat="48.61503" lon="2.19261">
        <ele>155</ele>
        <time>2019-10-28T10:59:53.000Z</time>
      </trkpt>
      <trkpt lat="48.61501" lon="2.19263">
        <ele>155</ele>
        <time>2019-10-28T10:59:54.000Z</time>
      </trkpt>
      <trkpt lat="48.61499" lon="2.19266">
        <ele>156</ele>
        <time>2019-10-28T10:59:55.000Z</time>
      </trkpt>
      <trkpt lat="48.61498" lon="2.19269">
        <ele>156</ele>
        <time>2019-10-28T10:59:56.000Z</time>
      </trkpt>
      <trkpt lat="48.61496" lon="2.19271">
        <ele>156</ele>
        <time>2019-10-28T10:59:57.000Z</time>
      </trkpt>
      <trkpt lat="48.61494" lon="2.19272">
        <ele>156</ele>
        <time>2019-10-28T10:59:58.000Z</time>
      </trkpt>
      <trkpt lat="48.61493" lon="2.19273">
        <ele>157</ele>
        <time>2019-10-28T10:59:59.000Z</time>
      </trkpt>
      <trkpt lat="48.61492" lon="2.19274">
        <ele>157</ele>
        <time>2019-10-28T11:00:00.000Z</time>
      </trkpt>
      <trkpt lat="48.6149" lon="2.19275">
        <ele>158</ele>
        <time>2019-10-28T11:00:01.000Z</time>
      </trkpt>
      <trkpt lat="48.61489" lon="2.19275">
        <ele>157</ele>
        <time>2019-10-28T11:00:02.000Z</time>
      </trkpt>
      <trkpt lat="48.61488" lon="2.19276">
        <ele>158</ele>
        <time>2019-10-28T11:00:03.000Z</time>
      </trkpt>
      <trkpt lat="48.61487" lon="2.19277">
        <ele>158</ele>
        <time>2019-10-28T11:00:04.000Z</time>
      </trkpt>
      <trkpt lat="48.61486" lon="2.19277">
        <ele>158</ele>
        <time>2019-10-28T11:00:05.000Z</time>
      </trkpt>
      <trkpt lat="48.61484" lon="2.19278">
        <ele>159</ele>
        <time>2019-10-28T11:00:06.000Z</time>
      </trkpt>
      <trkpt lat="48.61482" lon="2.19279">
        <ele>159</ele>
        <time>2019-10-28T11:00:07.000Z</time>
      </trkpt>
      <trkpt lat="48.6148" lon="2.19279">
        <ele>159</ele>
        <time>2019-10-28T11:00:08.000Z</time>
      </trkpt>
      <trkpt lat="48.61479" lon="2.1928">
        <ele>159</ele>
        <time>2019-10-28T11:00:09.000Z</time>
      </trkpt>
      <trkpt lat="48.61478" lon="2.1928">
        <ele>159</ele>
        <time>2019-10-28T11:00:10.000Z</time>
      </trkpt>
      <trkpt lat="48.61477" lon="2.1928">
        <ele>159</ele>
        <time>2019-10-28T11:00:11.000Z</time>
      </trkpt>
      <trkpt lat="48.61475" lon="2.19281">
        <ele>158</ele>
        <time>2019-10-28T11:00:12.000Z</time>
      </trkpt>
      <trkpt lat="48.61474" lon="2.19282">
        <ele>158</ele>
        <time>2019-10-28T11:00:13.000Z</time>
      </trkpt>
      <trkpt lat="48.61472" lon="2.19283">
        <ele>158</ele>
        <time>2019-10-28T11:00:14.000Z</time>
      </trkpt>
      <trkpt lat="48.61471" lon="2.19283">
        <ele>158</ele>
        <time>2019-10-28T11:00:15.000Z</time>
      </trkpt>
      <trkpt lat="48.6147" lon="2.19283">
        <ele>158</ele>
        <time>2019-10-28T11:00:16.000Z</time>
      </trkpt>
      <trkpt lat="48.61468" lon="2.19284">
        <ele>158</ele>
        <time>2019-10-28T11:00:17.000Z</time>
      </trkpt>
      <trkpt lat="48.61467" lon="2.19284">
        <ele>158</ele>
        <time>2019-10-28T11:00:18.000Z</time>
      </trkpt>
      <trkpt lat="48.61465" lon="2.19284">
        <ele>158</ele>
        <time>2019-10-28T11:00:19.000Z</time>
      </trkpt>
      <trkpt lat="48.61464" lon="2.19284">
        <ele>158</ele>
        <time>2019-10-28T11:00:20.000Z</time>
      </trkpt>
      <trkpt lat="48.61463" lon="2.19285">
        <ele>158</ele>
        <time>2019-10-28T11:00:21.000Z</time>
      </trkpt>
      <trkpt lat="48.61461" lon="2.19285">
        <ele>158</ele>
        <time>2019-10-28T11:00:22.000Z</time>
      </trkpt>
      <trkpt lat="48.6146" lon="2.19285">
        <ele>159</ele>
        <time>2019-10-28T11:00:23.000Z</time>
      </trkpt>
      <trkpt lat="48.61459" lon="2.19285">
        <ele>159</ele>
        <time>2019-10-28T11:00:24.000Z</time>
      </trkpt>
      <trkpt lat="48.61458" lon="2.19286">
        <ele>159</ele>
        <time>2019-10-28T11:00:25.000Z</time>
      </trkpt>
      <trkpt lat="48.61457" lon="2.19286">
        <ele>159</ele>
        <time>2019-10-28T11:00:26.000Z</time>
      </trkpt>
      <trkpt lat="48.61456" lon="2.19286">
        <ele>159</ele>
        <time>2019-10-28T11:00:27.000Z</time>
      </trkpt>
      <trkpt lat="48.61454" lon="2.19286">
        <ele>159</ele>
        <time>2019-10-28T11:00:28.000Z</time>
      </trkpt>
      <trkpt lat="48.61453" lon="2.19286">
        <ele>158</ele>
        <time>2019-10-28T11:00:29.000Z</time>
      </trkpt>
      <trkpt lat="48.61452" lon="2.19286">
        <ele>158</ele>
        <time>2019-10-28T11:00:30.000Z</time>
      </trkpt>
      <trkpt lat="48.6145" lon="2.19287">
        <ele>158</ele>
        <time>2019-10-28T11:00:31.000Z</time>
      </trkpt>
      <trkpt lat="48.61449" lon="2.19287">
        <ele>158</ele>
        <time>2019-10-28T11:00:32.000Z</time>
      </trkpt>
      <trkpt lat="48.61447" lon="2.19287">
        <ele>158</ele>
        <time>2019-10-28T11:00:33.000Z</time>
      </trkpt>
      <trkpt lat="48.61446" lon="2.19287">
        <ele>158</ele>
        <time>2019-10-28T11:00:34.000Z</time>
      </trkpt>
      <trkpt lat="48.61445" lon="2.19288">
        <ele>158</ele>
        <time>2019-10-28T11:00:35.000Z</time>
      </trkpt>
      <trkpt lat="48.61443" lon="2.19288">
        <ele>158</ele>
        <time>2019-10-28T11:00:36.000Z</time>
      </trkpt>
      <trkpt lat="48.61442" lon="2.19289">
        <ele>158</ele>
        <time>2019-10-28T11:00:37.000Z</time>
      </trkpt>
      <trkpt lat="48.6144" lon="2.19289">
        <ele>158</ele>
        <time>2019-10-28T11:00:38.000Z</time>
      </trkpt>
      <trkpt lat="48.61439" lon="2.19289">
        <ele>158</ele>
        <time>2019-10-28T11:00:39.000Z</time>
      </trkpt>
      <trkpt lat="48.61438" lon="2.19289">
        <ele>158</ele>
        <time>2019-10-28T11:00:40.000Z</time>
      </trkpt>
      <trkpt lat="48.61436" lon="2.19289">
        <ele>159</ele>
        <time>2019-10-28T11:00:41.000Z</time>
      </trkpt>
      <trkpt lat="48.61435" lon="2.1929">
        <ele>159</ele>
        <time>2019-10-28T11:00:42.000Z</time>
      </trkpt>
      <trkpt lat="48.61434" lon="2.1929">
        <ele>159</ele>
        <time>2019-10-28T11:00:43.000Z</time>
      </trkpt>
      <trkpt lat="48.61433" lon="2.1929">
        <ele>159</ele>
        <time>2019-10-28T11:00:44.000Z</time>
      </trkpt>
      <trkpt lat="48.61431" lon="2.1929">
        <ele>159</ele>
        <time>2019-10-28T11:00:45.000Z</time>
      </trkpt>
      <trkpt lat="48.6143" lon="2.1929">
        <ele>159</ele>
        <time>2019-10-28T11:00:46.000Z</time>
      </trkpt>
      <trkpt lat="48.61429" lon="2.1929">
        <ele>159</ele>
        <time>2019-10-28T11:00:47.000Z</time>
      </trkpt>
      <trkpt lat="48.61427" lon="2.1929">
        <ele>159</ele>
        <time>2019-10-28T11:00:48.000Z</time>
      </trkpt>
      <trkpt lat="48.61426" lon="2.19291">
        <ele>159</ele>
        <time>2019-10-28T11:00:49.000Z</time>
      </trkpt>
      <trkpt lat="48.61425" lon="2.19291">
        <ele>159</ele>
        <time>2019-10-28T11:00:50.000Z</time>
      </trkpt>
      <trkpt lat="48.61423" lon="2.19291">
        <ele>159</ele>
        <time>2019-10-28T11:00:51.000Z</time>
      </trkpt>
      <trkpt lat="48.61422" lon="2.19291">
        <ele>159</ele>
        <time>2019-10-28T11:00:52.000Z</time>
      </trkpt>
      <trkpt lat="48.61421" lon="2.19291">
        <ele>159</ele>
        <time>2019-10-28T11:00:53.000Z</time>
      </trkpt>
      <trkpt lat="48.61419" lon="2.19291">
        <ele>159</ele>
        <time>2019-10-28T11:00:54.000Z</time>
      </trkpt>
      <trkpt lat="48.61418" lon="2.1929">
        <ele>159</ele>
        <time>2019-10-28T11:00:55.000Z</time>
      </trkpt>
      <trkpt lat="48.61417" lon="2.1929">
        <ele>159</ele>
        <time>2019-10-28T11:00:56.000Z</time>
      </trkpt>
      <trkpt lat="48.61416" lon="2.1929">
        <ele>159</ele>
        <time>2019-10-28T11:00:57.000Z</time>
      </trkpt>
      <trkpt lat="48.61414" lon="2.1929">
        <ele>159</ele>
        <time>2019-10-28T11:00:58.000Z</time>
      </trkpt>
      <trkpt lat="48.61412" lon="2.1929">
        <ele>159</ele>
        <time>2019-10-28T11:00:59.000Z</time>
      </trkpt>
      <trkpt lat="48.61411" lon="2.1929">
        <ele>159</ele>
        <time>2019-10-28T11:01:00.000Z</time>
      </trkpt>
      <trkpt lat="48.6141" lon="2.19289">
        <ele>159</ele>
        <time>2019-10-28T11:01:01.000Z</time>
      </trkpt>
      <trkpt lat="48.61408" lon="2.19289">
        <ele>159</ele>
        <time>2019-10-28T11:01:02.000Z</time>
      </trkpt>
      <trkpt lat="48.61407" lon="2.19289">
        <ele>159</ele>
        <time>2019-10-28T11:01:03.000Z</time>
      </trkpt>
      <trkpt lat="48.61406" lon="2.19289">
        <ele>159</ele>
        <time>2019-10-28T11:01:04.000Z</time>
      </trkpt>
      <trkpt lat="48.61405" lon="2.19289">
        <ele>159</ele>
        <time>2019-10-28T11:01:05.000Z</time>
      </trkpt>
      <trkpt lat="48.61404" lon="2.19288">
        <ele>159</ele>
        <time>2019-10-28T11:01:06.000Z</time>
      </trkpt>
      <trkpt lat="48.61402" lon="2.19288">
        <ele>159</ele>
        <time>2019-10-28T11:01:07.000Z</time>
      </trkpt>
      <trkpt lat="48.61401" lon="2.19288">
        <ele>159</ele>
        <time>2019-10-28T11:01:08.000Z</time>
      </trkpt>
      <trkpt lat="48.614" lon="2.19288">
        <ele>159</ele>
        <time>2019-10-28T11:01:09.000Z</time>
      </trkpt>
      <trkpt lat="48.61398" lon="2.19288">
        <ele>159</ele>
        <time>2019-10-28T11:01:10.000Z</time>
      </trkpt>
      <trkpt lat="48.61397" lon="2.19288">
        <ele>159</ele>
        <time>2019-10-28T11:01:11.000Z</time>
      </trkpt>
      <trkpt lat="48.61396" lon="2.19287">
        <ele>159</ele>
        <time>2019-10-28T11:01:12.000Z</time>
      </trkpt>
      <trkpt lat="48.61394" lon="2.19287">
        <ele>159</ele>
        <time>2019-10-28T11:01:13.000Z</time>
      </trkpt>
      <trkpt lat="48.61392" lon="2.19287">
        <ele>159</ele>
        <time>2019-10-28T11:01:14.000Z</time>
      </trkpt>
      <trkpt lat="48.61391" lon="2.19286">
        <ele>158</ele>
        <time>2019-10-28T11:01:15.000Z</time>
      </trkpt>
      <trkpt lat="48.6139" lon="2.19286">
        <ele>158</ele>
        <time>2019-10-28T11:01:16.000Z</time>
      </trkpt>
      <trkpt lat="48.61388" lon="2.19285">
        <ele>158</ele>
        <time>2019-10-28T11:01:17.000Z</time>
      </trkpt>
      <trkpt lat="48.61387" lon="2.19284">
        <ele>158</ele>
        <time>2019-10-28T11:01:18.000Z</time>
      </trkpt>
      <trkpt lat="48.61386" lon="2.19283">
        <ele>158</ele>
        <time>2019-10-28T11:01:19.000Z</time>
      </trkpt>
      <trkpt lat="48.61384" lon="2.19283">
        <ele>158</ele>
        <time>2019-10-28T11:01:20.000Z</time>
      </trkpt>
      <trkpt lat="48.61382" lon="2.19283">
        <ele>158</ele>
        <time>2019-10-28T11:01:21.000Z</time>
      </trkpt>
      <trkpt lat="48.6138" lon="2.19283">
        <ele>158</ele>
        <time>2019-10-28T11:01:22.000Z</time>
      </trkpt>
      <trkpt lat="48.61378" lon="2.19284">
        <ele>157</ele>
        <time>2019-10-28T11:01:23.000Z</time>
      </trkpt>
      <trkpt lat="48.61377" lon="2.19284">
        <ele>158</ele>
        <time>2019-10-28T11:01:24.000Z</time>
      </trkpt>
      <trkpt lat="48.61375" lon="2.19284">
        <ele>158</ele>
        <time>2019-10-28T11:01:25.000Z</time>
      </trkpt>
      <trkpt lat="48.61373" lon="2.19283">
        <ele>158</ele>
        <time>2019-10-28T11:01:26.000Z</time>
      </trkpt>
      <trkpt lat="48.61372" lon="2.19283">
        <ele>158</ele>
        <time>2019-10-28T11:01:27.000Z</time>
      </trkpt>
      <trkpt lat="48.6137" lon="2.19282">
        <ele>157</ele>
        <time>2019-10-28T11:01:28.000Z</time>
      </trkpt>
      <trkpt lat="48.61369" lon="2.19281">
        <ele>157</ele>
        <time>2019-10-28T11:01:29.000Z</time>
      </trkpt>
      <trkpt lat="48.61367" lon="2.1928">
        <ele>157</ele>
        <time>2019-10-28T11:01:30.000Z</time>
      </trkpt>
      <trkpt lat="48.61365" lon="2.19279">
        <ele>157</ele>
        <time>2019-10-28T11:01:31.000Z</time>
      </trkpt>
      <trkpt lat="48.61364" lon="2.19278">
        <ele>156</ele>
        <time>2019-10-28T11:01:32.000Z</time>
      </trkpt>
      <trkpt lat="48.61363" lon="2.19277">
        <ele>156</ele>
        <time>2019-10-28T11:01:33.000Z</time>
      </trkpt>
      <trkpt lat="48.61361" lon="2.19276">
        <ele>155</ele>
        <time>2019-10-28T11:01:34.000Z</time>
      </trkpt>
      <trkpt lat="48.6136" lon="2.19274">
        <ele>156</ele>
        <time>2019-10-28T11:01:35.000Z</time>
      </trkpt>
      <trkpt lat="48.61359" lon="2.19273">
        <ele>156</ele>
        <time>2019-10-28T11:01:36.000Z</time>
      </trkpt>
      <trkpt lat="48.61358" lon="2.19272">
        <ele>155</ele>
        <time>2019-10-28T11:01:37.000Z</time>
      </trkpt>
      <trkpt lat="48.61357" lon="2.1927">
        <ele>155</ele>
        <time>2019-10-28T11:01:38.000Z</time>
      </trkpt>
      <trkpt lat="48.61355" lon="2.19269">
        <ele>156</ele>
        <time>2019-10-28T11:01:39.000Z</time>
      </trkpt>
      <trkpt lat="48.61354" lon="2.19268">
        <ele>156</ele>
        <time>2019-10-28T11:01:40.000Z</time>
      </trkpt>
      <trkpt lat="48.61353" lon="2.19266">
        <ele>156</ele>
        <time>2019-10-28T11:01:41.000Z</time>
      </trkpt>
      <trkpt lat="48.61352" lon="2.19265">
        <ele>156</ele>
        <time>2019-10-28T11:01:42.000Z</time>
      </trkpt>
      <trkpt lat="48.61351" lon="2.19264">
        <ele>156</ele>
        <time>2019-10-28T11:01:43.000Z</time>
      </trkpt>
      <trkpt lat="48.6135" lon="2.19262">
        <ele>155</ele>
        <time>2019-10-28T11:01:44.000Z</time>
      </trkpt>
      <trkpt lat="48.6135" lon="2.19261">
        <ele>155</ele>
        <time>2019-10-28T11:01:45.000Z</time>
      </trkpt>
      <trkpt lat="48.61349" lon="2.1926">
        <ele>154</ele>
        <time>2019-10-28T11:01:46.000Z</time>
      </trkpt>
      <trkpt lat="48.61348" lon="2.19259">
        <ele>154</ele>
        <time>2019-10-28T11:01:47.000Z</time>
      </trkpt>
      <trkpt lat="48.61347" lon="2.19258">
        <ele>155</ele>
        <time>2019-10-28T11:01:48.000Z</time>
      </trkpt>
      <trkpt lat="48.61346" lon="2.19257">
        <ele>155</ele>
        <time>2019-10-28T11:01:49.000Z</time>
      </trkpt>
      <trkpt lat="48.61345" lon="2.19256">
        <ele>155</ele>
        <time>2019-10-28T11:01:50.000Z</time>
      </trkpt>
      <trkpt lat="48.61344" lon="2.19254">
        <ele>155</ele>
        <time>2019-10-28T11:01:51.000Z</time>
      </trkpt>
      <trkpt lat="48.61343" lon="2.19253">
        <ele>154</ele>
        <time>2019-10-28T11:01:52.000Z</time>
      </trkpt>
      <trkpt lat="48.61342" lon="2.19252">
        <ele>154</ele>
        <time>2019-10-28T11:01:53.000Z</time>
      </trkpt>
      <trkpt lat="48.61341" lon="2.1925">
        <ele>153</ele>
        <time>2019-10-28T11:01:54.000Z</time>
      </trkpt>
      <trkpt lat="48.6134" lon="2.19249">
        <ele>153</ele>
        <time>2019-10-28T11:01:55.000Z</time>
      </trkpt>
      <trkpt lat="48.61339" lon="2.19248">
        <ele>152</ele>
        <time>2019-10-28T11:01:56.000Z</time>
      </trkpt>
      <trkpt lat="48.61338" lon="2.19247">
        <ele>152</ele>
        <time>2019-10-28T11:01:57.000Z</time>
      </trkpt>
      <trkpt lat="48.61337" lon="2.19245">
        <ele>152</ele>
        <time>2019-10-28T11:01:58.000Z</time>
      </trkpt>
      <trkpt lat="48.61336" lon="2.19244">
        <ele>151</ele>
        <time>2019-10-28T11:01:59.000Z</time>
      </trkpt>
      <trkpt lat="48.61336" lon="2.19242">
        <ele>151</ele>
        <time>2019-10-28T11:02:00.000Z</time>
      </trkpt>
      <trkpt lat="48.61335" lon="2.19241">
        <ele>151</ele>
        <time>2019-10-28T11:02:01.000Z</time>
      </trkpt>
      <trkpt lat="48.61334" lon="2.19239">
        <ele>151</ele>
        <time>2019-10-28T11:02:02.000Z</time>
      </trkpt>
      <trkpt lat="48.61333" lon="2.19238">
        <ele>151</ele>
        <time>2019-10-28T11:02:03.000Z</time>
      </trkpt>
      <trkpt lat="48.61333" lon="2.19237">
        <ele>152</ele>
        <time>2019-10-28T11:02:04.000Z</time>
      </trkpt>
      <trkpt lat="48.61332" lon="2.19236">
        <ele>151</ele>
        <time>2019-10-28T11:02:05.000Z</time>
      </trkpt>
      <trkpt lat="48.61331" lon="2.19234">
        <ele>151</ele>
        <time>2019-10-28T11:02:06.000Z</time>
      </trkpt>
      <trkpt lat="48.61331" lon="2.19233">
        <ele>151</ele>
        <time>2019-10-28T11:02:07.000Z</time>
      </trkpt>
      <trkpt lat="48.6133" lon="2.19231">
        <ele>150</ele>
        <time>2019-10-28T11:02:08.000Z</time>
      </trkpt>
      <trkpt lat="48.61329" lon="2.1923">
        <ele>151</ele>
        <time>2019-10-28T11:02:09.000Z</time>
      </trkpt>
      <trkpt lat="48.61328" lon="2.19228">
        <ele>151</ele>
        <time>2019-10-28T11:02:10.000Z</time>
      </trkpt>
      <trkpt lat="48.61327" lon="2.19227">
        <ele>151</ele>
        <time>2019-10-28T11:02:11.000Z</time>
      </trkpt>
      <trkpt lat="48.61326" lon="2.19225">
        <ele>150</ele>
        <time>2019-10-28T11:02:12.000Z</time>
      </trkpt>
      <trkpt lat="48.61325" lon="2.19223">
        <ele>150</ele>
        <time>2019-10-28T11:02:13.000Z</time>
      </trkpt>
      <trkpt lat="48.61324" lon="2.19222">
        <ele>150</ele>
        <time>2019-10-28T11:02:14.000Z</time>
      </trkpt>
      <trkpt lat="48.61323" lon="2.19221">
        <ele>150</ele>
        <time>2019-10-28T11:02:15.000Z</time>
      </trkpt>
      <trkpt lat="48.61322" lon="2.19219">
        <ele>150</ele>
        <time>2019-10-28T11:02:16.000Z</time>
      </trkpt>
      <trkpt lat="48.61321" lon="2.19218">
        <ele>150</ele>
        <time>2019-10-28T11:02:17.000Z</time>
      </trkpt>
      <trkpt lat="48.6132" lon="2.19217">
        <ele>150</ele>
        <time>2019-10-28T11:02:18.000Z</time>
      </trkpt>
      <trkpt lat="48.61319" lon="2.19215">
        <ele>150</ele>
        <time>2019-10-28T11:02:19.000Z</time>
      </trkpt>
      <trkpt lat="48.61319" lon="2.19214">
        <ele>149</ele>
        <time>2019-10-28T11:02:20.000Z</time>
      </trkpt>
      <trkpt lat="48.61318" lon="2.19213">
        <ele>149</ele>
        <time>2019-10-28T11:02:21.000Z</time>
      </trkpt>
      <trkpt lat="48.61317" lon="2.19211">
        <ele>150</ele>
        <time>2019-10-28T11:02:22.000Z</time>
      </trkpt>
      <trkpt lat="48.61316" lon="2.19209">
        <ele>150</ele>
        <time>2019-10-28T11:02:23.000Z</time>
      </trkpt>
      <trkpt lat="48.61315" lon="2.19208">
        <ele>150</ele>
        <time>2019-10-28T11:02:24.000Z</time>
      </trkpt>
      <trkpt lat="48.61314" lon="2.19206">
        <ele>151</ele>
        <time>2019-10-28T11:02:25.000Z</time>
      </trkpt>
      <trkpt lat="48.61313" lon="2.19204">
        <ele>151</ele>
        <time>2019-10-28T11:02:26.000Z</time>
      </trkpt>
      <trkpt lat="48.61312" lon="2.19202">
        <ele>151</ele>
        <time>2019-10-28T11:02:27.000Z</time>
      </trkpt>
      <trkpt lat="48.61311" lon="2.19201">
        <ele>151</ele>
        <time>2019-10-28T11:02:28.000Z</time>
      </trkpt>
      <trkpt lat="48.6131" lon="2.192">
        <ele>151</ele>
        <time>2019-10-28T11:02:29.000Z</time>
      </trkpt>
      <trkpt lat="48.61309" lon="2.19198">
        <ele>151</ele>
        <time>2019-10-28T11:02:30.000Z</time>
      </trkpt>
      <trkpt lat="48.61308" lon="2.19197">
        <ele>151</ele>
        <time>2019-10-28T11:02:31.000Z</time>
      </trkpt>
      <trkpt lat="48.61307" lon="2.19195">
        <ele>150</ele>
        <time>2019-10-28T11:02:32.000Z</time>
      </trkpt>
      <trkpt lat="48.61306" lon="2.19194">
        <ele>150</ele>
        <time>2019-10-28T11:02:33.000Z</time>
      </trkpt>
      <trkpt lat="48.61305" lon="2.19192">
        <ele>150</ele>
        <time>2019-10-28T11:02:34.000Z</time>
      </trkpt>
      <trkpt lat="48.61304" lon="2.19191">
        <ele>150</ele>
        <time>2019-10-28T11:02:35.000Z</time>
      </trkpt>
      <trkpt lat="48.61303" lon="2.19189">
        <ele>150</ele>
        <time>2019-10-28T11:02:36.000Z</time>
      </trkpt>
      <trkpt lat="48.61302" lon="2.19188">
        <ele>150</ele>
        <time>2019-10-28T11:02:37.000Z</time>
      </trkpt>
      <trkpt lat="48.61301" lon="2.19186">
        <ele>150</ele>
        <time>2019-10-28T11:02:38.000Z</time>
      </trkpt>
      <trkpt lat="48.61301" lon="2.19185">
        <ele>150</ele>
        <time>2019-10-28T11:02:39.000Z</time>
      </trkpt>
      <trkpt lat="48.613" lon="2.19183">
        <ele>150</ele>
        <time>2019-10-28T11:02:40.000Z</time>
      </trkpt>
      <trkpt lat="48.61299" lon="2.19182">
        <ele>150</ele>
        <time>2019-10-28T11:02:41.000Z</time>
      </trkpt>
      <trkpt lat="48.61298" lon="2.19181">
        <ele>150</ele>
        <time>2019-10-28T11:02:42.000Z</time>
      </trkpt>
      <trkpt lat="48.61297" lon="2.1918">
        <ele>150</ele>
        <time>2019-10-28T11:02:43.000Z</time>
      </trkpt>
      <trkpt lat="48.61296" lon="2.19178">
        <ele>149</ele>
        <time>2019-10-28T11:02:44.000Z</time>
      </trkpt>
      <trkpt lat="48.61294" lon="2.19177">
        <ele>149</ele>
        <time>2019-10-28T11:02:45.000Z</time>
      </trkpt>
      <trkpt lat="48.61293" lon="2.19175">
        <ele>149</ele>
        <time>2019-10-28T11:02:46.000Z</time>
      </trkpt>
      <trkpt lat="48.61292" lon="2.19174">
        <ele>149</ele>
        <time>2019-10-28T11:02:47.000Z</time>
      </trkpt>
      <trkpt lat="48.61291" lon="2.19173">
        <ele>149</ele>
        <time>2019-10-28T11:02:48.000Z</time>
      </trkpt>
      <trkpt lat="48.6129" lon="2.19171">
        <ele>149</ele>
        <time>2019-10-28T11:02:49.000Z</time>
      </trkpt>
      <trkpt lat="48.61289" lon="2.1917">
        <ele>150</ele>
        <time>2019-10-28T11:02:50.000Z</time>
      </trkpt>
      <trkpt lat="48.61289" lon="2.19169">
        <ele>150</ele>
        <time>2019-10-28T11:02:51.000Z</time>
      </trkpt>
      <trkpt lat="48.61288" lon="2.19167">
        <ele>149</ele>
        <time>2019-10-28T11:02:52.000Z</time>
      </trkpt>
      <trkpt lat="48.61287" lon="2.19166">
        <ele>150</ele>
        <time>2019-10-28T11:02:53.000Z</time>
      </trkpt>
      <trkpt lat="48.61287" lon="2.19165">
        <ele>149</ele>
        <time>2019-10-28T11:02:54.000Z</time>
      </trkpt>
      <trkpt lat="48.61286" lon="2.19164">
        <ele>148</ele>
        <time>2019-10-28T11:02:55.000Z</time>
      </trkpt>
      <trkpt lat="48.61285" lon="2.19162">
        <ele>148</ele>
        <time>2019-10-28T11:02:56.000Z</time>
      </trkpt>
      <trkpt lat="48.61284" lon="2.19161">
        <ele>147</ele>
        <time>2019-10-28T11:02:57.000Z</time>
      </trkpt>
      <trkpt lat="48.61283" lon="2.19159">
        <ele>147</ele>
        <time>2019-10-28T11:02:58.000Z</time>
      </trkpt>
      <trkpt lat="48.61283" lon="2.19158">
        <ele>147</ele>
        <time>2019-10-28T11:02:59.000Z</time>
      </trkpt>
      <trkpt lat="48.61282" lon="2.19157">
        <ele>147</ele>
        <time>2019-10-28T11:03:00.000Z</time>
      </trkpt>
      <trkpt lat="48.61281" lon="2.19155">
        <ele>146</ele>
        <time>2019-10-28T11:03:01.000Z</time>
      </trkpt>
      <trkpt lat="48.6128" lon="2.19154">
        <ele>146</ele>
        <time>2019-10-28T11:03:02.000Z</time>
      </trkpt>
      <trkpt lat="48.61279" lon="2.19152">
        <ele>146</ele>
        <time>2019-10-28T11:03:03.000Z</time>
      </trkpt>
      <trkpt lat="48.61279" lon="2.19151">
        <ele>146</ele>
        <time>2019-10-28T11:03:04.000Z</time>
      </trkpt>
      <trkpt lat="48.61278" lon="2.19149">
        <ele>145</ele>
        <time>2019-10-28T11:03:05.000Z</time>
      </trkpt>
      <trkpt lat="48.61277" lon="2.19148">
        <ele>145</ele>
        <time>2019-10-28T11:03:06.000Z</time>
      </trkpt>
      <trkpt lat="48.61277" lon="2.19147">
        <ele>145</ele>
        <time>2019-10-28T11:03:07.000Z</time>
      </trkpt>
      <trkpt lat="48.61276" lon="2.19146">
        <ele>145</ele>
        <time>2019-10-28T11:03:08.000Z</time>
      </trkpt>
      <trkpt lat="48.61275" lon="2.19144">
        <ele>145</ele>
        <time>2019-10-28T11:03:09.000Z</time>
      </trkpt>
      <trkpt lat="48.61274" lon="2.19143">
        <ele>145</ele>
        <time>2019-10-28T11:03:10.000Z</time>
      </trkpt>
      <trkpt lat="48.61273" lon="2.19141">
        <ele>145</ele>
        <time>2019-10-28T11:03:11.000Z</time>
      </trkpt>
      <trkpt lat="48.61272" lon="2.1914">
        <ele>145</ele>
        <time>2019-10-28T11:03:12.000Z</time>
      </trkpt>
      <trkpt lat="48.61271" lon="2.19139">
        <ele>146</ele>
        <time>2019-10-28T11:03:13.000Z</time>
      </trkpt>
      <trkpt lat="48.6127" lon="2.19138">
        <ele>146</ele>
        <time>2019-10-28T11:03:14.000Z</time>
      </trkpt>
      <trkpt lat="48.61269" lon="2.19136">
        <ele>147</ele>
        <time>2019-10-28T11:03:15.000Z</time>
      </trkpt>
      <trkpt lat="48.61268" lon="2.19135">
        <ele>146</ele>
        <time>2019-10-28T11:03:16.000Z</time>
      </trkpt>
      <trkpt lat="48.61266" lon="2.19134">
        <ele>146</ele>
        <time>2019-10-28T11:03:17.000Z</time>
      </trkpt>
      <trkpt lat="48.61266" lon="2.19133">
        <ele>145</ele>
        <time>2019-10-28T11:03:18.000Z</time>
      </trkpt>
      <trkpt lat="48.61265" lon="2.19132">
        <ele>145</ele>
        <time>2019-10-28T11:03:19.000Z</time>
      </trkpt>
      <trkpt lat="48.61264" lon="2.1913">
        <ele>145</ele>
        <time>2019-10-28T11:03:20.000Z</time>
      </trkpt>
      <trkpt lat="48.61263" lon="2.19129">
        <ele>145</ele>
        <time>2019-10-28T11:03:21.000Z</time>
      </trkpt>
      <trkpt lat="48.61262" lon="2.19127">
        <ele>146</ele>
        <time>2019-10-28T11:03:22.000Z</time>
      </trkpt>
      <trkpt lat="48.61261" lon="2.19126">
        <ele>145</ele>
        <time>2019-10-28T11:03:23.000Z</time>
      </trkpt>
      <trkpt lat="48.6126" lon="2.19124">
        <ele>145</ele>
        <time>2019-10-28T11:03:24.000Z</time>
      </trkpt>
      <trkpt lat="48.61259" lon="2.19123">
        <ele>145</ele>
        <time>2019-10-28T11:03:25.000Z</time>
      </trkpt>
      <trkpt lat="48.61258" lon="2.19121">
        <ele>145</ele>
        <time>2019-10-28T11:03:26.000Z</time>
      </trkpt>
      <trkpt lat="48.61257" lon="2.1912">
        <ele>144</ele>
        <time>2019-10-28T11:03:27.000Z</time>
      </trkpt>
      <trkpt lat="48.61256" lon="2.19118">
        <ele>143</ele>
        <time>2019-10-28T11:03:28.000Z</time>
      </trkpt>
      <trkpt lat="48.61255" lon="2.19117">
        <ele>143</ele>
        <time>2019-10-28T11:03:29.000Z</time>
      </trkpt>
      <trkpt lat="48.61254" lon="2.19115">
        <ele>143</ele>
        <time>2019-10-28T11:03:30.000Z</time>
      </trkpt>
      <trkpt lat="48.61253" lon="2.19113">
        <ele>143</ele>
        <time>2019-10-28T11:03:31.000Z</time>
      </trkpt>
      <trkpt lat="48.61252" lon="2.19112">
        <ele>143</ele>
        <time>2019-10-28T11:03:32.000Z</time>
      </trkpt>
      <trkpt lat="48.61251" lon="2.1911">
        <ele>142</ele>
        <time>2019-10-28T11:03:33.000Z</time>
      </trkpt>
      <trkpt lat="48.6125" lon="2.19108">
        <ele>142</ele>
        <time>2019-10-28T11:03:34.000Z</time>
      </trkpt>
      <trkpt lat="48.61249" lon="2.19106">
        <ele>141</ele>
        <time>2019-10-28T11:03:35.000Z</time>
      </trkpt>
      <trkpt lat="48.61248" lon="2.19105">
        <ele>140</ele>
        <time>2019-10-28T11:03:36.000Z</time>
      </trkpt>
      <trkpt lat="48.61247" lon="2.19103">
        <ele>139</ele>
        <time>2019-10-28T11:03:37.000Z</time>
      </trkpt>
      <trkpt lat="48.61247" lon="2.19102">
        <ele>138</ele>
        <time>2019-10-28T11:03:38.000Z</time>
      </trkpt>
      <trkpt lat="48.61246" lon="2.191">
        <ele>138</ele>
        <time>2019-10-28T11:03:39.000Z</time>
      </trkpt>
      <trkpt lat="48.61245" lon="2.19098">
        <ele>137</ele>
        <time>2019-10-28T11:03:40.000Z</time>
      </trkpt>
      <trkpt lat="48.61244" lon="2.19097">
        <ele>137</ele>
        <time>2019-10-28T11:03:41.000Z</time>
      </trkpt>
      <trkpt lat="48.61243" lon="2.19095">
        <ele>137</ele>
        <time>2019-10-28T11:03:42.000Z</time>
      </trkpt>
      <trkpt lat="48.61242" lon="2.19094">
        <ele>137</ele>
        <time>2019-10-28T11:03:43.000Z</time>
      </trkpt>
      <trkpt lat="48.61241" lon="2.19092">
        <ele>137</ele>
        <time>2019-10-28T11:03:44.000Z</time>
      </trkpt>
      <trkpt lat="48.6124" lon="2.19091">
        <ele>137</ele>
        <time>2019-10-28T11:03:45.000Z</time>
      </trkpt>
      <trkpt lat="48.61239" lon="2.19089">
        <ele>138</ele>
        <time>2019-10-28T11:03:46.000Z</time>
      </trkpt>
      <trkpt lat="48.61238" lon="2.19088">
        <ele>137</ele>
        <time>2019-10-28T11:03:47.000Z</time>
      </trkpt>
      <trkpt lat="48.61237" lon="2.19086">
        <ele>137</ele>
        <time>2019-10-28T11:03:48.000Z</time>
      </trkpt>
      <trkpt lat="48.61236" lon="2.19084">
        <ele>138</ele>
        <time>2019-10-28T11:03:49.000Z</time>
      </trkpt>
      <trkpt lat="48.61235" lon="2.19083">
        <ele>138</ele>
        <time>2019-10-28T11:03:50.000Z</time>
      </trkpt>
      <trkpt lat="48.61234" lon="2.19081">
        <ele>138</ele>
        <time>2019-10-28T11:03:51.000Z</time>
      </trkpt>
      <trkpt lat="48.61233" lon="2.1908">
        <ele>138</ele>
        <time>2019-10-28T11:03:52.000Z</time>
      </trkpt>
      <trkpt lat="48.61233" lon="2.19078">
        <ele>137</ele>
        <time>2019-10-28T11:03:53.000Z</time>
      </trkpt>
      <trkpt lat="48.61232" lon="2.19076">
        <ele>137</ele>
        <time>2019-10-28T11:03:54.000Z</time>
      </trkpt>
      <trkpt lat="48.61231" lon="2.19075">
        <ele>137</ele>
        <time>2019-10-28T11:03:55.000Z</time>
      </trkpt>
      <trkpt lat="48.6123" lon="2.19073">
        <ele>136</ele>
        <time>2019-10-28T11:03:56.000Z</time>
      </trkpt>
      <trkpt lat="48.61229" lon="2.19072">
        <ele>137</ele>
        <time>2019-10-28T11:03:57.000Z</time>
      </trkpt>
      <trkpt lat="48.61228" lon="2.1907">
        <ele>137</ele>
        <time>2019-10-28T11:03:58.000Z</time>
      </trkpt>
      <trkpt lat="48.61227" lon="2.19069">
        <ele>137</ele>
        <time>2019-10-28T11:03:59.000Z</time>
      </trkpt>
      <trkpt lat="48.61226" lon="2.19068">
        <ele>136</ele>
        <time>2019-10-28T11:04:00.000Z</time>
      </trkpt>
      <trkpt lat="48.61226" lon="2.19067">
        <ele>135</ele>
        <time>2019-10-28T11:04:01.000Z</time>
      </trkpt>
      <trkpt lat="48.61225" lon="2.19065">
        <ele>135</ele>
        <time>2019-10-28T11:04:02.000Z</time>
      </trkpt>
      <trkpt lat="48.61224" lon="2.19064">
        <ele>134</ele>
        <time>2019-10-28T11:04:03.000Z</time>
      </trkpt>
      <trkpt lat="48.61223" lon="2.19063">
        <ele>134</ele>
        <time>2019-10-28T11:04:04.000Z</time>
      </trkpt>
      <trkpt lat="48.61222" lon="2.19062">
        <ele>134</ele>
        <time>2019-10-28T11:04:05.000Z</time>
      </trkpt>
      <trkpt lat="48.61222" lon="2.19061">
        <ele>133</ele>
        <time>2019-10-28T11:04:06.000Z</time>
      </trkpt>
      <trkpt lat="48.61221" lon="2.1906">
        <ele>132</ele>
        <time>2019-10-28T11:04:07.000Z</time>
      </trkpt>
      <trkpt lat="48.6122" lon="2.19058">
        <ele>132</ele>
        <time>2019-10-28T11:04:08.000Z</time>
      </trkpt>
      <trkpt lat="48.6122" lon="2.19057">
        <ele>131</ele>
        <time>2019-10-28T11:04:09.000Z</time>
      </trkpt>
      <trkpt lat="48.61219" lon="2.19056">
        <ele>131</ele>
        <time>2019-10-28T11:04:10.000Z</time>
      </trkpt>
      <trkpt lat="48.61219" lon="2.19054">
        <ele>131</ele>
        <time>2019-10-28T11:04:11.000Z</time>
      </trkpt>
      <trkpt lat="48.61218" lon="2.19053">
        <ele>131</ele>
        <time>2019-10-28T11:04:12.000Z</time>
      </trkpt>
      <trkpt lat="48.61218" lon="2.19051">
        <ele>131</ele>
        <time>2019-10-28T11:04:13.000Z</time>
      </trkpt>
      <trkpt lat="48.61217" lon="2.19049">
        <ele>131</ele>
        <time>2019-10-28T11:04:14.000Z</time>
      </trkpt>
      <trkpt lat="48.61216" lon="2.19047">
        <ele>131</ele>
        <time>2019-10-28T11:04:15.000Z</time>
      </trkpt>
      <trkpt lat="48.61215" lon="2.19046">
        <ele>131</ele>
        <time>2019-10-28T11:04:16.000Z</time>
      </trkpt>
      <trkpt lat="48.61215" lon="2.19044">
        <ele>131</ele>
        <time>2019-10-28T11:04:17.000Z</time>
      </trkpt>
      <trkpt lat="48.61214" lon="2.19043">
        <ele>131</ele>
        <time>2019-10-28T11:04:18.000Z</time>
      </trkpt>
      <trkpt lat="48.61213" lon="2.19042">
        <ele>131</ele>
        <time>2019-10-28T11:04:19.000Z</time>
      </trkpt>
      <trkpt lat="48.61212" lon="2.19041">
        <ele>130</ele>
        <time>2019-10-28T11:04:20.000Z</time>
      </trkpt>
      <trkpt lat="48.61211" lon="2.19039">
        <ele>130</ele>
        <time>2019-10-28T11:04:21.000Z</time>
      </trkpt>
      <trkpt lat="48.6121" lon="2.19038">
        <ele>131</ele>
        <time>2019-10-28T11:04:22.000Z</time>
      </trkpt>
      <trkpt lat="48.6121" lon="2.19037">
        <ele>130</ele>
        <time>2019-10-28T11:04:23.000Z</time>
      </trkpt>
      <trkpt lat="48.61209" lon="2.19036">
        <ele>130</ele>
        <time>2019-10-28T11:04:24.000Z</time>
      </trkpt>
      <trkpt lat="48.61208" lon="2.19035">
        <ele>130</ele>
        <time>2019-10-28T11:04:25.000Z</time>
      </trkpt>
      <trkpt lat="48.61207" lon="2.19034">
        <ele>130</ele>
        <time>2019-10-28T11:04:26.000Z</time>
      </trkpt>
      <trkpt lat="48.61205" lon="2.19033">
        <ele>129</ele>
        <time>2019-10-28T11:04:27.000Z</time>
      </trkpt>
      <trkpt lat="48.61204" lon="2.19032">
        <ele>129</ele>
        <time>2019-10-28T11:04:28.000Z</time>
      </trkpt>
      <trkpt lat="48.61202" lon="2.19032">
        <ele>129</ele>
        <time>2019-10-28T11:04:29.000Z</time>
      </trkpt>
      <trkpt lat="48.61202" lon="2.19031">
        <ele>128</ele>
        <time>2019-10-28T11:04:30.000Z</time>
      </trkpt>
      <trkpt lat="48.61201" lon="2.19029">
        <ele>129</ele>
        <time>2019-10-28T11:04:31.000Z</time>
      </trkpt>
      <trkpt lat="48.612" lon="2.19028">
        <ele>129</ele>
        <time>2019-10-28T11:04:32.000Z</time>
      </trkpt>
      <trkpt lat="48.61199" lon="2.19027">
        <ele>129</ele>
        <time>2019-10-28T11:04:33.000Z</time>
      </trkpt>
      <trkpt lat="48.61198" lon="2.19025">
        <ele>129</ele>
        <time>2019-10-28T11:04:34.000Z</time>
      </trkpt>
      <trkpt lat="48.61198" lon="2.19024">
        <ele>129</ele>
        <time>2019-10-28T11:04:35.000Z</time>
      </trkpt>
      <trkpt lat="48.61197" lon="2.19022">
        <ele>129</ele>
        <time>2019-10-28T11:04:36.000Z</time>
      </trkpt>
      <trkpt lat="48.61196" lon="2.1902">
        <ele>129</ele>
        <time>2019-10-28T11:04:37.000Z</time>
      </trkpt>
      <trkpt lat="48.61195" lon="2.19019">
        <ele>129</ele>
        <time>2019-10-28T11:04:38.000Z</time>
      </trkpt>
      <trkpt lat="48.61194" lon="2.19018">
        <ele>129</ele>
        <time>2019-10-28T11:04:39.000Z</time>
      </trkpt>
      <trkpt lat="48.61193" lon="2.19016">
        <ele>129</ele>
        <time>2019-10-28T11:04:40.000Z</time>
      </trkpt>
      <trkpt lat="48.61192" lon="2.19015">
        <ele>129</ele>
        <time>2019-10-28T11:04:41.000Z</time>
      </trkpt>
      <trkpt lat="48.61191" lon="2.19013">
        <ele>129</ele>
        <time>2019-10-28T11:04:42.000Z</time>
      </trkpt>
      <trkpt lat="48.6119" lon="2.19012">
        <ele>129</ele>
        <time>2019-10-28T11:04:43.000Z</time>
      </trkpt>
      <trkpt lat="48.61189" lon="2.1901">
        <ele>128</ele>
        <time>2019-10-28T11:04:44.000Z</time>
      </trkpt>
      <trkpt lat="48.61188" lon="2.19009">
        <ele>128</ele>
        <time>2019-10-28T11:04:45.000Z</time>
      </trkpt>
      <trkpt lat="48.61188" lon="2.19007">
        <ele>128</ele>
        <time>2019-10-28T11:04:46.000Z</time>
      </trkpt>
      <trkpt lat="48.61187" lon="2.19005">
        <ele>127</ele>
        <time>2019-10-28T11:04:47.000Z</time>
      </trkpt>
      <trkpt lat="48.61186" lon="2.19004">
        <ele>127</ele>
        <time>2019-10-28T11:04:48.000Z</time>
      </trkpt>
      <trkpt lat="48.61186" lon="2.19002">
        <ele>127</ele>
        <time>2019-10-28T11:04:49.000Z</time>
      </trkpt>
      <trkpt lat="48.61186" lon="2.19">
        <ele>127</ele>
        <time>2019-10-28T11:04:50.000Z</time>
      </trkpt>
      <trkpt lat="48.61186" lon="2.18998">
        <ele>127</ele>
        <time>2019-10-28T11:04:51.000Z</time>
      </trkpt>
      <trkpt lat="48.61186" lon="2.18996">
        <ele>127</ele>
        <time>2019-10-28T11:04:52.000Z</time>
      </trkpt>
      <trkpt lat="48.61186" lon="2.18994">
        <ele>126</ele>
        <time>2019-10-28T11:04:53.000Z</time>
      </trkpt>
      <trkpt lat="48.61186" lon="2.18992">
        <ele>126</ele>
        <time>2019-10-28T11:04:54.000Z</time>
      </trkpt>
      <trkpt lat="48.61186" lon="2.1899">
        <ele>127</ele>
        <time>2019-10-28T11:04:55.000Z</time>
      </trkpt>
      <trkpt lat="48.61185" lon="2.18988">
        <ele>127</ele>
        <time>2019-10-28T11:04:56.000Z</time>
      </trkpt>
      <trkpt lat="48.61185" lon="2.18986">
        <ele>126</ele>
        <time>2019-10-28T11:04:57.000Z</time>
      </trkpt>
      <trkpt lat="48.61185" lon="2.18984">
        <ele>126</ele>
        <time>2019-10-28T11:04:58.000Z</time>
      </trkpt>
      <trkpt lat="48.61185" lon="2.18982">
        <ele>125</ele>
        <time>2019-10-28T11:04:59.000Z</time>
      </trkpt>
      <trkpt lat="48.61185" lon="2.1898">
        <ele>124</ele>
        <time>2019-10-28T11:05:00.000Z</time>
      </trkpt>
      <trkpt lat="48.61185" lon="2.18978">
        <ele>124</ele>
        <time>2019-10-28T11:05:01.000Z</time>
      </trkpt>
      <trkpt lat="48.61185" lon="2.18976">
        <ele>123</ele>
        <time>2019-10-28T11:05:02.000Z</time>
      </trkpt>
      <trkpt lat="48.61185" lon="2.18974">
        <ele>123</ele>
        <time>2019-10-28T11:05:03.000Z</time>
      </trkpt>
      <trkpt lat="48.61185" lon="2.18972">
        <ele>123</ele>
        <time>2019-10-28T11:05:04.000Z</time>
      </trkpt>
      <trkpt lat="48.61185" lon="2.1897">
        <ele>123</ele>
        <time>2019-10-28T11:05:05.000Z</time>
      </trkpt>
      <trkpt lat="48.61185" lon="2.18968">
        <ele>123</ele>
        <time>2019-10-28T11:05:06.000Z</time>
      </trkpt>
      <trkpt lat="48.61185" lon="2.18966">
        <ele>123</ele>
        <time>2019-10-28T11:05:07.000Z</time>
      </trkpt>
      <trkpt lat="48.61185" lon="2.18964">
        <ele>122</ele>
        <time>2019-10-28T11:05:08.000Z</time>
      </trkpt>
      <trkpt lat="48.61185" lon="2.18962">
        <ele>121</ele>
        <time>2019-10-28T11:05:09.000Z</time>
      </trkpt>
      <trkpt lat="48.61185" lon="2.18959">
        <ele>121</ele>
        <time>2019-10-28T11:05:10.000Z</time>
      </trkpt>
      <trkpt lat="48.61185" lon="2.18957">
        <ele>120</ele>
        <time>2019-10-28T11:05:11.000Z</time>
      </trkpt>
      <trkpt lat="48.61185" lon="2.18955">
        <ele>120</ele>
        <time>2019-10-28T11:05:12.000Z</time>
      </trkpt>
      <trkpt lat="48.61185" lon="2.18953">
        <ele>119</ele>
        <time>2019-10-28T11:05:13.000Z</time>
      </trkpt>
      <trkpt lat="48.61185" lon="2.18952">
        <ele>119</ele>
        <time>2019-10-28T11:05:14.000Z</time>
      </trkpt>
      <trkpt lat="48.61184" lon="2.18949">
        <ele>119</ele>
        <time>2019-10-28T11:05:15.000Z</time>
      </trkpt>
      <trkpt lat="48.61184" lon="2.18947">
        <ele>118</ele>
        <time>2019-10-28T11:05:16.000Z</time>
      </trkpt>
      <trkpt lat="48.61184" lon="2.18945">
        <ele>118</ele>
        <time>2019-10-28T11:05:17.000Z</time>
      </trkpt>
      <trkpt lat="48.61184" lon="2.18943">
        <ele>119</ele>
        <time>2019-10-28T11:05:18.000Z</time>
      </trkpt>
      <trkpt lat="48.61183" lon="2.1894">
        <ele>119</ele>
        <time>2019-10-28T11:05:19.000Z</time>
      </trkpt>
      <trkpt lat="48.61183" lon="2.18938">
        <ele>119</ele>
        <time>2019-10-28T11:05:20.000Z</time>
      </trkpt>
      <trkpt lat="48.61182" lon="2.18936">
        <ele>119</ele>
        <time>2019-10-28T11:05:21.000Z</time>
      </trkpt>
      <trkpt lat="48.61182" lon="2.18933">
        <ele>119</ele>
        <time>2019-10-28T11:05:22.000Z</time>
      </trkpt>
      <trkpt lat="48.61182" lon="2.18931">
        <ele>119</ele>
        <time>2019-10-28T11:05:23.000Z</time>
      </trkpt>
      <trkpt lat="48.61182" lon="2.18928">
        <ele>118</ele>
        <time>2019-10-28T11:05:24.000Z</time>
      </trkpt>
      <trkpt lat="48.61181" lon="2.18926">
        <ele>118</ele>
        <time>2019-10-28T11:05:25.000Z</time>
      </trkpt>
      <trkpt lat="48.61181" lon="2.18924">
        <ele>119</ele>
        <time>2019-10-28T11:05:26.000Z</time>
      </trkpt>
      <trkpt lat="48.61181" lon="2.18922">
        <ele>119</ele>
        <time>2019-10-28T11:05:27.000Z</time>
      </trkpt>
      <trkpt lat="48.61181" lon="2.18919">
        <ele>119</ele>
        <time>2019-10-28T11:05:28.000Z</time>
      </trkpt>
      <trkpt lat="48.6118" lon="2.18917">
        <ele>120</ele>
        <time>2019-10-28T11:05:29.000Z</time>
      </trkpt>
      <trkpt lat="48.6118" lon="2.18915">
        <ele>119</ele>
        <time>2019-10-28T11:05:30.000Z</time>
      </trkpt>
      <trkpt lat="48.6118" lon="2.18912">
        <ele>119</ele>
        <time>2019-10-28T11:05:31.000Z</time>
      </trkpt>
      <trkpt lat="48.6118" lon="2.1891">
        <ele>119</ele>
        <time>2019-10-28T11:05:32.000Z</time>
      </trkpt>
      <trkpt lat="48.61179" lon="2.18908">
        <ele>120</ele>
        <time>2019-10-28T11:05:33.000Z</time>
      </trkpt>
      <trkpt lat="48.61179" lon="2.18906">
        <ele>119</ele>
        <time>2019-10-28T11:05:34.000Z</time>
      </trkpt>
      <trkpt lat="48.61179" lon="2.18904">
        <ele>119</ele>
        <time>2019-10-28T11:05:35.000Z</time>
      </trkpt>
      <trkpt lat="48.61179" lon="2.18902">
        <ele>119</ele>
        <time>2019-10-28T11:05:36.000Z</time>
      </trkpt>
      <trkpt lat="48.61179" lon="2.189">
        <ele>119</ele>
        <time>2019-10-28T11:05:37.000Z</time>
      </trkpt>
      <trkpt lat="48.61179" lon="2.18898">
        <ele>119</ele>
        <time>2019-10-28T11:05:38.000Z</time>
      </trkpt>
      <trkpt lat="48.61179" lon="2.18896">
        <ele>120</ele>
        <time>2019-10-28T11:05:39.000Z</time>
      </trkpt>
      <trkpt lat="48.61179" lon="2.18894">
        <ele>120</ele>
        <time>2019-10-28T11:05:40.000Z</time>
      </trkpt>
      <trkpt lat="48.6118" lon="2.18892">
        <ele>120</ele>
        <time>2019-10-28T11:05:41.000Z</time>
      </trkpt>
      <trkpt lat="48.6118" lon="2.1889">
        <ele>121</ele>
        <time>2019-10-28T11:05:42.000Z</time>
      </trkpt>
      <trkpt lat="48.6118" lon="2.18888">
        <ele>121</ele>
        <time>2019-10-28T11:05:43.000Z</time>
      </trkpt>
      <trkpt lat="48.61181" lon="2.18886">
        <ele>121</ele>
        <time>2019-10-28T11:05:44.000Z</time>
      </trkpt>
      <trkpt lat="48.61182" lon="2.18884">
        <ele>121</ele>
        <time>2019-10-28T11:05:45.000Z</time>
      </trkpt>
      <trkpt lat="48.61182" lon="2.18882">
        <ele>120</ele>
        <time>2019-10-28T11:05:46.000Z</time>
      </trkpt>
      <trkpt lat="48.61183" lon="2.1888">
        <ele>120</ele>
        <time>2019-10-28T11:05:47.000Z</time>
      </trkpt>
      <trkpt lat="48.61183" lon="2.18878">
        <ele>120</ele>
        <time>2019-10-28T11:05:48.000Z</time>
      </trkpt>
      <trkpt lat="48.61184" lon="2.18876">
        <ele>120</ele>
        <time>2019-10-28T11:05:49.000Z</time>
      </trkpt>
      <trkpt lat="48.61184" lon="2.18874">
        <ele>119</ele>
        <time>2019-10-28T11:05:50.000Z</time>
      </trkpt>
      <trkpt lat="48.61185" lon="2.18873">
        <ele>120</ele>
        <time>2019-10-28T11:05:51.000Z</time>
      </trkpt>
      <trkpt lat="48.61185" lon="2.18871">
        <ele>120</ele>
        <time>2019-10-28T11:05:52.000Z</time>
      </trkpt>
      <trkpt lat="48.61186" lon="2.1887">
        <ele>120</ele>
        <time>2019-10-28T11:05:53.000Z</time>
      </trkpt>
      <trkpt lat="48.61186" lon="2.18868">
        <ele>120</ele>
        <time>2019-10-28T11:05:54.000Z</time>
      </trkpt>
      <trkpt lat="48.61187" lon="2.18867">
        <ele>119</ele>
        <time>2019-10-28T11:05:55.000Z</time>
      </trkpt>
      <trkpt lat="48.61187" lon="2.18865">
        <ele>118</ele>
        <time>2019-10-28T11:05:56.000Z</time>
      </trkpt>
      <trkpt lat="48.61188" lon="2.18864">
        <ele>117</ele>
        <time>2019-10-28T11:05:57.000Z</time>
      </trkpt>
      <trkpt lat="48.61189" lon="2.18862">
        <ele>116</ele>
        <time>2019-10-28T11:05:58.000Z</time>
      </trkpt>
      <trkpt lat="48.61189" lon="2.1886">
        <ele>116</ele>
        <time>2019-10-28T11:05:59.000Z</time>
      </trkpt>
      <trkpt lat="48.6119" lon="2.18859">
        <ele>116</ele>
        <time>2019-10-28T11:06:00.000Z</time>
      </trkpt>
      <trkpt lat="48.6119" lon="2.18857">
        <ele>117</ele>
        <time>2019-10-28T11:06:01.000Z</time>
      </trkpt>
      <trkpt lat="48.61191" lon="2.18855">
        <ele>117</ele>
        <time>2019-10-28T11:06:02.000Z</time>
      </trkpt>
      <trkpt lat="48.61191" lon="2.18853">
        <ele>117</ele>
        <time>2019-10-28T11:06:03.000Z</time>
      </trkpt>
      <trkpt lat="48.61192" lon="2.18851">
        <ele>117</ele>
        <time>2019-10-28T11:06:04.000Z</time>
      </trkpt>
      <trkpt lat="48.61192" lon="2.18849">
        <ele>118</ele>
        <time>2019-10-28T11:06:05.000Z</time>
      </trkpt>
      <trkpt lat="48.61192" lon="2.18847">
        <ele>118</ele>
        <time>2019-10-28T11:06:06.000Z</time>
      </trkpt>
      <trkpt lat="48.61193" lon="2.18845">
        <ele>118</ele>
        <time>2019-10-28T11:06:07.000Z</time>
      </trkpt>
      <trkpt lat="48.61193" lon="2.18843">
        <ele>117</ele>
        <time>2019-10-28T11:06:08.000Z</time>
      </trkpt>
      <trkpt lat="48.61193" lon="2.18841">
        <ele>117</ele>
        <time>2019-10-28T11:06:09.000Z</time>
      </trkpt>
      <trkpt lat="48.61193" lon="2.18839">
        <ele>117</ele>
        <time>2019-10-28T11:06:10.000Z</time>
      </trkpt>
      <trkpt lat="48.61194" lon="2.18836">
        <ele>118</ele>
        <time>2019-10-28T11:06:11.000Z</time>
      </trkpt>
      <trkpt lat="48.61194" lon="2.18835">
        <ele>117</ele>
        <time>2019-10-28T11:06:12.000Z</time>
      </trkpt>
      <trkpt lat="48.61195" lon="2.18833">
        <ele>118</ele>
        <time>2019-10-28T11:06:13.000Z</time>
      </trkpt>
      <trkpt lat="48.61196" lon="2.18831">
        <ele>118</ele>
        <time>2019-10-28T11:06:14.000Z</time>
      </trkpt>
      <trkpt lat="48.61196" lon="2.18829">
        <ele>118</ele>
        <time>2019-10-28T11:06:15.000Z</time>
      </trkpt>
      <trkpt lat="48.61197" lon="2.18827">
        <ele>118</ele>
        <time>2019-10-28T11:06:16.000Z</time>
      </trkpt>
      <trkpt lat="48.61197" lon="2.18825">
        <ele>118</ele>
        <time>2019-10-28T11:06:17.000Z</time>
      </trkpt>
      <trkpt lat="48.61198" lon="2.18824">
        <ele>117</ele>
        <time>2019-10-28T11:06:18.000Z</time>
      </trkpt>
      <trkpt lat="48.61198" lon="2.18822">
        <ele>118</ele>
        <time>2019-10-28T11:06:19.000Z</time>
      </trkpt>
      <trkpt lat="48.61199" lon="2.1882">
        <ele>118</ele>
        <time>2019-10-28T11:06:20.000Z</time>
      </trkpt>
      <trkpt lat="48.61199" lon="2.18818">
        <ele>118</ele>
        <time>2019-10-28T11:06:21.000Z</time>
      </trkpt>
      <trkpt lat="48.61199" lon="2.18816">
        <ele>118</ele>
        <time>2019-10-28T11:06:22.000Z</time>
      </trkpt>
      <trkpt lat="48.612" lon="2.18814">
        <ele>118</ele>
        <time>2019-10-28T11:06:23.000Z</time>
      </trkpt>
      <trkpt lat="48.612" lon="2.18812">
        <ele>118</ele>
        <time>2019-10-28T11:06:24.000Z</time>
      </trkpt>
      <trkpt lat="48.612" lon="2.18811">
        <ele>118</ele>
        <time>2019-10-28T11:06:25.000Z</time>
      </trkpt>
      <trkpt lat="48.612" lon="2.18809">
        <ele>118</ele>
        <time>2019-10-28T11:06:26.000Z</time>
      </trkpt>
      <trkpt lat="48.61201" lon="2.18807">
        <ele>117</ele>
        <time>2019-10-28T11:06:27.000Z</time>
      </trkpt>
      <trkpt lat="48.61201" lon="2.18805">
        <ele>118</ele>
        <time>2019-10-28T11:06:28.000Z</time>
      </trkpt>
      <trkpt lat="48.61202" lon="2.18803">
        <ele>119</ele>
        <time>2019-10-28T11:06:29.000Z</time>
      </trkpt>
      <trkpt lat="48.61202" lon="2.188">
        <ele>118</ele>
        <time>2019-10-28T11:06:30.000Z</time>
      </trkpt>
      <trkpt lat="48.61203" lon="2.18798">
        <ele>118</ele>
        <time>2019-10-28T11:06:31.000Z</time>
      </trkpt>
      <trkpt lat="48.61203" lon="2.18796">
        <ele>118</ele>
        <time>2019-10-28T11:06:32.000Z</time>
      </trkpt>
      <trkpt lat="48.61204" lon="2.18794">
        <ele>118</ele>
        <time>2019-10-28T11:06:33.000Z</time>
      </trkpt>
      <trkpt lat="48.61204" lon="2.18792">
        <ele>119</ele>
        <time>2019-10-28T11:06:34.000Z</time>
      </trkpt>
      <trkpt lat="48.61204" lon="2.18789">
        <ele>119</ele>
        <time>2019-10-28T11:06:35.000Z</time>
      </trkpt>
      <trkpt lat="48.61205" lon="2.18786">
        <ele>120</ele>
        <time>2019-10-28T11:06:36.000Z</time>
      </trkpt>
      <trkpt lat="48.61205" lon="2.18784">
        <ele>120</ele>
        <time>2019-10-28T11:06:37.000Z</time>
      </trkpt>
      <trkpt lat="48.61206" lon="2.18782">
        <ele>120</ele>
        <time>2019-10-28T11:06:38.000Z</time>
      </trkpt>
      <trkpt lat="48.61207" lon="2.1878">
        <ele>120</ele>
        <time>2019-10-28T11:06:39.000Z</time>
      </trkpt>
      <trkpt lat="48.61207" lon="2.18778">
        <ele>120</ele>
        <time>2019-10-28T11:06:40.000Z</time>
      </trkpt>
      <trkpt lat="48.61208" lon="2.18776">
        <ele>119</ele>
        <time>2019-10-28T11:06:41.000Z</time>
      </trkpt>
      <trkpt lat="48.61209" lon="2.18774">
        <ele>119</ele>
        <time>2019-10-28T11:06:42.000Z</time>
      </trkpt>
      <trkpt lat="48.61209" lon="2.18772">
        <ele>120</ele>
        <time>2019-10-28T11:06:43.000Z</time>
      </trkpt>
      <trkpt lat="48.61209" lon="2.18769">
        <ele>120</ele>
        <time>2019-10-28T11:06:44.000Z</time>
      </trkpt>
      <trkpt lat="48.6121" lon="2.18767">
        <ele>120</ele>
        <time>2019-10-28T11:06:45.000Z</time>
      </trkpt>
      <trkpt lat="48.61211" lon="2.18765">
        <ele>121</ele>
        <time>2019-10-28T11:06:46.000Z</time>
      </trkpt>
      <trkpt lat="48.61211" lon="2.18763">
        <ele>120</ele>
        <time>2019-10-28T11:06:47.000Z</time>
      </trkpt>
      <trkpt lat="48.61211" lon="2.1876">
        <ele>120</ele>
        <time>2019-10-28T11:06:48.000Z</time>
      </trkpt>
      <trkpt lat="48.61212" lon="2.18758">
        <ele>121</ele>
        <time>2019-10-28T11:06:49.000Z</time>
      </trkpt>
      <trkpt lat="48.61212" lon="2.18756">
        <ele>121</ele>
        <time>2019-10-28T11:06:50.000Z</time>
      </trkpt>
      <trkpt lat="48.61213" lon="2.18754">
        <ele>120</ele>
        <time>2019-10-28T11:06:51.000Z</time>
      </trkpt>
      <trkpt lat="48.61213" lon="2.18752">
        <ele>120</ele>
        <time>2019-10-28T11:06:52.000Z</time>
      </trkpt>
      <trkpt lat="48.61214" lon="2.1875">
        <ele>119</ele>
        <time>2019-10-28T11:06:53.000Z</time>
      </trkpt>
      <trkpt lat="48.61214" lon="2.18749">
        <ele>119</ele>
        <time>2019-10-28T11:06:54.000Z</time>
      </trkpt>
      <trkpt lat="48.61215" lon="2.18747">
        <ele>119</ele>
        <time>2019-10-28T11:06:55.000Z</time>
      </trkpt>
      <trkpt lat="48.61215" lon="2.18745">
        <ele>119</ele>
        <time>2019-10-28T11:06:56.000Z</time>
      </trkpt>
      <trkpt lat="48.61216" lon="2.18743">
        <ele>118</ele>
        <time>2019-10-28T11:06:57.000Z</time>
      </trkpt>
      <trkpt lat="48.61216" lon="2.18741">
        <ele>118</ele>
        <time>2019-10-28T11:06:58.000Z</time>
      </trkpt>
      <trkpt lat="48.61216" lon="2.18739">
        <ele>117</ele>
        <time>2019-10-28T11:06:59.000Z</time>
      </trkpt>
      <trkpt lat="48.61217" lon="2.18737">
        <ele>116</ele>
        <time>2019-10-28T11:07:00.000Z</time>
      </trkpt>
      <trkpt lat="48.61218" lon="2.18734">
        <ele>116</ele>
        <time>2019-10-28T11:07:01.000Z</time>
      </trkpt>
      <trkpt lat="48.61218" lon="2.18732">
        <ele>115</ele>
        <time>2019-10-28T11:07:02.000Z</time>
      </trkpt>
      <trkpt lat="48.61219" lon="2.1873">
        <ele>115</ele>
        <time>2019-10-28T11:07:03.000Z</time>
      </trkpt>
      <trkpt lat="48.61219" lon="2.18728">
        <ele>115</ele>
        <time>2019-10-28T11:07:04.000Z</time>
      </trkpt>
      <trkpt lat="48.61219" lon="2.18726">
        <ele>116</ele>
        <time>2019-10-28T11:07:05.000Z</time>
      </trkpt>
      <trkpt lat="48.61219" lon="2.18724">
        <ele>117</ele>
        <time>2019-10-28T11:07:06.000Z</time>
      </trkpt>
      <trkpt lat="48.61218" lon="2.18722">
        <ele>118</ele>
        <time>2019-10-28T11:07:07.000Z</time>
      </trkpt>
      <trkpt lat="48.61218" lon="2.1872">
        <ele>118</ele>
        <time>2019-10-28T11:07:08.000Z</time>
      </trkpt>
      <trkpt lat="48.61219" lon="2.18718">
        <ele>117</ele>
        <time>2019-10-28T11:07:09.000Z</time>
      </trkpt>
      <trkpt lat="48.61219" lon="2.18717">
        <ele>117</ele>
        <time>2019-10-28T11:07:10.000Z</time>
      </trkpt>
      <trkpt lat="48.6122" lon="2.18715">
        <ele>116</ele>
        <time>2019-10-28T11:07:11.000Z</time>
      </trkpt>
      <trkpt lat="48.6122" lon="2.18713">
        <ele>117</ele>
        <time>2019-10-28T11:07:12.000Z</time>
      </trkpt>
      <trkpt lat="48.61221" lon="2.18711">
        <ele>116</ele>
        <time>2019-10-28T11:07:13.000Z</time>
      </trkpt>
      <trkpt lat="48.61222" lon="2.18709">
        <ele>117</ele>
        <time>2019-10-28T11:07:14.000Z</time>
      </trkpt>
      <trkpt lat="48.61222" lon="2.18707">
        <ele>118</ele>
        <time>2019-10-28T11:07:15.000Z</time>
      </trkpt>
      <trkpt lat="48.61223" lon="2.18705">
        <ele>117</ele>
        <time>2019-10-28T11:07:16.000Z</time>
      </trkpt>
      <trkpt lat="48.61224" lon="2.18703">
        <ele>118</ele>
        <time>2019-10-28T11:07:17.000Z</time>
      </trkpt>
      <trkpt lat="48.61224" lon="2.18701">
        <ele>118</ele>
        <time>2019-10-28T11:07:18.000Z</time>
      </trkpt>
      <trkpt lat="48.61225" lon="2.18699">
        <ele>118</ele>
        <time>2019-10-28T11:07:19.000Z</time>
      </trkpt>
      <trkpt lat="48.61225" lon="2.18697">
        <ele>118</ele>
        <time>2019-10-28T11:07:20.000Z</time>
      </trkpt>
      <trkpt lat="48.61226" lon="2.18696">
        <ele>118</ele>
        <time>2019-10-28T11:07:21.000Z</time>
      </trkpt>
      <trkpt lat="48.61227" lon="2.18694">
        <ele>118</ele>
        <time>2019-10-28T11:07:22.000Z</time>
      </trkpt>
      <trkpt lat="48.61228" lon="2.18692">
        <ele>117</ele>
        <time>2019-10-28T11:07:23.000Z</time>
      </trkpt>
      <trkpt lat="48.61228" lon="2.1869">
        <ele>118</ele>
        <time>2019-10-28T11:07:24.000Z</time>
      </trkpt>
      <trkpt lat="48.61229" lon="2.18688">
        <ele>116</ele>
        <time>2019-10-28T11:07:25.000Z</time>
      </trkpt>
      <trkpt lat="48.61229" lon="2.18686">
        <ele>116</ele>
        <time>2019-10-28T11:07:26.000Z</time>
      </trkpt>
      <trkpt lat="48.61229" lon="2.18684">
        <ele>117</ele>
        <time>2019-10-28T11:07:27.000Z</time>
      </trkpt>
      <trkpt lat="48.6123" lon="2.18682">
        <ele>116</ele>
        <time>2019-10-28T11:07:28.000Z</time>
      </trkpt>
      <trkpt lat="48.6123" lon="2.1868">
        <ele>116</ele>
        <time>2019-10-28T11:07:29.000Z</time>
      </trkpt>
      <trkpt lat="48.61231" lon="2.18678">
        <ele>116</ele>
        <time>2019-10-28T11:07:30.000Z</time>
      </trkpt>
      <trkpt lat="48.61231" lon="2.18676">
        <ele>115</ele>
        <time>2019-10-28T11:07:31.000Z</time>
      </trkpt>
      <trkpt lat="48.61231" lon="2.18674">
        <ele>115</ele>
        <time>2019-10-28T11:07:32.000Z</time>
      </trkpt>
      <trkpt lat="48.61231" lon="2.18672">
        <ele>115</ele>
        <time>2019-10-28T11:07:33.000Z</time>
      </trkpt>
      <trkpt lat="48.61231" lon="2.1867">
        <ele>115</ele>
        <time>2019-10-28T11:07:34.000Z</time>
      </trkpt>
      <trkpt lat="48.61231" lon="2.18668">
        <ele>116</ele>
        <time>2019-10-28T11:07:35.000Z</time>
      </trkpt>
      <trkpt lat="48.61232" lon="2.18666">
        <ele>115</ele>
        <time>2019-10-28T11:07:36.000Z</time>
      </trkpt>
      <trkpt lat="48.61232" lon="2.18664">
        <ele>115</ele>
        <time>2019-10-28T11:07:37.000Z</time>
      </trkpt>
      <trkpt lat="48.61232" lon="2.18662">
        <ele>115</ele>
        <time>2019-10-28T11:07:38.000Z</time>
      </trkpt>
      <trkpt lat="48.61232" lon="2.1866">
        <ele>117</ele>
        <time>2019-10-28T11:07:39.000Z</time>
      </trkpt>
      <trkpt lat="48.61233" lon="2.18659">
        <ele>117</ele>
        <time>2019-10-28T11:07:40.000Z</time>
      </trkpt>
      <trkpt lat="48.61233" lon="2.18657">
        <ele>118</ele>
        <time>2019-10-28T11:07:41.000Z</time>
      </trkpt>
      <trkpt lat="48.61234" lon="2.18655">
        <ele>118</ele>
        <time>2019-10-28T11:07:42.000Z</time>
      </trkpt>
      <trkpt lat="48.61234" lon="2.18653">
        <ele>118</ele>
        <time>2019-10-28T11:07:43.000Z</time>
      </trkpt>
      <trkpt lat="48.61235" lon="2.18651">
        <ele>119</ele>
        <time>2019-10-28T11:07:44.000Z</time>
      </trkpt>
      <trkpt lat="48.61235" lon="2.18649">
        <ele>120</ele>
        <time>2019-10-28T11:07:45.000Z</time>
      </trkpt>
      <trkpt lat="48.61236" lon="2.18646">
        <ele>120</ele>
        <time>2019-10-28T11:07:46.000Z</time>
      </trkpt>
      <trkpt lat="48.61237" lon="2.18644">
        <ele>120</ele>
        <time>2019-10-28T11:07:47.000Z</time>
      </trkpt>
      <trkpt lat="48.61237" lon="2.18642">
        <ele>121</ele>
        <time>2019-10-28T11:07:48.000Z</time>
      </trkpt>
      <trkpt lat="48.61238" lon="2.1864">
        <ele>120</ele>
        <time>2019-10-28T11:07:49.000Z</time>
      </trkpt>
      <trkpt lat="48.61239" lon="2.18638">
        <ele>119</ele>
        <time>2019-10-28T11:07:50.000Z</time>
      </trkpt>
      <trkpt lat="48.61239" lon="2.18636">
        <ele>119</ele>
        <time>2019-10-28T11:07:51.000Z</time>
      </trkpt>
      <trkpt lat="48.6124" lon="2.18634">
        <ele>120</ele>
        <time>2019-10-28T11:07:52.000Z</time>
      </trkpt>
      <trkpt lat="48.6124" lon="2.18633">
        <ele>120</ele>
        <time>2019-10-28T11:07:53.000Z</time>
      </trkpt>
      <trkpt lat="48.6124" lon="2.18631">
        <ele>121</ele>
        <time>2019-10-28T11:07:54.000Z</time>
      </trkpt>
      <trkpt lat="48.6124" lon="2.18629">
        <ele>121</ele>
        <time>2019-10-28T11:07:55.000Z</time>
      </trkpt>
      <trkpt lat="48.61241" lon="2.18627">
        <ele>121</ele>
        <time>2019-10-28T11:07:56.000Z</time>
      </trkpt>
      <trkpt lat="48.61241" lon="2.18625">
        <ele>121</ele>
        <time>2019-10-28T11:07:57.000Z</time>
      </trkpt>
      <trkpt lat="48.61241" lon="2.18623">
        <ele>121</ele>
        <time>2019-10-28T11:07:58.000Z</time>
      </trkpt>
      <trkpt lat="48.61242" lon="2.18621">
        <ele>121</ele>
        <time>2019-10-28T11:07:59.000Z</time>
      </trkpt>
      <trkpt lat="48.61242" lon="2.18619">
        <ele>120</ele>
        <time>2019-10-28T11:08:00.000Z</time>
      </trkpt>
      <trkpt lat="48.61242" lon="2.18618">
        <ele>119</ele>
        <time>2019-10-28T11:08:01.000Z</time>
      </trkpt>
      <trkpt lat="48.61243" lon="2.18616">
        <ele>119</ele>
        <time>2019-10-28T11:08:02.000Z</time>
      </trkpt>
      <trkpt lat="48.61243" lon="2.18615">
        <ele>119</ele>
        <time>2019-10-28T11:08:03.000Z</time>
      </trkpt>
      <trkpt lat="48.61244" lon="2.18613">
        <ele>119</ele>
        <time>2019-10-28T11:08:04.000Z</time>
      </trkpt>
      <trkpt lat="48.61245" lon="2.18612">
        <ele>119</ele>
        <time>2019-10-28T11:08:05.000Z</time>
      </trkpt>
      <trkpt lat="48.61245" lon="2.1861">
        <ele>120</ele>
        <time>2019-10-28T11:08:06.000Z</time>
      </trkpt>
      <trkpt lat="48.61245" lon="2.18608">
        <ele>120</ele>
        <time>2019-10-28T11:08:07.000Z</time>
      </trkpt>
      <trkpt lat="48.61246" lon="2.18606">
        <ele>120</ele>
        <time>2019-10-28T11:08:08.000Z</time>
      </trkpt>
      <trkpt lat="48.61247" lon="2.18605">
        <ele>120</ele>
        <time>2019-10-28T11:08:09.000Z</time>
      </trkpt>
      <trkpt lat="48.61248" lon="2.18603">
        <ele>120</ele>
        <time>2019-10-28T11:08:10.000Z</time>
      </trkpt>
      <trkpt lat="48.61248" lon="2.18601">
        <ele>120</ele>
        <time>2019-10-28T11:08:11.000Z</time>
      </trkpt>
      <trkpt lat="48.61249" lon="2.18599">
        <ele>120</ele>
        <time>2019-10-28T11:08:12.000Z</time>
      </trkpt>
      <trkpt lat="48.61249" lon="2.18597">
        <ele>120</ele>
        <time>2019-10-28T11:08:13.000Z</time>
      </trkpt>
      <trkpt lat="48.6125" lon="2.18595">
        <ele>120</ele>
        <time>2019-10-28T11:08:14.000Z</time>
      </trkpt>
      <trkpt lat="48.6125" lon="2.18593">
        <ele>120</ele>
        <time>2019-10-28T11:08:15.000Z</time>
      </trkpt>
      <trkpt lat="48.6125" lon="2.18591">
        <ele>119</ele>
        <time>2019-10-28T11:08:16.000Z</time>
      </trkpt>
      <trkpt lat="48.61251" lon="2.18588">
        <ele>118</ele>
        <time>2019-10-28T11:08:17.000Z</time>
      </trkpt>
      <trkpt lat="48.61252" lon="2.18586">
        <ele>119</ele>
        <time>2019-10-28T11:08:18.000Z</time>
      </trkpt>
      <trkpt lat="48.61252" lon="2.18584">
        <ele>118</ele>
        <time>2019-10-28T11:08:19.000Z</time>
      </trkpt>
      <trkpt lat="48.61253" lon="2.18582">
        <ele>118</ele>
        <time>2019-10-28T11:08:20.000Z</time>
      </trkpt>
      <trkpt lat="48.61254" lon="2.1858">
        <ele>119</ele>
        <time>2019-10-28T11:08:21.000Z</time>
      </trkpt>
      <trkpt lat="48.61254" lon="2.18578">
        <ele>120</ele>
        <time>2019-10-28T11:08:22.000Z</time>
      </trkpt>
      <trkpt lat="48.61255" lon="2.18577">
        <ele>120</ele>
        <time>2019-10-28T11:08:23.000Z</time>
      </trkpt>
      <trkpt lat="48.61256" lon="2.18575">
        <ele>119</ele>
        <time>2019-10-28T11:08:24.000Z</time>
      </trkpt>
      <trkpt lat="48.61257" lon="2.18573">
        <ele>118</ele>
        <time>2019-10-28T11:08:25.000Z</time>
      </trkpt>
      <trkpt lat="48.61258" lon="2.18572">
        <ele>119</ele>
        <time>2019-10-28T11:08:26.000Z</time>
      </trkpt>
      <trkpt lat="48.61259" lon="2.1857">
        <ele>119</ele>
        <time>2019-10-28T11:08:27.000Z</time>
      </trkpt>
      <trkpt lat="48.61259" lon="2.18568">
        <ele>119</ele>
        <time>2019-10-28T11:08:28.000Z</time>
      </trkpt>
      <trkpt lat="48.6126" lon="2.18566">
        <ele>119</ele>
        <time>2019-10-28T11:08:29.000Z</time>
      </trkpt>
      <trkpt lat="48.61261" lon="2.18564">
        <ele>119</ele>
        <time>2019-10-28T11:08:30.000Z</time>
      </trkpt>
      <trkpt lat="48.61262" lon="2.18562">
        <ele>119</ele>
        <time>2019-10-28T11:08:31.000Z</time>
      </trkpt>
      <trkpt lat="48.61263" lon="2.18561">
        <ele>119</ele>
        <time>2019-10-28T11:08:32.000Z</time>
      </trkpt>
      <trkpt lat="48.61264" lon="2.18559">
        <ele>119</ele>
        <time>2019-10-28T11:08:33.000Z</time>
      </trkpt>
      <trkpt lat="48.61265" lon="2.18558">
        <ele>119</ele>
        <time>2019-10-28T11:08:34.000Z</time>
      </trkpt>
      <trkpt lat="48.61265" lon="2.18556">
        <ele>119</ele>
        <time>2019-10-28T11:08:35.000Z</time>
      </trkpt>
      <trkpt lat="48.61266" lon="2.18555">
        <ele>119</ele>
        <time>2019-10-28T11:08:36.000Z</time>
      </trkpt>
      <trkpt lat="48.61266" lon="2.18553">
        <ele>119</ele>
        <time>2019-10-28T11:08:37.000Z</time>
      </trkpt>
      <trkpt lat="48.61267" lon="2.18551">
        <ele>120</ele>
        <time>2019-10-28T11:08:38.000Z</time>
      </trkpt>
      <trkpt lat="48.61266" lon="2.18549">
        <ele>123</ele>
        <time>2019-10-28T11:08:39.000Z</time>
      </trkpt>
      <trkpt lat="48.61266" lon="2.18548">
        <ele>124</ele>
        <time>2019-10-28T11:08:40.000Z</time>
      </trkpt>
      <trkpt lat="48.61267" lon="2.18546">
        <ele>124</ele>
        <time>2019-10-28T11:08:41.000Z</time>
      </trkpt>
      <trkpt lat="48.61267" lon="2.18545">
        <ele>124</ele>
        <time>2019-10-28T11:08:42.000Z</time>
      </trkpt>
      <trkpt lat="48.61268" lon="2.18543">
        <ele>123</ele>
        <time>2019-10-28T11:08:43.000Z</time>
      </trkpt>
      <trkpt lat="48.61268" lon="2.18541">
        <ele>124</ele>
        <time>2019-10-28T11:08:44.000Z</time>
      </trkpt>
      <trkpt lat="48.61269" lon="2.18539">
        <ele>124</ele>
        <time>2019-10-28T11:08:45.000Z</time>
      </trkpt>
      <trkpt lat="48.61269" lon="2.18537">
        <ele>124</ele>
        <time>2019-10-28T11:08:46.000Z</time>
      </trkpt>
      <trkpt lat="48.6127" lon="2.18535">
        <ele>123</ele>
        <time>2019-10-28T11:08:47.000Z</time>
      </trkpt>
      <trkpt lat="48.6127" lon="2.18534">
        <ele>123</ele>
        <time>2019-10-28T11:08:48.000Z</time>
      </trkpt>
      <trkpt lat="48.61271" lon="2.18532">
        <ele>123</ele>
        <time>2019-10-28T11:08:49.000Z</time>
      </trkpt>
      <trkpt lat="48.61271" lon="2.1853">
        <ele>123</ele>
        <time>2019-10-28T11:08:50.000Z</time>
      </trkpt>
      <trkpt lat="48.61272" lon="2.18528">
        <ele>123</ele>
        <time>2019-10-28T11:08:51.000Z</time>
      </trkpt>
      <trkpt lat="48.61272" lon="2.18526">
        <ele>124</ele>
        <time>2019-10-28T11:08:52.000Z</time>
      </trkpt>
      <trkpt lat="48.61272" lon="2.18523">
        <ele>123</ele>
        <time>2019-10-28T11:08:53.000Z</time>
      </trkpt>
      <trkpt lat="48.61272" lon="2.18521">
        <ele>123</ele>
        <time>2019-10-28T11:08:54.000Z</time>
      </trkpt>
      <trkpt lat="48.61272" lon="2.18519">
        <ele>122</ele>
        <time>2019-10-28T11:08:55.000Z</time>
      </trkpt>
      <trkpt lat="48.61272" lon="2.18516">
        <ele>121</ele>
        <time>2019-10-28T11:08:56.000Z</time>
      </trkpt>
      <trkpt lat="48.61272" lon="2.18514">
        <ele>121</ele>
        <time>2019-10-28T11:08:57.000Z</time>
      </trkpt>
      <trkpt lat="48.61272" lon="2.18512">
        <ele>121</ele>
        <time>2019-10-28T11:08:58.000Z</time>
      </trkpt>
      <trkpt lat="48.61271" lon="2.1851">
        <ele>122</ele>
        <time>2019-10-28T11:08:59.000Z</time>
      </trkpt>
      <trkpt lat="48.61271" lon="2.18508">
        <ele>121</ele>
        <time>2019-10-28T11:09:00.000Z</time>
      </trkpt>
      <trkpt lat="48.61271" lon="2.18506">
        <ele>121</ele>
        <time>2019-10-28T11:09:01.000Z</time>
      </trkpt>
      <trkpt lat="48.61271" lon="2.18504">
        <ele>121</ele>
        <time>2019-10-28T11:09:02.000Z</time>
      </trkpt>
      <trkpt lat="48.61271" lon="2.18502">
        <ele>121</ele>
        <time>2019-10-28T11:09:03.000Z</time>
      </trkpt>
      <trkpt lat="48.61271" lon="2.185">
        <ele>121</ele>
        <time>2019-10-28T11:09:04.000Z</time>
      </trkpt>
      <trkpt lat="48.61272" lon="2.18499">
        <ele>121</ele>
        <time>2019-10-28T11:09:05.000Z</time>
      </trkpt>
      <trkpt lat="48.61272" lon="2.18497">
        <ele>121</ele>
        <time>2019-10-28T11:09:06.000Z</time>
      </trkpt>
      <trkpt lat="48.61273" lon="2.18495">
        <ele>121</ele>
        <time>2019-10-28T11:09:07.000Z</time>
      </trkpt>
      <trkpt lat="48.61273" lon="2.18493">
        <ele>120</ele>
        <time>2019-10-28T11:09:08.000Z</time>
      </trkpt>
      <trkpt lat="48.61273" lon="2.1849">
        <ele>119</ele>
        <time>2019-10-28T11:09:09.000Z</time>
      </trkpt>
      <trkpt lat="48.61273" lon="2.18488">
        <ele>120</ele>
        <time>2019-10-28T11:09:10.000Z</time>
      </trkpt>
      <trkpt lat="48.61273" lon="2.18486">
        <ele>119</ele>
        <time>2019-10-28T11:09:11.000Z</time>
      </trkpt>
      <trkpt lat="48.61273" lon="2.18483">
        <ele>120</ele>
        <time>2019-10-28T11:09:12.000Z</time>
      </trkpt>
      <trkpt lat="48.61273" lon="2.1848">
        <ele>120</ele>
        <time>2019-10-28T11:09:13.000Z</time>
      </trkpt>
      <trkpt lat="48.61273" lon="2.18477">
        <ele>119</ele>
        <time>2019-10-28T11:09:14.000Z</time>
      </trkpt>
      <trkpt lat="48.61273" lon="2.18475">
        <ele>120</ele>
        <time>2019-10-28T11:09:15.000Z</time>
      </trkpt>
      <trkpt lat="48.61274" lon="2.18473">
        <ele>120</ele>
        <time>2019-10-28T11:09:16.000Z</time>
      </trkpt>
      <trkpt lat="48.61274" lon="2.18471">
        <ele>120</ele>
        <time>2019-10-28T11:09:17.000Z</time>
      </trkpt>
      <trkpt lat="48.61275" lon="2.18469">
        <ele>120</ele>
        <time>2019-10-28T11:09:18.000Z</time>
      </trkpt>
      <trkpt lat="48.61275" lon="2.18467">
        <ele>120</ele>
        <time>2019-10-28T11:09:19.000Z</time>
      </trkpt>
      <trkpt lat="48.61276" lon="2.18465">
        <ele>120</ele>
        <time>2019-10-28T11:09:20.000Z</time>
      </trkpt>
      <trkpt lat="48.61277" lon="2.18464">
        <ele>120</ele>
        <time>2019-10-28T11:09:21.000Z</time>
      </trkpt>
      <trkpt lat="48.61277" lon="2.18462">
        <ele>120</ele>
        <time>2019-10-28T11:09:22.000Z</time>
      </trkpt>
      <trkpt lat="48.61278" lon="2.18461">
        <ele>121</ele>
        <time>2019-10-28T11:09:23.000Z</time>
      </trkpt>
      <trkpt lat="48.61278" lon="2.18459">
        <ele>121</ele>
        <time>2019-10-28T11:09:24.000Z</time>
      </trkpt>
      <trkpt lat="48.61278" lon="2.18457">
        <ele>121</ele>
        <time>2019-10-28T11:09:25.000Z</time>
      </trkpt>
      <trkpt lat="48.61278" lon="2.18455">
        <ele>121</ele>
        <time>2019-10-28T11:09:26.000Z</time>
      </trkpt>
      <trkpt lat="48.61279" lon="2.18453">
        <ele>121</ele>
        <time>2019-10-28T11:09:27.000Z</time>
      </trkpt>
      <trkpt lat="48.61279" lon="2.18451">
        <ele>121</ele>
        <time>2019-10-28T11:09:28.000Z</time>
      </trkpt>
      <trkpt lat="48.6128" lon="2.18449">
        <ele>121</ele>
        <time>2019-10-28T11:09:29.000Z</time>
      </trkpt>
      <trkpt lat="48.61281" lon="2.18447">
        <ele>121</ele>
        <time>2019-10-28T11:09:30.000Z</time>
      </trkpt>
      <trkpt lat="48.61281" lon="2.18445">
        <ele>121</ele>
        <time>2019-10-28T11:09:31.000Z</time>
      </trkpt>
      <trkpt lat="48.61282" lon="2.18443">
        <ele>121</ele>
        <time>2019-10-28T11:09:32.000Z</time>
      </trkpt>
      <trkpt lat="48.61283" lon="2.18442">
        <ele>122</ele>
        <time>2019-10-28T11:09:33.000Z</time>
      </trkpt>
      <trkpt lat="48.61283" lon="2.18439">
        <ele>123</ele>
        <time>2019-10-28T11:09:34.000Z</time>
      </trkpt>
      <trkpt lat="48.61283" lon="2.18436">
        <ele>122</ele>
        <time>2019-10-28T11:09:35.000Z</time>
      </trkpt>
      <trkpt lat="48.61283" lon="2.18433">
        <ele>122</ele>
        <time>2019-10-28T11:09:36.000Z</time>
      </trkpt>
      <trkpt lat="48.61284" lon="2.18431">
        <ele>123</ele>
        <time>2019-10-28T11:09:37.000Z</time>
      </trkpt>
      <trkpt lat="48.61284" lon="2.18428">
        <ele>123</ele>
        <time>2019-10-28T11:09:38.000Z</time>
      </trkpt>
      <trkpt lat="48.61284" lon="2.18426">
        <ele>122</ele>
        <time>2019-10-28T11:09:39.000Z</time>
      </trkpt>
      <trkpt lat="48.61284" lon="2.18424">
        <ele>123</ele>
        <time>2019-10-28T11:09:40.000Z</time>
      </trkpt>
      <trkpt lat="48.61284" lon="2.18422">
        <ele>122</ele>
        <time>2019-10-28T11:09:41.000Z</time>
      </trkpt>
      <trkpt lat="48.61284" lon="2.1842">
        <ele>123</ele>
        <time>2019-10-28T11:09:42.000Z</time>
      </trkpt>
      <trkpt lat="48.61285" lon="2.18418">
        <ele>122</ele>
        <time>2019-10-28T11:09:43.000Z</time>
      </trkpt>
      <trkpt lat="48.61285" lon="2.18416">
        <ele>122</ele>
        <time>2019-10-28T11:09:44.000Z</time>
      </trkpt>
      <trkpt lat="48.61286" lon="2.18415">
        <ele>122</ele>
        <time>2019-10-28T11:09:45.000Z</time>
      </trkpt>
      <trkpt lat="48.61286" lon="2.18413">
        <ele>122</ele>
        <time>2019-10-28T11:09:46.000Z</time>
      </trkpt>
      <trkpt lat="48.61286" lon="2.18411">
        <ele>122</ele>
        <time>2019-10-28T11:09:47.000Z</time>
      </trkpt>
      <trkpt lat="48.61286" lon="2.18409">
        <ele>121</ele>
        <time>2019-10-28T11:09:48.000Z</time>
      </trkpt>
      <trkpt lat="48.61287" lon="2.18407">
        <ele>121</ele>
        <time>2019-10-28T11:09:49.000Z</time>
      </trkpt>
      <trkpt lat="48.61287" lon="2.18405">
        <ele>121</ele>
        <time>2019-10-28T11:09:50.000Z</time>
      </trkpt>
      <trkpt lat="48.61288" lon="2.18404">
        <ele>121</ele>
        <time>2019-10-28T11:09:51.000Z</time>
      </trkpt>
      <trkpt lat="48.61288" lon="2.18402">
        <ele>121</ele>
        <time>2019-10-28T11:09:52.000Z</time>
      </trkpt>
      <trkpt lat="48.61289" lon="2.184">
        <ele>122</ele>
        <time>2019-10-28T11:09:53.000Z</time>
      </trkpt>
      <trkpt lat="48.61289" lon="2.18397">
        <ele>122</ele>
        <time>2019-10-28T11:09:54.000Z</time>
      </trkpt>
      <trkpt lat="48.6129" lon="2.18395">
        <ele>121</ele>
        <time>2019-10-28T11:09:55.000Z</time>
      </trkpt>
      <trkpt lat="48.6129" lon="2.18393">
        <ele>121</ele>
        <time>2019-10-28T11:09:56.000Z</time>
      </trkpt>
      <trkpt lat="48.61291" lon="2.18391">
        <ele>121</ele>
        <time>2019-10-28T11:09:57.000Z</time>
      </trkpt>
      <trkpt lat="48.61291" lon="2.18389">
        <ele>121</ele>
        <time>2019-10-28T11:09:58.000Z</time>
      </trkpt>
      <trkpt lat="48.61292" lon="2.18387">
        <ele>121</ele>
        <time>2019-10-28T11:09:59.000Z</time>
      </trkpt>
      <trkpt lat="48.61292" lon="2.18385">
        <ele>122</ele>
        <time>2019-10-28T11:10:00.000Z</time>
      </trkpt>
      <trkpt lat="48.61293" lon="2.18383">
        <ele>122</ele>
        <time>2019-10-28T11:10:01.000Z</time>
      </trkpt>
      <trkpt lat="48.61293" lon="2.18381">
        <ele>122</ele>
        <time>2019-10-28T11:10:02.000Z</time>
      </trkpt>
      <trkpt lat="48.61294" lon="2.1838">
        <ele>122</ele>
        <time>2019-10-28T11:10:03.000Z</time>
      </trkpt>
      <trkpt lat="48.61295" lon="2.18378">
        <ele>121</ele>
        <time>2019-10-28T11:10:04.000Z</time>
      </trkpt>
      <trkpt lat="48.61295" lon="2.18377">
        <ele>121</ele>
        <time>2019-10-28T11:10:05.000Z</time>
      </trkpt>
      <trkpt lat="48.61296" lon="2.18375">
        <ele>122</ele>
        <time>2019-10-28T11:10:06.000Z</time>
      </trkpt>
      <trkpt lat="48.61296" lon="2.18373">
        <ele>122</ele>
        <time>2019-10-28T11:10:07.000Z</time>
      </trkpt>
      <trkpt lat="48.61297" lon="2.18371">
        <ele>122</ele>
        <time>2019-10-28T11:10:08.000Z</time>
      </trkpt>
      <trkpt lat="48.61297" lon="2.18368">
        <ele>123</ele>
        <time>2019-10-28T11:10:09.000Z</time>
      </trkpt>
      <trkpt lat="48.61297" lon="2.18367">
        <ele>123</ele>
        <time>2019-10-28T11:10:10.000Z</time>
      </trkpt>
      <trkpt lat="48.61298" lon="2.18365">
        <ele>123</ele>
        <time>2019-10-28T11:10:11.000Z</time>
      </trkpt>
      <trkpt lat="48.61298" lon="2.18363">
        <ele>123</ele>
        <time>2019-10-28T11:10:12.000Z</time>
      </trkpt>
      <trkpt lat="48.61299" lon="2.18361">
        <ele>123</ele>
        <time>2019-10-28T11:10:13.000Z</time>
      </trkpt>
      <trkpt lat="48.61299" lon="2.18359">
        <ele>123</ele>
        <time>2019-10-28T11:10:14.000Z</time>
      </trkpt>
      <trkpt lat="48.613" lon="2.18358">
        <ele>122</ele>
        <time>2019-10-28T11:10:15.000Z</time>
      </trkpt>
      <trkpt lat="48.613" lon="2.18356">
        <ele>123</ele>
        <time>2019-10-28T11:10:16.000Z</time>
      </trkpt>
      <trkpt lat="48.613" lon="2.18354">
        <ele>123</ele>
        <time>2019-10-28T11:10:17.000Z</time>
      </trkpt>
      <trkpt lat="48.613" lon="2.18352">
        <ele>123</ele>
        <time>2019-10-28T11:10:18.000Z</time>
      </trkpt>
      <trkpt lat="48.61301" lon="2.18351">
        <ele>124</ele>
        <time>2019-10-28T11:10:19.000Z</time>
      </trkpt>
      <trkpt lat="48.61301" lon="2.18349">
        <ele>124</ele>
        <time>2019-10-28T11:10:20.000Z</time>
      </trkpt>
      <trkpt lat="48.61301" lon="2.18347">
        <ele>124</ele>
        <time>2019-10-28T11:10:21.000Z</time>
      </trkpt>
      <trkpt lat="48.61302" lon="2.18345">
        <ele>124</ele>
        <time>2019-10-28T11:10:22.000Z</time>
      </trkpt>
      <trkpt lat="48.61302" lon="2.18344">
        <ele>124</ele>
        <time>2019-10-28T11:10:23.000Z</time>
      </trkpt>
      <trkpt lat="48.61303" lon="2.18342">
        <ele>124</ele>
        <time>2019-10-28T11:10:24.000Z</time>
      </trkpt>
      <trkpt lat="48.61303" lon="2.18341">
        <ele>125</ele>
        <time>2019-10-28T11:10:25.000Z</time>
      </trkpt>
      <trkpt lat="48.61304" lon="2.1834">
        <ele>125</ele>
        <time>2019-10-28T11:10:26.000Z</time>
      </trkpt>
      <trkpt lat="48.61304" lon="2.18338">
        <ele>126</ele>
        <time>2019-10-28T11:10:27.000Z</time>
      </trkpt>
      <trkpt lat="48.61305" lon="2.18337">
        <ele>126</ele>
        <time>2019-10-28T11:10:28.000Z</time>
      </trkpt>
      <trkpt lat="48.61306" lon="2.18336">
        <ele>125</ele>
        <time>2019-10-28T11:10:29.000Z</time>
      </trkpt>
      <trkpt lat="48.61307" lon="2.18334">
        <ele>125</ele>
        <time>2019-10-28T11:10:30.000Z</time>
      </trkpt>
      <trkpt lat="48.61308" lon="2.18333">
        <ele>125</ele>
        <time>2019-10-28T11:10:31.000Z</time>
      </trkpt>
      <trkpt lat="48.61309" lon="2.18331">
        <ele>126</ele>
        <time>2019-10-28T11:10:32.000Z</time>
      </trkpt>
      <trkpt lat="48.6131" lon="2.1833">
        <ele>126</ele>
        <time>2019-10-28T11:10:33.000Z</time>
      </trkpt>
      <trkpt lat="48.61311" lon="2.18329">
        <ele>126</ele>
        <time>2019-10-28T11:10:34.000Z</time>
      </trkpt>
      <trkpt lat="48.61312" lon="2.18327">
        <ele>127</ele>
        <time>2019-10-28T11:10:35.000Z</time>
      </trkpt>
      <trkpt lat="48.61313" lon="2.18326">
        <ele>127</ele>
        <time>2019-10-28T11:10:36.000Z</time>
      </trkpt>
      <trkpt lat="48.61313" lon="2.18324">
        <ele>128</ele>
        <time>2019-10-28T11:10:37.000Z</time>
      </trkpt>
      <trkpt lat="48.61314" lon="2.18323">
        <ele>128</ele>
        <time>2019-10-28T11:10:38.000Z</time>
      </trkpt>
      <trkpt lat="48.61315" lon="2.18322">
        <ele>128</ele>
        <time>2019-10-28T11:10:39.000Z</time>
      </trkpt>
      <trkpt lat="48.61315" lon="2.1832">
        <ele>129</ele>
        <time>2019-10-28T11:10:40.000Z</time>
      </trkpt>
      <trkpt lat="48.61316" lon="2.18319">
        <ele>130</ele>
        <time>2019-10-28T11:10:41.000Z</time>
      </trkpt>
      <trkpt lat="48.61316" lon="2.18317">
        <ele>129</ele>
        <time>2019-10-28T11:10:42.000Z</time>
      </trkpt>
      <trkpt lat="48.61317" lon="2.18315">
        <ele>129</ele>
        <time>2019-10-28T11:10:43.000Z</time>
      </trkpt>
      <trkpt lat="48.61318" lon="2.18314">
        <ele>129</ele>
        <time>2019-10-28T11:10:44.000Z</time>
      </trkpt>
      <trkpt lat="48.61319" lon="2.18312">
        <ele>129</ele>
        <time>2019-10-28T11:10:45.000Z</time>
      </trkpt>
      <trkpt lat="48.6132" lon="2.18311">
        <ele>130</ele>
        <time>2019-10-28T11:10:46.000Z</time>
      </trkpt>
      <trkpt lat="48.61321" lon="2.1831">
        <ele>131</ele>
        <time>2019-10-28T11:10:47.000Z</time>
      </trkpt>
      <trkpt lat="48.61322" lon="2.18309">
        <ele>132</ele>
        <time>2019-10-28T11:10:48.000Z</time>
      </trkpt>
      <trkpt lat="48.61323" lon="2.18308">
        <ele>132</ele>
        <time>2019-10-28T11:10:49.000Z</time>
      </trkpt>
      <trkpt lat="48.61324" lon="2.18307">
        <ele>132</ele>
        <time>2019-10-28T11:10:50.000Z</time>
      </trkpt>
      <trkpt lat="48.61325" lon="2.18305">
        <ele>133</ele>
        <time>2019-10-28T11:10:51.000Z</time>
      </trkpt>
      <trkpt lat="48.61325" lon="2.18304">
        <ele>132</ele>
        <time>2019-10-28T11:10:52.000Z</time>
      </trkpt>
      <trkpt lat="48.61326" lon="2.18303">
        <ele>132</ele>
        <time>2019-10-28T11:10:53.000Z</time>
      </trkpt>
      <trkpt lat="48.61327" lon="2.18301">
        <ele>132</ele>
        <time>2019-10-28T11:10:54.000Z</time>
      </trkpt>
      <trkpt lat="48.61328" lon="2.183">
        <ele>132</ele>
        <time>2019-10-28T11:10:55.000Z</time>
      </trkpt>
      <trkpt lat="48.61329" lon="2.18299">
        <ele>133</ele>
        <time>2019-10-28T11:10:56.000Z</time>
      </trkpt>
      <trkpt lat="48.61329" lon="2.18298">
        <ele>133</ele>
        <time>2019-10-28T11:10:57.000Z</time>
      </trkpt>
      <trkpt lat="48.6133" lon="2.18297">
        <ele>133</ele>
        <time>2019-10-28T11:10:58.000Z</time>
      </trkpt>
      <trkpt lat="48.61331" lon="2.18295">
        <ele>133</ele>
        <time>2019-10-28T11:10:59.000Z</time>
      </trkpt>
      <trkpt lat="48.61331" lon="2.18294">
        <ele>134</ele>
        <time>2019-10-28T11:11:00.000Z</time>
      </trkpt>
      <trkpt lat="48.61332" lon="2.18292">
        <ele>134</ele>
        <time>2019-10-28T11:11:01.000Z</time>
      </trkpt>
      <trkpt lat="48.61332" lon="2.18291">
        <ele>135</ele>
        <time>2019-10-28T11:11:02.000Z</time>
      </trkpt>
      <trkpt lat="48.61333" lon="2.1829">
        <ele>135</ele>
        <time>2019-10-28T11:11:03.000Z</time>
      </trkpt>
      <trkpt lat="48.61333" lon="2.18288">
        <ele>135</ele>
        <time>2019-10-28T11:11:04.000Z</time>
      </trkpt>
      <trkpt lat="48.61334" lon="2.18287">
        <ele>135</ele>
        <time>2019-10-28T11:11:05.000Z</time>
      </trkpt>
      <trkpt lat="48.61335" lon="2.18286">
        <ele>136</ele>
        <time>2019-10-28T11:11:06.000Z</time>
      </trkpt>
      <trkpt lat="48.61336" lon="2.18285">
        <ele>136</ele>
        <time>2019-10-28T11:11:07.000Z</time>
      </trkpt>
      <trkpt lat="48.61337" lon="2.18284">
        <ele>136</ele>
        <time>2019-10-28T11:11:08.000Z</time>
      </trkpt>
      <trkpt lat="48.61337" lon="2.18283">
        <ele>137</ele>
        <time>2019-10-28T11:11:09.000Z</time>
      </trkpt>
      <trkpt lat="48.61338" lon="2.18281">
        <ele>138</ele>
        <time>2019-10-28T11:11:10.000Z</time>
      </trkpt>
      <trkpt lat="48.61338" lon="2.1828">
        <ele>139</ele>
        <time>2019-10-28T11:11:11.000Z</time>
      </trkpt>
      <trkpt lat="48.61339" lon="2.18279">
        <ele>138</ele>
        <time>2019-10-28T11:11:12.000Z</time>
      </trkpt>
      <trkpt lat="48.61339" lon="2.18277">
        <ele>138</ele>
        <time>2019-10-28T11:11:13.000Z</time>
      </trkpt>
      <trkpt lat="48.6134" lon="2.18276">
        <ele>139</ele>
        <time>2019-10-28T11:11:14.000Z</time>
      </trkpt>
      <trkpt lat="48.61341" lon="2.18274">
        <ele>140</ele>
        <time>2019-10-28T11:11:15.000Z</time>
      </trkpt>
      <trkpt lat="48.61342" lon="2.18273">
        <ele>140</ele>
        <time>2019-10-28T11:11:16.000Z</time>
      </trkpt>
      <trkpt lat="48.61342" lon="2.18271">
        <ele>140</ele>
        <time>2019-10-28T11:11:17.000Z</time>
      </trkpt>
      <trkpt lat="48.61343" lon="2.1827">
        <ele>141</ele>
        <time>2019-10-28T11:11:18.000Z</time>
      </trkpt>
      <trkpt lat="48.61343" lon="2.18269">
        <ele>141</ele>
        <time>2019-10-28T11:11:19.000Z</time>
      </trkpt>
      <trkpt lat="48.61344" lon="2.18267">
        <ele>141</ele>
        <time>2019-10-28T11:11:20.000Z</time>
      </trkpt>
      <trkpt lat="48.61344" lon="2.18266">
        <ele>141</ele>
        <time>2019-10-28T11:11:21.000Z</time>
      </trkpt>
      <trkpt lat="48.61345" lon="2.18265">
        <ele>142</ele>
        <time>2019-10-28T11:11:22.000Z</time>
      </trkpt>
      <trkpt lat="48.61346" lon="2.18263">
        <ele>142</ele>
        <time>2019-10-28T11:11:23.000Z</time>
      </trkpt>
      <trkpt lat="48.61346" lon="2.18262">
        <ele>142</ele>
        <time>2019-10-28T11:11:24.000Z</time>
      </trkpt>
      <trkpt lat="48.61347" lon="2.18261">
        <ele>142</ele>
        <time>2019-10-28T11:11:25.000Z</time>
      </trkpt>
      <trkpt lat="48.61348" lon="2.1826">
        <ele>142</ele>
        <time>2019-10-28T11:11:26.000Z</time>
      </trkpt>
      <trkpt lat="48.61349" lon="2.18258">
        <ele>141</ele>
        <time>2019-10-28T11:11:27.000Z</time>
      </trkpt>
      <trkpt lat="48.6135" lon="2.18257">
        <ele>141</ele>
        <time>2019-10-28T11:11:28.000Z</time>
      </trkpt>
      <trkpt lat="48.6135" lon="2.18255">
        <ele>141</ele>
        <time>2019-10-28T11:11:29.000Z</time>
      </trkpt>
      <trkpt lat="48.61351" lon="2.18253">
        <ele>140</ele>
        <time>2019-10-28T11:11:30.000Z</time>
      </trkpt>
      <trkpt lat="48.61352" lon="2.18252">
        <ele>140</ele>
        <time>2019-10-28T11:11:31.000Z</time>
      </trkpt>
      <trkpt lat="48.61352" lon="2.1825">
        <ele>138</ele>
        <time>2019-10-28T11:11:32.000Z</time>
      </trkpt>
      <trkpt lat="48.61353" lon="2.18248">
        <ele>138</ele>
        <time>2019-10-28T11:11:33.000Z</time>
      </trkpt>
      <trkpt lat="48.61353" lon="2.18246">
        <ele>138</ele>
        <time>2019-10-28T11:11:34.000Z</time>
      </trkpt>
      <trkpt lat="48.61354" lon="2.18244">
        <ele>137</ele>
        <time>2019-10-28T11:11:35.000Z</time>
      </trkpt>
      <trkpt lat="48.61354" lon="2.18242">
        <ele>137</ele>
        <time>2019-10-28T11:11:36.000Z</time>
      </trkpt>
      <trkpt lat="48.61355" lon="2.18241">
        <ele>137</ele>
        <time>2019-10-28T11:11:37.000Z</time>
      </trkpt>
      <trkpt lat="48.61355" lon="2.18239">
        <ele>137</ele>
        <time>2019-10-28T11:11:38.000Z</time>
      </trkpt>
      <trkpt lat="48.61355" lon="2.18237">
        <ele>137</ele>
        <time>2019-10-28T11:11:39.000Z</time>
      </trkpt>
      <trkpt lat="48.61355" lon="2.18234">
        <ele>137</ele>
        <time>2019-10-28T11:11:40.000Z</time>
      </trkpt>
      <trkpt lat="48.61355" lon="2.18232">
        <ele>137</ele>
        <time>2019-10-28T11:11:41.000Z</time>
      </trkpt>
      <trkpt lat="48.61356" lon="2.1823">
        <ele>137</ele>
        <time>2019-10-28T11:11:42.000Z</time>
      </trkpt>
      <trkpt lat="48.61356" lon="2.18227">
        <ele>138</ele>
        <time>2019-10-28T11:11:43.000Z</time>
      </trkpt>
      <trkpt lat="48.61356" lon="2.18225">
        <ele>138</ele>
        <time>2019-10-28T11:11:44.000Z</time>
      </trkpt>
      <trkpt lat="48.61356" lon="2.18222">
        <ele>138</ele>
        <time>2019-10-28T11:11:45.000Z</time>
      </trkpt>
      <trkpt lat="48.61357" lon="2.18221">
        <ele>138</ele>
        <time>2019-10-28T11:11:46.000Z</time>
      </trkpt>
      <trkpt lat="48.61357" lon="2.18219">
        <ele>139</ele>
        <time>2019-10-28T11:11:47.000Z</time>
      </trkpt>
      <trkpt lat="48.61357" lon="2.18217">
        <ele>138</ele>
        <time>2019-10-28T11:11:48.000Z</time>
      </trkpt>
      <trkpt lat="48.61357" lon="2.18215">
        <ele>138</ele>
        <time>2019-10-28T11:11:49.000Z</time>
      </trkpt>
      <trkpt lat="48.61358" lon="2.18214">
        <ele>138</ele>
        <time>2019-10-28T11:11:50.000Z</time>
      </trkpt>
      <trkpt lat="48.61358" lon="2.18212">
        <ele>137</ele>
        <time>2019-10-28T11:11:51.000Z</time>
      </trkpt>
      <trkpt lat="48.61359" lon="2.1821">
        <ele>137</ele>
        <time>2019-10-28T11:11:52.000Z</time>
      </trkpt>
      <trkpt lat="48.61359" lon="2.18209">
        <ele>137</ele>
        <time>2019-10-28T11:11:53.000Z</time>
      </trkpt>
      <trkpt lat="48.61359" lon="2.18207">
        <ele>136</ele>
        <time>2019-10-28T11:11:54.000Z</time>
      </trkpt>
      <trkpt lat="48.6136" lon="2.18206">
        <ele>135</ele>
        <time>2019-10-28T11:11:55.000Z</time>
      </trkpt>
      <trkpt lat="48.6136" lon="2.18204">
        <ele>134</ele>
        <time>2019-10-28T11:11:56.000Z</time>
      </trkpt>
      <trkpt lat="48.6136" lon="2.18202">
        <ele>134</ele>
        <time>2019-10-28T11:11:57.000Z</time>
      </trkpt>
      <trkpt lat="48.61361" lon="2.182">
        <ele>133</ele>
        <time>2019-10-28T11:11:58.000Z</time>
      </trkpt>
      <trkpt lat="48.61361" lon="2.18197">
        <ele>133</ele>
        <time>2019-10-28T11:11:59.000Z</time>
      </trkpt>
      <trkpt lat="48.61361" lon="2.18196">
        <ele>133</ele>
        <time>2019-10-28T11:12:00.000Z</time>
      </trkpt>
      <trkpt lat="48.61362" lon="2.18194">
        <ele>133</ele>
        <time>2019-10-28T11:12:01.000Z</time>
      </trkpt>
      <trkpt lat="48.61362" lon="2.18193">
        <ele>133</ele>
        <time>2019-10-28T11:12:02.000Z</time>
      </trkpt>
      <trkpt lat="48.61363" lon="2.18191">
        <ele>132</ele>
        <time>2019-10-28T11:12:03.000Z</time>
      </trkpt>
      <trkpt lat="48.61364" lon="2.1819">
        <ele>132</ele>
        <time>2019-10-28T11:12:04.000Z</time>
      </trkpt>
      <trkpt lat="48.61365" lon="2.18188">
        <ele>131</ele>
        <time>2019-10-28T11:12:05.000Z</time>
      </trkpt>
      <trkpt lat="48.61365" lon="2.18186">
        <ele>131</ele>
        <time>2019-10-28T11:12:06.000Z</time>
      </trkpt>
      <trkpt lat="48.61366" lon="2.18185">
        <ele>130</ele>
        <time>2019-10-28T11:12:07.000Z</time>
      </trkpt>
      <trkpt lat="48.61366" lon="2.18183">
        <ele>130</ele>
        <time>2019-10-28T11:12:08.000Z</time>
      </trkpt>
      <trkpt lat="48.61367" lon="2.18182">
        <ele>129</ele>
        <time>2019-10-28T11:12:09.000Z</time>
      </trkpt>
      <trkpt lat="48.61368" lon="2.1818">
        <ele>128</ele>
        <time>2019-10-28T11:12:10.000Z</time>
      </trkpt>
      <trkpt lat="48.61368" lon="2.18179">
        <ele>128</ele>
        <time>2019-10-28T11:12:11.000Z</time>
      </trkpt>
      <trkpt lat="48.61368" lon="2.18177">
        <ele>128</ele>
        <time>2019-10-28T11:12:12.000Z</time>
      </trkpt>
      <trkpt lat="48.61369" lon="2.18176">
        <ele>127</ele>
        <time>2019-10-28T11:12:13.000Z</time>
      </trkpt>
      <trkpt lat="48.61369" lon="2.18174">
        <ele>127</ele>
        <time>2019-10-28T11:12:14.000Z</time>
      </trkpt>
      <trkpt lat="48.61369" lon="2.18172">
        <ele>127</ele>
        <time>2019-10-28T11:12:15.000Z</time>
      </trkpt>
      <trkpt lat="48.61369" lon="2.1817">
        <ele>126</ele>
        <time>2019-10-28T11:12:16.000Z</time>
      </trkpt>
      <trkpt lat="48.61369" lon="2.18167">
        <ele>127</ele>
        <time>2019-10-28T11:12:17.000Z</time>
      </trkpt>
      <trkpt lat="48.61369" lon="2.18165">
        <ele>127</ele>
        <time>2019-10-28T11:12:18.000Z</time>
      </trkpt>
      <trkpt lat="48.61369" lon="2.18163">
        <ele>127</ele>
        <time>2019-10-28T11:12:19.000Z</time>
      </trkpt>
      <trkpt lat="48.61369" lon="2.18161">
        <ele>127</ele>
        <time>2019-10-28T11:12:20.000Z</time>
      </trkpt>
      <trkpt lat="48.61369" lon="2.18158">
        <ele>127</ele>
        <time>2019-10-28T11:12:21.000Z</time>
      </trkpt>
      <trkpt lat="48.6137" lon="2.18156">
        <ele>127</ele>
        <time>2019-10-28T11:12:22.000Z</time>
      </trkpt>
      <trkpt lat="48.6137" lon="2.18154">
        <ele>126</ele>
        <time>2019-10-28T11:12:23.000Z</time>
      </trkpt>
      <trkpt lat="48.6137" lon="2.18152">
        <ele>126</ele>
        <time>2019-10-28T11:12:24.000Z</time>
      </trkpt>
      <trkpt lat="48.6137" lon="2.18149">
        <ele>125</ele>
        <time>2019-10-28T11:12:25.000Z</time>
      </trkpt>
      <trkpt lat="48.6137" lon="2.18147">
        <ele>124</ele>
        <time>2019-10-28T11:12:26.000Z</time>
      </trkpt>
      <trkpt lat="48.6137" lon="2.18145">
        <ele>124</ele>
        <time>2019-10-28T11:12:27.000Z</time>
      </trkpt>
      <trkpt lat="48.6137" lon="2.18143">
        <ele>124</ele>
        <time>2019-10-28T11:12:28.000Z</time>
      </trkpt>
      <trkpt lat="48.6137" lon="2.18141">
        <ele>125</ele>
        <time>2019-10-28T11:12:29.000Z</time>
      </trkpt>
      <trkpt lat="48.61369" lon="2.18139">
        <ele>125</ele>
        <time>2019-10-28T11:12:30.000Z</time>
      </trkpt>
      <trkpt lat="48.61369" lon="2.18136">
        <ele>124</ele>
        <time>2019-10-28T11:12:31.000Z</time>
      </trkpt>
      <trkpt lat="48.61368" lon="2.18134">
        <ele>124</ele>
        <time>2019-10-28T11:12:32.000Z</time>
      </trkpt>
      <trkpt lat="48.61367" lon="2.18132">
        <ele>126</ele>
        <time>2019-10-28T11:12:33.000Z</time>
      </trkpt>
      <trkpt lat="48.61366" lon="2.1813">
        <ele>127</ele>
        <time>2019-10-28T11:12:34.000Z</time>
      </trkpt>
      <trkpt lat="48.61365" lon="2.18128">
        <ele>127</ele>
        <time>2019-10-28T11:12:35.000Z</time>
      </trkpt>
      <trkpt lat="48.61365" lon="2.18125">
        <ele>127</ele>
        <time>2019-10-28T11:12:36.000Z</time>
      </trkpt>
      <trkpt lat="48.61364" lon="2.18123">
        <ele>127</ele>
        <time>2019-10-28T11:12:37.000Z</time>
      </trkpt>
      <trkpt lat="48.61363" lon="2.18121">
        <ele>127</ele>
        <time>2019-10-28T11:12:38.000Z</time>
      </trkpt>
      <trkpt lat="48.61362" lon="2.18119">
        <ele>127</ele>
        <time>2019-10-28T11:12:39.000Z</time>
      </trkpt>
      <trkpt lat="48.61362" lon="2.18117">
        <ele>127</ele>
        <time>2019-10-28T11:12:40.000Z</time>
      </trkpt>
      <trkpt lat="48.61361" lon="2.18115">
        <ele>127</ele>
        <time>2019-10-28T11:12:41.000Z</time>
      </trkpt>
      <trkpt lat="48.61361" lon="2.18113">
        <ele>127</ele>
        <time>2019-10-28T11:12:42.000Z</time>
      </trkpt>
      <trkpt lat="48.61361" lon="2.18111">
        <ele>126</ele>
        <time>2019-10-28T11:12:43.000Z</time>
      </trkpt>
      <trkpt lat="48.6136" lon="2.18109">
        <ele>126</ele>
        <time>2019-10-28T11:12:44.000Z</time>
      </trkpt>
      <trkpt lat="48.6136" lon="2.18107">
        <ele>126</ele>
        <time>2019-10-28T11:12:45.000Z</time>
      </trkpt>
      <trkpt lat="48.61359" lon="2.18105">
        <ele>125</ele>
        <time>2019-10-28T11:12:46.000Z</time>
      </trkpt>
      <trkpt lat="48.61359" lon="2.18103">
        <ele>125</ele>
        <time>2019-10-28T11:12:47.000Z</time>
      </trkpt>
      <trkpt lat="48.61358" lon="2.18101">
        <ele>125</ele>
        <time>2019-10-28T11:12:48.000Z</time>
      </trkpt>
      <trkpt lat="48.61358" lon="2.181">
        <ele>125</ele>
        <time>2019-10-28T11:12:49.000Z</time>
      </trkpt>
      <trkpt lat="48.61358" lon="2.18097">
        <ele>125</ele>
        <time>2019-10-28T11:12:50.000Z</time>
      </trkpt>
      <trkpt lat="48.61358" lon="2.18095">
        <ele>125</ele>
        <time>2019-10-28T11:12:51.000Z</time>
      </trkpt>
      <trkpt lat="48.61357" lon="2.18093">
        <ele>125</ele>
        <time>2019-10-28T11:12:52.000Z</time>
      </trkpt>
      <trkpt lat="48.61357" lon="2.18091">
        <ele>125</ele>
        <time>2019-10-28T11:12:53.000Z</time>
      </trkpt>
      <trkpt lat="48.61356" lon="2.18089">
        <ele>125</ele>
        <time>2019-10-28T11:12:54.000Z</time>
      </trkpt>
      <trkpt lat="48.61356" lon="2.18087">
        <ele>125</ele>
        <time>2019-10-28T11:12:55.000Z</time>
      </trkpt>
      <trkpt lat="48.61356" lon="2.18085">
        <ele>124</ele>
        <time>2019-10-28T11:12:56.000Z</time>
      </trkpt>
      <trkpt lat="48.61356" lon="2.18083">
        <ele>124</ele>
        <time>2019-10-28T11:12:57.000Z</time>
      </trkpt>
      <trkpt lat="48.61356" lon="2.18081">
        <ele>124</ele>
        <time>2019-10-28T11:12:58.000Z</time>
      </trkpt>
      <trkpt lat="48.61356" lon="2.18079">
        <ele>124</ele>
        <time>2019-10-28T11:12:59.000Z</time>
      </trkpt>
      <trkpt lat="48.61355" lon="2.18077">
        <ele>124</ele>
        <time>2019-10-28T11:13:00.000Z</time>
      </trkpt>
      <trkpt lat="48.61355" lon="2.18075">
        <ele>124</ele>
        <time>2019-10-28T11:13:01.000Z</time>
      </trkpt>
      <trkpt lat="48.61356" lon="2.18074">
        <ele>124</ele>
        <time>2019-10-28T11:13:02.000Z</time>
      </trkpt>
      <trkpt lat="48.61356" lon="2.18072">
        <ele>124</ele>
        <time>2019-10-28T11:13:03.000Z</time>
      </trkpt>
      <trkpt lat="48.61356" lon="2.1807">
        <ele>124</ele>
        <time>2019-10-28T11:13:04.000Z</time>
      </trkpt>
      <trkpt lat="48.61357" lon="2.18068">
        <ele>124</ele>
        <time>2019-10-28T11:13:05.000Z</time>
      </trkpt>
      <trkpt lat="48.61357" lon="2.18066">
        <ele>124</ele>
        <time>2019-10-28T11:13:06.000Z</time>
      </trkpt>
      <trkpt lat="48.61358" lon="2.18065">
        <ele>124</ele>
        <time>2019-10-28T11:13:07.000Z</time>
      </trkpt>
      <trkpt lat="48.61358" lon="2.18063">
        <ele>124</ele>
        <time>2019-10-28T11:13:08.000Z</time>
      </trkpt>
      <trkpt lat="48.61359" lon="2.18062">
        <ele>124</ele>
        <time>2019-10-28T11:13:09.000Z</time>
      </trkpt>
      <trkpt lat="48.61359" lon="2.1806">
        <ele>123</ele>
        <time>2019-10-28T11:13:10.000Z</time>
      </trkpt>
      <trkpt lat="48.61359" lon="2.18058">
        <ele>123</ele>
        <time>2019-10-28T11:13:11.000Z</time>
      </trkpt>
      <trkpt lat="48.6136" lon="2.18056">
        <ele>122</ele>
        <time>2019-10-28T11:13:12.000Z</time>
      </trkpt>
      <trkpt lat="48.6136" lon="2.18054">
        <ele>122</ele>
        <time>2019-10-28T11:13:13.000Z</time>
      </trkpt>
      <trkpt lat="48.6136" lon="2.18052">
        <ele>122</ele>
        <time>2019-10-28T11:13:14.000Z</time>
      </trkpt>
      <trkpt lat="48.6136" lon="2.18049">
        <ele>122</ele>
        <time>2019-10-28T11:13:15.000Z</time>
      </trkpt>
      <trkpt lat="48.6136" lon="2.18047">
        <ele>122</ele>
        <time>2019-10-28T11:13:16.000Z</time>
      </trkpt>
      <trkpt lat="48.6136" lon="2.18045">
        <ele>122</ele>
        <time>2019-10-28T11:13:17.000Z</time>
      </trkpt>
      <trkpt lat="48.6136" lon="2.18043">
        <ele>122</ele>
        <time>2019-10-28T11:13:18.000Z</time>
      </trkpt>
      <trkpt lat="48.61361" lon="2.18041">
        <ele>122</ele>
        <time>2019-10-28T11:13:19.000Z</time>
      </trkpt>
      <trkpt lat="48.61361" lon="2.18039">
        <ele>122</ele>
        <time>2019-10-28T11:13:20.000Z</time>
      </trkpt>
      <trkpt lat="48.61362" lon="2.18037">
        <ele>122</ele>
        <time>2019-10-28T11:13:21.000Z</time>
      </trkpt>
      <trkpt lat="48.61362" lon="2.18035">
        <ele>122</ele>
        <time>2019-10-28T11:13:22.000Z</time>
      </trkpt>
      <trkpt lat="48.61363" lon="2.18033">
        <ele>122</ele>
        <time>2019-10-28T11:13:23.000Z</time>
      </trkpt>
      <trkpt lat="48.61363" lon="2.1803">
        <ele>121</ele>
        <time>2019-10-28T11:13:24.000Z</time>
      </trkpt>
      <trkpt lat="48.61364" lon="2.18028">
        <ele>121</ele>
        <time>2019-10-28T11:13:25.000Z</time>
      </trkpt>
      <trkpt lat="48.61365" lon="2.18027">
        <ele>121</ele>
        <time>2019-10-28T11:13:26.000Z</time>
      </trkpt>
      <trkpt lat="48.61365" lon="2.18025">
        <ele>121</ele>
        <time>2019-10-28T11:13:27.000Z</time>
      </trkpt>
      <trkpt lat="48.61366" lon="2.18022">
        <ele>122</ele>
        <time>2019-10-28T11:13:28.000Z</time>
      </trkpt>
      <trkpt lat="48.61366" lon="2.1802">
        <ele>122</ele>
        <time>2019-10-28T11:13:29.000Z</time>
      </trkpt>
      <trkpt lat="48.61367" lon="2.18019">
        <ele>122</ele>
        <time>2019-10-28T11:13:30.000Z</time>
      </trkpt>
      <trkpt lat="48.61368" lon="2.18017">
        <ele>121</ele>
        <time>2019-10-28T11:13:31.000Z</time>
      </trkpt>
      <trkpt lat="48.61369" lon="2.18016">
        <ele>121</ele>
        <time>2019-10-28T11:13:32.000Z</time>
      </trkpt>
      <trkpt lat="48.6137" lon="2.18014">
        <ele>122</ele>
        <time>2019-10-28T11:13:33.000Z</time>
      </trkpt>
      <trkpt lat="48.6137" lon="2.18013">
        <ele>122</ele>
        <time>2019-10-28T11:13:34.000Z</time>
      </trkpt>
      <trkpt lat="48.61371" lon="2.18011">
        <ele>122</ele>
        <time>2019-10-28T11:13:35.000Z</time>
      </trkpt>
      <trkpt lat="48.61372" lon="2.1801">
        <ele>121</ele>
        <time>2019-10-28T11:13:36.000Z</time>
      </trkpt>
      <trkpt lat="48.61373" lon="2.18009">
        <ele>121</ele>
        <time>2019-10-28T11:13:37.000Z</time>
      </trkpt>
      <trkpt lat="48.61374" lon="2.18007">
        <ele>121</ele>
        <time>2019-10-28T11:13:38.000Z</time>
      </trkpt>
      <trkpt lat="48.61375" lon="2.18006">
        <ele>121</ele>
        <time>2019-10-28T11:13:39.000Z</time>
      </trkpt>
      <trkpt lat="48.61376" lon="2.18004">
        <ele>121</ele>
        <time>2019-10-28T11:13:40.000Z</time>
      </trkpt>
      <trkpt lat="48.61378" lon="2.18003">
        <ele>121</ele>
        <time>2019-10-28T11:13:41.000Z</time>
      </trkpt>
      <trkpt lat="48.61379" lon="2.18002">
        <ele>121</ele>
        <time>2019-10-28T11:13:42.000Z</time>
      </trkpt>
      <trkpt lat="48.6138" lon="2.18001">
        <ele>121</ele>
        <time>2019-10-28T11:13:43.000Z</time>
      </trkpt>
      <trkpt lat="48.61381" lon="2.18">
        <ele>120</ele>
        <time>2019-10-28T11:13:44.000Z</time>
      </trkpt>
      <trkpt lat="48.61382" lon="2.17999">
        <ele>120</ele>
        <time>2019-10-28T11:13:45.000Z</time>
      </trkpt>
      <trkpt lat="48.61383" lon="2.17998">
        <ele>120</ele>
        <time>2019-10-28T11:13:46.000Z</time>
      </trkpt>
      <trkpt lat="48.61385" lon="2.17996">
        <ele>121</ele>
        <time>2019-10-28T11:13:47.000Z</time>
      </trkpt>
      <trkpt lat="48.61386" lon="2.17995">
        <ele>121</ele>
        <time>2019-10-28T11:13:48.000Z</time>
      </trkpt>
      <trkpt lat="48.61387" lon="2.17994">
        <ele>121</ele>
        <time>2019-10-28T11:13:49.000Z</time>
      </trkpt>
      <trkpt lat="48.61388" lon="2.17992">
        <ele>121</ele>
        <time>2019-10-28T11:13:50.000Z</time>
      </trkpt>
      <trkpt lat="48.61389" lon="2.17991">
        <ele>122</ele>
        <time>2019-10-28T11:13:51.000Z</time>
      </trkpt>
      <trkpt lat="48.6139" lon="2.1799">
        <ele>122</ele>
        <time>2019-10-28T11:13:52.000Z</time>
      </trkpt>
      <trkpt lat="48.61392" lon="2.17989">
        <ele>121</ele>
        <time>2019-10-28T11:13:53.000Z</time>
      </trkpt>
      <trkpt lat="48.61393" lon="2.17987">
        <ele>121</ele>
        <time>2019-10-28T11:13:54.000Z</time>
      </trkpt>
      <trkpt lat="48.61395" lon="2.17986">
        <ele>121</ele>
        <time>2019-10-28T11:13:55.000Z</time>
      </trkpt>
      <trkpt lat="48.61396" lon="2.17984">
        <ele>121</ele>
        <time>2019-10-28T11:13:56.000Z</time>
      </trkpt>
      <trkpt lat="48.61396" lon="2.17982">
        <ele>120</ele>
        <time>2019-10-28T11:13:57.000Z</time>
      </trkpt>
      <trkpt lat="48.61397" lon="2.1798">
        <ele>121</ele>
        <time>2019-10-28T11:13:58.000Z</time>
      </trkpt>
      <trkpt lat="48.61397" lon="2.17978">
        <ele>121</ele>
        <time>2019-10-28T11:13:59.000Z</time>
      </trkpt>
      <trkpt lat="48.61398" lon="2.17976">
        <ele>121</ele>
        <time>2019-10-28T11:14:00.000Z</time>
      </trkpt>
      <trkpt lat="48.61398" lon="2.17974">
        <ele>121</ele>
        <time>2019-10-28T11:14:01.000Z</time>
      </trkpt>
      <trkpt lat="48.61399" lon="2.17972">
        <ele>122</ele>
        <time>2019-10-28T11:14:02.000Z</time>
      </trkpt>
      <trkpt lat="48.614" lon="2.17971">
        <ele>122</ele>
        <time>2019-10-28T11:14:03.000Z</time>
      </trkpt>
      <trkpt lat="48.61401" lon="2.17969">
        <ele>122</ele>
        <time>2019-10-28T11:14:04.000Z</time>
      </trkpt>
      <trkpt lat="48.61402" lon="2.17967">
        <ele>122</ele>
        <time>2019-10-28T11:14:05.000Z</time>
      </trkpt>
      <trkpt lat="48.61403" lon="2.17966">
        <ele>123</ele>
        <time>2019-10-28T11:14:06.000Z</time>
      </trkpt>
      <trkpt lat="48.61404" lon="2.17965">
        <ele>123</ele>
        <time>2019-10-28T11:14:07.000Z</time>
      </trkpt>
      <trkpt lat="48.61405" lon="2.17964">
        <ele>123</ele>
        <time>2019-10-28T11:14:08.000Z</time>
      </trkpt>
      <trkpt lat="48.61405" lon="2.17962">
        <ele>123</ele>
        <time>2019-10-28T11:14:09.000Z</time>
      </trkpt>
      <trkpt lat="48.61406" lon="2.1796">
        <ele>123</ele>
        <time>2019-10-28T11:14:10.000Z</time>
      </trkpt>
      <trkpt lat="48.61407" lon="2.17958">
        <ele>123</ele>
        <time>2019-10-28T11:14:11.000Z</time>
      </trkpt>
      <trkpt lat="48.61407" lon="2.17956">
        <ele>123</ele>
        <time>2019-10-28T11:14:12.000Z</time>
      </trkpt>
      <trkpt lat="48.61408" lon="2.17954">
        <ele>124</ele>
        <time>2019-10-28T11:14:13.000Z</time>
      </trkpt>
      <trkpt lat="48.61409" lon="2.17952">
        <ele>124</ele>
        <time>2019-10-28T11:14:14.000Z</time>
      </trkpt>
      <trkpt lat="48.61409" lon="2.17951">
        <ele>124</ele>
        <time>2019-10-28T11:14:15.000Z</time>
      </trkpt>
      <trkpt lat="48.6141" lon="2.17949">
        <ele>124</ele>
        <time>2019-10-28T11:14:16.000Z</time>
      </trkpt>
      <trkpt lat="48.61411" lon="2.17948">
        <ele>124</ele>
        <time>2019-10-28T11:14:17.000Z</time>
      </trkpt>
      <trkpt lat="48.61411" lon="2.17946">
        <ele>124</ele>
        <time>2019-10-28T11:14:18.000Z</time>
      </trkpt>
      <trkpt lat="48.61412" lon="2.17945">
        <ele>123</ele>
        <time>2019-10-28T11:14:19.000Z</time>
      </trkpt>
      <trkpt lat="48.61413" lon="2.17943">
        <ele>123</ele>
        <time>2019-10-28T11:14:20.000Z</time>
      </trkpt>
      <trkpt lat="48.61414" lon="2.17942">
        <ele>122</ele>
        <time>2019-10-28T11:14:21.000Z</time>
      </trkpt>
      <trkpt lat="48.61415" lon="2.1794">
        <ele>122</ele>
        <time>2019-10-28T11:14:22.000Z</time>
      </trkpt>
      <trkpt lat="48.61416" lon="2.17939">
        <ele>122</ele>
        <time>2019-10-28T11:14:23.000Z</time>
      </trkpt>
      <trkpt lat="48.61417" lon="2.17937">
        <ele>121</ele>
        <time>2019-10-28T11:14:24.000Z</time>
      </trkpt>
      <trkpt lat="48.61418" lon="2.17936">
        <ele>121</ele>
        <time>2019-10-28T11:14:25.000Z</time>
      </trkpt>
      <trkpt lat="48.61419" lon="2.17934">
        <ele>121</ele>
        <time>2019-10-28T11:14:26.000Z</time>
      </trkpt>
      <trkpt lat="48.6142" lon="2.17932">
        <ele>122</ele>
        <time>2019-10-28T11:14:27.000Z</time>
      </trkpt>
      <trkpt lat="48.61421" lon="2.17931">
        <ele>122</ele>
        <time>2019-10-28T11:14:28.000Z</time>
      </trkpt>
      <trkpt lat="48.61422" lon="2.17929">
        <ele>121</ele>
        <time>2019-10-28T11:14:29.000Z</time>
      </trkpt>
      <trkpt lat="48.61423" lon="2.17927">
        <ele>122</ele>
        <time>2019-10-28T11:14:30.000Z</time>
      </trkpt>
      <trkpt lat="48.61424" lon="2.17926">
        <ele>122</ele>
        <time>2019-10-28T11:14:31.000Z</time>
      </trkpt>
      <trkpt lat="48.61425" lon="2.17924">
        <ele>122</ele>
        <time>2019-10-28T11:14:32.000Z</time>
      </trkpt>
      <trkpt lat="48.61426" lon="2.17922">
        <ele>122</ele>
        <time>2019-10-28T11:14:33.000Z</time>
      </trkpt>
      <trkpt lat="48.61427" lon="2.1792">
        <ele>122</ele>
        <time>2019-10-28T11:14:34.000Z</time>
      </trkpt>
      <trkpt lat="48.61428" lon="2.17918">
        <ele>122</ele>
        <time>2019-10-28T11:14:35.000Z</time>
      </trkpt>
      <trkpt lat="48.61429" lon="2.17916">
        <ele>122</ele>
        <time>2019-10-28T11:14:36.000Z</time>
      </trkpt>
      <trkpt lat="48.6143" lon="2.17914">
        <ele>121</ele>
        <time>2019-10-28T11:14:37.000Z</time>
      </trkpt>
      <trkpt lat="48.61431" lon="2.17912">
        <ele>121</ele>
        <time>2019-10-28T11:14:38.000Z</time>
      </trkpt>
      <trkpt lat="48.61431" lon="2.17911">
        <ele>121</ele>
        <time>2019-10-28T11:14:39.000Z</time>
      </trkpt>
      <trkpt lat="48.61432" lon="2.17909">
        <ele>120</ele>
        <time>2019-10-28T11:14:40.000Z</time>
      </trkpt>
      <trkpt lat="48.61433" lon="2.17908">
        <ele>120</ele>
        <time>2019-10-28T11:14:41.000Z</time>
      </trkpt>
      <trkpt lat="48.61434" lon="2.17906">
        <ele>120</ele>
        <time>2019-10-28T11:14:42.000Z</time>
      </trkpt>
      <trkpt lat="48.61434" lon="2.17904">
        <ele>120</ele>
        <time>2019-10-28T11:14:43.000Z</time>
      </trkpt>
      <trkpt lat="48.61435" lon="2.17903">
        <ele>120</ele>
        <time>2019-10-28T11:14:44.000Z</time>
      </trkpt>
      <trkpt lat="48.61435" lon="2.17901">
        <ele>120</ele>
        <time>2019-10-28T11:14:45.000Z</time>
      </trkpt>
      <trkpt lat="48.61436" lon="2.17899">
        <ele>120</ele>
        <time>2019-10-28T11:14:46.000Z</time>
      </trkpt>
      <trkpt lat="48.61436" lon="2.17897">
        <ele>120</ele>
        <time>2019-10-28T11:14:47.000Z</time>
      </trkpt>
      <trkpt lat="48.61437" lon="2.17896">
        <ele>120</ele>
        <time>2019-10-28T11:14:48.000Z</time>
      </trkpt>
      <trkpt lat="48.61437" lon="2.17894">
        <ele>120</ele>
        <time>2019-10-28T11:14:49.000Z</time>
      </trkpt>
      <trkpt lat="48.61438" lon="2.17892">
        <ele>120</ele>
        <time>2019-10-28T11:14:50.000Z</time>
      </trkpt>
      <trkpt lat="48.61438" lon="2.1789">
        <ele>120</ele>
        <time>2019-10-28T11:14:51.000Z</time>
      </trkpt>
      <trkpt lat="48.61438" lon="2.17889">
        <ele>120</ele>
        <time>2019-10-28T11:14:52.000Z</time>
      </trkpt>
      <trkpt lat="48.61439" lon="2.17887">
        <ele>120</ele>
        <time>2019-10-28T11:14:53.000Z</time>
      </trkpt>
      <trkpt lat="48.61439" lon="2.17885">
        <ele>121</ele>
        <time>2019-10-28T11:14:54.000Z</time>
      </trkpt>
      <trkpt lat="48.6144" lon="2.17883">
        <ele>121</ele>
        <time>2019-10-28T11:14:55.000Z</time>
      </trkpt>
      <trkpt lat="48.61441" lon="2.17881">
        <ele>121</ele>
        <time>2019-10-28T11:14:56.000Z</time>
      </trkpt>
      <trkpt lat="48.61442" lon="2.17878">
        <ele>120</ele>
        <time>2019-10-28T11:14:57.000Z</time>
      </trkpt>
      <trkpt lat="48.61444" lon="2.17876">
        <ele>119</ele>
        <time>2019-10-28T11:14:58.000Z</time>
      </trkpt>
      <trkpt lat="48.61444" lon="2.17875">
        <ele>118</ele>
        <time>2019-10-28T11:14:59.000Z</time>
      </trkpt>
      <trkpt lat="48.61445" lon="2.17873">
        <ele>118</ele>
        <time>2019-10-28T11:15:00.000Z</time>
      </trkpt>
      <trkpt lat="48.61446" lon="2.17871">
        <ele>118</ele>
        <time>2019-10-28T11:15:01.000Z</time>
      </trkpt>
      <trkpt lat="48.61447" lon="2.17869">
        <ele>117</ele>
        <time>2019-10-28T11:15:02.000Z</time>
      </trkpt>
      <trkpt lat="48.61448" lon="2.17867">
        <ele>117</ele>
        <time>2019-10-28T11:15:03.000Z</time>
      </trkpt>
      <trkpt lat="48.61448" lon="2.17865">
        <ele>116</ele>
        <time>2019-10-28T11:15:04.000Z</time>
      </trkpt>
      <trkpt lat="48.61449" lon="2.17863">
        <ele>116</ele>
        <time>2019-10-28T11:15:05.000Z</time>
      </trkpt>
      <trkpt lat="48.61449" lon="2.17861">
        <ele>115</ele>
        <time>2019-10-28T11:15:06.000Z</time>
      </trkpt>
      <trkpt lat="48.6145" lon="2.17859">
        <ele>114</ele>
        <time>2019-10-28T11:15:07.000Z</time>
      </trkpt>
      <trkpt lat="48.6145" lon="2.17857">
        <ele>114</ele>
        <time>2019-10-28T11:15:08.000Z</time>
      </trkpt>
      <trkpt lat="48.61451" lon="2.17855">
        <ele>114</ele>
        <time>2019-10-28T11:15:09.000Z</time>
      </trkpt>
      <trkpt lat="48.61451" lon="2.17853">
        <ele>114</ele>
        <time>2019-10-28T11:15:10.000Z</time>
      </trkpt>
      <trkpt lat="48.61451" lon="2.17851">
        <ele>114</ele>
        <time>2019-10-28T11:15:11.000Z</time>
      </trkpt>
      <trkpt lat="48.6145" lon="2.17849">
        <ele>115</ele>
        <time>2019-10-28T11:15:12.000Z</time>
      </trkpt>
      <trkpt lat="48.61449" lon="2.17847">
        <ele>115</ele>
        <time>2019-10-28T11:15:13.000Z</time>
      </trkpt>
      <trkpt lat="48.61447" lon="2.17845">
        <ele>116</ele>
        <time>2019-10-28T11:15:14.000Z</time>
      </trkpt>
      <trkpt lat="48.61446" lon="2.17844">
        <ele>116</ele>
        <time>2019-10-28T11:15:15.000Z</time>
      </trkpt>
      <trkpt lat="48.61445" lon="2.17843">
        <ele>116</ele>
        <time>2019-10-28T11:15:16.000Z</time>
      </trkpt>
      <trkpt lat="48.61444" lon="2.17842">
        <ele>116</ele>
        <time>2019-10-28T11:15:17.000Z</time>
      </trkpt>
      <trkpt lat="48.61442" lon="2.17841">
        <ele>116</ele>
        <time>2019-10-28T11:15:18.000Z</time>
      </trkpt>
      <trkpt lat="48.61441" lon="2.1784">
        <ele>117</ele>
        <time>2019-10-28T11:15:19.000Z</time>
      </trkpt>
      <trkpt lat="48.6144" lon="2.17839">
        <ele>116</ele>
        <time>2019-10-28T11:15:20.000Z</time>
      </trkpt>
      <trkpt lat="48.61438" lon="2.17837">
        <ele>116</ele>
        <time>2019-10-28T11:15:21.000Z</time>
      </trkpt>
      <trkpt lat="48.61437" lon="2.17836">
        <ele>116</ele>
        <time>2019-10-28T11:15:22.000Z</time>
      </trkpt>
      <trkpt lat="48.61436" lon="2.17835">
        <ele>116</ele>
        <time>2019-10-28T11:15:23.000Z</time>
      </trkpt>
      <trkpt lat="48.61435" lon="2.17834">
        <ele>116</ele>
        <time>2019-10-28T11:15:24.000Z</time>
      </trkpt>
      <trkpt lat="48.61434" lon="2.17834">
        <ele>117</ele>
        <time>2019-10-28T11:15:25.000Z</time>
      </trkpt>
      <trkpt lat="48.61433" lon="2.17833">
        <ele>117</ele>
        <time>2019-10-28T11:15:26.000Z</time>
      </trkpt>
      <trkpt lat="48.61432" lon="2.17832">
        <ele>117</ele>
        <time>2019-10-28T11:15:27.000Z</time>
      </trkpt>
      <trkpt lat="48.6143" lon="2.17831">
        <ele>117</ele>
        <time>2019-10-28T11:15:28.000Z</time>
      </trkpt>
      <trkpt lat="48.61429" lon="2.1783">
        <ele>117</ele>
        <time>2019-10-28T11:15:29.000Z</time>
      </trkpt>
      <trkpt lat="48.61427" lon="2.17829">
        <ele>117</ele>
        <time>2019-10-28T11:15:30.000Z</time>
      </trkpt>
      <trkpt lat="48.61426" lon="2.17828">
        <ele>117</ele>
        <time>2019-10-28T11:15:31.000Z</time>
      </trkpt>
      <trkpt lat="48.61425" lon="2.17827">
        <ele>117</ele>
        <time>2019-10-28T11:15:32.000Z</time>
      </trkpt>
      <trkpt lat="48.61424" lon="2.17826">
        <ele>117</ele>
        <time>2019-10-28T11:15:33.000Z</time>
      </trkpt>
      <trkpt lat="48.61422" lon="2.17826">
        <ele>118</ele>
        <time>2019-10-28T11:15:34.000Z</time>
      </trkpt>
      <trkpt lat="48.61421" lon="2.17825">
        <ele>118</ele>
        <time>2019-10-28T11:15:35.000Z</time>
      </trkpt>
      <trkpt lat="48.6142" lon="2.17824">
        <ele>118</ele>
        <time>2019-10-28T11:15:36.000Z</time>
      </trkpt>
      <trkpt lat="48.61419" lon="2.17823">
        <ele>118</ele>
        <time>2019-10-28T11:15:37.000Z</time>
      </trkpt>
      <trkpt lat="48.61417" lon="2.17823">
        <ele>118</ele>
        <time>2019-10-28T11:15:38.000Z</time>
      </trkpt>
      <trkpt lat="48.61416" lon="2.17822">
        <ele>118</ele>
        <time>2019-10-28T11:15:39.000Z</time>
      </trkpt>
      <trkpt lat="48.61415" lon="2.17821">
        <ele>119</ele>
        <time>2019-10-28T11:15:40.000Z</time>
      </trkpt>
      <trkpt lat="48.61413" lon="2.17821">
        <ele>119</ele>
        <time>2019-10-28T11:15:41.000Z</time>
      </trkpt>
      <trkpt lat="48.61412" lon="2.1782">
        <ele>119</ele>
        <time>2019-10-28T11:15:42.000Z</time>
      </trkpt>
      <trkpt lat="48.61411" lon="2.17819">
        <ele>119</ele>
        <time>2019-10-28T11:15:43.000Z</time>
      </trkpt>
      <trkpt lat="48.6141" lon="2.17819">
        <ele>119</ele>
        <time>2019-10-28T11:15:44.000Z</time>
      </trkpt>
      <trkpt lat="48.61408" lon="2.17818">
        <ele>119</ele>
        <time>2019-10-28T11:15:45.000Z</time>
      </trkpt>
      <trkpt lat="48.61407" lon="2.17817">
        <ele>120</ele>
        <time>2019-10-28T11:15:46.000Z</time>
      </trkpt>
      <trkpt lat="48.61405" lon="2.17817">
        <ele>119</ele>
        <time>2019-10-28T11:15:47.000Z</time>
      </trkpt>
      <trkpt lat="48.61404" lon="2.17816">
        <ele>119</ele>
        <time>2019-10-28T11:15:48.000Z</time>
      </trkpt>
      <trkpt lat="48.61403" lon="2.17815">
        <ele>119</ele>
        <time>2019-10-28T11:15:49.000Z</time>
      </trkpt>
      <trkpt lat="48.61402" lon="2.17814">
        <ele>119</ele>
        <time>2019-10-28T11:15:50.000Z</time>
      </trkpt>
      <trkpt lat="48.61401" lon="2.17813">
        <ele>119</ele>
        <time>2019-10-28T11:15:51.000Z</time>
      </trkpt>
      <trkpt lat="48.61399" lon="2.17812">
        <ele>119</ele>
        <time>2019-10-28T11:15:52.000Z</time>
      </trkpt>
      <trkpt lat="48.61399" lon="2.17811">
        <ele>119</ele>
        <time>2019-10-28T11:15:53.000Z</time>
      </trkpt>
      <trkpt lat="48.61398" lon="2.1781">
        <ele>118</ele>
        <time>2019-10-28T11:15:54.000Z</time>
      </trkpt>
      <trkpt lat="48.61397" lon="2.17809">
        <ele>118</ele>
        <time>2019-10-28T11:15:55.000Z</time>
      </trkpt>
      <trkpt lat="48.61396" lon="2.17807">
        <ele>118</ele>
        <time>2019-10-28T11:15:56.000Z</time>
      </trkpt>
      <trkpt lat="48.61396" lon="2.17806">
        <ele>118</ele>
        <time>2019-10-28T11:15:57.000Z</time>
      </trkpt>
      <trkpt lat="48.61395" lon="2.17805">
        <ele>118</ele>
        <time>2019-10-28T11:15:58.000Z</time>
      </trkpt>
      <trkpt lat="48.61394" lon="2.17804">
        <ele>118</ele>
        <time>2019-10-28T11:15:59.000Z</time>
      </trkpt>
      <trkpt lat="48.61394" lon="2.17803">
        <ele>118</ele>
        <time>2019-10-28T11:16:00.000Z</time>
      </trkpt>
      <trkpt lat="48.61393" lon="2.17803">
        <ele>118</ele>
        <time>2019-10-28T11:16:01.000Z</time>
      </trkpt>
      <trkpt lat="48.61393" lon="2.17803">
        <ele>117</ele>
        <time>2019-10-28T11:16:02.000Z</time>
      </trkpt>
      <trkpt lat="48.61393" lon="2.17802">
        <ele>117</ele>
        <time>2019-10-28T11:16:03.000Z</time>
      </trkpt>
      <trkpt lat="48.61393" lon="2.17802">
        <ele>118</ele>
        <time>2019-10-28T11:16:04.000Z</time>
      </trkpt>
      <trkpt lat="48.61392" lon="2.17801">
        <ele>118</ele>
        <time>2019-10-28T11:16:05.000Z</time>
      </trkpt>
      <trkpt lat="48.61392" lon="2.17801">
        <ele>118</ele>
        <time>2019-10-28T11:16:06.000Z</time>
      </trkpt>
      <trkpt lat="48.61392" lon="2.17801">
        <ele>118</ele>
        <time>2019-10-28T11:16:07.000Z</time>
      </trkpt>
      <trkpt lat="48.61392" lon="2.17801">
        <ele>119</ele>
        <time>2019-10-28T11:16:08.000Z</time>
      </trkpt>
      <trkpt lat="48.61391" lon="2.178">
        <ele>119</ele>
        <time>2019-10-28T11:16:09.000Z</time>
      </trkpt>
      <trkpt lat="48.61391" lon="2.17799">
        <ele>118</ele>
        <time>2019-10-28T11:16:10.000Z</time>
      </trkpt>
      <trkpt lat="48.6139" lon="2.17798">
        <ele>118</ele>
        <time>2019-10-28T11:16:11.000Z</time>
      </trkpt>
      <trkpt lat="48.61389" lon="2.17797">
        <ele>118</ele>
        <time>2019-10-28T11:16:12.000Z</time>
      </trkpt>
      <trkpt lat="48.61388" lon="2.17797">
        <ele>118</ele>
        <time>2019-10-28T11:16:13.000Z</time>
      </trkpt>
      <trkpt lat="48.61386" lon="2.17796">
        <ele>118</ele>
        <time>2019-10-28T11:16:14.000Z</time>
      </trkpt>
      <trkpt lat="48.61385" lon="2.17795">
        <ele>118</ele>
        <time>2019-10-28T11:16:15.000Z</time>
      </trkpt>
      <trkpt lat="48.61383" lon="2.17793">
        <ele>118</ele>
        <time>2019-10-28T11:16:16.000Z</time>
      </trkpt>
      <trkpt lat="48.61381" lon="2.17791">
        <ele>118</ele>
        <time>2019-10-28T11:16:17.000Z</time>
      </trkpt>
      <trkpt lat="48.61378" lon="2.1779">
        <ele>118</ele>
        <time>2019-10-28T11:16:18.000Z</time>
      </trkpt>
      <trkpt lat="48.61376" lon="2.17788">
        <ele>118</ele>
        <time>2019-10-28T11:16:19.000Z</time>
      </trkpt>
      <trkpt lat="48.61373" lon="2.17786">
        <ele>118</ele>
        <time>2019-10-28T11:16:20.000Z</time>
      </trkpt>
      <trkpt lat="48.6137" lon="2.17784">
        <ele>118</ele>
        <time>2019-10-28T11:16:21.000Z</time>
      </trkpt>
      <trkpt lat="48.61367" lon="2.17782">
        <ele>119</ele>
        <time>2019-10-28T11:16:22.000Z</time>
      </trkpt>
      <trkpt lat="48.61364" lon="2.1778">
        <ele>119</ele>
        <time>2019-10-28T11:16:23.000Z</time>
      </trkpt>
      <trkpt lat="48.61361" lon="2.17778">
        <ele>119</ele>
        <time>2019-10-28T11:16:24.000Z</time>
      </trkpt>
      <trkpt lat="48.61358" lon="2.17776">
        <ele>119</ele>
        <time>2019-10-28T11:16:25.000Z</time>
      </trkpt>
      <trkpt lat="48.61355" lon="2.17775">
        <ele>119</ele>
        <time>2019-10-28T11:16:26.000Z</time>
      </trkpt>
      <trkpt lat="48.61352" lon="2.17773">
        <ele>120</ele>
        <time>2019-10-28T11:16:27.000Z</time>
      </trkpt>
      <trkpt lat="48.61348" lon="2.17772">
        <ele>120</ele>
        <time>2019-10-28T11:16:28.000Z</time>
      </trkpt>
      <trkpt lat="48.61345" lon="2.1777">
        <ele>120</ele>
        <time>2019-10-28T11:16:29.000Z</time>
      </trkpt>
      <trkpt lat="48.61342" lon="2.17769">
        <ele>120</ele>
        <time>2019-10-28T11:16:30.000Z</time>
      </trkpt>
      <trkpt lat="48.61338" lon="2.17768">
        <ele>120</ele>
        <time>2019-10-28T11:16:31.000Z</time>
      </trkpt>
      <trkpt lat="48.61335" lon="2.17767">
        <ele>120</ele>
        <time>2019-10-28T11:16:32.000Z</time>
      </trkpt>
      <trkpt lat="48.61331" lon="2.17766">
        <ele>120</ele>
        <time>2019-10-28T11:16:33.000Z</time>
      </trkpt>
      <trkpt lat="48.61328" lon="2.17765">
        <ele>121</ele>
        <time>2019-10-28T11:16:34.000Z</time>
      </trkpt>
      <trkpt lat="48.61325" lon="2.17765">
        <ele>121</ele>
        <time>2019-10-28T11:16:35.000Z</time>
      </trkpt>
      <trkpt lat="48.61321" lon="2.17764">
        <ele>121</ele>
        <time>2019-10-28T11:16:36.000Z</time>
      </trkpt>
      <trkpt lat="48.61318" lon="2.17763">
        <ele>121</ele>
        <time>2019-10-28T11:16:37.000Z</time>
      </trkpt>
      <trkpt lat="48.61314" lon="2.17762">
        <ele>121</ele>
        <time>2019-10-28T11:16:38.000Z</time>
      </trkpt>
      <trkpt lat="48.61311" lon="2.17761">
        <ele>121</ele>
        <time>2019-10-28T11:16:39.000Z</time>
      </trkpt>
      <trkpt lat="48.61308" lon="2.17759">
        <ele>121</ele>
        <time>2019-10-28T11:16:40.000Z</time>
      </trkpt>
      <trkpt lat="48.61304" lon="2.17758">
        <ele>121</ele>
        <time>2019-10-28T11:16:41.000Z</time>
      </trkpt>
      <trkpt lat="48.61301" lon="2.17756">
        <ele>121</ele>
        <time>2019-10-28T11:16:42.000Z</time>
      </trkpt>
      <trkpt lat="48.61297" lon="2.17754">
        <ele>120</ele>
        <time>2019-10-28T11:16:43.000Z</time>
      </trkpt>
      <trkpt lat="48.61294" lon="2.17752">
        <ele>120</ele>
        <time>2019-10-28T11:16:44.000Z</time>
      </trkpt>
      <trkpt lat="48.6129" lon="2.1775">
        <ele>120</ele>
        <time>2019-10-28T11:16:45.000Z</time>
      </trkpt>
      <trkpt lat="48.61287" lon="2.17749">
        <ele>120</ele>
        <time>2019-10-28T11:16:46.000Z</time>
      </trkpt>
      <trkpt lat="48.61283" lon="2.17747">
        <ele>120</ele>
        <time>2019-10-28T11:16:47.000Z</time>
      </trkpt>
      <trkpt lat="48.6128" lon="2.17745">
        <ele>120</ele>
        <time>2019-10-28T11:16:48.000Z</time>
      </trkpt>
      <trkpt lat="48.61276" lon="2.17743">
        <ele>120</ele>
        <time>2019-10-28T11:16:49.000Z</time>
      </trkpt>
      <trkpt lat="48.61273" lon="2.17742">
        <ele>120</ele>
        <time>2019-10-28T11:16:50.000Z</time>
      </trkpt>
      <trkpt lat="48.61269" lon="2.1774">
        <ele>120</ele>
        <time>2019-10-28T11:16:51.000Z</time>
      </trkpt>
      <trkpt lat="48.61266" lon="2.17738">
        <ele>120</ele>
        <time>2019-10-28T11:16:52.000Z</time>
      </trkpt>
      <trkpt lat="48.61263" lon="2.17736">
        <ele>120</ele>
        <time>2019-10-28T11:16:53.000Z</time>
      </trkpt>
      <trkpt lat="48.61259" lon="2.17735">
        <ele>120</ele>
        <time>2019-10-28T11:16:54.000Z</time>
      </trkpt>
      <trkpt lat="48.61256" lon="2.17733">
        <ele>119</ele>
        <time>2019-10-28T11:16:55.000Z</time>
      </trkpt>
      <trkpt lat="48.61253" lon="2.17731">
        <ele>119</ele>
        <time>2019-10-28T11:16:56.000Z</time>
      </trkpt>
      <trkpt lat="48.61249" lon="2.1773">
        <ele>119</ele>
        <time>2019-10-28T11:16:57.000Z</time>
      </trkpt>
      <trkpt lat="48.61246" lon="2.17728">
        <ele>119</ele>
        <time>2019-10-28T11:16:58.000Z</time>
      </trkpt>
      <trkpt lat="48.61243" lon="2.17726">
        <ele>119</ele>
        <time>2019-10-28T11:16:59.000Z</time>
      </trkpt>
      <trkpt lat="48.6124" lon="2.17724">
        <ele>119</ele>
        <time>2019-10-28T11:17:00.000Z</time>
      </trkpt>
      <trkpt lat="48.61237" lon="2.17722">
        <ele>118</ele>
        <time>2019-10-28T11:17:01.000Z</time>
      </trkpt>
      <trkpt lat="48.61233" lon="2.17721">
        <ele>118</ele>
        <time>2019-10-28T11:17:02.000Z</time>
      </trkpt>
      <trkpt lat="48.6123" lon="2.17719">
        <ele>118</ele>
        <time>2019-10-28T11:17:03.000Z</time>
      </trkpt>
      <trkpt lat="48.61227" lon="2.17718">
        <ele>118</ele>
        <time>2019-10-28T11:17:04.000Z</time>
      </trkpt>
      <trkpt lat="48.61224" lon="2.17717">
        <ele>118</ele>
        <time>2019-10-28T11:17:05.000Z</time>
      </trkpt>
      <trkpt lat="48.61222" lon="2.17716">
        <ele>118</ele>
        <time>2019-10-28T11:17:06.000Z</time>
      </trkpt>
      <trkpt lat="48.61221" lon="2.17715">
        <ele>118</ele>
        <time>2019-10-28T11:17:07.000Z</time>
      </trkpt>
      <trkpt lat="48.6122" lon="2.17714">
        <ele>118</ele>
        <time>2019-10-28T11:17:08.000Z</time>
      </trkpt>
      <trkpt lat="48.61219" lon="2.17712">
        <ele>118</ele>
        <time>2019-10-28T11:17:09.000Z</time>
      </trkpt>
      <trkpt lat="48.61218" lon="2.17711">
        <ele>117</ele>
        <time>2019-10-28T11:17:10.000Z</time>
      </trkpt>
      <trkpt lat="48.61217" lon="2.1771">
        <ele>117</ele>
        <time>2019-10-28T11:17:11.000Z</time>
      </trkpt>
      <trkpt lat="48.61216" lon="2.17709">
        <ele>117</ele>
        <time>2019-10-28T11:17:12.000Z</time>
      </trkpt>
      <trkpt lat="48.61215" lon="2.17707">
        <ele>117</ele>
        <time>2019-10-28T11:17:13.000Z</time>
      </trkpt>
      <trkpt lat="48.61214" lon="2.17706">
        <ele>117</ele>
        <time>2019-10-28T11:17:14.000Z</time>
      </trkpt>
      <trkpt lat="48.61214" lon="2.17704">
        <ele>117</ele>
        <time>2019-10-28T11:17:15.000Z</time>
      </trkpt>
      <trkpt lat="48.61213" lon="2.17702">
        <ele>117</ele>
        <time>2019-10-28T11:17:16.000Z</time>
      </trkpt>
      <trkpt lat="48.61213" lon="2.177">
        <ele>117</ele>
        <time>2019-10-28T11:17:17.000Z</time>
      </trkpt>
      <trkpt lat="48.61212" lon="2.17698">
        <ele>117</ele>
        <time>2019-10-28T11:17:18.000Z</time>
      </trkpt>
      <trkpt lat="48.61212" lon="2.17696">
        <ele>116</ele>
        <time>2019-10-28T11:17:19.000Z</time>
      </trkpt>
      <trkpt lat="48.61212" lon="2.17694">
        <ele>116</ele>
        <time>2019-10-28T11:17:20.000Z</time>
      </trkpt>
      <trkpt lat="48.61212" lon="2.17692">
        <ele>116</ele>
        <time>2019-10-28T11:17:21.000Z</time>
      </trkpt>
      <trkpt lat="48.61212" lon="2.1769">
        <ele>116</ele>
        <time>2019-10-28T11:17:22.000Z</time>
      </trkpt>
      <trkpt lat="48.61211" lon="2.17688">
        <ele>116</ele>
        <time>2019-10-28T11:17:23.000Z</time>
      </trkpt>
      <trkpt lat="48.61211" lon="2.17686">
        <ele>116</ele>
        <time>2019-10-28T11:17:24.000Z</time>
      </trkpt>
      <trkpt lat="48.61211" lon="2.17684">
        <ele>116</ele>
        <time>2019-10-28T11:17:25.000Z</time>
      </trkpt>
      <trkpt lat="48.61211" lon="2.17681">
        <ele>116</ele>
        <time>2019-10-28T11:17:26.000Z</time>
      </trkpt>
      <trkpt lat="48.61211" lon="2.17679">
        <ele>116</ele>
        <time>2019-10-28T11:17:27.000Z</time>
      </trkpt>
      <trkpt lat="48.61211" lon="2.17677">
        <ele>116</ele>
        <time>2019-10-28T11:17:28.000Z</time>
      </trkpt>
      <trkpt lat="48.61211" lon="2.17675">
        <ele>116</ele>
        <time>2019-10-28T11:17:29.000Z</time>
      </trkpt>
      <trkpt lat="48.61211" lon="2.17673">
        <ele>116</ele>
        <time>2019-10-28T11:17:30.000Z</time>
      </trkpt>
      <trkpt lat="48.61211" lon="2.1767">
        <ele>116</ele>
        <time>2019-10-28T11:17:31.000Z</time>
      </trkpt>
      <trkpt lat="48.6121" lon="2.17668">
        <ele>116</ele>
        <time>2019-10-28T11:17:32.000Z</time>
      </trkpt>
      <trkpt lat="48.6121" lon="2.17666">
        <ele>116</ele>
        <time>2019-10-28T11:17:33.000Z</time>
      </trkpt>
      <trkpt lat="48.6121" lon="2.17664">
        <ele>116</ele>
        <time>2019-10-28T11:17:34.000Z</time>
      </trkpt>
      <trkpt lat="48.6121" lon="2.17661">
        <ele>115</ele>
        <time>2019-10-28T11:17:35.000Z</time>
      </trkpt>
      <trkpt lat="48.6121" lon="2.17659">
        <ele>115</ele>
        <time>2019-10-28T11:17:36.000Z</time>
      </trkpt>
      <trkpt lat="48.6121" lon="2.17657">
        <ele>115</ele>
        <time>2019-10-28T11:17:37.000Z</time>
      </trkpt>
      <trkpt lat="48.61209" lon="2.17655">
        <ele>115</ele>
        <time>2019-10-28T11:17:38.000Z</time>
      </trkpt>
      <trkpt lat="48.61209" lon="2.17653">
        <ele>115</ele>
        <time>2019-10-28T11:17:39.000Z</time>
      </trkpt>
      <trkpt lat="48.61209" lon="2.1765">
        <ele>115</ele>
        <time>2019-10-28T11:17:40.000Z</time>
      </trkpt>
      <trkpt lat="48.61208" lon="2.17648">
        <ele>115</ele>
        <time>2019-10-28T11:17:41.000Z</time>
      </trkpt>
      <trkpt lat="48.61208" lon="2.17646">
        <ele>115</ele>
        <time>2019-10-28T11:17:42.000Z</time>
      </trkpt>
      <trkpt lat="48.61207" lon="2.17644">
        <ele>115</ele>
        <time>2019-10-28T11:17:43.000Z</time>
      </trkpt>
      <trkpt lat="48.61206" lon="2.17642">
        <ele>115</ele>
        <time>2019-10-28T11:17:44.000Z</time>
      </trkpt>
      <trkpt lat="48.61206" lon="2.1764">
        <ele>115</ele>
        <time>2019-10-28T11:17:45.000Z</time>
      </trkpt>
      <trkpt lat="48.61205" lon="2.17638">
        <ele>115</ele>
        <time>2019-10-28T11:17:46.000Z</time>
      </trkpt>
      <trkpt lat="48.61205" lon="2.17636">
        <ele>115</ele>
        <time>2019-10-28T11:17:47.000Z</time>
      </trkpt>
      <trkpt lat="48.61205" lon="2.17634">
        <ele>115</ele>
        <time>2019-10-28T11:17:48.000Z</time>
      </trkpt>
      <trkpt lat="48.61204" lon="2.17632">
        <ele>115</ele>
        <time>2019-10-28T11:17:49.000Z</time>
      </trkpt>
      <trkpt lat="48.61204" lon="2.1763">
        <ele>115</ele>
        <time>2019-10-28T11:17:50.000Z</time>
      </trkpt>
      <trkpt lat="48.61204" lon="2.17628">
        <ele>115</ele>
        <time>2019-10-28T11:17:51.000Z</time>
      </trkpt>
      <trkpt lat="48.61203" lon="2.17625">
        <ele>115</ele>
        <time>2019-10-28T11:17:52.000Z</time>
      </trkpt>
      <trkpt lat="48.61203" lon="2.17623">
        <ele>115</ele>
        <time>2019-10-28T11:17:53.000Z</time>
      </trkpt>
      <trkpt lat="48.61203" lon="2.17621">
        <ele>115</ele>
        <time>2019-10-28T11:17:54.000Z</time>
      </trkpt>
      <trkpt lat="48.61202" lon="2.17619">
        <ele>115</ele>
        <time>2019-10-28T11:17:55.000Z</time>
      </trkpt>
      <trkpt lat="48.61202" lon="2.17616">
        <ele>115</ele>
        <time>2019-10-28T11:17:56.000Z</time>
      </trkpt>
      <trkpt lat="48.61202" lon="2.17614">
        <ele>115</ele>
        <time>2019-10-28T11:17:57.000Z</time>
      </trkpt>
      <trkpt lat="48.61201" lon="2.17612">
        <ele>115</ele>
        <time>2019-10-28T11:17:58.000Z</time>
      </trkpt>
      <trkpt lat="48.61201" lon="2.1761">
        <ele>115</ele>
        <time>2019-10-28T11:17:59.000Z</time>
      </trkpt>
      <trkpt lat="48.61201" lon="2.17607">
        <ele>115</ele>
        <time>2019-10-28T11:18:00.000Z</time>
      </trkpt>
      <trkpt lat="48.61201" lon="2.17605">
        <ele>115</ele>
        <time>2019-10-28T11:18:01.000Z</time>
      </trkpt>
      <trkpt lat="48.612" lon="2.17603">
        <ele>115</ele>
        <time>2019-10-28T11:18:02.000Z</time>
      </trkpt>
      <trkpt lat="48.612" lon="2.17601">
        <ele>115</ele>
        <time>2019-10-28T11:18:03.000Z</time>
      </trkpt>
      <trkpt lat="48.612" lon="2.17599">
        <ele>115</ele>
        <time>2019-10-28T11:18:04.000Z</time>
      </trkpt>
      <trkpt lat="48.612" lon="2.17597">
        <ele>115</ele>
        <time>2019-10-28T11:18:05.000Z</time>
      </trkpt>
      <trkpt lat="48.612" lon="2.17595">
        <ele>115</ele>
        <time>2019-10-28T11:18:06.000Z</time>
      </trkpt>
      <trkpt lat="48.612" lon="2.17593">
        <ele>114</ele>
        <time>2019-10-28T11:18:07.000Z</time>
      </trkpt>
      <trkpt lat="48.612" lon="2.1759">
        <ele>114</ele>
        <time>2019-10-28T11:18:08.000Z</time>
      </trkpt>
      <trkpt lat="48.612" lon="2.17588">
        <ele>114</ele>
        <time>2019-10-28T11:18:09.000Z</time>
      </trkpt>
      <trkpt lat="48.612" lon="2.17586">
        <ele>114</ele>
        <time>2019-10-28T11:18:10.000Z</time>
      </trkpt>
      <trkpt lat="48.612" lon="2.17584">
        <ele>114</ele>
        <time>2019-10-28T11:18:11.000Z</time>
      </trkpt>
      <trkpt lat="48.612" lon="2.17582">
        <ele>114</ele>
        <time>2019-10-28T11:18:12.000Z</time>
      </trkpt>
      <trkpt lat="48.61199" lon="2.1758">
        <ele>114</ele>
        <time>2019-10-28T11:18:13.000Z</time>
      </trkpt>
      <trkpt lat="48.61199" lon="2.17577">
        <ele>114</ele>
        <time>2019-10-28T11:18:14.000Z</time>
      </trkpt>
      <trkpt lat="48.61198" lon="2.17575">
        <ele>114</ele>
        <time>2019-10-28T11:18:15.000Z</time>
      </trkpt>
      <trkpt lat="48.61198" lon="2.17573">
        <ele>114</ele>
        <time>2019-10-28T11:18:16.000Z</time>
      </trkpt>
      <trkpt lat="48.61197" lon="2.17571">
        <ele>114</ele>
        <time>2019-10-28T11:18:17.000Z</time>
      </trkpt>
      <trkpt lat="48.61197" lon="2.17569">
        <ele>114</ele>
        <time>2019-10-28T11:18:18.000Z</time>
      </trkpt>
      <trkpt lat="48.61196" lon="2.17568">
        <ele>114</ele>
        <time>2019-10-28T11:18:19.000Z</time>
      </trkpt>
      <trkpt lat="48.61195" lon="2.17566">
        <ele>114</ele>
        <time>2019-10-28T11:18:20.000Z</time>
      </trkpt>
      <trkpt lat="48.61195" lon="2.17564">
        <ele>114</ele>
        <time>2019-10-28T11:18:21.000Z</time>
      </trkpt>
      <trkpt lat="48.61194" lon="2.17563">
        <ele>114</ele>
        <time>2019-10-28T11:18:22.000Z</time>
      </trkpt>
      <trkpt lat="48.61193" lon="2.17561">
        <ele>114</ele>
        <time>2019-10-28T11:18:23.000Z</time>
      </trkpt>
      <trkpt lat="48.61193" lon="2.17558">
        <ele>114</ele>
        <time>2019-10-28T11:18:24.000Z</time>
      </trkpt>
      <trkpt lat="48.61193" lon="2.17556">
        <ele>114</ele>
        <time>2019-10-28T11:18:25.000Z</time>
      </trkpt>
      <trkpt lat="48.61192" lon="2.17554">
        <ele>114</ele>
        <time>2019-10-28T11:18:26.000Z</time>
      </trkpt>
      <trkpt lat="48.61192" lon="2.17552">
        <ele>114</ele>
        <time>2019-10-28T11:18:27.000Z</time>
      </trkpt>
      <trkpt lat="48.61192" lon="2.17549">
        <ele>114</ele>
        <time>2019-10-28T11:18:28.000Z</time>
      </trkpt>
      <trkpt lat="48.61191" lon="2.17547">
        <ele>113</ele>
        <time>2019-10-28T11:18:29.000Z</time>
      </trkpt>
      <trkpt lat="48.61191" lon="2.17546">
        <ele>113</ele>
        <time>2019-10-28T11:18:30.000Z</time>
      </trkpt>
      <trkpt lat="48.6119" lon="2.17544">
        <ele>113</ele>
        <time>2019-10-28T11:18:31.000Z</time>
      </trkpt>
      <trkpt lat="48.61189" lon="2.17543">
        <ele>114</ele>
        <time>2019-10-28T11:18:32.000Z</time>
      </trkpt>
      <trkpt lat="48.61189" lon="2.17542">
        <ele>113</ele>
        <time>2019-10-28T11:18:33.000Z</time>
      </trkpt>
      <trkpt lat="48.61188" lon="2.1754">
        <ele>113</ele>
        <time>2019-10-28T11:18:34.000Z</time>
      </trkpt>
      <trkpt lat="48.61187" lon="2.17539">
        <ele>113</ele>
        <time>2019-10-28T11:18:35.000Z</time>
      </trkpt>
      <trkpt lat="48.61187" lon="2.17537">
        <ele>113</ele>
        <time>2019-10-28T11:18:36.000Z</time>
      </trkpt>
      <trkpt lat="48.61187" lon="2.17535">
        <ele>113</ele>
        <time>2019-10-28T11:18:37.000Z</time>
      </trkpt>
      <trkpt lat="48.61188" lon="2.17533">
        <ele>113</ele>
        <time>2019-10-28T11:18:38.000Z</time>
      </trkpt>
      <trkpt lat="48.61188" lon="2.17532">
        <ele>113</ele>
        <time>2019-10-28T11:18:39.000Z</time>
      </trkpt>
      <trkpt lat="48.61189" lon="2.1753">
        <ele>113</ele>
        <time>2019-10-28T11:18:40.000Z</time>
      </trkpt>
      <trkpt lat="48.61189" lon="2.17528">
        <ele>113</ele>
        <time>2019-10-28T11:18:41.000Z</time>
      </trkpt>
      <trkpt lat="48.61189" lon="2.17526">
        <ele>113</ele>
        <time>2019-10-28T11:18:42.000Z</time>
      </trkpt>
      <trkpt lat="48.61189" lon="2.17524">
        <ele>113</ele>
        <time>2019-10-28T11:18:43.000Z</time>
      </trkpt>
      <trkpt lat="48.61189" lon="2.17522">
        <ele>113</ele>
        <time>2019-10-28T11:18:44.000Z</time>
      </trkpt>
      <trkpt lat="48.61189" lon="2.17519">
        <ele>113</ele>
        <time>2019-10-28T11:18:45.000Z</time>
      </trkpt>
      <trkpt lat="48.61189" lon="2.17517">
        <ele>113</ele>
        <time>2019-10-28T11:18:46.000Z</time>
      </trkpt>
      <trkpt lat="48.61189" lon="2.17515">
        <ele>113</ele>
        <time>2019-10-28T11:18:47.000Z</time>
      </trkpt>
      <trkpt lat="48.61188" lon="2.17514">
        <ele>113</ele>
        <time>2019-10-28T11:18:48.000Z</time>
      </trkpt>
      <trkpt lat="48.61188" lon="2.17512">
        <ele>113</ele>
        <time>2019-10-28T11:18:49.000Z</time>
      </trkpt>
      <trkpt lat="48.61188" lon="2.1751">
        <ele>113</ele>
        <time>2019-10-28T11:18:50.000Z</time>
      </trkpt>
      <trkpt lat="48.61188" lon="2.17508">
        <ele>113</ele>
        <time>2019-10-28T11:18:51.000Z</time>
      </trkpt>
      <trkpt lat="48.61188" lon="2.17507">
        <ele>113</ele>
        <time>2019-10-28T11:18:52.000Z</time>
      </trkpt>
      <trkpt lat="48.61187" lon="2.17505">
        <ele>114</ele>
        <time>2019-10-28T11:18:53.000Z</time>
      </trkpt>
      <trkpt lat="48.61187" lon="2.17503">
        <ele>114</ele>
        <time>2019-10-28T11:18:54.000Z</time>
      </trkpt>
      <trkpt lat="48.61187" lon="2.17502">
        <ele>114</ele>
        <time>2019-10-28T11:18:55.000Z</time>
      </trkpt>
      <trkpt lat="48.61186" lon="2.17501">
        <ele>114</ele>
        <time>2019-10-28T11:18:56.000Z</time>
      </trkpt>
      <trkpt lat="48.61186" lon="2.175">
        <ele>114</ele>
        <time>2019-10-28T11:18:57.000Z</time>
      </trkpt>
      <trkpt lat="48.61186" lon="2.17499">
        <ele>114</ele>
        <time>2019-10-28T11:18:58.000Z</time>
      </trkpt>
      <trkpt lat="48.61185" lon="2.17497">
        <ele>114</ele>
        <time>2019-10-28T11:18:59.000Z</time>
      </trkpt>
      <trkpt lat="48.61185" lon="2.17496">
        <ele>114</ele>
        <time>2019-10-28T11:19:00.000Z</time>
      </trkpt>
      <trkpt lat="48.61184" lon="2.17494">
        <ele>114</ele>
        <time>2019-10-28T11:19:01.000Z</time>
      </trkpt>
      <trkpt lat="48.61184" lon="2.17492">
        <ele>114</ele>
        <time>2019-10-28T11:19:02.000Z</time>
      </trkpt>
      <trkpt lat="48.61184" lon="2.1749">
        <ele>114</ele>
        <time>2019-10-28T11:19:03.000Z</time>
      </trkpt>
      <trkpt lat="48.61184" lon="2.17488">
        <ele>114</ele>
        <time>2019-10-28T11:19:04.000Z</time>
      </trkpt>
      <trkpt lat="48.61183" lon="2.17486">
        <ele>114</ele>
        <time>2019-10-28T11:19:05.000Z</time>
      </trkpt>
      <trkpt lat="48.61183" lon="2.17484">
        <ele>114</ele>
        <time>2019-10-28T11:19:06.000Z</time>
      </trkpt>
      <trkpt lat="48.61183" lon="2.17482">
        <ele>114</ele>
        <time>2019-10-28T11:19:07.000Z</time>
      </trkpt>
      <trkpt lat="48.61182" lon="2.1748">
        <ele>114</ele>
        <time>2019-10-28T11:19:08.000Z</time>
      </trkpt>
      <trkpt lat="48.61182" lon="2.17478">
        <ele>114</ele>
        <time>2019-10-28T11:19:09.000Z</time>
      </trkpt>
      <trkpt lat="48.61182" lon="2.17476">
        <ele>114</ele>
        <time>2019-10-28T11:19:10.000Z</time>
      </trkpt>
      <trkpt lat="48.61181" lon="2.17474">
        <ele>114</ele>
        <time>2019-10-28T11:19:11.000Z</time>
      </trkpt>
      <trkpt lat="48.61181" lon="2.17472">
        <ele>114</ele>
        <time>2019-10-28T11:19:12.000Z</time>
      </trkpt>
      <trkpt lat="48.61181" lon="2.1747">
        <ele>114</ele>
        <time>2019-10-28T11:19:13.000Z</time>
      </trkpt>
      <trkpt lat="48.6118" lon="2.17468">
        <ele>114</ele>
        <time>2019-10-28T11:19:14.000Z</time>
      </trkpt>
      <trkpt lat="48.6118" lon="2.17466">
        <ele>114</ele>
        <time>2019-10-28T11:19:15.000Z</time>
      </trkpt>
      <trkpt lat="48.61179" lon="2.17464">
        <ele>114</ele>
        <time>2019-10-28T11:19:16.000Z</time>
      </trkpt>
      <trkpt lat="48.61179" lon="2.17462">
        <ele>114</ele>
        <time>2019-10-28T11:19:17.000Z</time>
      </trkpt>
      <trkpt lat="48.61179" lon="2.1746">
        <ele>114</ele>
        <time>2019-10-28T11:19:18.000Z</time>
      </trkpt>
      <trkpt lat="48.61179" lon="2.17458">
        <ele>113</ele>
        <time>2019-10-28T11:19:19.000Z</time>
      </trkpt>
      <trkpt lat="48.61178" lon="2.17456">
        <ele>113</ele>
        <time>2019-10-28T11:19:20.000Z</time>
      </trkpt>
      <trkpt lat="48.61178" lon="2.17454">
        <ele>114</ele>
        <time>2019-10-28T11:19:21.000Z</time>
      </trkpt>
      <trkpt lat="48.61178" lon="2.17452">
        <ele>113</ele>
        <time>2019-10-28T11:19:22.000Z</time>
      </trkpt>
      <trkpt lat="48.61178" lon="2.17449">
        <ele>113</ele>
        <time>2019-10-28T11:19:23.000Z</time>
      </trkpt>
      <trkpt lat="48.61178" lon="2.17447">
        <ele>113</ele>
        <time>2019-10-28T11:19:24.000Z</time>
      </trkpt>
      <trkpt lat="48.61178" lon="2.17445">
        <ele>113</ele>
        <time>2019-10-28T11:19:25.000Z</time>
      </trkpt>
      <trkpt lat="48.61178" lon="2.17443">
        <ele>113</ele>
        <time>2019-10-28T11:19:26.000Z</time>
      </trkpt>
      <trkpt lat="48.61177" lon="2.17441">
        <ele>113</ele>
        <time>2019-10-28T11:19:27.000Z</time>
      </trkpt>
      <trkpt lat="48.61177" lon="2.17439">
        <ele>113</ele>
        <time>2019-10-28T11:19:28.000Z</time>
      </trkpt>
      <trkpt lat="48.61176" lon="2.17437">
        <ele>113</ele>
        <time>2019-10-28T11:19:29.000Z</time>
      </trkpt>
      <trkpt lat="48.61176" lon="2.17434">
        <ele>114</ele>
        <time>2019-10-28T11:19:30.000Z</time>
      </trkpt>
      <trkpt lat="48.61176" lon="2.17432">
        <ele>114</ele>
        <time>2019-10-28T11:19:31.000Z</time>
      </trkpt>
      <trkpt lat="48.61176" lon="2.1743">
        <ele>113</ele>
        <time>2019-10-28T11:19:32.000Z</time>
      </trkpt>
      <trkpt lat="48.61175" lon="2.17428">
        <ele>113</ele>
        <time>2019-10-28T11:19:33.000Z</time>
      </trkpt>
      <trkpt lat="48.61175" lon="2.17426">
        <ele>113</ele>
        <time>2019-10-28T11:19:34.000Z</time>
      </trkpt>
      <trkpt lat="48.61175" lon="2.17424">
        <ele>113</ele>
        <time>2019-10-28T11:19:35.000Z</time>
      </trkpt>
      <trkpt lat="48.61175" lon="2.17422">
        <ele>113</ele>
        <time>2019-10-28T11:19:36.000Z</time>
      </trkpt>
      <trkpt lat="48.61175" lon="2.1742">
        <ele>113</ele>
        <time>2019-10-28T11:19:37.000Z</time>
      </trkpt>
      <trkpt lat="48.61175" lon="2.17417">
        <ele>113</ele>
        <time>2019-10-28T11:19:38.000Z</time>
      </trkpt>
      <trkpt lat="48.61175" lon="2.17416">
        <ele>113</ele>
        <time>2019-10-28T11:19:39.000Z</time>
      </trkpt>
      <trkpt lat="48.61175" lon="2.17414">
        <ele>113</ele>
        <time>2019-10-28T11:19:40.000Z</time>
      </trkpt>
      <trkpt lat="48.61174" lon="2.17412">
        <ele>113</ele>
        <time>2019-10-28T11:19:41.000Z</time>
      </trkpt>
      <trkpt lat="48.61174" lon="2.1741">
        <ele>113</ele>
        <time>2019-10-28T11:19:42.000Z</time>
      </trkpt>
      <trkpt lat="48.61173" lon="2.17408">
        <ele>113</ele>
        <time>2019-10-28T11:19:43.000Z</time>
      </trkpt>
      <trkpt lat="48.61173" lon="2.17406">
        <ele>113</ele>
        <time>2019-10-28T11:19:44.000Z</time>
      </trkpt>
      <trkpt lat="48.61172" lon="2.17405">
        <ele>113</ele>
        <time>2019-10-28T11:19:45.000Z</time>
      </trkpt>
      <trkpt lat="48.61171" lon="2.17403">
        <ele>113</ele>
        <time>2019-10-28T11:19:46.000Z</time>
      </trkpt>
      <trkpt lat="48.6117" lon="2.17401">
        <ele>113</ele>
        <time>2019-10-28T11:19:47.000Z</time>
      </trkpt>
      <trkpt lat="48.61169" lon="2.174">
        <ele>113</ele>
        <time>2019-10-28T11:19:48.000Z</time>
      </trkpt>
      <trkpt lat="48.61168" lon="2.17399">
        <ele>113</ele>
        <time>2019-10-28T11:19:49.000Z</time>
      </trkpt>
      <trkpt lat="48.61167" lon="2.17398">
        <ele>113</ele>
        <time>2019-10-28T11:19:50.000Z</time>
      </trkpt>
      <trkpt lat="48.61166" lon="2.17396">
        <ele>113</ele>
        <time>2019-10-28T11:19:51.000Z</time>
      </trkpt>
      <trkpt lat="48.61165" lon="2.17395">
        <ele>112</ele>
        <time>2019-10-28T11:19:52.000Z</time>
      </trkpt>
      <trkpt lat="48.61164" lon="2.17394">
        <ele>112</ele>
        <time>2019-10-28T11:19:53.000Z</time>
      </trkpt>
      <trkpt lat="48.61163" lon="2.17393">
        <ele>112</ele>
        <time>2019-10-28T11:19:54.000Z</time>
      </trkpt>
      <trkpt lat="48.61162" lon="2.17392">
        <ele>112</ele>
        <time>2019-10-28T11:19:55.000Z</time>
      </trkpt>
      <trkpt lat="48.61161" lon="2.17391">
        <ele>112</ele>
        <time>2019-10-28T11:19:56.000Z</time>
      </trkpt>
      <trkpt lat="48.6116" lon="2.1739">
        <ele>112</ele>
        <time>2019-10-28T11:19:57.000Z</time>
      </trkpt>
      <trkpt lat="48.6116" lon="2.17388">
        <ele>112</ele>
        <time>2019-10-28T11:19:58.000Z</time>
      </trkpt>
      <trkpt lat="48.6116" lon="2.17386">
        <ele>112</ele>
        <time>2019-10-28T11:19:59.000Z</time>
      </trkpt>
      <trkpt lat="48.61159" lon="2.17385">
        <ele>111</ele>
        <time>2019-10-28T11:20:00.000Z</time>
      </trkpt>
      <trkpt lat="48.61159" lon="2.17383">
        <ele>111</ele>
        <time>2019-10-28T11:20:01.000Z</time>
      </trkpt>
      <trkpt lat="48.61158" lon="2.17382">
        <ele>111</ele>
        <time>2019-10-28T11:20:02.000Z</time>
      </trkpt>
      <trkpt lat="48.61157" lon="2.17381">
        <ele>111</ele>
        <time>2019-10-28T11:20:03.000Z</time>
      </trkpt>
      <trkpt lat="48.61156" lon="2.1738">
        <ele>111</ele>
        <time>2019-10-28T11:20:04.000Z</time>
      </trkpt>
      <trkpt lat="48.61155" lon="2.17379">
        <ele>110</ele>
        <time>2019-10-28T11:20:05.000Z</time>
      </trkpt>
      <trkpt lat="48.61154" lon="2.17378">
        <ele>110</ele>
        <time>2019-10-28T11:20:06.000Z</time>
      </trkpt>
      <trkpt lat="48.61153" lon="2.17376">
        <ele>111</ele>
        <time>2019-10-28T11:20:07.000Z</time>
      </trkpt>
      <trkpt lat="48.61151" lon="2.17375">
        <ele>111</ele>
        <time>2019-10-28T11:20:08.000Z</time>
      </trkpt>
      <trkpt lat="48.6115" lon="2.17374">
        <ele>111</ele>
        <time>2019-10-28T11:20:09.000Z</time>
      </trkpt>
      <trkpt lat="48.61149" lon="2.17373">
        <ele>111</ele>
        <time>2019-10-28T11:20:10.000Z</time>
      </trkpt>
      <trkpt lat="48.61148" lon="2.17371">
        <ele>111</ele>
        <time>2019-10-28T11:20:11.000Z</time>
      </trkpt>
      <trkpt lat="48.61147" lon="2.1737">
        <ele>111</ele>
        <time>2019-10-28T11:20:12.000Z</time>
      </trkpt>
      <trkpt lat="48.61146" lon="2.17368">
        <ele>111</ele>
        <time>2019-10-28T11:20:13.000Z</time>
      </trkpt>
      <trkpt lat="48.61146" lon="2.17366">
        <ele>111</ele>
        <time>2019-10-28T11:20:14.000Z</time>
      </trkpt>
      <trkpt lat="48.61146" lon="2.17364">
        <ele>111</ele>
        <time>2019-10-28T11:20:15.000Z</time>
      </trkpt>
      <trkpt lat="48.61146" lon="2.17362">
        <ele>111</ele>
        <time>2019-10-28T11:20:16.000Z</time>
      </trkpt>
      <trkpt lat="48.61146" lon="2.1736">
        <ele>111</ele>
        <time>2019-10-28T11:20:17.000Z</time>
      </trkpt>
      <trkpt lat="48.61146" lon="2.17358">
        <ele>111</ele>
        <time>2019-10-28T11:20:18.000Z</time>
      </trkpt>
      <trkpt lat="48.61146" lon="2.17356">
        <ele>111</ele>
        <time>2019-10-28T11:20:19.000Z</time>
      </trkpt>
      <trkpt lat="48.61147" lon="2.17354">
        <ele>111</ele>
        <time>2019-10-28T11:20:20.000Z</time>
      </trkpt>
      <trkpt lat="48.61147" lon="2.17352">
        <ele>111</ele>
        <time>2019-10-28T11:20:21.000Z</time>
      </trkpt>
      <trkpt lat="48.61148" lon="2.1735">
        <ele>111</ele>
        <time>2019-10-28T11:20:22.000Z</time>
      </trkpt>
      <trkpt lat="48.61148" lon="2.17348">
        <ele>111</ele>
        <time>2019-10-28T11:20:23.000Z</time>
      </trkpt>
      <trkpt lat="48.61149" lon="2.17346">
        <ele>111</ele>
        <time>2019-10-28T11:20:24.000Z</time>
      </trkpt>
      <trkpt lat="48.61149" lon="2.17344">
        <ele>111</ele>
        <time>2019-10-28T11:20:25.000Z</time>
      </trkpt>
      <trkpt lat="48.6115" lon="2.17342">
        <ele>111</ele>
        <time>2019-10-28T11:20:26.000Z</time>
      </trkpt>
      <trkpt lat="48.6115" lon="2.1734">
        <ele>111</ele>
        <time>2019-10-28T11:20:27.000Z</time>
      </trkpt>
      <trkpt lat="48.61151" lon="2.17338">
        <ele>111</ele>
        <time>2019-10-28T11:20:28.000Z</time>
      </trkpt>
      <trkpt lat="48.61151" lon="2.17336">
        <ele>111</ele>
        <time>2019-10-28T11:20:29.000Z</time>
      </trkpt>
      <trkpt lat="48.61152" lon="2.17334">
        <ele>111</ele>
        <time>2019-10-28T11:20:30.000Z</time>
      </trkpt>
      <trkpt lat="48.61152" lon="2.17332">
        <ele>111</ele>
        <time>2019-10-28T11:20:31.000Z</time>
      </trkpt>
      <trkpt lat="48.61153" lon="2.17331">
        <ele>111</ele>
        <time>2019-10-28T11:20:32.000Z</time>
      </trkpt>
      <trkpt lat="48.61153" lon="2.1733">
        <ele>110</ele>
        <time>2019-10-28T11:20:33.000Z</time>
      </trkpt>
      <trkpt lat="48.61153" lon="2.17329">
        <ele>110</ele>
        <time>2019-10-28T11:20:34.000Z</time>
      </trkpt>
      <trkpt lat="48.61153" lon="2.17329">
        <ele>110</ele>
        <time>2019-10-28T11:20:35.000Z</time>
      </trkpt>
      <trkpt lat="48.61153" lon="2.17328">
        <ele>110</ele>
        <time>2019-10-28T11:20:36.000Z</time>
      </trkpt>
      <trkpt lat="48.61153" lon="2.17328">
        <ele>110</ele>
        <time>2019-10-28T11:20:37.000Z</time>
      </trkpt>
      <trkpt lat="48.61154" lon="2.17327">
        <ele>110</ele>
        <time>2019-10-28T11:20:38.000Z</time>
      </trkpt>
      <trkpt lat="48.61154" lon="2.17326">
        <ele>110</ele>
        <time>2019-10-28T11:20:39.000Z</time>
      </trkpt>
      <trkpt lat="48.61155" lon="2.17324">
        <ele>110</ele>
        <time>2019-10-28T11:20:40.000Z</time>
      </trkpt>
      <trkpt lat="48.61155" lon="2.17322">
        <ele>110</ele>
        <time>2019-10-28T11:20:41.000Z</time>
      </trkpt>
      <trkpt lat="48.61155" lon="2.1732">
        <ele>110</ele>
        <time>2019-10-28T11:20:42.000Z</time>
      </trkpt>
      <trkpt lat="48.61155" lon="2.17318">
        <ele>110</ele>
        <time>2019-10-28T11:20:43.000Z</time>
      </trkpt>
      <trkpt lat="48.61154" lon="2.17317">
        <ele>110</ele>
        <time>2019-10-28T11:20:44.000Z</time>
      </trkpt>
      <trkpt lat="48.61154" lon="2.17316">
        <ele>110</ele>
        <time>2019-10-28T11:20:45.000Z</time>
      </trkpt>
      <trkpt lat="48.61153" lon="2.17315">
        <ele>110</ele>
        <time>2019-10-28T11:20:46.000Z</time>
      </trkpt>
      <trkpt lat="48.61153" lon="2.17315">
        <ele>110</ele>
        <time>2019-10-28T11:20:47.000Z</time>
      </trkpt>
      <trkpt lat="48.61152" lon="2.17315">
        <ele>111</ele>
        <time>2019-10-28T11:20:48.000Z</time>
      </trkpt>
      <trkpt lat="48.61152" lon="2.17315">
        <ele>111</ele>
        <time>2019-10-28T11:20:49.000Z</time>
      </trkpt>
      <trkpt lat="48.61152" lon="2.17315">
        <ele>110</ele>
        <time>2019-10-28T11:20:50.000Z</time>
      </trkpt>
      <trkpt lat="48.61152" lon="2.17315">
        <ele>110</ele>
        <time>2019-10-28T11:20:51.000Z</time>
      </trkpt>
      <trkpt lat="48.61152" lon="2.17315">
        <ele>110</ele>
        <time>2019-10-28T11:20:52.000Z</time>
      </trkpt>
      <trkpt lat="48.61152" lon="2.17315">
        <ele>110</ele>
        <time>2019-10-28T11:20:53.000Z</time>
      </trkpt>
      <trkpt lat="48.61152" lon="2.17315">
        <ele>110</ele>
        <time>2019-10-28T11:20:54.000Z</time>
      </trkpt>
      <trkpt lat="48.61152" lon="2.17315">
        <ele>110</ele>
        <time>2019-10-28T11:20:55.000Z</time>
      </trkpt>
      <trkpt lat="48.61152" lon="2.17315">
        <ele>110</ele>
        <time>2019-10-28T11:20:56.000Z</time>
      </trkpt>
      <trkpt lat="48.61152" lon="2.17315">
        <ele>110</ele>
        <time>2019-10-28T11:20:57.000Z</time>
      </trkpt>
      <trkpt lat="48.61151" lon="2.17314">
        <ele>110</ele>
        <time>2019-10-28T11:20:58.000Z</time>
      </trkpt>
      <trkpt lat="48.61151" lon="2.17313">
        <ele>110</ele>
        <time>2019-10-28T11:20:59.000Z</time>
      </trkpt>
      <trkpt lat="48.6115" lon="2.17311">
        <ele>110</ele>
        <time>2019-10-28T11:21:00.000Z</time>
      </trkpt>
      <trkpt lat="48.61149" lon="2.17309">
        <ele>110</ele>
        <time>2019-10-28T11:21:01.000Z</time>
      </trkpt>
      <trkpt lat="48.61149" lon="2.17307">
        <ele>110</ele>
        <time>2019-10-28T11:21:02.000Z</time>
      </trkpt>
      <trkpt lat="48.61148" lon="2.17306">
        <ele>110</ele>
        <time>2019-10-28T11:21:03.000Z</time>
      </trkpt>
      <trkpt lat="48.61147" lon="2.17304">
        <ele>110</ele>
        <time>2019-10-28T11:21:04.000Z</time>
      </trkpt>
      <trkpt lat="48.61147" lon="2.17302">
        <ele>110</ele>
        <time>2019-10-28T11:21:05.000Z</time>
      </trkpt>
      <trkpt lat="48.61147" lon="2.173">
        <ele>110</ele>
        <time>2019-10-28T11:21:06.000Z</time>
      </trkpt>
      <trkpt lat="48.61146" lon="2.17298">
        <ele>110</ele>
        <time>2019-10-28T11:21:07.000Z</time>
      </trkpt>
      <trkpt lat="48.61146" lon="2.17296">
        <ele>110</ele>
        <time>2019-10-28T11:21:08.000Z</time>
      </trkpt>
      <trkpt lat="48.61145" lon="2.17294">
        <ele>110</ele>
        <time>2019-10-28T11:21:09.000Z</time>
      </trkpt>
      <trkpt lat="48.61145" lon="2.17293">
        <ele>110</ele>
        <time>2019-10-28T11:21:10.000Z</time>
      </trkpt>
      <trkpt lat="48.61144" lon="2.17291">
        <ele>110</ele>
        <time>2019-10-28T11:21:11.000Z</time>
      </trkpt>
      <trkpt lat="48.61143" lon="2.17289">
        <ele>110</ele>
        <time>2019-10-28T11:21:12.000Z</time>
      </trkpt>
      <trkpt lat="48.61142" lon="2.17287">
        <ele>110</ele>
        <time>2019-10-28T11:21:13.000Z</time>
      </trkpt>
      <trkpt lat="48.61141" lon="2.17285">
        <ele>110</ele>
        <time>2019-10-28T11:21:14.000Z</time>
      </trkpt>
      <trkpt lat="48.6114" lon="2.17284">
        <ele>110</ele>
        <time>2019-10-28T11:21:15.000Z</time>
      </trkpt>
      <trkpt lat="48.6114" lon="2.17282">
        <ele>109</ele>
        <time>2019-10-28T11:21:16.000Z</time>
      </trkpt>
      <trkpt lat="48.61139" lon="2.17281">
        <ele>109</ele>
        <time>2019-10-28T11:21:17.000Z</time>
      </trkpt>
      <trkpt lat="48.61138" lon="2.17279">
        <ele>109</ele>
        <time>2019-10-28T11:21:18.000Z</time>
      </trkpt>
      <trkpt lat="48.61137" lon="2.17278">
        <ele>109</ele>
        <time>2019-10-28T11:21:19.000Z</time>
      </trkpt>
      <trkpt lat="48.61137" lon="2.17276">
        <ele>109</ele>
        <time>2019-10-28T11:21:20.000Z</time>
      </trkpt>
      <trkpt lat="48.61136" lon="2.17274">
        <ele>109</ele>
        <time>2019-10-28T11:21:21.000Z</time>
      </trkpt>
      <trkpt lat="48.61136" lon="2.17272">
        <ele>109</ele>
        <time>2019-10-28T11:21:22.000Z</time>
      </trkpt>
      <trkpt lat="48.61136" lon="2.1727">
        <ele>109</ele>
        <time>2019-10-28T11:21:23.000Z</time>
      </trkpt>
      <trkpt lat="48.61136" lon="2.17268">
        <ele>109</ele>
        <time>2019-10-28T11:21:24.000Z</time>
      </trkpt>
      <trkpt lat="48.61135" lon="2.17266">
        <ele>109</ele>
        <time>2019-10-28T11:21:25.000Z</time>
      </trkpt>
      <trkpt lat="48.61135" lon="2.17264">
        <ele>109</ele>
        <time>2019-10-28T11:21:26.000Z</time>
      </trkpt>
      <trkpt lat="48.61135" lon="2.17262">
        <ele>109</ele>
        <time>2019-10-28T11:21:27.000Z</time>
      </trkpt>
      <trkpt lat="48.61134" lon="2.1726">
        <ele>109</ele>
        <time>2019-10-28T11:21:28.000Z</time>
      </trkpt>
      <trkpt lat="48.61134" lon="2.17258">
        <ele>109</ele>
        <time>2019-10-28T11:21:29.000Z</time>
      </trkpt>
      <trkpt lat="48.61134" lon="2.17256">
        <ele>109</ele>
        <time>2019-10-28T11:21:30.000Z</time>
      </trkpt>
      <trkpt lat="48.61133" lon="2.17254">
        <ele>109</ele>
        <time>2019-10-28T11:21:31.000Z</time>
      </trkpt>
      <trkpt lat="48.61133" lon="2.17252">
        <ele>109</ele>
        <time>2019-10-28T11:21:32.000Z</time>
      </trkpt>
      <trkpt lat="48.61132" lon="2.1725">
        <ele>109</ele>
        <time>2019-10-28T11:21:33.000Z</time>
      </trkpt>
      <trkpt lat="48.61132" lon="2.17249">
        <ele>109</ele>
        <time>2019-10-28T11:21:34.000Z</time>
      </trkpt>
      <trkpt lat="48.61131" lon="2.17247">
        <ele>109</ele>
        <time>2019-10-28T11:21:35.000Z</time>
      </trkpt>
      <trkpt lat="48.61131" lon="2.17245">
        <ele>109</ele>
        <time>2019-10-28T11:21:36.000Z</time>
      </trkpt>
      <trkpt lat="48.6113" lon="2.17243">
        <ele>109</ele>
        <time>2019-10-28T11:21:37.000Z</time>
      </trkpt>
      <trkpt lat="48.61129" lon="2.17242">
        <ele>108</ele>
        <time>2019-10-28T11:21:38.000Z</time>
      </trkpt>
      <trkpt lat="48.61129" lon="2.1724">
        <ele>109</ele>
        <time>2019-10-28T11:21:39.000Z</time>
      </trkpt>
      <trkpt lat="48.61128" lon="2.17238">
        <ele>109</ele>
        <time>2019-10-28T11:21:40.000Z</time>
      </trkpt>
      <trkpt lat="48.61127" lon="2.17236">
        <ele>109</ele>
        <time>2019-10-28T11:21:41.000Z</time>
      </trkpt>
      <trkpt lat="48.61127" lon="2.17235">
        <ele>108</ele>
        <time>2019-10-28T11:21:42.000Z</time>
      </trkpt>
      <trkpt lat="48.61126" lon="2.17233">
        <ele>108</ele>
        <time>2019-10-28T11:21:43.000Z</time>
      </trkpt>
      <trkpt lat="48.61125" lon="2.17231">
        <ele>109</ele>
        <time>2019-10-28T11:21:44.000Z</time>
      </trkpt>
      <trkpt lat="48.61125" lon="2.1723">
        <ele>109</ele>
        <time>2019-10-28T11:21:45.000Z</time>
      </trkpt>
      <trkpt lat="48.61124" lon="2.17229">
        <ele>108</ele>
        <time>2019-10-28T11:21:46.000Z</time>
      </trkpt>
      <trkpt lat="48.61123" lon="2.17228">
        <ele>108</ele>
        <time>2019-10-28T11:21:47.000Z</time>
      </trkpt>
      <trkpt lat="48.61123" lon="2.17227">
        <ele>108</ele>
        <time>2019-10-28T11:21:48.000Z</time>
      </trkpt>
      <trkpt lat="48.61122" lon="2.17226">
        <ele>108</ele>
        <time>2019-10-28T11:21:49.000Z</time>
      </trkpt>
      <trkpt lat="48.61122" lon="2.17226">
        <ele>109</ele>
        <time>2019-10-28T11:21:50.000Z</time>
      </trkpt>
      <trkpt lat="48.61122" lon="2.17226">
        <ele>109</ele>
        <time>2019-10-28T11:21:51.000Z</time>
      </trkpt>
      <trkpt lat="48.61122" lon="2.17226">
        <ele>108</ele>
        <time>2019-10-28T11:21:52.000Z</time>
      </trkpt>
      <trkpt lat="48.61121" lon="2.17225">
        <ele>109</ele>
        <time>2019-10-28T11:21:53.000Z</time>
      </trkpt>
      <trkpt lat="48.61121" lon="2.17224">
        <ele>109</ele>
        <time>2019-10-28T11:21:54.000Z</time>
      </trkpt>
      <trkpt lat="48.6112" lon="2.17223">
        <ele>109</ele>
        <time>2019-10-28T11:21:55.000Z</time>
      </trkpt>
      <trkpt lat="48.61119" lon="2.17222">
        <ele>109</ele>
        <time>2019-10-28T11:21:56.000Z</time>
      </trkpt>
      <trkpt lat="48.61118" lon="2.17221">
        <ele>109</ele>
        <time>2019-10-28T11:21:57.000Z</time>
      </trkpt>
      <trkpt lat="48.61118" lon="2.1722">
        <ele>108</ele>
        <time>2019-10-28T11:21:58.000Z</time>
      </trkpt>
      <trkpt lat="48.61117" lon="2.17218">
        <ele>109</ele>
        <time>2019-10-28T11:21:59.000Z</time>
      </trkpt>
      <trkpt lat="48.61117" lon="2.17217">
        <ele>109</ele>
        <time>2019-10-28T11:22:00.000Z</time>
      </trkpt>
      <trkpt lat="48.61116" lon="2.17215">
        <ele>108</ele>
        <time>2019-10-28T11:22:01.000Z</time>
      </trkpt>
      <trkpt lat="48.61115" lon="2.17214">
        <ele>108</ele>
        <time>2019-10-28T11:22:02.000Z</time>
      </trkpt>
      <trkpt lat="48.61114" lon="2.17213">
        <ele>108</ele>
        <time>2019-10-28T11:22:03.000Z</time>
      </trkpt>
      <trkpt lat="48.61113" lon="2.17212">
        <ele>108</ele>
        <time>2019-10-28T11:22:04.000Z</time>
      </trkpt>
      <trkpt lat="48.61112" lon="2.17211">
        <ele>108</ele>
        <time>2019-10-28T11:22:05.000Z</time>
      </trkpt>
      <trkpt lat="48.61111" lon="2.1721">
        <ele>108</ele>
        <time>2019-10-28T11:22:06.000Z</time>
      </trkpt>
      <trkpt lat="48.61111" lon="2.17208">
        <ele>108</ele>
        <time>2019-10-28T11:22:07.000Z</time>
      </trkpt>
      <trkpt lat="48.6111" lon="2.17207">
        <ele>108</ele>
        <time>2019-10-28T11:22:08.000Z</time>
      </trkpt>
      <trkpt lat="48.61109" lon="2.17205">
        <ele>108</ele>
        <time>2019-10-28T11:22:09.000Z</time>
      </trkpt>
      <trkpt lat="48.61108" lon="2.17204">
        <ele>108</ele>
        <time>2019-10-28T11:22:10.000Z</time>
      </trkpt>
      <trkpt lat="48.61107" lon="2.17202">
        <ele>108</ele>
        <time>2019-10-28T11:22:11.000Z</time>
      </trkpt>
      <trkpt lat="48.61106" lon="2.17201">
        <ele>108</ele>
        <time>2019-10-28T11:22:12.000Z</time>
      </trkpt>
      <trkpt lat="48.61106" lon="2.17199">
        <ele>108</ele>
        <time>2019-10-28T11:22:13.000Z</time>
      </trkpt>
      <trkpt lat="48.61105" lon="2.17198">
        <ele>107</ele>
        <time>2019-10-28T11:22:14.000Z</time>
      </trkpt>
      <trkpt lat="48.61104" lon="2.17196">
        <ele>108</ele>
        <time>2019-10-28T11:22:15.000Z</time>
      </trkpt>
      <trkpt lat="48.61103" lon="2.17195">
        <ele>108</ele>
        <time>2019-10-28T11:22:16.000Z</time>
      </trkpt>
      <trkpt lat="48.61102" lon="2.17194">
        <ele>108</ele>
        <time>2019-10-28T11:22:17.000Z</time>
      </trkpt>
      <trkpt lat="48.61102" lon="2.17192">
        <ele>107</ele>
        <time>2019-10-28T11:22:18.000Z</time>
      </trkpt>
      <trkpt lat="48.61101" lon="2.17191">
        <ele>107</ele>
        <time>2019-10-28T11:22:19.000Z</time>
      </trkpt>
      <trkpt lat="48.611" lon="2.17189">
        <ele>107</ele>
        <time>2019-10-28T11:22:20.000Z</time>
      </trkpt>
      <trkpt lat="48.61099" lon="2.17188">
        <ele>107</ele>
        <time>2019-10-28T11:22:21.000Z</time>
      </trkpt>
      <trkpt lat="48.61098" lon="2.17186">
        <ele>107</ele>
        <time>2019-10-28T11:22:22.000Z</time>
      </trkpt>
      <trkpt lat="48.61097" lon="2.17185">
        <ele>107</ele>
        <time>2019-10-28T11:22:23.000Z</time>
      </trkpt>
      <trkpt lat="48.61096" lon="2.17183">
        <ele>108</ele>
        <time>2019-10-28T11:22:24.000Z</time>
      </trkpt>
      <trkpt lat="48.61095" lon="2.17182">
        <ele>108</ele>
        <time>2019-10-28T11:22:25.000Z</time>
      </trkpt>
      <trkpt lat="48.61094" lon="2.17181">
        <ele>108</ele>
        <time>2019-10-28T11:22:26.000Z</time>
      </trkpt>
      <trkpt lat="48.61093" lon="2.17179">
        <ele>108</ele>
        <time>2019-10-28T11:22:27.000Z</time>
      </trkpt>
      <trkpt lat="48.61092" lon="2.17178">
        <ele>108</ele>
        <time>2019-10-28T11:22:28.000Z</time>
      </trkpt>
      <trkpt lat="48.61091" lon="2.17177">
        <ele>108</ele>
        <time>2019-10-28T11:22:29.000Z</time>
      </trkpt>
      <trkpt lat="48.6109" lon="2.17175">
        <ele>108</ele>
        <time>2019-10-28T11:22:30.000Z</time>
      </trkpt>
      <trkpt lat="48.61089" lon="2.17174">
        <ele>108</ele>
        <time>2019-10-28T11:22:31.000Z</time>
      </trkpt>
      <trkpt lat="48.61088" lon="2.17173">
        <ele>108</ele>
        <time>2019-10-28T11:22:32.000Z</time>
      </trkpt>
      <trkpt lat="48.61087" lon="2.17171">
        <ele>108</ele>
        <time>2019-10-28T11:22:33.000Z</time>
      </trkpt>
      <trkpt lat="48.61086" lon="2.1717">
        <ele>108</ele>
        <time>2019-10-28T11:22:34.000Z</time>
      </trkpt>
      <trkpt lat="48.61085" lon="2.17169">
        <ele>107</ele>
        <time>2019-10-28T11:22:35.000Z</time>
      </trkpt>
      <trkpt lat="48.61084" lon="2.17168">
        <ele>108</ele>
        <time>2019-10-28T11:22:36.000Z</time>
      </trkpt>
      <trkpt lat="48.61083" lon="2.17167">
        <ele>108</ele>
        <time>2019-10-28T11:22:37.000Z</time>
      </trkpt>
      <trkpt lat="48.61082" lon="2.17166">
        <ele>108</ele>
        <time>2019-10-28T11:22:38.000Z</time>
      </trkpt>
      <trkpt lat="48.61081" lon="2.17164">
        <ele>108</ele>
        <time>2019-10-28T11:22:39.000Z</time>
      </trkpt>
      <trkpt lat="48.6108" lon="2.17163">
        <ele>108</ele>
        <time>2019-10-28T11:22:40.000Z</time>
      </trkpt>
      <trkpt lat="48.61079" lon="2.17162">
        <ele>108</ele>
        <time>2019-10-28T11:22:41.000Z</time>
      </trkpt>
      <trkpt lat="48.61078" lon="2.1716">
        <ele>108</ele>
        <time>2019-10-28T11:22:42.000Z</time>
      </trkpt>
      <trkpt lat="48.61077" lon="2.17159">
        <ele>108</ele>
        <time>2019-10-28T11:22:43.000Z</time>
      </trkpt>
      <trkpt lat="48.61076" lon="2.17158">
        <ele>108</ele>
        <time>2019-10-28T11:22:44.000Z</time>
      </trkpt>
      <trkpt lat="48.61075" lon="2.17157">
        <ele>108</ele>
        <time>2019-10-28T11:22:45.000Z</time>
      </trkpt>
      <trkpt lat="48.61074" lon="2.17156">
        <ele>108</ele>
        <time>2019-10-28T11:22:46.000Z</time>
      </trkpt>
      <trkpt lat="48.61074" lon="2.17156">
        <ele>108</ele>
        <time>2019-10-28T11:22:47.000Z</time>
      </trkpt>
      <trkpt lat="48.61073" lon="2.17156">
        <ele>108</ele>
        <time>2019-10-28T11:22:48.000Z</time>
      </trkpt>
      <trkpt lat="48.61073" lon="2.17156">
        <ele>108</ele>
        <time>2019-10-28T11:22:49.000Z</time>
      </trkpt>
      <trkpt lat="48.61073" lon="2.17156">
        <ele>108</ele>
        <time>2019-10-28T11:22:50.000Z</time>
      </trkpt>
      <trkpt lat="48.61073" lon="2.17156">
        <ele>108</ele>
        <time>2019-10-28T11:22:51.000Z</time>
      </trkpt>
      <trkpt lat="48.61073" lon="2.17156">
        <ele>108</ele>
        <time>2019-10-28T11:22:52.000Z</time>
      </trkpt>
      <trkpt lat="48.61073" lon="2.17156">
        <ele>108</ele>
        <time>2019-10-28T11:22:53.000Z</time>
      </trkpt>
      <trkpt lat="48.61073" lon="2.17156">
        <ele>108</ele>
        <time>2019-10-28T11:22:54.000Z</time>
      </trkpt>
      <trkpt lat="48.61073" lon="2.17156">
        <ele>108</ele>
        <time>2019-10-28T11:22:55.000Z</time>
      </trkpt>
      <trkpt lat="48.61072" lon="2.17155">
        <ele>108</ele>
        <time>2019-10-28T11:22:56.000Z</time>
      </trkpt>
      <trkpt lat="48.61072" lon="2.17155">
        <ele>108</ele>
        <time>2019-10-28T11:22:57.000Z</time>
      </trkpt>
      <trkpt lat="48.61071" lon="2.17153">
        <ele>108</ele>
        <time>2019-10-28T11:22:58.000Z</time>
      </trkpt>
      <trkpt lat="48.6107" lon="2.17152">
        <ele>108</ele>
        <time>2019-10-28T11:22:59.000Z</time>
      </trkpt>
      <trkpt lat="48.61069" lon="2.17151">
        <ele>108</ele>
        <time>2019-10-28T11:23:00.000Z</time>
      </trkpt>
      <trkpt lat="48.61068" lon="2.1715">
        <ele>108</ele>
        <time>2019-10-28T11:23:01.000Z</time>
      </trkpt>
      <trkpt lat="48.61067" lon="2.17149">
        <ele>108</ele>
        <time>2019-10-28T11:23:02.000Z</time>
      </trkpt>
      <trkpt lat="48.61066" lon="2.17149">
        <ele>108</ele>
        <time>2019-10-28T11:23:03.000Z</time>
      </trkpt>
      <trkpt lat="48.61065" lon="2.17148">
        <ele>108</ele>
        <time>2019-10-28T11:23:04.000Z</time>
      </trkpt>
      <trkpt lat="48.61064" lon="2.17148">
        <ele>108</ele>
        <time>2019-10-28T11:23:05.000Z</time>
      </trkpt>
      <trkpt lat="48.61063" lon="2.17148">
        <ele>108</ele>
        <time>2019-10-28T11:23:06.000Z</time>
      </trkpt>
      <trkpt lat="48.61062" lon="2.17148">
        <ele>108</ele>
        <time>2019-10-28T11:23:07.000Z</time>
      </trkpt>
      <trkpt lat="48.61061" lon="2.17147">
        <ele>108</ele>
        <time>2019-10-28T11:23:08.000Z</time>
      </trkpt>
      <trkpt lat="48.6106" lon="2.17146">
        <ele>108</ele>
        <time>2019-10-28T11:23:09.000Z</time>
      </trkpt>
      <trkpt lat="48.61059" lon="2.17145">
        <ele>108</ele>
        <time>2019-10-28T11:23:10.000Z</time>
      </trkpt>
      <trkpt lat="48.61058" lon="2.17144">
        <ele>108</ele>
        <time>2019-10-28T11:23:11.000Z</time>
      </trkpt>
      <trkpt lat="48.61057" lon="2.17143">
        <ele>108</ele>
        <time>2019-10-28T11:23:12.000Z</time>
      </trkpt>
      <trkpt lat="48.61057" lon="2.17142">
        <ele>108</ele>
        <time>2019-10-28T11:23:13.000Z</time>
      </trkpt>
      <trkpt lat="48.61056" lon="2.17141">
        <ele>108</ele>
        <time>2019-10-28T11:23:14.000Z</time>
      </trkpt>
      <trkpt lat="48.61055" lon="2.1714">
        <ele>108</ele>
        <time>2019-10-28T11:23:15.000Z</time>
      </trkpt>
      <trkpt lat="48.61054" lon="2.17139">
        <ele>108</ele>
        <time>2019-10-28T11:23:16.000Z</time>
      </trkpt>
      <trkpt lat="48.61053" lon="2.17139">
        <ele>108</ele>
        <time>2019-10-28T11:23:17.000Z</time>
      </trkpt>
      <trkpt lat="48.61052" lon="2.17138">
        <ele>108</ele>
        <time>2019-10-28T11:23:18.000Z</time>
      </trkpt>
      <trkpt lat="48.61051" lon="2.17137">
        <ele>108</ele>
        <time>2019-10-28T11:23:19.000Z</time>
      </trkpt>
      <trkpt lat="48.6105" lon="2.17137">
        <ele>108</ele>
        <time>2019-10-28T11:23:20.000Z</time>
      </trkpt>
      <trkpt lat="48.61048" lon="2.17136">
        <ele>108</ele>
        <time>2019-10-28T11:23:21.000Z</time>
      </trkpt>
      <trkpt lat="48.61047" lon="2.17136">
        <ele>108</ele>
        <time>2019-10-28T11:23:22.000Z</time>
      </trkpt>
      <trkpt lat="48.61046" lon="2.17135">
        <ele>107</ele>
        <time>2019-10-28T11:23:23.000Z</time>
      </trkpt>
      <trkpt lat="48.61045" lon="2.17135">
        <ele>107</ele>
        <time>2019-10-28T11:23:24.000Z</time>
      </trkpt>
      <trkpt lat="48.61043" lon="2.17135">
        <ele>107</ele>
        <time>2019-10-28T11:23:25.000Z</time>
      </trkpt>
      <trkpt lat="48.61042" lon="2.17135">
        <ele>107</ele>
        <time>2019-10-28T11:23:26.000Z</time>
      </trkpt>
      <trkpt lat="48.61041" lon="2.17135">
        <ele>107</ele>
        <time>2019-10-28T11:23:27.000Z</time>
      </trkpt>
      <trkpt lat="48.6104" lon="2.17136">
        <ele>107</ele>
        <time>2019-10-28T11:23:28.000Z</time>
      </trkpt>
      <trkpt lat="48.61039" lon="2.17136">
        <ele>107</ele>
        <time>2019-10-28T11:23:29.000Z</time>
      </trkpt>
      <trkpt lat="48.61038" lon="2.17137">
        <ele>107</ele>
        <time>2019-10-28T11:23:30.000Z</time>
      </trkpt>
      <trkpt lat="48.61037" lon="2.17138">
        <ele>107</ele>
        <time>2019-10-28T11:23:31.000Z</time>
      </trkpt>
      <trkpt lat="48.61036" lon="2.17139">
        <ele>107</ele>
        <time>2019-10-28T11:23:32.000Z</time>
      </trkpt>
      <trkpt lat="48.61036" lon="2.1714">
        <ele>107</ele>
        <time>2019-10-28T11:23:33.000Z</time>
      </trkpt>
      <trkpt lat="48.61035" lon="2.17141">
        <ele>107</ele>
        <time>2019-10-28T11:23:34.000Z</time>
      </trkpt>
      <trkpt lat="48.61034" lon="2.17142">
        <ele>107</ele>
        <time>2019-10-28T11:23:35.000Z</time>
      </trkpt>
      <trkpt lat="48.61033" lon="2.17143">
        <ele>107</ele>
        <time>2019-10-28T11:23:36.000Z</time>
      </trkpt>
      <trkpt lat="48.61033" lon="2.17144">
        <ele>107</ele>
        <time>2019-10-28T11:23:37.000Z</time>
      </trkpt>
      <trkpt lat="48.61032" lon="2.17146">
        <ele>107</ele>
        <time>2019-10-28T11:23:38.000Z</time>
      </trkpt>
      <trkpt lat="48.61031" lon="2.17147">
        <ele>107</ele>
        <time>2019-10-28T11:23:39.000Z</time>
      </trkpt>
      <trkpt lat="48.6103" lon="2.17148">
        <ele>107</ele>
        <time>2019-10-28T11:23:40.000Z</time>
      </trkpt>
      <trkpt lat="48.6103" lon="2.1715">
        <ele>108</ele>
        <time>2019-10-28T11:23:41.000Z</time>
      </trkpt>
      <trkpt lat="48.61029" lon="2.17151">
        <ele>108</ele>
        <time>2019-10-28T11:23:42.000Z</time>
      </trkpt>
      <trkpt lat="48.61028" lon="2.17152">
        <ele>108</ele>
        <time>2019-10-28T11:23:43.000Z</time>
      </trkpt>
      <trkpt lat="48.61027" lon="2.17154">
        <ele>108</ele>
        <time>2019-10-28T11:23:44.000Z</time>
      </trkpt>
      <trkpt lat="48.61026" lon="2.17155">
        <ele>107</ele>
        <time>2019-10-28T11:23:45.000Z</time>
      </trkpt>
      <trkpt lat="48.61026" lon="2.17156">
        <ele>107</ele>
        <time>2019-10-28T11:23:46.000Z</time>
      </trkpt>
      <trkpt lat="48.61025" lon="2.17158">
        <ele>107</ele>
        <time>2019-10-28T11:23:47.000Z</time>
      </trkpt>
      <trkpt lat="48.61024" lon="2.17159">
        <ele>107</ele>
        <time>2019-10-28T11:23:48.000Z</time>
      </trkpt>
      <trkpt lat="48.61023" lon="2.1716">
        <ele>108</ele>
        <time>2019-10-28T11:23:49.000Z</time>
      </trkpt>
      <trkpt lat="48.61023" lon="2.17162">
        <ele>108</ele>
        <time>2019-10-28T11:23:50.000Z</time>
      </trkpt>
      <trkpt lat="48.61022" lon="2.17163">
        <ele>108</ele>
        <time>2019-10-28T11:23:51.000Z</time>
      </trkpt>
      <trkpt lat="48.61021" lon="2.17165">
        <ele>107</ele>
        <time>2019-10-28T11:23:52.000Z</time>
      </trkpt>
      <trkpt lat="48.6102" lon="2.17166">
        <ele>107</ele>
        <time>2019-10-28T11:23:53.000Z</time>
      </trkpt>
      <trkpt lat="48.61019" lon="2.17168">
        <ele>107</ele>
        <time>2019-10-28T11:23:54.000Z</time>
      </trkpt>
      <trkpt lat="48.61018" lon="2.17169">
        <ele>107</ele>
        <time>2019-10-28T11:23:55.000Z</time>
      </trkpt>
      <trkpt lat="48.61018" lon="2.1717">
        <ele>107</ele>
        <time>2019-10-28T11:23:56.000Z</time>
      </trkpt>
      <trkpt lat="48.61017" lon="2.17172">
        <ele>107</ele>
        <time>2019-10-28T11:23:57.000Z</time>
      </trkpt>
      <trkpt lat="48.61016" lon="2.17173">
        <ele>107</ele>
        <time>2019-10-28T11:23:58.000Z</time>
      </trkpt>
      <trkpt lat="48.61015" lon="2.17174">
        <ele>107</ele>
        <time>2019-10-28T11:23:59.000Z</time>
      </trkpt>
      <trkpt lat="48.61014" lon="2.17176">
        <ele>107</ele>
        <time>2019-10-28T11:24:00.000Z</time>
      </trkpt>
      <trkpt lat="48.61013" lon="2.17177">
        <ele>107</ele>
        <time>2019-10-28T11:24:01.000Z</time>
      </trkpt>
      <trkpt lat="48.61013" lon="2.17179">
        <ele>107</ele>
        <time>2019-10-28T11:24:02.000Z</time>
      </trkpt>
      <trkpt lat="48.61012" lon="2.1718">
        <ele>106</ele>
        <time>2019-10-28T11:24:03.000Z</time>
      </trkpt>
      <trkpt lat="48.61011" lon="2.17181">
        <ele>106</ele>
        <time>2019-10-28T11:24:04.000Z</time>
      </trkpt>
      <trkpt lat="48.6101" lon="2.17182">
        <ele>107</ele>
        <time>2019-10-28T11:24:05.000Z</time>
      </trkpt>
      <trkpt lat="48.61009" lon="2.17183">
        <ele>107</ele>
        <time>2019-10-28T11:24:06.000Z</time>
      </trkpt>
      <trkpt lat="48.61009" lon="2.17184">
        <ele>107</ele>
        <time>2019-10-28T11:24:07.000Z</time>
      </trkpt>
      <trkpt lat="48.61008" lon="2.17185">
        <ele>108</ele>
        <time>2019-10-28T11:24:08.000Z</time>
      </trkpt>
      <trkpt lat="48.61007" lon="2.17187">
        <ele>108</ele>
        <time>2019-10-28T11:24:09.000Z</time>
      </trkpt>
      <trkpt lat="48.61006" lon="2.17188">
        <ele>107</ele>
        <time>2019-10-28T11:24:10.000Z</time>
      </trkpt>
      <trkpt lat="48.61006" lon="2.17189">
        <ele>107</ele>
        <time>2019-10-28T11:24:11.000Z</time>
      </trkpt>
      <trkpt lat="48.61005" lon="2.17191">
        <ele>108</ele>
        <time>2019-10-28T11:24:12.000Z</time>
      </trkpt>
      <trkpt lat="48.61003" lon="2.17192">
        <ele>107</ele>
        <time>2019-10-28T11:24:13.000Z</time>
      </trkpt>
      <trkpt lat="48.61002" lon="2.17192">
        <ele>107</ele>
        <time>2019-10-28T11:24:14.000Z</time>
      </trkpt>
      <trkpt lat="48.61001" lon="2.17193">
        <ele>108</ele>
        <time>2019-10-28T11:24:15.000Z</time>
      </trkpt>
      <trkpt lat="48.61" lon="2.17192">
        <ele>108</ele>
        <time>2019-10-28T11:24:16.000Z</time>
      </trkpt>
      <trkpt lat="48.60998" lon="2.17192">
        <ele>108</ele>
        <time>2019-10-28T11:24:17.000Z</time>
      </trkpt>
      <trkpt lat="48.60997" lon="2.17192">
        <ele>108</ele>
        <time>2019-10-28T11:24:18.000Z</time>
      </trkpt>
      <trkpt lat="48.60996" lon="2.17191">
        <ele>108</ele>
        <time>2019-10-28T11:24:19.000Z</time>
      </trkpt>
      <trkpt lat="48.60995" lon="2.1719">
        <ele>109</ele>
        <time>2019-10-28T11:24:20.000Z</time>
      </trkpt>
      <trkpt lat="48.60993" lon="2.1719">
        <ele>109</ele>
        <time>2019-10-28T11:24:21.000Z</time>
      </trkpt>
      <trkpt lat="48.60992" lon="2.17189">
        <ele>109</ele>
        <time>2019-10-28T11:24:22.000Z</time>
      </trkpt>
      <trkpt lat="48.60991" lon="2.17188">
        <ele>109</ele>
        <time>2019-10-28T11:24:23.000Z</time>
      </trkpt>
      <trkpt lat="48.6099" lon="2.17187">
        <ele>109</ele>
        <time>2019-10-28T11:24:24.000Z</time>
      </trkpt>
      <trkpt lat="48.60989" lon="2.17186">
        <ele>109</ele>
        <time>2019-10-28T11:24:25.000Z</time>
      </trkpt>
      <trkpt lat="48.60988" lon="2.17185">
        <ele>109</ele>
        <time>2019-10-28T11:24:26.000Z</time>
      </trkpt>
      <trkpt lat="48.60987" lon="2.17184">
        <ele>109</ele>
        <time>2019-10-28T11:24:27.000Z</time>
      </trkpt>
      <trkpt lat="48.60986" lon="2.17183">
        <ele>109</ele>
        <time>2019-10-28T11:24:28.000Z</time>
      </trkpt>
      <trkpt lat="48.60985" lon="2.17183">
        <ele>109</ele>
        <time>2019-10-28T11:24:29.000Z</time>
      </trkpt>
      <trkpt lat="48.60983" lon="2.17182">
        <ele>108</ele>
        <time>2019-10-28T11:24:30.000Z</time>
      </trkpt>
      <trkpt lat="48.60982" lon="2.17181">
        <ele>108</ele>
        <time>2019-10-28T11:24:31.000Z</time>
      </trkpt>
      <trkpt lat="48.60981" lon="2.1718">
        <ele>108</ele>
        <time>2019-10-28T11:24:32.000Z</time>
      </trkpt>
      <trkpt lat="48.60981" lon="2.17179">
        <ele>108</ele>
        <time>2019-10-28T11:24:33.000Z</time>
      </trkpt>
      <trkpt lat="48.6098" lon="2.17178">
        <ele>108</ele>
        <time>2019-10-28T11:24:34.000Z</time>
      </trkpt>
      <trkpt lat="48.60979" lon="2.17177">
        <ele>108</ele>
        <time>2019-10-28T11:24:35.000Z</time>
      </trkpt>
      <trkpt lat="48.60978" lon="2.17176">
        <ele>108</ele>
        <time>2019-10-28T11:24:36.000Z</time>
      </trkpt>
      <trkpt lat="48.60977" lon="2.17175">
        <ele>107</ele>
        <time>2019-10-28T11:24:37.000Z</time>
      </trkpt>
      <trkpt lat="48.60977" lon="2.17174">
        <ele>107</ele>
        <time>2019-10-28T11:24:38.000Z</time>
      </trkpt>
      <trkpt lat="48.60976" lon="2.17174">
        <ele>107</ele>
        <time>2019-10-28T11:24:39.000Z</time>
      </trkpt>
      <trkpt lat="48.60975" lon="2.17173">
        <ele>107</ele>
        <time>2019-10-28T11:24:40.000Z</time>
      </trkpt>
      <trkpt lat="48.60974" lon="2.17172">
        <ele>107</ele>
        <time>2019-10-28T11:24:41.000Z</time>
      </trkpt>
      <trkpt lat="48.60973" lon="2.17171">
        <ele>108</ele>
        <time>2019-10-28T11:24:42.000Z</time>
      </trkpt>
      <trkpt lat="48.60972" lon="2.1717">
        <ele>108</ele>
        <time>2019-10-28T11:24:43.000Z</time>
      </trkpt>
      <trkpt lat="48.60971" lon="2.17169">
        <ele>108</ele>
        <time>2019-10-28T11:24:44.000Z</time>
      </trkpt>
      <trkpt lat="48.6097" lon="2.17168">
        <ele>108</ele>
        <time>2019-10-28T11:24:45.000Z</time>
      </trkpt>
      <trkpt lat="48.60969" lon="2.17168">
        <ele>108</ele>
        <time>2019-10-28T11:24:46.000Z</time>
      </trkpt>
      <trkpt lat="48.60968" lon="2.17167">
        <ele>107</ele>
        <time>2019-10-28T11:24:47.000Z</time>
      </trkpt>
      <trkpt lat="48.60967" lon="2.17166">
        <ele>107</ele>
        <time>2019-10-28T11:24:48.000Z</time>
      </trkpt>
      <trkpt lat="48.60966" lon="2.17165">
        <ele>108</ele>
        <time>2019-10-28T11:24:49.000Z</time>
      </trkpt>
      <trkpt lat="48.60965" lon="2.17164">
        <ele>108</ele>
        <time>2019-10-28T11:24:50.000Z</time>
      </trkpt>
      <trkpt lat="48.60964" lon="2.17163">
        <ele>108</ele>
        <time>2019-10-28T11:24:51.000Z</time>
      </trkpt>
      <trkpt lat="48.60963" lon="2.17161">
        <ele>108</ele>
        <time>2019-10-28T11:24:52.000Z</time>
      </trkpt>
      <trkpt lat="48.60962" lon="2.1716">
        <ele>108</ele>
        <time>2019-10-28T11:24:53.000Z</time>
      </trkpt>
      <trkpt lat="48.60961" lon="2.17159">
        <ele>108</ele>
        <time>2019-10-28T11:24:54.000Z</time>
      </trkpt>
      <trkpt lat="48.6096" lon="2.17158">
        <ele>108</ele>
        <time>2019-10-28T11:24:55.000Z</time>
      </trkpt>
      <trkpt lat="48.60958" lon="2.17157">
        <ele>108</ele>
        <time>2019-10-28T11:24:56.000Z</time>
      </trkpt>
      <trkpt lat="48.60957" lon="2.17157">
        <ele>108</ele>
        <time>2019-10-28T11:24:57.000Z</time>
      </trkpt>
      <trkpt lat="48.60956" lon="2.17155">
        <ele>109</ele>
        <time>2019-10-28T11:24:58.000Z</time>
      </trkpt>
      <trkpt lat="48.60955" lon="2.17154">
        <ele>109</ele>
        <time>2019-10-28T11:24:59.000Z</time>
      </trkpt>
      <trkpt lat="48.60954" lon="2.17154">
        <ele>109</ele>
        <time>2019-10-28T11:25:00.000Z</time>
      </trkpt>
      <trkpt lat="48.60952" lon="2.17153">
        <ele>109</ele>
        <time>2019-10-28T11:25:01.000Z</time>
      </trkpt>
      <trkpt lat="48.60951" lon="2.17152">
        <ele>110</ele>
        <time>2019-10-28T11:25:02.000Z</time>
      </trkpt>
      <trkpt lat="48.60949" lon="2.17151">
        <ele>110</ele>
        <time>2019-10-28T11:25:03.000Z</time>
      </trkpt>
      <trkpt lat="48.60948" lon="2.17151">
        <ele>110</ele>
        <time>2019-10-28T11:25:04.000Z</time>
      </trkpt>
      <trkpt lat="48.60947" lon="2.1715">
        <ele>110</ele>
        <time>2019-10-28T11:25:05.000Z</time>
      </trkpt>
      <trkpt lat="48.60946" lon="2.17149">
        <ele>110</ele>
        <time>2019-10-28T11:25:06.000Z</time>
      </trkpt>
      <trkpt lat="48.60944" lon="2.17148">
        <ele>110</ele>
        <time>2019-10-28T11:25:07.000Z</time>
      </trkpt>
      <trkpt lat="48.60943" lon="2.17148">
        <ele>110</ele>
        <time>2019-10-28T11:25:08.000Z</time>
      </trkpt>
      <trkpt lat="48.60942" lon="2.17148">
        <ele>110</ele>
        <time>2019-10-28T11:25:09.000Z</time>
      </trkpt>
      <trkpt lat="48.60941" lon="2.17147">
        <ele>110</ele>
        <time>2019-10-28T11:25:10.000Z</time>
      </trkpt>
      <trkpt lat="48.60939" lon="2.17146">
        <ele>110</ele>
        <time>2019-10-28T11:25:11.000Z</time>
      </trkpt>
      <trkpt lat="48.60938" lon="2.17145">
        <ele>110</ele>
        <time>2019-10-28T11:25:12.000Z</time>
      </trkpt>
      <trkpt lat="48.60937" lon="2.17145">
        <ele>110</ele>
        <time>2019-10-28T11:25:13.000Z</time>
      </trkpt>
      <trkpt lat="48.60936" lon="2.17144">
        <ele>110</ele>
        <time>2019-10-28T11:25:14.000Z</time>
      </trkpt>
      <trkpt lat="48.60935" lon="2.17143">
        <ele>110</ele>
        <time>2019-10-28T11:25:15.000Z</time>
      </trkpt>
      <trkpt lat="48.60933" lon="2.17142">
        <ele>110</ele>
        <time>2019-10-28T11:25:16.000Z</time>
      </trkpt>
      <trkpt lat="48.60932" lon="2.17141">
        <ele>110</ele>
        <time>2019-10-28T11:25:17.000Z</time>
      </trkpt>
      <trkpt lat="48.60931" lon="2.1714">
        <ele>110</ele>
        <time>2019-10-28T11:25:18.000Z</time>
      </trkpt>
      <trkpt lat="48.6093" lon="2.1714">
        <ele>111</ele>
        <time>2019-10-28T11:25:19.000Z</time>
      </trkpt>
      <trkpt lat="48.60928" lon="2.17139">
        <ele>111</ele>
        <time>2019-10-28T11:25:20.000Z</time>
      </trkpt>
      <trkpt lat="48.60927" lon="2.17138">
        <ele>111</ele>
        <time>2019-10-28T11:25:21.000Z</time>
      </trkpt>
      <trkpt lat="48.60926" lon="2.17138">
        <ele>111</ele>
        <time>2019-10-28T11:25:22.000Z</time>
      </trkpt>
      <trkpt lat="48.60925" lon="2.17137">
        <ele>111</ele>
        <time>2019-10-28T11:25:23.000Z</time>
      </trkpt>
      <trkpt lat="48.60923" lon="2.17136">
        <ele>111</ele>
        <time>2019-10-28T11:25:24.000Z</time>
      </trkpt>
      <trkpt lat="48.60922" lon="2.17136">
        <ele>111</ele>
        <time>2019-10-28T11:25:25.000Z</time>
      </trkpt>
      <trkpt lat="48.60921" lon="2.17135">
        <ele>111</ele>
        <time>2019-10-28T11:25:26.000Z</time>
      </trkpt>
      <trkpt lat="48.6092" lon="2.17135">
        <ele>111</ele>
        <time>2019-10-28T11:25:27.000Z</time>
      </trkpt>
      <trkpt lat="48.60919" lon="2.17134">
        <ele>111</ele>
        <time>2019-10-28T11:25:28.000Z</time>
      </trkpt>
      <trkpt lat="48.60918" lon="2.17133">
        <ele>111</ele>
        <time>2019-10-28T11:25:29.000Z</time>
      </trkpt>
      <trkpt lat="48.60916" lon="2.17132">
        <ele>111</ele>
        <time>2019-10-28T11:25:30.000Z</time>
      </trkpt>
      <trkpt lat="48.60915" lon="2.17131">
        <ele>111</ele>
        <time>2019-10-28T11:25:31.000Z</time>
      </trkpt>
      <trkpt lat="48.60914" lon="2.1713">
        <ele>111</ele>
        <time>2019-10-28T11:25:32.000Z</time>
      </trkpt>
      <trkpt lat="48.60913" lon="2.17129">
        <ele>111</ele>
        <time>2019-10-28T11:25:33.000Z</time>
      </trkpt>
      <trkpt lat="48.60912" lon="2.17128">
        <ele>111</ele>
        <time>2019-10-28T11:25:34.000Z</time>
      </trkpt>
      <trkpt lat="48.60911" lon="2.17127">
        <ele>111</ele>
        <time>2019-10-28T11:25:35.000Z</time>
      </trkpt>
      <trkpt lat="48.60909" lon="2.17126">
        <ele>111</ele>
        <time>2019-10-28T11:25:36.000Z</time>
      </trkpt>
      <trkpt lat="48.60908" lon="2.17125">
        <ele>111</ele>
        <time>2019-10-28T11:25:37.000Z</time>
      </trkpt>
      <trkpt lat="48.60907" lon="2.17124">
        <ele>111</ele>
        <time>2019-10-28T11:25:38.000Z</time>
      </trkpt>
      <trkpt lat="48.60906" lon="2.17123">
        <ele>111</ele>
        <time>2019-10-28T11:25:39.000Z</time>
      </trkpt>
      <trkpt lat="48.60904" lon="2.17122">
        <ele>111</ele>
        <time>2019-10-28T11:25:40.000Z</time>
      </trkpt>
      <trkpt lat="48.60903" lon="2.17121">
        <ele>111</ele>
        <time>2019-10-28T11:25:41.000Z</time>
      </trkpt>
      <trkpt lat="48.60902" lon="2.1712">
        <ele>111</ele>
        <time>2019-10-28T11:25:42.000Z</time>
      </trkpt>
      <trkpt lat="48.60901" lon="2.17119">
        <ele>111</ele>
        <time>2019-10-28T11:25:43.000Z</time>
      </trkpt>
      <trkpt lat="48.60899" lon="2.17118">
        <ele>111</ele>
        <time>2019-10-28T11:25:44.000Z</time>
      </trkpt>
      <trkpt lat="48.60898" lon="2.17117">
        <ele>111</ele>
        <time>2019-10-28T11:25:45.000Z</time>
      </trkpt>
      <trkpt lat="48.60897" lon="2.17115">
        <ele>110</ele>
        <time>2019-10-28T11:25:46.000Z</time>
      </trkpt>
      <trkpt lat="48.60896" lon="2.17114">
        <ele>110</ele>
        <time>2019-10-28T11:25:47.000Z</time>
      </trkpt>
      <trkpt lat="48.60895" lon="2.17113">
        <ele>110</ele>
        <time>2019-10-28T11:25:48.000Z</time>
      </trkpt>
      <trkpt lat="48.60894" lon="2.17111">
        <ele>110</ele>
        <time>2019-10-28T11:25:49.000Z</time>
      </trkpt>
      <trkpt lat="48.60893" lon="2.1711">
        <ele>110</ele>
        <time>2019-10-28T11:25:50.000Z</time>
      </trkpt>
      <trkpt lat="48.60892" lon="2.17109">
        <ele>110</ele>
        <time>2019-10-28T11:25:51.000Z</time>
      </trkpt>
      <trkpt lat="48.60891" lon="2.17107">
        <ele>110</ele>
        <time>2019-10-28T11:25:52.000Z</time>
      </trkpt>
      <trkpt lat="48.6089" lon="2.17106">
        <ele>110</ele>
        <time>2019-10-28T11:25:53.000Z</time>
      </trkpt>
      <trkpt lat="48.60889" lon="2.17105">
        <ele>110</ele>
        <time>2019-10-28T11:25:54.000Z</time>
      </trkpt>
      <trkpt lat="48.60888" lon="2.17103">
        <ele>110</ele>
        <time>2019-10-28T11:25:55.000Z</time>
      </trkpt>
      <trkpt lat="48.60887" lon="2.17102">
        <ele>110</ele>
        <time>2019-10-28T11:25:56.000Z</time>
      </trkpt>
      <trkpt lat="48.60886" lon="2.17101">
        <ele>110</ele>
        <time>2019-10-28T11:25:57.000Z</time>
      </trkpt>
      <trkpt lat="48.60885" lon="2.171">
        <ele>110</ele>
        <time>2019-10-28T11:25:58.000Z</time>
      </trkpt>
      <trkpt lat="48.60883" lon="2.17098">
        <ele>110</ele>
        <time>2019-10-28T11:25:59.000Z</time>
      </trkpt>
      <trkpt lat="48.60882" lon="2.17097">
        <ele>110</ele>
        <time>2019-10-28T11:26:00.000Z</time>
      </trkpt>
      <trkpt lat="48.60881" lon="2.17096">
        <ele>110</ele>
        <time>2019-10-28T11:26:01.000Z</time>
      </trkpt>
      <trkpt lat="48.60881" lon="2.17094">
        <ele>110</ele>
        <time>2019-10-28T11:26:02.000Z</time>
      </trkpt>
      <trkpt lat="48.6088" lon="2.17093">
        <ele>110</ele>
        <time>2019-10-28T11:26:03.000Z</time>
      </trkpt>
      <trkpt lat="48.60879" lon="2.17091">
        <ele>110</ele>
        <time>2019-10-28T11:26:04.000Z</time>
      </trkpt>
      <trkpt lat="48.60878" lon="2.1709">
        <ele>110</ele>
        <time>2019-10-28T11:26:05.000Z</time>
      </trkpt>
      <trkpt lat="48.60877" lon="2.17089">
        <ele>109</ele>
        <time>2019-10-28T11:26:06.000Z</time>
      </trkpt>
      <trkpt lat="48.60875" lon="2.17087">
        <ele>109</ele>
        <time>2019-10-28T11:26:07.000Z</time>
      </trkpt>
      <trkpt lat="48.60874" lon="2.17086">
        <ele>109</ele>
        <time>2019-10-28T11:26:08.000Z</time>
      </trkpt>
      <trkpt lat="48.60873" lon="2.17084">
        <ele>109</ele>
        <time>2019-10-28T11:26:09.000Z</time>
      </trkpt>
      <trkpt lat="48.60873" lon="2.17083">
        <ele>109</ele>
        <time>2019-10-28T11:26:10.000Z</time>
      </trkpt>
      <trkpt lat="48.60872" lon="2.17081">
        <ele>109</ele>
        <time>2019-10-28T11:26:11.000Z</time>
      </trkpt>
      <trkpt lat="48.60871" lon="2.1708">
        <ele>109</ele>
        <time>2019-10-28T11:26:12.000Z</time>
      </trkpt>
      <trkpt lat="48.6087" lon="2.17078">
        <ele>109</ele>
        <time>2019-10-28T11:26:13.000Z</time>
      </trkpt>
      <trkpt lat="48.60869" lon="2.17077">
        <ele>109</ele>
        <time>2019-10-28T11:26:14.000Z</time>
      </trkpt>
      <trkpt lat="48.60869" lon="2.17075">
        <ele>108</ele>
        <time>2019-10-28T11:26:15.000Z</time>
      </trkpt>
      <trkpt lat="48.60868" lon="2.17074">
        <ele>109</ele>
        <time>2019-10-28T11:26:16.000Z</time>
      </trkpt>
      <trkpt lat="48.60867" lon="2.17072">
        <ele>109</ele>
        <time>2019-10-28T11:26:17.000Z</time>
      </trkpt>
      <trkpt lat="48.60867" lon="2.17071">
        <ele>108</ele>
        <time>2019-10-28T11:26:18.000Z</time>
      </trkpt>
      <trkpt lat="48.60866" lon="2.17069">
        <ele>108</ele>
        <time>2019-10-28T11:26:19.000Z</time>
      </trkpt>
      <trkpt lat="48.60865" lon="2.17068">
        <ele>108</ele>
        <time>2019-10-28T11:26:20.000Z</time>
      </trkpt>
      <trkpt lat="48.60864" lon="2.17067">
        <ele>108</ele>
        <time>2019-10-28T11:26:21.000Z</time>
      </trkpt>
      <trkpt lat="48.60863" lon="2.17066">
        <ele>108</ele>
        <time>2019-10-28T11:26:22.000Z</time>
      </trkpt>
      <trkpt lat="48.60862" lon="2.17065">
        <ele>108</ele>
        <time>2019-10-28T11:26:23.000Z</time>
      </trkpt>
      <trkpt lat="48.60861" lon="2.17064">
        <ele>108</ele>
        <time>2019-10-28T11:26:24.000Z</time>
      </trkpt>
      <trkpt lat="48.60859" lon="2.17063">
        <ele>108</ele>
        <time>2019-10-28T11:26:25.000Z</time>
      </trkpt>
      <trkpt lat="48.60858" lon="2.17063">
        <ele>108</ele>
        <time>2019-10-28T11:26:26.000Z</time>
      </trkpt>
      <trkpt lat="48.60857" lon="2.17062">
        <ele>107</ele>
        <time>2019-10-28T11:26:27.000Z</time>
      </trkpt>
      <trkpt lat="48.60855" lon="2.17061">
        <ele>107</ele>
        <time>2019-10-28T11:26:28.000Z</time>
      </trkpt>
      <trkpt lat="48.60854" lon="2.1706">
        <ele>107</ele>
        <time>2019-10-28T11:26:29.000Z</time>
      </trkpt>
      <trkpt lat="48.60853" lon="2.17059">
        <ele>107</ele>
        <time>2019-10-28T11:26:30.000Z</time>
      </trkpt>
      <trkpt lat="48.60851" lon="2.17058">
        <ele>107</ele>
        <time>2019-10-28T11:26:31.000Z</time>
      </trkpt>
      <trkpt lat="48.6085" lon="2.17057">
        <ele>107</ele>
        <time>2019-10-28T11:26:32.000Z</time>
      </trkpt>
      <trkpt lat="48.60849" lon="2.17056">
        <ele>107</ele>
        <time>2019-10-28T11:26:33.000Z</time>
      </trkpt>
      <trkpt lat="48.60847" lon="2.17055">
        <ele>107</ele>
        <time>2019-10-28T11:26:34.000Z</time>
      </trkpt>
      <trkpt lat="48.60846" lon="2.17054">
        <ele>107</ele>
        <time>2019-10-28T11:26:35.000Z</time>
      </trkpt>
      <trkpt lat="48.60844" lon="2.17052">
        <ele>107</ele>
        <time>2019-10-28T11:26:36.000Z</time>
      </trkpt>
      <trkpt lat="48.60843" lon="2.17051">
        <ele>107</ele>
        <time>2019-10-28T11:26:37.000Z</time>
      </trkpt>
      <trkpt lat="48.60842" lon="2.1705">
        <ele>107</ele>
        <time>2019-10-28T11:26:38.000Z</time>
      </trkpt>
      <trkpt lat="48.60841" lon="2.17049">
        <ele>107</ele>
        <time>2019-10-28T11:26:39.000Z</time>
      </trkpt>
      <trkpt lat="48.60839" lon="2.17048">
        <ele>106</ele>
        <time>2019-10-28T11:26:40.000Z</time>
      </trkpt>
      <trkpt lat="48.60838" lon="2.17047">
        <ele>106</ele>
        <time>2019-10-28T11:26:41.000Z</time>
      </trkpt>
      <trkpt lat="48.60837" lon="2.17046">
        <ele>106</ele>
        <time>2019-10-28T11:26:42.000Z</time>
      </trkpt>
      <trkpt lat="48.60836" lon="2.17045">
        <ele>106</ele>
        <time>2019-10-28T11:26:43.000Z</time>
      </trkpt>
      <trkpt lat="48.60834" lon="2.17043">
        <ele>106</ele>
        <time>2019-10-28T11:26:44.000Z</time>
      </trkpt>
      <trkpt lat="48.60833" lon="2.17042">
        <ele>106</ele>
        <time>2019-10-28T11:26:45.000Z</time>
      </trkpt>
      <trkpt lat="48.60832" lon="2.17041">
        <ele>106</ele>
        <time>2019-10-28T11:26:46.000Z</time>
      </trkpt>
      <trkpt lat="48.60831" lon="2.1704">
        <ele>106</ele>
        <time>2019-10-28T11:26:47.000Z</time>
      </trkpt>
      <trkpt lat="48.6083" lon="2.17039">
        <ele>106</ele>
        <time>2019-10-28T11:26:48.000Z</time>
      </trkpt>
      <trkpt lat="48.60829" lon="2.17038">
        <ele>106</ele>
        <time>2019-10-28T11:26:49.000Z</time>
      </trkpt>
      <trkpt lat="48.60827" lon="2.17037">
        <ele>106</ele>
        <time>2019-10-28T11:26:50.000Z</time>
      </trkpt>
      <trkpt lat="48.60826" lon="2.17035">
        <ele>106</ele>
        <time>2019-10-28T11:26:51.000Z</time>
      </trkpt>
      <trkpt lat="48.60825" lon="2.17034">
        <ele>106</ele>
        <time>2019-10-28T11:26:52.000Z</time>
      </trkpt>
      <trkpt lat="48.60824" lon="2.17033">
        <ele>105</ele>
        <time>2019-10-28T11:26:53.000Z</time>
      </trkpt>
      <trkpt lat="48.60822" lon="2.17032">
        <ele>106</ele>
        <time>2019-10-28T11:26:54.000Z</time>
      </trkpt>
      <trkpt lat="48.60821" lon="2.17031">
        <ele>106</ele>
        <time>2019-10-28T11:26:55.000Z</time>
      </trkpt>
      <trkpt lat="48.6082" lon="2.1703">
        <ele>106</ele>
        <time>2019-10-28T11:26:56.000Z</time>
      </trkpt>
      <trkpt lat="48.60819" lon="2.17029">
        <ele>106</ele>
        <time>2019-10-28T11:26:57.000Z</time>
      </trkpt>
      <trkpt lat="48.60818" lon="2.17028">
        <ele>106</ele>
        <time>2019-10-28T11:26:58.000Z</time>
      </trkpt>
      <trkpt lat="48.60816" lon="2.17027">
        <ele>106</ele>
        <time>2019-10-28T11:26:59.000Z</time>
      </trkpt>
      <trkpt lat="48.60815" lon="2.17026">
        <ele>106</ele>
        <time>2019-10-28T11:27:00.000Z</time>
      </trkpt>
      <trkpt lat="48.60814" lon="2.17025">
        <ele>106</ele>
        <time>2019-10-28T11:27:01.000Z</time>
      </trkpt>
      <trkpt lat="48.60813" lon="2.17024">
        <ele>105</ele>
        <time>2019-10-28T11:27:02.000Z</time>
      </trkpt>
      <trkpt lat="48.60812" lon="2.17023">
        <ele>105</ele>
        <time>2019-10-28T11:27:03.000Z</time>
      </trkpt>
      <trkpt lat="48.60811" lon="2.17022">
        <ele>105</ele>
        <time>2019-10-28T11:27:04.000Z</time>
      </trkpt>
      <trkpt lat="48.6081" lon="2.17021">
        <ele>105</ele>
        <time>2019-10-28T11:27:05.000Z</time>
      </trkpt>
      <trkpt lat="48.60809" lon="2.17019">
        <ele>105</ele>
        <time>2019-10-28T11:27:06.000Z</time>
      </trkpt>
      <trkpt lat="48.60808" lon="2.17018">
        <ele>105</ele>
        <time>2019-10-28T11:27:07.000Z</time>
      </trkpt>
      <trkpt lat="48.60807" lon="2.17017">
        <ele>105</ele>
        <time>2019-10-28T11:27:08.000Z</time>
      </trkpt>
      <trkpt lat="48.60806" lon="2.17016">
        <ele>105</ele>
        <time>2019-10-28T11:27:09.000Z</time>
      </trkpt>
      <trkpt lat="48.60805" lon="2.17015">
        <ele>105</ele>
        <time>2019-10-28T11:27:10.000Z</time>
      </trkpt>
      <trkpt lat="48.60804" lon="2.17014">
        <ele>105</ele>
        <time>2019-10-28T11:27:11.000Z</time>
      </trkpt>
      <trkpt lat="48.60803" lon="2.17012">
        <ele>105</ele>
        <time>2019-10-28T11:27:12.000Z</time>
      </trkpt>
      <trkpt lat="48.60802" lon="2.17011">
        <ele>105</ele>
        <time>2019-10-28T11:27:13.000Z</time>
      </trkpt>
      <trkpt lat="48.60801" lon="2.1701">
        <ele>105</ele>
        <time>2019-10-28T11:27:14.000Z</time>
      </trkpt>
      <trkpt lat="48.60799" lon="2.17009">
        <ele>105</ele>
        <time>2019-10-28T11:27:15.000Z</time>
      </trkpt>
      <trkpt lat="48.60798" lon="2.17008">
        <ele>106</ele>
        <time>2019-10-28T11:27:16.000Z</time>
      </trkpt>
      <trkpt lat="48.60797" lon="2.17006">
        <ele>106</ele>
        <time>2019-10-28T11:27:17.000Z</time>
      </trkpt>
      <trkpt lat="48.60796" lon="2.17005">
        <ele>106</ele>
        <time>2019-10-28T11:27:18.000Z</time>
      </trkpt>
      <trkpt lat="48.60795" lon="2.17004">
        <ele>106</ele>
        <time>2019-10-28T11:27:19.000Z</time>
      </trkpt>
      <trkpt lat="48.60794" lon="2.17002">
        <ele>105</ele>
        <time>2019-10-28T11:27:20.000Z</time>
      </trkpt>
      <trkpt lat="48.60793" lon="2.17001">
        <ele>106</ele>
        <time>2019-10-28T11:27:21.000Z</time>
      </trkpt>
      <trkpt lat="48.60792" lon="2.17">
        <ele>106</ele>
        <time>2019-10-28T11:27:22.000Z</time>
      </trkpt>
      <trkpt lat="48.60791" lon="2.16999">
        <ele>106</ele>
        <time>2019-10-28T11:27:23.000Z</time>
      </trkpt>
      <trkpt lat="48.6079" lon="2.16998">
        <ele>106</ele>
        <time>2019-10-28T11:27:24.000Z</time>
      </trkpt>
      <trkpt lat="48.60789" lon="2.16997">
        <ele>106</ele>
        <time>2019-10-28T11:27:25.000Z</time>
      </trkpt>
      <trkpt lat="48.60788" lon="2.16996">
        <ele>106</ele>
        <time>2019-10-28T11:27:26.000Z</time>
      </trkpt>
      <trkpt lat="48.60787" lon="2.16995">
        <ele>106</ele>
        <time>2019-10-28T11:27:27.000Z</time>
      </trkpt>
      <trkpt lat="48.60786" lon="2.16994">
        <ele>106</ele>
        <time>2019-10-28T11:27:28.000Z</time>
      </trkpt>
      <trkpt lat="48.60785" lon="2.16993">
        <ele>106</ele>
        <time>2019-10-28T11:27:29.000Z</time>
      </trkpt>
      <trkpt lat="48.60784" lon="2.16992">
        <ele>106</ele>
        <time>2019-10-28T11:27:30.000Z</time>
      </trkpt>
      <trkpt lat="48.60783" lon="2.1699">
        <ele>107</ele>
        <time>2019-10-28T11:27:31.000Z</time>
      </trkpt>
      <trkpt lat="48.60782" lon="2.16989">
        <ele>107</ele>
        <time>2019-10-28T11:27:32.000Z</time>
      </trkpt>
      <trkpt lat="48.60781" lon="2.16988">
        <ele>107</ele>
        <time>2019-10-28T11:27:33.000Z</time>
      </trkpt>
      <trkpt lat="48.6078" lon="2.16986">
        <ele>107</ele>
        <time>2019-10-28T11:27:34.000Z</time>
      </trkpt>
      <trkpt lat="48.60779" lon="2.16985">
        <ele>107</ele>
        <time>2019-10-28T11:27:35.000Z</time>
      </trkpt>
      <trkpt lat="48.60778" lon="2.16984">
        <ele>107</ele>
        <time>2019-10-28T11:27:36.000Z</time>
      </trkpt>
      <trkpt lat="48.60776" lon="2.16983">
        <ele>107</ele>
        <time>2019-10-28T11:27:37.000Z</time>
      </trkpt>
      <trkpt lat="48.60775" lon="2.16981">
        <ele>107</ele>
        <time>2019-10-28T11:27:38.000Z</time>
      </trkpt>
      <trkpt lat="48.60774" lon="2.1698">
        <ele>107</ele>
        <time>2019-10-28T11:27:39.000Z</time>
      </trkpt>
      <trkpt lat="48.60773" lon="2.16979">
        <ele>107</ele>
        <time>2019-10-28T11:27:40.000Z</time>
      </trkpt>
      <trkpt lat="48.60772" lon="2.16978">
        <ele>108</ele>
        <time>2019-10-28T11:27:41.000Z</time>
      </trkpt>
      <trkpt lat="48.60771" lon="2.16976">
        <ele>108</ele>
        <time>2019-10-28T11:27:42.000Z</time>
      </trkpt>
      <trkpt lat="48.6077" lon="2.16975">
        <ele>108</ele>
        <time>2019-10-28T11:27:43.000Z</time>
      </trkpt>
      <trkpt lat="48.60769" lon="2.16974">
        <ele>108</ele>
        <time>2019-10-28T11:27:44.000Z</time>
      </trkpt>
      <trkpt lat="48.60768" lon="2.16973">
        <ele>108</ele>
        <time>2019-10-28T11:27:45.000Z</time>
      </trkpt>
      <trkpt lat="48.60767" lon="2.16972">
        <ele>108</ele>
        <time>2019-10-28T11:27:46.000Z</time>
      </trkpt>
      <trkpt lat="48.60766" lon="2.1697">
        <ele>108</ele>
        <time>2019-10-28T11:27:47.000Z</time>
      </trkpt>
      <trkpt lat="48.60765" lon="2.16969">
        <ele>108</ele>
        <time>2019-10-28T11:27:48.000Z</time>
      </trkpt>
      <trkpt lat="48.60764" lon="2.16968">
        <ele>108</ele>
        <time>2019-10-28T11:27:49.000Z</time>
      </trkpt>
      <trkpt lat="48.60762" lon="2.16967">
        <ele>108</ele>
        <time>2019-10-28T11:27:50.000Z</time>
      </trkpt>
      <trkpt lat="48.60761" lon="2.16965">
        <ele>108</ele>
        <time>2019-10-28T11:27:51.000Z</time>
      </trkpt>
      <trkpt lat="48.6076" lon="2.16964">
        <ele>108</ele>
        <time>2019-10-28T11:27:52.000Z</time>
      </trkpt>
      <trkpt lat="48.60759" lon="2.16963">
        <ele>108</ele>
        <time>2019-10-28T11:27:53.000Z</time>
      </trkpt>
      <trkpt lat="48.60758" lon="2.16961">
        <ele>109</ele>
        <time>2019-10-28T11:27:54.000Z</time>
      </trkpt>
      <trkpt lat="48.60757" lon="2.1696">
        <ele>109</ele>
        <time>2019-10-28T11:27:55.000Z</time>
      </trkpt>
      <trkpt lat="48.60756" lon="2.16959">
        <ele>108</ele>
        <time>2019-10-28T11:27:56.000Z</time>
      </trkpt>
      <trkpt lat="48.60755" lon="2.16958">
        <ele>109</ele>
        <time>2019-10-28T11:27:57.000Z</time>
      </trkpt>
      <trkpt lat="48.60754" lon="2.16956">
        <ele>109</ele>
        <time>2019-10-28T11:27:58.000Z</time>
      </trkpt>
      <trkpt lat="48.60753" lon="2.16955">
        <ele>109</ele>
        <time>2019-10-28T11:27:59.000Z</time>
      </trkpt>
      <trkpt lat="48.60752" lon="2.16954">
        <ele>109</ele>
        <time>2019-10-28T11:28:00.000Z</time>
      </trkpt>
      <trkpt lat="48.60751" lon="2.16952">
        <ele>109</ele>
        <time>2019-10-28T11:28:01.000Z</time>
      </trkpt>
      <trkpt lat="48.6075" lon="2.16951">
        <ele>109</ele>
        <time>2019-10-28T11:28:02.000Z</time>
      </trkpt>
      <trkpt lat="48.60749" lon="2.1695">
        <ele>109</ele>
        <time>2019-10-28T11:28:03.000Z</time>
      </trkpt>
      <trkpt lat="48.60748" lon="2.16948">
        <ele>108</ele>
        <time>2019-10-28T11:28:04.000Z</time>
      </trkpt>
      <trkpt lat="48.60747" lon="2.16947">
        <ele>108</ele>
        <time>2019-10-28T11:28:05.000Z</time>
      </trkpt>
      <trkpt lat="48.60746" lon="2.16946">
        <ele>108</ele>
        <time>2019-10-28T11:28:06.000Z</time>
      </trkpt>
      <trkpt lat="48.60745" lon="2.16945">
        <ele>108</ele>
        <time>2019-10-28T11:28:07.000Z</time>
      </trkpt>
      <trkpt lat="48.60744" lon="2.16944">
        <ele>108</ele>
        <time>2019-10-28T11:28:08.000Z</time>
      </trkpt>
      <trkpt lat="48.60743" lon="2.16943">
        <ele>108</ele>
        <time>2019-10-28T11:28:09.000Z</time>
      </trkpt>
      <trkpt lat="48.60742" lon="2.16941">
        <ele>108</ele>
        <time>2019-10-28T11:28:10.000Z</time>
      </trkpt>
      <trkpt lat="48.60741" lon="2.1694">
        <ele>108</ele>
        <time>2019-10-28T11:28:11.000Z</time>
      </trkpt>
      <trkpt lat="48.6074" lon="2.16939">
        <ele>108</ele>
        <time>2019-10-28T11:28:12.000Z</time>
      </trkpt>
      <trkpt lat="48.60739" lon="2.16938">
        <ele>108</ele>
        <time>2019-10-28T11:28:13.000Z</time>
      </trkpt>
      <trkpt lat="48.60738" lon="2.16937">
        <ele>108</ele>
        <time>2019-10-28T11:28:14.000Z</time>
      </trkpt>
      <trkpt lat="48.60737" lon="2.16936">
        <ele>108</ele>
        <time>2019-10-28T11:28:15.000Z</time>
      </trkpt>
      <trkpt lat="48.60736" lon="2.16935">
        <ele>108</ele>
        <time>2019-10-28T11:28:16.000Z</time>
      </trkpt>
      <trkpt lat="48.60735" lon="2.16934">
        <ele>108</ele>
        <time>2019-10-28T11:28:17.000Z</time>
      </trkpt>
      <trkpt lat="48.60734" lon="2.16933">
        <ele>108</ele>
        <time>2019-10-28T11:28:18.000Z</time>
      </trkpt>
      <trkpt lat="48.60733" lon="2.16932">
        <ele>108</ele>
        <time>2019-10-28T11:28:19.000Z</time>
      </trkpt>
      <trkpt lat="48.60732" lon="2.16931">
        <ele>107</ele>
        <time>2019-10-28T11:28:20.000Z</time>
      </trkpt>
      <trkpt lat="48.60731" lon="2.1693">
        <ele>107</ele>
        <time>2019-10-28T11:28:21.000Z</time>
      </trkpt>
      <trkpt lat="48.6073" lon="2.16928">
        <ele>108</ele>
        <time>2019-10-28T11:28:22.000Z</time>
      </trkpt>
      <trkpt lat="48.60729" lon="2.16927">
        <ele>107</ele>
        <time>2019-10-28T11:28:23.000Z</time>
      </trkpt>
      <trkpt lat="48.60728" lon="2.16926">
        <ele>107</ele>
        <time>2019-10-28T11:28:24.000Z</time>
      </trkpt>
      <trkpt lat="48.60727" lon="2.16925">
        <ele>107</ele>
        <time>2019-10-28T11:28:25.000Z</time>
      </trkpt>
      <trkpt lat="48.60726" lon="2.16923">
        <ele>107</ele>
        <time>2019-10-28T11:28:26.000Z</time>
      </trkpt>
      <trkpt lat="48.60725" lon="2.16922">
        <ele>107</ele>
        <time>2019-10-28T11:28:27.000Z</time>
      </trkpt>
      <trkpt lat="48.60724" lon="2.16921">
        <ele>107</ele>
        <time>2019-10-28T11:28:28.000Z</time>
      </trkpt>
      <trkpt lat="48.60722" lon="2.1692">
        <ele>107</ele>
        <time>2019-10-28T11:28:29.000Z</time>
      </trkpt>
      <trkpt lat="48.60721" lon="2.16919">
        <ele>107</ele>
        <time>2019-10-28T11:28:30.000Z</time>
      </trkpt>
      <trkpt lat="48.6072" lon="2.16918">
        <ele>107</ele>
        <time>2019-10-28T11:28:31.000Z</time>
      </trkpt>
      <trkpt lat="48.60719" lon="2.16916">
        <ele>107</ele>
        <time>2019-10-28T11:28:32.000Z</time>
      </trkpt>
      <trkpt lat="48.60718" lon="2.16915">
        <ele>107</ele>
        <time>2019-10-28T11:28:33.000Z</time>
      </trkpt>
      <trkpt lat="48.60717" lon="2.16914">
        <ele>107</ele>
        <time>2019-10-28T11:28:34.000Z</time>
      </trkpt>
      <trkpt lat="48.60716" lon="2.16913">
        <ele>107</ele>
        <time>2019-10-28T11:28:35.000Z</time>
      </trkpt>
      <trkpt lat="48.60714" lon="2.16912">
        <ele>107</ele>
        <time>2019-10-28T11:28:36.000Z</time>
      </trkpt>
      <trkpt lat="48.60713" lon="2.16911">
        <ele>107</ele>
        <time>2019-10-28T11:28:37.000Z</time>
      </trkpt>
      <trkpt lat="48.60712" lon="2.1691">
        <ele>107</ele>
        <time>2019-10-28T11:28:38.000Z</time>
      </trkpt>
      <trkpt lat="48.60711" lon="2.16909">
        <ele>106</ele>
        <time>2019-10-28T11:28:39.000Z</time>
      </trkpt>
      <trkpt lat="48.6071" lon="2.16908">
        <ele>107</ele>
        <time>2019-10-28T11:28:40.000Z</time>
      </trkpt>
      <trkpt lat="48.60709" lon="2.16907">
        <ele>107</ele>
        <time>2019-10-28T11:28:41.000Z</time>
      </trkpt>
      <trkpt lat="48.60708" lon="2.16905">
        <ele>106</ele>
        <time>2019-10-28T11:28:42.000Z</time>
      </trkpt>
      <trkpt lat="48.60707" lon="2.16904">
        <ele>106</ele>
        <time>2019-10-28T11:28:43.000Z</time>
      </trkpt>
      <trkpt lat="48.60705" lon="2.16903">
        <ele>106</ele>
        <time>2019-10-28T11:28:44.000Z</time>
      </trkpt>
      <trkpt lat="48.60704" lon="2.16902">
        <ele>106</ele>
        <time>2019-10-28T11:28:45.000Z</time>
      </trkpt>
      <trkpt lat="48.60703" lon="2.16901">
        <ele>106</ele>
        <time>2019-10-28T11:28:46.000Z</time>
      </trkpt>
      <trkpt lat="48.60702" lon="2.169">
        <ele>106</ele>
        <time>2019-10-28T11:28:47.000Z</time>
      </trkpt>
      <trkpt lat="48.60701" lon="2.16899">
        <ele>106</ele>
        <time>2019-10-28T11:28:48.000Z</time>
      </trkpt>
      <trkpt lat="48.607" lon="2.16897">
        <ele>106</ele>
        <time>2019-10-28T11:28:49.000Z</time>
      </trkpt>
      <trkpt lat="48.60699" lon="2.16896">
        <ele>106</ele>
        <time>2019-10-28T11:28:50.000Z</time>
      </trkpt>
      <trkpt lat="48.60698" lon="2.16895">
        <ele>106</ele>
        <time>2019-10-28T11:28:51.000Z</time>
      </trkpt>
      <trkpt lat="48.60697" lon="2.16894">
        <ele>106</ele>
        <time>2019-10-28T11:28:52.000Z</time>
      </trkpt>
      <trkpt lat="48.60696" lon="2.16892">
        <ele>106</ele>
        <time>2019-10-28T11:28:53.000Z</time>
      </trkpt>
      <trkpt lat="48.60696" lon="2.16891">
        <ele>106</ele>
        <time>2019-10-28T11:28:54.000Z</time>
      </trkpt>
      <trkpt lat="48.60695" lon="2.16889">
        <ele>106</ele>
        <time>2019-10-28T11:28:55.000Z</time>
      </trkpt>
      <trkpt lat="48.60694" lon="2.16887">
        <ele>106</ele>
        <time>2019-10-28T11:28:56.000Z</time>
      </trkpt>
      <trkpt lat="48.60693" lon="2.16886">
        <ele>106</ele>
        <time>2019-10-28T11:28:57.000Z</time>
      </trkpt>
      <trkpt lat="48.60693" lon="2.16884">
        <ele>106</ele>
        <time>2019-10-28T11:28:58.000Z</time>
      </trkpt>
      <trkpt lat="48.60692" lon="2.16883">
        <ele>106</ele>
        <time>2019-10-28T11:28:59.000Z</time>
      </trkpt>
      <trkpt lat="48.60691" lon="2.16882">
        <ele>106</ele>
        <time>2019-10-28T11:29:00.000Z</time>
      </trkpt>
      <trkpt lat="48.6069" lon="2.1688">
        <ele>105</ele>
        <time>2019-10-28T11:29:01.000Z</time>
      </trkpt>
      <trkpt lat="48.6069" lon="2.16879">
        <ele>105</ele>
        <time>2019-10-28T11:29:02.000Z</time>
      </trkpt>
      <trkpt lat="48.60688" lon="2.16879">
        <ele>105</ele>
        <time>2019-10-28T11:29:03.000Z</time>
      </trkpt>
      <trkpt lat="48.60687" lon="2.16878">
        <ele>105</ele>
        <time>2019-10-28T11:29:04.000Z</time>
      </trkpt>
      <trkpt lat="48.60686" lon="2.16878">
        <ele>105</ele>
        <time>2019-10-28T11:29:05.000Z</time>
      </trkpt>
      <trkpt lat="48.60685" lon="2.16878">
        <ele>105</ele>
        <time>2019-10-28T11:29:06.000Z</time>
      </trkpt>
      <trkpt lat="48.60683" lon="2.16879">
        <ele>105</ele>
        <time>2019-10-28T11:29:07.000Z</time>
      </trkpt>
      <trkpt lat="48.60682" lon="2.16879">
        <ele>105</ele>
        <time>2019-10-28T11:29:08.000Z</time>
      </trkpt>
      <trkpt lat="48.60681" lon="2.1688">
        <ele>105</ele>
        <time>2019-10-28T11:29:09.000Z</time>
      </trkpt>
      <trkpt lat="48.6068" lon="2.16881">
        <ele>105</ele>
        <time>2019-10-28T11:29:10.000Z</time>
      </trkpt>
      <trkpt lat="48.60678" lon="2.16882">
        <ele>105</ele>
        <time>2019-10-28T11:29:11.000Z</time>
      </trkpt>
      <trkpt lat="48.60677" lon="2.16883">
        <ele>105</ele>
        <time>2019-10-28T11:29:12.000Z</time>
      </trkpt>
      <trkpt lat="48.60676" lon="2.16885">
        <ele>105</ele>
        <time>2019-10-28T11:29:13.000Z</time>
      </trkpt>
      <trkpt lat="48.60675" lon="2.16886">
        <ele>105</ele>
        <time>2019-10-28T11:29:14.000Z</time>
      </trkpt>
      <trkpt lat="48.60674" lon="2.16887">
        <ele>105</ele>
        <time>2019-10-28T11:29:15.000Z</time>
      </trkpt>
      <trkpt lat="48.60673" lon="2.16888">
        <ele>105</ele>
        <time>2019-10-28T11:29:16.000Z</time>
      </trkpt>
      <trkpt lat="48.60671" lon="2.1689">
        <ele>105</ele>
        <time>2019-10-28T11:29:17.000Z</time>
      </trkpt>
      <trkpt lat="48.6067" lon="2.16891">
        <ele>105</ele>
        <time>2019-10-28T11:29:18.000Z</time>
      </trkpt>
      <trkpt lat="48.60669" lon="2.16892">
        <ele>105</ele>
        <time>2019-10-28T11:29:19.000Z</time>
      </trkpt>
      <trkpt lat="48.60668" lon="2.16893">
        <ele>105</ele>
        <time>2019-10-28T11:29:20.000Z</time>
      </trkpt>
      <trkpt lat="48.60667" lon="2.16894">
        <ele>105</ele>
        <time>2019-10-28T11:29:21.000Z</time>
      </trkpt>
      <trkpt lat="48.60666" lon="2.16895">
        <ele>105</ele>
        <time>2019-10-28T11:29:22.000Z</time>
      </trkpt>
      <trkpt lat="48.60665" lon="2.16897">
        <ele>105</ele>
        <time>2019-10-28T11:29:23.000Z</time>
      </trkpt>
      <trkpt lat="48.60664" lon="2.16898">
        <ele>105</ele>
        <time>2019-10-28T11:29:24.000Z</time>
      </trkpt>
      <trkpt lat="48.60662" lon="2.16899">
        <ele>105</ele>
        <time>2019-10-28T11:29:25.000Z</time>
      </trkpt>
      <trkpt lat="48.60661" lon="2.169">
        <ele>106</ele>
        <time>2019-10-28T11:29:26.000Z</time>
      </trkpt>
      <trkpt lat="48.6066" lon="2.16901">
        <ele>106</ele>
        <time>2019-10-28T11:29:27.000Z</time>
      </trkpt>
      <trkpt lat="48.60658" lon="2.16902">
        <ele>106</ele>
        <time>2019-10-28T11:29:28.000Z</time>
      </trkpt>
      <trkpt lat="48.60657" lon="2.16903">
        <ele>105</ele>
        <time>2019-10-28T11:29:29.000Z</time>
      </trkpt>
      <trkpt lat="48.60656" lon="2.16904">
        <ele>106</ele>
        <time>2019-10-28T11:29:30.000Z</time>
      </trkpt>
      <trkpt lat="48.60655" lon="2.16906">
        <ele>106</ele>
        <time>2019-10-28T11:29:31.000Z</time>
      </trkpt>
      <trkpt lat="48.60654" lon="2.16907">
        <ele>106</ele>
        <time>2019-10-28T11:29:32.000Z</time>
      </trkpt>
      <trkpt lat="48.60653" lon="2.16908">
        <ele>106</ele>
        <time>2019-10-28T11:29:33.000Z</time>
      </trkpt>
      <trkpt lat="48.60652" lon="2.16909">
        <ele>106</ele>
        <time>2019-10-28T11:29:34.000Z</time>
      </trkpt>
      <trkpt lat="48.6065" lon="2.16911">
        <ele>106</ele>
        <time>2019-10-28T11:29:35.000Z</time>
      </trkpt>
      <trkpt lat="48.60649" lon="2.16912">
        <ele>106</ele>
        <time>2019-10-28T11:29:36.000Z</time>
      </trkpt>
      <trkpt lat="48.60648" lon="2.16913">
        <ele>106</ele>
        <time>2019-10-28T11:29:37.000Z</time>
      </trkpt>
      <trkpt lat="48.60647" lon="2.16914">
        <ele>106</ele>
        <time>2019-10-28T11:29:38.000Z</time>
      </trkpt>
      <trkpt lat="48.60646" lon="2.16916">
        <ele>106</ele>
        <time>2019-10-28T11:29:39.000Z</time>
      </trkpt>
      <trkpt lat="48.60645" lon="2.16917">
        <ele>106</ele>
        <time>2019-10-28T11:29:40.000Z</time>
      </trkpt>
      <trkpt lat="48.60644" lon="2.16918">
        <ele>106</ele>
        <time>2019-10-28T11:29:41.000Z</time>
      </trkpt>
      <trkpt lat="48.60643" lon="2.1692">
        <ele>106</ele>
        <time>2019-10-28T11:29:42.000Z</time>
      </trkpt>
      <trkpt lat="48.60642" lon="2.16921">
        <ele>106</ele>
        <time>2019-10-28T11:29:43.000Z</time>
      </trkpt>
      <trkpt lat="48.6064" lon="2.16922">
        <ele>106</ele>
        <time>2019-10-28T11:29:44.000Z</time>
      </trkpt>
      <trkpt lat="48.6064" lon="2.16924">
        <ele>106</ele>
        <time>2019-10-28T11:29:45.000Z</time>
      </trkpt>
      <trkpt lat="48.60638" lon="2.16925">
        <ele>106</ele>
        <time>2019-10-28T11:29:46.000Z</time>
      </trkpt>
      <trkpt lat="48.60637" lon="2.16926">
        <ele>106</ele>
        <time>2019-10-28T11:29:47.000Z</time>
      </trkpt>
      <trkpt lat="48.60636" lon="2.16927">
        <ele>106</ele>
        <time>2019-10-28T11:29:48.000Z</time>
      </trkpt>
      <trkpt lat="48.60635" lon="2.16929">
        <ele>106</ele>
        <time>2019-10-28T11:29:49.000Z</time>
      </trkpt>
      <trkpt lat="48.60634" lon="2.1693">
        <ele>106</ele>
        <time>2019-10-28T11:29:50.000Z</time>
      </trkpt>
      <trkpt lat="48.60633" lon="2.16931">
        <ele>106</ele>
        <time>2019-10-28T11:29:51.000Z</time>
      </trkpt>
      <trkpt lat="48.60632" lon="2.16932">
        <ele>106</ele>
        <time>2019-10-28T11:29:52.000Z</time>
      </trkpt>
      <trkpt lat="48.60631" lon="2.16933">
        <ele>106</ele>
        <time>2019-10-28T11:29:53.000Z</time>
      </trkpt>
      <trkpt lat="48.6063" lon="2.16935">
        <ele>106</ele>
        <time>2019-10-28T11:29:54.000Z</time>
      </trkpt>
      <trkpt lat="48.60629" lon="2.16936">
        <ele>106</ele>
        <time>2019-10-28T11:29:55.000Z</time>
      </trkpt>
      <trkpt lat="48.60628" lon="2.16937">
        <ele>106</ele>
        <time>2019-10-28T11:29:56.000Z</time>
      </trkpt>
      <trkpt lat="48.60627" lon="2.16939">
        <ele>106</ele>
        <time>2019-10-28T11:29:57.000Z</time>
      </trkpt>
      <trkpt lat="48.60626" lon="2.1694">
        <ele>106</ele>
        <time>2019-10-28T11:29:58.000Z</time>
      </trkpt>
      <trkpt lat="48.60625" lon="2.16941">
        <ele>106</ele>
        <time>2019-10-28T11:29:59.000Z</time>
      </trkpt>
      <trkpt lat="48.60624" lon="2.16942">
        <ele>106</ele>
        <time>2019-10-28T11:30:00.000Z</time>
      </trkpt>
      <trkpt lat="48.60623" lon="2.16944">
        <ele>106</ele>
        <time>2019-10-28T11:30:01.000Z</time>
      </trkpt>
      <trkpt lat="48.60622" lon="2.16945">
        <ele>106</ele>
        <time>2019-10-28T11:30:02.000Z</time>
      </trkpt>
      <trkpt lat="48.60621" lon="2.16946">
        <ele>106</ele>
        <time>2019-10-28T11:30:03.000Z</time>
      </trkpt>
      <trkpt lat="48.6062" lon="2.16947">
        <ele>107</ele>
        <time>2019-10-28T11:30:04.000Z</time>
      </trkpt>
      <trkpt lat="48.60619" lon="2.16948">
        <ele>107</ele>
        <time>2019-10-28T11:30:05.000Z</time>
      </trkpt>
      <trkpt lat="48.60618" lon="2.16949">
        <ele>107</ele>
        <time>2019-10-28T11:30:06.000Z</time>
      </trkpt>
      <trkpt lat="48.60617" lon="2.16951">
        <ele>107</ele>
        <time>2019-10-28T11:30:07.000Z</time>
      </trkpt>
      <trkpt lat="48.60616" lon="2.16952">
        <ele>107</ele>
        <time>2019-10-28T11:30:08.000Z</time>
      </trkpt>
      <trkpt lat="48.60615" lon="2.16953">
        <ele>106</ele>
        <time>2019-10-28T11:30:09.000Z</time>
      </trkpt>
      <trkpt lat="48.60614" lon="2.16955">
        <ele>106</ele>
        <time>2019-10-28T11:30:10.000Z</time>
      </trkpt>
      <trkpt lat="48.60613" lon="2.16956">
        <ele>106</ele>
        <time>2019-10-28T11:30:11.000Z</time>
      </trkpt>
      <trkpt lat="48.60612" lon="2.16957">
        <ele>106</ele>
        <time>2019-10-28T11:30:12.000Z</time>
      </trkpt>
      <trkpt lat="48.60611" lon="2.16958">
        <ele>106</ele>
        <time>2019-10-28T11:30:13.000Z</time>
      </trkpt>
      <trkpt lat="48.6061" lon="2.1696">
        <ele>106</ele>
        <time>2019-10-28T11:30:14.000Z</time>
      </trkpt>
      <trkpt lat="48.60609" lon="2.16961">
        <ele>106</ele>
        <time>2019-10-28T11:30:15.000Z</time>
      </trkpt>
      <trkpt lat="48.60608" lon="2.16962">
        <ele>106</ele>
        <time>2019-10-28T11:30:16.000Z</time>
      </trkpt>
      <trkpt lat="48.60606" lon="2.16964">
        <ele>106</ele>
        <time>2019-10-28T11:30:17.000Z</time>
      </trkpt>
      <trkpt lat="48.60606" lon="2.16965">
        <ele>106</ele>
        <time>2019-10-28T11:30:18.000Z</time>
      </trkpt>
      <trkpt lat="48.60604" lon="2.16966">
        <ele>106</ele>
        <time>2019-10-28T11:30:19.000Z</time>
      </trkpt>
      <trkpt lat="48.60603" lon="2.16968">
        <ele>106</ele>
        <time>2019-10-28T11:30:20.000Z</time>
      </trkpt>
      <trkpt lat="48.60602" lon="2.16969">
        <ele>106</ele>
        <time>2019-10-28T11:30:21.000Z</time>
      </trkpt>
      <trkpt lat="48.60601" lon="2.1697">
        <ele>106</ele>
        <time>2019-10-28T11:30:22.000Z</time>
      </trkpt>
      <trkpt lat="48.60599" lon="2.16972">
        <ele>106</ele>
        <time>2019-10-28T11:30:23.000Z</time>
      </trkpt>
      <trkpt lat="48.60598" lon="2.16973">
        <ele>106</ele>
        <time>2019-10-28T11:30:24.000Z</time>
      </trkpt>
      <trkpt lat="48.60597" lon="2.16974">
        <ele>106</ele>
        <time>2019-10-28T11:30:25.000Z</time>
      </trkpt>
      <trkpt lat="48.60596" lon="2.16976">
        <ele>106</ele>
        <time>2019-10-28T11:30:26.000Z</time>
      </trkpt>
      <trkpt lat="48.60595" lon="2.16977">
        <ele>106</ele>
        <time>2019-10-28T11:30:27.000Z</time>
      </trkpt>
      <trkpt lat="48.60594" lon="2.16978">
        <ele>106</ele>
        <time>2019-10-28T11:30:28.000Z</time>
      </trkpt>
      <trkpt lat="48.60593" lon="2.1698">
        <ele>106</ele>
        <time>2019-10-28T11:30:29.000Z</time>
      </trkpt>
      <trkpt lat="48.60592" lon="2.16981">
        <ele>106</ele>
        <time>2019-10-28T11:30:30.000Z</time>
      </trkpt>
      <trkpt lat="48.60591" lon="2.16982">
        <ele>107</ele>
        <time>2019-10-28T11:30:31.000Z</time>
      </trkpt>
      <trkpt lat="48.6059" lon="2.16983">
        <ele>107</ele>
        <time>2019-10-28T11:30:32.000Z</time>
      </trkpt>
      <trkpt lat="48.60589" lon="2.16984">
        <ele>107</ele>
        <time>2019-10-28T11:30:33.000Z</time>
      </trkpt>
      <trkpt lat="48.60589" lon="2.16984">
        <ele>107</ele>
        <time>2019-10-28T11:30:34.000Z</time>
      </trkpt>
      <trkpt lat="48.60588" lon="2.16985">
        <ele>107</ele>
        <time>2019-10-28T11:30:35.000Z</time>
      </trkpt>
      <trkpt lat="48.60587" lon="2.16985">
        <ele>107</ele>
        <time>2019-10-28T11:30:36.000Z</time>
      </trkpt>
      <trkpt lat="48.60586" lon="2.16986">
        <ele>107</ele>
        <time>2019-10-28T11:30:37.000Z</time>
      </trkpt>
      <trkpt lat="48.60585" lon="2.16987">
        <ele>107</ele>
        <time>2019-10-28T11:30:38.000Z</time>
      </trkpt>
      <trkpt lat="48.60585" lon="2.16989">
        <ele>107</ele>
        <time>2019-10-28T11:30:39.000Z</time>
      </trkpt>
      <trkpt lat="48.60584" lon="2.1699">
        <ele>107</ele>
        <time>2019-10-28T11:30:40.000Z</time>
      </trkpt>
      <trkpt lat="48.60583" lon="2.16991">
        <ele>107</ele>
        <time>2019-10-28T11:30:41.000Z</time>
      </trkpt>
      <trkpt lat="48.60581" lon="2.16992">
        <ele>107</ele>
        <time>2019-10-28T11:30:42.000Z</time>
      </trkpt>
      <trkpt lat="48.6058" lon="2.16994">
        <ele>107</ele>
        <time>2019-10-28T11:30:43.000Z</time>
      </trkpt>
      <trkpt lat="48.60579" lon="2.16995">
        <ele>107</ele>
        <time>2019-10-28T11:30:44.000Z</time>
      </trkpt>
      <trkpt lat="48.60578" lon="2.16996">
        <ele>107</ele>
        <time>2019-10-28T11:30:45.000Z</time>
      </trkpt>
      <trkpt lat="48.60577" lon="2.16997">
        <ele>107</ele>
        <time>2019-10-28T11:30:46.000Z</time>
      </trkpt>
      <trkpt lat="48.60576" lon="2.16998">
        <ele>107</ele>
        <time>2019-10-28T11:30:47.000Z</time>
      </trkpt>
      <trkpt lat="48.60575" lon="2.17">
        <ele>107</ele>
        <time>2019-10-28T11:30:48.000Z</time>
      </trkpt>
      <trkpt lat="48.60574" lon="2.17001">
        <ele>107</ele>
        <time>2019-10-28T11:30:49.000Z</time>
      </trkpt>
      <trkpt lat="48.60573" lon="2.17003">
        <ele>108</ele>
        <time>2019-10-28T11:30:50.000Z</time>
      </trkpt>
      <trkpt lat="48.60571" lon="2.17004">
        <ele>108</ele>
        <time>2019-10-28T11:30:51.000Z</time>
      </trkpt>
      <trkpt lat="48.6057" lon="2.17005">
        <ele>108</ele>
        <time>2019-10-28T11:30:52.000Z</time>
      </trkpt>
      <trkpt lat="48.60569" lon="2.17006">
        <ele>108</ele>
        <time>2019-10-28T11:30:53.000Z</time>
      </trkpt>
      <trkpt lat="48.60568" lon="2.17007">
        <ele>108</ele>
        <time>2019-10-28T11:30:54.000Z</time>
      </trkpt>
      <trkpt lat="48.60566" lon="2.17008">
        <ele>108</ele>
        <time>2019-10-28T11:30:55.000Z</time>
      </trkpt>
      <trkpt lat="48.60565" lon="2.17009">
        <ele>108</ele>
        <time>2019-10-28T11:30:56.000Z</time>
      </trkpt>
      <trkpt lat="48.60564" lon="2.1701">
        <ele>108</ele>
        <time>2019-10-28T11:30:57.000Z</time>
      </trkpt>
      <trkpt lat="48.60563" lon="2.17011">
        <ele>108</ele>
        <time>2019-10-28T11:30:58.000Z</time>
      </trkpt>
      <trkpt lat="48.60561" lon="2.17012">
        <ele>108</ele>
        <time>2019-10-28T11:30:59.000Z</time>
      </trkpt>
      <trkpt lat="48.6056" lon="2.17013">
        <ele>109</ele>
        <time>2019-10-28T11:31:00.000Z</time>
      </trkpt>
      <trkpt lat="48.60559" lon="2.17014">
        <ele>109</ele>
        <time>2019-10-28T11:31:01.000Z</time>
      </trkpt>
      <trkpt lat="48.60558" lon="2.17015">
        <ele>109</ele>
        <time>2019-10-28T11:31:02.000Z</time>
      </trkpt>
      <trkpt lat="48.60556" lon="2.17015">
        <ele>109</ele>
        <time>2019-10-28T11:31:03.000Z</time>
      </trkpt>
      <trkpt lat="48.60555" lon="2.17015">
        <ele>109</ele>
        <time>2019-10-28T11:31:04.000Z</time>
      </trkpt>
      <trkpt lat="48.60553" lon="2.17016">
        <ele>109</ele>
        <time>2019-10-28T11:31:05.000Z</time>
      </trkpt>
      <trkpt lat="48.60552" lon="2.17016">
        <ele>109</ele>
        <time>2019-10-28T11:31:06.000Z</time>
      </trkpt>
      <trkpt lat="48.6055" lon="2.17016">
        <ele>109</ele>
        <time>2019-10-28T11:31:07.000Z</time>
      </trkpt>
      <trkpt lat="48.60549" lon="2.17016">
        <ele>110</ele>
        <time>2019-10-28T11:31:08.000Z</time>
      </trkpt>
      <trkpt lat="48.60547" lon="2.17017">
        <ele>110</ele>
        <time>2019-10-28T11:31:09.000Z</time>
      </trkpt>
      <trkpt lat="48.60546" lon="2.17017">
        <ele>110</ele>
        <time>2019-10-28T11:31:10.000Z</time>
      </trkpt>
      <trkpt lat="48.60545" lon="2.17017">
        <ele>110</ele>
        <time>2019-10-28T11:31:11.000Z</time>
      </trkpt>
      <trkpt lat="48.60543" lon="2.17017">
        <ele>110</ele>
        <time>2019-10-28T11:31:12.000Z</time>
      </trkpt>
      <trkpt lat="48.60542" lon="2.17017">
        <ele>110</ele>
        <time>2019-10-28T11:31:13.000Z</time>
      </trkpt>
      <trkpt lat="48.6054" lon="2.17017">
        <ele>110</ele>
        <time>2019-10-28T11:31:14.000Z</time>
      </trkpt>
      <trkpt lat="48.60539" lon="2.17017">
        <ele>110</ele>
        <time>2019-10-28T11:31:15.000Z</time>
      </trkpt>
      <trkpt lat="48.60537" lon="2.17017">
        <ele>110</ele>
        <time>2019-10-28T11:31:16.000Z</time>
      </trkpt>
      <trkpt lat="48.60536" lon="2.17017">
        <ele>110</ele>
        <time>2019-10-28T11:31:17.000Z</time>
      </trkpt>
      <trkpt lat="48.60535" lon="2.17017">
        <ele>110</ele>
        <time>2019-10-28T11:31:18.000Z</time>
      </trkpt>
      <trkpt lat="48.60533" lon="2.17017">
        <ele>110</ele>
        <time>2019-10-28T11:31:19.000Z</time>
      </trkpt>
      <trkpt lat="48.60532" lon="2.17017">
        <ele>110</ele>
        <time>2019-10-28T11:31:20.000Z</time>
      </trkpt>
      <trkpt lat="48.6053" lon="2.17017">
        <ele>111</ele>
        <time>2019-10-28T11:31:21.000Z</time>
      </trkpt>
      <trkpt lat="48.60529" lon="2.17017">
        <ele>111</ele>
        <time>2019-10-28T11:31:22.000Z</time>
      </trkpt>
      <trkpt lat="48.60527" lon="2.17018">
        <ele>111</ele>
        <time>2019-10-28T11:31:23.000Z</time>
      </trkpt>
      <trkpt lat="48.60526" lon="2.17018">
        <ele>111</ele>
        <time>2019-10-28T11:31:24.000Z</time>
      </trkpt>
      <trkpt lat="48.60524" lon="2.17018">
        <ele>111</ele>
        <time>2019-10-28T11:31:25.000Z</time>
      </trkpt>
      <trkpt lat="48.60523" lon="2.17018">
        <ele>111</ele>
        <time>2019-10-28T11:31:26.000Z</time>
      </trkpt>
      <trkpt lat="48.60522" lon="2.17018">
        <ele>111</ele>
        <time>2019-10-28T11:31:27.000Z</time>
      </trkpt>
      <trkpt lat="48.6052" lon="2.17019">
        <ele>111</ele>
        <time>2019-10-28T11:31:28.000Z</time>
      </trkpt>
      <trkpt lat="48.60519" lon="2.17019">
        <ele>111</ele>
        <time>2019-10-28T11:31:29.000Z</time>
      </trkpt>
      <trkpt lat="48.60517" lon="2.17019">
        <ele>111</ele>
        <time>2019-10-28T11:31:30.000Z</time>
      </trkpt>
      <trkpt lat="48.60516" lon="2.17019">
        <ele>111</ele>
        <time>2019-10-28T11:31:31.000Z</time>
      </trkpt>
      <trkpt lat="48.60514" lon="2.17019">
        <ele>111</ele>
        <time>2019-10-28T11:31:32.000Z</time>
      </trkpt>
      <trkpt lat="48.60513" lon="2.17019">
        <ele>111</ele>
        <time>2019-10-28T11:31:33.000Z</time>
      </trkpt>
      <trkpt lat="48.60512" lon="2.17019">
        <ele>111</ele>
        <time>2019-10-28T11:31:34.000Z</time>
      </trkpt>
      <trkpt lat="48.6051" lon="2.17019">
        <ele>111</ele>
        <time>2019-10-28T11:31:35.000Z</time>
      </trkpt>
      <trkpt lat="48.60509" lon="2.17019">
        <ele>111</ele>
        <time>2019-10-28T11:31:36.000Z</time>
      </trkpt>
      <trkpt lat="48.60508" lon="2.17019">
        <ele>112</ele>
        <time>2019-10-28T11:31:37.000Z</time>
      </trkpt>
      <trkpt lat="48.60506" lon="2.17019">
        <ele>112</ele>
        <time>2019-10-28T11:31:38.000Z</time>
      </trkpt>
      <trkpt lat="48.60505" lon="2.17019">
        <ele>112</ele>
        <time>2019-10-28T11:31:39.000Z</time>
      </trkpt>
      <trkpt lat="48.60504" lon="2.17018">
        <ele>112</ele>
        <time>2019-10-28T11:31:40.000Z</time>
      </trkpt>
      <trkpt lat="48.60502" lon="2.17018">
        <ele>111</ele>
        <time>2019-10-28T11:31:41.000Z</time>
      </trkpt>
      <trkpt lat="48.60501" lon="2.17018">
        <ele>111</ele>
        <time>2019-10-28T11:31:42.000Z</time>
      </trkpt>
      <trkpt lat="48.605" lon="2.17018">
        <ele>112</ele>
        <time>2019-10-28T11:31:43.000Z</time>
      </trkpt>
      <trkpt lat="48.60498" lon="2.17018">
        <ele>112</ele>
        <time>2019-10-28T11:31:44.000Z</time>
      </trkpt>
      <trkpt lat="48.60497" lon="2.17018">
        <ele>112</ele>
        <time>2019-10-28T11:31:45.000Z</time>
      </trkpt>
      <trkpt lat="48.60496" lon="2.17018">
        <ele>112</ele>
        <time>2019-10-28T11:31:46.000Z</time>
      </trkpt>
      <trkpt lat="48.60494" lon="2.17018">
        <ele>112</ele>
        <time>2019-10-28T11:31:47.000Z</time>
      </trkpt>
      <trkpt lat="48.60493" lon="2.17017">
        <ele>112</ele>
        <time>2019-10-28T11:31:48.000Z</time>
      </trkpt>
      <trkpt lat="48.60492" lon="2.17017">
        <ele>112</ele>
        <time>2019-10-28T11:31:49.000Z</time>
      </trkpt>
      <trkpt lat="48.6049" lon="2.17017">
        <ele>112</ele>
        <time>2019-10-28T11:31:50.000Z</time>
      </trkpt>
      <trkpt lat="48.60489" lon="2.17017">
        <ele>112</ele>
        <time>2019-10-28T11:31:51.000Z</time>
      </trkpt>
      <trkpt lat="48.60487" lon="2.17017">
        <ele>112</ele>
        <time>2019-10-28T11:31:52.000Z</time>
      </trkpt>
      <trkpt lat="48.60486" lon="2.17016">
        <ele>112</ele>
        <time>2019-10-28T11:31:53.000Z</time>
      </trkpt>
      <trkpt lat="48.60485" lon="2.17016">
        <ele>112</ele>
        <time>2019-10-28T11:31:54.000Z</time>
      </trkpt>
      <trkpt lat="48.60483" lon="2.17015">
        <ele>112</ele>
        <time>2019-10-28T11:31:55.000Z</time>
      </trkpt>
      <trkpt lat="48.60482" lon="2.17015">
        <ele>113</ele>
        <time>2019-10-28T11:31:56.000Z</time>
      </trkpt>
      <trkpt lat="48.6048" lon="2.17015">
        <ele>113</ele>
        <time>2019-10-28T11:31:57.000Z</time>
      </trkpt>
      <trkpt lat="48.60479" lon="2.17015">
        <ele>113</ele>
        <time>2019-10-28T11:31:58.000Z</time>
      </trkpt>
      <trkpt lat="48.60478" lon="2.17014">
        <ele>113</ele>
        <time>2019-10-28T11:31:59.000Z</time>
      </trkpt>
      <trkpt lat="48.60476" lon="2.17014">
        <ele>113</ele>
        <time>2019-10-28T11:32:00.000Z</time>
      </trkpt>
      <trkpt lat="48.60475" lon="2.17013">
        <ele>113</ele>
        <time>2019-10-28T11:32:01.000Z</time>
      </trkpt>
      <trkpt lat="48.60473" lon="2.17013">
        <ele>113</ele>
        <time>2019-10-28T11:32:02.000Z</time>
      </trkpt>
      <trkpt lat="48.60472" lon="2.17012">
        <ele>113</ele>
        <time>2019-10-28T11:32:03.000Z</time>
      </trkpt>
      <trkpt lat="48.60471" lon="2.17012">
        <ele>113</ele>
        <time>2019-10-28T11:32:04.000Z</time>
      </trkpt>
      <trkpt lat="48.6047" lon="2.17011">
        <ele>113</ele>
        <time>2019-10-28T11:32:05.000Z</time>
      </trkpt>
      <trkpt lat="48.60469" lon="2.17011">
        <ele>113</ele>
        <time>2019-10-28T11:32:06.000Z</time>
      </trkpt>
      <trkpt lat="48.60467" lon="2.17011">
        <ele>113</ele>
        <time>2019-10-28T11:32:07.000Z</time>
      </trkpt>
      <trkpt lat="48.60466" lon="2.17011">
        <ele>114</ele>
        <time>2019-10-28T11:32:08.000Z</time>
      </trkpt>
      <trkpt lat="48.60464" lon="2.1701">
        <ele>114</ele>
        <time>2019-10-28T11:32:09.000Z</time>
      </trkpt>
      <trkpt lat="48.60463" lon="2.1701">
        <ele>114</ele>
        <time>2019-10-28T11:32:10.000Z</time>
      </trkpt>
      <trkpt lat="48.60461" lon="2.1701">
        <ele>114</ele>
        <time>2019-10-28T11:32:11.000Z</time>
      </trkpt>
      <trkpt lat="48.6046" lon="2.17009">
        <ele>114</ele>
        <time>2019-10-28T11:32:12.000Z</time>
      </trkpt>
      <trkpt lat="48.60458" lon="2.17009">
        <ele>114</ele>
        <time>2019-10-28T11:32:13.000Z</time>
      </trkpt>
      <trkpt lat="48.60457" lon="2.17008">
        <ele>114</ele>
        <time>2019-10-28T11:32:14.000Z</time>
      </trkpt>
      <trkpt lat="48.60456" lon="2.17008">
        <ele>114</ele>
        <time>2019-10-28T11:32:15.000Z</time>
      </trkpt>
      <trkpt lat="48.60454" lon="2.17007">
        <ele>114</ele>
        <time>2019-10-28T11:32:16.000Z</time>
      </trkpt>
      <trkpt lat="48.60453" lon="2.17007">
        <ele>114</ele>
        <time>2019-10-28T11:32:17.000Z</time>
      </trkpt>
      <trkpt lat="48.60452" lon="2.17006">
        <ele>114</ele>
        <time>2019-10-28T11:32:18.000Z</time>
      </trkpt>
      <trkpt lat="48.6045" lon="2.17006">
        <ele>114</ele>
        <time>2019-10-28T11:32:19.000Z</time>
      </trkpt>
      <trkpt lat="48.60449" lon="2.17006">
        <ele>114</ele>
        <time>2019-10-28T11:32:20.000Z</time>
      </trkpt>
      <trkpt lat="48.60447" lon="2.17005">
        <ele>114</ele>
        <time>2019-10-28T11:32:21.000Z</time>
      </trkpt>
      <trkpt lat="48.60446" lon="2.17005">
        <ele>114</ele>
        <time>2019-10-28T11:32:22.000Z</time>
      </trkpt>
      <trkpt lat="48.60444" lon="2.17005">
        <ele>114</ele>
        <time>2019-10-28T11:32:23.000Z</time>
      </trkpt>
      <trkpt lat="48.60443" lon="2.17005">
        <ele>114</ele>
        <time>2019-10-28T11:32:24.000Z</time>
      </trkpt>
      <trkpt lat="48.60441" lon="2.17004">
        <ele>114</ele>
        <time>2019-10-28T11:32:25.000Z</time>
      </trkpt>
      <trkpt lat="48.6044" lon="2.17004">
        <ele>114</ele>
        <time>2019-10-28T11:32:26.000Z</time>
      </trkpt>
      <trkpt lat="48.60438" lon="2.17003">
        <ele>114</ele>
        <time>2019-10-28T11:32:27.000Z</time>
      </trkpt>
      <trkpt lat="48.60437" lon="2.17003">
        <ele>114</ele>
        <time>2019-10-28T11:32:28.000Z</time>
      </trkpt>
      <trkpt lat="48.60435" lon="2.17002">
        <ele>114</ele>
        <time>2019-10-28T11:32:29.000Z</time>
      </trkpt>
      <trkpt lat="48.60434" lon="2.17002">
        <ele>114</ele>
        <time>2019-10-28T11:32:30.000Z</time>
      </trkpt>
      <trkpt lat="48.60433" lon="2.17001">
        <ele>114</ele>
        <time>2019-10-28T11:32:31.000Z</time>
      </trkpt>
      <trkpt lat="48.60431" lon="2.17001">
        <ele>114</ele>
        <time>2019-10-28T11:32:32.000Z</time>
      </trkpt>
      <trkpt lat="48.6043" lon="2.17">
        <ele>114</ele>
        <time>2019-10-28T11:32:33.000Z</time>
      </trkpt>
      <trkpt lat="48.60429" lon="2.17">
        <ele>114</ele>
        <time>2019-10-28T11:32:34.000Z</time>
      </trkpt>
      <trkpt lat="48.60427" lon="2.17">
        <ele>114</ele>
        <time>2019-10-28T11:32:35.000Z</time>
      </trkpt>
      <trkpt lat="48.60426" lon="2.16999">
        <ele>114</ele>
        <time>2019-10-28T11:32:36.000Z</time>
      </trkpt>
      <trkpt lat="48.60425" lon="2.16999">
        <ele>114</ele>
        <time>2019-10-28T11:32:37.000Z</time>
      </trkpt>
      <trkpt lat="48.60423" lon="2.16999">
        <ele>114</ele>
        <time>2019-10-28T11:32:38.000Z</time>
      </trkpt>
      <trkpt lat="48.60422" lon="2.16999">
        <ele>114</ele>
        <time>2019-10-28T11:32:39.000Z</time>
      </trkpt>
      <trkpt lat="48.6042" lon="2.16999">
        <ele>114</ele>
        <time>2019-10-28T11:32:40.000Z</time>
      </trkpt>
      <trkpt lat="48.60419" lon="2.16998">
        <ele>114</ele>
        <time>2019-10-28T11:32:41.000Z</time>
      </trkpt>
      <trkpt lat="48.60418" lon="2.16998">
        <ele>114</ele>
        <time>2019-10-28T11:32:42.000Z</time>
      </trkpt>
      <trkpt lat="48.60416" lon="2.16997">
        <ele>114</ele>
        <time>2019-10-28T11:32:43.000Z</time>
      </trkpt>
      <trkpt lat="48.60415" lon="2.16997">
        <ele>114</ele>
        <time>2019-10-28T11:32:44.000Z</time>
      </trkpt>
      <trkpt lat="48.60413" lon="2.16997">
        <ele>114</ele>
        <time>2019-10-28T11:32:45.000Z</time>
      </trkpt>
      <trkpt lat="48.60412" lon="2.16996">
        <ele>114</ele>
        <time>2019-10-28T11:32:46.000Z</time>
      </trkpt>
      <trkpt lat="48.6041" lon="2.16996">
        <ele>113</ele>
        <time>2019-10-28T11:32:47.000Z</time>
      </trkpt>
      <trkpt lat="48.60409" lon="2.16996">
        <ele>113</ele>
        <time>2019-10-28T11:32:48.000Z</time>
      </trkpt>
      <trkpt lat="48.60407" lon="2.16996">
        <ele>113</ele>
        <time>2019-10-28T11:32:49.000Z</time>
      </trkpt>
      <trkpt lat="48.60406" lon="2.16996">
        <ele>113</ele>
        <time>2019-10-28T11:32:50.000Z</time>
      </trkpt>
      <trkpt lat="48.60404" lon="2.16995">
        <ele>113</ele>
        <time>2019-10-28T11:32:51.000Z</time>
      </trkpt>
      <trkpt lat="48.60403" lon="2.16995">
        <ele>113</ele>
        <time>2019-10-28T11:32:52.000Z</time>
      </trkpt>
      <trkpt lat="48.60401" lon="2.16995">
        <ele>114</ele>
        <time>2019-10-28T11:32:53.000Z</time>
      </trkpt>
      <trkpt lat="48.604" lon="2.16995">
        <ele>113</ele>
        <time>2019-10-28T11:32:54.000Z</time>
      </trkpt>
      <trkpt lat="48.60398" lon="2.16995">
        <ele>113</ele>
        <time>2019-10-28T11:32:55.000Z</time>
      </trkpt>
      <trkpt lat="48.60397" lon="2.16995">
        <ele>113</ele>
        <time>2019-10-28T11:32:56.000Z</time>
      </trkpt>
      <trkpt lat="48.60396" lon="2.16994">
        <ele>113</ele>
        <time>2019-10-28T11:32:57.000Z</time>
      </trkpt>
      <trkpt lat="48.60394" lon="2.16994">
        <ele>113</ele>
        <time>2019-10-28T11:32:58.000Z</time>
      </trkpt>
      <trkpt lat="48.60393" lon="2.16994">
        <ele>113</ele>
        <time>2019-10-28T11:32:59.000Z</time>
      </trkpt>
      <trkpt lat="48.60391" lon="2.16994">
        <ele>113</ele>
        <time>2019-10-28T11:33:00.000Z</time>
      </trkpt>
      <trkpt lat="48.6039" lon="2.16994">
        <ele>113</ele>
        <time>2019-10-28T11:33:01.000Z</time>
      </trkpt>
      <trkpt lat="48.60389" lon="2.16994">
        <ele>113</ele>
        <time>2019-10-28T11:33:02.000Z</time>
      </trkpt>
      <trkpt lat="48.60387" lon="2.16993">
        <ele>113</ele>
        <time>2019-10-28T11:33:03.000Z</time>
      </trkpt>
      <trkpt lat="48.60386" lon="2.16993">
        <ele>113</ele>
        <time>2019-10-28T11:33:04.000Z</time>
      </trkpt>
      <trkpt lat="48.60384" lon="2.16993">
        <ele>113</ele>
        <time>2019-10-28T11:33:05.000Z</time>
      </trkpt>
      <trkpt lat="48.60383" lon="2.16993">
        <ele>113</ele>
        <time>2019-10-28T11:33:06.000Z</time>
      </trkpt>
      <trkpt lat="48.60381" lon="2.16993">
        <ele>112</ele>
        <time>2019-10-28T11:33:07.000Z</time>
      </trkpt>
      <trkpt lat="48.6038" lon="2.16993">
        <ele>112</ele>
        <time>2019-10-28T11:33:08.000Z</time>
      </trkpt>
      <trkpt lat="48.60379" lon="2.16993">
        <ele>112</ele>
        <time>2019-10-28T11:33:09.000Z</time>
      </trkpt>
      <trkpt lat="48.60377" lon="2.16992">
        <ele>112</ele>
        <time>2019-10-28T11:33:10.000Z</time>
      </trkpt>
      <trkpt lat="48.60376" lon="2.16992">
        <ele>112</ele>
        <time>2019-10-28T11:33:11.000Z</time>
      </trkpt>
      <trkpt lat="48.60375" lon="2.16992">
        <ele>112</ele>
        <time>2019-10-28T11:33:12.000Z</time>
      </trkpt>
      <trkpt lat="48.60373" lon="2.16992">
        <ele>112</ele>
        <time>2019-10-28T11:33:13.000Z</time>
      </trkpt>
      <trkpt lat="48.60372" lon="2.16992">
        <ele>111</ele>
        <time>2019-10-28T11:33:14.000Z</time>
      </trkpt>
      <trkpt lat="48.6037" lon="2.16992">
        <ele>111</ele>
        <time>2019-10-28T11:33:15.000Z</time>
      </trkpt>
      <trkpt lat="48.60369" lon="2.16992">
        <ele>111</ele>
        <time>2019-10-28T11:33:16.000Z</time>
      </trkpt>
      <trkpt lat="48.60367" lon="2.16992">
        <ele>111</ele>
        <time>2019-10-28T11:33:17.000Z</time>
      </trkpt>
      <trkpt lat="48.60366" lon="2.16991">
        <ele>111</ele>
        <time>2019-10-28T11:33:18.000Z</time>
      </trkpt>
      <trkpt lat="48.60364" lon="2.16991">
        <ele>111</ele>
        <time>2019-10-28T11:33:19.000Z</time>
      </trkpt>
      <trkpt lat="48.60363" lon="2.16991">
        <ele>110</ele>
        <time>2019-10-28T11:33:20.000Z</time>
      </trkpt>
      <trkpt lat="48.60362" lon="2.16991">
        <ele>110</ele>
        <time>2019-10-28T11:33:21.000Z</time>
      </trkpt>
      <trkpt lat="48.6036" lon="2.16991">
        <ele>110</ele>
        <time>2019-10-28T11:33:22.000Z</time>
      </trkpt>
      <trkpt lat="48.60359" lon="2.16991">
        <ele>110</ele>
        <time>2019-10-28T11:33:23.000Z</time>
      </trkpt>
      <trkpt lat="48.60358" lon="2.16991">
        <ele>111</ele>
        <time>2019-10-28T11:33:24.000Z</time>
      </trkpt>
      <trkpt lat="48.60357" lon="2.16991">
        <ele>111</ele>
        <time>2019-10-28T11:33:25.000Z</time>
      </trkpt>
      <trkpt lat="48.60356" lon="2.16991">
        <ele>111</ele>
        <time>2019-10-28T11:33:26.000Z</time>
      </trkpt>
      <trkpt lat="48.60355" lon="2.16991">
        <ele>110</ele>
        <time>2019-10-28T11:33:27.000Z</time>
      </trkpt>
      <trkpt lat="48.60354" lon="2.16991">
        <ele>111</ele>
        <time>2019-10-28T11:33:28.000Z</time>
      </trkpt>
      <trkpt lat="48.60352" lon="2.1699">
        <ele>111</ele>
        <time>2019-10-28T11:33:29.000Z</time>
      </trkpt>
      <trkpt lat="48.60351" lon="2.1699">
        <ele>111</ele>
        <time>2019-10-28T11:33:30.000Z</time>
      </trkpt>
      <trkpt lat="48.60351" lon="2.1699">
        <ele>111</ele>
        <time>2019-10-28T11:33:31.000Z</time>
      </trkpt>
      <trkpt lat="48.6035" lon="2.1699">
        <ele>111</ele>
        <time>2019-10-28T11:33:32.000Z</time>
      </trkpt>
      <trkpt lat="48.6035" lon="2.1699">
        <ele>111</ele>
        <time>2019-10-28T11:33:33.000Z</time>
      </trkpt>
      <trkpt lat="48.60348" lon="2.16991">
        <ele>111</ele>
        <time>2019-10-28T11:33:34.000Z</time>
      </trkpt>
      <trkpt lat="48.60347" lon="2.16991">
        <ele>110</ele>
        <time>2019-10-28T11:33:35.000Z</time>
      </trkpt>
      <trkpt lat="48.60346" lon="2.16991">
        <ele>110</ele>
        <time>2019-10-28T11:33:36.000Z</time>
      </trkpt>
      <trkpt lat="48.60344" lon="2.16991">
        <ele>110</ele>
        <time>2019-10-28T11:33:37.000Z</time>
      </trkpt>
      <trkpt lat="48.60343" lon="2.16991">
        <ele>110</ele>
        <time>2019-10-28T11:33:38.000Z</time>
      </trkpt>
      <trkpt lat="48.60342" lon="2.16991">
        <ele>110</ele>
        <time>2019-10-28T11:33:39.000Z</time>
      </trkpt>
      <trkpt lat="48.6034" lon="2.16991">
        <ele>110</ele>
        <time>2019-10-28T11:33:40.000Z</time>
      </trkpt>
      <trkpt lat="48.60339" lon="2.16991">
        <ele>110</ele>
        <time>2019-10-28T11:33:41.000Z</time>
      </trkpt>
      <trkpt lat="48.60337" lon="2.16991">
        <ele>109</ele>
        <time>2019-10-28T11:33:42.000Z</time>
      </trkpt>
      <trkpt lat="48.60336" lon="2.1699">
        <ele>109</ele>
        <time>2019-10-28T11:33:43.000Z</time>
      </trkpt>
      <trkpt lat="48.60334" lon="2.1699">
        <ele>109</ele>
        <time>2019-10-28T11:33:44.000Z</time>
      </trkpt>
      <trkpt lat="48.60333" lon="2.1699">
        <ele>109</ele>
        <time>2019-10-28T11:33:45.000Z</time>
      </trkpt>
      <trkpt lat="48.60331" lon="2.1699">
        <ele>109</ele>
        <time>2019-10-28T11:33:46.000Z</time>
      </trkpt>
      <trkpt lat="48.6033" lon="2.1699">
        <ele>109</ele>
        <time>2019-10-28T11:33:47.000Z</time>
      </trkpt>
      <trkpt lat="48.60329" lon="2.1699">
        <ele>108</ele>
        <time>2019-10-28T11:33:48.000Z</time>
      </trkpt>
      <trkpt lat="48.60327" lon="2.16989">
        <ele>108</ele>
        <time>2019-10-28T11:33:49.000Z</time>
      </trkpt>
      <trkpt lat="48.60326" lon="2.16989">
        <ele>108</ele>
        <time>2019-10-28T11:33:50.000Z</time>
      </trkpt>
      <trkpt lat="48.60324" lon="2.16989">
        <ele>108</ele>
        <time>2019-10-28T11:33:51.000Z</time>
      </trkpt>
      <trkpt lat="48.60323" lon="2.16989">
        <ele>108</ele>
        <time>2019-10-28T11:33:52.000Z</time>
      </trkpt>
      <trkpt lat="48.60322" lon="2.16989">
        <ele>108</ele>
        <time>2019-10-28T11:33:53.000Z</time>
      </trkpt>
      <trkpt lat="48.6032" lon="2.1699">
        <ele>107</ele>
        <time>2019-10-28T11:33:54.000Z</time>
      </trkpt>
      <trkpt lat="48.60319" lon="2.1699">
        <ele>107</ele>
        <time>2019-10-28T11:33:55.000Z</time>
      </trkpt>
      <trkpt lat="48.60318" lon="2.16989">
        <ele>107</ele>
        <time>2019-10-28T11:33:56.000Z</time>
      </trkpt>
      <trkpt lat="48.60316" lon="2.16989">
        <ele>107</ele>
        <time>2019-10-28T11:33:57.000Z</time>
      </trkpt>
      <trkpt lat="48.60315" lon="2.16989">
        <ele>106</ele>
        <time>2019-10-28T11:33:58.000Z</time>
      </trkpt>
      <trkpt lat="48.60313" lon="2.16988">
        <ele>106</ele>
        <time>2019-10-28T11:33:59.000Z</time>
      </trkpt>
      <trkpt lat="48.60312" lon="2.16988">
        <ele>106</ele>
        <time>2019-10-28T11:34:00.000Z</time>
      </trkpt>
      <trkpt lat="48.6031" lon="2.16988">
        <ele>106</ele>
        <time>2019-10-28T11:34:01.000Z</time>
      </trkpt>
      <trkpt lat="48.60309" lon="2.16988">
        <ele>106</ele>
        <time>2019-10-28T11:34:02.000Z</time>
      </trkpt>
      <trkpt lat="48.60308" lon="2.16987">
        <ele>106</ele>
        <time>2019-10-28T11:34:03.000Z</time>
      </trkpt>
      <trkpt lat="48.60306" lon="2.16987">
        <ele>106</ele>
        <time>2019-10-28T11:34:04.000Z</time>
      </trkpt>
      <trkpt lat="48.60305" lon="2.16987">
        <ele>106</ele>
        <time>2019-10-28T11:34:05.000Z</time>
      </trkpt>
      <trkpt lat="48.60303" lon="2.16986">
        <ele>106</ele>
        <time>2019-10-28T11:34:06.000Z</time>
      </trkpt>
      <trkpt lat="48.60302" lon="2.16986">
        <ele>106</ele>
        <time>2019-10-28T11:34:07.000Z</time>
      </trkpt>
      <trkpt lat="48.603" lon="2.16986">
        <ele>106</ele>
        <time>2019-10-28T11:34:08.000Z</time>
      </trkpt>
      <trkpt lat="48.60299" lon="2.16986">
        <ele>106</ele>
        <time>2019-10-28T11:34:09.000Z</time>
      </trkpt>
      <trkpt lat="48.60297" lon="2.16986">
        <ele>106</ele>
        <time>2019-10-28T11:34:10.000Z</time>
      </trkpt>
      <trkpt lat="48.60296" lon="2.16986">
        <ele>105</ele>
        <time>2019-10-28T11:34:11.000Z</time>
      </trkpt>
      <trkpt lat="48.60294" lon="2.16985">
        <ele>105</ele>
        <time>2019-10-28T11:34:12.000Z</time>
      </trkpt>
      <trkpt lat="48.60293" lon="2.16985">
        <ele>105</ele>
        <time>2019-10-28T11:34:13.000Z</time>
      </trkpt>
      <trkpt lat="48.60291" lon="2.16985">
        <ele>104</ele>
        <time>2019-10-28T11:34:14.000Z</time>
      </trkpt>
      <trkpt lat="48.6029" lon="2.16984">
        <ele>104</ele>
        <time>2019-10-28T11:34:15.000Z</time>
      </trkpt>
      <trkpt lat="48.60289" lon="2.16984">
        <ele>104</ele>
        <time>2019-10-28T11:34:16.000Z</time>
      </trkpt>
      <trkpt lat="48.60287" lon="2.16983">
        <ele>104</ele>
        <time>2019-10-28T11:34:17.000Z</time>
      </trkpt>
      <trkpt lat="48.60286" lon="2.16983">
        <ele>104</ele>
        <time>2019-10-28T11:34:18.000Z</time>
      </trkpt>
      <trkpt lat="48.60284" lon="2.16983">
        <ele>103</ele>
        <time>2019-10-28T11:34:19.000Z</time>
      </trkpt>
      <trkpt lat="48.60283" lon="2.16982">
        <ele>103</ele>
        <time>2019-10-28T11:34:20.000Z</time>
      </trkpt>
      <trkpt lat="48.60281" lon="2.16982">
        <ele>103</ele>
        <time>2019-10-28T11:34:21.000Z</time>
      </trkpt>
      <trkpt lat="48.6028" lon="2.16982">
        <ele>103</ele>
        <time>2019-10-28T11:34:22.000Z</time>
      </trkpt>
      <trkpt lat="48.60279" lon="2.16982">
        <ele>102</ele>
        <time>2019-10-28T11:34:23.000Z</time>
      </trkpt>
      <trkpt lat="48.60277" lon="2.16981">
        <ele>103</ele>
        <time>2019-10-28T11:34:24.000Z</time>
      </trkpt>
      <trkpt lat="48.60276" lon="2.1698">
        <ele>102</ele>
        <time>2019-10-28T11:34:25.000Z</time>
      </trkpt>
      <trkpt lat="48.60274" lon="2.16979">
        <ele>103</ele>
        <time>2019-10-28T11:34:26.000Z</time>
      </trkpt>
      <trkpt lat="48.60273" lon="2.16979">
        <ele>103</ele>
        <time>2019-10-28T11:34:27.000Z</time>
      </trkpt>
      <trkpt lat="48.60271" lon="2.16979">
        <ele>103</ele>
        <time>2019-10-28T11:34:28.000Z</time>
      </trkpt>
      <trkpt lat="48.6027" lon="2.16978">
        <ele>102</ele>
        <time>2019-10-28T11:34:29.000Z</time>
      </trkpt>
      <trkpt lat="48.60268" lon="2.16978">
        <ele>102</ele>
        <time>2019-10-28T11:34:30.000Z</time>
      </trkpt>
      <trkpt lat="48.60267" lon="2.16978">
        <ele>102</ele>
        <time>2019-10-28T11:34:31.000Z</time>
      </trkpt>
      <trkpt lat="48.60265" lon="2.16978">
        <ele>102</ele>
        <time>2019-10-28T11:34:32.000Z</time>
      </trkpt>
      <trkpt lat="48.60264" lon="2.16977">
        <ele>102</ele>
        <time>2019-10-28T11:34:33.000Z</time>
      </trkpt>
      <trkpt lat="48.60262" lon="2.16977">
        <ele>102</ele>
        <time>2019-10-28T11:34:34.000Z</time>
      </trkpt>
      <trkpt lat="48.60261" lon="2.16977">
        <ele>102</ele>
        <time>2019-10-28T11:34:35.000Z</time>
      </trkpt>
      <trkpt lat="48.60259" lon="2.16976">
        <ele>102</ele>
        <time>2019-10-28T11:34:36.000Z</time>
      </trkpt>
      <trkpt lat="48.60258" lon="2.16976">
        <ele>101</ele>
        <time>2019-10-28T11:34:37.000Z</time>
      </trkpt>
      <trkpt lat="48.60256" lon="2.16976">
        <ele>101</ele>
        <time>2019-10-28T11:34:38.000Z</time>
      </trkpt>
      <trkpt lat="48.60255" lon="2.16976">
        <ele>101</ele>
        <time>2019-10-28T11:34:39.000Z</time>
      </trkpt>
      <trkpt lat="48.60253" lon="2.16975">
        <ele>101</ele>
        <time>2019-10-28T11:34:40.000Z</time>
      </trkpt>
      <trkpt lat="48.60252" lon="2.16975">
        <ele>101</ele>
        <time>2019-10-28T11:34:41.000Z</time>
      </trkpt>
      <trkpt lat="48.6025" lon="2.16975">
        <ele>101</ele>
        <time>2019-10-28T11:34:42.000Z</time>
      </trkpt>
      <trkpt lat="48.60249" lon="2.16974">
        <ele>101</ele>
        <time>2019-10-28T11:34:43.000Z</time>
      </trkpt>
      <trkpt lat="48.60247" lon="2.16974">
        <ele>101</ele>
        <time>2019-10-28T11:34:44.000Z</time>
      </trkpt>
      <trkpt lat="48.60246" lon="2.16974">
        <ele>101</ele>
        <time>2019-10-28T11:34:45.000Z</time>
      </trkpt>
      <trkpt lat="48.60244" lon="2.16973">
        <ele>101</ele>
        <time>2019-10-28T11:34:46.000Z</time>
      </trkpt>
      <trkpt lat="48.60243" lon="2.16973">
        <ele>101</ele>
        <time>2019-10-28T11:34:47.000Z</time>
      </trkpt>
      <trkpt lat="48.60241" lon="2.16972">
        <ele>101</ele>
        <time>2019-10-28T11:34:48.000Z</time>
      </trkpt>
      <trkpt lat="48.60239" lon="2.16972">
        <ele>101</ele>
        <time>2019-10-28T11:34:49.000Z</time>
      </trkpt>
      <trkpt lat="48.60238" lon="2.16972">
        <ele>101</ele>
        <time>2019-10-28T11:34:50.000Z</time>
      </trkpt>
      <trkpt lat="48.60236" lon="2.16972">
        <ele>101</ele>
        <time>2019-10-28T11:34:51.000Z</time>
      </trkpt>
      <trkpt lat="48.60234" lon="2.16971">
        <ele>101</ele>
        <time>2019-10-28T11:34:52.000Z</time>
      </trkpt>
      <trkpt lat="48.60233" lon="2.16971">
        <ele>101</ele>
        <time>2019-10-28T11:34:53.000Z</time>
      </trkpt>
      <trkpt lat="48.60231" lon="2.16971">
        <ele>101</ele>
        <time>2019-10-28T11:34:54.000Z</time>
      </trkpt>
      <trkpt lat="48.6023" lon="2.16971">
        <ele>101</ele>
        <time>2019-10-28T11:34:55.000Z</time>
      </trkpt>
      <trkpt lat="48.60228" lon="2.1697">
        <ele>101</ele>
        <time>2019-10-28T11:34:56.000Z</time>
      </trkpt>
      <trkpt lat="48.60227" lon="2.1697">
        <ele>101</ele>
        <time>2019-10-28T11:34:57.000Z</time>
      </trkpt>
      <trkpt lat="48.60225" lon="2.16969">
        <ele>101</ele>
        <time>2019-10-28T11:34:58.000Z</time>
      </trkpt>
      <trkpt lat="48.60224" lon="2.16969">
        <ele>101</ele>
        <time>2019-10-28T11:34:59.000Z</time>
      </trkpt>
      <trkpt lat="48.60222" lon="2.16969">
        <ele>101</ele>
        <time>2019-10-28T11:35:00.000Z</time>
      </trkpt>
      <trkpt lat="48.60221" lon="2.16968">
        <ele>101</ele>
        <time>2019-10-28T11:35:01.000Z</time>
      </trkpt>
      <trkpt lat="48.60219" lon="2.16968">
        <ele>100</ele>
        <time>2019-10-28T11:35:02.000Z</time>
      </trkpt>
      <trkpt lat="48.60218" lon="2.16968">
        <ele>100</ele>
        <time>2019-10-28T11:35:03.000Z</time>
      </trkpt>
      <trkpt lat="48.60216" lon="2.16968">
        <ele>100</ele>
        <time>2019-10-28T11:35:04.000Z</time>
      </trkpt>
      <trkpt lat="48.60215" lon="2.16967">
        <ele>100</ele>
        <time>2019-10-28T11:35:05.000Z</time>
      </trkpt>
      <trkpt lat="48.60213" lon="2.16967">
        <ele>100</ele>
        <time>2019-10-28T11:35:06.000Z</time>
      </trkpt>
      <trkpt lat="48.60212" lon="2.16967">
        <ele>100</ele>
        <time>2019-10-28T11:35:07.000Z</time>
      </trkpt>
      <trkpt lat="48.6021" lon="2.16967">
        <ele>100</ele>
        <time>2019-10-28T11:35:08.000Z</time>
      </trkpt>
      <trkpt lat="48.60209" lon="2.16967">
        <ele>100</ele>
        <time>2019-10-28T11:35:09.000Z</time>
      </trkpt>
      <trkpt lat="48.60207" lon="2.16967">
        <ele>100</ele>
        <time>2019-10-28T11:35:10.000Z</time>
      </trkpt>
      <trkpt lat="48.60206" lon="2.16966">
        <ele>100</ele>
        <time>2019-10-28T11:35:11.000Z</time>
      </trkpt>
      <trkpt lat="48.60205" lon="2.16966">
        <ele>100</ele>
        <time>2019-10-28T11:35:12.000Z</time>
      </trkpt>
      <trkpt lat="48.60204" lon="2.16966">
        <ele>100</ele>
        <time>2019-10-28T11:35:13.000Z</time>
      </trkpt>
      <trkpt lat="48.60202" lon="2.16965">
        <ele>100</ele>
        <time>2019-10-28T11:35:14.000Z</time>
      </trkpt>
      <trkpt lat="48.60201" lon="2.16965">
        <ele>100</ele>
        <time>2019-10-28T11:35:15.000Z</time>
      </trkpt>
      <trkpt lat="48.602" lon="2.16965">
        <ele>100</ele>
        <time>2019-10-28T11:35:16.000Z</time>
      </trkpt>
      <trkpt lat="48.60198" lon="2.16964">
        <ele>100</ele>
        <time>2019-10-28T11:35:17.000Z</time>
      </trkpt>
      <trkpt lat="48.60197" lon="2.16964">
        <ele>100</ele>
        <time>2019-10-28T11:35:18.000Z</time>
      </trkpt>
      <trkpt lat="48.60196" lon="2.16964">
        <ele>99</ele>
        <time>2019-10-28T11:35:19.000Z</time>
      </trkpt>
      <trkpt lat="48.60195" lon="2.16964">
        <ele>99</ele>
        <time>2019-10-28T11:35:20.000Z</time>
      </trkpt>
      <trkpt lat="48.60194" lon="2.16964">
        <ele>99</ele>
        <time>2019-10-28T11:35:21.000Z</time>
      </trkpt>
      <trkpt lat="48.60192" lon="2.16964">
        <ele>99</ele>
        <time>2019-10-28T11:35:22.000Z</time>
      </trkpt>
      <trkpt lat="48.60191" lon="2.16963">
        <ele>98</ele>
        <time>2019-10-28T11:35:23.000Z</time>
      </trkpt>
      <trkpt lat="48.6019" lon="2.16963">
        <ele>98</ele>
        <time>2019-10-28T11:35:24.000Z</time>
      </trkpt>
      <trkpt lat="48.60189" lon="2.16963">
        <ele>98</ele>
        <time>2019-10-28T11:35:25.000Z</time>
      </trkpt>
      <trkpt lat="48.60187" lon="2.16962">
        <ele>98</ele>
        <time>2019-10-28T11:35:26.000Z</time>
      </trkpt>
      <trkpt lat="48.60186" lon="2.16962">
        <ele>98</ele>
        <time>2019-10-28T11:35:27.000Z</time>
      </trkpt>
      <trkpt lat="48.60185" lon="2.16962">
        <ele>98</ele>
        <time>2019-10-28T11:35:28.000Z</time>
      </trkpt>
      <trkpt lat="48.60184" lon="2.16962">
        <ele>98</ele>
        <time>2019-10-28T11:35:29.000Z</time>
      </trkpt>
      <trkpt lat="48.60182" lon="2.16962">
        <ele>98</ele>
        <time>2019-10-28T11:35:30.000Z</time>
      </trkpt>
      <trkpt lat="48.60181" lon="2.16962">
        <ele>97</ele>
        <time>2019-10-28T11:35:31.000Z</time>
      </trkpt>
      <trkpt lat="48.6018" lon="2.16962">
        <ele>96</ele>
        <time>2019-10-28T11:35:32.000Z</time>
      </trkpt>
      <trkpt lat="48.60179" lon="2.16962">
        <ele>97</ele>
        <time>2019-10-28T11:35:33.000Z</time>
      </trkpt>
      <trkpt lat="48.60178" lon="2.16962">
        <ele>96</ele>
        <time>2019-10-28T11:35:34.000Z</time>
      </trkpt>
      <trkpt lat="48.60177" lon="2.16962">
        <ele>96</ele>
        <time>2019-10-28T11:35:35.000Z</time>
      </trkpt>
      <trkpt lat="48.60176" lon="2.16962">
        <ele>96</ele>
        <time>2019-10-28T11:35:36.000Z</time>
      </trkpt>
      <trkpt lat="48.60175" lon="2.16961">
        <ele>96</ele>
        <time>2019-10-28T11:35:37.000Z</time>
      </trkpt>
      <trkpt lat="48.60174" lon="2.16961">
        <ele>96</ele>
        <time>2019-10-28T11:35:38.000Z</time>
      </trkpt>
      <trkpt lat="48.60173" lon="2.16961">
        <ele>96</ele>
        <time>2019-10-28T11:35:39.000Z</time>
      </trkpt>
      <trkpt lat="48.60172" lon="2.16961">
        <ele>96</ele>
        <time>2019-10-28T11:35:40.000Z</time>
      </trkpt>
      <trkpt lat="48.60171" lon="2.16961">
        <ele>95</ele>
        <time>2019-10-28T11:35:41.000Z</time>
      </trkpt>
      <trkpt lat="48.6017" lon="2.16961">
        <ele>95</ele>
        <time>2019-10-28T11:35:42.000Z</time>
      </trkpt>
      <trkpt lat="48.60169" lon="2.16961">
        <ele>95</ele>
        <time>2019-10-28T11:35:43.000Z</time>
      </trkpt>
      <trkpt lat="48.60168" lon="2.16961">
        <ele>95</ele>
        <time>2019-10-28T11:35:44.000Z</time>
      </trkpt>
      <trkpt lat="48.60167" lon="2.16961">
        <ele>95</ele>
        <time>2019-10-28T11:35:45.000Z</time>
      </trkpt>
      <trkpt lat="48.60166" lon="2.16961">
        <ele>95</ele>
        <time>2019-10-28T11:35:46.000Z</time>
      </trkpt>
      <trkpt lat="48.60164" lon="2.16961">
        <ele>95</ele>
        <time>2019-10-28T11:35:47.000Z</time>
      </trkpt>
      <trkpt lat="48.60163" lon="2.16962">
        <ele>95</ele>
        <time>2019-10-28T11:35:48.000Z</time>
      </trkpt>
      <trkpt lat="48.60161" lon="2.16962">
        <ele>95</ele>
        <time>2019-10-28T11:35:49.000Z</time>
      </trkpt>
      <trkpt lat="48.6016" lon="2.16963">
        <ele>95</ele>
        <time>2019-10-28T11:35:50.000Z</time>
      </trkpt>
      <trkpt lat="48.60158" lon="2.16964">
        <ele>95</ele>
        <time>2019-10-28T11:35:51.000Z</time>
      </trkpt>
      <trkpt lat="48.60157" lon="2.16964">
        <ele>95</ele>
        <time>2019-10-28T11:35:52.000Z</time>
      </trkpt>
      <trkpt lat="48.60155" lon="2.16965">
        <ele>95</ele>
        <time>2019-10-28T11:35:53.000Z</time>
      </trkpt>
      <trkpt lat="48.60154" lon="2.16966">
        <ele>95</ele>
        <time>2019-10-28T11:35:54.000Z</time>
      </trkpt>
      <trkpt lat="48.60153" lon="2.16966">
        <ele>95</ele>
        <time>2019-10-28T11:35:55.000Z</time>
      </trkpt>
      <trkpt lat="48.60151" lon="2.16967">
        <ele>95</ele>
        <time>2019-10-28T11:35:56.000Z</time>
      </trkpt>
      <trkpt lat="48.6015" lon="2.16967">
        <ele>95</ele>
        <time>2019-10-28T11:35:57.000Z</time>
      </trkpt>
      <trkpt lat="48.60149" lon="2.16968">
        <ele>95</ele>
        <time>2019-10-28T11:35:58.000Z</time>
      </trkpt>
      <trkpt lat="48.60148" lon="2.16968">
        <ele>95</ele>
        <time>2019-10-28T11:35:59.000Z</time>
      </trkpt>
      <trkpt lat="48.60147" lon="2.16969">
        <ele>95</ele>
        <time>2019-10-28T11:36:00.000Z</time>
      </trkpt>
      <trkpt lat="48.60146" lon="2.16969">
        <ele>95</ele>
        <time>2019-10-28T11:36:01.000Z</time>
      </trkpt>
      <trkpt lat="48.60145" lon="2.16969">
        <ele>95</ele>
        <time>2019-10-28T11:36:02.000Z</time>
      </trkpt>
      <trkpt lat="48.60144" lon="2.1697">
        <ele>95</ele>
        <time>2019-10-28T11:36:03.000Z</time>
      </trkpt>
      <trkpt lat="48.60143" lon="2.1697">
        <ele>94</ele>
        <time>2019-10-28T11:36:04.000Z</time>
      </trkpt>
      <trkpt lat="48.60142" lon="2.16971">
        <ele>94</ele>
        <time>2019-10-28T11:36:05.000Z</time>
      </trkpt>
      <trkpt lat="48.60141" lon="2.16971">
        <ele>94</ele>
        <time>2019-10-28T11:36:06.000Z</time>
      </trkpt>
      <trkpt lat="48.6014" lon="2.16972">
        <ele>93</ele>
        <time>2019-10-28T11:36:07.000Z</time>
      </trkpt>
      <trkpt lat="48.6014" lon="2.16972">
        <ele>93</ele>
        <time>2019-10-28T11:36:08.000Z</time>
      </trkpt>
      <trkpt lat="48.60138" lon="2.16973">
        <ele>94</ele>
        <time>2019-10-28T11:36:09.000Z</time>
      </trkpt>
      <trkpt lat="48.60137" lon="2.16973">
        <ele>94</ele>
        <time>2019-10-28T11:36:10.000Z</time>
      </trkpt>
      <trkpt lat="48.60135" lon="2.16974">
        <ele>94</ele>
        <time>2019-10-28T11:36:11.000Z</time>
      </trkpt>
      <trkpt lat="48.60133" lon="2.16975">
        <ele>95</ele>
        <time>2019-10-28T11:36:12.000Z</time>
      </trkpt>
      <trkpt lat="48.60131" lon="2.16976">
        <ele>95</ele>
        <time>2019-10-28T11:36:13.000Z</time>
      </trkpt>
      <trkpt lat="48.60129" lon="2.16977">
        <ele>96</ele>
        <time>2019-10-28T11:36:14.000Z</time>
      </trkpt>
      <trkpt lat="48.60127" lon="2.16977">
        <ele>96</ele>
        <time>2019-10-28T11:36:15.000Z</time>
      </trkpt>
      <trkpt lat="48.60126" lon="2.16978">
        <ele>95</ele>
        <time>2019-10-28T11:36:16.000Z</time>
      </trkpt>
      <trkpt lat="48.60125" lon="2.16979">
        <ele>95</ele>
        <time>2019-10-28T11:36:17.000Z</time>
      </trkpt>
      <trkpt lat="48.60123" lon="2.1698">
        <ele>95</ele>
        <time>2019-10-28T11:36:18.000Z</time>
      </trkpt>
      <trkpt lat="48.60122" lon="2.16981">
        <ele>95</ele>
        <time>2019-10-28T11:36:19.000Z</time>
      </trkpt>
      <trkpt lat="48.6012" lon="2.16981">
        <ele>95</ele>
        <time>2019-10-28T11:36:20.000Z</time>
      </trkpt>
      <trkpt lat="48.60119" lon="2.16982">
        <ele>95</ele>
        <time>2019-10-28T11:36:21.000Z</time>
      </trkpt>
      <trkpt lat="48.60117" lon="2.16982">
        <ele>96</ele>
        <time>2019-10-28T11:36:22.000Z</time>
      </trkpt>
      <trkpt lat="48.60116" lon="2.16983">
        <ele>96</ele>
        <time>2019-10-28T11:36:23.000Z</time>
      </trkpt>
      <trkpt lat="48.60114" lon="2.16984">
        <ele>96</ele>
        <time>2019-10-28T11:36:24.000Z</time>
      </trkpt>
      <trkpt lat="48.60113" lon="2.16984">
        <ele>96</ele>
        <time>2019-10-28T11:36:25.000Z</time>
      </trkpt>
      <trkpt lat="48.60111" lon="2.16985">
        <ele>96</ele>
        <time>2019-10-28T11:36:26.000Z</time>
      </trkpt>
      <trkpt lat="48.6011" lon="2.16986">
        <ele>95</ele>
        <time>2019-10-28T11:36:27.000Z</time>
      </trkpt>
      <trkpt lat="48.60109" lon="2.16986">
        <ele>95</ele>
        <time>2019-10-28T11:36:28.000Z</time>
      </trkpt>
      <trkpt lat="48.60108" lon="2.16987">
        <ele>95</ele>
        <time>2019-10-28T11:36:29.000Z</time>
      </trkpt>
      <trkpt lat="48.60107" lon="2.16988">
        <ele>96</ele>
        <time>2019-10-28T11:36:30.000Z</time>
      </trkpt>
      <trkpt lat="48.60105" lon="2.16988">
        <ele>96</ele>
        <time>2019-10-28T11:36:31.000Z</time>
      </trkpt>
      <trkpt lat="48.60104" lon="2.16989">
        <ele>96</ele>
        <time>2019-10-28T11:36:32.000Z</time>
      </trkpt>
      <trkpt lat="48.60102" lon="2.1699">
        <ele>96</ele>
        <time>2019-10-28T11:36:33.000Z</time>
      </trkpt>
      <trkpt lat="48.60101" lon="2.16991">
        <ele>95</ele>
        <time>2019-10-28T11:36:34.000Z</time>
      </trkpt>
      <trkpt lat="48.60099" lon="2.16992">
        <ele>95</ele>
        <time>2019-10-28T11:36:35.000Z</time>
      </trkpt>
      <trkpt lat="48.60098" lon="2.16992">
        <ele>95</ele>
        <time>2019-10-28T11:36:36.000Z</time>
      </trkpt>
      <trkpt lat="48.60097" lon="2.16993">
        <ele>96</ele>
        <time>2019-10-28T11:36:37.000Z</time>
      </trkpt>
      <trkpt lat="48.60095" lon="2.16994">
        <ele>96</ele>
        <time>2019-10-28T11:36:38.000Z</time>
      </trkpt>
      <trkpt lat="48.60094" lon="2.16994">
        <ele>96</ele>
        <time>2019-10-28T11:36:39.000Z</time>
      </trkpt>
      <trkpt lat="48.60092" lon="2.16995">
        <ele>96</ele>
        <time>2019-10-28T11:36:40.000Z</time>
      </trkpt>
      <trkpt lat="48.60091" lon="2.16995">
        <ele>96</ele>
        <time>2019-10-28T11:36:41.000Z</time>
      </trkpt>
      <trkpt lat="48.6009" lon="2.16996">
        <ele>96</ele>
        <time>2019-10-28T11:36:42.000Z</time>
      </trkpt>
      <trkpt lat="48.60088" lon="2.16997">
        <ele>96</ele>
        <time>2019-10-28T11:36:43.000Z</time>
      </trkpt>
      <trkpt lat="48.60087" lon="2.16997">
        <ele>97</ele>
        <time>2019-10-28T11:36:44.000Z</time>
      </trkpt>
      <trkpt lat="48.60086" lon="2.16998">
        <ele>97</ele>
        <time>2019-10-28T11:36:45.000Z</time>
      </trkpt>
      <trkpt lat="48.60084" lon="2.16998">
        <ele>97</ele>
        <time>2019-10-28T11:36:46.000Z</time>
      </trkpt>
      <trkpt lat="48.60083" lon="2.16999">
        <ele>97</ele>
        <time>2019-10-28T11:36:47.000Z</time>
      </trkpt>
      <trkpt lat="48.60081" lon="2.16999">
        <ele>98</ele>
        <time>2019-10-28T11:36:48.000Z</time>
      </trkpt>
      <trkpt lat="48.6008" lon="2.17">
        <ele>98</ele>
        <time>2019-10-28T11:36:49.000Z</time>
      </trkpt>
      <trkpt lat="48.60078" lon="2.17">
        <ele>98</ele>
        <time>2019-10-28T11:36:50.000Z</time>
      </trkpt>
      <trkpt lat="48.60077" lon="2.17001">
        <ele>98</ele>
        <time>2019-10-28T11:36:51.000Z</time>
      </trkpt>
      <trkpt lat="48.60075" lon="2.17001">
        <ele>98</ele>
        <time>2019-10-28T11:36:52.000Z</time>
      </trkpt>
      <trkpt lat="48.60074" lon="2.17002">
        <ele>98</ele>
        <time>2019-10-28T11:36:53.000Z</time>
      </trkpt>
      <trkpt lat="48.60073" lon="2.17003">
        <ele>98</ele>
        <time>2019-10-28T11:36:54.000Z</time>
      </trkpt>
      <trkpt lat="48.60072" lon="2.17004">
        <ele>98</ele>
        <time>2019-10-28T11:36:55.000Z</time>
      </trkpt>
      <trkpt lat="48.60072" lon="2.17005">
        <ele>97</ele>
        <time>2019-10-28T11:36:56.000Z</time>
      </trkpt>
      <trkpt lat="48.60071" lon="2.17005">
        <ele>96</ele>
        <time>2019-10-28T11:36:57.000Z</time>
      </trkpt>
      <trkpt lat="48.60069" lon="2.17006">
        <ele>96</ele>
        <time>2019-10-28T11:36:58.000Z</time>
      </trkpt>
      <trkpt lat="48.60068" lon="2.17006">
        <ele>96</ele>
        <time>2019-10-28T11:36:59.000Z</time>
      </trkpt>
      <trkpt lat="48.60067" lon="2.17007">
        <ele>97</ele>
        <time>2019-10-28T11:37:00.000Z</time>
      </trkpt>
      <trkpt lat="48.60065" lon="2.17007">
        <ele>97</ele>
        <time>2019-10-28T11:37:01.000Z</time>
      </trkpt>
      <trkpt lat="48.60064" lon="2.17008">
        <ele>96</ele>
        <time>2019-10-28T11:37:02.000Z</time>
      </trkpt>
      <trkpt lat="48.60063" lon="2.17009">
        <ele>96</ele>
        <time>2019-10-28T11:37:03.000Z</time>
      </trkpt>
      <trkpt lat="48.60062" lon="2.17009">
        <ele>96</ele>
        <time>2019-10-28T11:37:04.000Z</time>
      </trkpt>
      <trkpt lat="48.60061" lon="2.1701">
        <ele>96</ele>
        <time>2019-10-28T11:37:05.000Z</time>
      </trkpt>
      <trkpt lat="48.60059" lon="2.17011">
        <ele>95</ele>
        <time>2019-10-28T11:37:06.000Z</time>
      </trkpt>
      <trkpt lat="48.60058" lon="2.17011">
        <ele>96</ele>
        <time>2019-10-28T11:37:07.000Z</time>
      </trkpt>
      <trkpt lat="48.60057" lon="2.17011">
        <ele>96</ele>
        <time>2019-10-28T11:37:08.000Z</time>
      </trkpt>
      <trkpt lat="48.60055" lon="2.17011">
        <ele>96</ele>
        <time>2019-10-28T11:37:09.000Z</time>
      </trkpt>
      <trkpt lat="48.60054" lon="2.17011">
        <ele>96</ele>
        <time>2019-10-28T11:37:10.000Z</time>
      </trkpt>
      <trkpt lat="48.60053" lon="2.17011">
        <ele>97</ele>
        <time>2019-10-28T11:37:11.000Z</time>
      </trkpt>
      <trkpt lat="48.60052" lon="2.17011">
        <ele>97</ele>
        <time>2019-10-28T11:37:12.000Z</time>
      </trkpt>
      <trkpt lat="48.60051" lon="2.17012">
        <ele>97</ele>
        <time>2019-10-28T11:37:13.000Z</time>
      </trkpt>
      <trkpt lat="48.60049" lon="2.17012">
        <ele>98</ele>
        <time>2019-10-28T11:37:14.000Z</time>
      </trkpt>
      <trkpt lat="48.60048" lon="2.17012">
        <ele>99</ele>
        <time>2019-10-28T11:37:15.000Z</time>
      </trkpt>
      <trkpt lat="48.60047" lon="2.17013">
        <ele>100</ele>
        <time>2019-10-28T11:37:16.000Z</time>
      </trkpt>
      <trkpt lat="48.60046" lon="2.17013">
        <ele>100</ele>
        <time>2019-10-28T11:37:17.000Z</time>
      </trkpt>
      <trkpt lat="48.60045" lon="2.17014">
        <ele>101</ele>
        <time>2019-10-28T11:37:18.000Z</time>
      </trkpt>
      <trkpt lat="48.60044" lon="2.17014">
        <ele>101</ele>
        <time>2019-10-28T11:37:19.000Z</time>
      </trkpt>
      <trkpt lat="48.60043" lon="2.17014">
        <ele>101</ele>
        <time>2019-10-28T11:37:20.000Z</time>
      </trkpt>
      <trkpt lat="48.60041" lon="2.17014">
        <ele>100</ele>
        <time>2019-10-28T11:37:21.000Z</time>
      </trkpt>
      <trkpt lat="48.6004" lon="2.17015">
        <ele>99</ele>
        <time>2019-10-28T11:37:22.000Z</time>
      </trkpt>
      <trkpt lat="48.60038" lon="2.17015">
        <ele>99</ele>
        <time>2019-10-28T11:37:23.000Z</time>
      </trkpt>
      <trkpt lat="48.60037" lon="2.17016">
        <ele>99</ele>
        <time>2019-10-28T11:37:24.000Z</time>
      </trkpt>
      <trkpt lat="48.60035" lon="2.17017">
        <ele>99</ele>
        <time>2019-10-28T11:37:25.000Z</time>
      </trkpt>
      <trkpt lat="48.60034" lon="2.17017">
        <ele>99</ele>
        <time>2019-10-28T11:37:26.000Z</time>
      </trkpt>
      <trkpt lat="48.60033" lon="2.17018">
        <ele>99</ele>
        <time>2019-10-28T11:37:27.000Z</time>
      </trkpt>
      <trkpt lat="48.60032" lon="2.17018">
        <ele>98</ele>
        <time>2019-10-28T11:37:28.000Z</time>
      </trkpt>
      <trkpt lat="48.60031" lon="2.17019">
        <ele>98</ele>
        <time>2019-10-28T11:37:29.000Z</time>
      </trkpt>
      <trkpt lat="48.6003" lon="2.17019">
        <ele>98</ele>
        <time>2019-10-28T11:37:30.000Z</time>
      </trkpt>
      <trkpt lat="48.60029" lon="2.1702">
        <ele>98</ele>
        <time>2019-10-28T11:37:31.000Z</time>
      </trkpt>
      <trkpt lat="48.60028" lon="2.17021">
        <ele>98</ele>
        <time>2019-10-28T11:37:32.000Z</time>
      </trkpt>
      <trkpt lat="48.60026" lon="2.17021">
        <ele>98</ele>
        <time>2019-10-28T11:37:33.000Z</time>
      </trkpt>
      <trkpt lat="48.60025" lon="2.17022">
        <ele>98</ele>
        <time>2019-10-28T11:37:34.000Z</time>
      </trkpt>
      <trkpt lat="48.60023" lon="2.17023">
        <ele>99</ele>
        <time>2019-10-28T11:37:35.000Z</time>
      </trkpt>
      <trkpt lat="48.60022" lon="2.17024">
        <ele>99</ele>
        <time>2019-10-28T11:37:36.000Z</time>
      </trkpt>
      <trkpt lat="48.6002" lon="2.17024">
        <ele>98</ele>
        <time>2019-10-28T11:37:37.000Z</time>
      </trkpt>
      <trkpt lat="48.60019" lon="2.17025">
        <ele>99</ele>
        <time>2019-10-28T11:37:38.000Z</time>
      </trkpt>
      <trkpt lat="48.60018" lon="2.17025">
        <ele>99</ele>
        <time>2019-10-28T11:37:39.000Z</time>
      </trkpt>
      <trkpt lat="48.60018" lon="2.17026">
        <ele>99</ele>
        <time>2019-10-28T11:37:40.000Z</time>
      </trkpt>
      <trkpt lat="48.60017" lon="2.17026">
        <ele>99</ele>
        <time>2019-10-28T11:37:41.000Z</time>
      </trkpt>
      <trkpt lat="48.60016" lon="2.17027">
        <ele>99</ele>
        <time>2019-10-28T11:37:42.000Z</time>
      </trkpt>
      <trkpt lat="48.60015" lon="2.17027">
        <ele>99</ele>
        <time>2019-10-28T11:37:43.000Z</time>
      </trkpt>
      <trkpt lat="48.60013" lon="2.17028">
        <ele>99</ele>
        <time>2019-10-28T11:37:44.000Z</time>
      </trkpt>
      <trkpt lat="48.60012" lon="2.17028">
        <ele>99</ele>
        <time>2019-10-28T11:37:45.000Z</time>
      </trkpt>
      <trkpt lat="48.60011" lon="2.17028">
        <ele>99</ele>
        <time>2019-10-28T11:37:46.000Z</time>
      </trkpt>
      <trkpt lat="48.6001" lon="2.17028">
        <ele>98</ele>
        <time>2019-10-28T11:37:47.000Z</time>
      </trkpt>
      <trkpt lat="48.60009" lon="2.17029">
        <ele>99</ele>
        <time>2019-10-28T11:37:48.000Z</time>
      </trkpt>
      <trkpt lat="48.60008" lon="2.1703">
        <ele>98</ele>
        <time>2019-10-28T11:37:49.000Z</time>
      </trkpt>
      <trkpt lat="48.60006" lon="2.17031">
        <ele>99</ele>
        <time>2019-10-28T11:37:50.000Z</time>
      </trkpt>
      <trkpt lat="48.60005" lon="2.17031">
        <ele>99</ele>
        <time>2019-10-28T11:37:51.000Z</time>
      </trkpt>
      <trkpt lat="48.60004" lon="2.17032">
        <ele>99</ele>
        <time>2019-10-28T11:37:52.000Z</time>
      </trkpt>
      <trkpt lat="48.60002" lon="2.17033">
        <ele>100</ele>
        <time>2019-10-28T11:37:53.000Z</time>
      </trkpt>
      <trkpt lat="48.60001" lon="2.17033">
        <ele>100</ele>
        <time>2019-10-28T11:37:54.000Z</time>
      </trkpt>
      <trkpt lat="48.6" lon="2.17034">
        <ele>101</ele>
        <time>2019-10-28T11:37:55.000Z</time>
      </trkpt>
      <trkpt lat="48.59999" lon="2.17034">
        <ele>100</ele>
        <time>2019-10-28T11:37:56.000Z</time>
      </trkpt>
      <trkpt lat="48.59998" lon="2.17035">
        <ele>100</ele>
        <time>2019-10-28T11:37:57.000Z</time>
      </trkpt>
      <trkpt lat="48.59997" lon="2.17035">
        <ele>100</ele>
        <time>2019-10-28T11:37:58.000Z</time>
      </trkpt>
      <trkpt lat="48.59996" lon="2.17036">
        <ele>100</ele>
        <time>2019-10-28T11:37:59.000Z</time>
      </trkpt>
      <trkpt lat="48.59995" lon="2.17037">
        <ele>99</ele>
        <time>2019-10-28T11:38:00.000Z</time>
      </trkpt>
      <trkpt lat="48.59993" lon="2.17038">
        <ele>99</ele>
        <time>2019-10-28T11:38:01.000Z</time>
      </trkpt>
      <trkpt lat="48.59992" lon="2.17039">
        <ele>100</ele>
        <time>2019-10-28T11:38:02.000Z</time>
      </trkpt>
      <trkpt lat="48.5999" lon="2.1704">
        <ele>99</ele>
        <time>2019-10-28T11:38:03.000Z</time>
      </trkpt>
      <trkpt lat="48.59989" lon="2.1704">
        <ele>99</ele>
        <time>2019-10-28T11:38:04.000Z</time>
      </trkpt>
      <trkpt lat="48.59988" lon="2.17041">
        <ele>99</ele>
        <time>2019-10-28T11:38:05.000Z</time>
      </trkpt>
      <trkpt lat="48.59987" lon="2.17042">
        <ele>100</ele>
        <time>2019-10-28T11:38:06.000Z</time>
      </trkpt>
      <trkpt lat="48.59985" lon="2.17043">
        <ele>100</ele>
        <time>2019-10-28T11:38:07.000Z</time>
      </trkpt>
      <trkpt lat="48.59984" lon="2.17044">
        <ele>101</ele>
        <time>2019-10-28T11:38:08.000Z</time>
      </trkpt>
      <trkpt lat="48.59983" lon="2.17045">
        <ele>102</ele>
        <time>2019-10-28T11:38:09.000Z</time>
      </trkpt>
      <trkpt lat="48.59981" lon="2.17046">
        <ele>102</ele>
        <time>2019-10-28T11:38:10.000Z</time>
      </trkpt>
      <trkpt lat="48.5998" lon="2.17046">
        <ele>102</ele>
        <time>2019-10-28T11:38:11.000Z</time>
      </trkpt>
      <trkpt lat="48.59979" lon="2.17047">
        <ele>102</ele>
        <time>2019-10-28T11:38:12.000Z</time>
      </trkpt>
      <trkpt lat="48.59978" lon="2.17048">
        <ele>102</ele>
        <time>2019-10-28T11:38:13.000Z</time>
      </trkpt>
      <trkpt lat="48.59976" lon="2.17049">
        <ele>103</ele>
        <time>2019-10-28T11:38:14.000Z</time>
      </trkpt>
      <trkpt lat="48.59975" lon="2.17051">
        <ele>102</ele>
        <time>2019-10-28T11:38:15.000Z</time>
      </trkpt>
      <trkpt lat="48.59974" lon="2.17052">
        <ele>102</ele>
        <time>2019-10-28T11:38:16.000Z</time>
      </trkpt>
      <trkpt lat="48.59973" lon="2.17053">
        <ele>103</ele>
        <time>2019-10-28T11:38:17.000Z</time>
      </trkpt>
      <trkpt lat="48.59972" lon="2.17054">
        <ele>103</ele>
        <time>2019-10-28T11:38:18.000Z</time>
      </trkpt>
      <trkpt lat="48.59971" lon="2.17054">
        <ele>103</ele>
        <time>2019-10-28T11:38:19.000Z</time>
      </trkpt>
      <trkpt lat="48.59969" lon="2.17055">
        <ele>103</ele>
        <time>2019-10-28T11:38:20.000Z</time>
      </trkpt>
      <trkpt lat="48.59968" lon="2.17055">
        <ele>104</ele>
        <time>2019-10-28T11:38:21.000Z</time>
      </trkpt>
      <trkpt lat="48.59966" lon="2.17056">
        <ele>104</ele>
        <time>2019-10-28T11:38:22.000Z</time>
      </trkpt>
      <trkpt lat="48.59965" lon="2.17057">
        <ele>104</ele>
        <time>2019-10-28T11:38:23.000Z</time>
      </trkpt>
      <trkpt lat="48.59964" lon="2.17058">
        <ele>104</ele>
        <time>2019-10-28T11:38:24.000Z</time>
      </trkpt>
      <trkpt lat="48.59963" lon="2.17059">
        <ele>105</ele>
        <time>2019-10-28T11:38:25.000Z</time>
      </trkpt>
      <trkpt lat="48.59962" lon="2.17059">
        <ele>105</ele>
        <time>2019-10-28T11:38:26.000Z</time>
      </trkpt>
      <trkpt lat="48.59961" lon="2.1706">
        <ele>105</ele>
        <time>2019-10-28T11:38:27.000Z</time>
      </trkpt>
      <trkpt lat="48.59959" lon="2.17061">
        <ele>106</ele>
        <time>2019-10-28T11:38:28.000Z</time>
      </trkpt>
      <trkpt lat="48.59958" lon="2.17061">
        <ele>106</ele>
        <time>2019-10-28T11:38:29.000Z</time>
      </trkpt>
      <trkpt lat="48.59957" lon="2.17062">
        <ele>106</ele>
        <time>2019-10-28T11:38:30.000Z</time>
      </trkpt>
      <trkpt lat="48.59956" lon="2.17062">
        <ele>106</ele>
        <time>2019-10-28T11:38:31.000Z</time>
      </trkpt>
      <trkpt lat="48.59955" lon="2.17063">
        <ele>107</ele>
        <time>2019-10-28T11:38:32.000Z</time>
      </trkpt>
      <trkpt lat="48.59954" lon="2.17064">
        <ele>107</ele>
        <time>2019-10-28T11:38:33.000Z</time>
      </trkpt>
      <trkpt lat="48.59952" lon="2.17064">
        <ele>108</ele>
        <time>2019-10-28T11:38:34.000Z</time>
      </trkpt>
      <trkpt lat="48.59951" lon="2.17065">
        <ele>108</ele>
        <time>2019-10-28T11:38:35.000Z</time>
      </trkpt>
      <trkpt lat="48.5995" lon="2.17066">
        <ele>108</ele>
        <time>2019-10-28T11:38:36.000Z</time>
      </trkpt>
      <trkpt lat="48.59949" lon="2.17067">
        <ele>108</ele>
        <time>2019-10-28T11:38:37.000Z</time>
      </trkpt>
      <trkpt lat="48.59948" lon="2.17067">
        <ele>109</ele>
        <time>2019-10-28T11:38:38.000Z</time>
      </trkpt>
      <trkpt lat="48.59946" lon="2.17068">
        <ele>109</ele>
        <time>2019-10-28T11:38:39.000Z</time>
      </trkpt>
      <trkpt lat="48.59945" lon="2.17069">
        <ele>109</ele>
        <time>2019-10-28T11:38:40.000Z</time>
      </trkpt>
      <trkpt lat="48.59943" lon="2.1707">
        <ele>109</ele>
        <time>2019-10-28T11:38:41.000Z</time>
      </trkpt>
      <trkpt lat="48.59941" lon="2.17071">
        <ele>109</ele>
        <time>2019-10-28T11:38:42.000Z</time>
      </trkpt>
      <trkpt lat="48.5994" lon="2.17071">
        <ele>110</ele>
        <time>2019-10-28T11:38:43.000Z</time>
      </trkpt>
      <trkpt lat="48.59938" lon="2.17072">
        <ele>110</ele>
        <time>2019-10-28T11:38:44.000Z</time>
      </trkpt>
      <trkpt lat="48.59937" lon="2.17073">
        <ele>110</ele>
        <time>2019-10-28T11:38:45.000Z</time>
      </trkpt>
      <trkpt lat="48.59936" lon="2.17073">
        <ele>109</ele>
        <time>2019-10-28T11:38:46.000Z</time>
      </trkpt>
      <trkpt lat="48.59934" lon="2.17074">
        <ele>110</ele>
        <time>2019-10-28T11:38:47.000Z</time>
      </trkpt>
      <trkpt lat="48.59933" lon="2.17074">
        <ele>110</ele>
        <time>2019-10-28T11:38:48.000Z</time>
      </trkpt>
      <trkpt lat="48.59931" lon="2.17074">
        <ele>110</ele>
        <time>2019-10-28T11:38:49.000Z</time>
      </trkpt>
      <trkpt lat="48.5993" lon="2.17075">
        <ele>109</ele>
        <time>2019-10-28T11:38:50.000Z</time>
      </trkpt>
      <trkpt lat="48.59929" lon="2.17076">
        <ele>108</ele>
        <time>2019-10-28T11:38:51.000Z</time>
      </trkpt>
      <trkpt lat="48.59928" lon="2.17076">
        <ele>109</ele>
        <time>2019-10-28T11:38:52.000Z</time>
      </trkpt>
      <trkpt lat="48.59926" lon="2.17077">
        <ele>108</ele>
        <time>2019-10-28T11:38:53.000Z</time>
      </trkpt>
      <trkpt lat="48.59925" lon="2.17078">
        <ele>108</ele>
        <time>2019-10-28T11:38:54.000Z</time>
      </trkpt>
      <trkpt lat="48.59923" lon="2.17078">
        <ele>107</ele>
        <time>2019-10-28T11:38:55.000Z</time>
      </trkpt>
      <trkpt lat="48.59922" lon="2.17079">
        <ele>107</ele>
        <time>2019-10-28T11:38:56.000Z</time>
      </trkpt>
      <trkpt lat="48.59921" lon="2.17079">
        <ele>106</ele>
        <time>2019-10-28T11:38:57.000Z</time>
      </trkpt>
      <trkpt lat="48.5992" lon="2.17079">
        <ele>106</ele>
        <time>2019-10-28T11:38:58.000Z</time>
      </trkpt>
      <trkpt lat="48.59919" lon="2.1708">
        <ele>106</ele>
        <time>2019-10-28T11:38:59.000Z</time>
      </trkpt>
      <trkpt lat="48.59918" lon="2.1708">
        <ele>106</ele>
        <time>2019-10-28T11:39:00.000Z</time>
      </trkpt>
      <trkpt lat="48.59916" lon="2.17081">
        <ele>107</ele>
        <time>2019-10-28T11:39:01.000Z</time>
      </trkpt>
      <trkpt lat="48.59915" lon="2.17081">
        <ele>107</ele>
        <time>2019-10-28T11:39:02.000Z</time>
      </trkpt>
      <trkpt lat="48.59913" lon="2.17082">
        <ele>107</ele>
        <time>2019-10-28T11:39:03.000Z</time>
      </trkpt>
      <trkpt lat="48.59912" lon="2.17082">
        <ele>107</ele>
        <time>2019-10-28T11:39:04.000Z</time>
      </trkpt>
      <trkpt lat="48.59911" lon="2.17083">
        <ele>107</ele>
        <time>2019-10-28T11:39:05.000Z</time>
      </trkpt>
      <trkpt lat="48.5991" lon="2.17083">
        <ele>107</ele>
        <time>2019-10-28T11:39:06.000Z</time>
      </trkpt>
      <trkpt lat="48.59909" lon="2.17083">
        <ele>107</ele>
        <time>2019-10-28T11:39:07.000Z</time>
      </trkpt>
      <trkpt lat="48.59907" lon="2.17083">
        <ele>106</ele>
        <time>2019-10-28T11:39:08.000Z</time>
      </trkpt>
      <trkpt lat="48.59906" lon="2.17084">
        <ele>106</ele>
        <time>2019-10-28T11:39:09.000Z</time>
      </trkpt>
      <trkpt lat="48.59904" lon="2.17084">
        <ele>107</ele>
        <time>2019-10-28T11:39:10.000Z</time>
      </trkpt>
      <trkpt lat="48.59903" lon="2.17085">
        <ele>107</ele>
        <time>2019-10-28T11:39:11.000Z</time>
      </trkpt>
      <trkpt lat="48.59902" lon="2.17085">
        <ele>108</ele>
        <time>2019-10-28T11:39:12.000Z</time>
      </trkpt>
      <trkpt lat="48.59901" lon="2.17086">
        <ele>108</ele>
        <time>2019-10-28T11:39:13.000Z</time>
      </trkpt>
      <trkpt lat="48.599" lon="2.17087">
        <ele>108</ele>
        <time>2019-10-28T11:39:14.000Z</time>
      </trkpt>
      <trkpt lat="48.59899" lon="2.17087">
        <ele>109</ele>
        <time>2019-10-28T11:39:15.000Z</time>
      </trkpt>
      <trkpt lat="48.59897" lon="2.17087">
        <ele>109</ele>
        <time>2019-10-28T11:39:16.000Z</time>
      </trkpt>
      <trkpt lat="48.59896" lon="2.17086">
        <ele>109</ele>
        <time>2019-10-28T11:39:17.000Z</time>
      </trkpt>
      <trkpt lat="48.59895" lon="2.17085">
        <ele>110</ele>
        <time>2019-10-28T11:39:18.000Z</time>
      </trkpt>
      <trkpt lat="48.59894" lon="2.17084">
        <ele>110</ele>
        <time>2019-10-28T11:39:19.000Z</time>
      </trkpt>
      <trkpt lat="48.59894" lon="2.17082">
        <ele>110</ele>
        <time>2019-10-28T11:39:20.000Z</time>
      </trkpt>
      <trkpt lat="48.59893" lon="2.17081">
        <ele>111</ele>
        <time>2019-10-28T11:39:21.000Z</time>
      </trkpt>
      <trkpt lat="48.59892" lon="2.17079">
        <ele>111</ele>
        <time>2019-10-28T11:39:22.000Z</time>
      </trkpt>
      <trkpt lat="48.59891" lon="2.17078">
        <ele>112</ele>
        <time>2019-10-28T11:39:23.000Z</time>
      </trkpt>
      <trkpt lat="48.59891" lon="2.17076">
        <ele>112</ele>
        <time>2019-10-28T11:39:24.000Z</time>
      </trkpt>
      <trkpt lat="48.5989" lon="2.17075">
        <ele>111</ele>
        <time>2019-10-28T11:39:25.000Z</time>
      </trkpt>
      <trkpt lat="48.5989" lon="2.17073">
        <ele>111</ele>
        <time>2019-10-28T11:39:26.000Z</time>
      </trkpt>
      <trkpt lat="48.5989" lon="2.17072">
        <ele>112</ele>
        <time>2019-10-28T11:39:27.000Z</time>
      </trkpt>
      <trkpt lat="48.59889" lon="2.1707">
        <ele>111</ele>
        <time>2019-10-28T11:39:28.000Z</time>
      </trkpt>
      <trkpt lat="48.59889" lon="2.17068">
        <ele>112</ele>
        <time>2019-10-28T11:39:29.000Z</time>
      </trkpt>
      <trkpt lat="48.59888" lon="2.17067">
        <ele>112</ele>
        <time>2019-10-28T11:39:30.000Z</time>
      </trkpt>
      <trkpt lat="48.59888" lon="2.17065">
        <ele>112</ele>
        <time>2019-10-28T11:39:31.000Z</time>
      </trkpt>
      <trkpt lat="48.59888" lon="2.17064">
        <ele>112</ele>
        <time>2019-10-28T11:39:32.000Z</time>
      </trkpt>
      <trkpt lat="48.59888" lon="2.17062">
        <ele>111</ele>
        <time>2019-10-28T11:39:33.000Z</time>
      </trkpt>
      <trkpt lat="48.59888" lon="2.1706">
        <ele>110</ele>
        <time>2019-10-28T11:39:34.000Z</time>
      </trkpt>
      <trkpt lat="48.59888" lon="2.17059">
        <ele>110</ele>
        <time>2019-10-28T11:39:35.000Z</time>
      </trkpt>
      <trkpt lat="48.59887" lon="2.17057">
        <ele>110</ele>
        <time>2019-10-28T11:39:36.000Z</time>
      </trkpt>
      <trkpt lat="48.59887" lon="2.17055">
        <ele>110</ele>
        <time>2019-10-28T11:39:37.000Z</time>
      </trkpt>
      <trkpt lat="48.59887" lon="2.17054">
        <ele>109</ele>
        <time>2019-10-28T11:39:38.000Z</time>
      </trkpt>
      <trkpt lat="48.59887" lon="2.17052">
        <ele>110</ele>
        <time>2019-10-28T11:39:39.000Z</time>
      </trkpt>
      <trkpt lat="48.59887" lon="2.1705">
        <ele>110</ele>
        <time>2019-10-28T11:39:40.000Z</time>
      </trkpt>
      <trkpt lat="48.59887" lon="2.17048">
        <ele>110</ele>
        <time>2019-10-28T11:39:41.000Z</time>
      </trkpt>
      <trkpt lat="48.59887" lon="2.17047">
        <ele>110</ele>
        <time>2019-10-28T11:39:42.000Z</time>
      </trkpt>
      <trkpt lat="48.59886" lon="2.17045">
        <ele>110</ele>
        <time>2019-10-28T11:39:43.000Z</time>
      </trkpt>
      <trkpt lat="48.59886" lon="2.17042">
        <ele>110</ele>
        <time>2019-10-28T11:39:44.000Z</time>
      </trkpt>
      <trkpt lat="48.59886" lon="2.1704">
        <ele>110</ele>
        <time>2019-10-28T11:39:45.000Z</time>
      </trkpt>
      <trkpt lat="48.59886" lon="2.17038">
        <ele>109</ele>
        <time>2019-10-28T11:39:46.000Z</time>
      </trkpt>
      <trkpt lat="48.59886" lon="2.17036">
        <ele>110</ele>
        <time>2019-10-28T11:39:47.000Z</time>
      </trkpt>
      <trkpt lat="48.59886" lon="2.17034">
        <ele>111</ele>
        <time>2019-10-28T11:39:48.000Z</time>
      </trkpt>
      <trkpt lat="48.59886" lon="2.17032">
        <ele>110</ele>
        <time>2019-10-28T11:39:49.000Z</time>
      </trkpt>
      <trkpt lat="48.59886" lon="2.1703">
        <ele>110</ele>
        <time>2019-10-28T11:39:50.000Z</time>
      </trkpt>
      <trkpt lat="48.59886" lon="2.17029">
        <ele>109</ele>
        <time>2019-10-28T11:39:51.000Z</time>
      </trkpt>
      <trkpt lat="48.59886" lon="2.17026">
        <ele>110</ele>
        <time>2019-10-28T11:39:52.000Z</time>
      </trkpt>
      <trkpt lat="48.59886" lon="2.17024">
        <ele>109</ele>
        <time>2019-10-28T11:39:53.000Z</time>
      </trkpt>
      <trkpt lat="48.59886" lon="2.17021">
        <ele>109</ele>
        <time>2019-10-28T11:39:54.000Z</time>
      </trkpt>
      <trkpt lat="48.59886" lon="2.17019">
        <ele>109</ele>
        <time>2019-10-28T11:39:55.000Z</time>
      </trkpt>
      <trkpt lat="48.59886" lon="2.17017">
        <ele>109</ele>
        <time>2019-10-28T11:39:56.000Z</time>
      </trkpt>
      <trkpt lat="48.59886" lon="2.17015">
        <ele>108</ele>
        <time>2019-10-28T11:39:57.000Z</time>
      </trkpt>
      <trkpt lat="48.59885" lon="2.17013">
        <ele>108</ele>
        <time>2019-10-28T11:39:58.000Z</time>
      </trkpt>
      <trkpt lat="48.59885" lon="2.17011">
        <ele>108</ele>
        <time>2019-10-28T11:39:59.000Z</time>
      </trkpt>
      <trkpt lat="48.59884" lon="2.17009">
        <ele>108</ele>
        <time>2019-10-28T11:40:00.000Z</time>
      </trkpt>
      <trkpt lat="48.59883" lon="2.17007">
        <ele>108</ele>
        <time>2019-10-28T11:40:01.000Z</time>
      </trkpt>
      <trkpt lat="48.59882" lon="2.17006">
        <ele>108</ele>
        <time>2019-10-28T11:40:02.000Z</time>
      </trkpt>
      <trkpt lat="48.59882" lon="2.17004">
        <ele>107</ele>
        <time>2019-10-28T11:40:03.000Z</time>
      </trkpt>
      <trkpt lat="48.59881" lon="2.17002">
        <ele>107</ele>
        <time>2019-10-28T11:40:04.000Z</time>
      </trkpt>
      <trkpt lat="48.59881" lon="2.17">
        <ele>107</ele>
        <time>2019-10-28T11:40:05.000Z</time>
      </trkpt>
      <trkpt lat="48.5988" lon="2.16998">
        <ele>108</ele>
        <time>2019-10-28T11:40:06.000Z</time>
      </trkpt>
      <trkpt lat="48.5988" lon="2.16997">
        <ele>107</ele>
        <time>2019-10-28T11:40:07.000Z</time>
      </trkpt>
      <trkpt lat="48.5988" lon="2.16995">
        <ele>107</ele>
        <time>2019-10-28T11:40:08.000Z</time>
      </trkpt>
      <trkpt lat="48.5988" lon="2.16994">
        <ele>107</ele>
        <time>2019-10-28T11:40:09.000Z</time>
      </trkpt>
      <trkpt lat="48.5988" lon="2.16992">
        <ele>107</ele>
        <time>2019-10-28T11:40:10.000Z</time>
      </trkpt>
      <trkpt lat="48.5988" lon="2.1699">
        <ele>106</ele>
        <time>2019-10-28T11:40:11.000Z</time>
      </trkpt>
      <trkpt lat="48.5988" lon="2.16988">
        <ele>106</ele>
        <time>2019-10-28T11:40:12.000Z</time>
      </trkpt>
      <trkpt lat="48.59879" lon="2.16986">
        <ele>105</ele>
        <time>2019-10-28T11:40:13.000Z</time>
      </trkpt>
      <trkpt lat="48.59879" lon="2.16985">
        <ele>105</ele>
        <time>2019-10-28T11:40:14.000Z</time>
      </trkpt>
      <trkpt lat="48.59879" lon="2.16983">
        <ele>106</ele>
        <time>2019-10-28T11:40:15.000Z</time>
      </trkpt>
      <trkpt lat="48.59879" lon="2.16981">
        <ele>106</ele>
        <time>2019-10-28T11:40:16.000Z</time>
      </trkpt>
      <trkpt lat="48.59879" lon="2.16979">
        <ele>105</ele>
        <time>2019-10-28T11:40:17.000Z</time>
      </trkpt>
      <trkpt lat="48.59879" lon="2.16977">
        <ele>105</ele>
        <time>2019-10-28T11:40:18.000Z</time>
      </trkpt>
      <trkpt lat="48.59879" lon="2.16975">
        <ele>105</ele>
        <time>2019-10-28T11:40:19.000Z</time>
      </trkpt>
      <trkpt lat="48.59878" lon="2.16972">
        <ele>105</ele>
        <time>2019-10-28T11:40:20.000Z</time>
      </trkpt>
      <trkpt lat="48.59878" lon="2.16969">
        <ele>105</ele>
        <time>2019-10-28T11:40:21.000Z</time>
      </trkpt>
      <trkpt lat="48.59878" lon="2.16967">
        <ele>105</ele>
        <time>2019-10-28T11:40:22.000Z</time>
      </trkpt>
      <trkpt lat="48.59878" lon="2.16964">
        <ele>105</ele>
        <time>2019-10-28T11:40:23.000Z</time>
      </trkpt>
      <trkpt lat="48.59878" lon="2.16962">
        <ele>105</ele>
        <time>2019-10-28T11:40:24.000Z</time>
      </trkpt>
      <trkpt lat="48.59877" lon="2.1696">
        <ele>105</ele>
        <time>2019-10-28T11:40:25.000Z</time>
      </trkpt>
      <trkpt lat="48.59877" lon="2.16958">
        <ele>105</ele>
        <time>2019-10-28T11:40:26.000Z</time>
      </trkpt>
      <trkpt lat="48.59877" lon="2.16955">
        <ele>105</ele>
        <time>2019-10-28T11:40:27.000Z</time>
      </trkpt>
      <trkpt lat="48.59877" lon="2.16953">
        <ele>104</ele>
        <time>2019-10-28T11:40:28.000Z</time>
      </trkpt>
      <trkpt lat="48.59877" lon="2.16951">
        <ele>103</ele>
        <time>2019-10-28T11:40:29.000Z</time>
      </trkpt>
      <trkpt lat="48.59876" lon="2.16949">
        <ele>103</ele>
        <time>2019-10-28T11:40:30.000Z</time>
      </trkpt>
      <trkpt lat="48.59876" lon="2.16947">
        <ele>103</ele>
        <time>2019-10-28T11:40:31.000Z</time>
      </trkpt>
      <trkpt lat="48.59876" lon="2.16945">
        <ele>103</ele>
        <time>2019-10-28T11:40:32.000Z</time>
      </trkpt>
      <trkpt lat="48.59876" lon="2.16943">
        <ele>103</ele>
        <time>2019-10-28T11:40:33.000Z</time>
      </trkpt>
      <trkpt lat="48.59875" lon="2.16941">
        <ele>103</ele>
        <time>2019-10-28T11:40:34.000Z</time>
      </trkpt>
      <trkpt lat="48.59875" lon="2.16938">
        <ele>103</ele>
        <time>2019-10-28T11:40:35.000Z</time>
      </trkpt>
      <trkpt lat="48.59875" lon="2.16935">
        <ele>104</ele>
        <time>2019-10-28T11:40:36.000Z</time>
      </trkpt>
      <trkpt lat="48.59874" lon="2.16931">
        <ele>102</ele>
        <time>2019-10-28T11:40:37.000Z</time>
      </trkpt>
      <trkpt lat="48.59873" lon="2.16928">
        <ele>102</ele>
        <time>2019-10-28T11:40:38.000Z</time>
      </trkpt>
      <trkpt lat="48.59872" lon="2.16926">
        <ele>102</ele>
        <time>2019-10-28T11:40:39.000Z</time>
      </trkpt>
      <trkpt lat="48.59872" lon="2.16923">
        <ele>102</ele>
        <time>2019-10-28T11:40:40.000Z</time>
      </trkpt>
      <trkpt lat="48.59871" lon="2.1692">
        <ele>102</ele>
        <time>2019-10-28T11:40:41.000Z</time>
      </trkpt>
      <trkpt lat="48.59871" lon="2.16917">
        <ele>101</ele>
        <time>2019-10-28T11:40:42.000Z</time>
      </trkpt>
      <trkpt lat="48.5987" lon="2.16914">
        <ele>101</ele>
        <time>2019-10-28T11:40:43.000Z</time>
      </trkpt>
      <trkpt lat="48.5987" lon="2.16912">
        <ele>100</ele>
        <time>2019-10-28T11:40:44.000Z</time>
      </trkpt>
      <trkpt lat="48.59869" lon="2.16909">
        <ele>100</ele>
        <time>2019-10-28T11:40:45.000Z</time>
      </trkpt>
      <trkpt lat="48.59868" lon="2.16907">
        <ele>100</ele>
        <time>2019-10-28T11:40:46.000Z</time>
      </trkpt>
      <trkpt lat="48.59868" lon="2.16904">
        <ele>100</ele>
        <time>2019-10-28T11:40:47.000Z</time>
      </trkpt>
      <trkpt lat="48.59867" lon="2.16902">
        <ele>100</ele>
        <time>2019-10-28T11:40:48.000Z</time>
      </trkpt>
      <trkpt lat="48.59867" lon="2.16899">
        <ele>100</ele>
        <time>2019-10-28T11:40:49.000Z</time>
      </trkpt>
      <trkpt lat="48.59867" lon="2.16897">
        <ele>100</ele>
        <time>2019-10-28T11:40:50.000Z</time>
      </trkpt>
      <trkpt lat="48.59867" lon="2.16894">
        <ele>100</ele>
        <time>2019-10-28T11:40:51.000Z</time>
      </trkpt>
      <trkpt lat="48.59866" lon="2.16892">
        <ele>100</ele>
        <time>2019-10-28T11:40:52.000Z</time>
      </trkpt>
      <trkpt lat="48.59866" lon="2.16889">
        <ele>100</ele>
        <time>2019-10-28T11:40:53.000Z</time>
      </trkpt>
      <trkpt lat="48.59866" lon="2.16887">
        <ele>100</ele>
        <time>2019-10-28T11:40:54.000Z</time>
      </trkpt>
      <trkpt lat="48.59865" lon="2.16885">
        <ele>101</ele>
        <time>2019-10-28T11:40:55.000Z</time>
      </trkpt>
      <trkpt lat="48.59865" lon="2.16882">
        <ele>101</ele>
        <time>2019-10-28T11:40:56.000Z</time>
      </trkpt>
      <trkpt lat="48.59865" lon="2.16879">
        <ele>101</ele>
        <time>2019-10-28T11:40:57.000Z</time>
      </trkpt>
      <trkpt lat="48.59865" lon="2.16877">
        <ele>101</ele>
        <time>2019-10-28T11:40:58.000Z</time>
      </trkpt>
      <trkpt lat="48.59865" lon="2.16875">
        <ele>101</ele>
        <time>2019-10-28T11:40:59.000Z</time>
      </trkpt>
      <trkpt lat="48.59864" lon="2.16872">
        <ele>101</ele>
        <time>2019-10-28T11:41:00.000Z</time>
      </trkpt>
      <trkpt lat="48.59864" lon="2.1687">
        <ele>101</ele>
        <time>2019-10-28T11:41:01.000Z</time>
      </trkpt>
      <trkpt lat="48.59864" lon="2.16868">
        <ele>101</ele>
        <time>2019-10-28T11:41:02.000Z</time>
      </trkpt>
      <trkpt lat="48.59864" lon="2.16865">
        <ele>101</ele>
        <time>2019-10-28T11:41:03.000Z</time>
      </trkpt>
      <trkpt lat="48.59864" lon="2.16863">
        <ele>101</ele>
        <time>2019-10-28T11:41:04.000Z</time>
      </trkpt>
      <trkpt lat="48.59863" lon="2.16861">
        <ele>100</ele>
        <time>2019-10-28T11:41:05.000Z</time>
      </trkpt>
      <trkpt lat="48.59863" lon="2.16859">
        <ele>100</ele>
        <time>2019-10-28T11:41:06.000Z</time>
      </trkpt>
      <trkpt lat="48.59863" lon="2.16857">
        <ele>100</ele>
        <time>2019-10-28T11:41:07.000Z</time>
      </trkpt>
      <trkpt lat="48.59863" lon="2.16855">
        <ele>101</ele>
        <time>2019-10-28T11:41:08.000Z</time>
      </trkpt>
      <trkpt lat="48.59862" lon="2.16852">
        <ele>101</ele>
        <time>2019-10-28T11:41:09.000Z</time>
      </trkpt>
      <trkpt lat="48.59862" lon="2.1685">
        <ele>100</ele>
        <time>2019-10-28T11:41:10.000Z</time>
      </trkpt>
      <trkpt lat="48.59861" lon="2.16848">
        <ele>100</ele>
        <time>2019-10-28T11:41:11.000Z</time>
      </trkpt>
      <trkpt lat="48.59861" lon="2.16846">
        <ele>100</ele>
        <time>2019-10-28T11:41:12.000Z</time>
      </trkpt>
      <trkpt lat="48.59861" lon="2.16844">
        <ele>100</ele>
        <time>2019-10-28T11:41:13.000Z</time>
      </trkpt>
      <trkpt lat="48.59861" lon="2.16842">
        <ele>100</ele>
        <time>2019-10-28T11:41:14.000Z</time>
      </trkpt>
      <trkpt lat="48.5986" lon="2.1684">
        <ele>100</ele>
        <time>2019-10-28T11:41:15.000Z</time>
      </trkpt>
      <trkpt lat="48.5986" lon="2.16838">
        <ele>100</ele>
        <time>2019-10-28T11:41:16.000Z</time>
      </trkpt>
      <trkpt lat="48.5986" lon="2.16836">
        <ele>100</ele>
        <time>2019-10-28T11:41:17.000Z</time>
      </trkpt>
      <trkpt lat="48.59859" lon="2.16834">
        <ele>100</ele>
        <time>2019-10-28T11:41:18.000Z</time>
      </trkpt>
      <trkpt lat="48.59859" lon="2.16832">
        <ele>100</ele>
        <time>2019-10-28T11:41:19.000Z</time>
      </trkpt>
      <trkpt lat="48.59859" lon="2.1683">
        <ele>100</ele>
        <time>2019-10-28T11:41:20.000Z</time>
      </trkpt>
      <trkpt lat="48.59858" lon="2.16828">
        <ele>100</ele>
        <time>2019-10-28T11:41:21.000Z</time>
      </trkpt>
      <trkpt lat="48.59858" lon="2.16826">
        <ele>99</ele>
        <time>2019-10-28T11:41:22.000Z</time>
      </trkpt>
      <trkpt lat="48.59858" lon="2.16824">
        <ele>99</ele>
        <time>2019-10-28T11:41:23.000Z</time>
      </trkpt>
      <trkpt lat="48.59857" lon="2.16821">
        <ele>99</ele>
        <time>2019-10-28T11:41:24.000Z</time>
      </trkpt>
      <trkpt lat="48.59857" lon="2.16819">
        <ele>99</ele>
        <time>2019-10-28T11:41:25.000Z</time>
      </trkpt>
      <trkpt lat="48.59857" lon="2.16817">
        <ele>99</ele>
        <time>2019-10-28T11:41:26.000Z</time>
      </trkpt>
      <trkpt lat="48.59856" lon="2.16815">
        <ele>99</ele>
        <time>2019-10-28T11:41:27.000Z</time>
      </trkpt>
      <trkpt lat="48.59856" lon="2.16813">
        <ele>99</ele>
        <time>2019-10-28T11:41:28.000Z</time>
      </trkpt>
      <trkpt lat="48.59856" lon="2.16811">
        <ele>99</ele>
        <time>2019-10-28T11:41:29.000Z</time>
      </trkpt>
      <trkpt lat="48.59855" lon="2.16808">
        <ele>99</ele>
        <time>2019-10-28T11:41:30.000Z</time>
      </trkpt>
      <trkpt lat="48.59855" lon="2.16806">
        <ele>98</ele>
        <time>2019-10-28T11:41:31.000Z</time>
      </trkpt>
      <trkpt lat="48.59855" lon="2.16804">
        <ele>98</ele>
        <time>2019-10-28T11:41:32.000Z</time>
      </trkpt>
      <trkpt lat="48.59854" lon="2.16802">
        <ele>98</ele>
        <time>2019-10-28T11:41:33.000Z</time>
      </trkpt>
      <trkpt lat="48.59854" lon="2.16799">
        <ele>99</ele>
        <time>2019-10-28T11:41:34.000Z</time>
      </trkpt>
      <trkpt lat="48.59853" lon="2.16797">
        <ele>98</ele>
        <time>2019-10-28T11:41:35.000Z</time>
      </trkpt>
      <trkpt lat="48.59853" lon="2.16795">
        <ele>98</ele>
        <time>2019-10-28T11:41:36.000Z</time>
      </trkpt>
      <trkpt lat="48.59853" lon="2.16793">
        <ele>98</ele>
        <time>2019-10-28T11:41:37.000Z</time>
      </trkpt>
      <trkpt lat="48.59853" lon="2.1679">
        <ele>98</ele>
        <time>2019-10-28T11:41:38.000Z</time>
      </trkpt>
      <trkpt lat="48.59852" lon="2.16788">
        <ele>98</ele>
        <time>2019-10-28T11:41:39.000Z</time>
      </trkpt>
      <trkpt lat="48.59852" lon="2.16786">
        <ele>98</ele>
        <time>2019-10-28T11:41:40.000Z</time>
      </trkpt>
      <trkpt lat="48.59852" lon="2.16784">
        <ele>98</ele>
        <time>2019-10-28T11:41:41.000Z</time>
      </trkpt>
      <trkpt lat="48.59851" lon="2.16782">
        <ele>98</ele>
        <time>2019-10-28T11:41:42.000Z</time>
      </trkpt>
      <trkpt lat="48.59851" lon="2.1678">
        <ele>98</ele>
        <time>2019-10-28T11:41:43.000Z</time>
      </trkpt>
      <trkpt lat="48.59851" lon="2.16778">
        <ele>98</ele>
        <time>2019-10-28T11:41:44.000Z</time>
      </trkpt>
      <trkpt lat="48.59851" lon="2.16776">
        <ele>98</ele>
        <time>2019-10-28T11:41:45.000Z</time>
      </trkpt>
      <trkpt lat="48.5985" lon="2.16774">
        <ele>98</ele>
        <time>2019-10-28T11:41:46.000Z</time>
      </trkpt>
      <trkpt lat="48.5985" lon="2.16772">
        <ele>98</ele>
        <time>2019-10-28T11:41:47.000Z</time>
      </trkpt>
      <trkpt lat="48.5985" lon="2.16769">
        <ele>98</ele>
        <time>2019-10-28T11:41:48.000Z</time>
      </trkpt>
      <trkpt lat="48.59849" lon="2.16767">
        <ele>98</ele>
        <time>2019-10-28T11:41:49.000Z</time>
      </trkpt>
      <trkpt lat="48.59849" lon="2.16765">
        <ele>98</ele>
        <time>2019-10-28T11:41:50.000Z</time>
      </trkpt>
      <trkpt lat="48.59849" lon="2.16763">
        <ele>98</ele>
        <time>2019-10-28T11:41:51.000Z</time>
      </trkpt>
      <trkpt lat="48.59849" lon="2.16761">
        <ele>97</ele>
        <time>2019-10-28T11:41:52.000Z</time>
      </trkpt>
      <trkpt lat="48.59848" lon="2.16758">
        <ele>97</ele>
        <time>2019-10-28T11:41:53.000Z</time>
      </trkpt>
      <trkpt lat="48.59848" lon="2.16756">
        <ele>97</ele>
        <time>2019-10-28T11:41:54.000Z</time>
      </trkpt>
      <trkpt lat="48.59848" lon="2.16754">
        <ele>97</ele>
        <time>2019-10-28T11:41:55.000Z</time>
      </trkpt>
      <trkpt lat="48.59848" lon="2.16752">
        <ele>97</ele>
        <time>2019-10-28T11:41:56.000Z</time>
      </trkpt>
      <trkpt lat="48.59847" lon="2.1675">
        <ele>97</ele>
        <time>2019-10-28T11:41:57.000Z</time>
      </trkpt>
      <trkpt lat="48.59847" lon="2.16747">
        <ele>97</ele>
        <time>2019-10-28T11:41:58.000Z</time>
      </trkpt>
      <trkpt lat="48.59847" lon="2.16745">
        <ele>97</ele>
        <time>2019-10-28T11:41:59.000Z</time>
      </trkpt>
      <trkpt lat="48.59847" lon="2.16743">
        <ele>97</ele>
        <time>2019-10-28T11:42:00.000Z</time>
      </trkpt>
      <trkpt lat="48.59846" lon="2.16741">
        <ele>97</ele>
        <time>2019-10-28T11:42:01.000Z</time>
      </trkpt>
      <trkpt lat="48.59846" lon="2.16739">
        <ele>97</ele>
        <time>2019-10-28T11:42:02.000Z</time>
      </trkpt>
      <trkpt lat="48.59846" lon="2.16737">
        <ele>97</ele>
        <time>2019-10-28T11:42:03.000Z</time>
      </trkpt>
      <trkpt lat="48.59846" lon="2.16734">
        <ele>97</ele>
        <time>2019-10-28T11:42:04.000Z</time>
      </trkpt>
      <trkpt lat="48.59845" lon="2.16732">
        <ele>97</ele>
        <time>2019-10-28T11:42:05.000Z</time>
      </trkpt>
      <trkpt lat="48.59845" lon="2.1673">
        <ele>97</ele>
        <time>2019-10-28T11:42:06.000Z</time>
      </trkpt>
      <trkpt lat="48.59845" lon="2.16728">
        <ele>97</ele>
        <time>2019-10-28T11:42:07.000Z</time>
      </trkpt>
      <trkpt lat="48.59845" lon="2.16725">
        <ele>96</ele>
        <time>2019-10-28T11:42:08.000Z</time>
      </trkpt>
      <trkpt lat="48.59844" lon="2.16723">
        <ele>96</ele>
        <time>2019-10-28T11:42:09.000Z</time>
      </trkpt>
      <trkpt lat="48.59844" lon="2.16721">
        <ele>96</ele>
        <time>2019-10-28T11:42:10.000Z</time>
      </trkpt>
      <trkpt lat="48.59844" lon="2.16719">
        <ele>96</ele>
        <time>2019-10-28T11:42:11.000Z</time>
      </trkpt>
      <trkpt lat="48.59844" lon="2.16717">
        <ele>96</ele>
        <time>2019-10-28T11:42:12.000Z</time>
      </trkpt>
      <trkpt lat="48.59843" lon="2.16714">
        <ele>96</ele>
        <time>2019-10-28T11:42:13.000Z</time>
      </trkpt>
      <trkpt lat="48.59843" lon="2.16712">
        <ele>96</ele>
        <time>2019-10-28T11:42:14.000Z</time>
      </trkpt>
      <trkpt lat="48.59843" lon="2.1671">
        <ele>96</ele>
        <time>2019-10-28T11:42:15.000Z</time>
      </trkpt>
      <trkpt lat="48.59843" lon="2.16708">
        <ele>96</ele>
        <time>2019-10-28T11:42:16.000Z</time>
      </trkpt>
      <trkpt lat="48.59842" lon="2.16706">
        <ele>96</ele>
        <time>2019-10-28T11:42:17.000Z</time>
      </trkpt>
      <trkpt lat="48.59842" lon="2.16703">
        <ele>96</ele>
        <time>2019-10-28T11:42:18.000Z</time>
      </trkpt>
      <trkpt lat="48.59842" lon="2.16701">
        <ele>96</ele>
        <time>2019-10-28T11:42:19.000Z</time>
      </trkpt>
      <trkpt lat="48.59842" lon="2.16699">
        <ele>95</ele>
        <time>2019-10-28T11:42:20.000Z</time>
      </trkpt>
      <trkpt lat="48.59841" lon="2.16697">
        <ele>95</ele>
        <time>2019-10-28T11:42:21.000Z</time>
      </trkpt>
      <trkpt lat="48.59841" lon="2.16695">
        <ele>95</ele>
        <time>2019-10-28T11:42:22.000Z</time>
      </trkpt>
      <trkpt lat="48.59841" lon="2.16692">
        <ele>95</ele>
        <time>2019-10-28T11:42:23.000Z</time>
      </trkpt>
      <trkpt lat="48.59841" lon="2.1669">
        <ele>95</ele>
        <time>2019-10-28T11:42:24.000Z</time>
      </trkpt>
      <trkpt lat="48.59841" lon="2.16688">
        <ele>95</ele>
        <time>2019-10-28T11:42:25.000Z</time>
      </trkpt>
      <trkpt lat="48.5984" lon="2.16686">
        <ele>95</ele>
        <time>2019-10-28T11:42:26.000Z</time>
      </trkpt>
      <trkpt lat="48.5984" lon="2.16683">
        <ele>95</ele>
        <time>2019-10-28T11:42:27.000Z</time>
      </trkpt>
      <trkpt lat="48.5984" lon="2.16681">
        <ele>95</ele>
        <time>2019-10-28T11:42:28.000Z</time>
      </trkpt>
      <trkpt lat="48.5984" lon="2.16679">
        <ele>95</ele>
        <time>2019-10-28T11:42:29.000Z</time>
      </trkpt>
      <trkpt lat="48.59839" lon="2.16677">
        <ele>95</ele>
        <time>2019-10-28T11:42:30.000Z</time>
      </trkpt>
      <trkpt lat="48.59839" lon="2.16675">
        <ele>95</ele>
        <time>2019-10-28T11:42:31.000Z</time>
      </trkpt>
      <trkpt lat="48.59839" lon="2.16673">
        <ele>95</ele>
        <time>2019-10-28T11:42:32.000Z</time>
      </trkpt>
      <trkpt lat="48.59839" lon="2.16671">
        <ele>95</ele>
        <time>2019-10-28T11:42:33.000Z</time>
      </trkpt>
      <trkpt lat="48.59838" lon="2.16668">
        <ele>95</ele>
        <time>2019-10-28T11:42:34.000Z</time>
      </trkpt>
      <trkpt lat="48.59838" lon="2.16666">
        <ele>95</ele>
        <time>2019-10-28T11:42:35.000Z</time>
      </trkpt>
      <trkpt lat="48.59838" lon="2.16664">
        <ele>94</ele>
        <time>2019-10-28T11:42:36.000Z</time>
      </trkpt>
      <trkpt lat="48.59838" lon="2.16662">
        <ele>94</ele>
        <time>2019-10-28T11:42:37.000Z</time>
      </trkpt>
      <trkpt lat="48.59837" lon="2.16659">
        <ele>94</ele>
        <time>2019-10-28T11:42:38.000Z</time>
      </trkpt>
      <trkpt lat="48.59837" lon="2.16657">
        <ele>94</ele>
        <time>2019-10-28T11:42:39.000Z</time>
      </trkpt>
      <trkpt lat="48.59837" lon="2.16655">
        <ele>94</ele>
        <time>2019-10-28T11:42:40.000Z</time>
      </trkpt>
      <trkpt lat="48.59836" lon="2.16653">
        <ele>94</ele>
        <time>2019-10-28T11:42:41.000Z</time>
      </trkpt>
      <trkpt lat="48.59836" lon="2.1665">
        <ele>94</ele>
        <time>2019-10-28T11:42:42.000Z</time>
      </trkpt>
      <trkpt lat="48.59836" lon="2.16648">
        <ele>94</ele>
        <time>2019-10-28T11:42:43.000Z</time>
      </trkpt>
      <trkpt lat="48.59835" lon="2.16646">
        <ele>94</ele>
        <time>2019-10-28T11:42:44.000Z</time>
      </trkpt>
      <trkpt lat="48.59835" lon="2.16644">
        <ele>94</ele>
        <time>2019-10-28T11:42:45.000Z</time>
      </trkpt>
      <trkpt lat="48.59834" lon="2.16642">
        <ele>93</ele>
        <time>2019-10-28T11:42:46.000Z</time>
      </trkpt>
      <trkpt lat="48.59834" lon="2.16639">
        <ele>93</ele>
        <time>2019-10-28T11:42:47.000Z</time>
      </trkpt>
      <trkpt lat="48.59834" lon="2.16637">
        <ele>93</ele>
        <time>2019-10-28T11:42:48.000Z</time>
      </trkpt>
      <trkpt lat="48.59833" lon="2.16635">
        <ele>93</ele>
        <time>2019-10-28T11:42:49.000Z</time>
      </trkpt>
      <trkpt lat="48.59833" lon="2.16633">
        <ele>93</ele>
        <time>2019-10-28T11:42:50.000Z</time>
      </trkpt>
      <trkpt lat="48.59832" lon="2.16631">
        <ele>93</ele>
        <time>2019-10-28T11:42:51.000Z</time>
      </trkpt>
      <trkpt lat="48.59832" lon="2.16628">
        <ele>93</ele>
        <time>2019-10-28T11:42:52.000Z</time>
      </trkpt>
      <trkpt lat="48.59832" lon="2.16626">
        <ele>93</ele>
        <time>2019-10-28T11:42:53.000Z</time>
      </trkpt>
      <trkpt lat="48.59831" lon="2.16624">
        <ele>93</ele>
        <time>2019-10-28T11:42:54.000Z</time>
      </trkpt>
      <trkpt lat="48.59831" lon="2.16622">
        <ele>93</ele>
        <time>2019-10-28T11:42:55.000Z</time>
      </trkpt>
      <trkpt lat="48.59831" lon="2.1662">
        <ele>92</ele>
        <time>2019-10-28T11:42:56.000Z</time>
      </trkpt>
      <trkpt lat="48.5983" lon="2.16618">
        <ele>92</ele>
        <time>2019-10-28T11:42:57.000Z</time>
      </trkpt>
      <trkpt lat="48.5983" lon="2.16616">
        <ele>92</ele>
        <time>2019-10-28T11:42:58.000Z</time>
      </trkpt>
      <trkpt lat="48.5983" lon="2.16614">
        <ele>92</ele>
        <time>2019-10-28T11:42:59.000Z</time>
      </trkpt>
      <trkpt lat="48.59829" lon="2.16612">
        <ele>92</ele>
        <time>2019-10-28T11:43:00.000Z</time>
      </trkpt>
      <trkpt lat="48.59829" lon="2.1661">
        <ele>92</ele>
        <time>2019-10-28T11:43:01.000Z</time>
      </trkpt>
      <trkpt lat="48.59828" lon="2.16608">
        <ele>92</ele>
        <time>2019-10-28T11:43:02.000Z</time>
      </trkpt>
      <trkpt lat="48.59828" lon="2.16606">
        <ele>92</ele>
        <time>2019-10-28T11:43:03.000Z</time>
      </trkpt>
      <trkpt lat="48.59827" lon="2.16604">
        <ele>92</ele>
        <time>2019-10-28T11:43:04.000Z</time>
      </trkpt>
      <trkpt lat="48.59826" lon="2.16602">
        <ele>92</ele>
        <time>2019-10-28T11:43:05.000Z</time>
      </trkpt>
      <trkpt lat="48.59825" lon="2.166">
        <ele>92</ele>
        <time>2019-10-28T11:43:06.000Z</time>
      </trkpt>
      <trkpt lat="48.59825" lon="2.16599">
        <ele>92</ele>
        <time>2019-10-28T11:43:07.000Z</time>
      </trkpt>
      <trkpt lat="48.59824" lon="2.16597">
        <ele>92</ele>
        <time>2019-10-28T11:43:08.000Z</time>
      </trkpt>
      <trkpt lat="48.59823" lon="2.16595">
        <ele>92</ele>
        <time>2019-10-28T11:43:09.000Z</time>
      </trkpt>
      <trkpt lat="48.59823" lon="2.16593">
        <ele>92</ele>
        <time>2019-10-28T11:43:10.000Z</time>
      </trkpt>
      <trkpt lat="48.59822" lon="2.16591">
        <ele>92</ele>
        <time>2019-10-28T11:43:11.000Z</time>
      </trkpt>
      <trkpt lat="48.59822" lon="2.16589">
        <ele>92</ele>
        <time>2019-10-28T11:43:12.000Z</time>
      </trkpt>
      <trkpt lat="48.59821" lon="2.16587">
        <ele>92</ele>
        <time>2019-10-28T11:43:13.000Z</time>
      </trkpt>
      <trkpt lat="48.59821" lon="2.16585">
        <ele>92</ele>
        <time>2019-10-28T11:43:14.000Z</time>
      </trkpt>
      <trkpt lat="48.5982" lon="2.16583">
        <ele>92</ele>
        <time>2019-10-28T11:43:15.000Z</time>
      </trkpt>
      <trkpt lat="48.59819" lon="2.1658">
        <ele>92</ele>
        <time>2019-10-28T11:43:16.000Z</time>
      </trkpt>
      <trkpt lat="48.59819" lon="2.16579">
        <ele>92</ele>
        <time>2019-10-28T11:43:17.000Z</time>
      </trkpt>
      <trkpt lat="48.59818" lon="2.16577">
        <ele>92</ele>
        <time>2019-10-28T11:43:18.000Z</time>
      </trkpt>
      <trkpt lat="48.59817" lon="2.16575">
        <ele>92</ele>
        <time>2019-10-28T11:43:19.000Z</time>
      </trkpt>
      <trkpt lat="48.59817" lon="2.16573">
        <ele>92</ele>
        <time>2019-10-28T11:43:20.000Z</time>
      </trkpt>
      <trkpt lat="48.59817" lon="2.16571">
        <ele>92</ele>
        <time>2019-10-28T11:43:21.000Z</time>
      </trkpt>
      <trkpt lat="48.59816" lon="2.16568">
        <ele>92</ele>
        <time>2019-10-28T11:43:22.000Z</time>
      </trkpt>
      <trkpt lat="48.59816" lon="2.16566">
        <ele>92</ele>
        <time>2019-10-28T11:43:23.000Z</time>
      </trkpt>
      <trkpt lat="48.59815" lon="2.16564">
        <ele>92</ele>
        <time>2019-10-28T11:43:24.000Z</time>
      </trkpt>
      <trkpt lat="48.59815" lon="2.16562">
        <ele>92</ele>
        <time>2019-10-28T11:43:25.000Z</time>
      </trkpt>
      <trkpt lat="48.59815" lon="2.1656">
        <ele>92</ele>
        <time>2019-10-28T11:43:26.000Z</time>
      </trkpt>
      <trkpt lat="48.59814" lon="2.16558">
        <ele>92</ele>
        <time>2019-10-28T11:43:27.000Z</time>
      </trkpt>
      <trkpt lat="48.59814" lon="2.16556">
        <ele>92</ele>
        <time>2019-10-28T11:43:28.000Z</time>
      </trkpt>
      <trkpt lat="48.59813" lon="2.16554">
        <ele>92</ele>
        <time>2019-10-28T11:43:29.000Z</time>
      </trkpt>
      <trkpt lat="48.59813" lon="2.16552">
        <ele>91</ele>
        <time>2019-10-28T11:43:30.000Z</time>
      </trkpt>
      <trkpt lat="48.59812" lon="2.16549">
        <ele>91</ele>
        <time>2019-10-28T11:43:31.000Z</time>
      </trkpt>
      <trkpt lat="48.59812" lon="2.16547">
        <ele>91</ele>
        <time>2019-10-28T11:43:32.000Z</time>
      </trkpt>
      <trkpt lat="48.59811" lon="2.16545">
        <ele>91</ele>
        <time>2019-10-28T11:43:33.000Z</time>
      </trkpt>
      <trkpt lat="48.59811" lon="2.16543">
        <ele>91</ele>
        <time>2019-10-28T11:43:34.000Z</time>
      </trkpt>
      <trkpt lat="48.5981" lon="2.16541">
        <ele>91</ele>
        <time>2019-10-28T11:43:35.000Z</time>
      </trkpt>
      <trkpt lat="48.5981" lon="2.16539">
        <ele>91</ele>
        <time>2019-10-28T11:43:36.000Z</time>
      </trkpt>
      <trkpt lat="48.59809" lon="2.16537">
        <ele>91</ele>
        <time>2019-10-28T11:43:37.000Z</time>
      </trkpt>
      <trkpt lat="48.59809" lon="2.16535">
        <ele>91</ele>
        <time>2019-10-28T11:43:38.000Z</time>
      </trkpt>
      <trkpt lat="48.59808" lon="2.16533">
        <ele>91</ele>
        <time>2019-10-28T11:43:39.000Z</time>
      </trkpt>
      <trkpt lat="48.59807" lon="2.16531">
        <ele>91</ele>
        <time>2019-10-28T11:43:40.000Z</time>
      </trkpt>
      <trkpt lat="48.59807" lon="2.16529">
        <ele>91</ele>
        <time>2019-10-28T11:43:41.000Z</time>
      </trkpt>
      <trkpt lat="48.59807" lon="2.16527">
        <ele>91</ele>
        <time>2019-10-28T11:43:42.000Z</time>
      </trkpt>
      <trkpt lat="48.59806" lon="2.16525">
        <ele>91</ele>
        <time>2019-10-28T11:43:43.000Z</time>
      </trkpt>
      <trkpt lat="48.59806" lon="2.16523">
        <ele>91</ele>
        <time>2019-10-28T11:43:44.000Z</time>
      </trkpt>
      <trkpt lat="48.59805" lon="2.16521">
        <ele>91</ele>
        <time>2019-10-28T11:43:45.000Z</time>
      </trkpt>
      <trkpt lat="48.59805" lon="2.16519">
        <ele>91</ele>
        <time>2019-10-28T11:43:46.000Z</time>
      </trkpt>
      <trkpt lat="48.59805" lon="2.16517">
        <ele>91</ele>
        <time>2019-10-28T11:43:47.000Z</time>
      </trkpt>
      <trkpt lat="48.59804" lon="2.16515">
        <ele>90</ele>
        <time>2019-10-28T11:43:48.000Z</time>
      </trkpt>
      <trkpt lat="48.59804" lon="2.16513">
        <ele>90</ele>
        <time>2019-10-28T11:43:49.000Z</time>
      </trkpt>
      <trkpt lat="48.59803" lon="2.16511">
        <ele>90</ele>
        <time>2019-10-28T11:43:50.000Z</time>
      </trkpt>
      <trkpt lat="48.59803" lon="2.16509">
        <ele>90</ele>
        <time>2019-10-28T11:43:51.000Z</time>
      </trkpt>
      <trkpt lat="48.59802" lon="2.16507">
        <ele>90</ele>
        <time>2019-10-28T11:43:52.000Z</time>
      </trkpt>
      <trkpt lat="48.59802" lon="2.16505">
        <ele>90</ele>
        <time>2019-10-28T11:43:53.000Z</time>
      </trkpt>
      <trkpt lat="48.59801" lon="2.16503">
        <ele>90</ele>
        <time>2019-10-28T11:43:54.000Z</time>
      </trkpt>
      <trkpt lat="48.59801" lon="2.16501">
        <ele>90</ele>
        <time>2019-10-28T11:43:55.000Z</time>
      </trkpt>
      <trkpt lat="48.59801" lon="2.16499">
        <ele>90</ele>
        <time>2019-10-28T11:43:56.000Z</time>
      </trkpt>
      <trkpt lat="48.598" lon="2.16497">
        <ele>90</ele>
        <time>2019-10-28T11:43:57.000Z</time>
      </trkpt>
      <trkpt lat="48.598" lon="2.16495">
        <ele>90</ele>
        <time>2019-10-28T11:43:58.000Z</time>
      </trkpt>
      <trkpt lat="48.598" lon="2.16493">
        <ele>90</ele>
        <time>2019-10-28T11:43:59.000Z</time>
      </trkpt>
      <trkpt lat="48.59799" lon="2.16491">
        <ele>90</ele>
        <time>2019-10-28T11:44:00.000Z</time>
      </trkpt>
      <trkpt lat="48.59799" lon="2.16489">
        <ele>90</ele>
        <time>2019-10-28T11:44:01.000Z</time>
      </trkpt>
      <trkpt lat="48.59798" lon="2.16487">
        <ele>90</ele>
        <time>2019-10-28T11:44:02.000Z</time>
      </trkpt>
      <trkpt lat="48.59798" lon="2.16485">
        <ele>90</ele>
        <time>2019-10-28T11:44:03.000Z</time>
      </trkpt>
      <trkpt lat="48.59798" lon="2.16483">
        <ele>90</ele>
        <time>2019-10-28T11:44:04.000Z</time>
      </trkpt>
      <trkpt lat="48.59797" lon="2.16481">
        <ele>90</ele>
        <time>2019-10-28T11:44:05.000Z</time>
      </trkpt>
      <trkpt lat="48.59797" lon="2.16479">
        <ele>90</ele>
        <time>2019-10-28T11:44:06.000Z</time>
      </trkpt>
      <trkpt lat="48.59796" lon="2.16477">
        <ele>90</ele>
        <time>2019-10-28T11:44:07.000Z</time>
      </trkpt>
      <trkpt lat="48.59796" lon="2.16475">
        <ele>89</ele>
        <time>2019-10-28T11:44:08.000Z</time>
      </trkpt>
      <trkpt lat="48.59796" lon="2.16473">
        <ele>89</ele>
        <time>2019-10-28T11:44:09.000Z</time>
      </trkpt>
      <trkpt lat="48.59795" lon="2.1647">
        <ele>89</ele>
        <time>2019-10-28T11:44:10.000Z</time>
      </trkpt>
      <trkpt lat="48.59795" lon="2.16468">
        <ele>89</ele>
        <time>2019-10-28T11:44:11.000Z</time>
      </trkpt>
      <trkpt lat="48.59794" lon="2.16466">
        <ele>89</ele>
        <time>2019-10-28T11:44:12.000Z</time>
      </trkpt>
      <trkpt lat="48.59794" lon="2.16464">
        <ele>89</ele>
        <time>2019-10-28T11:44:13.000Z</time>
      </trkpt>
      <trkpt lat="48.59793" lon="2.16462">
        <ele>89</ele>
        <time>2019-10-28T11:44:14.000Z</time>
      </trkpt>
      <trkpt lat="48.59793" lon="2.1646">
        <ele>89</ele>
        <time>2019-10-28T11:44:15.000Z</time>
      </trkpt>
      <trkpt lat="48.59792" lon="2.16458">
        <ele>89</ele>
        <time>2019-10-28T11:44:16.000Z</time>
      </trkpt>
      <trkpt lat="48.59792" lon="2.16456">
        <ele>89</ele>
        <time>2019-10-28T11:44:17.000Z</time>
      </trkpt>
      <trkpt lat="48.59792" lon="2.16454">
        <ele>89</ele>
        <time>2019-10-28T11:44:18.000Z</time>
      </trkpt>
      <trkpt lat="48.59792" lon="2.16452">
        <ele>89</ele>
        <time>2019-10-28T11:44:19.000Z</time>
      </trkpt>
      <trkpt lat="48.59791" lon="2.1645">
        <ele>89</ele>
        <time>2019-10-28T11:44:20.000Z</time>
      </trkpt>
      <trkpt lat="48.59791" lon="2.16449">
        <ele>89</ele>
        <time>2019-10-28T11:44:21.000Z</time>
      </trkpt>
      <trkpt lat="48.5979" lon="2.16447">
        <ele>89</ele>
        <time>2019-10-28T11:44:22.000Z</time>
      </trkpt>
      <trkpt lat="48.5979" lon="2.16445">
        <ele>89</ele>
        <time>2019-10-28T11:44:23.000Z</time>
      </trkpt>
      <trkpt lat="48.5979" lon="2.16443">
        <ele>89</ele>
        <time>2019-10-28T11:44:24.000Z</time>
      </trkpt>
      <trkpt lat="48.5979" lon="2.16442">
        <ele>89</ele>
        <time>2019-10-28T11:44:25.000Z</time>
      </trkpt>
      <trkpt lat="48.5979" lon="2.16442">
        <ele>89</ele>
        <time>2019-10-28T11:44:26.000Z</time>
      </trkpt>
      <trkpt lat="48.5979" lon="2.16442">
        <ele>89</ele>
        <time>2019-10-28T11:44:27.000Z</time>
      </trkpt>
      <trkpt lat="48.59789" lon="2.16441">
        <ele>89</ele>
        <time>2019-10-28T11:44:28.000Z</time>
      </trkpt>
      <trkpt lat="48.5979" lon="2.1644">
        <ele>89</ele>
        <time>2019-10-28T11:44:29.000Z</time>
      </trkpt>
      <trkpt lat="48.5979" lon="2.16439">
        <ele>88</ele>
        <time>2019-10-28T11:44:30.000Z</time>
      </trkpt>
      <trkpt lat="48.5979" lon="2.16437">
        <ele>88</ele>
        <time>2019-10-28T11:44:31.000Z</time>
      </trkpt>
      <trkpt lat="48.59789" lon="2.16435">
        <ele>88</ele>
        <time>2019-10-28T11:44:32.000Z</time>
      </trkpt>
      <trkpt lat="48.59789" lon="2.16433">
        <ele>88</ele>
        <time>2019-10-28T11:44:33.000Z</time>
      </trkpt>
      <trkpt lat="48.59789" lon="2.16431">
        <ele>88</ele>
        <time>2019-10-28T11:44:34.000Z</time>
      </trkpt>
      <trkpt lat="48.59788" lon="2.16428">
        <ele>88</ele>
        <time>2019-10-28T11:44:35.000Z</time>
      </trkpt>
      <trkpt lat="48.59788" lon="2.16426">
        <ele>88</ele>
        <time>2019-10-28T11:44:36.000Z</time>
      </trkpt>
      <trkpt lat="48.59788" lon="2.16424">
        <ele>88</ele>
        <time>2019-10-28T11:44:37.000Z</time>
      </trkpt>
      <trkpt lat="48.59787" lon="2.16422">
        <ele>88</ele>
        <time>2019-10-28T11:44:38.000Z</time>
      </trkpt>
      <trkpt lat="48.59787" lon="2.1642">
        <ele>88</ele>
        <time>2019-10-28T11:44:39.000Z</time>
      </trkpt>
      <trkpt lat="48.59787" lon="2.16417">
        <ele>88</ele>
        <time>2019-10-28T11:44:40.000Z</time>
      </trkpt>
      <trkpt lat="48.59786" lon="2.16415">
        <ele>88</ele>
        <time>2019-10-28T11:44:41.000Z</time>
      </trkpt>
      <trkpt lat="48.59786" lon="2.16413">
        <ele>88</ele>
        <time>2019-10-28T11:44:42.000Z</time>
      </trkpt>
      <trkpt lat="48.59786" lon="2.16411">
        <ele>88</ele>
        <time>2019-10-28T11:44:43.000Z</time>
      </trkpt>
      <trkpt lat="48.59785" lon="2.16409">
        <ele>88</ele>
        <time>2019-10-28T11:44:44.000Z</time>
      </trkpt>
      <trkpt lat="48.59785" lon="2.16407">
        <ele>88</ele>
        <time>2019-10-28T11:44:45.000Z</time>
      </trkpt>
      <trkpt lat="48.59785" lon="2.16405">
        <ele>87</ele>
        <time>2019-10-28T11:44:46.000Z</time>
      </trkpt>
      <trkpt lat="48.59784" lon="2.16402">
        <ele>88</ele>
        <time>2019-10-28T11:44:47.000Z</time>
      </trkpt>
      <trkpt lat="48.59784" lon="2.164">
        <ele>88</ele>
        <time>2019-10-28T11:44:48.000Z</time>
      </trkpt>
      <trkpt lat="48.59784" lon="2.16398">
        <ele>87</ele>
        <time>2019-10-28T11:44:49.000Z</time>
      </trkpt>
      <trkpt lat="48.59784" lon="2.16396">
        <ele>87</ele>
        <time>2019-10-28T11:44:50.000Z</time>
      </trkpt>
      <trkpt lat="48.59783" lon="2.16394">
        <ele>87</ele>
        <time>2019-10-28T11:44:51.000Z</time>
      </trkpt>
      <trkpt lat="48.59783" lon="2.16392">
        <ele>87</ele>
        <time>2019-10-28T11:44:52.000Z</time>
      </trkpt>
      <trkpt lat="48.59783" lon="2.1639">
        <ele>87</ele>
        <time>2019-10-28T11:44:53.000Z</time>
      </trkpt>
      <trkpt lat="48.59783" lon="2.16388">
        <ele>87</ele>
        <time>2019-10-28T11:44:54.000Z</time>
      </trkpt>
      <trkpt lat="48.59783" lon="2.16387">
        <ele>87</ele>
        <time>2019-10-28T11:44:55.000Z</time>
      </trkpt>
      <trkpt lat="48.59782" lon="2.16385">
        <ele>87</ele>
        <time>2019-10-28T11:44:56.000Z</time>
      </trkpt>
      <trkpt lat="48.59782" lon="2.16383">
        <ele>87</ele>
        <time>2019-10-28T11:44:57.000Z</time>
      </trkpt>
      <trkpt lat="48.59781" lon="2.16381">
        <ele>87</ele>
        <time>2019-10-28T11:44:58.000Z</time>
      </trkpt>
      <trkpt lat="48.59781" lon="2.16379">
        <ele>87</ele>
        <time>2019-10-28T11:44:59.000Z</time>
      </trkpt>
      <trkpt lat="48.59781" lon="2.16377">
        <ele>87</ele>
        <time>2019-10-28T11:45:00.000Z</time>
      </trkpt>
      <trkpt lat="48.5978" lon="2.16375">
        <ele>87</ele>
        <time>2019-10-28T11:45:01.000Z</time>
      </trkpt>
      <trkpt lat="48.5978" lon="2.16373">
        <ele>87</ele>
        <time>2019-10-28T11:45:02.000Z</time>
      </trkpt>
      <trkpt lat="48.59779" lon="2.16371">
        <ele>87</ele>
        <time>2019-10-28T11:45:03.000Z</time>
      </trkpt>
      <trkpt lat="48.59779" lon="2.16369">
        <ele>87</ele>
        <time>2019-10-28T11:45:04.000Z</time>
      </trkpt>
      <trkpt lat="48.59778" lon="2.16367">
        <ele>87</ele>
        <time>2019-10-28T11:45:05.000Z</time>
      </trkpt>
      <trkpt lat="48.59778" lon="2.16365">
        <ele>87</ele>
        <time>2019-10-28T11:45:06.000Z</time>
      </trkpt>
      <trkpt lat="48.59777" lon="2.16363">
        <ele>87</ele>
        <time>2019-10-28T11:45:07.000Z</time>
      </trkpt>
      <trkpt lat="48.59777" lon="2.16361">
        <ele>87</ele>
        <time>2019-10-28T11:45:08.000Z</time>
      </trkpt>
      <trkpt lat="48.59776" lon="2.16359">
        <ele>87</ele>
        <time>2019-10-28T11:45:09.000Z</time>
      </trkpt>
      <trkpt lat="48.59776" lon="2.16357">
        <ele>87</ele>
        <time>2019-10-28T11:45:10.000Z</time>
      </trkpt>
      <trkpt lat="48.59775" lon="2.16355">
        <ele>87</ele>
        <time>2019-10-28T11:45:11.000Z</time>
      </trkpt>
      <trkpt lat="48.59775" lon="2.16353">
        <ele>87</ele>
        <time>2019-10-28T11:45:12.000Z</time>
      </trkpt>
      <trkpt lat="48.59774" lon="2.16351">
        <ele>87</ele>
        <time>2019-10-28T11:45:13.000Z</time>
      </trkpt>
      <trkpt lat="48.59774" lon="2.16349">
        <ele>87</ele>
        <time>2019-10-28T11:45:14.000Z</time>
      </trkpt>
      <trkpt lat="48.59774" lon="2.16347">
        <ele>87</ele>
        <time>2019-10-28T11:45:15.000Z</time>
      </trkpt>
      <trkpt lat="48.59773" lon="2.16345">
        <ele>87</ele>
        <time>2019-10-28T11:45:16.000Z</time>
      </trkpt>
      <trkpt lat="48.59773" lon="2.16343">
        <ele>87</ele>
        <time>2019-10-28T11:45:17.000Z</time>
      </trkpt>
      <trkpt lat="48.59772" lon="2.16341">
        <ele>87</ele>
        <time>2019-10-28T11:45:18.000Z</time>
      </trkpt>
      <trkpt lat="48.59772" lon="2.16339">
        <ele>87</ele>
        <time>2019-10-28T11:45:19.000Z</time>
      </trkpt>
      <trkpt lat="48.59771" lon="2.16337">
        <ele>87</ele>
        <time>2019-10-28T11:45:20.000Z</time>
      </trkpt>
      <trkpt lat="48.59771" lon="2.16335">
        <ele>87</ele>
        <time>2019-10-28T11:45:21.000Z</time>
      </trkpt>
      <trkpt lat="48.5977" lon="2.16333">
        <ele>87</ele>
        <time>2019-10-28T11:45:22.000Z</time>
      </trkpt>
      <trkpt lat="48.5977" lon="2.16331">
        <ele>87</ele>
        <time>2019-10-28T11:45:23.000Z</time>
      </trkpt>
      <trkpt lat="48.59769" lon="2.16329">
        <ele>87</ele>
        <time>2019-10-28T11:45:24.000Z</time>
      </trkpt>
      <trkpt lat="48.59769" lon="2.16327">
        <ele>87</ele>
        <time>2019-10-28T11:45:25.000Z</time>
      </trkpt>
      <trkpt lat="48.59768" lon="2.16325">
        <ele>87</ele>
        <time>2019-10-28T11:45:26.000Z</time>
      </trkpt>
      <trkpt lat="48.59768" lon="2.16323">
        <ele>87</ele>
        <time>2019-10-28T11:45:27.000Z</time>
      </trkpt>
      <trkpt lat="48.59767" lon="2.16321">
        <ele>87</ele>
        <time>2019-10-28T11:45:28.000Z</time>
      </trkpt>
      <trkpt lat="48.59767" lon="2.16319">
        <ele>87</ele>
        <time>2019-10-28T11:45:29.000Z</time>
      </trkpt>
      <trkpt lat="48.59766" lon="2.16317">
        <ele>87</ele>
        <time>2019-10-28T11:45:30.000Z</time>
      </trkpt>
      <trkpt lat="48.59766" lon="2.16315">
        <ele>87</ele>
        <time>2019-10-28T11:45:31.000Z</time>
      </trkpt>
      <trkpt lat="48.59765" lon="2.16313">
        <ele>87</ele>
        <time>2019-10-28T11:45:32.000Z</time>
      </trkpt>
      <trkpt lat="48.59765" lon="2.16311">
        <ele>87</ele>
        <time>2019-10-28T11:45:33.000Z</time>
      </trkpt>
      <trkpt lat="48.59764" lon="2.16309">
        <ele>87</ele>
        <time>2019-10-28T11:45:34.000Z</time>
      </trkpt>
      <trkpt lat="48.59764" lon="2.16307">
        <ele>87</ele>
        <time>2019-10-28T11:45:35.000Z</time>
      </trkpt>
      <trkpt lat="48.59763" lon="2.16305">
        <ele>87</ele>
        <time>2019-10-28T11:45:36.000Z</time>
      </trkpt>
      <trkpt lat="48.59763" lon="2.16303">
        <ele>87</ele>
        <time>2019-10-28T11:45:37.000Z</time>
      </trkpt>
      <trkpt lat="48.59762" lon="2.16301">
        <ele>87</ele>
        <time>2019-10-28T11:45:38.000Z</time>
      </trkpt>
      <trkpt lat="48.59762" lon="2.16299">
        <ele>87</ele>
        <time>2019-10-28T11:45:39.000Z</time>
      </trkpt>
      <trkpt lat="48.59761" lon="2.16297">
        <ele>87</ele>
        <time>2019-10-28T11:45:40.000Z</time>
      </trkpt>
      <trkpt lat="48.59761" lon="2.16295">
        <ele>87</ele>
        <time>2019-10-28T11:45:41.000Z</time>
      </trkpt>
      <trkpt lat="48.5976" lon="2.16293">
        <ele>87</ele>
        <time>2019-10-28T11:45:42.000Z</time>
      </trkpt>
      <trkpt lat="48.5976" lon="2.16291">
        <ele>87</ele>
        <time>2019-10-28T11:45:43.000Z</time>
      </trkpt>
      <trkpt lat="48.59759" lon="2.16289">
        <ele>87</ele>
        <time>2019-10-28T11:45:44.000Z</time>
      </trkpt>
      <trkpt lat="48.59759" lon="2.16287">
        <ele>87</ele>
        <time>2019-10-28T11:45:45.000Z</time>
      </trkpt>
      <trkpt lat="48.59759" lon="2.16285">
        <ele>87</ele>
        <time>2019-10-28T11:45:46.000Z</time>
      </trkpt>
      <trkpt lat="48.59758" lon="2.16283">
        <ele>87</ele>
        <time>2019-10-28T11:45:47.000Z</time>
      </trkpt>
      <trkpt lat="48.59758" lon="2.16281">
        <ele>87</ele>
        <time>2019-10-28T11:45:48.000Z</time>
      </trkpt>
      <trkpt lat="48.59757" lon="2.16279">
        <ele>87</ele>
        <time>2019-10-28T11:45:49.000Z</time>
      </trkpt>
      <trkpt lat="48.59757" lon="2.16277">
        <ele>87</ele>
        <time>2019-10-28T11:45:50.000Z</time>
      </trkpt>
      <trkpt lat="48.59756" lon="2.16275">
        <ele>87</ele>
        <time>2019-10-28T11:45:51.000Z</time>
      </trkpt>
      <trkpt lat="48.59756" lon="2.16273">
        <ele>87</ele>
        <time>2019-10-28T11:45:52.000Z</time>
      </trkpt>
      <trkpt lat="48.59755" lon="2.16271">
        <ele>87</ele>
        <time>2019-10-28T11:45:53.000Z</time>
      </trkpt>
      <trkpt lat="48.59755" lon="2.16269">
        <ele>87</ele>
        <time>2019-10-28T11:45:54.000Z</time>
      </trkpt>
      <trkpt lat="48.59755" lon="2.16267">
        <ele>87</ele>
        <time>2019-10-28T11:45:55.000Z</time>
      </trkpt>
      <trkpt lat="48.59754" lon="2.16265">
        <ele>87</ele>
        <time>2019-10-28T11:45:56.000Z</time>
      </trkpt>
      <trkpt lat="48.59754" lon="2.16263">
        <ele>87</ele>
        <time>2019-10-28T11:45:57.000Z</time>
      </trkpt>
      <trkpt lat="48.59753" lon="2.16261">
        <ele>87</ele>
        <time>2019-10-28T11:45:58.000Z</time>
      </trkpt>
      <trkpt lat="48.59753" lon="2.16259">
        <ele>86</ele>
        <time>2019-10-28T11:45:59.000Z</time>
      </trkpt>
      <trkpt lat="48.59753" lon="2.16256">
        <ele>86</ele>
        <time>2019-10-28T11:46:00.000Z</time>
      </trkpt>
      <trkpt lat="48.59752" lon="2.16254">
        <ele>86</ele>
        <time>2019-10-28T11:46:01.000Z</time>
      </trkpt>
      <trkpt lat="48.59752" lon="2.16252">
        <ele>86</ele>
        <time>2019-10-28T11:46:02.000Z</time>
      </trkpt>
      <trkpt lat="48.59751" lon="2.1625">
        <ele>86</ele>
        <time>2019-10-28T11:46:03.000Z</time>
      </trkpt>
      <trkpt lat="48.59751" lon="2.16248">
        <ele>86</ele>
        <time>2019-10-28T11:46:04.000Z</time>
      </trkpt>
      <trkpt lat="48.59751" lon="2.16246">
        <ele>86</ele>
        <time>2019-10-28T11:46:05.000Z</time>
      </trkpt>
      <trkpt lat="48.5975" lon="2.16244">
        <ele>86</ele>
        <time>2019-10-28T11:46:06.000Z</time>
      </trkpt>
      <trkpt lat="48.5975" lon="2.16242">
        <ele>86</ele>
        <time>2019-10-28T11:46:07.000Z</time>
      </trkpt>
      <trkpt lat="48.5975" lon="2.1624">
        <ele>86</ele>
        <time>2019-10-28T11:46:08.000Z</time>
      </trkpt>
      <trkpt lat="48.59749" lon="2.16238">
        <ele>86</ele>
        <time>2019-10-28T11:46:09.000Z</time>
      </trkpt>
      <trkpt lat="48.59749" lon="2.16236">
        <ele>86</ele>
        <time>2019-10-28T11:46:10.000Z</time>
      </trkpt>
      <trkpt lat="48.59749" lon="2.16234">
        <ele>86</ele>
        <time>2019-10-28T11:46:11.000Z</time>
      </trkpt>
      <trkpt lat="48.59748" lon="2.16232">
        <ele>86</ele>
        <time>2019-10-28T11:46:12.000Z</time>
      </trkpt>
      <trkpt lat="48.59748" lon="2.1623">
        <ele>86</ele>
        <time>2019-10-28T11:46:13.000Z</time>
      </trkpt>
      <trkpt lat="48.59748" lon="2.16228">
        <ele>86</ele>
        <time>2019-10-28T11:46:14.000Z</time>
      </trkpt>
      <trkpt lat="48.59748" lon="2.16226">
        <ele>86</ele>
        <time>2019-10-28T11:46:15.000Z</time>
      </trkpt>
      <trkpt lat="48.59747" lon="2.16224">
        <ele>86</ele>
        <time>2019-10-28T11:46:16.000Z</time>
      </trkpt>
      <trkpt lat="48.59747" lon="2.16222">
        <ele>86</ele>
        <time>2019-10-28T11:46:17.000Z</time>
      </trkpt>
      <trkpt lat="48.59747" lon="2.1622">
        <ele>86</ele>
        <time>2019-10-28T11:46:18.000Z</time>
      </trkpt>
      <trkpt lat="48.59746" lon="2.16218">
        <ele>86</ele>
        <time>2019-10-28T11:46:19.000Z</time>
      </trkpt>
      <trkpt lat="48.59746" lon="2.16216">
        <ele>86</ele>
        <time>2019-10-28T11:46:20.000Z</time>
      </trkpt>
      <trkpt lat="48.59746" lon="2.16215">
        <ele>86</ele>
        <time>2019-10-28T11:46:21.000Z</time>
      </trkpt>
      <trkpt lat="48.59746" lon="2.16213">
        <ele>86</ele>
        <time>2019-10-28T11:46:22.000Z</time>
      </trkpt>
      <trkpt lat="48.59746" lon="2.16212">
        <ele>86</ele>
        <time>2019-10-28T11:46:23.000Z</time>
      </trkpt>
      <trkpt lat="48.59746" lon="2.16212">
        <ele>86</ele>
        <time>2019-10-28T11:46:24.000Z</time>
      </trkpt>
      <trkpt lat="48.59746" lon="2.16212">
        <ele>86</ele>
        <time>2019-10-28T11:46:25.000Z</time>
      </trkpt>
      <trkpt lat="48.59746" lon="2.16212">
        <ele>86</ele>
        <time>2019-10-28T11:46:26.000Z</time>
      </trkpt>
      <trkpt lat="48.59746" lon="2.16212">
        <ele>86</ele>
        <time>2019-10-28T11:46:27.000Z</time>
      </trkpt>
      <trkpt lat="48.59746" lon="2.16212">
        <ele>86</ele>
        <time>2019-10-28T11:46:28.000Z</time>
      </trkpt>
      <trkpt lat="48.59745" lon="2.16211">
        <ele>86</ele>
        <time>2019-10-28T11:46:29.000Z</time>
      </trkpt>
      <trkpt lat="48.59745" lon="2.16209">
        <ele>86</ele>
        <time>2019-10-28T11:46:30.000Z</time>
      </trkpt>
      <trkpt lat="48.59745" lon="2.16207">
        <ele>86</ele>
        <time>2019-10-28T11:46:31.000Z</time>
      </trkpt>
      <trkpt lat="48.59745" lon="2.16205">
        <ele>86</ele>
        <time>2019-10-28T11:46:32.000Z</time>
      </trkpt>
      <trkpt lat="48.59745" lon="2.16203">
        <ele>86</ele>
        <time>2019-10-28T11:46:33.000Z</time>
      </trkpt>
      <trkpt lat="48.59744" lon="2.16201">
        <ele>86</ele>
        <time>2019-10-28T11:46:34.000Z</time>
      </trkpt>
      <trkpt lat="48.59744" lon="2.16199">
        <ele>86</ele>
        <time>2019-10-28T11:46:35.000Z</time>
      </trkpt>
      <trkpt lat="48.59744" lon="2.16197">
        <ele>86</ele>
        <time>2019-10-28T11:46:36.000Z</time>
      </trkpt>
      <trkpt lat="48.59744" lon="2.16195">
        <ele>85</ele>
        <time>2019-10-28T11:46:37.000Z</time>
      </trkpt>
      <trkpt lat="48.59743" lon="2.16193">
        <ele>85</ele>
        <time>2019-10-28T11:46:38.000Z</time>
      </trkpt>
      <trkpt lat="48.59743" lon="2.16191">
        <ele>85</ele>
        <time>2019-10-28T11:46:39.000Z</time>
      </trkpt>
      <trkpt lat="48.59743" lon="2.16189">
        <ele>85</ele>
        <time>2019-10-28T11:46:40.000Z</time>
      </trkpt>
      <trkpt lat="48.59743" lon="2.16187">
        <ele>85</ele>
        <time>2019-10-28T11:46:41.000Z</time>
      </trkpt>
      <trkpt lat="48.59743" lon="2.16185">
        <ele>85</ele>
        <time>2019-10-28T11:46:42.000Z</time>
      </trkpt>
      <trkpt lat="48.59742" lon="2.16182">
        <ele>85</ele>
        <time>2019-10-28T11:46:43.000Z</time>
      </trkpt>
      <trkpt lat="48.59742" lon="2.1618">
        <ele>85</ele>
        <time>2019-10-28T11:46:44.000Z</time>
      </trkpt>
      <trkpt lat="48.59742" lon="2.16178">
        <ele>85</ele>
        <time>2019-10-28T11:46:45.000Z</time>
      </trkpt>
      <trkpt lat="48.59742" lon="2.16176">
        <ele>85</ele>
        <time>2019-10-28T11:46:46.000Z</time>
      </trkpt>
      <trkpt lat="48.59742" lon="2.16174">
        <ele>85</ele>
        <time>2019-10-28T11:46:47.000Z</time>
      </trkpt>
      <trkpt lat="48.59742" lon="2.16172">
        <ele>85</ele>
        <time>2019-10-28T11:46:48.000Z</time>
      </trkpt>
      <trkpt lat="48.59741" lon="2.1617">
        <ele>85</ele>
        <time>2019-10-28T11:46:49.000Z</time>
      </trkpt>
      <trkpt lat="48.59741" lon="2.16168">
        <ele>85</ele>
        <time>2019-10-28T11:46:50.000Z</time>
      </trkpt>
      <trkpt lat="48.59741" lon="2.16166">
        <ele>85</ele>
        <time>2019-10-28T11:46:51.000Z</time>
      </trkpt>
      <trkpt lat="48.59741" lon="2.16164">
        <ele>85</ele>
        <time>2019-10-28T11:46:52.000Z</time>
      </trkpt>
      <trkpt lat="48.59741" lon="2.16161">
        <ele>85</ele>
        <time>2019-10-28T11:46:53.000Z</time>
      </trkpt>
      <trkpt lat="48.59741" lon="2.16159">
        <ele>85</ele>
        <time>2019-10-28T11:46:54.000Z</time>
      </trkpt>
      <trkpt lat="48.59741" lon="2.16157">
        <ele>85</ele>
        <time>2019-10-28T11:46:55.000Z</time>
      </trkpt>
      <trkpt lat="48.59741" lon="2.16155">
        <ele>85</ele>
        <time>2019-10-28T11:46:56.000Z</time>
      </trkpt>
      <trkpt lat="48.59741" lon="2.16153">
        <ele>85</ele>
        <time>2019-10-28T11:46:57.000Z</time>
      </trkpt>
      <trkpt lat="48.59741" lon="2.16151">
        <ele>85</ele>
        <time>2019-10-28T11:46:58.000Z</time>
      </trkpt>
      <trkpt lat="48.59741" lon="2.16149">
        <ele>84</ele>
        <time>2019-10-28T11:46:59.000Z</time>
      </trkpt>
      <trkpt lat="48.59741" lon="2.16147">
        <ele>84</ele>
        <time>2019-10-28T11:47:00.000Z</time>
      </trkpt>
      <trkpt lat="48.59741" lon="2.16145">
        <ele>84</ele>
        <time>2019-10-28T11:47:01.000Z</time>
      </trkpt>
      <trkpt lat="48.59741" lon="2.16143">
        <ele>84</ele>
        <time>2019-10-28T11:47:02.000Z</time>
      </trkpt>
      <trkpt lat="48.59741" lon="2.16141">
        <ele>84</ele>
        <time>2019-10-28T11:47:03.000Z</time>
      </trkpt>
      <trkpt lat="48.59741" lon="2.16138">
        <ele>84</ele>
        <time>2019-10-28T11:47:04.000Z</time>
      </trkpt>
      <trkpt lat="48.5974" lon="2.16136">
        <ele>84</ele>
        <time>2019-10-28T11:47:05.000Z</time>
      </trkpt>
      <trkpt lat="48.5974" lon="2.16134">
        <ele>84</ele>
        <time>2019-10-28T11:47:06.000Z</time>
      </trkpt>
      <trkpt lat="48.5974" lon="2.16132">
        <ele>84</ele>
        <time>2019-10-28T11:47:07.000Z</time>
      </trkpt>
      <trkpt lat="48.5974" lon="2.1613">
        <ele>84</ele>
        <time>2019-10-28T11:47:08.000Z</time>
      </trkpt>
      <trkpt lat="48.5974" lon="2.16128">
        <ele>84</ele>
        <time>2019-10-28T11:47:09.000Z</time>
      </trkpt>
      <trkpt lat="48.59741" lon="2.16126">
        <ele>84</ele>
        <time>2019-10-28T11:47:10.000Z</time>
      </trkpt>
      <trkpt lat="48.59741" lon="2.16124">
        <ele>83</ele>
        <time>2019-10-28T11:47:11.000Z</time>
      </trkpt>
      <trkpt lat="48.59741" lon="2.16122">
        <ele>83</ele>
        <time>2019-10-28T11:47:12.000Z</time>
      </trkpt>
      <trkpt lat="48.59741" lon="2.16119">
        <ele>83</ele>
        <time>2019-10-28T11:47:13.000Z</time>
      </trkpt>
      <trkpt lat="48.59741" lon="2.16117">
        <ele>83</ele>
        <time>2019-10-28T11:47:14.000Z</time>
      </trkpt>
      <trkpt lat="48.59741" lon="2.16115">
        <ele>83</ele>
        <time>2019-10-28T11:47:15.000Z</time>
      </trkpt>
      <trkpt lat="48.59741" lon="2.16113">
        <ele>83</ele>
        <time>2019-10-28T11:47:16.000Z</time>
      </trkpt>
      <trkpt lat="48.59741" lon="2.16111">
        <ele>83</ele>
        <time>2019-10-28T11:47:17.000Z</time>
      </trkpt>
      <trkpt lat="48.59741" lon="2.16109">
        <ele>83</ele>
        <time>2019-10-28T11:47:18.000Z</time>
      </trkpt>
      <trkpt lat="48.5974" lon="2.16107">
        <ele>83</ele>
        <time>2019-10-28T11:47:19.000Z</time>
      </trkpt>
      <trkpt lat="48.5974" lon="2.16105">
        <ele>83</ele>
        <time>2019-10-28T11:47:20.000Z</time>
      </trkpt>
      <trkpt lat="48.5974" lon="2.16102">
        <ele>83</ele>
        <time>2019-10-28T11:47:21.000Z</time>
      </trkpt>
      <trkpt lat="48.5974" lon="2.161">
        <ele>83</ele>
        <time>2019-10-28T11:47:22.000Z</time>
      </trkpt>
      <trkpt lat="48.5974" lon="2.16098">
        <ele>83</ele>
        <time>2019-10-28T11:47:23.000Z</time>
      </trkpt>
      <trkpt lat="48.5974" lon="2.16096">
        <ele>83</ele>
        <time>2019-10-28T11:47:24.000Z</time>
      </trkpt>
      <trkpt lat="48.5974" lon="2.16094">
        <ele>83</ele>
        <time>2019-10-28T11:47:25.000Z</time>
      </trkpt>
      <trkpt lat="48.5974" lon="2.16092">
        <ele>83</ele>
        <time>2019-10-28T11:47:26.000Z</time>
      </trkpt>
      <trkpt lat="48.5974" lon="2.1609">
        <ele>83</ele>
        <time>2019-10-28T11:47:27.000Z</time>
      </trkpt>
      <trkpt lat="48.5974" lon="2.16087">
        <ele>83</ele>
        <time>2019-10-28T11:47:28.000Z</time>
      </trkpt>
      <trkpt lat="48.5974" lon="2.16085">
        <ele>83</ele>
        <time>2019-10-28T11:47:29.000Z</time>
      </trkpt>
      <trkpt lat="48.5974" lon="2.16083">
        <ele>83</ele>
        <time>2019-10-28T11:47:30.000Z</time>
      </trkpt>
      <trkpt lat="48.59739" lon="2.16081">
        <ele>83</ele>
        <time>2019-10-28T11:47:31.000Z</time>
      </trkpt>
      <trkpt lat="48.59739" lon="2.16079">
        <ele>83</ele>
        <time>2019-10-28T11:47:32.000Z</time>
      </trkpt>
      <trkpt lat="48.59739" lon="2.16077">
        <ele>83</ele>
        <time>2019-10-28T11:47:33.000Z</time>
      </trkpt>
      <trkpt lat="48.59738" lon="2.16075">
        <ele>83</ele>
        <time>2019-10-28T11:47:34.000Z</time>
      </trkpt>
      <trkpt lat="48.59738" lon="2.16073">
        <ele>82</ele>
        <time>2019-10-28T11:47:35.000Z</time>
      </trkpt>
      <trkpt lat="48.59738" lon="2.1607">
        <ele>83</ele>
        <time>2019-10-28T11:47:36.000Z</time>
      </trkpt>
      <trkpt lat="48.59738" lon="2.16068">
        <ele>83</ele>
        <time>2019-10-28T11:47:37.000Z</time>
      </trkpt>
      <trkpt lat="48.59738" lon="2.16066">
        <ele>82</ele>
        <time>2019-10-28T11:47:38.000Z</time>
      </trkpt>
      <trkpt lat="48.59738" lon="2.16063">
        <ele>82</ele>
        <time>2019-10-28T11:47:39.000Z</time>
      </trkpt>
      <trkpt lat="48.59738" lon="2.16061">
        <ele>82</ele>
        <time>2019-10-28T11:47:40.000Z</time>
      </trkpt>
      <trkpt lat="48.59738" lon="2.16059">
        <ele>82</ele>
        <time>2019-10-28T11:47:41.000Z</time>
      </trkpt>
      <trkpt lat="48.59738" lon="2.16057">
        <ele>82</ele>
        <time>2019-10-28T11:47:42.000Z</time>
      </trkpt>
      <trkpt lat="48.59737" lon="2.16055">
        <ele>82</ele>
        <time>2019-10-28T11:47:43.000Z</time>
      </trkpt>
      <trkpt lat="48.59737" lon="2.16052">
        <ele>82</ele>
        <time>2019-10-28T11:47:44.000Z</time>
      </trkpt>
      <trkpt lat="48.59737" lon="2.1605">
        <ele>82</ele>
        <time>2019-10-28T11:47:45.000Z</time>
      </trkpt>
      <trkpt lat="48.59737" lon="2.16048">
        <ele>82</ele>
        <time>2019-10-28T11:47:46.000Z</time>
      </trkpt>
      <trkpt lat="48.59737" lon="2.16046">
        <ele>82</ele>
        <time>2019-10-28T11:47:47.000Z</time>
      </trkpt>
      <trkpt lat="48.59737" lon="2.16044">
        <ele>82</ele>
        <time>2019-10-28T11:47:48.000Z</time>
      </trkpt>
      <trkpt lat="48.59737" lon="2.16041">
        <ele>82</ele>
        <time>2019-10-28T11:47:49.000Z</time>
      </trkpt>
      <trkpt lat="48.59737" lon="2.16039">
        <ele>82</ele>
        <time>2019-10-28T11:47:50.000Z</time>
      </trkpt>
      <trkpt lat="48.59737" lon="2.16037">
        <ele>82</ele>
        <time>2019-10-28T11:47:51.000Z</time>
      </trkpt>
      <trkpt lat="48.59737" lon="2.16035">
        <ele>82</ele>
        <time>2019-10-28T11:47:52.000Z</time>
      </trkpt>
      <trkpt lat="48.59737" lon="2.16033">
        <ele>82</ele>
        <time>2019-10-28T11:47:53.000Z</time>
      </trkpt>
      <trkpt lat="48.59737" lon="2.16031">
        <ele>82</ele>
        <time>2019-10-28T11:47:54.000Z</time>
      </trkpt>
      <trkpt lat="48.59737" lon="2.16029">
        <ele>81</ele>
        <time>2019-10-28T11:47:55.000Z</time>
      </trkpt>
      <trkpt lat="48.59737" lon="2.16027">
        <ele>81</ele>
        <time>2019-10-28T11:47:56.000Z</time>
      </trkpt>
      <trkpt lat="48.59737" lon="2.16025">
        <ele>81</ele>
        <time>2019-10-28T11:47:57.000Z</time>
      </trkpt>
      <trkpt lat="48.59737" lon="2.16023">
        <ele>81</ele>
        <time>2019-10-28T11:47:58.000Z</time>
      </trkpt>
      <trkpt lat="48.59736" lon="2.16021">
        <ele>82</ele>
        <time>2019-10-28T11:47:59.000Z</time>
      </trkpt>
      <trkpt lat="48.59736" lon="2.16019">
        <ele>82</ele>
        <time>2019-10-28T11:48:00.000Z</time>
      </trkpt>
      <trkpt lat="48.59736" lon="2.16017">
        <ele>82</ele>
        <time>2019-10-28T11:48:01.000Z</time>
      </trkpt>
      <trkpt lat="48.59736" lon="2.16015">
        <ele>82</ele>
        <time>2019-10-28T11:48:02.000Z</time>
      </trkpt>
      <trkpt lat="48.59736" lon="2.16013">
        <ele>82</ele>
        <time>2019-10-28T11:48:03.000Z</time>
      </trkpt>
      <trkpt lat="48.59735" lon="2.16011">
        <ele>82</ele>
        <time>2019-10-28T11:48:04.000Z</time>
      </trkpt>
      <trkpt lat="48.59735" lon="2.16009">
        <ele>82</ele>
        <time>2019-10-28T11:48:05.000Z</time>
      </trkpt>
      <trkpt lat="48.59735" lon="2.16007">
        <ele>82</ele>
        <time>2019-10-28T11:48:06.000Z</time>
      </trkpt>
      <trkpt lat="48.59734" lon="2.16005">
        <ele>82</ele>
        <time>2019-10-28T11:48:07.000Z</time>
      </trkpt>
      <trkpt lat="48.59734" lon="2.16003">
        <ele>82</ele>
        <time>2019-10-28T11:48:08.000Z</time>
      </trkpt>
      <trkpt lat="48.59734" lon="2.16001">
        <ele>82</ele>
        <time>2019-10-28T11:48:09.000Z</time>
      </trkpt>
      <trkpt lat="48.59733" lon="2.15999">
        <ele>82</ele>
        <time>2019-10-28T11:48:10.000Z</time>
      </trkpt>
      <trkpt lat="48.59733" lon="2.15997">
        <ele>82</ele>
        <time>2019-10-28T11:48:11.000Z</time>
      </trkpt>
      <trkpt lat="48.59733" lon="2.15996">
        <ele>82</ele>
        <time>2019-10-28T11:48:12.000Z</time>
      </trkpt>
      <trkpt lat="48.59733" lon="2.15994">
        <ele>82</ele>
        <time>2019-10-28T11:48:13.000Z</time>
      </trkpt>
      <trkpt lat="48.59733" lon="2.15992">
        <ele>82</ele>
        <time>2019-10-28T11:48:14.000Z</time>
      </trkpt>
      <trkpt lat="48.59733" lon="2.1599">
        <ele>82</ele>
        <time>2019-10-28T11:48:15.000Z</time>
      </trkpt>
      <trkpt lat="48.59733" lon="2.15988">
        <ele>82</ele>
        <time>2019-10-28T11:48:16.000Z</time>
      </trkpt>
      <trkpt lat="48.59733" lon="2.15986">
        <ele>82</ele>
        <time>2019-10-28T11:48:17.000Z</time>
      </trkpt>
      <trkpt lat="48.59733" lon="2.15984">
        <ele>82</ele>
        <time>2019-10-28T11:48:18.000Z</time>
      </trkpt>
      <trkpt lat="48.59733" lon="2.15982">
        <ele>82</ele>
        <time>2019-10-28T11:48:19.000Z</time>
      </trkpt>
      <trkpt lat="48.59733" lon="2.1598">
        <ele>82</ele>
        <time>2019-10-28T11:48:20.000Z</time>
      </trkpt>
      <trkpt lat="48.59732" lon="2.15978">
        <ele>82</ele>
        <time>2019-10-28T11:48:21.000Z</time>
      </trkpt>
      <trkpt lat="48.59732" lon="2.15976">
        <ele>82</ele>
        <time>2019-10-28T11:48:22.000Z</time>
      </trkpt>
      <trkpt lat="48.59732" lon="2.15974">
        <ele>82</ele>
        <time>2019-10-28T11:48:23.000Z</time>
      </trkpt>
      <trkpt lat="48.59731" lon="2.15972">
        <ele>82</ele>
        <time>2019-10-28T11:48:24.000Z</time>
      </trkpt>
      <trkpt lat="48.59731" lon="2.1597">
        <ele>83</ele>
        <time>2019-10-28T11:48:25.000Z</time>
      </trkpt>
      <trkpt lat="48.59731" lon="2.15968">
        <ele>83</ele>
        <time>2019-10-28T11:48:26.000Z</time>
      </trkpt>
      <trkpt lat="48.59731" lon="2.15967">
        <ele>82</ele>
        <time>2019-10-28T11:48:27.000Z</time>
      </trkpt>
      <trkpt lat="48.59731" lon="2.15965">
        <ele>83</ele>
        <time>2019-10-28T11:48:28.000Z</time>
      </trkpt>
      <trkpt lat="48.59731" lon="2.15963">
        <ele>82</ele>
        <time>2019-10-28T11:48:29.000Z</time>
      </trkpt>
      <trkpt lat="48.59731" lon="2.15962">
        <ele>82</ele>
        <time>2019-10-28T11:48:30.000Z</time>
      </trkpt>
      <trkpt lat="48.5973" lon="2.15961">
        <ele>83</ele>
        <time>2019-10-28T11:48:31.000Z</time>
      </trkpt>
      <trkpt lat="48.5973" lon="2.15959">
        <ele>83</ele>
        <time>2019-10-28T11:48:32.000Z</time>
      </trkpt>
      <trkpt lat="48.59729" lon="2.15957">
        <ele>83</ele>
        <time>2019-10-28T11:48:33.000Z</time>
      </trkpt>
      <trkpt lat="48.59729" lon="2.15955">
        <ele>82</ele>
        <time>2019-10-28T11:48:34.000Z</time>
      </trkpt>
      <trkpt lat="48.59728" lon="2.15954">
        <ele>82</ele>
        <time>2019-10-28T11:48:35.000Z</time>
      </trkpt>
      <trkpt lat="48.59728" lon="2.15952">
        <ele>82</ele>
        <time>2019-10-28T11:48:36.000Z</time>
      </trkpt>
      <trkpt lat="48.59727" lon="2.15951">
        <ele>83</ele>
        <time>2019-10-28T11:48:37.000Z</time>
      </trkpt>
      <trkpt lat="48.59727" lon="2.1595">
        <ele>83</ele>
        <time>2019-10-28T11:48:38.000Z</time>
      </trkpt>
      <trkpt lat="48.59727" lon="2.1595">
        <ele>83</ele>
        <time>2019-10-28T11:48:39.000Z</time>
      </trkpt>
      <trkpt lat="48.59727" lon="2.1595">
        <ele>83</ele>
        <time>2019-10-28T11:48:40.000Z</time>
      </trkpt>
      <trkpt lat="48.59727" lon="2.15949">
        <ele>83</ele>
        <time>2019-10-28T11:48:41.000Z</time>
      </trkpt>
      <trkpt lat="48.59728" lon="2.15948">
        <ele>83</ele>
        <time>2019-10-28T11:48:42.000Z</time>
      </trkpt>
      <trkpt lat="48.59728" lon="2.15947">
        <ele>83</ele>
        <time>2019-10-28T11:48:43.000Z</time>
      </trkpt>
      <trkpt lat="48.59728" lon="2.15945">
        <ele>82</ele>
        <time>2019-10-28T11:48:44.000Z</time>
      </trkpt>
      <trkpt lat="48.59728" lon="2.15943">
        <ele>82</ele>
        <time>2019-10-28T11:48:45.000Z</time>
      </trkpt>
      <trkpt lat="48.59728" lon="2.15941">
        <ele>82</ele>
        <time>2019-10-28T11:48:46.000Z</time>
      </trkpt>
      <trkpt lat="48.59728" lon="2.15939">
        <ele>82</ele>
        <time>2019-10-28T11:48:47.000Z</time>
      </trkpt>
      <trkpt lat="48.59728" lon="2.15937">
        <ele>82</ele>
        <time>2019-10-28T11:48:48.000Z</time>
      </trkpt>
      <trkpt lat="48.59728" lon="2.15935">
        <ele>82</ele>
        <time>2019-10-28T11:48:49.000Z</time>
      </trkpt>
      <trkpt lat="48.59728" lon="2.15933">
        <ele>82</ele>
        <time>2019-10-28T11:48:50.000Z</time>
      </trkpt>
      <trkpt lat="48.59728" lon="2.15931">
        <ele>82</ele>
        <time>2019-10-28T11:48:51.000Z</time>
      </trkpt>
      <trkpt lat="48.59727" lon="2.15929">
        <ele>81</ele>
        <time>2019-10-28T11:48:52.000Z</time>
      </trkpt>
      <trkpt lat="48.59727" lon="2.15927">
        <ele>81</ele>
        <time>2019-10-28T11:48:53.000Z</time>
      </trkpt>
      <trkpt lat="48.59726" lon="2.15925">
        <ele>81</ele>
        <time>2019-10-28T11:48:54.000Z</time>
      </trkpt>
      <trkpt lat="48.59726" lon="2.15924">
        <ele>81</ele>
        <time>2019-10-28T11:48:55.000Z</time>
      </trkpt>
      <trkpt lat="48.59726" lon="2.15922">
        <ele>81</ele>
        <time>2019-10-28T11:48:56.000Z</time>
      </trkpt>
      <trkpt lat="48.59725" lon="2.1592">
        <ele>82</ele>
        <time>2019-10-28T11:48:57.000Z</time>
      </trkpt>
      <trkpt lat="48.59724" lon="2.15919">
        <ele>81</ele>
        <time>2019-10-28T11:48:58.000Z</time>
      </trkpt>
      <trkpt lat="48.59724" lon="2.15916">
        <ele>81</ele>
        <time>2019-10-28T11:48:59.000Z</time>
      </trkpt>
      <trkpt lat="48.59724" lon="2.15914">
        <ele>81</ele>
        <time>2019-10-28T11:49:00.000Z</time>
      </trkpt>
      <trkpt lat="48.59723" lon="2.15911">
        <ele>80</ele>
        <time>2019-10-28T11:49:01.000Z</time>
      </trkpt>
      <trkpt lat="48.59723" lon="2.15909">
        <ele>80</ele>
        <time>2019-10-28T11:49:02.000Z</time>
      </trkpt>
      <trkpt lat="48.59722" lon="2.15907">
        <ele>80</ele>
        <time>2019-10-28T11:49:03.000Z</time>
      </trkpt>
      <trkpt lat="48.59722" lon="2.15905">
        <ele>81</ele>
        <time>2019-10-28T11:49:04.000Z</time>
      </trkpt>
      <trkpt lat="48.59721" lon="2.15903">
        <ele>81</ele>
        <time>2019-10-28T11:49:05.000Z</time>
      </trkpt>
      <trkpt lat="48.59721" lon="2.15902">
        <ele>81</ele>
        <time>2019-10-28T11:49:06.000Z</time>
      </trkpt>
      <trkpt lat="48.5972" lon="2.159">
        <ele>80</ele>
        <time>2019-10-28T11:49:07.000Z</time>
      </trkpt>
      <trkpt lat="48.59719" lon="2.15898">
        <ele>79</ele>
        <time>2019-10-28T11:49:08.000Z</time>
      </trkpt>
      <trkpt lat="48.59719" lon="2.15897">
        <ele>79</ele>
        <time>2019-10-28T11:49:09.000Z</time>
      </trkpt>
      <trkpt lat="48.59718" lon="2.15895">
        <ele>78</ele>
        <time>2019-10-28T11:49:10.000Z</time>
      </trkpt>
      <trkpt lat="48.59717" lon="2.15893">
        <ele>78</ele>
        <time>2019-10-28T11:49:11.000Z</time>
      </trkpt>
      <trkpt lat="48.59717" lon="2.15891">
        <ele>78</ele>
        <time>2019-10-28T11:49:12.000Z</time>
      </trkpt>
      <trkpt lat="48.59716" lon="2.1589">
        <ele>77</ele>
        <time>2019-10-28T11:49:13.000Z</time>
      </trkpt>
      <trkpt lat="48.59716" lon="2.15888">
        <ele>77</ele>
        <time>2019-10-28T11:49:14.000Z</time>
      </trkpt>
      <trkpt lat="48.59716" lon="2.15887">
        <ele>77</ele>
        <time>2019-10-28T11:49:15.000Z</time>
      </trkpt>
      <trkpt lat="48.59715" lon="2.15885">
        <ele>77</ele>
        <time>2019-10-28T11:49:16.000Z</time>
      </trkpt>
      <trkpt lat="48.59715" lon="2.15884">
        <ele>77</ele>
        <time>2019-10-28T11:49:17.000Z</time>
      </trkpt>
      <trkpt lat="48.59714" lon="2.15882">
        <ele>77</ele>
        <time>2019-10-28T11:49:18.000Z</time>
      </trkpt>
      <trkpt lat="48.59714" lon="2.15881">
        <ele>77</ele>
        <time>2019-10-28T11:49:19.000Z</time>
      </trkpt>
      <trkpt lat="48.59713" lon="2.15879">
        <ele>77</ele>
        <time>2019-10-28T11:49:20.000Z</time>
      </trkpt>
      <trkpt lat="48.59713" lon="2.15878">
        <ele>78</ele>
        <time>2019-10-28T11:49:21.000Z</time>
      </trkpt>
      <trkpt lat="48.59712" lon="2.15876">
        <ele>78</ele>
        <time>2019-10-28T11:49:22.000Z</time>
      </trkpt>
      <trkpt lat="48.59712" lon="2.15875">
        <ele>77</ele>
        <time>2019-10-28T11:49:23.000Z</time>
      </trkpt>
      <trkpt lat="48.59711" lon="2.15873">
        <ele>78</ele>
        <time>2019-10-28T11:49:24.000Z</time>
      </trkpt>
      <trkpt lat="48.5971" lon="2.15872">
        <ele>77</ele>
        <time>2019-10-28T11:49:25.000Z</time>
      </trkpt>
      <trkpt lat="48.5971" lon="2.1587">
        <ele>77</ele>
        <time>2019-10-28T11:49:26.000Z</time>
      </trkpt>
      <trkpt lat="48.59709" lon="2.15868">
        <ele>77</ele>
        <time>2019-10-28T11:49:27.000Z</time>
      </trkpt>
      <trkpt lat="48.59709" lon="2.15866">
        <ele>77</ele>
        <time>2019-10-28T11:49:28.000Z</time>
      </trkpt>
      <trkpt lat="48.59709" lon="2.15864">
        <ele>77</ele>
        <time>2019-10-28T11:49:29.000Z</time>
      </trkpt>
      <trkpt lat="48.59708" lon="2.15862">
        <ele>78</ele>
        <time>2019-10-28T11:49:30.000Z</time>
      </trkpt>
      <trkpt lat="48.59708" lon="2.1586">
        <ele>77</ele>
        <time>2019-10-28T11:49:31.000Z</time>
      </trkpt>
      <trkpt lat="48.59708" lon="2.15858">
        <ele>78</ele>
        <time>2019-10-28T11:49:32.000Z</time>
      </trkpt>
      <trkpt lat="48.59707" lon="2.15856">
        <ele>78</ele>
        <time>2019-10-28T11:49:33.000Z</time>
      </trkpt>
      <trkpt lat="48.59707" lon="2.15853">
        <ele>78</ele>
        <time>2019-10-28T11:49:34.000Z</time>
      </trkpt>
      <trkpt lat="48.59707" lon="2.15851">
        <ele>78</ele>
        <time>2019-10-28T11:49:35.000Z</time>
      </trkpt>
      <trkpt lat="48.59707" lon="2.15849">
        <ele>78</ele>
        <time>2019-10-28T11:49:36.000Z</time>
      </trkpt>
      <trkpt lat="48.59706" lon="2.15847">
        <ele>78</ele>
        <time>2019-10-28T11:49:37.000Z</time>
      </trkpt>
      <trkpt lat="48.59706" lon="2.15846">
        <ele>78</ele>
        <time>2019-10-28T11:49:38.000Z</time>
      </trkpt>
      <trkpt lat="48.59706" lon="2.15843">
        <ele>78</ele>
        <time>2019-10-28T11:49:39.000Z</time>
      </trkpt>
      <trkpt lat="48.59706" lon="2.15841">
        <ele>79</ele>
        <time>2019-10-28T11:49:40.000Z</time>
      </trkpt>
      <trkpt lat="48.59705" lon="2.15838">
        <ele>80</ele>
        <time>2019-10-28T11:49:41.000Z</time>
      </trkpt>
      <trkpt lat="48.59704" lon="2.15836">
        <ele>80</ele>
        <time>2019-10-28T11:49:42.000Z</time>
      </trkpt>
      <trkpt lat="48.59704" lon="2.15833">
        <ele>81</ele>
        <time>2019-10-28T11:49:43.000Z</time>
      </trkpt>
      <trkpt lat="48.59703" lon="2.15831">
        <ele>81</ele>
        <time>2019-10-28T11:49:44.000Z</time>
      </trkpt>
      <trkpt lat="48.59703" lon="2.15829">
        <ele>82</ele>
        <time>2019-10-28T11:49:45.000Z</time>
      </trkpt>
      <trkpt lat="48.59702" lon="2.15827">
        <ele>82</ele>
        <time>2019-10-28T11:49:46.000Z</time>
      </trkpt>
      <trkpt lat="48.59702" lon="2.15825">
        <ele>83</ele>
        <time>2019-10-28T11:49:47.000Z</time>
      </trkpt>
      <trkpt lat="48.59701" lon="2.15823">
        <ele>83</ele>
        <time>2019-10-28T11:49:48.000Z</time>
      </trkpt>
      <trkpt lat="48.59701" lon="2.15821">
        <ele>84</ele>
        <time>2019-10-28T11:49:49.000Z</time>
      </trkpt>
      <trkpt lat="48.597" lon="2.15819">
        <ele>84</ele>
        <time>2019-10-28T11:49:50.000Z</time>
      </trkpt>
      <trkpt lat="48.597" lon="2.15817">
        <ele>84</ele>
        <time>2019-10-28T11:49:51.000Z</time>
      </trkpt>
      <trkpt lat="48.59699" lon="2.15814">
        <ele>85</ele>
        <time>2019-10-28T11:49:52.000Z</time>
      </trkpt>
      <trkpt lat="48.59699" lon="2.15812">
        <ele>84</ele>
        <time>2019-10-28T11:49:53.000Z</time>
      </trkpt>
      <trkpt lat="48.59698" lon="2.1581">
        <ele>84</ele>
        <time>2019-10-28T11:49:54.000Z</time>
      </trkpt>
      <trkpt lat="48.59698" lon="2.15808">
        <ele>84</ele>
        <time>2019-10-28T11:49:55.000Z</time>
      </trkpt>
      <trkpt lat="48.59698" lon="2.15806">
        <ele>84</ele>
        <time>2019-10-28T11:49:56.000Z</time>
      </trkpt>
      <trkpt lat="48.59697" lon="2.15804">
        <ele>84</ele>
        <time>2019-10-28T11:49:57.000Z</time>
      </trkpt>
      <trkpt lat="48.59697" lon="2.15802">
        <ele>84</ele>
        <time>2019-10-28T11:49:58.000Z</time>
      </trkpt>
      <trkpt lat="48.59697" lon="2.15801">
        <ele>85</ele>
        <time>2019-10-28T11:49:59.000Z</time>
      </trkpt>
      <trkpt lat="48.59697" lon="2.15799">
        <ele>85</ele>
        <time>2019-10-28T11:50:00.000Z</time>
      </trkpt>
      <trkpt lat="48.59697" lon="2.15797">
        <ele>85</ele>
        <time>2019-10-28T11:50:01.000Z</time>
      </trkpt>
      <trkpt lat="48.59696" lon="2.15795">
        <ele>85</ele>
        <time>2019-10-28T11:50:02.000Z</time>
      </trkpt>
      <trkpt lat="48.59696" lon="2.15793">
        <ele>84</ele>
        <time>2019-10-28T11:50:03.000Z</time>
      </trkpt>
      <trkpt lat="48.59696" lon="2.1579">
        <ele>84</ele>
        <time>2019-10-28T11:50:04.000Z</time>
      </trkpt>
      <trkpt lat="48.59696" lon="2.15788">
        <ele>84</ele>
        <time>2019-10-28T11:50:05.000Z</time>
      </trkpt>
      <trkpt lat="48.59697" lon="2.15787">
        <ele>83</ele>
        <time>2019-10-28T11:50:06.000Z</time>
      </trkpt>
      <trkpt lat="48.59697" lon="2.15785">
        <ele>83</ele>
        <time>2019-10-28T11:50:07.000Z</time>
      </trkpt>
      <trkpt lat="48.59697" lon="2.15783">
        <ele>83</ele>
        <time>2019-10-28T11:50:08.000Z</time>
      </trkpt>
      <trkpt lat="48.59696" lon="2.15781">
        <ele>83</ele>
        <time>2019-10-28T11:50:09.000Z</time>
      </trkpt>
      <trkpt lat="48.59696" lon="2.15779">
        <ele>82</ele>
        <time>2019-10-28T11:50:10.000Z</time>
      </trkpt>
      <trkpt lat="48.59696" lon="2.15777">
        <ele>82</ele>
        <time>2019-10-28T11:50:11.000Z</time>
      </trkpt>
      <trkpt lat="48.59695" lon="2.15775">
        <ele>81</ele>
        <time>2019-10-28T11:50:12.000Z</time>
      </trkpt>
      <trkpt lat="48.59695" lon="2.15774">
        <ele>81</ele>
        <time>2019-10-28T11:50:13.000Z</time>
      </trkpt>
      <trkpt lat="48.59695" lon="2.15772">
        <ele>81</ele>
        <time>2019-10-28T11:50:14.000Z</time>
      </trkpt>
      <trkpt lat="48.59694" lon="2.1577">
        <ele>81</ele>
        <time>2019-10-28T11:50:15.000Z</time>
      </trkpt>
      <trkpt lat="48.59694" lon="2.15767">
        <ele>82</ele>
        <time>2019-10-28T11:50:16.000Z</time>
      </trkpt>
      <trkpt lat="48.59694" lon="2.15765">
        <ele>82</ele>
        <time>2019-10-28T11:50:17.000Z</time>
      </trkpt>
      <trkpt lat="48.59694" lon="2.15763">
        <ele>82</ele>
        <time>2019-10-28T11:50:18.000Z</time>
      </trkpt>
      <trkpt lat="48.59693" lon="2.1576">
        <ele>82</ele>
        <time>2019-10-28T11:50:19.000Z</time>
      </trkpt>
      <trkpt lat="48.59693" lon="2.15758">
        <ele>83</ele>
        <time>2019-10-28T11:50:20.000Z</time>
      </trkpt>
      <trkpt lat="48.59693" lon="2.15756">
        <ele>83</ele>
        <time>2019-10-28T11:50:21.000Z</time>
      </trkpt>
      <trkpt lat="48.59692" lon="2.15754">
        <ele>83</ele>
        <time>2019-10-28T11:50:22.000Z</time>
      </trkpt>
      <trkpt lat="48.59692" lon="2.15752">
        <ele>83</ele>
        <time>2019-10-28T11:50:23.000Z</time>
      </trkpt>
      <trkpt lat="48.59692" lon="2.1575">
        <ele>83</ele>
        <time>2019-10-28T11:50:24.000Z</time>
      </trkpt>
      <trkpt lat="48.59692" lon="2.15747">
        <ele>83</ele>
        <time>2019-10-28T11:50:25.000Z</time>
      </trkpt>
      <trkpt lat="48.59692" lon="2.15745">
        <ele>83</ele>
        <time>2019-10-28T11:50:26.000Z</time>
      </trkpt>
      <trkpt lat="48.59691" lon="2.15743">
        <ele>83</ele>
        <time>2019-10-28T11:50:27.000Z</time>
      </trkpt>
      <trkpt lat="48.59691" lon="2.15741">
        <ele>83</ele>
        <time>2019-10-28T11:50:28.000Z</time>
      </trkpt>
      <trkpt lat="48.59691" lon="2.15739">
        <ele>83</ele>
        <time>2019-10-28T11:50:29.000Z</time>
      </trkpt>
      <trkpt lat="48.59691" lon="2.15737">
        <ele>83</ele>
        <time>2019-10-28T11:50:30.000Z</time>
      </trkpt>
      <trkpt lat="48.5969" lon="2.15735">
        <ele>83</ele>
        <time>2019-10-28T11:50:31.000Z</time>
      </trkpt>
      <trkpt lat="48.5969" lon="2.15733">
        <ele>83</ele>
        <time>2019-10-28T11:50:32.000Z</time>
      </trkpt>
      <trkpt lat="48.5969" lon="2.15731">
        <ele>82</ele>
        <time>2019-10-28T11:50:33.000Z</time>
      </trkpt>
      <trkpt lat="48.59689" lon="2.15729">
        <ele>82</ele>
        <time>2019-10-28T11:50:34.000Z</time>
      </trkpt>
      <trkpt lat="48.59689" lon="2.15727">
        <ele>82</ele>
        <time>2019-10-28T11:50:35.000Z</time>
      </trkpt>
      <trkpt lat="48.59689" lon="2.15724">
        <ele>82</ele>
        <time>2019-10-28T11:50:36.000Z</time>
      </trkpt>
      <trkpt lat="48.59689" lon="2.15722">
        <ele>82</ele>
        <time>2019-10-28T11:50:37.000Z</time>
      </trkpt>
      <trkpt lat="48.59689" lon="2.1572">
        <ele>82</ele>
        <time>2019-10-28T11:50:38.000Z</time>
      </trkpt>
      <trkpt lat="48.59688" lon="2.15717">
        <ele>82</ele>
        <time>2019-10-28T11:50:39.000Z</time>
      </trkpt>
      <trkpt lat="48.59688" lon="2.15715">
        <ele>82</ele>
        <time>2019-10-28T11:50:40.000Z</time>
      </trkpt>
      <trkpt lat="48.59688" lon="2.15713">
        <ele>82</ele>
        <time>2019-10-28T11:50:41.000Z</time>
      </trkpt>
      <trkpt lat="48.59688" lon="2.15711">
        <ele>82</ele>
        <time>2019-10-28T11:50:42.000Z</time>
      </trkpt>
      <trkpt lat="48.59687" lon="2.15709">
        <ele>82</ele>
        <time>2019-10-28T11:50:43.000Z</time>
      </trkpt>
      <trkpt lat="48.59687" lon="2.15706">
        <ele>82</ele>
        <time>2019-10-28T11:50:44.000Z</time>
      </trkpt>
      <trkpt lat="48.59687" lon="2.15704">
        <ele>82</ele>
        <time>2019-10-28T11:50:45.000Z</time>
      </trkpt>
      <trkpt lat="48.59687" lon="2.15702">
        <ele>82</ele>
        <time>2019-10-28T11:50:46.000Z</time>
      </trkpt>
      <trkpt lat="48.59687" lon="2.157">
        <ele>82</ele>
        <time>2019-10-28T11:50:47.000Z</time>
      </trkpt>
      <trkpt lat="48.59686" lon="2.15698">
        <ele>82</ele>
        <time>2019-10-28T11:50:48.000Z</time>
      </trkpt>
      <trkpt lat="48.59686" lon="2.15696">
        <ele>82</ele>
        <time>2019-10-28T11:50:49.000Z</time>
      </trkpt>
      <trkpt lat="48.59686" lon="2.15694">
        <ele>82</ele>
        <time>2019-10-28T11:50:50.000Z</time>
      </trkpt>
      <trkpt lat="48.59685" lon="2.15692">
        <ele>82</ele>
        <time>2019-10-28T11:50:51.000Z</time>
      </trkpt>
      <trkpt lat="48.59684" lon="2.1569">
        <ele>82</ele>
        <time>2019-10-28T11:50:52.000Z</time>
      </trkpt>
      <trkpt lat="48.59684" lon="2.15688">
        <ele>82</ele>
        <time>2019-10-28T11:50:53.000Z</time>
      </trkpt>
      <trkpt lat="48.59684" lon="2.15686">
        <ele>82</ele>
        <time>2019-10-28T11:50:54.000Z</time>
      </trkpt>
      <trkpt lat="48.59684" lon="2.15684">
        <ele>82</ele>
        <time>2019-10-28T11:50:55.000Z</time>
      </trkpt>
      <trkpt lat="48.59685" lon="2.15682">
        <ele>82</ele>
        <time>2019-10-28T11:50:56.000Z</time>
      </trkpt>
      <trkpt lat="48.59685" lon="2.15681">
        <ele>82</ele>
        <time>2019-10-28T11:50:57.000Z</time>
      </trkpt>
      <trkpt lat="48.59685" lon="2.15679">
        <ele>82</ele>
        <time>2019-10-28T11:50:58.000Z</time>
      </trkpt>
      <trkpt lat="48.59685" lon="2.15678">
        <ele>82</ele>
        <time>2019-10-28T11:50:59.000Z</time>
      </trkpt>
      <trkpt lat="48.59685" lon="2.15676">
        <ele>82</ele>
        <time>2019-10-28T11:51:00.000Z</time>
      </trkpt>
      <trkpt lat="48.59685" lon="2.15674">
        <ele>83</ele>
        <time>2019-10-28T11:51:01.000Z</time>
      </trkpt>
      <trkpt lat="48.59685" lon="2.15672">
        <ele>83</ele>
        <time>2019-10-28T11:51:02.000Z</time>
      </trkpt>
      <trkpt lat="48.59685" lon="2.1567">
        <ele>82</ele>
        <time>2019-10-28T11:51:03.000Z</time>
      </trkpt>
      <trkpt lat="48.59685" lon="2.15668">
        <ele>83</ele>
        <time>2019-10-28T11:51:04.000Z</time>
      </trkpt>
      <trkpt lat="48.59685" lon="2.15666">
        <ele>83</ele>
        <time>2019-10-28T11:51:05.000Z</time>
      </trkpt>
      <trkpt lat="48.59685" lon="2.15664">
        <ele>83</ele>
        <time>2019-10-28T11:51:06.000Z</time>
      </trkpt>
      <trkpt lat="48.59685" lon="2.15662">
        <ele>83</ele>
        <time>2019-10-28T11:51:07.000Z</time>
      </trkpt>
      <trkpt lat="48.59685" lon="2.1566">
        <ele>83</ele>
        <time>2019-10-28T11:51:08.000Z</time>
      </trkpt>
      <trkpt lat="48.59685" lon="2.15658">
        <ele>83</ele>
        <time>2019-10-28T11:51:09.000Z</time>
      </trkpt>
      <trkpt lat="48.59685" lon="2.15656">
        <ele>83</ele>
        <time>2019-10-28T11:51:10.000Z</time>
      </trkpt>
      <trkpt lat="48.59685" lon="2.15654">
        <ele>83</ele>
        <time>2019-10-28T11:51:11.000Z</time>
      </trkpt>
      <trkpt lat="48.59685" lon="2.15652">
        <ele>83</ele>
        <time>2019-10-28T11:51:12.000Z</time>
      </trkpt>
      <trkpt lat="48.59684" lon="2.1565">
        <ele>83</ele>
        <time>2019-10-28T11:51:13.000Z</time>
      </trkpt>
      <trkpt lat="48.59684" lon="2.15648">
        <ele>83</ele>
        <time>2019-10-28T11:51:14.000Z</time>
      </trkpt>
      <trkpt lat="48.59684" lon="2.15646">
        <ele>83</ele>
        <time>2019-10-28T11:51:15.000Z</time>
      </trkpt>
      <trkpt lat="48.59684" lon="2.15643">
        <ele>83</ele>
        <time>2019-10-28T11:51:16.000Z</time>
      </trkpt>
      <trkpt lat="48.59684" lon="2.15641">
        <ele>83</ele>
        <time>2019-10-28T11:51:17.000Z</time>
      </trkpt>
      <trkpt lat="48.59684" lon="2.15639">
        <ele>83</ele>
        <time>2019-10-28T11:51:18.000Z</time>
      </trkpt>
      <trkpt lat="48.59683" lon="2.15637">
        <ele>83</ele>
        <time>2019-10-28T11:51:19.000Z</time>
      </trkpt>
      <trkpt lat="48.59683" lon="2.15635">
        <ele>83</ele>
        <time>2019-10-28T11:51:20.000Z</time>
      </trkpt>
      <trkpt lat="48.59683" lon="2.15632">
        <ele>83</ele>
        <time>2019-10-28T11:51:21.000Z</time>
      </trkpt>
      <trkpt lat="48.59683" lon="2.15628">
        <ele>83</ele>
        <time>2019-10-28T11:51:22.000Z</time>
      </trkpt>
      <trkpt lat="48.59682" lon="2.15624">
        <ele>83</ele>
        <time>2019-10-28T11:51:23.000Z</time>
      </trkpt>
      <trkpt lat="48.59682" lon="2.15618">
        <ele>83</ele>
        <time>2019-10-28T11:51:24.000Z</time>
      </trkpt>
      <trkpt lat="48.59681" lon="2.15611">
        <ele>83</ele>
        <time>2019-10-28T11:51:25.000Z</time>
      </trkpt>
      <trkpt lat="48.5968" lon="2.15604">
        <ele>83</ele>
        <time>2019-10-28T11:51:26.000Z</time>
      </trkpt>
      <trkpt lat="48.59679" lon="2.15597">
        <ele>83</ele>
        <time>2019-10-28T11:51:27.000Z</time>
      </trkpt>
      <trkpt lat="48.59678" lon="2.1559">
        <ele>83</ele>
        <time>2019-10-28T11:51:28.000Z</time>
      </trkpt>
      <trkpt lat="48.59677" lon="2.15583">
        <ele>83</ele>
        <time>2019-10-28T11:51:29.000Z</time>
      </trkpt>
      <trkpt lat="48.59676" lon="2.15576">
        <ele>83</ele>
        <time>2019-10-28T11:51:30.000Z</time>
      </trkpt>
      <trkpt lat="48.59675" lon="2.15569">
        <ele>83</ele>
        <time>2019-10-28T11:51:31.000Z</time>
      </trkpt>
      <trkpt lat="48.59674" lon="2.15562">
        <ele>83</ele>
        <time>2019-10-28T11:51:32.000Z</time>
      </trkpt>
      <trkpt lat="48.59673" lon="2.15556">
        <ele>84</ele>
        <time>2019-10-28T11:51:33.000Z</time>
      </trkpt>
      <trkpt lat="48.59672" lon="2.15549">
        <ele>84</ele>
        <time>2019-10-28T11:51:34.000Z</time>
      </trkpt>
      <trkpt lat="48.59671" lon="2.15542">
        <ele>83</ele>
        <time>2019-10-28T11:51:35.000Z</time>
      </trkpt>
      <trkpt lat="48.5967" lon="2.15535">
        <ele>84</ele>
        <time>2019-10-28T11:51:36.000Z</time>
      </trkpt>
      <trkpt lat="48.59669" lon="2.15528">
        <ele>84</ele>
        <time>2019-10-28T11:51:37.000Z</time>
      </trkpt>
      <trkpt lat="48.59668" lon="2.15522">
        <ele>84</ele>
        <time>2019-10-28T11:51:38.000Z</time>
      </trkpt>
      <trkpt lat="48.59668" lon="2.15515">
        <ele>84</ele>
        <time>2019-10-28T11:51:39.000Z</time>
      </trkpt>
      <trkpt lat="48.59667" lon="2.15508">
        <ele>84</ele>
        <time>2019-10-28T11:51:40.000Z</time>
      </trkpt>
      <trkpt lat="48.59666" lon="2.15501">
        <ele>84</ele>
        <time>2019-10-28T11:51:41.000Z</time>
      </trkpt>
      <trkpt lat="48.59665" lon="2.15494">
        <ele>85</ele>
        <time>2019-10-28T11:51:42.000Z</time>
      </trkpt>
      <trkpt lat="48.59664" lon="2.15487">
        <ele>85</ele>
        <time>2019-10-28T11:51:43.000Z</time>
      </trkpt>
      <trkpt lat="48.59663" lon="2.1548">
        <ele>85</ele>
        <time>2019-10-28T11:51:44.000Z</time>
      </trkpt>
      <trkpt lat="48.59663" lon="2.15473">
        <ele>85</ele>
        <time>2019-10-28T11:51:45.000Z</time>
      </trkpt>
      <trkpt lat="48.59662" lon="2.15466">
        <ele>85</ele>
        <time>2019-10-28T11:51:46.000Z</time>
      </trkpt>
      <trkpt lat="48.59661" lon="2.15459">
        <ele>85</ele>
        <time>2019-10-28T11:51:47.000Z</time>
      </trkpt>
      <trkpt lat="48.5966" lon="2.15451">
        <ele>85</ele>
        <time>2019-10-28T11:51:48.000Z</time>
      </trkpt>
      <trkpt lat="48.5966" lon="2.15444">
        <ele>85</ele>
        <time>2019-10-28T11:51:49.000Z</time>
      </trkpt>
      <trkpt lat="48.59659" lon="2.15437">
        <ele>85</ele>
        <time>2019-10-28T11:51:50.000Z</time>
      </trkpt>
      <trkpt lat="48.59659" lon="2.1543">
        <ele>85</ele>
        <time>2019-10-28T11:51:51.000Z</time>
      </trkpt>
      <trkpt lat="48.59659" lon="2.15423">
        <ele>85</ele>
        <time>2019-10-28T11:51:52.000Z</time>
      </trkpt>
      <trkpt lat="48.59659" lon="2.15416">
        <ele>86</ele>
        <time>2019-10-28T11:51:53.000Z</time>
      </trkpt>
      <trkpt lat="48.59659" lon="2.15409">
        <ele>86</ele>
        <time>2019-10-28T11:51:54.000Z</time>
      </trkpt>
      <trkpt lat="48.59659" lon="2.15402">
        <ele>86</ele>
        <time>2019-10-28T11:51:55.000Z</time>
      </trkpt>
      <trkpt lat="48.5966" lon="2.15395">
        <ele>86</ele>
        <time>2019-10-28T11:51:56.000Z</time>
      </trkpt>
      <trkpt lat="48.5966" lon="2.15389">
        <ele>86</ele>
        <time>2019-10-28T11:51:57.000Z</time>
      </trkpt>
      <trkpt lat="48.59661" lon="2.15382">
        <ele>86</ele>
        <time>2019-10-28T11:51:58.000Z</time>
      </trkpt>
      <trkpt lat="48.59661" lon="2.15375">
        <ele>86</ele>
        <time>2019-10-28T11:51:59.000Z</time>
      </trkpt>
      <trkpt lat="48.59662" lon="2.15368">
        <ele>87</ele>
        <time>2019-10-28T11:52:00.000Z</time>
      </trkpt>
      <trkpt lat="48.59663" lon="2.15361">
        <ele>87</ele>
        <time>2019-10-28T11:52:01.000Z</time>
      </trkpt>
      <trkpt lat="48.59664" lon="2.15355">
        <ele>87</ele>
        <time>2019-10-28T11:52:02.000Z</time>
      </trkpt>
      <trkpt lat="48.59665" lon="2.15348">
        <ele>88</ele>
        <time>2019-10-28T11:52:03.000Z</time>
      </trkpt>
      <trkpt lat="48.59666" lon="2.15341">
        <ele>88</ele>
        <time>2019-10-28T11:52:04.000Z</time>
      </trkpt>
      <trkpt lat="48.59668" lon="2.15334">
        <ele>88</ele>
        <time>2019-10-28T11:52:05.000Z</time>
      </trkpt>
      <trkpt lat="48.59669" lon="2.15326">
        <ele>88</ele>
        <time>2019-10-28T11:52:06.000Z</time>
      </trkpt>
      <trkpt lat="48.5967" lon="2.15319">
        <ele>88</ele>
        <time>2019-10-28T11:52:07.000Z</time>
      </trkpt>
      <trkpt lat="48.59671" lon="2.15311">
        <ele>88</ele>
        <time>2019-10-28T11:52:08.000Z</time>
      </trkpt>
      <trkpt lat="48.59672" lon="2.15303">
        <ele>88</ele>
        <time>2019-10-28T11:52:09.000Z</time>
      </trkpt>
      <trkpt lat="48.59674" lon="2.15296">
        <ele>88</ele>
        <time>2019-10-28T11:52:10.000Z</time>
      </trkpt>
      <trkpt lat="48.59675" lon="2.15289">
        <ele>88</ele>
        <time>2019-10-28T11:52:11.000Z</time>
      </trkpt>
      <trkpt lat="48.59676" lon="2.15281">
        <ele>88</ele>
        <time>2019-10-28T11:52:12.000Z</time>
      </trkpt>
      <trkpt lat="48.59677" lon="2.15274">
        <ele>88</ele>
        <time>2019-10-28T11:52:13.000Z</time>
      </trkpt>
      <trkpt lat="48.59678" lon="2.15267">
        <ele>88</ele>
        <time>2019-10-28T11:52:14.000Z</time>
      </trkpt>
      <trkpt lat="48.59678" lon="2.15259">
        <ele>88</ele>
        <time>2019-10-28T11:52:15.000Z</time>
      </trkpt>
      <trkpt lat="48.59679" lon="2.15252">
        <ele>89</ele>
        <time>2019-10-28T11:52:16.000Z</time>
      </trkpt>
      <trkpt lat="48.59679" lon="2.15245">
        <ele>89</ele>
        <time>2019-10-28T11:52:17.000Z</time>
      </trkpt>
      <trkpt lat="48.5968" lon="2.15237">
        <ele>89</ele>
        <time>2019-10-28T11:52:18.000Z</time>
      </trkpt>
      <trkpt lat="48.5968" lon="2.1523">
        <ele>89</ele>
        <time>2019-10-28T11:52:19.000Z</time>
      </trkpt>
      <trkpt lat="48.59681" lon="2.15223">
        <ele>89</ele>
        <time>2019-10-28T11:52:20.000Z</time>
      </trkpt>
      <trkpt lat="48.59681" lon="2.15216">
        <ele>89</ele>
        <time>2019-10-28T11:52:21.000Z</time>
      </trkpt>
      <trkpt lat="48.59681" lon="2.15209">
        <ele>89</ele>
        <time>2019-10-28T11:52:22.000Z</time>
      </trkpt>
      <trkpt lat="48.59682" lon="2.15202">
        <ele>89</ele>
        <time>2019-10-28T11:52:23.000Z</time>
      </trkpt>
      <trkpt lat="48.59682" lon="2.15195">
        <ele>90</ele>
        <time>2019-10-28T11:52:24.000Z</time>
      </trkpt>
      <trkpt lat="48.59682" lon="2.15188">
        <ele>90</ele>
        <time>2019-10-28T11:52:25.000Z</time>
      </trkpt>
      <trkpt lat="48.59682" lon="2.1518">
        <ele>90</ele>
        <time>2019-10-28T11:52:26.000Z</time>
      </trkpt>
      <trkpt lat="48.59683" lon="2.15173">
        <ele>90</ele>
        <time>2019-10-28T11:52:27.000Z</time>
      </trkpt>
      <trkpt lat="48.59683" lon="2.15166">
        <ele>90</ele>
        <time>2019-10-28T11:52:28.000Z</time>
      </trkpt>
      <trkpt lat="48.59683" lon="2.15158">
        <ele>91</ele>
        <time>2019-10-28T11:52:29.000Z</time>
      </trkpt>
      <trkpt lat="48.59683" lon="2.15151">
        <ele>90</ele>
        <time>2019-10-28T11:52:30.000Z</time>
      </trkpt>
      <trkpt lat="48.59684" lon="2.15143">
        <ele>91</ele>
        <time>2019-10-28T11:52:31.000Z</time>
      </trkpt>
      <trkpt lat="48.59684" lon="2.15135">
        <ele>91</ele>
        <time>2019-10-28T11:52:32.000Z</time>
      </trkpt>
      <trkpt lat="48.59684" lon="2.15128">
        <ele>91</ele>
        <time>2019-10-28T11:52:33.000Z</time>
      </trkpt>
      <trkpt lat="48.59685" lon="2.1512">
        <ele>91</ele>
        <time>2019-10-28T11:52:34.000Z</time>
      </trkpt>
      <trkpt lat="48.59685" lon="2.15113">
        <ele>91</ele>
        <time>2019-10-28T11:52:35.000Z</time>
      </trkpt>
      <trkpt lat="48.59686" lon="2.15106">
        <ele>91</ele>
        <time>2019-10-28T11:52:36.000Z</time>
      </trkpt>
      <trkpt lat="48.59686" lon="2.15098">
        <ele>92</ele>
        <time>2019-10-28T11:52:37.000Z</time>
      </trkpt>
      <trkpt lat="48.59687" lon="2.15091">
        <ele>92</ele>
        <time>2019-10-28T11:52:38.000Z</time>
      </trkpt>
      <trkpt lat="48.59688" lon="2.15084">
        <ele>92</ele>
        <time>2019-10-28T11:52:39.000Z</time>
      </trkpt>
      <trkpt lat="48.59688" lon="2.15076">
        <ele>92</ele>
        <time>2019-10-28T11:52:40.000Z</time>
      </trkpt>
      <trkpt lat="48.59689" lon="2.15069">
        <ele>92</ele>
        <time>2019-10-28T11:52:41.000Z</time>
      </trkpt>
      <trkpt lat="48.5969" lon="2.15062">
        <ele>92</ele>
        <time>2019-10-28T11:52:42.000Z</time>
      </trkpt>
      <trkpt lat="48.5969" lon="2.15055">
        <ele>92</ele>
        <time>2019-10-28T11:52:43.000Z</time>
      </trkpt>
      <trkpt lat="48.59691" lon="2.15048">
        <ele>93</ele>
        <time>2019-10-28T11:52:44.000Z</time>
      </trkpt>
      <trkpt lat="48.59692" lon="2.15041">
        <ele>93</ele>
        <time>2019-10-28T11:52:45.000Z</time>
      </trkpt>
      <trkpt lat="48.59692" lon="2.15034">
        <ele>92</ele>
        <time>2019-10-28T11:52:46.000Z</time>
      </trkpt>
      <trkpt lat="48.59693" lon="2.15027">
        <ele>93</ele>
        <time>2019-10-28T11:52:47.000Z</time>
      </trkpt>
      <trkpt lat="48.59694" lon="2.15021">
        <ele>93</ele>
        <time>2019-10-28T11:52:48.000Z</time>
      </trkpt>
      <trkpt lat="48.59694" lon="2.15014">
        <ele>93</ele>
        <time>2019-10-28T11:52:49.000Z</time>
      </trkpt>
      <trkpt lat="48.59695" lon="2.15008">
        <ele>93</ele>
        <time>2019-10-28T11:52:50.000Z</time>
      </trkpt>
      <trkpt lat="48.59696" lon="2.15001">
        <ele>93</ele>
        <time>2019-10-28T11:52:51.000Z</time>
      </trkpt>
      <trkpt lat="48.59696" lon="2.14995">
        <ele>94</ele>
        <time>2019-10-28T11:52:52.000Z</time>
      </trkpt>
      <trkpt lat="48.59697" lon="2.14988">
        <ele>93</ele>
        <time>2019-10-28T11:52:53.000Z</time>
      </trkpt>
      <trkpt lat="48.59698" lon="2.14981">
        <ele>93</ele>
        <time>2019-10-28T11:52:54.000Z</time>
      </trkpt>
      <trkpt lat="48.59698" lon="2.14974">
        <ele>94</ele>
        <time>2019-10-28T11:52:55.000Z</time>
      </trkpt>
      <trkpt lat="48.59698" lon="2.14967">
        <ele>94</ele>
        <time>2019-10-28T11:52:56.000Z</time>
      </trkpt>
      <trkpt lat="48.59698" lon="2.14961">
        <ele>94</ele>
        <time>2019-10-28T11:52:57.000Z</time>
      </trkpt>
      <trkpt lat="48.59698" lon="2.14954">
        <ele>94</ele>
        <time>2019-10-28T11:52:58.000Z</time>
      </trkpt>
      <trkpt lat="48.59698" lon="2.14947">
        <ele>94</ele>
        <time>2019-10-28T11:52:59.000Z</time>
      </trkpt>
      <trkpt lat="48.59698" lon="2.1494">
        <ele>94</ele>
        <time>2019-10-28T11:53:00.000Z</time>
      </trkpt>
      <trkpt lat="48.59698" lon="2.14934">
        <ele>94</ele>
        <time>2019-10-28T11:53:01.000Z</time>
      </trkpt>
      <trkpt lat="48.59698" lon="2.14927">
        <ele>94</ele>
        <time>2019-10-28T11:53:02.000Z</time>
      </trkpt>
      <trkpt lat="48.59697" lon="2.1492">
        <ele>94</ele>
        <time>2019-10-28T11:53:03.000Z</time>
      </trkpt>
      <trkpt lat="48.59697" lon="2.14913">
        <ele>94</ele>
        <time>2019-10-28T11:53:04.000Z</time>
      </trkpt>
      <trkpt lat="48.59696" lon="2.14907">
        <ele>94</ele>
        <time>2019-10-28T11:53:05.000Z</time>
      </trkpt>
      <trkpt lat="48.59696" lon="2.14901">
        <ele>94</ele>
        <time>2019-10-28T11:53:06.000Z</time>
      </trkpt>
      <trkpt lat="48.59695" lon="2.14894">
        <ele>94</ele>
        <time>2019-10-28T11:53:07.000Z</time>
      </trkpt>
      <trkpt lat="48.59695" lon="2.14888">
        <ele>94</ele>
        <time>2019-10-28T11:53:08.000Z</time>
      </trkpt>
      <trkpt lat="48.59695" lon="2.14881">
        <ele>94</ele>
        <time>2019-10-28T11:53:09.000Z</time>
      </trkpt>
      <trkpt lat="48.59694" lon="2.14875">
        <ele>95</ele>
        <time>2019-10-28T11:53:10.000Z</time>
      </trkpt>
      <trkpt lat="48.59694" lon="2.1487">
        <ele>95</ele>
        <time>2019-10-28T11:53:11.000Z</time>
      </trkpt>
      <trkpt lat="48.59693" lon="2.14866">
        <ele>95</ele>
        <time>2019-10-28T11:53:12.000Z</time>
      </trkpt>
      <trkpt lat="48.59692" lon="2.14861">
        <ele>95</ele>
        <time>2019-10-28T11:53:13.000Z</time>
      </trkpt>
      <trkpt lat="48.59692" lon="2.14858">
        <ele>95</ele>
        <time>2019-10-28T11:53:14.000Z</time>
      </trkpt>
      <trkpt lat="48.59692" lon="2.14854">
        <ele>95</ele>
        <time>2019-10-28T11:53:15.000Z</time>
      </trkpt>
      <trkpt lat="48.59691" lon="2.14852">
        <ele>95</ele>
        <time>2019-10-28T11:53:16.000Z</time>
      </trkpt>
      <trkpt lat="48.59691" lon="2.14849">
        <ele>95</ele>
        <time>2019-10-28T11:53:17.000Z</time>
      </trkpt>
      <trkpt lat="48.59691" lon="2.14847">
        <ele>95</ele>
        <time>2019-10-28T11:53:18.000Z</time>
      </trkpt>
      <trkpt lat="48.59691" lon="2.14845">
        <ele>95</ele>
        <time>2019-10-28T11:53:19.000Z</time>
      </trkpt>
      <trkpt lat="48.59691" lon="2.14843">
        <ele>95</ele>
        <time>2019-10-28T11:53:20.000Z</time>
      </trkpt>
      <trkpt lat="48.59691" lon="2.14841">
        <ele>95</ele>
        <time>2019-10-28T11:53:21.000Z</time>
      </trkpt>
      <trkpt lat="48.5969" lon="2.14839">
        <ele>96</ele>
        <time>2019-10-28T11:53:22.000Z</time>
      </trkpt>
      <trkpt lat="48.5969" lon="2.14837">
        <ele>96</ele>
        <time>2019-10-28T11:53:23.000Z</time>
      </trkpt>
      <trkpt lat="48.5969" lon="2.14836">
        <ele>96</ele>
        <time>2019-10-28T11:53:24.000Z</time>
      </trkpt>
      <trkpt lat="48.59689" lon="2.14834">
        <ele>96</ele>
        <time>2019-10-28T11:53:25.000Z</time>
      </trkpt>
      <trkpt lat="48.59689" lon="2.14832">
        <ele>96</ele>
        <time>2019-10-28T11:53:26.000Z</time>
      </trkpt>
      <trkpt lat="48.59688" lon="2.1483">
        <ele>96</ele>
        <time>2019-10-28T11:53:27.000Z</time>
      </trkpt>
      <trkpt lat="48.59688" lon="2.14828">
        <ele>96</ele>
        <time>2019-10-28T11:53:28.000Z</time>
      </trkpt>
      <trkpt lat="48.59687" lon="2.14826">
        <ele>96</ele>
        <time>2019-10-28T11:53:29.000Z</time>
      </trkpt>
      <trkpt lat="48.59687" lon="2.14824">
        <ele>96</ele>
        <time>2019-10-28T11:53:30.000Z</time>
      </trkpt>
      <trkpt lat="48.59686" lon="2.14822">
        <ele>96</ele>
        <time>2019-10-28T11:53:31.000Z</time>
      </trkpt>
      <trkpt lat="48.59686" lon="2.1482">
        <ele>96</ele>
        <time>2019-10-28T11:53:32.000Z</time>
      </trkpt>
      <trkpt lat="48.59685" lon="2.14818">
        <ele>97</ele>
        <time>2019-10-28T11:53:33.000Z</time>
      </trkpt>
      <trkpt lat="48.59685" lon="2.14816">
        <ele>97</ele>
        <time>2019-10-28T11:53:34.000Z</time>
      </trkpt>
      <trkpt lat="48.59684" lon="2.14814">
        <ele>97</ele>
        <time>2019-10-28T11:53:35.000Z</time>
      </trkpt>
      <trkpt lat="48.59684" lon="2.14812">
        <ele>96</ele>
        <time>2019-10-28T11:53:36.000Z</time>
      </trkpt>
      <trkpt lat="48.59684" lon="2.14809">
        <ele>96</ele>
        <time>2019-10-28T11:53:37.000Z</time>
      </trkpt>
      <trkpt lat="48.59684" lon="2.14807">
        <ele>97</ele>
        <time>2019-10-28T11:53:38.000Z</time>
      </trkpt>
      <trkpt lat="48.59683" lon="2.14805">
        <ele>97</ele>
        <time>2019-10-28T11:53:39.000Z</time>
      </trkpt>
      <trkpt lat="48.59683" lon="2.14803">
        <ele>97</ele>
        <time>2019-10-28T11:53:40.000Z</time>
      </trkpt>
      <trkpt lat="48.59683" lon="2.14801">
        <ele>96</ele>
        <time>2019-10-28T11:53:41.000Z</time>
      </trkpt>
      <trkpt lat="48.59683" lon="2.14799">
        <ele>97</ele>
        <time>2019-10-28T11:53:42.000Z</time>
      </trkpt>
      <trkpt lat="48.59683" lon="2.14796">
        <ele>97</ele>
        <time>2019-10-28T11:53:43.000Z</time>
      </trkpt>
      <trkpt lat="48.59682" lon="2.14794">
        <ele>97</ele>
        <time>2019-10-28T11:53:44.000Z</time>
      </trkpt>
      <trkpt lat="48.59682" lon="2.14792">
        <ele>96</ele>
        <time>2019-10-28T11:53:45.000Z</time>
      </trkpt>
      <trkpt lat="48.59682" lon="2.1479">
        <ele>97</ele>
        <time>2019-10-28T11:53:46.000Z</time>
      </trkpt>
      <trkpt lat="48.59682" lon="2.14788">
        <ele>97</ele>
        <time>2019-10-28T11:53:47.000Z</time>
      </trkpt>
      <trkpt lat="48.59682" lon="2.14786">
        <ele>97</ele>
        <time>2019-10-28T11:53:48.000Z</time>
      </trkpt>
      <trkpt lat="48.59682" lon="2.14784">
        <ele>97</ele>
        <time>2019-10-28T11:53:49.000Z</time>
      </trkpt>
      <trkpt lat="48.59681" lon="2.14782">
        <ele>97</ele>
        <time>2019-10-28T11:53:50.000Z</time>
      </trkpt>
      <trkpt lat="48.59681" lon="2.1478">
        <ele>97</ele>
        <time>2019-10-28T11:53:51.000Z</time>
      </trkpt>
      <trkpt lat="48.59681" lon="2.14778">
        <ele>97</ele>
        <time>2019-10-28T11:53:52.000Z</time>
      </trkpt>
      <trkpt lat="48.59681" lon="2.14775">
        <ele>97</ele>
        <time>2019-10-28T11:53:53.000Z</time>
      </trkpt>
      <trkpt lat="48.59681" lon="2.14773">
        <ele>97</ele>
        <time>2019-10-28T11:53:54.000Z</time>
      </trkpt>
      <trkpt lat="48.59681" lon="2.14771">
        <ele>97</ele>
        <time>2019-10-28T11:53:55.000Z</time>
      </trkpt>
      <trkpt lat="48.59681" lon="2.14769">
        <ele>97</ele>
        <time>2019-10-28T11:53:56.000Z</time>
      </trkpt>
      <trkpt lat="48.59681" lon="2.14767">
        <ele>97</ele>
        <time>2019-10-28T11:53:57.000Z</time>
      </trkpt>
      <trkpt lat="48.59681" lon="2.14764">
        <ele>97</ele>
        <time>2019-10-28T11:53:58.000Z</time>
      </trkpt>
      <trkpt lat="48.59681" lon="2.14762">
        <ele>97</ele>
        <time>2019-10-28T11:53:59.000Z</time>
      </trkpt>
      <trkpt lat="48.5968" lon="2.1476">
        <ele>97</ele>
        <time>2019-10-28T11:54:00.000Z</time>
      </trkpt>
      <trkpt lat="48.5968" lon="2.14758">
        <ele>97</ele>
        <time>2019-10-28T11:54:01.000Z</time>
      </trkpt>
      <trkpt lat="48.5968" lon="2.14756">
        <ele>97</ele>
        <time>2019-10-28T11:54:02.000Z</time>
      </trkpt>
      <trkpt lat="48.5968" lon="2.14754">
        <ele>97</ele>
        <time>2019-10-28T11:54:03.000Z</time>
      </trkpt>
      <trkpt lat="48.5968" lon="2.14752">
        <ele>97</ele>
        <time>2019-10-28T11:54:04.000Z</time>
      </trkpt>
      <trkpt lat="48.5968" lon="2.1475">
        <ele>97</ele>
        <time>2019-10-28T11:54:05.000Z</time>
      </trkpt>
      <trkpt lat="48.5968" lon="2.14748">
        <ele>97</ele>
        <time>2019-10-28T11:54:06.000Z</time>
      </trkpt>
      <trkpt lat="48.59681" lon="2.14746">
        <ele>96</ele>
        <time>2019-10-28T11:54:07.000Z</time>
      </trkpt>
      <trkpt lat="48.59681" lon="2.14744">
        <ele>96</ele>
        <time>2019-10-28T11:54:08.000Z</time>
      </trkpt>
      <trkpt lat="48.59681" lon="2.14741">
        <ele>96</ele>
        <time>2019-10-28T11:54:09.000Z</time>
      </trkpt>
      <trkpt lat="48.59681" lon="2.14739">
        <ele>96</ele>
        <time>2019-10-28T11:54:10.000Z</time>
      </trkpt>
      <trkpt lat="48.59681" lon="2.14737">
        <ele>96</ele>
        <time>2019-10-28T11:54:11.000Z</time>
      </trkpt>
      <trkpt lat="48.59681" lon="2.14735">
        <ele>96</ele>
        <time>2019-10-28T11:54:12.000Z</time>
      </trkpt>
      <trkpt lat="48.59681" lon="2.14733">
        <ele>96</ele>
        <time>2019-10-28T11:54:13.000Z</time>
      </trkpt>
      <trkpt lat="48.59681" lon="2.14731">
        <ele>96</ele>
        <time>2019-10-28T11:54:14.000Z</time>
      </trkpt>
      <trkpt lat="48.59681" lon="2.14729">
        <ele>96</ele>
        <time>2019-10-28T11:54:15.000Z</time>
      </trkpt>
      <trkpt lat="48.59681" lon="2.14727">
        <ele>96</ele>
        <time>2019-10-28T11:54:16.000Z</time>
      </trkpt>
      <trkpt lat="48.59681" lon="2.14725">
        <ele>96</ele>
        <time>2019-10-28T11:54:17.000Z</time>
      </trkpt>
      <trkpt lat="48.59681" lon="2.14723">
        <ele>96</ele>
        <time>2019-10-28T11:54:18.000Z</time>
      </trkpt>
      <trkpt lat="48.59681" lon="2.14721">
        <ele>96</ele>
        <time>2019-10-28T11:54:19.000Z</time>
      </trkpt>
      <trkpt lat="48.59681" lon="2.14719">
        <ele>96</ele>
        <time>2019-10-28T11:54:20.000Z</time>
      </trkpt>
      <trkpt lat="48.59681" lon="2.14716">
        <ele>96</ele>
        <time>2019-10-28T11:54:21.000Z</time>
      </trkpt>
      <trkpt lat="48.59681" lon="2.14714">
        <ele>97</ele>
        <time>2019-10-28T11:54:22.000Z</time>
      </trkpt>
      <trkpt lat="48.59681" lon="2.14712">
        <ele>97</ele>
        <time>2019-10-28T11:54:23.000Z</time>
      </trkpt>
      <trkpt lat="48.59681" lon="2.1471">
        <ele>97</ele>
        <time>2019-10-28T11:54:24.000Z</time>
      </trkpt>
      <trkpt lat="48.59681" lon="2.14708">
        <ele>97</ele>
        <time>2019-10-28T11:54:25.000Z</time>
      </trkpt>
      <trkpt lat="48.59681" lon="2.14706">
        <ele>97</ele>
        <time>2019-10-28T11:54:26.000Z</time>
      </trkpt>
      <trkpt lat="48.59681" lon="2.14704">
        <ele>97</ele>
        <time>2019-10-28T11:54:27.000Z</time>
      </trkpt>
      <trkpt lat="48.59681" lon="2.14702">
        <ele>97</ele>
        <time>2019-10-28T11:54:28.000Z</time>
      </trkpt>
      <trkpt lat="48.59681" lon="2.147">
        <ele>97</ele>
        <time>2019-10-28T11:54:29.000Z</time>
      </trkpt>
      <trkpt lat="48.59681" lon="2.14698">
        <ele>97</ele>
        <time>2019-10-28T11:54:30.000Z</time>
      </trkpt>
      <trkpt lat="48.59682" lon="2.14696">
        <ele>97</ele>
        <time>2019-10-28T11:54:31.000Z</time>
      </trkpt>
      <trkpt lat="48.59682" lon="2.14694">
        <ele>98</ele>
        <time>2019-10-28T11:54:32.000Z</time>
      </trkpt>
      <trkpt lat="48.59682" lon="2.14692">
        <ele>98</ele>
        <time>2019-10-28T11:54:33.000Z</time>
      </trkpt>
      <trkpt lat="48.59682" lon="2.1469">
        <ele>98</ele>
        <time>2019-10-28T11:54:34.000Z</time>
      </trkpt>
      <trkpt lat="48.59682" lon="2.14688">
        <ele>98</ele>
        <time>2019-10-28T11:54:35.000Z</time>
      </trkpt>
      <trkpt lat="48.59682" lon="2.14686">
        <ele>98</ele>
        <time>2019-10-28T11:54:36.000Z</time>
      </trkpt>
      <trkpt lat="48.59682" lon="2.14684">
        <ele>98</ele>
        <time>2019-10-28T11:54:37.000Z</time>
      </trkpt>
      <trkpt lat="48.59682" lon="2.14682">
        <ele>98</ele>
        <time>2019-10-28T11:54:38.000Z</time>
      </trkpt>
      <trkpt lat="48.59682" lon="2.1468">
        <ele>98</ele>
        <time>2019-10-28T11:54:39.000Z</time>
      </trkpt>
      <trkpt lat="48.59682" lon="2.14678">
        <ele>98</ele>
        <time>2019-10-28T11:54:40.000Z</time>
      </trkpt>
      <trkpt lat="48.59682" lon="2.14675">
        <ele>98</ele>
        <time>2019-10-28T11:54:41.000Z</time>
      </trkpt>
      <trkpt lat="48.59682" lon="2.14673">
        <ele>99</ele>
        <time>2019-10-28T11:54:42.000Z</time>
      </trkpt>
      <trkpt lat="48.59682" lon="2.14671">
        <ele>99</ele>
        <time>2019-10-28T11:54:43.000Z</time>
      </trkpt>
      <trkpt lat="48.59682" lon="2.14669">
        <ele>99</ele>
        <time>2019-10-28T11:54:44.000Z</time>
      </trkpt>
      <trkpt lat="48.59682" lon="2.14667">
        <ele>99</ele>
        <time>2019-10-28T11:54:45.000Z</time>
      </trkpt>
      <trkpt lat="48.59682" lon="2.14665">
        <ele>99</ele>
        <time>2019-10-28T11:54:46.000Z</time>
      </trkpt>
      <trkpt lat="48.59682" lon="2.14663">
        <ele>99</ele>
        <time>2019-10-28T11:54:47.000Z</time>
      </trkpt>
      <trkpt lat="48.59682" lon="2.14661">
        <ele>99</ele>
        <time>2019-10-28T11:54:48.000Z</time>
      </trkpt>
      <trkpt lat="48.59682" lon="2.14659">
        <ele>99</ele>
        <time>2019-10-28T11:54:49.000Z</time>
      </trkpt>
      <trkpt lat="48.59682" lon="2.14657">
        <ele>99</ele>
        <time>2019-10-28T11:54:50.000Z</time>
      </trkpt>
      <trkpt lat="48.59683" lon="2.14655">
        <ele>99</ele>
        <time>2019-10-28T11:54:51.000Z</time>
      </trkpt>
      <trkpt lat="48.59683" lon="2.14653">
        <ele>99</ele>
        <time>2019-10-28T11:54:52.000Z</time>
      </trkpt>
      <trkpt lat="48.59683" lon="2.14651">
        <ele>99</ele>
        <time>2019-10-28T11:54:53.000Z</time>
      </trkpt>
      <trkpt lat="48.59683" lon="2.14649">
        <ele>99</ele>
        <time>2019-10-28T11:54:54.000Z</time>
      </trkpt>
      <trkpt lat="48.59683" lon="2.14647">
        <ele>100</ele>
        <time>2019-10-28T11:54:55.000Z</time>
      </trkpt>
      <trkpt lat="48.59683" lon="2.14645">
        <ele>100</ele>
        <time>2019-10-28T11:54:56.000Z</time>
      </trkpt>
      <trkpt lat="48.59683" lon="2.14643">
        <ele>100</ele>
        <time>2019-10-28T11:54:57.000Z</time>
      </trkpt>
      <trkpt lat="48.59683" lon="2.14641">
        <ele>100</ele>
        <time>2019-10-28T11:54:58.000Z</time>
      </trkpt>
      <trkpt lat="48.59683" lon="2.14639">
        <ele>100</ele>
        <time>2019-10-28T11:54:59.000Z</time>
      </trkpt>
      <trkpt lat="48.59683" lon="2.14637">
        <ele>99</ele>
        <time>2019-10-28T11:55:00.000Z</time>
      </trkpt>
      <trkpt lat="48.59683" lon="2.14635">
        <ele>100</ele>
        <time>2019-10-28T11:55:01.000Z</time>
      </trkpt>
      <trkpt lat="48.59683" lon="2.14633">
        <ele>99</ele>
        <time>2019-10-28T11:55:02.000Z</time>
      </trkpt>
      <trkpt lat="48.59683" lon="2.14631">
        <ele>99</ele>
        <time>2019-10-28T11:55:03.000Z</time>
      </trkpt>
      <trkpt lat="48.59683" lon="2.14629">
        <ele>99</ele>
        <time>2019-10-28T11:55:04.000Z</time>
      </trkpt>
      <trkpt lat="48.59683" lon="2.14627">
        <ele>99</ele>
        <time>2019-10-28T11:55:05.000Z</time>
      </trkpt>
      <trkpt lat="48.59683" lon="2.14625">
        <ele>99</ele>
        <time>2019-10-28T11:55:06.000Z</time>
      </trkpt>
      <trkpt lat="48.59683" lon="2.14623">
        <ele>99</ele>
        <time>2019-10-28T11:55:07.000Z</time>
      </trkpt>
      <trkpt lat="48.59683" lon="2.14621">
        <ele>99</ele>
        <time>2019-10-28T11:55:08.000Z</time>
      </trkpt>
      <trkpt lat="48.59682" lon="2.14619">
        <ele>99</ele>
        <time>2019-10-28T11:55:09.000Z</time>
      </trkpt>
      <trkpt lat="48.59682" lon="2.14617">
        <ele>99</ele>
        <time>2019-10-28T11:55:10.000Z</time>
      </trkpt>
      <trkpt lat="48.59682" lon="2.14615">
        <ele>100</ele>
        <time>2019-10-28T11:55:11.000Z</time>
      </trkpt>
      <trkpt lat="48.59682" lon="2.14613">
        <ele>99</ele>
        <time>2019-10-28T11:55:12.000Z</time>
      </trkpt>
      <trkpt lat="48.59682" lon="2.14611">
        <ele>100</ele>
        <time>2019-10-28T11:55:13.000Z</time>
      </trkpt>
      <trkpt lat="48.59682" lon="2.14609">
        <ele>100</ele>
        <time>2019-10-28T11:55:14.000Z</time>
      </trkpt>
      <trkpt lat="48.59682" lon="2.14607">
        <ele>99</ele>
        <time>2019-10-28T11:55:15.000Z</time>
      </trkpt>
      <trkpt lat="48.59681" lon="2.14605">
        <ele>99</ele>
        <time>2019-10-28T11:55:16.000Z</time>
      </trkpt>
      <trkpt lat="48.59681" lon="2.14603">
        <ele>100</ele>
        <time>2019-10-28T11:55:17.000Z</time>
      </trkpt>
      <trkpt lat="48.59681" lon="2.14602">
        <ele>100</ele>
        <time>2019-10-28T11:55:18.000Z</time>
      </trkpt>
      <trkpt lat="48.59681" lon="2.146">
        <ele>100</ele>
        <time>2019-10-28T11:55:19.000Z</time>
      </trkpt>
      <trkpt lat="48.59681" lon="2.14598">
        <ele>100</ele>
        <time>2019-10-28T11:55:20.000Z</time>
      </trkpt>
      <trkpt lat="48.5968" lon="2.14596">
        <ele>100</ele>
        <time>2019-10-28T11:55:21.000Z</time>
      </trkpt>
      <trkpt lat="48.5968" lon="2.14594">
        <ele>100</ele>
        <time>2019-10-28T11:55:22.000Z</time>
      </trkpt>
      <trkpt lat="48.5968" lon="2.14592">
        <ele>100</ele>
        <time>2019-10-28T11:55:23.000Z</time>
      </trkpt>
      <trkpt lat="48.59679" lon="2.1459">
        <ele>100</ele>
        <time>2019-10-28T11:55:24.000Z</time>
      </trkpt>
      <trkpt lat="48.59679" lon="2.14588">
        <ele>100</ele>
        <time>2019-10-28T11:55:25.000Z</time>
      </trkpt>
      <trkpt lat="48.59679" lon="2.14586">
        <ele>101</ele>
        <time>2019-10-28T11:55:26.000Z</time>
      </trkpt>
      <trkpt lat="48.59678" lon="2.14584">
        <ele>101</ele>
        <time>2019-10-28T11:55:27.000Z</time>
      </trkpt>
      <trkpt lat="48.59678" lon="2.14582">
        <ele>101</ele>
        <time>2019-10-28T11:55:28.000Z</time>
      </trkpt>
      <trkpt lat="48.59678" lon="2.1458">
        <ele>101</ele>
        <time>2019-10-28T11:55:29.000Z</time>
      </trkpt>
      <trkpt lat="48.59677" lon="2.14578">
        <ele>101</ele>
        <time>2019-10-28T11:55:30.000Z</time>
      </trkpt>
      <trkpt lat="48.59677" lon="2.14576">
        <ele>101</ele>
        <time>2019-10-28T11:55:31.000Z</time>
      </trkpt>
      <trkpt lat="48.59677" lon="2.14574">
        <ele>101</ele>
        <time>2019-10-28T11:55:32.000Z</time>
      </trkpt>
      <trkpt lat="48.59677" lon="2.14572">
        <ele>101</ele>
        <time>2019-10-28T11:55:33.000Z</time>
      </trkpt>
      <trkpt lat="48.59676" lon="2.1457">
        <ele>101</ele>
        <time>2019-10-28T11:55:34.000Z</time>
      </trkpt>
      <trkpt lat="48.59676" lon="2.14568">
        <ele>101</ele>
        <time>2019-10-28T11:55:35.000Z</time>
      </trkpt>
      <trkpt lat="48.59676" lon="2.14566">
        <ele>101</ele>
        <time>2019-10-28T11:55:36.000Z</time>
      </trkpt>
      <trkpt lat="48.59675" lon="2.14564">
        <ele>101</ele>
        <time>2019-10-28T11:55:37.000Z</time>
      </trkpt>
      <trkpt lat="48.59675" lon="2.14562">
        <ele>101</ele>
        <time>2019-10-28T11:55:38.000Z</time>
      </trkpt>
      <trkpt lat="48.59675" lon="2.1456">
        <ele>101</ele>
        <time>2019-10-28T11:55:39.000Z</time>
      </trkpt>
      <trkpt lat="48.59674" lon="2.14559">
        <ele>101</ele>
        <time>2019-10-28T11:55:40.000Z</time>
      </trkpt>
      <trkpt lat="48.59674" lon="2.14557">
        <ele>101</ele>
        <time>2019-10-28T11:55:41.000Z</time>
      </trkpt>
      <trkpt lat="48.59673" lon="2.14555">
        <ele>101</ele>
        <time>2019-10-28T11:55:42.000Z</time>
      </trkpt>
      <trkpt lat="48.59673" lon="2.14553">
        <ele>101</ele>
        <time>2019-10-28T11:55:43.000Z</time>
      </trkpt>
      <trkpt lat="48.59672" lon="2.14551">
        <ele>101</ele>
        <time>2019-10-28T11:55:44.000Z</time>
      </trkpt>
      <trkpt lat="48.59672" lon="2.14549">
        <ele>101</ele>
        <time>2019-10-28T11:55:45.000Z</time>
      </trkpt>
      <trkpt lat="48.59671" lon="2.14547">
        <ele>101</ele>
        <time>2019-10-28T11:55:46.000Z</time>
      </trkpt>
      <trkpt lat="48.59671" lon="2.14545">
        <ele>101</ele>
        <time>2019-10-28T11:55:47.000Z</time>
      </trkpt>
      <trkpt lat="48.5967" lon="2.14543">
        <ele>101</ele>
        <time>2019-10-28T11:55:48.000Z</time>
      </trkpt>
      <trkpt lat="48.5967" lon="2.14541">
        <ele>101</ele>
        <time>2019-10-28T11:55:49.000Z</time>
      </trkpt>
      <trkpt lat="48.59669" lon="2.1454">
        <ele>101</ele>
        <time>2019-10-28T11:55:50.000Z</time>
      </trkpt>
      <trkpt lat="48.59669" lon="2.14538">
        <ele>101</ele>
        <time>2019-10-28T11:55:51.000Z</time>
      </trkpt>
      <trkpt lat="48.59668" lon="2.14536">
        <ele>101</ele>
        <time>2019-10-28T11:55:52.000Z</time>
      </trkpt>
      <trkpt lat="48.59668" lon="2.14534">
        <ele>101</ele>
        <time>2019-10-28T11:55:53.000Z</time>
      </trkpt>
      <trkpt lat="48.59667" lon="2.14532">
        <ele>101</ele>
        <time>2019-10-28T11:55:54.000Z</time>
      </trkpt>
      <trkpt lat="48.59667" lon="2.14531">
        <ele>101</ele>
        <time>2019-10-28T11:55:55.000Z</time>
      </trkpt>
      <trkpt lat="48.59666" lon="2.14529">
        <ele>101</ele>
        <time>2019-10-28T11:55:56.000Z</time>
      </trkpt>
      <trkpt lat="48.59665" lon="2.14527">
        <ele>101</ele>
        <time>2019-10-28T11:55:57.000Z</time>
      </trkpt>
      <trkpt lat="48.59665" lon="2.14526">
        <ele>101</ele>
        <time>2019-10-28T11:55:58.000Z</time>
      </trkpt>
      <trkpt lat="48.59664" lon="2.14524">
        <ele>101</ele>
        <time>2019-10-28T11:55:59.000Z</time>
      </trkpt>
      <trkpt lat="48.59664" lon="2.14522">
        <ele>101</ele>
        <time>2019-10-28T11:56:00.000Z</time>
      </trkpt>
      <trkpt lat="48.59663" lon="2.1452">
        <ele>101</ele>
        <time>2019-10-28T11:56:01.000Z</time>
      </trkpt>
      <trkpt lat="48.59663" lon="2.14519">
        <ele>101</ele>
        <time>2019-10-28T11:56:02.000Z</time>
      </trkpt>
      <trkpt lat="48.59662" lon="2.14517">
        <ele>101</ele>
        <time>2019-10-28T11:56:03.000Z</time>
      </trkpt>
      <trkpt lat="48.59661" lon="2.14515">
        <ele>101</ele>
        <time>2019-10-28T11:56:04.000Z</time>
      </trkpt>
      <trkpt lat="48.5966" lon="2.14513">
        <ele>101</ele>
        <time>2019-10-28T11:56:05.000Z</time>
      </trkpt>
      <trkpt lat="48.5966" lon="2.14512">
        <ele>101</ele>
        <time>2019-10-28T11:56:06.000Z</time>
      </trkpt>
      <trkpt lat="48.59659" lon="2.1451">
        <ele>101</ele>
        <time>2019-10-28T11:56:07.000Z</time>
      </trkpt>
      <trkpt lat="48.59658" lon="2.14508">
        <ele>101</ele>
        <time>2019-10-28T11:56:08.000Z</time>
      </trkpt>
      <trkpt lat="48.59658" lon="2.14507">
        <ele>100</ele>
        <time>2019-10-28T11:56:09.000Z</time>
      </trkpt>
      <trkpt lat="48.59657" lon="2.14505">
        <ele>100</ele>
        <time>2019-10-28T11:56:10.000Z</time>
      </trkpt>
      <trkpt lat="48.59656" lon="2.14504">
        <ele>100</ele>
        <time>2019-10-28T11:56:11.000Z</time>
      </trkpt>
      <trkpt lat="48.59656" lon="2.14502">
        <ele>101</ele>
        <time>2019-10-28T11:56:12.000Z</time>
      </trkpt>
      <trkpt lat="48.59655" lon="2.145">
        <ele>101</ele>
        <time>2019-10-28T11:56:13.000Z</time>
      </trkpt>
      <trkpt lat="48.59654" lon="2.14499">
        <ele>101</ele>
        <time>2019-10-28T11:56:14.000Z</time>
      </trkpt>
      <trkpt lat="48.59653" lon="2.14497">
        <ele>100</ele>
        <time>2019-10-28T11:56:15.000Z</time>
      </trkpt>
      <trkpt lat="48.59653" lon="2.14495">
        <ele>101</ele>
        <time>2019-10-28T11:56:16.000Z</time>
      </trkpt>
      <trkpt lat="48.59652" lon="2.14494">
        <ele>101</ele>
        <time>2019-10-28T11:56:17.000Z</time>
      </trkpt>
      <trkpt lat="48.59651" lon="2.14492">
        <ele>101</ele>
        <time>2019-10-28T11:56:18.000Z</time>
      </trkpt>
      <trkpt lat="48.5965" lon="2.1449">
        <ele>101</ele>
        <time>2019-10-28T11:56:19.000Z</time>
      </trkpt>
      <trkpt lat="48.5965" lon="2.14489">
        <ele>101</ele>
        <time>2019-10-28T11:56:20.000Z</time>
      </trkpt>
      <trkpt lat="48.59649" lon="2.14487">
        <ele>101</ele>
        <time>2019-10-28T11:56:21.000Z</time>
      </trkpt>
      <trkpt lat="48.59648" lon="2.14485">
        <ele>101</ele>
        <time>2019-10-28T11:56:22.000Z</time>
      </trkpt>
      <trkpt lat="48.59648" lon="2.14484">
        <ele>101</ele>
        <time>2019-10-28T11:56:23.000Z</time>
      </trkpt>
      <trkpt lat="48.59647" lon="2.14482">
        <ele>101</ele>
        <time>2019-10-28T11:56:24.000Z</time>
      </trkpt>
      <trkpt lat="48.59646" lon="2.1448">
        <ele>100</ele>
        <time>2019-10-28T11:56:25.000Z</time>
      </trkpt>
      <trkpt lat="48.59646" lon="2.14479">
        <ele>100</ele>
        <time>2019-10-28T11:56:26.000Z</time>
      </trkpt>
      <trkpt lat="48.59645" lon="2.14477">
        <ele>101</ele>
        <time>2019-10-28T11:56:27.000Z</time>
      </trkpt>
      <trkpt lat="48.59644" lon="2.14476">
        <ele>100</ele>
        <time>2019-10-28T11:56:28.000Z</time>
      </trkpt>
      <trkpt lat="48.59644" lon="2.14474">
        <ele>101</ele>
        <time>2019-10-28T11:56:29.000Z</time>
      </trkpt>
      <trkpt lat="48.59643" lon="2.14472">
        <ele>101</ele>
        <time>2019-10-28T11:56:30.000Z</time>
      </trkpt>
      <trkpt lat="48.59642" lon="2.14471">
        <ele>101</ele>
        <time>2019-10-28T11:56:31.000Z</time>
      </trkpt>
      <trkpt lat="48.59641" lon="2.14469">
        <ele>101</ele>
        <time>2019-10-28T11:56:32.000Z</time>
      </trkpt>
      <trkpt lat="48.5964" lon="2.14468">
        <ele>101</ele>
        <time>2019-10-28T11:56:33.000Z</time>
      </trkpt>
      <trkpt lat="48.59639" lon="2.14466">
        <ele>101</ele>
        <time>2019-10-28T11:56:34.000Z</time>
      </trkpt>
      <trkpt lat="48.59639" lon="2.14464">
        <ele>100</ele>
        <time>2019-10-28T11:56:35.000Z</time>
      </trkpt>
      <trkpt lat="48.59638" lon="2.14463">
        <ele>100</ele>
        <time>2019-10-28T11:56:36.000Z</time>
      </trkpt>
      <trkpt lat="48.59637" lon="2.14461">
        <ele>100</ele>
        <time>2019-10-28T11:56:37.000Z</time>
      </trkpt>
      <trkpt lat="48.59637" lon="2.1446">
        <ele>100</ele>
        <time>2019-10-28T11:56:38.000Z</time>
      </trkpt>
      <trkpt lat="48.59636" lon="2.14458">
        <ele>100</ele>
        <time>2019-10-28T11:56:39.000Z</time>
      </trkpt>
      <trkpt lat="48.59636" lon="2.14456">
        <ele>100</ele>
        <time>2019-10-28T11:56:40.000Z</time>
      </trkpt>
      <trkpt lat="48.59635" lon="2.14454">
        <ele>100</ele>
        <time>2019-10-28T11:56:41.000Z</time>
      </trkpt>
      <trkpt lat="48.59635" lon="2.14452">
        <ele>100</ele>
        <time>2019-10-28T11:56:42.000Z</time>
      </trkpt>
      <trkpt lat="48.59634" lon="2.14451">
        <ele>100</ele>
        <time>2019-10-28T11:56:43.000Z</time>
      </trkpt>
      <trkpt lat="48.59634" lon="2.14449">
        <ele>100</ele>
        <time>2019-10-28T11:56:44.000Z</time>
      </trkpt>
      <trkpt lat="48.59633" lon="2.14447">
        <ele>100</ele>
        <time>2019-10-28T11:56:45.000Z</time>
      </trkpt>
      <trkpt lat="48.59632" lon="2.14445">
        <ele>101</ele>
        <time>2019-10-28T11:56:46.000Z</time>
      </trkpt>
      <trkpt lat="48.59631" lon="2.14443">
        <ele>101</ele>
        <time>2019-10-28T11:56:47.000Z</time>
      </trkpt>
      <trkpt lat="48.5963" lon="2.14441">
        <ele>101</ele>
        <time>2019-10-28T11:56:48.000Z</time>
      </trkpt>
      <trkpt lat="48.59629" lon="2.1444">
        <ele>101</ele>
        <time>2019-10-28T11:56:49.000Z</time>
      </trkpt>
      <trkpt lat="48.59629" lon="2.14438">
        <ele>101</ele>
        <time>2019-10-28T11:56:50.000Z</time>
      </trkpt>
      <trkpt lat="48.59628" lon="2.14437">
        <ele>101</ele>
        <time>2019-10-28T11:56:51.000Z</time>
      </trkpt>
      <trkpt lat="48.59627" lon="2.14435">
        <ele>101</ele>
        <time>2019-10-28T11:56:52.000Z</time>
      </trkpt>
      <trkpt lat="48.59626" lon="2.14433">
        <ele>101</ele>
        <time>2019-10-28T11:56:53.000Z</time>
      </trkpt>
      <trkpt lat="48.59625" lon="2.14432">
        <ele>101</ele>
        <time>2019-10-28T11:56:54.000Z</time>
      </trkpt>
      <trkpt lat="48.59624" lon="2.1443">
        <ele>101</ele>
        <time>2019-10-28T11:56:55.000Z</time>
      </trkpt>
      <trkpt lat="48.59623" lon="2.14428">
        <ele>101</ele>
        <time>2019-10-28T11:56:56.000Z</time>
      </trkpt>
      <trkpt lat="48.59623" lon="2.14426">
        <ele>101</ele>
        <time>2019-10-28T11:56:57.000Z</time>
      </trkpt>
      <trkpt lat="48.59622" lon="2.14425">
        <ele>101</ele>
        <time>2019-10-28T11:56:58.000Z</time>
      </trkpt>
      <trkpt lat="48.59621" lon="2.14423">
        <ele>101</ele>
        <time>2019-10-28T11:56:59.000Z</time>
      </trkpt>
      <trkpt lat="48.5962" lon="2.14421">
        <ele>101</ele>
        <time>2019-10-28T11:57:00.000Z</time>
      </trkpt>
      <trkpt lat="48.5962" lon="2.14419">
        <ele>101</ele>
        <time>2019-10-28T11:57:01.000Z</time>
      </trkpt>
      <trkpt lat="48.59619" lon="2.14418">
        <ele>101</ele>
        <time>2019-10-28T11:57:02.000Z</time>
      </trkpt>
      <trkpt lat="48.59618" lon="2.14416">
        <ele>101</ele>
        <time>2019-10-28T11:57:03.000Z</time>
      </trkpt>
      <trkpt lat="48.59617" lon="2.14414">
        <ele>101</ele>
        <time>2019-10-28T11:57:04.000Z</time>
      </trkpt>
      <trkpt lat="48.59616" lon="2.14413">
        <ele>101</ele>
        <time>2019-10-28T11:57:05.000Z</time>
      </trkpt>
      <trkpt lat="48.59616" lon="2.14411">
        <ele>101</ele>
        <time>2019-10-28T11:57:06.000Z</time>
      </trkpt>
      <trkpt lat="48.59615" lon="2.14409">
        <ele>101</ele>
        <time>2019-10-28T11:57:07.000Z</time>
      </trkpt>
      <trkpt lat="48.59614" lon="2.14408">
        <ele>101</ele>
        <time>2019-10-28T11:57:08.000Z</time>
      </trkpt>
      <trkpt lat="48.59613" lon="2.14406">
        <ele>101</ele>
        <time>2019-10-28T11:57:09.000Z</time>
      </trkpt>
      <trkpt lat="48.59612" lon="2.14405">
        <ele>101</ele>
        <time>2019-10-28T11:57:10.000Z</time>
      </trkpt>
      <trkpt lat="48.59612" lon="2.14403">
        <ele>101</ele>
        <time>2019-10-28T11:57:11.000Z</time>
      </trkpt>
      <trkpt lat="48.59611" lon="2.14401">
        <ele>101</ele>
        <time>2019-10-28T11:57:12.000Z</time>
      </trkpt>
      <trkpt lat="48.5961" lon="2.14399">
        <ele>101</ele>
        <time>2019-10-28T11:57:13.000Z</time>
      </trkpt>
      <trkpt lat="48.59609" lon="2.14398">
        <ele>101</ele>
        <time>2019-10-28T11:57:14.000Z</time>
      </trkpt>
      <trkpt lat="48.59609" lon="2.14396">
        <ele>101</ele>
        <time>2019-10-28T11:57:15.000Z</time>
      </trkpt>
      <trkpt lat="48.59608" lon="2.14394">
        <ele>101</ele>
        <time>2019-10-28T11:57:16.000Z</time>
      </trkpt>
      <trkpt lat="48.59607" lon="2.14392">
        <ele>101</ele>
        <time>2019-10-28T11:57:17.000Z</time>
      </trkpt>
      <trkpt lat="48.59607" lon="2.14391">
        <ele>101</ele>
        <time>2019-10-28T11:57:18.000Z</time>
      </trkpt>
      <trkpt lat="48.59606" lon="2.14389">
        <ele>101</ele>
        <time>2019-10-28T11:57:19.000Z</time>
      </trkpt>
      <trkpt lat="48.59605" lon="2.14387">
        <ele>100</ele>
        <time>2019-10-28T11:57:20.000Z</time>
      </trkpt>
      <trkpt lat="48.59605" lon="2.14385">
        <ele>100</ele>
        <time>2019-10-28T11:57:21.000Z</time>
      </trkpt>
      <trkpt lat="48.59604" lon="2.14384">
        <ele>100</ele>
        <time>2019-10-28T11:57:22.000Z</time>
      </trkpt>
      <trkpt lat="48.59603" lon="2.14382">
        <ele>100</ele>
        <time>2019-10-28T11:57:23.000Z</time>
      </trkpt>
      <trkpt lat="48.59603" lon="2.1438">
        <ele>100</ele>
        <time>2019-10-28T11:57:24.000Z</time>
      </trkpt>
      <trkpt lat="48.59602" lon="2.14379">
        <ele>100</ele>
        <time>2019-10-28T11:57:25.000Z</time>
      </trkpt>
      <trkpt lat="48.59601" lon="2.14377">
        <ele>101</ele>
        <time>2019-10-28T11:57:26.000Z</time>
      </trkpt>
      <trkpt lat="48.596" lon="2.14375">
        <ele>101</ele>
        <time>2019-10-28T11:57:27.000Z</time>
      </trkpt>
      <trkpt lat="48.59599" lon="2.14373">
        <ele>101</ele>
        <time>2019-10-28T11:57:28.000Z</time>
      </trkpt>
      <trkpt lat="48.59599" lon="2.14372">
        <ele>100</ele>
        <time>2019-10-28T11:57:29.000Z</time>
      </trkpt>
      <trkpt lat="48.59598" lon="2.1437">
        <ele>101</ele>
        <time>2019-10-28T11:57:30.000Z</time>
      </trkpt>
      <trkpt lat="48.59597" lon="2.14368">
        <ele>101</ele>
        <time>2019-10-28T11:57:31.000Z</time>
      </trkpt>
      <trkpt lat="48.59596" lon="2.14367">
        <ele>101</ele>
        <time>2019-10-28T11:57:32.000Z</time>
      </trkpt>
      <trkpt lat="48.59595" lon="2.14365">
        <ele>101</ele>
        <time>2019-10-28T11:57:33.000Z</time>
      </trkpt>
      <trkpt lat="48.59595" lon="2.14363">
        <ele>101</ele>
        <time>2019-10-28T11:57:34.000Z</time>
      </trkpt>
      <trkpt lat="48.59594" lon="2.14361">
        <ele>101</ele>
        <time>2019-10-28T11:57:35.000Z</time>
      </trkpt>
      <trkpt lat="48.59593" lon="2.14359">
        <ele>101</ele>
        <time>2019-10-28T11:57:36.000Z</time>
      </trkpt>
      <trkpt lat="48.59592" lon="2.14358">
        <ele>101</ele>
        <time>2019-10-28T11:57:37.000Z</time>
      </trkpt>
      <trkpt lat="48.59591" lon="2.14356">
        <ele>101</ele>
        <time>2019-10-28T11:57:38.000Z</time>
      </trkpt>
      <trkpt lat="48.59591" lon="2.14354">
        <ele>101</ele>
        <time>2019-10-28T11:57:39.000Z</time>
      </trkpt>
      <trkpt lat="48.5959" lon="2.14352">
        <ele>101</ele>
        <time>2019-10-28T11:57:40.000Z</time>
      </trkpt>
      <trkpt lat="48.59589" lon="2.14351">
        <ele>101</ele>
        <time>2019-10-28T11:57:41.000Z</time>
      </trkpt>
      <trkpt lat="48.59588" lon="2.14349">
        <ele>101</ele>
        <time>2019-10-28T11:57:42.000Z</time>
      </trkpt>
      <trkpt lat="48.59588" lon="2.14347">
        <ele>101</ele>
        <time>2019-10-28T11:57:43.000Z</time>
      </trkpt>
      <trkpt lat="48.59587" lon="2.14346">
        <ele>101</ele>
        <time>2019-10-28T11:57:44.000Z</time>
      </trkpt>
      <trkpt lat="48.59586" lon="2.14344">
        <ele>101</ele>
        <time>2019-10-28T11:57:45.000Z</time>
      </trkpt>
      <trkpt lat="48.59585" lon="2.14342">
        <ele>101</ele>
        <time>2019-10-28T11:57:46.000Z</time>
      </trkpt>
      <trkpt lat="48.59584" lon="2.1434">
        <ele>101</ele>
        <time>2019-10-28T11:57:47.000Z</time>
      </trkpt>
      <trkpt lat="48.59584" lon="2.14339">
        <ele>101</ele>
        <time>2019-10-28T11:57:48.000Z</time>
      </trkpt>
      <trkpt lat="48.59583" lon="2.14337">
        <ele>101</ele>
        <time>2019-10-28T11:57:49.000Z</time>
      </trkpt>
      <trkpt lat="48.59582" lon="2.14335">
        <ele>101</ele>
        <time>2019-10-28T11:57:50.000Z</time>
      </trkpt>
      <trkpt lat="48.59581" lon="2.14333">
        <ele>101</ele>
        <time>2019-10-28T11:57:51.000Z</time>
      </trkpt>
      <trkpt lat="48.5958" lon="2.14331">
        <ele>101</ele>
        <time>2019-10-28T11:57:52.000Z</time>
      </trkpt>
      <trkpt lat="48.5958" lon="2.1433">
        <ele>101</ele>
        <time>2019-10-28T11:57:53.000Z</time>
      </trkpt>
      <trkpt lat="48.59579" lon="2.14328">
        <ele>101</ele>
        <time>2019-10-28T11:57:54.000Z</time>
      </trkpt>
      <trkpt lat="48.59578" lon="2.14326">
        <ele>101</ele>
        <time>2019-10-28T11:57:55.000Z</time>
      </trkpt>
      <trkpt lat="48.59577" lon="2.14324">
        <ele>101</ele>
        <time>2019-10-28T11:57:56.000Z</time>
      </trkpt>
      <trkpt lat="48.59576" lon="2.14323">
        <ele>101</ele>
        <time>2019-10-28T11:57:57.000Z</time>
      </trkpt>
      <trkpt lat="48.59575" lon="2.14321">
        <ele>101</ele>
        <time>2019-10-28T11:57:58.000Z</time>
      </trkpt>
      <trkpt lat="48.59574" lon="2.14319">
        <ele>101</ele>
        <time>2019-10-28T11:57:59.000Z</time>
      </trkpt>
      <trkpt lat="48.59574" lon="2.14318">
        <ele>101</ele>
        <time>2019-10-28T11:58:00.000Z</time>
      </trkpt>
      <trkpt lat="48.59573" lon="2.14316">
        <ele>101</ele>
        <time>2019-10-28T11:58:01.000Z</time>
      </trkpt>
      <trkpt lat="48.59572" lon="2.14314">
        <ele>101</ele>
        <time>2019-10-28T11:58:02.000Z</time>
      </trkpt>
      <trkpt lat="48.59571" lon="2.14312">
        <ele>101</ele>
        <time>2019-10-28T11:58:03.000Z</time>
      </trkpt>
      <trkpt lat="48.5957" lon="2.1431">
        <ele>101</ele>
        <time>2019-10-28T11:58:04.000Z</time>
      </trkpt>
      <trkpt lat="48.59569" lon="2.14309">
        <ele>102</ele>
        <time>2019-10-28T11:58:05.000Z</time>
      </trkpt>
      <trkpt lat="48.59568" lon="2.14307">
        <ele>101</ele>
        <time>2019-10-28T11:58:06.000Z</time>
      </trkpt>
      <trkpt lat="48.59568" lon="2.14305">
        <ele>102</ele>
        <time>2019-10-28T11:58:07.000Z</time>
      </trkpt>
      <trkpt lat="48.59567" lon="2.14303">
        <ele>101</ele>
        <time>2019-10-28T11:58:08.000Z</time>
      </trkpt>
      <trkpt lat="48.59566" lon="2.14302">
        <ele>102</ele>
        <time>2019-10-28T11:58:09.000Z</time>
      </trkpt>
      <trkpt lat="48.59565" lon="2.143">
        <ele>102</ele>
        <time>2019-10-28T11:58:10.000Z</time>
      </trkpt>
      <trkpt lat="48.59564" lon="2.14298">
        <ele>102</ele>
        <time>2019-10-28T11:58:11.000Z</time>
      </trkpt>
      <trkpt lat="48.59563" lon="2.14297">
        <ele>102</ele>
        <time>2019-10-28T11:58:12.000Z</time>
      </trkpt>
      <trkpt lat="48.59563" lon="2.14295">
        <ele>102</ele>
        <time>2019-10-28T11:58:13.000Z</time>
      </trkpt>
      <trkpt lat="48.59562" lon="2.14293">
        <ele>101</ele>
        <time>2019-10-28T11:58:14.000Z</time>
      </trkpt>
      <trkpt lat="48.59561" lon="2.14291">
        <ele>102</ele>
        <time>2019-10-28T11:58:15.000Z</time>
      </trkpt>
      <trkpt lat="48.5956" lon="2.1429">
        <ele>102</ele>
        <time>2019-10-28T11:58:16.000Z</time>
      </trkpt>
      <trkpt lat="48.59559" lon="2.14288">
        <ele>102</ele>
        <time>2019-10-28T11:58:17.000Z</time>
      </trkpt>
      <trkpt lat="48.59558" lon="2.14287">
        <ele>102</ele>
        <time>2019-10-28T11:58:18.000Z</time>
      </trkpt>
      <trkpt lat="48.59557" lon="2.14285">
        <ele>102</ele>
        <time>2019-10-28T11:58:19.000Z</time>
      </trkpt>
      <trkpt lat="48.59556" lon="2.14283">
        <ele>102</ele>
        <time>2019-10-28T11:58:20.000Z</time>
      </trkpt>
      <trkpt lat="48.59556" lon="2.14282">
        <ele>102</ele>
        <time>2019-10-28T11:58:21.000Z</time>
      </trkpt>
      <trkpt lat="48.59555" lon="2.1428">
        <ele>102</ele>
        <time>2019-10-28T11:58:22.000Z</time>
      </trkpt>
      <trkpt lat="48.59554" lon="2.14278">
        <ele>102</ele>
        <time>2019-10-28T11:58:23.000Z</time>
      </trkpt>
      <trkpt lat="48.59553" lon="2.14276">
        <ele>102</ele>
        <time>2019-10-28T11:58:24.000Z</time>
      </trkpt>
      <trkpt lat="48.59553" lon="2.14275">
        <ele>102</ele>
        <time>2019-10-28T11:58:25.000Z</time>
      </trkpt>
      <trkpt lat="48.59552" lon="2.14273">
        <ele>102</ele>
        <time>2019-10-28T11:58:26.000Z</time>
      </trkpt>
      <trkpt lat="48.59551" lon="2.14271">
        <ele>102</ele>
        <time>2019-10-28T11:58:27.000Z</time>
      </trkpt>
      <trkpt lat="48.5955" lon="2.1427">
        <ele>102</ele>
        <time>2019-10-28T11:58:28.000Z</time>
      </trkpt>
      <trkpt lat="48.59549" lon="2.14268">
        <ele>102</ele>
        <time>2019-10-28T11:58:29.000Z</time>
      </trkpt>
      <trkpt lat="48.59549" lon="2.14267">
        <ele>102</ele>
        <time>2019-10-28T11:58:30.000Z</time>
      </trkpt>
      <trkpt lat="48.59548" lon="2.14265">
        <ele>102</ele>
        <time>2019-10-28T11:58:31.000Z</time>
      </trkpt>
      <trkpt lat="48.59547" lon="2.14263">
        <ele>102</ele>
        <time>2019-10-28T11:58:32.000Z</time>
      </trkpt>
      <trkpt lat="48.59547" lon="2.14262">
        <ele>102</ele>
        <time>2019-10-28T11:58:33.000Z</time>
      </trkpt>
      <trkpt lat="48.59546" lon="2.1426">
        <ele>102</ele>
        <time>2019-10-28T11:58:34.000Z</time>
      </trkpt>
      <trkpt lat="48.59545" lon="2.14258">
        <ele>102</ele>
        <time>2019-10-28T11:58:35.000Z</time>
      </trkpt>
      <trkpt lat="48.59545" lon="2.14257">
        <ele>102</ele>
        <time>2019-10-28T11:58:36.000Z</time>
      </trkpt>
      <trkpt lat="48.59544" lon="2.14255">
        <ele>102</ele>
        <time>2019-10-28T11:58:37.000Z</time>
      </trkpt>
      <trkpt lat="48.59544" lon="2.14254">
        <ele>102</ele>
        <time>2019-10-28T11:58:38.000Z</time>
      </trkpt>
      <trkpt lat="48.59543" lon="2.14252">
        <ele>102</ele>
        <time>2019-10-28T11:58:39.000Z</time>
      </trkpt>
      <trkpt lat="48.59543" lon="2.14251">
        <ele>102</ele>
        <time>2019-10-28T11:58:40.000Z</time>
      </trkpt>
      <trkpt lat="48.59542" lon="2.14249">
        <ele>102</ele>
        <time>2019-10-28T11:58:41.000Z</time>
      </trkpt>
      <trkpt lat="48.59541" lon="2.14248">
        <ele>102</ele>
        <time>2019-10-28T11:58:42.000Z</time>
      </trkpt>
      <trkpt lat="48.5954" lon="2.14247">
        <ele>102</ele>
        <time>2019-10-28T11:58:43.000Z</time>
      </trkpt>
      <trkpt lat="48.59539" lon="2.14246">
        <ele>102</ele>
        <time>2019-10-28T11:58:44.000Z</time>
      </trkpt>
      <trkpt lat="48.59538" lon="2.14244">
        <ele>102</ele>
        <time>2019-10-28T11:58:45.000Z</time>
      </trkpt>
      <trkpt lat="48.59536" lon="2.14243">
        <ele>102</ele>
        <time>2019-10-28T11:58:46.000Z</time>
      </trkpt>
      <trkpt lat="48.59535" lon="2.14242">
        <ele>102</ele>
        <time>2019-10-28T11:58:47.000Z</time>
      </trkpt>
      <trkpt lat="48.59534" lon="2.14241">
        <ele>102</ele>
        <time>2019-10-28T11:58:48.000Z</time>
      </trkpt>
      <trkpt lat="48.59533" lon="2.1424">
        <ele>102</ele>
        <time>2019-10-28T11:58:49.000Z</time>
      </trkpt>
      <trkpt lat="48.59532" lon="2.14239">
        <ele>102</ele>
        <time>2019-10-28T11:58:50.000Z</time>
      </trkpt>
      <trkpt lat="48.59531" lon="2.14237">
        <ele>102</ele>
        <time>2019-10-28T11:58:51.000Z</time>
      </trkpt>
      <trkpt lat="48.5953" lon="2.14236">
        <ele>102</ele>
        <time>2019-10-28T11:58:52.000Z</time>
      </trkpt>
      <trkpt lat="48.59529" lon="2.14234">
        <ele>103</ele>
        <time>2019-10-28T11:58:53.000Z</time>
      </trkpt>
      <trkpt lat="48.59528" lon="2.14233">
        <ele>103</ele>
        <time>2019-10-28T11:58:54.000Z</time>
      </trkpt>
      <trkpt lat="48.59527" lon="2.14231">
        <ele>103</ele>
        <time>2019-10-28T11:58:55.000Z</time>
      </trkpt>
      <trkpt lat="48.59527" lon="2.14229">
        <ele>103</ele>
        <time>2019-10-28T11:58:56.000Z</time>
      </trkpt>
      <trkpt lat="48.59526" lon="2.14228">
        <ele>103</ele>
        <time>2019-10-28T11:58:57.000Z</time>
      </trkpt>
      <trkpt lat="48.59525" lon="2.14226">
        <ele>103</ele>
        <time>2019-10-28T11:58:58.000Z</time>
      </trkpt>
      <trkpt lat="48.59524" lon="2.14224">
        <ele>103</ele>
        <time>2019-10-28T11:58:59.000Z</time>
      </trkpt>
      <trkpt lat="48.59524" lon="2.14222">
        <ele>103</ele>
        <time>2019-10-28T11:59:00.000Z</time>
      </trkpt>
      <trkpt lat="48.59523" lon="2.1422">
        <ele>103</ele>
        <time>2019-10-28T11:59:01.000Z</time>
      </trkpt>
      <trkpt lat="48.59523" lon="2.14218">
        <ele>103</ele>
        <time>2019-10-28T11:59:02.000Z</time>
      </trkpt>
      <trkpt lat="48.59522" lon="2.14217">
        <ele>103</ele>
        <time>2019-10-28T11:59:03.000Z</time>
      </trkpt>
      <trkpt lat="48.59522" lon="2.14215">
        <ele>103</ele>
        <time>2019-10-28T11:59:04.000Z</time>
      </trkpt>
      <trkpt lat="48.59521" lon="2.14213">
        <ele>103</ele>
        <time>2019-10-28T11:59:05.000Z</time>
      </trkpt>
      <trkpt lat="48.59521" lon="2.14211">
        <ele>103</ele>
        <time>2019-10-28T11:59:06.000Z</time>
      </trkpt>
      <trkpt lat="48.5952" lon="2.14209">
        <ele>103</ele>
        <time>2019-10-28T11:59:07.000Z</time>
      </trkpt>
      <trkpt lat="48.5952" lon="2.14207">
        <ele>103</ele>
        <time>2019-10-28T11:59:08.000Z</time>
      </trkpt>
      <trkpt lat="48.59519" lon="2.14206">
        <ele>103</ele>
        <time>2019-10-28T11:59:09.000Z</time>
      </trkpt>
      <trkpt lat="48.59518" lon="2.14204">
        <ele>103</ele>
        <time>2019-10-28T11:59:10.000Z</time>
      </trkpt>
      <trkpt lat="48.59518" lon="2.14202">
        <ele>103</ele>
        <time>2019-10-28T11:59:11.000Z</time>
      </trkpt>
      <trkpt lat="48.59518" lon="2.142">
        <ele>103</ele>
        <time>2019-10-28T11:59:12.000Z</time>
      </trkpt>
      <trkpt lat="48.59517" lon="2.14198">
        <ele>103</ele>
        <time>2019-10-28T11:59:13.000Z</time>
      </trkpt>
      <trkpt lat="48.59516" lon="2.14197">
        <ele>103</ele>
        <time>2019-10-28T11:59:14.000Z</time>
      </trkpt>
      <trkpt lat="48.59516" lon="2.14195">
        <ele>103</ele>
        <time>2019-10-28T11:59:15.000Z</time>
      </trkpt>
      <trkpt lat="48.59515" lon="2.14193">
        <ele>103</ele>
        <time>2019-10-28T11:59:16.000Z</time>
      </trkpt>
      <trkpt lat="48.59514" lon="2.14192">
        <ele>103</ele>
        <time>2019-10-28T11:59:17.000Z</time>
      </trkpt>
      <trkpt lat="48.59513" lon="2.1419">
        <ele>103</ele>
        <time>2019-10-28T11:59:18.000Z</time>
      </trkpt>
      <trkpt lat="48.59513" lon="2.14188">
        <ele>103</ele>
        <time>2019-10-28T11:59:19.000Z</time>
      </trkpt>
      <trkpt lat="48.59512" lon="2.14186">
        <ele>104</ele>
        <time>2019-10-28T11:59:20.000Z</time>
      </trkpt>
      <trkpt lat="48.59511" lon="2.14185">
        <ele>104</ele>
        <time>2019-10-28T11:59:21.000Z</time>
      </trkpt>
      <trkpt lat="48.5951" lon="2.14183">
        <ele>104</ele>
        <time>2019-10-28T11:59:22.000Z</time>
      </trkpt>
      <trkpt lat="48.5951" lon="2.14181">
        <ele>104</ele>
        <time>2019-10-28T11:59:23.000Z</time>
      </trkpt>
      <trkpt lat="48.59509" lon="2.14179">
        <ele>104</ele>
        <time>2019-10-28T11:59:24.000Z</time>
      </trkpt>
      <trkpt lat="48.59508" lon="2.14177">
        <ele>104</ele>
        <time>2019-10-28T11:59:25.000Z</time>
      </trkpt>
      <trkpt lat="48.59508" lon="2.14176">
        <ele>104</ele>
        <time>2019-10-28T11:59:26.000Z</time>
      </trkpt>
      <trkpt lat="48.59507" lon="2.14174">
        <ele>104</ele>
        <time>2019-10-28T11:59:27.000Z</time>
      </trkpt>
      <trkpt lat="48.59506" lon="2.14172">
        <ele>103</ele>
        <time>2019-10-28T11:59:28.000Z</time>
      </trkpt>
      <trkpt lat="48.59506" lon="2.14171">
        <ele>103</ele>
        <time>2019-10-28T11:59:29.000Z</time>
      </trkpt>
      <trkpt lat="48.59505" lon="2.14169">
        <ele>103</ele>
        <time>2019-10-28T11:59:30.000Z</time>
      </trkpt>
      <trkpt lat="48.59504" lon="2.14167">
        <ele>103</ele>
        <time>2019-10-28T11:59:31.000Z</time>
      </trkpt>
      <trkpt lat="48.59504" lon="2.14165">
        <ele>103</ele>
        <time>2019-10-28T11:59:32.000Z</time>
      </trkpt>
      <trkpt lat="48.59503" lon="2.14164">
        <ele>104</ele>
        <time>2019-10-28T11:59:33.000Z</time>
      </trkpt>
      <trkpt lat="48.59502" lon="2.14162">
        <ele>104</ele>
        <time>2019-10-28T11:59:34.000Z</time>
      </trkpt>
      <trkpt lat="48.59502" lon="2.1416">
        <ele>104</ele>
        <time>2019-10-28T11:59:35.000Z</time>
      </trkpt>
      <trkpt lat="48.59501" lon="2.14159">
        <ele>104</ele>
        <time>2019-10-28T11:59:36.000Z</time>
      </trkpt>
      <trkpt lat="48.595" lon="2.14157">
        <ele>104</ele>
        <time>2019-10-28T11:59:37.000Z</time>
      </trkpt>
      <trkpt lat="48.59499" lon="2.14155">
        <ele>104</ele>
        <time>2019-10-28T11:59:38.000Z</time>
      </trkpt>
      <trkpt lat="48.59499" lon="2.14153">
        <ele>104</ele>
        <time>2019-10-28T11:59:39.000Z</time>
      </trkpt>
      <trkpt lat="48.59498" lon="2.14152">
        <ele>104</ele>
        <time>2019-10-28T11:59:40.000Z</time>
      </trkpt>
      <trkpt lat="48.59497" lon="2.1415">
        <ele>105</ele>
        <time>2019-10-28T11:59:41.000Z</time>
      </trkpt>
      <trkpt lat="48.59497" lon="2.14148">
        <ele>105</ele>
        <time>2019-10-28T11:59:42.000Z</time>
      </trkpt>
      <trkpt lat="48.59496" lon="2.14146">
        <ele>105</ele>
        <time>2019-10-28T11:59:43.000Z</time>
      </trkpt>
      <trkpt lat="48.59496" lon="2.14144">
        <ele>105</ele>
        <time>2019-10-28T11:59:44.000Z</time>
      </trkpt>
      <trkpt lat="48.59496" lon="2.14142">
        <ele>105</ele>
        <time>2019-10-28T11:59:45.000Z</time>
      </trkpt>
      <trkpt lat="48.59496" lon="2.1414">
        <ele>105</ele>
        <time>2019-10-28T11:59:46.000Z</time>
      </trkpt>
      <trkpt lat="48.59496" lon="2.14138">
        <ele>105</ele>
        <time>2019-10-28T11:59:47.000Z</time>
      </trkpt>
      <trkpt lat="48.59496" lon="2.14136">
        <ele>105</ele>
        <time>2019-10-28T11:59:48.000Z</time>
      </trkpt>
      <trkpt lat="48.59496" lon="2.14134">
        <ele>105</ele>
        <time>2019-10-28T11:59:49.000Z</time>
      </trkpt>
      <trkpt lat="48.59496" lon="2.14132">
        <ele>106</ele>
        <time>2019-10-28T11:59:50.000Z</time>
      </trkpt>
      <trkpt lat="48.59496" lon="2.14131">
        <ele>106</ele>
        <time>2019-10-28T11:59:51.000Z</time>
      </trkpt>
      <trkpt lat="48.59495" lon="2.14129">
        <ele>105</ele>
        <time>2019-10-28T11:59:52.000Z</time>
      </trkpt>
      <trkpt lat="48.59494" lon="2.14128">
        <ele>105</ele>
        <time>2019-10-28T11:59:53.000Z</time>
      </trkpt>
      <trkpt lat="48.59493" lon="2.14127">
        <ele>105</ele>
        <time>2019-10-28T11:59:54.000Z</time>
      </trkpt>
      <trkpt lat="48.59492" lon="2.14127">
        <ele>105</ele>
        <time>2019-10-28T11:59:55.000Z</time>
      </trkpt>
      <trkpt lat="48.59491" lon="2.14127">
        <ele>105</ele>
        <time>2019-10-28T11:59:56.000Z</time>
      </trkpt>
      <trkpt lat="48.5949" lon="2.14127">
        <ele>104</ele>
        <time>2019-10-28T11:59:57.000Z</time>
      </trkpt>
      <trkpt lat="48.59489" lon="2.14126">
        <ele>105</ele>
        <time>2019-10-28T11:59:58.000Z</time>
      </trkpt>
      <trkpt lat="48.59487" lon="2.14125">
        <ele>105</ele>
        <time>2019-10-28T11:59:59.000Z</time>
      </trkpt>
      <trkpt lat="48.59486" lon="2.14125">
        <ele>105</ele>
        <time>2019-10-28T12:00:00.000Z</time>
      </trkpt>
      <trkpt lat="48.59485" lon="2.14123">
        <ele>105</ele>
        <time>2019-10-28T12:00:01.000Z</time>
      </trkpt>
      <trkpt lat="48.59484" lon="2.14122">
        <ele>105</ele>
        <time>2019-10-28T12:00:02.000Z</time>
      </trkpt>
      <trkpt lat="48.59483" lon="2.14121">
        <ele>105</ele>
        <time>2019-10-28T12:00:03.000Z</time>
      </trkpt>
      <trkpt lat="48.59482" lon="2.14119">
        <ele>105</ele>
        <time>2019-10-28T12:00:04.000Z</time>
      </trkpt>
      <trkpt lat="48.59481" lon="2.14118">
        <ele>105</ele>
        <time>2019-10-28T12:00:05.000Z</time>
      </trkpt>
      <trkpt lat="48.59481" lon="2.14116">
        <ele>105</ele>
        <time>2019-10-28T12:00:06.000Z</time>
      </trkpt>
      <trkpt lat="48.5948" lon="2.14115">
        <ele>105</ele>
        <time>2019-10-28T12:00:07.000Z</time>
      </trkpt>
      <trkpt lat="48.59479" lon="2.14113">
        <ele>105</ele>
        <time>2019-10-28T12:00:08.000Z</time>
      </trkpt>
      <trkpt lat="48.59478" lon="2.14112">
        <ele>105</ele>
        <time>2019-10-28T12:00:09.000Z</time>
      </trkpt>
      <trkpt lat="48.59477" lon="2.1411">
        <ele>104</ele>
        <time>2019-10-28T12:00:10.000Z</time>
      </trkpt>
      <trkpt lat="48.59477" lon="2.14109">
        <ele>104</ele>
        <time>2019-10-28T12:00:11.000Z</time>
      </trkpt>
      <trkpt lat="48.59476" lon="2.14107">
        <ele>104</ele>
        <time>2019-10-28T12:00:12.000Z</time>
      </trkpt>
      <trkpt lat="48.59476" lon="2.14105">
        <ele>104</ele>
        <time>2019-10-28T12:00:13.000Z</time>
      </trkpt>
      <trkpt lat="48.59475" lon="2.14104">
        <ele>104</ele>
        <time>2019-10-28T12:00:14.000Z</time>
      </trkpt>
      <trkpt lat="48.59475" lon="2.14102">
        <ele>104</ele>
        <time>2019-10-28T12:00:15.000Z</time>
      </trkpt>
      <trkpt lat="48.59474" lon="2.14101">
        <ele>104</ele>
        <time>2019-10-28T12:00:16.000Z</time>
      </trkpt>
      <trkpt lat="48.59474" lon="2.14099">
        <ele>104</ele>
        <time>2019-10-28T12:00:17.000Z</time>
      </trkpt>
      <trkpt lat="48.59473" lon="2.14098">
        <ele>104</ele>
        <time>2019-10-28T12:00:18.000Z</time>
      </trkpt>
      <trkpt lat="48.59472" lon="2.14096">
        <ele>104</ele>
        <time>2019-10-28T12:00:19.000Z</time>
      </trkpt>
      <trkpt lat="48.59471" lon="2.14094">
        <ele>104</ele>
        <time>2019-10-28T12:00:20.000Z</time>
      </trkpt>
      <trkpt lat="48.59471" lon="2.14092">
        <ele>104</ele>
        <time>2019-10-28T12:00:21.000Z</time>
      </trkpt>
      <trkpt lat="48.5947" lon="2.14091">
        <ele>105</ele>
        <time>2019-10-28T12:00:22.000Z</time>
      </trkpt>
      <trkpt lat="48.59469" lon="2.14089">
        <ele>105</ele>
        <time>2019-10-28T12:00:23.000Z</time>
      </trkpt>
      <trkpt lat="48.59469" lon="2.14087">
        <ele>105</ele>
        <time>2019-10-28T12:00:24.000Z</time>
      </trkpt>
      <trkpt lat="48.59468" lon="2.14086">
        <ele>105</ele>
        <time>2019-10-28T12:00:25.000Z</time>
      </trkpt>
      <trkpt lat="48.59467" lon="2.14084">
        <ele>106</ele>
        <time>2019-10-28T12:00:26.000Z</time>
      </trkpt>
      <trkpt lat="48.59466" lon="2.14082">
        <ele>106</ele>
        <time>2019-10-28T12:00:27.000Z</time>
      </trkpt>
      <trkpt lat="48.59465" lon="2.1408">
        <ele>106</ele>
        <time>2019-10-28T12:00:28.000Z</time>
      </trkpt>
      <trkpt lat="48.59464" lon="2.14078">
        <ele>106</ele>
        <time>2019-10-28T12:00:29.000Z</time>
      </trkpt>
      <trkpt lat="48.59464" lon="2.14076">
        <ele>106</ele>
        <time>2019-10-28T12:00:30.000Z</time>
      </trkpt>
      <trkpt lat="48.59463" lon="2.14074">
        <ele>105</ele>
        <time>2019-10-28T12:00:31.000Z</time>
      </trkpt>
      <trkpt lat="48.59462" lon="2.14073">
        <ele>105</ele>
        <time>2019-10-28T12:00:32.000Z</time>
      </trkpt>
      <trkpt lat="48.59461" lon="2.14071">
        <ele>105</ele>
        <time>2019-10-28T12:00:33.000Z</time>
      </trkpt>
      <trkpt lat="48.5946" lon="2.14069">
        <ele>105</ele>
        <time>2019-10-28T12:00:34.000Z</time>
      </trkpt>
      <trkpt lat="48.59459" lon="2.14067">
        <ele>105</ele>
        <time>2019-10-28T12:00:35.000Z</time>
      </trkpt>
      <trkpt lat="48.59459" lon="2.14065">
        <ele>105</ele>
        <time>2019-10-28T12:00:36.000Z</time>
      </trkpt>
      <trkpt lat="48.59458" lon="2.14064">
        <ele>105</ele>
        <time>2019-10-28T12:00:37.000Z</time>
      </trkpt>
      <trkpt lat="48.59457" lon="2.14062">
        <ele>105</ele>
        <time>2019-10-28T12:00:38.000Z</time>
      </trkpt>
      <trkpt lat="48.59456" lon="2.1406">
        <ele>105</ele>
        <time>2019-10-28T12:00:39.000Z</time>
      </trkpt>
      <trkpt lat="48.59455" lon="2.14058">
        <ele>105</ele>
        <time>2019-10-28T12:00:40.000Z</time>
      </trkpt>
      <trkpt lat="48.59455" lon="2.14056">
        <ele>105</ele>
        <time>2019-10-28T12:00:41.000Z</time>
      </trkpt>
      <trkpt lat="48.59454" lon="2.14055">
        <ele>105</ele>
        <time>2019-10-28T12:00:42.000Z</time>
      </trkpt>
      <trkpt lat="48.59453" lon="2.14053">
        <ele>105</ele>
        <time>2019-10-28T12:00:43.000Z</time>
      </trkpt>
      <trkpt lat="48.59452" lon="2.14051">
        <ele>105</ele>
        <time>2019-10-28T12:00:44.000Z</time>
      </trkpt>
      <trkpt lat="48.59451" lon="2.1405">
        <ele>105</ele>
        <time>2019-10-28T12:00:45.000Z</time>
      </trkpt>
      <trkpt lat="48.5945" lon="2.14048">
        <ele>106</ele>
        <time>2019-10-28T12:00:46.000Z</time>
      </trkpt>
      <trkpt lat="48.59449" lon="2.14046">
        <ele>106</ele>
        <time>2019-10-28T12:00:47.000Z</time>
      </trkpt>
      <trkpt lat="48.59449" lon="2.14044">
        <ele>106</ele>
        <time>2019-10-28T12:00:48.000Z</time>
      </trkpt>
      <trkpt lat="48.59448" lon="2.14042">
        <ele>106</ele>
        <time>2019-10-28T12:00:49.000Z</time>
      </trkpt>
      <trkpt lat="48.59447" lon="2.14041">
        <ele>106</ele>
        <time>2019-10-28T12:00:50.000Z</time>
      </trkpt>
      <trkpt lat="48.59446" lon="2.14039">
        <ele>106</ele>
        <time>2019-10-28T12:00:51.000Z</time>
      </trkpt>
      <trkpt lat="48.59445" lon="2.14037">
        <ele>106</ele>
        <time>2019-10-28T12:00:52.000Z</time>
      </trkpt>
      <trkpt lat="48.59444" lon="2.14035">
        <ele>106</ele>
        <time>2019-10-28T12:00:53.000Z</time>
      </trkpt>
      <trkpt lat="48.59444" lon="2.14034">
        <ele>106</ele>
        <time>2019-10-28T12:00:54.000Z</time>
      </trkpt>
      <trkpt lat="48.59443" lon="2.14032">
        <ele>106</ele>
        <time>2019-10-28T12:00:55.000Z</time>
      </trkpt>
      <trkpt lat="48.59443" lon="2.1403">
        <ele>105</ele>
        <time>2019-10-28T12:00:56.000Z</time>
      </trkpt>
      <trkpt lat="48.59442" lon="2.14029">
        <ele>105</ele>
        <time>2019-10-28T12:00:57.000Z</time>
      </trkpt>
      <trkpt lat="48.59441" lon="2.14027">
        <ele>105</ele>
        <time>2019-10-28T12:00:58.000Z</time>
      </trkpt>
      <trkpt lat="48.59441" lon="2.14025">
        <ele>106</ele>
        <time>2019-10-28T12:00:59.000Z</time>
      </trkpt>
      <trkpt lat="48.5944" lon="2.14023">
        <ele>105</ele>
        <time>2019-10-28T12:01:00.000Z</time>
      </trkpt>
      <trkpt lat="48.59439" lon="2.14022">
        <ele>106</ele>
        <time>2019-10-28T12:01:01.000Z</time>
      </trkpt>
      <trkpt lat="48.59438" lon="2.1402">
        <ele>105</ele>
        <time>2019-10-28T12:01:02.000Z</time>
      </trkpt>
      <trkpt lat="48.59437" lon="2.14018">
        <ele>105</ele>
        <time>2019-10-28T12:01:03.000Z</time>
      </trkpt>
      <trkpt lat="48.59436" lon="2.14017">
        <ele>105</ele>
        <time>2019-10-28T12:01:04.000Z</time>
      </trkpt>
      <trkpt lat="48.59436" lon="2.14015">
        <ele>105</ele>
        <time>2019-10-28T12:01:05.000Z</time>
      </trkpt>
      <trkpt lat="48.59435" lon="2.14013">
        <ele>106</ele>
        <time>2019-10-28T12:01:06.000Z</time>
      </trkpt>
      <trkpt lat="48.59434" lon="2.14011">
        <ele>105</ele>
        <time>2019-10-28T12:01:07.000Z</time>
      </trkpt>
      <trkpt lat="48.59434" lon="2.1401">
        <ele>106</ele>
        <time>2019-10-28T12:01:08.000Z</time>
      </trkpt>
      <trkpt lat="48.59433" lon="2.14008">
        <ele>106</ele>
        <time>2019-10-28T12:01:09.000Z</time>
      </trkpt>
      <trkpt lat="48.59432" lon="2.14006">
        <ele>106</ele>
        <time>2019-10-28T12:01:10.000Z</time>
      </trkpt>
      <trkpt lat="48.59431" lon="2.14003">
        <ele>107</ele>
        <time>2019-10-28T12:01:11.000Z</time>
      </trkpt>
      <trkpt lat="48.59431" lon="2.14001">
        <ele>107</ele>
        <time>2019-10-28T12:01:12.000Z</time>
      </trkpt>
      <trkpt lat="48.5943" lon="2.13999">
        <ele>107</ele>
        <time>2019-10-28T12:01:13.000Z</time>
      </trkpt>
      <trkpt lat="48.59429" lon="2.13997">
        <ele>107</ele>
        <time>2019-10-28T12:01:14.000Z</time>
      </trkpt>
      <trkpt lat="48.59428" lon="2.13995">
        <ele>107</ele>
        <time>2019-10-28T12:01:15.000Z</time>
      </trkpt>
      <trkpt lat="48.59427" lon="2.13994">
        <ele>107</ele>
        <time>2019-10-28T12:01:16.000Z</time>
      </trkpt>
      <trkpt lat="48.59427" lon="2.13992">
        <ele>107</ele>
        <time>2019-10-28T12:01:17.000Z</time>
      </trkpt>
      <trkpt lat="48.59426" lon="2.1399">
        <ele>107</ele>
        <time>2019-10-28T12:01:18.000Z</time>
      </trkpt>
      <trkpt lat="48.59425" lon="2.13988">
        <ele>107</ele>
        <time>2019-10-28T12:01:19.000Z</time>
      </trkpt>
      <trkpt lat="48.59424" lon="2.13987">
        <ele>107</ele>
        <time>2019-10-28T12:01:20.000Z</time>
      </trkpt>
      <trkpt lat="48.59423" lon="2.13985">
        <ele>107</ele>
        <time>2019-10-28T12:01:21.000Z</time>
      </trkpt>
      <trkpt lat="48.59422" lon="2.13983">
        <ele>107</ele>
        <time>2019-10-28T12:01:22.000Z</time>
      </trkpt>
      <trkpt lat="48.59422" lon="2.13981">
        <ele>107</ele>
        <time>2019-10-28T12:01:23.000Z</time>
      </trkpt>
      <trkpt lat="48.59421" lon="2.1398">
        <ele>108</ele>
        <time>2019-10-28T12:01:24.000Z</time>
      </trkpt>
      <trkpt lat="48.5942" lon="2.13978">
        <ele>108</ele>
        <time>2019-10-28T12:01:25.000Z</time>
      </trkpt>
      <trkpt lat="48.59419" lon="2.13976">
        <ele>108</ele>
        <time>2019-10-28T12:01:26.000Z</time>
      </trkpt>
      <trkpt lat="48.59419" lon="2.13974">
        <ele>108</ele>
        <time>2019-10-28T12:01:27.000Z</time>
      </trkpt>
      <trkpt lat="48.59418" lon="2.13973">
        <ele>108</ele>
        <time>2019-10-28T12:01:28.000Z</time>
      </trkpt>
      <trkpt lat="48.59417" lon="2.13971">
        <ele>108</ele>
        <time>2019-10-28T12:01:29.000Z</time>
      </trkpt>
      <trkpt lat="48.59417" lon="2.13969">
        <ele>108</ele>
        <time>2019-10-28T12:01:30.000Z</time>
      </trkpt>
      <trkpt lat="48.59416" lon="2.13968">
        <ele>108</ele>
        <time>2019-10-28T12:01:31.000Z</time>
      </trkpt>
      <trkpt lat="48.59415" lon="2.13966">
        <ele>108</ele>
        <time>2019-10-28T12:01:32.000Z</time>
      </trkpt>
      <trkpt lat="48.59415" lon="2.13964">
        <ele>108</ele>
        <time>2019-10-28T12:01:33.000Z</time>
      </trkpt>
      <trkpt lat="48.59414" lon="2.13963">
        <ele>108</ele>
        <time>2019-10-28T12:01:34.000Z</time>
      </trkpt>
      <trkpt lat="48.59413" lon="2.13961">
        <ele>108</ele>
        <time>2019-10-28T12:01:35.000Z</time>
      </trkpt>
      <trkpt lat="48.59412" lon="2.1396">
        <ele>108</ele>
        <time>2019-10-28T12:01:36.000Z</time>
      </trkpt>
      <trkpt lat="48.59412" lon="2.13958">
        <ele>108</ele>
        <time>2019-10-28T12:01:37.000Z</time>
      </trkpt>
      <trkpt lat="48.59411" lon="2.13956">
        <ele>108</ele>
        <time>2019-10-28T12:01:38.000Z</time>
      </trkpt>
      <trkpt lat="48.5941" lon="2.13954">
        <ele>108</ele>
        <time>2019-10-28T12:01:39.000Z</time>
      </trkpt>
      <trkpt lat="48.59409" lon="2.13953">
        <ele>108</ele>
        <time>2019-10-28T12:01:40.000Z</time>
      </trkpt>
      <trkpt lat="48.59408" lon="2.13951">
        <ele>109</ele>
        <time>2019-10-28T12:01:41.000Z</time>
      </trkpt>
      <trkpt lat="48.59407" lon="2.13949">
        <ele>109</ele>
        <time>2019-10-28T12:01:42.000Z</time>
      </trkpt>
      <trkpt lat="48.59406" lon="2.13948">
        <ele>109</ele>
        <time>2019-10-28T12:01:43.000Z</time>
      </trkpt>
      <trkpt lat="48.59405" lon="2.13946">
        <ele>109</ele>
        <time>2019-10-28T12:01:44.000Z</time>
      </trkpt>
      <trkpt lat="48.59404" lon="2.13944">
        <ele>109</ele>
        <time>2019-10-28T12:01:45.000Z</time>
      </trkpt>
      <trkpt lat="48.59403" lon="2.13942">
        <ele>109</ele>
        <time>2019-10-28T12:01:46.000Z</time>
      </trkpt>
      <trkpt lat="48.59402" lon="2.1394">
        <ele>109</ele>
        <time>2019-10-28T12:01:47.000Z</time>
      </trkpt>
      <trkpt lat="48.59401" lon="2.13938">
        <ele>109</ele>
        <time>2019-10-28T12:01:48.000Z</time>
      </trkpt>
      <trkpt lat="48.594" lon="2.13936">
        <ele>109</ele>
        <time>2019-10-28T12:01:49.000Z</time>
      </trkpt>
      <trkpt lat="48.59399" lon="2.13934">
        <ele>110</ele>
        <time>2019-10-28T12:01:50.000Z</time>
      </trkpt>
      <trkpt lat="48.59399" lon="2.13933">
        <ele>109</ele>
        <time>2019-10-28T12:01:51.000Z</time>
      </trkpt>
      <trkpt lat="48.59398" lon="2.13931">
        <ele>109</ele>
        <time>2019-10-28T12:01:52.000Z</time>
      </trkpt>
      <trkpt lat="48.59397" lon="2.13929">
        <ele>109</ele>
        <time>2019-10-28T12:01:53.000Z</time>
      </trkpt>
      <trkpt lat="48.59396" lon="2.13928">
        <ele>109</ele>
        <time>2019-10-28T12:01:54.000Z</time>
      </trkpt>
      <trkpt lat="48.59396" lon="2.13926">
        <ele>109</ele>
        <time>2019-10-28T12:01:55.000Z</time>
      </trkpt>
      <trkpt lat="48.59395" lon="2.13924">
        <ele>109</ele>
        <time>2019-10-28T12:01:56.000Z</time>
      </trkpt>
      <trkpt lat="48.59395" lon="2.13922">
        <ele>110</ele>
        <time>2019-10-28T12:01:57.000Z</time>
      </trkpt>
      <trkpt lat="48.59394" lon="2.13919">
        <ele>110</ele>
        <time>2019-10-28T12:01:58.000Z</time>
      </trkpt>
      <trkpt lat="48.59393" lon="2.13917">
        <ele>110</ele>
        <time>2019-10-28T12:01:59.000Z</time>
      </trkpt>
      <trkpt lat="48.59392" lon="2.13915">
        <ele>110</ele>
        <time>2019-10-28T12:02:00.000Z</time>
      </trkpt>
      <trkpt lat="48.59391" lon="2.13913">
        <ele>110</ele>
        <time>2019-10-28T12:02:01.000Z</time>
      </trkpt>
      <trkpt lat="48.5939" lon="2.13912">
        <ele>110</ele>
        <time>2019-10-28T12:02:02.000Z</time>
      </trkpt>
      <trkpt lat="48.5939" lon="2.1391">
        <ele>110</ele>
        <time>2019-10-28T12:02:03.000Z</time>
      </trkpt>
      <trkpt lat="48.59389" lon="2.13908">
        <ele>109</ele>
        <time>2019-10-28T12:02:04.000Z</time>
      </trkpt>
      <trkpt lat="48.59388" lon="2.13906">
        <ele>110</ele>
        <time>2019-10-28T12:02:05.000Z</time>
      </trkpt>
      <trkpt lat="48.59387" lon="2.13905">
        <ele>110</ele>
        <time>2019-10-28T12:02:06.000Z</time>
      </trkpt>
      <trkpt lat="48.59386" lon="2.13903">
        <ele>110</ele>
        <time>2019-10-28T12:02:07.000Z</time>
      </trkpt>
      <trkpt lat="48.59386" lon="2.13901">
        <ele>111</ele>
        <time>2019-10-28T12:02:08.000Z</time>
      </trkpt>
      <trkpt lat="48.59385" lon="2.139">
        <ele>111</ele>
        <time>2019-10-28T12:02:09.000Z</time>
      </trkpt>
      <trkpt lat="48.59384" lon="2.13898">
        <ele>111</ele>
        <time>2019-10-28T12:02:10.000Z</time>
      </trkpt>
      <trkpt lat="48.59383" lon="2.13896">
        <ele>111</ele>
        <time>2019-10-28T12:02:11.000Z</time>
      </trkpt>
      <trkpt lat="48.59382" lon="2.13894">
        <ele>111</ele>
        <time>2019-10-28T12:02:12.000Z</time>
      </trkpt>
      <trkpt lat="48.59381" lon="2.13893">
        <ele>112</ele>
        <time>2019-10-28T12:02:13.000Z</time>
      </trkpt>
      <trkpt lat="48.59381" lon="2.13891">
        <ele>112</ele>
        <time>2019-10-28T12:02:14.000Z</time>
      </trkpt>
      <trkpt lat="48.5938" lon="2.13889">
        <ele>112</ele>
        <time>2019-10-28T12:02:15.000Z</time>
      </trkpt>
      <trkpt lat="48.59379" lon="2.13886">
        <ele>112</ele>
        <time>2019-10-28T12:02:16.000Z</time>
      </trkpt>
      <trkpt lat="48.59379" lon="2.13885">
        <ele>111</ele>
        <time>2019-10-28T12:02:17.000Z</time>
      </trkpt>
      <trkpt lat="48.59379" lon="2.13883">
        <ele>111</ele>
        <time>2019-10-28T12:02:18.000Z</time>
      </trkpt>
      <trkpt lat="48.59379" lon="2.13883">
        <ele>111</ele>
        <time>2019-10-28T12:02:19.000Z</time>
      </trkpt>
      <trkpt lat="48.59378" lon="2.13883">
        <ele>112</ele>
        <time>2019-10-28T12:02:20.000Z</time>
      </trkpt>
      <trkpt lat="48.59378" lon="2.13883">
        <ele>111</ele>
        <time>2019-10-28T12:02:21.000Z</time>
      </trkpt>
      <trkpt lat="48.59377" lon="2.13883">
        <ele>111</ele>
        <time>2019-10-28T12:02:22.000Z</time>
      </trkpt>
      <trkpt lat="48.59377" lon="2.13882">
        <ele>111</ele>
        <time>2019-10-28T12:02:23.000Z</time>
      </trkpt>
      <trkpt lat="48.59377" lon="2.1388">
        <ele>110</ele>
        <time>2019-10-28T12:02:24.000Z</time>
      </trkpt>
      <trkpt lat="48.59377" lon="2.13878">
        <ele>110</ele>
        <time>2019-10-28T12:02:25.000Z</time>
      </trkpt>
      <trkpt lat="48.59377" lon="2.13876">
        <ele>110</ele>
        <time>2019-10-28T12:02:26.000Z</time>
      </trkpt>
      <trkpt lat="48.59377" lon="2.13874">
        <ele>109</ele>
        <time>2019-10-28T12:02:27.000Z</time>
      </trkpt>
      <trkpt lat="48.59377" lon="2.13873">
        <ele>109</ele>
        <time>2019-10-28T12:02:28.000Z</time>
      </trkpt>
      <trkpt lat="48.59377" lon="2.13872">
        <ele>108</ele>
        <time>2019-10-28T12:02:29.000Z</time>
      </trkpt>
      <trkpt lat="48.59378" lon="2.13872">
        <ele>108</ele>
        <time>2019-10-28T12:02:30.000Z</time>
      </trkpt>
      <trkpt lat="48.59378" lon="2.13872">
        <ele>108</ele>
        <time>2019-10-28T12:02:31.000Z</time>
      </trkpt>
      <trkpt lat="48.59377" lon="2.13872">
        <ele>108</ele>
        <time>2019-10-28T12:02:32.000Z</time>
      </trkpt>
      <trkpt lat="48.59377" lon="2.13872">
        <ele>108</ele>
        <time>2019-10-28T12:02:33.000Z</time>
      </trkpt>
      <trkpt lat="48.59377" lon="2.13872">
        <ele>108</ele>
        <time>2019-10-28T12:02:34.000Z</time>
      </trkpt>
      <trkpt lat="48.59377" lon="2.13872">
        <ele>107</ele>
        <time>2019-10-28T12:02:35.000Z</time>
      </trkpt>
      <trkpt lat="48.59377" lon="2.13872">
        <ele>108</ele>
        <time>2019-10-28T12:02:36.000Z</time>
      </trkpt>
      <trkpt lat="48.59377" lon="2.13872">
        <ele>108</ele>
        <time>2019-10-28T12:02:37.000Z</time>
      </trkpt>
      <trkpt lat="48.59377" lon="2.13871">
        <ele>108</ele>
        <time>2019-10-28T12:02:38.000Z</time>
      </trkpt>
      <trkpt lat="48.59376" lon="2.13871">
        <ele>108</ele>
        <time>2019-10-28T12:02:39.000Z</time>
      </trkpt>
      <trkpt lat="48.59375" lon="2.1387">
        <ele>108</ele>
        <time>2019-10-28T12:02:40.000Z</time>
      </trkpt>
      <trkpt lat="48.59374" lon="2.13869">
        <ele>108</ele>
        <time>2019-10-28T12:02:41.000Z</time>
      </trkpt>
      <trkpt lat="48.59373" lon="2.13868">
        <ele>108</ele>
        <time>2019-10-28T12:02:42.000Z</time>
      </trkpt>
      <trkpt lat="48.59371" lon="2.13867">
        <ele>108</ele>
        <time>2019-10-28T12:02:43.000Z</time>
      </trkpt>
      <trkpt lat="48.5937" lon="2.13865">
        <ele>109</ele>
        <time>2019-10-28T12:02:44.000Z</time>
      </trkpt>
      <trkpt lat="48.59369" lon="2.13864">
        <ele>109</ele>
        <time>2019-10-28T12:02:45.000Z</time>
      </trkpt>
      <trkpt lat="48.59368" lon="2.13862">
        <ele>109</ele>
        <time>2019-10-28T12:02:46.000Z</time>
      </trkpt>
      <trkpt lat="48.59367" lon="2.13861">
        <ele>109</ele>
        <time>2019-10-28T12:02:47.000Z</time>
      </trkpt>
      <trkpt lat="48.59366" lon="2.1386">
        <ele>109</ele>
        <time>2019-10-28T12:02:48.000Z</time>
      </trkpt>
      <trkpt lat="48.59365" lon="2.13858">
        <ele>109</ele>
        <time>2019-10-28T12:02:49.000Z</time>
      </trkpt>
      <trkpt lat="48.59364" lon="2.13856">
        <ele>109</ele>
        <time>2019-10-28T12:02:50.000Z</time>
      </trkpt>
      <trkpt lat="48.59363" lon="2.13855">
        <ele>109</ele>
        <time>2019-10-28T12:02:51.000Z</time>
      </trkpt>
      <trkpt lat="48.59362" lon="2.13853">
        <ele>109</ele>
        <time>2019-10-28T12:02:52.000Z</time>
      </trkpt>
      <trkpt lat="48.59361" lon="2.13851">
        <ele>109</ele>
        <time>2019-10-28T12:02:53.000Z</time>
      </trkpt>
      <trkpt lat="48.59361" lon="2.1385">
        <ele>109</ele>
        <time>2019-10-28T12:02:54.000Z</time>
      </trkpt>
      <trkpt lat="48.5936" lon="2.13848">
        <ele>109</ele>
        <time>2019-10-28T12:02:55.000Z</time>
      </trkpt>
      <trkpt lat="48.5936" lon="2.13846">
        <ele>108</ele>
        <time>2019-10-28T12:02:56.000Z</time>
      </trkpt>
      <trkpt lat="48.59359" lon="2.13844">
        <ele>108</ele>
        <time>2019-10-28T12:02:57.000Z</time>
      </trkpt>
      <trkpt lat="48.59358" lon="2.13842">
        <ele>108</ele>
        <time>2019-10-28T12:02:58.000Z</time>
      </trkpt>
      <trkpt lat="48.59357" lon="2.13841">
        <ele>107</ele>
        <time>2019-10-28T12:02:59.000Z</time>
      </trkpt>
      <trkpt lat="48.59356" lon="2.13839">
        <ele>108</ele>
        <time>2019-10-28T12:03:00.000Z</time>
      </trkpt>
      <trkpt lat="48.59356" lon="2.13837">
        <ele>108</ele>
        <time>2019-10-28T12:03:01.000Z</time>
      </trkpt>
      <trkpt lat="48.59355" lon="2.13835">
        <ele>108</ele>
        <time>2019-10-28T12:03:02.000Z</time>
      </trkpt>
      <trkpt lat="48.59355" lon="2.13834">
        <ele>108</ele>
        <time>2019-10-28T12:03:03.000Z</time>
      </trkpt>
      <trkpt lat="48.59355" lon="2.13833">
        <ele>109</ele>
        <time>2019-10-28T12:03:04.000Z</time>
      </trkpt>
      <trkpt lat="48.59356" lon="2.13833">
        <ele>108</ele>
        <time>2019-10-28T12:03:05.000Z</time>
      </trkpt>
      <trkpt lat="48.59357" lon="2.13833">
        <ele>107</ele>
        <time>2019-10-28T12:03:06.000Z</time>
      </trkpt>
      <trkpt lat="48.59357" lon="2.13835">
        <ele>107</ele>
        <time>2019-10-28T12:03:07.000Z</time>
      </trkpt>
      <trkpt lat="48.59357" lon="2.13836">
        <ele>106</ele>
        <time>2019-10-28T12:03:08.000Z</time>
      </trkpt>
      <trkpt lat="48.59358" lon="2.13838">
        <ele>106</ele>
        <time>2019-10-28T12:03:09.000Z</time>
      </trkpt>
      <trkpt lat="48.59358" lon="2.13839">
        <ele>106</ele>
        <time>2019-10-28T12:03:10.000Z</time>
      </trkpt>
      <trkpt lat="48.59359" lon="2.1384">
        <ele>106</ele>
        <time>2019-10-28T12:03:11.000Z</time>
      </trkpt>
      <trkpt lat="48.5936" lon="2.13842">
        <ele>106</ele>
        <time>2019-10-28T12:03:12.000Z</time>
      </trkpt>
      <trkpt lat="48.5936" lon="2.13843">
        <ele>105</ele>
        <time>2019-10-28T12:03:13.000Z</time>
      </trkpt>
      <trkpt lat="48.59361" lon="2.13844">
        <ele>105</ele>
        <time>2019-10-28T12:03:14.000Z</time>
      </trkpt>
      <trkpt lat="48.59361" lon="2.13846">
        <ele>105</ele>
        <time>2019-10-28T12:03:15.000Z</time>
      </trkpt>
      <trkpt lat="48.59362" lon="2.13847">
        <ele>105</ele>
        <time>2019-10-28T12:03:16.000Z</time>
      </trkpt>
      <trkpt lat="48.59363" lon="2.13849">
        <ele>106</ele>
        <time>2019-10-28T12:03:17.000Z</time>
      </trkpt>
      <trkpt lat="48.59364" lon="2.13851">
        <ele>105</ele>
        <time>2019-10-28T12:03:18.000Z</time>
      </trkpt>
      <trkpt lat="48.59365" lon="2.13852">
        <ele>105</ele>
        <time>2019-10-28T12:03:19.000Z</time>
      </trkpt>
      <trkpt lat="48.59366" lon="2.13853">
        <ele>104</ele>
        <time>2019-10-28T12:03:20.000Z</time>
      </trkpt>
      <trkpt lat="48.59367" lon="2.13855">
        <ele>104</ele>
        <time>2019-10-28T12:03:21.000Z</time>
      </trkpt>
      <trkpt lat="48.59368" lon="2.13856">
        <ele>104</ele>
        <time>2019-10-28T12:03:22.000Z</time>
      </trkpt>
      <trkpt lat="48.59369" lon="2.13857">
        <ele>105</ele>
        <time>2019-10-28T12:03:23.000Z</time>
      </trkpt>
      <trkpt lat="48.5937" lon="2.13858">
        <ele>105</ele>
        <time>2019-10-28T12:03:24.000Z</time>
      </trkpt>
      <trkpt lat="48.59371" lon="2.13858">
        <ele>104</ele>
        <time>2019-10-28T12:03:25.000Z</time>
      </trkpt>
      <trkpt lat="48.59372" lon="2.13859">
        <ele>104</ele>
        <time>2019-10-28T12:03:26.000Z</time>
      </trkpt>
      <trkpt lat="48.59373" lon="2.13859">
        <ele>104</ele>
        <time>2019-10-28T12:03:27.000Z</time>
      </trkpt>
      <trkpt lat="48.59374" lon="2.13859">
        <ele>104</ele>
        <time>2019-10-28T12:03:28.000Z</time>
      </trkpt>
      <trkpt lat="48.59375" lon="2.13859">
        <ele>104</ele>
        <time>2019-10-28T12:03:29.000Z</time>
      </trkpt>
      <trkpt lat="48.59376" lon="2.13858">
        <ele>104</ele>
        <time>2019-10-28T12:03:30.000Z</time>
      </trkpt>
      <trkpt lat="48.59377" lon="2.13858">
        <ele>104</ele>
        <time>2019-10-28T12:03:31.000Z</time>
      </trkpt>
      <trkpt lat="48.59378" lon="2.13858">
        <ele>103</ele>
        <time>2019-10-28T12:03:32.000Z</time>
      </trkpt>
      <trkpt lat="48.59379" lon="2.13858">
        <ele>103</ele>
        <time>2019-10-28T12:03:33.000Z</time>
      </trkpt>
      <trkpt lat="48.5938" lon="2.13858">
        <ele>104</ele>
        <time>2019-10-28T12:03:34.000Z</time>
      </trkpt>
      <trkpt lat="48.59381" lon="2.13858">
        <ele>103</ele>
        <time>2019-10-28T12:03:35.000Z</time>
      </trkpt>
      <trkpt lat="48.59382" lon="2.13858">
        <ele>103</ele>
        <time>2019-10-28T12:03:36.000Z</time>
      </trkpt>
      <trkpt lat="48.59383" lon="2.13857">
        <ele>102</ele>
        <time>2019-10-28T12:03:37.000Z</time>
      </trkpt>
      <trkpt lat="48.59385" lon="2.13857">
        <ele>102</ele>
        <time>2019-10-28T12:03:38.000Z</time>
      </trkpt>
      <trkpt lat="48.59386" lon="2.13857">
        <ele>102</ele>
        <time>2019-10-28T12:03:39.000Z</time>
      </trkpt>
      <trkpt lat="48.59388" lon="2.13857">
        <ele>101</ele>
        <time>2019-10-28T12:03:40.000Z</time>
      </trkpt>
      <trkpt lat="48.59389" lon="2.13857">
        <ele>101</ele>
        <time>2019-10-28T12:03:41.000Z</time>
      </trkpt>
      <trkpt lat="48.5939" lon="2.13856">
        <ele>101</ele>
        <time>2019-10-28T12:03:42.000Z</time>
      </trkpt>
      <trkpt lat="48.59391" lon="2.13856">
        <ele>101</ele>
        <time>2019-10-28T12:03:43.000Z</time>
      </trkpt>
      <trkpt lat="48.59392" lon="2.13856">
        <ele>101</ele>
        <time>2019-10-28T12:03:44.000Z</time>
      </trkpt>
      <trkpt lat="48.59394" lon="2.13856">
        <ele>101</ele>
        <time>2019-10-28T12:03:45.000Z</time>
      </trkpt>
      <trkpt lat="48.59395" lon="2.13855">
        <ele>100</ele>
        <time>2019-10-28T12:03:46.000Z</time>
      </trkpt>
      <trkpt lat="48.59397" lon="2.13855">
        <ele>100</ele>
        <time>2019-10-28T12:03:47.000Z</time>
      </trkpt>
      <trkpt lat="48.59398" lon="2.13854">
        <ele>100</ele>
        <time>2019-10-28T12:03:48.000Z</time>
      </trkpt>
      <trkpt lat="48.594" lon="2.13854">
        <ele>100</ele>
        <time>2019-10-28T12:03:49.000Z</time>
      </trkpt>
      <trkpt lat="48.59401" lon="2.13854">
        <ele>100</ele>
        <time>2019-10-28T12:03:50.000Z</time>
      </trkpt>
      <trkpt lat="48.59402" lon="2.13854">
        <ele>101</ele>
        <time>2019-10-28T12:03:51.000Z</time>
      </trkpt>
      <trkpt lat="48.59404" lon="2.13853">
        <ele>101</ele>
        <time>2019-10-28T12:03:52.000Z</time>
      </trkpt>
      <trkpt lat="48.59405" lon="2.13853">
        <ele>101</ele>
        <time>2019-10-28T12:03:53.000Z</time>
      </trkpt>
      <trkpt lat="48.59407" lon="2.13853">
        <ele>101</ele>
        <time>2019-10-28T12:03:54.000Z</time>
      </trkpt>
      <trkpt lat="48.59408" lon="2.13853">
        <ele>100</ele>
        <time>2019-10-28T12:03:55.000Z</time>
      </trkpt>
      <trkpt lat="48.5941" lon="2.13853">
        <ele>101</ele>
        <time>2019-10-28T12:03:56.000Z</time>
      </trkpt>
      <trkpt lat="48.59411" lon="2.13853">
        <ele>101</ele>
        <time>2019-10-28T12:03:57.000Z</time>
      </trkpt>
      <trkpt lat="48.59413" lon="2.13853">
        <ele>100</ele>
        <time>2019-10-28T12:03:58.000Z</time>
      </trkpt>
      <trkpt lat="48.59414" lon="2.13853">
        <ele>101</ele>
        <time>2019-10-28T12:03:59.000Z</time>
      </trkpt>
      <trkpt lat="48.59416" lon="2.13853">
        <ele>101</ele>
        <time>2019-10-28T12:04:00.000Z</time>
      </trkpt>
      <trkpt lat="48.59417" lon="2.13852">
        <ele>101</ele>
        <time>2019-10-28T12:04:01.000Z</time>
      </trkpt>
      <trkpt lat="48.59418" lon="2.13852">
        <ele>102</ele>
        <time>2019-10-28T12:04:02.000Z</time>
      </trkpt>
      <trkpt lat="48.5942" lon="2.13851">
        <ele>102</ele>
        <time>2019-10-28T12:04:03.000Z</time>
      </trkpt>
      <trkpt lat="48.59421" lon="2.13851">
        <ele>102</ele>
        <time>2019-10-28T12:04:04.000Z</time>
      </trkpt>
      <trkpt lat="48.59422" lon="2.13851">
        <ele>102</ele>
        <time>2019-10-28T12:04:05.000Z</time>
      </trkpt>
      <trkpt lat="48.59423" lon="2.1385">
        <ele>101</ele>
        <time>2019-10-28T12:04:06.000Z</time>
      </trkpt>
      <trkpt lat="48.59424" lon="2.1385">
        <ele>101</ele>
        <time>2019-10-28T12:04:07.000Z</time>
      </trkpt>
      <trkpt lat="48.59425" lon="2.13849">
        <ele>100</ele>
        <time>2019-10-28T12:04:08.000Z</time>
      </trkpt>
      <trkpt lat="48.59427" lon="2.13849">
        <ele>100</ele>
        <time>2019-10-28T12:04:09.000Z</time>
      </trkpt>
      <trkpt lat="48.59428" lon="2.13848">
        <ele>100</ele>
        <time>2019-10-28T12:04:10.000Z</time>
      </trkpt>
      <trkpt lat="48.59429" lon="2.13848">
        <ele>100</ele>
        <time>2019-10-28T12:04:11.000Z</time>
      </trkpt>
      <trkpt lat="48.59431" lon="2.13847">
        <ele>99</ele>
        <time>2019-10-28T12:04:12.000Z</time>
      </trkpt>
      <trkpt lat="48.59432" lon="2.13847">
        <ele>100</ele>
        <time>2019-10-28T12:04:13.000Z</time>
      </trkpt>
      <trkpt lat="48.59433" lon="2.13846">
        <ele>100</ele>
        <time>2019-10-28T12:04:14.000Z</time>
      </trkpt>
      <trkpt lat="48.59434" lon="2.13846">
        <ele>100</ele>
        <time>2019-10-28T12:04:15.000Z</time>
      </trkpt>
      <trkpt lat="48.59435" lon="2.13845">
        <ele>100</ele>
        <time>2019-10-28T12:04:16.000Z</time>
      </trkpt>
      <trkpt lat="48.59436" lon="2.13845">
        <ele>100</ele>
        <time>2019-10-28T12:04:17.000Z</time>
      </trkpt>
      <trkpt lat="48.59437" lon="2.13844">
        <ele>100</ele>
        <time>2019-10-28T12:04:18.000Z</time>
      </trkpt>
      <trkpt lat="48.59439" lon="2.13844">
        <ele>101</ele>
        <time>2019-10-28T12:04:19.000Z</time>
      </trkpt>
      <trkpt lat="48.5944" lon="2.13844">
        <ele>102</ele>
        <time>2019-10-28T12:04:20.000Z</time>
      </trkpt>
      <trkpt lat="48.59442" lon="2.13844">
        <ele>103</ele>
        <time>2019-10-28T12:04:21.000Z</time>
      </trkpt>
      <trkpt lat="48.59444" lon="2.13844">
        <ele>105</ele>
        <time>2019-10-28T12:04:22.000Z</time>
      </trkpt>
      <trkpt lat="48.59446" lon="2.13843">
        <ele>106</ele>
        <time>2019-10-28T12:04:23.000Z</time>
      </trkpt>
      <trkpt lat="48.59447" lon="2.13843">
        <ele>107</ele>
        <time>2019-10-28T12:04:24.000Z</time>
      </trkpt>
      <trkpt lat="48.59448" lon="2.13843">
        <ele>107</ele>
        <time>2019-10-28T12:04:25.000Z</time>
      </trkpt>
      <trkpt lat="48.5945" lon="2.13843">
        <ele>107</ele>
        <time>2019-10-28T12:04:26.000Z</time>
      </trkpt>
      <trkpt lat="48.59451" lon="2.13842">
        <ele>107</ele>
        <time>2019-10-28T12:04:27.000Z</time>
      </trkpt>
      <trkpt lat="48.59452" lon="2.13842">
        <ele>107</ele>
        <time>2019-10-28T12:04:28.000Z</time>
      </trkpt>
      <trkpt lat="48.59453" lon="2.13842">
        <ele>107</ele>
        <time>2019-10-28T12:04:29.000Z</time>
      </trkpt>
      <trkpt lat="48.59455" lon="2.13842">
        <ele>107</ele>
        <time>2019-10-28T12:04:30.000Z</time>
      </trkpt>
      <trkpt lat="48.59456" lon="2.13842">
        <ele>107</ele>
        <time>2019-10-28T12:04:31.000Z</time>
      </trkpt>
      <trkpt lat="48.59457" lon="2.13842">
        <ele>107</ele>
        <time>2019-10-28T12:04:32.000Z</time>
      </trkpt>
      <trkpt lat="48.59459" lon="2.13842">
        <ele>107</ele>
        <time>2019-10-28T12:04:33.000Z</time>
      </trkpt>
      <trkpt lat="48.5946" lon="2.13841">
        <ele>108</ele>
        <time>2019-10-28T12:04:34.000Z</time>
      </trkpt>
      <trkpt lat="48.59462" lon="2.13841">
        <ele>108</ele>
        <time>2019-10-28T12:04:35.000Z</time>
      </trkpt>
      <trkpt lat="48.59463" lon="2.13841">
        <ele>108</ele>
        <time>2019-10-28T12:04:36.000Z</time>
      </trkpt>
      <trkpt lat="48.59464" lon="2.13841">
        <ele>107</ele>
        <time>2019-10-28T12:04:37.000Z</time>
      </trkpt>
      <trkpt lat="48.59466" lon="2.1384">
        <ele>107</ele>
        <time>2019-10-28T12:04:38.000Z</time>
      </trkpt>
      <trkpt lat="48.59467" lon="2.1384">
        <ele>106</ele>
        <time>2019-10-28T12:04:39.000Z</time>
      </trkpt>
      <trkpt lat="48.59469" lon="2.1384">
        <ele>106</ele>
        <time>2019-10-28T12:04:40.000Z</time>
      </trkpt>
      <trkpt lat="48.5947" lon="2.1384">
        <ele>107</ele>
        <time>2019-10-28T12:04:41.000Z</time>
      </trkpt>
      <trkpt lat="48.59471" lon="2.1384">
        <ele>107</ele>
        <time>2019-10-28T12:04:42.000Z</time>
      </trkpt>
      <trkpt lat="48.59473" lon="2.1384">
        <ele>107</ele>
        <time>2019-10-28T12:04:43.000Z</time>
      </trkpt>
      <trkpt lat="48.59474" lon="2.1384">
        <ele>106</ele>
        <time>2019-10-28T12:04:44.000Z</time>
      </trkpt>
      <trkpt lat="48.59475" lon="2.1384">
        <ele>107</ele>
        <time>2019-10-28T12:04:45.000Z</time>
      </trkpt>
      <trkpt lat="48.59477" lon="2.1384">
        <ele>107</ele>
        <time>2019-10-28T12:04:46.000Z</time>
      </trkpt>
      <trkpt lat="48.59478" lon="2.1384">
        <ele>107</ele>
        <time>2019-10-28T12:04:47.000Z</time>
      </trkpt>
      <trkpt lat="48.59479" lon="2.13839">
        <ele>107</ele>
        <time>2019-10-28T12:04:48.000Z</time>
      </trkpt>
      <trkpt lat="48.5948" lon="2.13839">
        <ele>107</ele>
        <time>2019-10-28T12:04:49.000Z</time>
      </trkpt>
      <trkpt lat="48.59482" lon="2.13838">
        <ele>106</ele>
        <time>2019-10-28T12:04:50.000Z</time>
      </trkpt>
      <trkpt lat="48.59483" lon="2.13837">
        <ele>106</ele>
        <time>2019-10-28T12:04:51.000Z</time>
      </trkpt>
      <trkpt lat="48.59485" lon="2.13836">
        <ele>106</ele>
        <time>2019-10-28T12:04:52.000Z</time>
      </trkpt>
      <trkpt lat="48.59486" lon="2.13836">
        <ele>106</ele>
        <time>2019-10-28T12:04:53.000Z</time>
      </trkpt>
      <trkpt lat="48.59487" lon="2.13836">
        <ele>105</ele>
        <time>2019-10-28T12:04:54.000Z</time>
      </trkpt>
      <trkpt lat="48.59488" lon="2.13835">
        <ele>104</ele>
        <time>2019-10-28T12:04:55.000Z</time>
      </trkpt>
      <trkpt lat="48.59489" lon="2.13835">
        <ele>104</ele>
        <time>2019-10-28T12:04:56.000Z</time>
      </trkpt>
      <trkpt lat="48.5949" lon="2.13834">
        <ele>104</ele>
        <time>2019-10-28T12:04:57.000Z</time>
      </trkpt>
      <trkpt lat="48.59492" lon="2.13833">
        <ele>105</ele>
        <time>2019-10-28T12:04:58.000Z</time>
      </trkpt>
      <trkpt lat="48.59493" lon="2.13833">
        <ele>105</ele>
        <time>2019-10-28T12:04:59.000Z</time>
      </trkpt>
      <trkpt lat="48.59495" lon="2.13832">
        <ele>105</ele>
        <time>2019-10-28T12:05:00.000Z</time>
      </trkpt>
      <trkpt lat="48.59497" lon="2.13831">
        <ele>105</ele>
        <time>2019-10-28T12:05:01.000Z</time>
      </trkpt>
      <trkpt lat="48.59498" lon="2.13831">
        <ele>106</ele>
        <time>2019-10-28T12:05:02.000Z</time>
      </trkpt>
      <trkpt lat="48.59499" lon="2.1383">
        <ele>106</ele>
        <time>2019-10-28T12:05:03.000Z</time>
      </trkpt>
      <trkpt lat="48.59501" lon="2.1383">
        <ele>106</ele>
        <time>2019-10-28T12:05:04.000Z</time>
      </trkpt>
      <trkpt lat="48.59502" lon="2.1383">
        <ele>106</ele>
        <time>2019-10-28T12:05:05.000Z</time>
      </trkpt>
      <trkpt lat="48.59503" lon="2.13829">
        <ele>106</ele>
        <time>2019-10-28T12:05:06.000Z</time>
      </trkpt>
      <trkpt lat="48.59505" lon="2.13829">
        <ele>106</ele>
        <time>2019-10-28T12:05:07.000Z</time>
      </trkpt>
      <trkpt lat="48.59506" lon="2.13828">
        <ele>105</ele>
        <time>2019-10-28T12:05:08.000Z</time>
      </trkpt>
      <trkpt lat="48.59508" lon="2.13828">
        <ele>104</ele>
        <time>2019-10-28T12:05:09.000Z</time>
      </trkpt>
      <trkpt lat="48.59509" lon="2.13828">
        <ele>104</ele>
        <time>2019-10-28T12:05:10.000Z</time>
      </trkpt>
      <trkpt lat="48.59511" lon="2.13828">
        <ele>104</ele>
        <time>2019-10-28T12:05:11.000Z</time>
      </trkpt>
      <trkpt lat="48.59512" lon="2.13827">
        <ele>104</ele>
        <time>2019-10-28T12:05:12.000Z</time>
      </trkpt>
      <trkpt lat="48.59513" lon="2.13827">
        <ele>104</ele>
        <time>2019-10-28T12:05:13.000Z</time>
      </trkpt>
      <trkpt lat="48.59514" lon="2.13827">
        <ele>104</ele>
        <time>2019-10-28T12:05:14.000Z</time>
      </trkpt>
      <trkpt lat="48.59516" lon="2.13827">
        <ele>104</ele>
        <time>2019-10-28T12:05:15.000Z</time>
      </trkpt>
      <trkpt lat="48.59517" lon="2.13827">
        <ele>104</ele>
        <time>2019-10-28T12:05:16.000Z</time>
      </trkpt>
      <trkpt lat="48.59519" lon="2.13827">
        <ele>104</ele>
        <time>2019-10-28T12:05:17.000Z</time>
      </trkpt>
      <trkpt lat="48.5952" lon="2.13827">
        <ele>103</ele>
        <time>2019-10-28T12:05:18.000Z</time>
      </trkpt>
      <trkpt lat="48.59521" lon="2.13827">
        <ele>103</ele>
        <time>2019-10-28T12:05:19.000Z</time>
      </trkpt>
      <trkpt lat="48.59522" lon="2.13827">
        <ele>102</ele>
        <time>2019-10-28T12:05:20.000Z</time>
      </trkpt>
      <trkpt lat="48.59523" lon="2.13827">
        <ele>103</ele>
        <time>2019-10-28T12:05:21.000Z</time>
      </trkpt>
      <trkpt lat="48.59524" lon="2.13827">
        <ele>103</ele>
        <time>2019-10-28T12:05:22.000Z</time>
      </trkpt>
      <trkpt lat="48.59525" lon="2.13827">
        <ele>103</ele>
        <time>2019-10-28T12:05:23.000Z</time>
      </trkpt>
      <trkpt lat="48.59527" lon="2.13827">
        <ele>103</ele>
        <time>2019-10-28T12:05:24.000Z</time>
      </trkpt>
      <trkpt lat="48.59528" lon="2.13827">
        <ele>103</ele>
        <time>2019-10-28T12:05:25.000Z</time>
      </trkpt>
      <trkpt lat="48.5953" lon="2.13827">
        <ele>102</ele>
        <time>2019-10-28T12:05:26.000Z</time>
      </trkpt>
      <trkpt lat="48.59531" lon="2.13827">
        <ele>103</ele>
        <time>2019-10-28T12:05:27.000Z</time>
      </trkpt>
      <trkpt lat="48.59533" lon="2.13826">
        <ele>103</ele>
        <time>2019-10-28T12:05:28.000Z</time>
      </trkpt>
      <trkpt lat="48.59534" lon="2.13826">
        <ele>102</ele>
        <time>2019-10-28T12:05:29.000Z</time>
      </trkpt>
      <trkpt lat="48.59536" lon="2.13826">
        <ele>102</ele>
        <time>2019-10-28T12:05:30.000Z</time>
      </trkpt>
      <trkpt lat="48.59538" lon="2.13825">
        <ele>102</ele>
        <time>2019-10-28T12:05:31.000Z</time>
      </trkpt>
      <trkpt lat="48.5954" lon="2.13825">
        <ele>102</ele>
        <time>2019-10-28T12:05:32.000Z</time>
      </trkpt>
      <trkpt lat="48.59542" lon="2.13824">
        <ele>102</ele>
        <time>2019-10-28T12:05:33.000Z</time>
      </trkpt>
      <trkpt lat="48.59543" lon="2.13824">
        <ele>102</ele>
        <time>2019-10-28T12:05:34.000Z</time>
      </trkpt>
      <trkpt lat="48.59544" lon="2.13823">
        <ele>102</ele>
        <time>2019-10-28T12:05:35.000Z</time>
      </trkpt>
      <trkpt lat="48.59545" lon="2.13822">
        <ele>101</ele>
        <time>2019-10-28T12:05:36.000Z</time>
      </trkpt>
      <trkpt lat="48.59547" lon="2.13821">
        <ele>102</ele>
        <time>2019-10-28T12:05:37.000Z</time>
      </trkpt>
      <trkpt lat="48.59548" lon="2.1382">
        <ele>102</ele>
        <time>2019-10-28T12:05:38.000Z</time>
      </trkpt>
      <trkpt lat="48.5955" lon="2.1382">
        <ele>102</ele>
        <time>2019-10-28T12:05:39.000Z</time>
      </trkpt>
      <trkpt lat="48.59551" lon="2.13819">
        <ele>101</ele>
        <time>2019-10-28T12:05:40.000Z</time>
      </trkpt>
      <trkpt lat="48.59553" lon="2.13819">
        <ele>102</ele>
        <time>2019-10-28T12:05:41.000Z</time>
      </trkpt>
      <trkpt lat="48.59555" lon="2.13819">
        <ele>102</ele>
        <time>2019-10-28T12:05:42.000Z</time>
      </trkpt>
      <trkpt lat="48.59556" lon="2.13818">
        <ele>103</ele>
        <time>2019-10-28T12:05:43.000Z</time>
      </trkpt>
      <trkpt lat="48.59557" lon="2.13818">
        <ele>103</ele>
        <time>2019-10-28T12:05:44.000Z</time>
      </trkpt>
      <trkpt lat="48.59558" lon="2.13817">
        <ele>102</ele>
        <time>2019-10-28T12:05:45.000Z</time>
      </trkpt>
      <trkpt lat="48.59559" lon="2.13817">
        <ele>102</ele>
        <time>2019-10-28T12:05:46.000Z</time>
      </trkpt>
      <trkpt lat="48.59561" lon="2.13816">
        <ele>102</ele>
        <time>2019-10-28T12:05:47.000Z</time>
      </trkpt>
      <trkpt lat="48.59563" lon="2.13816">
        <ele>102</ele>
        <time>2019-10-28T12:05:48.000Z</time>
      </trkpt>
      <trkpt lat="48.59564" lon="2.13816">
        <ele>102</ele>
        <time>2019-10-28T12:05:49.000Z</time>
      </trkpt>
      <trkpt lat="48.59565" lon="2.13816">
        <ele>101</ele>
        <time>2019-10-28T12:05:50.000Z</time>
      </trkpt>
      <trkpt lat="48.59566" lon="2.13816">
        <ele>101</ele>
        <time>2019-10-28T12:05:51.000Z</time>
      </trkpt>
      <trkpt lat="48.59568" lon="2.13815">
        <ele>102</ele>
        <time>2019-10-28T12:05:52.000Z</time>
      </trkpt>
      <trkpt lat="48.59569" lon="2.13815">
        <ele>102</ele>
        <time>2019-10-28T12:05:53.000Z</time>
      </trkpt>
      <trkpt lat="48.5957" lon="2.13815">
        <ele>103</ele>
        <time>2019-10-28T12:05:54.000Z</time>
      </trkpt>
      <trkpt lat="48.59571" lon="2.13815">
        <ele>103</ele>
        <time>2019-10-28T12:05:55.000Z</time>
      </trkpt>
      <trkpt lat="48.59572" lon="2.13815">
        <ele>102</ele>
        <time>2019-10-28T12:05:56.000Z</time>
      </trkpt>
      <trkpt lat="48.59574" lon="2.13815">
        <ele>102</ele>
        <time>2019-10-28T12:05:57.000Z</time>
      </trkpt>
      <trkpt lat="48.59575" lon="2.13815">
        <ele>101</ele>
        <time>2019-10-28T12:05:58.000Z</time>
      </trkpt>
      <trkpt lat="48.59577" lon="2.13815">
        <ele>101</ele>
        <time>2019-10-28T12:05:59.000Z</time>
      </trkpt>
      <trkpt lat="48.59578" lon="2.13815">
        <ele>101</ele>
        <time>2019-10-28T12:06:00.000Z</time>
      </trkpt>
      <trkpt lat="48.59579" lon="2.13816">
        <ele>101</ele>
        <time>2019-10-28T12:06:01.000Z</time>
      </trkpt>
      <trkpt lat="48.59581" lon="2.13817">
        <ele>101</ele>
        <time>2019-10-28T12:06:02.000Z</time>
      </trkpt>
      <trkpt lat="48.59582" lon="2.13818">
        <ele>101</ele>
        <time>2019-10-28T12:06:03.000Z</time>
      </trkpt>
      <trkpt lat="48.59584" lon="2.13819">
        <ele>101</ele>
        <time>2019-10-28T12:06:04.000Z</time>
      </trkpt>
      <trkpt lat="48.59585" lon="2.1382">
        <ele>101</ele>
        <time>2019-10-28T12:06:05.000Z</time>
      </trkpt>
      <trkpt lat="48.59586" lon="2.13822">
        <ele>101</ele>
        <time>2019-10-28T12:06:06.000Z</time>
      </trkpt>
      <trkpt lat="48.59587" lon="2.13823">
        <ele>102</ele>
        <time>2019-10-28T12:06:07.000Z</time>
      </trkpt>
      <trkpt lat="48.59588" lon="2.13825">
        <ele>101</ele>
        <time>2019-10-28T12:06:08.000Z</time>
      </trkpt>
      <trkpt lat="48.59589" lon="2.13826">
        <ele>101</ele>
        <time>2019-10-28T12:06:09.000Z</time>
      </trkpt>
      <trkpt lat="48.5959" lon="2.13827">
        <ele>101</ele>
        <time>2019-10-28T12:06:10.000Z</time>
      </trkpt>
      <trkpt lat="48.59591" lon="2.13828">
        <ele>101</ele>
        <time>2019-10-28T12:06:11.000Z</time>
      </trkpt>
      <trkpt lat="48.59592" lon="2.1383">
        <ele>101</ele>
        <time>2019-10-28T12:06:12.000Z</time>
      </trkpt>
      <trkpt lat="48.59594" lon="2.13831">
        <ele>101</ele>
        <time>2019-10-28T12:06:13.000Z</time>
      </trkpt>
      <trkpt lat="48.59595" lon="2.13833">
        <ele>102</ele>
        <time>2019-10-28T12:06:14.000Z</time>
      </trkpt>
      <trkpt lat="48.59596" lon="2.13834">
        <ele>102</ele>
        <time>2019-10-28T12:06:15.000Z</time>
      </trkpt>
      <trkpt lat="48.59597" lon="2.13835">
        <ele>102</ele>
        <time>2019-10-28T12:06:16.000Z</time>
      </trkpt>
      <trkpt lat="48.59598" lon="2.13837">
        <ele>103</ele>
        <time>2019-10-28T12:06:17.000Z</time>
      </trkpt>
      <trkpt lat="48.59599" lon="2.13839">
        <ele>103</ele>
        <time>2019-10-28T12:06:18.000Z</time>
      </trkpt>
      <trkpt lat="48.596" lon="2.1384">
        <ele>102</ele>
        <time>2019-10-28T12:06:19.000Z</time>
      </trkpt>
      <trkpt lat="48.59601" lon="2.13842">
        <ele>102</ele>
        <time>2019-10-28T12:06:20.000Z</time>
      </trkpt>
      <trkpt lat="48.59602" lon="2.13844">
        <ele>102</ele>
        <time>2019-10-28T12:06:21.000Z</time>
      </trkpt>
      <trkpt lat="48.59602" lon="2.13846">
        <ele>102</ele>
        <time>2019-10-28T12:06:22.000Z</time>
      </trkpt>
      <trkpt lat="48.59603" lon="2.13847">
        <ele>103</ele>
        <time>2019-10-28T12:06:23.000Z</time>
      </trkpt>
      <trkpt lat="48.59603" lon="2.13849">
        <ele>103</ele>
        <time>2019-10-28T12:06:24.000Z</time>
      </trkpt>
      <trkpt lat="48.59604" lon="2.1385">
        <ele>102</ele>
        <time>2019-10-28T12:06:25.000Z</time>
      </trkpt>
      <trkpt lat="48.59605" lon="2.13851">
        <ele>102</ele>
        <time>2019-10-28T12:06:26.000Z</time>
      </trkpt>
      <trkpt lat="48.59606" lon="2.13853">
        <ele>101</ele>
        <time>2019-10-28T12:06:27.000Z</time>
      </trkpt>
      <trkpt lat="48.59607" lon="2.13854">
        <ele>101</ele>
        <time>2019-10-28T12:06:28.000Z</time>
      </trkpt>
      <trkpt lat="48.59608" lon="2.13856">
        <ele>101</ele>
        <time>2019-10-28T12:06:29.000Z</time>
      </trkpt>
      <trkpt lat="48.59609" lon="2.13858">
        <ele>101</ele>
        <time>2019-10-28T12:06:30.000Z</time>
      </trkpt>
      <trkpt lat="48.5961" lon="2.13859">
        <ele>101</ele>
        <time>2019-10-28T12:06:31.000Z</time>
      </trkpt>
      <trkpt lat="48.59611" lon="2.13861">
        <ele>101</ele>
        <time>2019-10-28T12:06:32.000Z</time>
      </trkpt>
      <trkpt lat="48.59612" lon="2.13863">
        <ele>101</ele>
        <time>2019-10-28T12:06:33.000Z</time>
      </trkpt>
      <trkpt lat="48.59612" lon="2.13865">
        <ele>102</ele>
        <time>2019-10-28T12:06:34.000Z</time>
      </trkpt>
      <trkpt lat="48.59613" lon="2.13867">
        <ele>102</ele>
        <time>2019-10-28T12:06:35.000Z</time>
      </trkpt>
      <trkpt lat="48.59613" lon="2.13869">
        <ele>102</ele>
        <time>2019-10-28T12:06:36.000Z</time>
      </trkpt>
      <trkpt lat="48.59614" lon="2.13871">
        <ele>102</ele>
        <time>2019-10-28T12:06:37.000Z</time>
      </trkpt>
      <trkpt lat="48.59614" lon="2.13872">
        <ele>103</ele>
        <time>2019-10-28T12:06:38.000Z</time>
      </trkpt>
      <trkpt lat="48.59615" lon="2.13874">
        <ele>103</ele>
        <time>2019-10-28T12:06:39.000Z</time>
      </trkpt>
      <trkpt lat="48.59616" lon="2.13876">
        <ele>104</ele>
        <time>2019-10-28T12:06:40.000Z</time>
      </trkpt>
      <trkpt lat="48.59616" lon="2.13877">
        <ele>104</ele>
        <time>2019-10-28T12:06:41.000Z</time>
      </trkpt>
      <trkpt lat="48.59616" lon="2.13879">
        <ele>105</ele>
        <time>2019-10-28T12:06:42.000Z</time>
      </trkpt>
      <trkpt lat="48.59617" lon="2.13881">
        <ele>105</ele>
        <time>2019-10-28T12:06:43.000Z</time>
      </trkpt>
      <trkpt lat="48.59617" lon="2.13882">
        <ele>105</ele>
        <time>2019-10-28T12:06:44.000Z</time>
      </trkpt>
      <trkpt lat="48.59618" lon="2.13884">
        <ele>105</ele>
        <time>2019-10-28T12:06:45.000Z</time>
      </trkpt>
      <trkpt lat="48.59619" lon="2.13885">
        <ele>105</ele>
        <time>2019-10-28T12:06:46.000Z</time>
      </trkpt>
      <trkpt lat="48.59619" lon="2.13887">
        <ele>105</ele>
        <time>2019-10-28T12:06:47.000Z</time>
      </trkpt>
      <trkpt lat="48.5962" lon="2.13889">
        <ele>105</ele>
        <time>2019-10-28T12:06:48.000Z</time>
      </trkpt>
      <trkpt lat="48.59621" lon="2.13891">
        <ele>105</ele>
        <time>2019-10-28T12:06:49.000Z</time>
      </trkpt>
      <trkpt lat="48.59622" lon="2.13892">
        <ele>105</ele>
        <time>2019-10-28T12:06:50.000Z</time>
      </trkpt>
      <trkpt lat="48.59622" lon="2.13894">
        <ele>104</ele>
        <time>2019-10-28T12:06:51.000Z</time>
      </trkpt>
      <trkpt lat="48.59623" lon="2.13896">
        <ele>104</ele>
        <time>2019-10-28T12:06:52.000Z</time>
      </trkpt>
      <trkpt lat="48.59624" lon="2.13897">
        <ele>104</ele>
        <time>2019-10-28T12:06:53.000Z</time>
      </trkpt>
      <trkpt lat="48.59625" lon="2.13899">
        <ele>104</ele>
        <time>2019-10-28T12:06:54.000Z</time>
      </trkpt>
      <trkpt lat="48.59626" lon="2.13901">
        <ele>104</ele>
        <time>2019-10-28T12:06:55.000Z</time>
      </trkpt>
      <trkpt lat="48.59626" lon="2.13903">
        <ele>104</ele>
        <time>2019-10-28T12:06:56.000Z</time>
      </trkpt>
      <trkpt lat="48.59627" lon="2.13905">
        <ele>104</ele>
        <time>2019-10-28T12:06:57.000Z</time>
      </trkpt>
      <trkpt lat="48.59627" lon="2.13907">
        <ele>104</ele>
        <time>2019-10-28T12:06:58.000Z</time>
      </trkpt>
      <trkpt lat="48.59628" lon="2.13909">
        <ele>104</ele>
        <time>2019-10-28T12:06:59.000Z</time>
      </trkpt>
      <trkpt lat="48.59628" lon="2.1391">
        <ele>104</ele>
        <time>2019-10-28T12:07:00.000Z</time>
      </trkpt>
      <trkpt lat="48.59629" lon="2.13912">
        <ele>104</ele>
        <time>2019-10-28T12:07:01.000Z</time>
      </trkpt>
      <trkpt lat="48.59629" lon="2.13914">
        <ele>104</ele>
        <time>2019-10-28T12:07:02.000Z</time>
      </trkpt>
      <trkpt lat="48.59629" lon="2.13916">
        <ele>104</ele>
        <time>2019-10-28T12:07:03.000Z</time>
      </trkpt>
      <trkpt lat="48.59629" lon="2.13918">
        <ele>105</ele>
        <time>2019-10-28T12:07:04.000Z</time>
      </trkpt>
      <trkpt lat="48.5963" lon="2.1392">
        <ele>105</ele>
        <time>2019-10-28T12:07:05.000Z</time>
      </trkpt>
      <trkpt lat="48.5963" lon="2.13922">
        <ele>105</ele>
        <time>2019-10-28T12:07:06.000Z</time>
      </trkpt>
      <trkpt lat="48.59631" lon="2.13924">
        <ele>105</ele>
        <time>2019-10-28T12:07:07.000Z</time>
      </trkpt>
      <trkpt lat="48.59631" lon="2.13926">
        <ele>105</ele>
        <time>2019-10-28T12:07:08.000Z</time>
      </trkpt>
      <trkpt lat="48.59632" lon="2.13928">
        <ele>105</ele>
        <time>2019-10-28T12:07:09.000Z</time>
      </trkpt>
      <trkpt lat="48.59632" lon="2.1393">
        <ele>105</ele>
        <time>2019-10-28T12:07:10.000Z</time>
      </trkpt>
      <trkpt lat="48.59633" lon="2.13932">
        <ele>105</ele>
        <time>2019-10-28T12:07:11.000Z</time>
      </trkpt>
      <trkpt lat="48.59634" lon="2.13934">
        <ele>106</ele>
        <time>2019-10-28T12:07:12.000Z</time>
      </trkpt>
      <trkpt lat="48.59634" lon="2.13936">
        <ele>106</ele>
        <time>2019-10-28T12:07:13.000Z</time>
      </trkpt>
      <trkpt lat="48.59635" lon="2.13938">
        <ele>106</ele>
        <time>2019-10-28T12:07:14.000Z</time>
      </trkpt>
      <trkpt lat="48.59636" lon="2.1394">
        <ele>105</ele>
        <time>2019-10-28T12:07:15.000Z</time>
      </trkpt>
      <trkpt lat="48.59636" lon="2.13942">
        <ele>105</ele>
        <time>2019-10-28T12:07:16.000Z</time>
      </trkpt>
      <trkpt lat="48.59637" lon="2.13943">
        <ele>105</ele>
        <time>2019-10-28T12:07:17.000Z</time>
      </trkpt>
      <trkpt lat="48.59638" lon="2.13945">
        <ele>105</ele>
        <time>2019-10-28T12:07:18.000Z</time>
      </trkpt>
      <trkpt lat="48.59638" lon="2.13947">
        <ele>105</ele>
        <time>2019-10-28T12:07:19.000Z</time>
      </trkpt>
      <trkpt lat="48.59639" lon="2.13949">
        <ele>105</ele>
        <time>2019-10-28T12:07:20.000Z</time>
      </trkpt>
      <trkpt lat="48.59639" lon="2.13951">
        <ele>106</ele>
        <time>2019-10-28T12:07:21.000Z</time>
      </trkpt>
      <trkpt lat="48.5964" lon="2.13952">
        <ele>106</ele>
        <time>2019-10-28T12:07:22.000Z</time>
      </trkpt>
      <trkpt lat="48.59641" lon="2.13954">
        <ele>106</ele>
        <time>2019-10-28T12:07:23.000Z</time>
      </trkpt>
      <trkpt lat="48.59641" lon="2.13956">
        <ele>106</ele>
        <time>2019-10-28T12:07:24.000Z</time>
      </trkpt>
      <trkpt lat="48.59642" lon="2.13957">
        <ele>106</ele>
        <time>2019-10-28T12:07:25.000Z</time>
      </trkpt>
      <trkpt lat="48.59642" lon="2.13959">
        <ele>107</ele>
        <time>2019-10-28T12:07:26.000Z</time>
      </trkpt>
      <trkpt lat="48.59643" lon="2.13961">
        <ele>107</ele>
        <time>2019-10-28T12:07:27.000Z</time>
      </trkpt>
      <trkpt lat="48.59643" lon="2.13963">
        <ele>107</ele>
        <time>2019-10-28T12:07:28.000Z</time>
      </trkpt>
      <trkpt lat="48.59644" lon="2.13965">
        <ele>107</ele>
        <time>2019-10-28T12:07:29.000Z</time>
      </trkpt>
      <trkpt lat="48.59644" lon="2.13967">
        <ele>107</ele>
        <time>2019-10-28T12:07:30.000Z</time>
      </trkpt>
      <trkpt lat="48.59645" lon="2.13968">
        <ele>106</ele>
        <time>2019-10-28T12:07:31.000Z</time>
      </trkpt>
      <trkpt lat="48.59645" lon="2.1397">
        <ele>106</ele>
        <time>2019-10-28T12:07:32.000Z</time>
      </trkpt>
      <trkpt lat="48.59645" lon="2.13972">
        <ele>106</ele>
        <time>2019-10-28T12:07:33.000Z</time>
      </trkpt>
      <trkpt lat="48.59646" lon="2.13975">
        <ele>106</ele>
        <time>2019-10-28T12:07:34.000Z</time>
      </trkpt>
      <trkpt lat="48.59646" lon="2.13977">
        <ele>106</ele>
        <time>2019-10-28T12:07:35.000Z</time>
      </trkpt>
      <trkpt lat="48.59646" lon="2.13979">
        <ele>106</ele>
        <time>2019-10-28T12:07:36.000Z</time>
      </trkpt>
      <trkpt lat="48.59647" lon="2.13981">
        <ele>106</ele>
        <time>2019-10-28T12:07:37.000Z</time>
      </trkpt>
      <trkpt lat="48.59647" lon="2.13982">
        <ele>106</ele>
        <time>2019-10-28T12:07:38.000Z</time>
      </trkpt>
      <trkpt lat="48.59648" lon="2.13984">
        <ele>106</ele>
        <time>2019-10-28T12:07:39.000Z</time>
      </trkpt>
      <trkpt lat="48.59648" lon="2.13986">
        <ele>106</ele>
        <time>2019-10-28T12:07:40.000Z</time>
      </trkpt>
      <trkpt lat="48.59649" lon="2.13988">
        <ele>106</ele>
        <time>2019-10-28T12:07:41.000Z</time>
      </trkpt>
      <trkpt lat="48.59649" lon="2.1399">
        <ele>106</ele>
        <time>2019-10-28T12:07:42.000Z</time>
      </trkpt>
      <trkpt lat="48.59649" lon="2.13992">
        <ele>106</ele>
        <time>2019-10-28T12:07:43.000Z</time>
      </trkpt>
      <trkpt lat="48.5965" lon="2.13994">
        <ele>106</ele>
        <time>2019-10-28T12:07:44.000Z</time>
      </trkpt>
      <trkpt lat="48.5965" lon="2.13996">
        <ele>106</ele>
        <time>2019-10-28T12:07:45.000Z</time>
      </trkpt>
      <trkpt lat="48.59651" lon="2.13998">
        <ele>106</ele>
        <time>2019-10-28T12:07:46.000Z</time>
      </trkpt>
      <trkpt lat="48.59651" lon="2.13999">
        <ele>107</ele>
        <time>2019-10-28T12:07:47.000Z</time>
      </trkpt>
      <trkpt lat="48.59652" lon="2.14">
        <ele>106</ele>
        <time>2019-10-28T12:07:48.000Z</time>
      </trkpt>
      <trkpt lat="48.59653" lon="2.14002">
        <ele>106</ele>
        <time>2019-10-28T12:07:49.000Z</time>
      </trkpt>
      <trkpt lat="48.59654" lon="2.14004">
        <ele>106</ele>
        <time>2019-10-28T12:07:50.000Z</time>
      </trkpt>
      <trkpt lat="48.59655" lon="2.14006">
        <ele>106</ele>
        <time>2019-10-28T12:07:51.000Z</time>
      </trkpt>
      <trkpt lat="48.59656" lon="2.14007">
        <ele>106</ele>
        <time>2019-10-28T12:07:52.000Z</time>
      </trkpt>
      <trkpt lat="48.59657" lon="2.14009">
        <ele>106</ele>
        <time>2019-10-28T12:07:53.000Z</time>
      </trkpt>
      <trkpt lat="48.59657" lon="2.1401">
        <ele>106</ele>
        <time>2019-10-28T12:07:54.000Z</time>
      </trkpt>
      <trkpt lat="48.59658" lon="2.14012">
        <ele>106</ele>
        <time>2019-10-28T12:07:55.000Z</time>
      </trkpt>
      <trkpt lat="48.59659" lon="2.14014">
        <ele>106</ele>
        <time>2019-10-28T12:07:56.000Z</time>
      </trkpt>
      <trkpt lat="48.5966" lon="2.14015">
        <ele>106</ele>
        <time>2019-10-28T12:07:57.000Z</time>
      </trkpt>
      <trkpt lat="48.59662" lon="2.14017">
        <ele>106</ele>
        <time>2019-10-28T12:07:58.000Z</time>
      </trkpt>
      <trkpt lat="48.59663" lon="2.14018">
        <ele>106</ele>
        <time>2019-10-28T12:07:59.000Z</time>
      </trkpt>
      <trkpt lat="48.59664" lon="2.14019">
        <ele>106</ele>
        <time>2019-10-28T12:08:00.000Z</time>
      </trkpt>
      <trkpt lat="48.59665" lon="2.14021">
        <ele>107</ele>
        <time>2019-10-28T12:08:01.000Z</time>
      </trkpt>
      <trkpt lat="48.59666" lon="2.14022">
        <ele>106</ele>
        <time>2019-10-28T12:08:02.000Z</time>
      </trkpt>
      <trkpt lat="48.59667" lon="2.14024">
        <ele>106</ele>
        <time>2019-10-28T12:08:03.000Z</time>
      </trkpt>
      <trkpt lat="48.59668" lon="2.14025">
        <ele>106</ele>
        <time>2019-10-28T12:08:04.000Z</time>
      </trkpt>
      <trkpt lat="48.59668" lon="2.14027">
        <ele>106</ele>
        <time>2019-10-28T12:08:05.000Z</time>
      </trkpt>
      <trkpt lat="48.59669" lon="2.14028">
        <ele>106</ele>
        <time>2019-10-28T12:08:06.000Z</time>
      </trkpt>
      <trkpt lat="48.5967" lon="2.1403">
        <ele>106</ele>
        <time>2019-10-28T12:08:07.000Z</time>
      </trkpt>
      <trkpt lat="48.59672" lon="2.14031">
        <ele>107</ele>
        <time>2019-10-28T12:08:08.000Z</time>
      </trkpt>
      <trkpt lat="48.59673" lon="2.14032">
        <ele>107</ele>
        <time>2019-10-28T12:08:09.000Z</time>
      </trkpt>
      <trkpt lat="48.59674" lon="2.14033">
        <ele>106</ele>
        <time>2019-10-28T12:08:10.000Z</time>
      </trkpt>
      <trkpt lat="48.59675" lon="2.14034">
        <ele>106</ele>
        <time>2019-10-28T12:08:11.000Z</time>
      </trkpt>
      <trkpt lat="48.59676" lon="2.14035">
        <ele>106</ele>
        <time>2019-10-28T12:08:12.000Z</time>
      </trkpt>
      <trkpt lat="48.59677" lon="2.14036">
        <ele>106</ele>
        <time>2019-10-28T12:08:13.000Z</time>
      </trkpt>
      <trkpt lat="48.59678" lon="2.14038">
        <ele>106</ele>
        <time>2019-10-28T12:08:14.000Z</time>
      </trkpt>
      <trkpt lat="48.59679" lon="2.14038">
        <ele>106</ele>
        <time>2019-10-28T12:08:15.000Z</time>
      </trkpt>
      <trkpt lat="48.5968" lon="2.14039">
        <ele>106</ele>
        <time>2019-10-28T12:08:16.000Z</time>
      </trkpt>
      <trkpt lat="48.59681" lon="2.14039">
        <ele>106</ele>
        <time>2019-10-28T12:08:17.000Z</time>
      </trkpt>
      <trkpt lat="48.59682" lon="2.14038">
        <ele>105</ele>
        <time>2019-10-28T12:08:18.000Z</time>
      </trkpt>
      <trkpt lat="48.59684" lon="2.14037">
        <ele>104</ele>
        <time>2019-10-28T12:08:19.000Z</time>
      </trkpt>
      <trkpt lat="48.59685" lon="2.14037">
        <ele>104</ele>
        <time>2019-10-28T12:08:20.000Z</time>
      </trkpt>
      <trkpt lat="48.59687" lon="2.14036">
        <ele>104</ele>
        <time>2019-10-28T12:08:21.000Z</time>
      </trkpt>
      <trkpt lat="48.59688" lon="2.14036">
        <ele>104</ele>
        <time>2019-10-28T12:08:22.000Z</time>
      </trkpt>
      <trkpt lat="48.5969" lon="2.14036">
        <ele>104</ele>
        <time>2019-10-28T12:08:23.000Z</time>
      </trkpt>
      <trkpt lat="48.59691" lon="2.14036">
        <ele>104</ele>
        <time>2019-10-28T12:08:24.000Z</time>
      </trkpt>
      <trkpt lat="48.59692" lon="2.14036">
        <ele>103</ele>
        <time>2019-10-28T12:08:25.000Z</time>
      </trkpt>
      <trkpt lat="48.59693" lon="2.14036">
        <ele>103</ele>
        <time>2019-10-28T12:08:26.000Z</time>
      </trkpt>
      <trkpt lat="48.59694" lon="2.14036">
        <ele>103</ele>
        <time>2019-10-28T12:08:27.000Z</time>
      </trkpt>
      <trkpt lat="48.59695" lon="2.14037">
        <ele>103</ele>
        <time>2019-10-28T12:08:28.000Z</time>
      </trkpt>
      <trkpt lat="48.59696" lon="2.14037">
        <ele>103</ele>
        <time>2019-10-28T12:08:29.000Z</time>
      </trkpt>
      <trkpt lat="48.59698" lon="2.14038">
        <ele>103</ele>
        <time>2019-10-28T12:08:30.000Z</time>
      </trkpt>
      <trkpt lat="48.59699" lon="2.14039">
        <ele>102</ele>
        <time>2019-10-28T12:08:31.000Z</time>
      </trkpt>
      <trkpt lat="48.597" lon="2.1404">
        <ele>103</ele>
        <time>2019-10-28T12:08:32.000Z</time>
      </trkpt>
      <trkpt lat="48.59701" lon="2.14042">
        <ele>103</ele>
        <time>2019-10-28T12:08:33.000Z</time>
      </trkpt>
      <trkpt lat="48.59702" lon="2.14043">
        <ele>102</ele>
        <time>2019-10-28T12:08:34.000Z</time>
      </trkpt>
      <trkpt lat="48.59703" lon="2.14045">
        <ele>102</ele>
        <time>2019-10-28T12:08:35.000Z</time>
      </trkpt>
      <trkpt lat="48.59704" lon="2.14046">
        <ele>102</ele>
        <time>2019-10-28T12:08:36.000Z</time>
      </trkpt>
      <trkpt lat="48.59704" lon="2.14048">
        <ele>102</ele>
        <time>2019-10-28T12:08:37.000Z</time>
      </trkpt>
      <trkpt lat="48.59705" lon="2.14049">
        <ele>102</ele>
        <time>2019-10-28T12:08:38.000Z</time>
      </trkpt>
      <trkpt lat="48.59705" lon="2.14051">
        <ele>102</ele>
        <time>2019-10-28T12:08:39.000Z</time>
      </trkpt>
      <trkpt lat="48.59706" lon="2.14052">
        <ele>101</ele>
        <time>2019-10-28T12:08:40.000Z</time>
      </trkpt>
      <trkpt lat="48.59707" lon="2.14054">
        <ele>101</ele>
        <time>2019-10-28T12:08:41.000Z</time>
      </trkpt>
      <trkpt lat="48.59708" lon="2.14055">
        <ele>101</ele>
        <time>2019-10-28T12:08:42.000Z</time>
      </trkpt>
      <trkpt lat="48.59709" lon="2.14056">
        <ele>101</ele>
        <time>2019-10-28T12:08:43.000Z</time>
      </trkpt>
      <trkpt lat="48.5971" lon="2.14057">
        <ele>101</ele>
        <time>2019-10-28T12:08:44.000Z</time>
      </trkpt>
      <trkpt lat="48.59711" lon="2.14058">
        <ele>100</ele>
        <time>2019-10-28T12:08:45.000Z</time>
      </trkpt>
      <trkpt lat="48.59711" lon="2.14059">
        <ele>100</ele>
        <time>2019-10-28T12:08:46.000Z</time>
      </trkpt>
      <trkpt lat="48.59712" lon="2.1406">
        <ele>100</ele>
        <time>2019-10-28T12:08:47.000Z</time>
      </trkpt>
      <trkpt lat="48.59713" lon="2.14062">
        <ele>99</ele>
        <time>2019-10-28T12:08:48.000Z</time>
      </trkpt>
      <trkpt lat="48.59714" lon="2.14063">
        <ele>99</ele>
        <time>2019-10-28T12:08:49.000Z</time>
      </trkpt>
      <trkpt lat="48.59715" lon="2.14064">
        <ele>99</ele>
        <time>2019-10-28T12:08:50.000Z</time>
      </trkpt>
      <trkpt lat="48.59716" lon="2.14065">
        <ele>99</ele>
        <time>2019-10-28T12:08:51.000Z</time>
      </trkpt>
      <trkpt lat="48.59716" lon="2.14065">
        <ele>99</ele>
        <time>2019-10-28T12:08:52.000Z</time>
      </trkpt>
      <trkpt lat="48.59717" lon="2.14065">
        <ele>99</ele>
        <time>2019-10-28T12:08:53.000Z</time>
      </trkpt>
      <trkpt lat="48.59717" lon="2.14065">
        <ele>99</ele>
        <time>2019-10-28T12:08:54.000Z</time>
      </trkpt>
      <trkpt lat="48.59717" lon="2.14065">
        <ele>99</ele>
        <time>2019-10-28T12:08:55.000Z</time>
      </trkpt>
      <trkpt lat="48.59718" lon="2.14065">
        <ele>100</ele>
        <time>2019-10-28T12:08:56.000Z</time>
      </trkpt>
      <trkpt lat="48.59718" lon="2.14065">
        <ele>101</ele>
        <time>2019-10-28T12:08:57.000Z</time>
      </trkpt>
      <trkpt lat="48.59718" lon="2.14065">
        <ele>100</ele>
        <time>2019-10-28T12:08:58.000Z</time>
      </trkpt>
      <trkpt lat="48.59719" lon="2.14065">
        <ele>101</ele>
        <time>2019-10-28T12:08:59.000Z</time>
      </trkpt>
      <trkpt lat="48.59719" lon="2.14065">
        <ele>101</ele>
        <time>2019-10-28T12:09:00.000Z</time>
      </trkpt>
      <trkpt lat="48.59719" lon="2.14066">
        <ele>102</ele>
        <time>2019-10-28T12:09:01.000Z</time>
      </trkpt>
      <trkpt lat="48.59719" lon="2.14066">
        <ele>102</ele>
        <time>2019-10-28T12:09:02.000Z</time>
      </trkpt>
      <trkpt lat="48.5972" lon="2.14067">
        <ele>102</ele>
        <time>2019-10-28T12:09:03.000Z</time>
      </trkpt>
      <trkpt lat="48.59721" lon="2.14068">
        <ele>101</ele>
        <time>2019-10-28T12:09:04.000Z</time>
      </trkpt>
      <trkpt lat="48.59722" lon="2.1407">
        <ele>101</ele>
        <time>2019-10-28T12:09:05.000Z</time>
      </trkpt>
      <trkpt lat="48.59723" lon="2.14071">
        <ele>101</ele>
        <time>2019-10-28T12:09:06.000Z</time>
      </trkpt>
      <trkpt lat="48.59724" lon="2.14073">
        <ele>101</ele>
        <time>2019-10-28T12:09:07.000Z</time>
      </trkpt>
      <trkpt lat="48.59726" lon="2.14074">
        <ele>100</ele>
        <time>2019-10-28T12:09:08.000Z</time>
      </trkpt>
      <trkpt lat="48.59728" lon="2.14075">
        <ele>100</ele>
        <time>2019-10-28T12:09:09.000Z</time>
      </trkpt>
      <trkpt lat="48.59729" lon="2.14075">
        <ele>99</ele>
        <time>2019-10-28T12:09:10.000Z</time>
      </trkpt>
      <trkpt lat="48.59731" lon="2.14075">
        <ele>99</ele>
        <time>2019-10-28T12:09:11.000Z</time>
      </trkpt>
      <trkpt lat="48.59732" lon="2.14075">
        <ele>99</ele>
        <time>2019-10-28T12:09:12.000Z</time>
      </trkpt>
      <trkpt lat="48.59734" lon="2.14075">
        <ele>99</ele>
        <time>2019-10-28T12:09:13.000Z</time>
      </trkpt>
      <trkpt lat="48.59735" lon="2.14075">
        <ele>99</ele>
        <time>2019-10-28T12:09:14.000Z</time>
      </trkpt>
      <trkpt lat="48.59737" lon="2.14075">
        <ele>99</ele>
        <time>2019-10-28T12:09:15.000Z</time>
      </trkpt>
      <trkpt lat="48.59739" lon="2.14075">
        <ele>99</ele>
        <time>2019-10-28T12:09:16.000Z</time>
      </trkpt>
      <trkpt lat="48.5974" lon="2.14074">
        <ele>101</ele>
        <time>2019-10-28T12:09:17.000Z</time>
      </trkpt>
      <trkpt lat="48.59742" lon="2.14073">
        <ele>101</ele>
        <time>2019-10-28T12:09:18.000Z</time>
      </trkpt>
      <trkpt lat="48.59744" lon="2.14072">
        <ele>101</ele>
        <time>2019-10-28T12:09:19.000Z</time>
      </trkpt>
      <trkpt lat="48.59746" lon="2.14072">
        <ele>101</ele>
        <time>2019-10-28T12:09:20.000Z</time>
      </trkpt>
      <trkpt lat="48.59747" lon="2.14071">
        <ele>100</ele>
        <time>2019-10-28T12:09:21.000Z</time>
      </trkpt>
      <trkpt lat="48.59748" lon="2.1407">
        <ele>101</ele>
        <time>2019-10-28T12:09:22.000Z</time>
      </trkpt>
      <trkpt lat="48.59748" lon="2.14069">
        <ele>101</ele>
        <time>2019-10-28T12:09:23.000Z</time>
      </trkpt>
      <trkpt lat="48.59749" lon="2.14067">
        <ele>101</ele>
        <time>2019-10-28T12:09:24.000Z</time>
      </trkpt>
      <trkpt lat="48.59749" lon="2.14066">
        <ele>102</ele>
        <time>2019-10-28T12:09:25.000Z</time>
      </trkpt>
      <trkpt lat="48.59749" lon="2.14064">
        <ele>101</ele>
        <time>2019-10-28T12:09:26.000Z</time>
      </trkpt>
      <trkpt lat="48.59748" lon="2.14063">
        <ele>101</ele>
        <time>2019-10-28T12:09:27.000Z</time>
      </trkpt>
      <trkpt lat="48.59748" lon="2.14062">
        <ele>100</ele>
        <time>2019-10-28T12:09:28.000Z</time>
      </trkpt>
      <trkpt lat="48.59748" lon="2.14063">
        <ele>100</ele>
        <time>2019-10-28T12:09:29.000Z</time>
      </trkpt>
      <trkpt lat="48.59749" lon="2.14063">
        <ele>99</ele>
        <time>2019-10-28T12:09:30.000Z</time>
      </trkpt>
      <trkpt lat="48.59749" lon="2.14064">
        <ele>99</ele>
        <time>2019-10-28T12:09:31.000Z</time>
      </trkpt>
      <trkpt lat="48.59749" lon="2.14064">
        <ele>100</ele>
        <time>2019-10-28T12:09:32.000Z</time>
      </trkpt>
      <trkpt lat="48.59749" lon="2.14065">
        <ele>100</ele>
        <time>2019-10-28T12:09:33.000Z</time>
      </trkpt>
      <trkpt lat="48.59749" lon="2.14065">
        <ele>100</ele>
        <time>2019-10-28T12:09:34.000Z</time>
      </trkpt>
      <trkpt lat="48.59749" lon="2.14065">
        <ele>101</ele>
        <time>2019-10-28T12:09:35.000Z</time>
      </trkpt>
      <trkpt lat="48.59749" lon="2.14065">
        <ele>101</ele>
        <time>2019-10-28T12:09:36.000Z</time>
      </trkpt>
      <trkpt lat="48.59749" lon="2.14065">
        <ele>101</ele>
        <time>2019-10-28T12:09:37.000Z</time>
      </trkpt>
      <trkpt lat="48.5975" lon="2.14067">
        <ele>100</ele>
        <time>2019-10-28T12:09:38.000Z</time>
      </trkpt>
      <trkpt lat="48.5975" lon="2.14068">
        <ele>100</ele>
        <time>2019-10-28T12:09:39.000Z</time>
      </trkpt>
      <trkpt lat="48.5975" lon="2.14069">
        <ele>100</ele>
        <time>2019-10-28T12:09:40.000Z</time>
      </trkpt>
      <trkpt lat="48.59751" lon="2.1407">
        <ele>100</ele>
        <time>2019-10-28T12:09:41.000Z</time>
      </trkpt>
      <trkpt lat="48.59752" lon="2.1407">
        <ele>99</ele>
        <time>2019-10-28T12:09:42.000Z</time>
      </trkpt>
      <trkpt lat="48.59753" lon="2.14071">
        <ele>99</ele>
        <time>2019-10-28T12:09:43.000Z</time>
      </trkpt>
      <trkpt lat="48.59754" lon="2.14071">
        <ele>99</ele>
        <time>2019-10-28T12:09:44.000Z</time>
      </trkpt>
      <trkpt lat="48.59755" lon="2.14071">
        <ele>98</ele>
        <time>2019-10-28T12:09:45.000Z</time>
      </trkpt>
      <trkpt lat="48.59756" lon="2.14071">
        <ele>98</ele>
        <time>2019-10-28T12:09:46.000Z</time>
      </trkpt>
      <trkpt lat="48.59758" lon="2.14071">
        <ele>98</ele>
        <time>2019-10-28T12:09:47.000Z</time>
      </trkpt>
      <trkpt lat="48.59759" lon="2.1407">
        <ele>99</ele>
        <time>2019-10-28T12:09:48.000Z</time>
      </trkpt>
      <trkpt lat="48.59761" lon="2.1407">
        <ele>99</ele>
        <time>2019-10-28T12:09:49.000Z</time>
      </trkpt>
      <trkpt lat="48.59762" lon="2.1407">
        <ele>99</ele>
        <time>2019-10-28T12:09:50.000Z</time>
      </trkpt>
      <trkpt lat="48.59764" lon="2.14069">
        <ele>99</ele>
        <time>2019-10-28T12:09:51.000Z</time>
      </trkpt>
      <trkpt lat="48.59765" lon="2.14069">
        <ele>99</ele>
        <time>2019-10-28T12:09:52.000Z</time>
      </trkpt>
      <trkpt lat="48.59767" lon="2.14069">
        <ele>99</ele>
        <time>2019-10-28T12:09:53.000Z</time>
      </trkpt>
      <trkpt lat="48.59768" lon="2.14068">
        <ele>99</ele>
        <time>2019-10-28T12:09:54.000Z</time>
      </trkpt>
      <trkpt lat="48.59769" lon="2.14068">
        <ele>98</ele>
        <time>2019-10-28T12:09:55.000Z</time>
      </trkpt>
      <trkpt lat="48.5977" lon="2.14068">
        <ele>98</ele>
        <time>2019-10-28T12:09:56.000Z</time>
      </trkpt>
      <trkpt lat="48.59772" lon="2.14068">
        <ele>98</ele>
        <time>2019-10-28T12:09:57.000Z</time>
      </trkpt>
      <trkpt lat="48.59773" lon="2.14068">
        <ele>98</ele>
        <time>2019-10-28T12:09:58.000Z</time>
      </trkpt>
      <trkpt lat="48.59774" lon="2.14068">
        <ele>98</ele>
        <time>2019-10-28T12:09:59.000Z</time>
      </trkpt>
      <trkpt lat="48.59776" lon="2.14068">
        <ele>97</ele>
        <time>2019-10-28T12:10:00.000Z</time>
      </trkpt>
      <trkpt lat="48.59777" lon="2.14068">
        <ele>97</ele>
        <time>2019-10-28T12:10:01.000Z</time>
      </trkpt>
      <trkpt lat="48.59778" lon="2.14067">
        <ele>97</ele>
        <time>2019-10-28T12:10:02.000Z</time>
      </trkpt>
      <trkpt lat="48.59779" lon="2.14067">
        <ele>97</ele>
        <time>2019-10-28T12:10:03.000Z</time>
      </trkpt>
      <trkpt lat="48.5978" lon="2.14067">
        <ele>98</ele>
        <time>2019-10-28T12:10:04.000Z</time>
      </trkpt>
      <trkpt lat="48.59781" lon="2.14067">
        <ele>98</ele>
        <time>2019-10-28T12:10:05.000Z</time>
      </trkpt>
      <trkpt lat="48.59782" lon="2.14066">
        <ele>98</ele>
        <time>2019-10-28T12:10:06.000Z</time>
      </trkpt>
      <trkpt lat="48.59784" lon="2.14066">
        <ele>98</ele>
        <time>2019-10-28T12:10:07.000Z</time>
      </trkpt>
      <trkpt lat="48.59785" lon="2.14066">
        <ele>97</ele>
        <time>2019-10-28T12:10:08.000Z</time>
      </trkpt>
      <trkpt lat="48.59786" lon="2.14066">
        <ele>97</ele>
        <time>2019-10-28T12:10:09.000Z</time>
      </trkpt>
      <trkpt lat="48.59787" lon="2.14066">
        <ele>96</ele>
        <time>2019-10-28T12:10:10.000Z</time>
      </trkpt>
      <trkpt lat="48.59789" lon="2.14065">
        <ele>95</ele>
        <time>2019-10-28T12:10:11.000Z</time>
      </trkpt>
      <trkpt lat="48.59791" lon="2.14065">
        <ele>96</ele>
        <time>2019-10-28T12:10:12.000Z</time>
      </trkpt>
      <trkpt lat="48.59792" lon="2.14064">
        <ele>96</ele>
        <time>2019-10-28T12:10:13.000Z</time>
      </trkpt>
      <trkpt lat="48.59794" lon="2.14064">
        <ele>96</ele>
        <time>2019-10-28T12:10:14.000Z</time>
      </trkpt>
      <trkpt lat="48.59795" lon="2.14064">
        <ele>95</ele>
        <time>2019-10-28T12:10:15.000Z</time>
      </trkpt>
      <trkpt lat="48.59796" lon="2.14063">
        <ele>95</ele>
        <time>2019-10-28T12:10:16.000Z</time>
      </trkpt>
      <trkpt lat="48.59798" lon="2.14063">
        <ele>96</ele>
        <time>2019-10-28T12:10:17.000Z</time>
      </trkpt>
      <trkpt lat="48.59799" lon="2.14063">
        <ele>96</ele>
        <time>2019-10-28T12:10:18.000Z</time>
      </trkpt>
      <trkpt lat="48.59801" lon="2.14063">
        <ele>96</ele>
        <time>2019-10-28T12:10:19.000Z</time>
      </trkpt>
      <trkpt lat="48.59802" lon="2.14062">
        <ele>96</ele>
        <time>2019-10-28T12:10:20.000Z</time>
      </trkpt>
      <trkpt lat="48.59803" lon="2.14062">
        <ele>96</ele>
        <time>2019-10-28T12:10:21.000Z</time>
      </trkpt>
      <trkpt lat="48.59805" lon="2.14062">
        <ele>96</ele>
        <time>2019-10-28T12:10:22.000Z</time>
      </trkpt>
      <trkpt lat="48.59806" lon="2.14062">
        <ele>96</ele>
        <time>2019-10-28T12:10:23.000Z</time>
      </trkpt>
      <trkpt lat="48.59807" lon="2.14061">
        <ele>95</ele>
        <time>2019-10-28T12:10:24.000Z</time>
      </trkpt>
      <trkpt lat="48.59809" lon="2.14061">
        <ele>95</ele>
        <time>2019-10-28T12:10:25.000Z</time>
      </trkpt>
      <trkpt lat="48.5981" lon="2.14061">
        <ele>96</ele>
        <time>2019-10-28T12:10:26.000Z</time>
      </trkpt>
      <trkpt lat="48.59812" lon="2.1406">
        <ele>96</ele>
        <time>2019-10-28T12:10:27.000Z</time>
      </trkpt>
      <trkpt lat="48.59813" lon="2.1406">
        <ele>96</ele>
        <time>2019-10-28T12:10:28.000Z</time>
      </trkpt>
      <trkpt lat="48.59814" lon="2.14059">
        <ele>96</ele>
        <time>2019-10-28T12:10:29.000Z</time>
      </trkpt>
      <trkpt lat="48.59815" lon="2.14059">
        <ele>96</ele>
        <time>2019-10-28T12:10:30.000Z</time>
      </trkpt>
      <trkpt lat="48.59817" lon="2.14058">
        <ele>96</ele>
        <time>2019-10-28T12:10:31.000Z</time>
      </trkpt>
      <trkpt lat="48.59818" lon="2.14057">
        <ele>97</ele>
        <time>2019-10-28T12:10:32.000Z</time>
      </trkpt>
      <trkpt lat="48.59819" lon="2.14057">
        <ele>97</ele>
        <time>2019-10-28T12:10:33.000Z</time>
      </trkpt>
      <trkpt lat="48.59821" lon="2.14056">
        <ele>97</ele>
        <time>2019-10-28T12:10:34.000Z</time>
      </trkpt>
      <trkpt lat="48.59822" lon="2.14056">
        <ele>97</ele>
        <time>2019-10-28T12:10:35.000Z</time>
      </trkpt>
      <trkpt lat="48.59823" lon="2.14056">
        <ele>97</ele>
        <time>2019-10-28T12:10:36.000Z</time>
      </trkpt>
      <trkpt lat="48.59825" lon="2.14056">
        <ele>97</ele>
        <time>2019-10-28T12:10:37.000Z</time>
      </trkpt>
      <trkpt lat="48.59826" lon="2.14055">
        <ele>98</ele>
        <time>2019-10-28T12:10:38.000Z</time>
      </trkpt>
      <trkpt lat="48.59828" lon="2.14055">
        <ele>98</ele>
        <time>2019-10-28T12:10:39.000Z</time>
      </trkpt>
      <trkpt lat="48.59829" lon="2.14055">
        <ele>98</ele>
        <time>2019-10-28T12:10:40.000Z</time>
      </trkpt>
      <trkpt lat="48.59831" lon="2.14054">
        <ele>98</ele>
        <time>2019-10-28T12:10:41.000Z</time>
      </trkpt>
      <trkpt lat="48.59832" lon="2.14054">
        <ele>99</ele>
        <time>2019-10-28T12:10:42.000Z</time>
      </trkpt>
      <trkpt lat="48.59834" lon="2.14054">
        <ele>99</ele>
        <time>2019-10-28T12:10:43.000Z</time>
      </trkpt>
      <trkpt lat="48.59835" lon="2.14054">
        <ele>99</ele>
        <time>2019-10-28T12:10:44.000Z</time>
      </trkpt>
      <trkpt lat="48.59837" lon="2.14054">
        <ele>99</ele>
        <time>2019-10-28T12:10:45.000Z</time>
      </trkpt>
      <trkpt lat="48.59838" lon="2.14054">
        <ele>99</ele>
        <time>2019-10-28T12:10:46.000Z</time>
      </trkpt>
      <trkpt lat="48.59839" lon="2.14054">
        <ele>98</ele>
        <time>2019-10-28T12:10:47.000Z</time>
      </trkpt>
      <trkpt lat="48.59841" lon="2.14054">
        <ele>98</ele>
        <time>2019-10-28T12:10:48.000Z</time>
      </trkpt>
      <trkpt lat="48.59842" lon="2.14053">
        <ele>98</ele>
        <time>2019-10-28T12:10:49.000Z</time>
      </trkpt>
      <trkpt lat="48.59844" lon="2.14053">
        <ele>99</ele>
        <time>2019-10-28T12:10:50.000Z</time>
      </trkpt>
      <trkpt lat="48.59845" lon="2.14053">
        <ele>98</ele>
        <time>2019-10-28T12:10:51.000Z</time>
      </trkpt>
      <trkpt lat="48.59846" lon="2.14052">
        <ele>98</ele>
        <time>2019-10-28T12:10:52.000Z</time>
      </trkpt>
      <trkpt lat="48.59847" lon="2.14052">
        <ele>99</ele>
        <time>2019-10-28T12:10:53.000Z</time>
      </trkpt>
      <trkpt lat="48.59849" lon="2.14052">
        <ele>99</ele>
        <time>2019-10-28T12:10:54.000Z</time>
      </trkpt>
      <trkpt lat="48.5985" lon="2.14052">
        <ele>99</ele>
        <time>2019-10-28T12:10:55.000Z</time>
      </trkpt>
      <trkpt lat="48.59851" lon="2.14052">
        <ele>99</ele>
        <time>2019-10-28T12:10:56.000Z</time>
      </trkpt>
      <trkpt lat="48.59852" lon="2.14051">
        <ele>99</ele>
        <time>2019-10-28T12:10:57.000Z</time>
      </trkpt>
      <trkpt lat="48.59854" lon="2.14051">
        <ele>98</ele>
        <time>2019-10-28T12:10:58.000Z</time>
      </trkpt>
      <trkpt lat="48.59855" lon="2.14051">
        <ele>99</ele>
        <time>2019-10-28T12:10:59.000Z</time>
      </trkpt>
      <trkpt lat="48.59856" lon="2.14051">
        <ele>98</ele>
        <time>2019-10-28T12:11:00.000Z</time>
      </trkpt>
      <trkpt lat="48.59858" lon="2.1405">
        <ele>98</ele>
        <time>2019-10-28T12:11:01.000Z</time>
      </trkpt>
      <trkpt lat="48.59859" lon="2.1405">
        <ele>98</ele>
        <time>2019-10-28T12:11:02.000Z</time>
      </trkpt>
      <trkpt lat="48.5986" lon="2.1405">
        <ele>98</ele>
        <time>2019-10-28T12:11:03.000Z</time>
      </trkpt>
      <trkpt lat="48.59862" lon="2.1405">
        <ele>98</ele>
        <time>2019-10-28T12:11:04.000Z</time>
      </trkpt>
      <trkpt lat="48.59863" lon="2.1405">
        <ele>98</ele>
        <time>2019-10-28T12:11:05.000Z</time>
      </trkpt>
      <trkpt lat="48.59864" lon="2.14049">
        <ele>98</ele>
        <time>2019-10-28T12:11:06.000Z</time>
      </trkpt>
      <trkpt lat="48.59865" lon="2.14049">
        <ele>98</ele>
        <time>2019-10-28T12:11:07.000Z</time>
      </trkpt>
      <trkpt lat="48.59867" lon="2.14049">
        <ele>98</ele>
        <time>2019-10-28T12:11:08.000Z</time>
      </trkpt>
      <trkpt lat="48.59868" lon="2.14049">
        <ele>98</ele>
        <time>2019-10-28T12:11:09.000Z</time>
      </trkpt>
      <trkpt lat="48.5987" lon="2.14049">
        <ele>98</ele>
        <time>2019-10-28T12:11:10.000Z</time>
      </trkpt>
      <trkpt lat="48.59871" lon="2.14049">
        <ele>98</ele>
        <time>2019-10-28T12:11:11.000Z</time>
      </trkpt>
      <trkpt lat="48.59872" lon="2.14048">
        <ele>98</ele>
        <time>2019-10-28T12:11:12.000Z</time>
      </trkpt>
      <trkpt lat="48.59874" lon="2.14048">
        <ele>98</ele>
        <time>2019-10-28T12:11:13.000Z</time>
      </trkpt>
      <trkpt lat="48.59875" lon="2.14048">
        <ele>98</ele>
        <time>2019-10-28T12:11:14.000Z</time>
      </trkpt>
      <trkpt lat="48.59876" lon="2.14048">
        <ele>98</ele>
        <time>2019-10-28T12:11:15.000Z</time>
      </trkpt>
      <trkpt lat="48.59878" lon="2.14048">
        <ele>98</ele>
        <time>2019-10-28T12:11:16.000Z</time>
      </trkpt>
      <trkpt lat="48.59879" lon="2.14048">
        <ele>98</ele>
        <time>2019-10-28T12:11:17.000Z</time>
      </trkpt>
      <trkpt lat="48.5988" lon="2.14048">
        <ele>98</ele>
        <time>2019-10-28T12:11:18.000Z</time>
      </trkpt>
      <trkpt lat="48.59882" lon="2.14048">
        <ele>98</ele>
        <time>2019-10-28T12:11:19.000Z</time>
      </trkpt>
      <trkpt lat="48.59883" lon="2.14047">
        <ele>98</ele>
        <time>2019-10-28T12:11:20.000Z</time>
      </trkpt>
      <trkpt lat="48.59884" lon="2.14047">
        <ele>98</ele>
        <time>2019-10-28T12:11:21.000Z</time>
      </trkpt>
      <trkpt lat="48.59885" lon="2.14047">
        <ele>98</ele>
        <time>2019-10-28T12:11:22.000Z</time>
      </trkpt>
      <trkpt lat="48.59887" lon="2.14047">
        <ele>98</ele>
        <time>2019-10-28T12:11:23.000Z</time>
      </trkpt>
      <trkpt lat="48.59888" lon="2.14047">
        <ele>97</ele>
        <time>2019-10-28T12:11:24.000Z</time>
      </trkpt>
      <trkpt lat="48.59889" lon="2.14047">
        <ele>97</ele>
        <time>2019-10-28T12:11:25.000Z</time>
      </trkpt>
      <trkpt lat="48.5989" lon="2.14046">
        <ele>97</ele>
        <time>2019-10-28T12:11:26.000Z</time>
      </trkpt>
      <trkpt lat="48.59891" lon="2.14046">
        <ele>97</ele>
        <time>2019-10-28T12:11:27.000Z</time>
      </trkpt>
      <trkpt lat="48.59892" lon="2.14046">
        <ele>97</ele>
        <time>2019-10-28T12:11:28.000Z</time>
      </trkpt>
      <trkpt lat="48.59894" lon="2.14045">
        <ele>97</ele>
        <time>2019-10-28T12:11:29.000Z</time>
      </trkpt>
      <trkpt lat="48.59895" lon="2.14045">
        <ele>97</ele>
        <time>2019-10-28T12:11:30.000Z</time>
      </trkpt>
      <trkpt lat="48.59897" lon="2.14045">
        <ele>97</ele>
        <time>2019-10-28T12:11:31.000Z</time>
      </trkpt>
      <trkpt lat="48.59898" lon="2.14044">
        <ele>97</ele>
        <time>2019-10-28T12:11:32.000Z</time>
      </trkpt>
      <trkpt lat="48.59899" lon="2.14044">
        <ele>97</ele>
        <time>2019-10-28T12:11:33.000Z</time>
      </trkpt>
      <trkpt lat="48.59901" lon="2.14044">
        <ele>97</ele>
        <time>2019-10-28T12:11:34.000Z</time>
      </trkpt>
      <trkpt lat="48.59902" lon="2.14044">
        <ele>97</ele>
        <time>2019-10-28T12:11:35.000Z</time>
      </trkpt>
      <trkpt lat="48.59903" lon="2.14044">
        <ele>97</ele>
        <time>2019-10-28T12:11:36.000Z</time>
      </trkpt>
      <trkpt lat="48.59904" lon="2.14043">
        <ele>97</ele>
        <time>2019-10-28T12:11:37.000Z</time>
      </trkpt>
      <trkpt lat="48.59906" lon="2.14043">
        <ele>97</ele>
        <time>2019-10-28T12:11:38.000Z</time>
      </trkpt>
      <trkpt lat="48.59907" lon="2.14043">
        <ele>97</ele>
        <time>2019-10-28T12:11:39.000Z</time>
      </trkpt>
      <trkpt lat="48.59908" lon="2.14043">
        <ele>96</ele>
        <time>2019-10-28T12:11:40.000Z</time>
      </trkpt>
      <trkpt lat="48.59909" lon="2.14043">
        <ele>96</ele>
        <time>2019-10-28T12:11:41.000Z</time>
      </trkpt>
      <trkpt lat="48.5991" lon="2.14043">
        <ele>97</ele>
        <time>2019-10-28T12:11:42.000Z</time>
      </trkpt>
      <trkpt lat="48.59912" lon="2.14042">
        <ele>97</ele>
        <time>2019-10-28T12:11:43.000Z</time>
      </trkpt>
      <trkpt lat="48.59913" lon="2.14042">
        <ele>97</ele>
        <time>2019-10-28T12:11:44.000Z</time>
      </trkpt>
      <trkpt lat="48.59914" lon="2.14042">
        <ele>97</ele>
        <time>2019-10-28T12:11:45.000Z</time>
      </trkpt>
      <trkpt lat="48.59916" lon="2.14041">
        <ele>96</ele>
        <time>2019-10-28T12:11:46.000Z</time>
      </trkpt>
      <trkpt lat="48.59917" lon="2.14041">
        <ele>97</ele>
        <time>2019-10-28T12:11:47.000Z</time>
      </trkpt>
      <trkpt lat="48.59918" lon="2.14041">
        <ele>97</ele>
        <time>2019-10-28T12:11:48.000Z</time>
      </trkpt>
      <trkpt lat="48.5992" lon="2.1404">
        <ele>98</ele>
        <time>2019-10-28T12:11:49.000Z</time>
      </trkpt>
      <trkpt lat="48.59922" lon="2.1404">
        <ele>98</ele>
        <time>2019-10-28T12:11:50.000Z</time>
      </trkpt>
      <trkpt lat="48.59923" lon="2.1404">
        <ele>98</ele>
        <time>2019-10-28T12:11:51.000Z</time>
      </trkpt>
      <trkpt lat="48.59925" lon="2.14039">
        <ele>98</ele>
        <time>2019-10-28T12:11:52.000Z</time>
      </trkpt>
      <trkpt lat="48.59926" lon="2.14039">
        <ele>98</ele>
        <time>2019-10-28T12:11:53.000Z</time>
      </trkpt>
      <trkpt lat="48.59927" lon="2.14038">
        <ele>98</ele>
        <time>2019-10-28T12:11:54.000Z</time>
      </trkpt>
      <trkpt lat="48.59928" lon="2.14038">
        <ele>97</ele>
        <time>2019-10-28T12:11:55.000Z</time>
      </trkpt>
      <trkpt lat="48.5993" lon="2.14038">
        <ele>97</ele>
        <time>2019-10-28T12:11:56.000Z</time>
      </trkpt>
      <trkpt lat="48.59931" lon="2.14037">
        <ele>97</ele>
        <time>2019-10-28T12:11:57.000Z</time>
      </trkpt>
      <trkpt lat="48.59932" lon="2.14037">
        <ele>98</ele>
        <time>2019-10-28T12:11:58.000Z</time>
      </trkpt>
      <trkpt lat="48.59934" lon="2.14037">
        <ele>97</ele>
        <time>2019-10-28T12:11:59.000Z</time>
      </trkpt>
      <trkpt lat="48.59935" lon="2.14037">
        <ele>97</ele>
        <time>2019-10-28T12:12:00.000Z</time>
      </trkpt>
      <trkpt lat="48.59936" lon="2.14036">
        <ele>97</ele>
        <time>2019-10-28T12:12:01.000Z</time>
      </trkpt>
      <trkpt lat="48.59937" lon="2.14036">
        <ele>97</ele>
        <time>2019-10-28T12:12:02.000Z</time>
      </trkpt>
      <trkpt lat="48.59938" lon="2.14036">
        <ele>97</ele>
        <time>2019-10-28T12:12:03.000Z</time>
      </trkpt>
      <trkpt lat="48.5994" lon="2.14035">
        <ele>96</ele>
        <time>2019-10-28T12:12:04.000Z</time>
      </trkpt>
      <trkpt lat="48.59941" lon="2.14034">
        <ele>97</ele>
        <time>2019-10-28T12:12:05.000Z</time>
      </trkpt>
      <trkpt lat="48.59943" lon="2.14034">
        <ele>97</ele>
        <time>2019-10-28T12:12:06.000Z</time>
      </trkpt>
      <trkpt lat="48.59944" lon="2.14034">
        <ele>97</ele>
        <time>2019-10-28T12:12:07.000Z</time>
      </trkpt>
      <trkpt lat="48.59945" lon="2.14033">
        <ele>97</ele>
        <time>2019-10-28T12:12:08.000Z</time>
      </trkpt>
      <trkpt lat="48.59947" lon="2.14033">
        <ele>96</ele>
        <time>2019-10-28T12:12:09.000Z</time>
      </trkpt>
      <trkpt lat="48.59948" lon="2.14032">
        <ele>96</ele>
        <time>2019-10-28T12:12:10.000Z</time>
      </trkpt>
      <trkpt lat="48.5995" lon="2.14031">
        <ele>97</ele>
        <time>2019-10-28T12:12:11.000Z</time>
      </trkpt>
      <trkpt lat="48.59951" lon="2.14031">
        <ele>97</ele>
        <time>2019-10-28T12:12:12.000Z</time>
      </trkpt>
      <trkpt lat="48.59953" lon="2.1403">
        <ele>98</ele>
        <time>2019-10-28T12:12:13.000Z</time>
      </trkpt>
      <trkpt lat="48.59954" lon="2.1403">
        <ele>97</ele>
        <time>2019-10-28T12:12:14.000Z</time>
      </trkpt>
      <trkpt lat="48.59956" lon="2.14029">
        <ele>97</ele>
        <time>2019-10-28T12:12:15.000Z</time>
      </trkpt>
      <trkpt lat="48.59957" lon="2.14029">
        <ele>97</ele>
        <time>2019-10-28T12:12:16.000Z</time>
      </trkpt>
      <trkpt lat="48.59958" lon="2.14028">
        <ele>97</ele>
        <time>2019-10-28T12:12:17.000Z</time>
      </trkpt>
      <trkpt lat="48.5996" lon="2.14027">
        <ele>97</ele>
        <time>2019-10-28T12:12:18.000Z</time>
      </trkpt>
      <trkpt lat="48.59961" lon="2.14027">
        <ele>97</ele>
        <time>2019-10-28T12:12:19.000Z</time>
      </trkpt>
      <trkpt lat="48.59962" lon="2.14026">
        <ele>97</ele>
        <time>2019-10-28T12:12:20.000Z</time>
      </trkpt>
      <trkpt lat="48.59963" lon="2.14026">
        <ele>97</ele>
        <time>2019-10-28T12:12:21.000Z</time>
      </trkpt>
      <trkpt lat="48.59964" lon="2.14025">
        <ele>97</ele>
        <time>2019-10-28T12:12:22.000Z</time>
      </trkpt>
      <trkpt lat="48.59966" lon="2.14024">
        <ele>97</ele>
        <time>2019-10-28T12:12:23.000Z</time>
      </trkpt>
      <trkpt lat="48.59967" lon="2.14024">
        <ele>97</ele>
        <time>2019-10-28T12:12:24.000Z</time>
      </trkpt>
      <trkpt lat="48.59968" lon="2.14023">
        <ele>97</ele>
        <time>2019-10-28T12:12:25.000Z</time>
      </trkpt>
      <trkpt lat="48.59968" lon="2.14023">
        <ele>97</ele>
        <time>2019-10-28T12:12:26.000Z</time>
      </trkpt>
      <trkpt lat="48.59969" lon="2.14022">
        <ele>98</ele>
        <time>2019-10-28T12:12:27.000Z</time>
      </trkpt>
      <trkpt lat="48.5997" lon="2.14021">
        <ele>98</ele>
        <time>2019-10-28T12:12:28.000Z</time>
      </trkpt>
      <trkpt lat="48.59972" lon="2.1402">
        <ele>98</ele>
        <time>2019-10-28T12:12:29.000Z</time>
      </trkpt>
      <trkpt lat="48.59973" lon="2.14019">
        <ele>98</ele>
        <time>2019-10-28T12:12:30.000Z</time>
      </trkpt>
      <trkpt lat="48.59974" lon="2.14017">
        <ele>98</ele>
        <time>2019-10-28T12:12:31.000Z</time>
      </trkpt>
      <trkpt lat="48.59975" lon="2.14016">
        <ele>98</ele>
        <time>2019-10-28T12:12:32.000Z</time>
      </trkpt>
      <trkpt lat="48.59976" lon="2.14015">
        <ele>97</ele>
        <time>2019-10-28T12:12:33.000Z</time>
      </trkpt>
      <trkpt lat="48.59977" lon="2.14013">
        <ele>97</ele>
        <time>2019-10-28T12:12:34.000Z</time>
      </trkpt>
      <trkpt lat="48.59978" lon="2.14012">
        <ele>97</ele>
        <time>2019-10-28T12:12:35.000Z</time>
      </trkpt>
      <trkpt lat="48.59979" lon="2.14011">
        <ele>96</ele>
        <time>2019-10-28T12:12:36.000Z</time>
      </trkpt>
      <trkpt lat="48.5998" lon="2.14009">
        <ele>96</ele>
        <time>2019-10-28T12:12:37.000Z</time>
      </trkpt>
      <trkpt lat="48.59981" lon="2.14008">
        <ele>96</ele>
        <time>2019-10-28T12:12:38.000Z</time>
      </trkpt>
      <trkpt lat="48.59982" lon="2.14006">
        <ele>96</ele>
        <time>2019-10-28T12:12:39.000Z</time>
      </trkpt>
      <trkpt lat="48.59982" lon="2.14005">
        <ele>96</ele>
        <time>2019-10-28T12:12:40.000Z</time>
      </trkpt>
      <trkpt lat="48.59983" lon="2.14004">
        <ele>96</ele>
        <time>2019-10-28T12:12:41.000Z</time>
      </trkpt>
      <trkpt lat="48.59983" lon="2.14002">
        <ele>95</ele>
        <time>2019-10-28T12:12:42.000Z</time>
      </trkpt>
      <trkpt lat="48.59984" lon="2.14001">
        <ele>95</ele>
        <time>2019-10-28T12:12:43.000Z</time>
      </trkpt>
      <trkpt lat="48.59985" lon="2.14">
        <ele>95</ele>
        <time>2019-10-28T12:12:44.000Z</time>
      </trkpt>
      <trkpt lat="48.59986" lon="2.13999">
        <ele>95</ele>
        <time>2019-10-28T12:12:45.000Z</time>
      </trkpt>
      <trkpt lat="48.59987" lon="2.13997">
        <ele>94</ele>
        <time>2019-10-28T12:12:46.000Z</time>
      </trkpt>
      <trkpt lat="48.59988" lon="2.13995">
        <ele>94</ele>
        <time>2019-10-28T12:12:47.000Z</time>
      </trkpt>
      <trkpt lat="48.59989" lon="2.13994">
        <ele>94</ele>
        <time>2019-10-28T12:12:48.000Z</time>
      </trkpt>
      <trkpt lat="48.5999" lon="2.13992">
        <ele>93</ele>
        <time>2019-10-28T12:12:49.000Z</time>
      </trkpt>
      <trkpt lat="48.59991" lon="2.1399">
        <ele>93</ele>
        <time>2019-10-28T12:12:50.000Z</time>
      </trkpt>
      <trkpt lat="48.59992" lon="2.13989">
        <ele>93</ele>
        <time>2019-10-28T12:12:51.000Z</time>
      </trkpt>
      <trkpt lat="48.59993" lon="2.13988">
        <ele>94</ele>
        <time>2019-10-28T12:12:52.000Z</time>
      </trkpt>
      <trkpt lat="48.59995" lon="2.13986">
        <ele>94</ele>
        <time>2019-10-28T12:12:53.000Z</time>
      </trkpt>
      <trkpt lat="48.59996" lon="2.13985">
        <ele>93</ele>
        <time>2019-10-28T12:12:54.000Z</time>
      </trkpt>
      <trkpt lat="48.59997" lon="2.13983">
        <ele>93</ele>
        <time>2019-10-28T12:12:55.000Z</time>
      </trkpt>
      <trkpt lat="48.59998" lon="2.13982">
        <ele>93</ele>
        <time>2019-10-28T12:12:56.000Z</time>
      </trkpt>
      <trkpt lat="48.59999" lon="2.1398">
        <ele>92</ele>
        <time>2019-10-28T12:12:57.000Z</time>
      </trkpt>
      <trkpt lat="48.6" lon="2.13978">
        <ele>93</ele>
        <time>2019-10-28T12:12:58.000Z</time>
      </trkpt>
      <trkpt lat="48.60001" lon="2.13977">
        <ele>92</ele>
        <time>2019-10-28T12:12:59.000Z</time>
      </trkpt>
      <trkpt lat="48.60002" lon="2.13975">
        <ele>92</ele>
        <time>2019-10-28T12:13:00.000Z</time>
      </trkpt>
      <trkpt lat="48.60003" lon="2.13974">
        <ele>92</ele>
        <time>2019-10-28T12:13:01.000Z</time>
      </trkpt>
      <trkpt lat="48.60004" lon="2.13972">
        <ele>92</ele>
        <time>2019-10-28T12:13:02.000Z</time>
      </trkpt>
      <trkpt lat="48.60005" lon="2.13971">
        <ele>93</ele>
        <time>2019-10-28T12:13:03.000Z</time>
      </trkpt>
      <trkpt lat="48.60006" lon="2.13969">
        <ele>93</ele>
        <time>2019-10-28T12:13:04.000Z</time>
      </trkpt>
      <trkpt lat="48.60007" lon="2.13967">
        <ele>94</ele>
        <time>2019-10-28T12:13:05.000Z</time>
      </trkpt>
      <trkpt lat="48.60008" lon="2.13966">
        <ele>94</ele>
        <time>2019-10-28T12:13:06.000Z</time>
      </trkpt>
      <trkpt lat="48.60009" lon="2.13964">
        <ele>95</ele>
        <time>2019-10-28T12:13:07.000Z</time>
      </trkpt>
      <trkpt lat="48.60011" lon="2.13963">
        <ele>96</ele>
        <time>2019-10-28T12:13:08.000Z</time>
      </trkpt>
      <trkpt lat="48.60012" lon="2.13961">
        <ele>97</ele>
        <time>2019-10-28T12:13:09.000Z</time>
      </trkpt>
      <trkpt lat="48.60013" lon="2.1396">
        <ele>97</ele>
        <time>2019-10-28T12:13:10.000Z</time>
      </trkpt>
      <trkpt lat="48.60014" lon="2.13959">
        <ele>97</ele>
        <time>2019-10-28T12:13:11.000Z</time>
      </trkpt>
      <trkpt lat="48.60015" lon="2.13958">
        <ele>96</ele>
        <time>2019-10-28T12:13:12.000Z</time>
      </trkpt>
      <trkpt lat="48.60017" lon="2.13957">
        <ele>96</ele>
        <time>2019-10-28T12:13:13.000Z</time>
      </trkpt>
      <trkpt lat="48.60018" lon="2.13957">
        <ele>96</ele>
        <time>2019-10-28T12:13:14.000Z</time>
      </trkpt>
      <trkpt lat="48.60019" lon="2.13956">
        <ele>96</ele>
        <time>2019-10-28T12:13:15.000Z</time>
      </trkpt>
      <trkpt lat="48.6002" lon="2.13955">
        <ele>96</ele>
        <time>2019-10-28T12:13:16.000Z</time>
      </trkpt>
      <trkpt lat="48.60021" lon="2.13954">
        <ele>96</ele>
        <time>2019-10-28T12:13:17.000Z</time>
      </trkpt>
      <trkpt lat="48.60023" lon="2.13953">
        <ele>97</ele>
        <time>2019-10-28T12:13:18.000Z</time>
      </trkpt>
      <trkpt lat="48.60024" lon="2.13952">
        <ele>97</ele>
        <time>2019-10-28T12:13:19.000Z</time>
      </trkpt>
      <trkpt lat="48.60025" lon="2.13951">
        <ele>97</ele>
        <time>2019-10-28T12:13:20.000Z</time>
      </trkpt>
      <trkpt lat="48.60027" lon="2.13951">
        <ele>97</ele>
        <time>2019-10-28T12:13:21.000Z</time>
      </trkpt>
      <trkpt lat="48.60028" lon="2.13951">
        <ele>97</ele>
        <time>2019-10-28T12:13:22.000Z</time>
      </trkpt>
      <trkpt lat="48.60028" lon="2.1395">
        <ele>97</ele>
        <time>2019-10-28T12:13:23.000Z</time>
      </trkpt>
      <trkpt lat="48.60029" lon="2.1395">
        <ele>97</ele>
        <time>2019-10-28T12:13:24.000Z</time>
      </trkpt>
      <trkpt lat="48.60031" lon="2.13949">
        <ele>97</ele>
        <time>2019-10-28T12:13:25.000Z</time>
      </trkpt>
      <trkpt lat="48.60032" lon="2.13949">
        <ele>97</ele>
        <time>2019-10-28T12:13:26.000Z</time>
      </trkpt>
      <trkpt lat="48.60033" lon="2.13949">
        <ele>97</ele>
        <time>2019-10-28T12:13:27.000Z</time>
      </trkpt>
      <trkpt lat="48.60035" lon="2.13948">
        <ele>98</ele>
        <time>2019-10-28T12:13:28.000Z</time>
      </trkpt>
      <trkpt lat="48.60036" lon="2.13948">
        <ele>98</ele>
        <time>2019-10-28T12:13:29.000Z</time>
      </trkpt>
      <trkpt lat="48.60037" lon="2.13947">
        <ele>99</ele>
        <time>2019-10-28T12:13:30.000Z</time>
      </trkpt>
      <trkpt lat="48.60038" lon="2.13947">
        <ele>99</ele>
        <time>2019-10-28T12:13:31.000Z</time>
      </trkpt>
      <trkpt lat="48.60039" lon="2.13947">
        <ele>99</ele>
        <time>2019-10-28T12:13:32.000Z</time>
      </trkpt>
      <trkpt lat="48.6004" lon="2.13946">
        <ele>99</ele>
        <time>2019-10-28T12:13:33.000Z</time>
      </trkpt>
      <trkpt lat="48.60042" lon="2.13946">
        <ele>100</ele>
        <time>2019-10-28T12:13:34.000Z</time>
      </trkpt>
      <trkpt lat="48.60043" lon="2.13946">
        <ele>99</ele>
        <time>2019-10-28T12:13:35.000Z</time>
      </trkpt>
      <trkpt lat="48.60044" lon="2.13945">
        <ele>99</ele>
        <time>2019-10-28T12:13:36.000Z</time>
      </trkpt>
      <trkpt lat="48.60046" lon="2.13945">
        <ele>99</ele>
        <time>2019-10-28T12:13:37.000Z</time>
      </trkpt>
      <trkpt lat="48.60047" lon="2.13945">
        <ele>99</ele>
        <time>2019-10-28T12:13:38.000Z</time>
      </trkpt>
      <trkpt lat="48.60049" lon="2.13944">
        <ele>99</ele>
        <time>2019-10-28T12:13:39.000Z</time>
      </trkpt>
      <trkpt lat="48.6005" lon="2.13944">
        <ele>99</ele>
        <time>2019-10-28T12:13:40.000Z</time>
      </trkpt>
      <trkpt lat="48.60052" lon="2.13943">
        <ele>99</ele>
        <time>2019-10-28T12:13:41.000Z</time>
      </trkpt>
      <trkpt lat="48.60053" lon="2.13942">
        <ele>99</ele>
        <time>2019-10-28T12:13:42.000Z</time>
      </trkpt>
      <trkpt lat="48.60055" lon="2.13942">
        <ele>99</ele>
        <time>2019-10-28T12:13:43.000Z</time>
      </trkpt>
      <trkpt lat="48.60056" lon="2.13942">
        <ele>99</ele>
        <time>2019-10-28T12:13:44.000Z</time>
      </trkpt>
      <trkpt lat="48.60058" lon="2.13942">
        <ele>100</ele>
        <time>2019-10-28T12:13:45.000Z</time>
      </trkpt>
      <trkpt lat="48.60059" lon="2.13942">
        <ele>100</ele>
        <time>2019-10-28T12:13:46.000Z</time>
      </trkpt>
      <trkpt lat="48.60061" lon="2.13942">
        <ele>100</ele>
        <time>2019-10-28T12:13:47.000Z</time>
      </trkpt>
      <trkpt lat="48.60062" lon="2.13943">
        <ele>100</ele>
        <time>2019-10-28T12:13:48.000Z</time>
      </trkpt>
      <trkpt lat="48.60064" lon="2.13943">
        <ele>99</ele>
        <time>2019-10-28T12:13:49.000Z</time>
      </trkpt>
      <trkpt lat="48.60066" lon="2.13943">
        <ele>99</ele>
        <time>2019-10-28T12:13:50.000Z</time>
      </trkpt>
      <trkpt lat="48.60067" lon="2.13943">
        <ele>99</ele>
        <time>2019-10-28T12:13:51.000Z</time>
      </trkpt>
      <trkpt lat="48.60069" lon="2.13943">
        <ele>99</ele>
        <time>2019-10-28T12:13:52.000Z</time>
      </trkpt>
      <trkpt lat="48.6007" lon="2.13943">
        <ele>99</ele>
        <time>2019-10-28T12:13:53.000Z</time>
      </trkpt>
      <trkpt lat="48.60072" lon="2.13943">
        <ele>99</ele>
        <time>2019-10-28T12:13:54.000Z</time>
      </trkpt>
      <trkpt lat="48.60073" lon="2.13943">
        <ele>99</ele>
        <time>2019-10-28T12:13:55.000Z</time>
      </trkpt>
      <trkpt lat="48.60075" lon="2.13944">
        <ele>98</ele>
        <time>2019-10-28T12:13:56.000Z</time>
      </trkpt>
      <trkpt lat="48.60076" lon="2.13944">
        <ele>98</ele>
        <time>2019-10-28T12:13:57.000Z</time>
      </trkpt>
      <trkpt lat="48.60078" lon="2.13945">
        <ele>98</ele>
        <time>2019-10-28T12:13:58.000Z</time>
      </trkpt>
      <trkpt lat="48.60079" lon="2.13945">
        <ele>98</ele>
        <time>2019-10-28T12:13:59.000Z</time>
      </trkpt>
      <trkpt lat="48.6008" lon="2.13945">
        <ele>98</ele>
        <time>2019-10-28T12:14:00.000Z</time>
      </trkpt>
      <trkpt lat="48.60082" lon="2.13946">
        <ele>98</ele>
        <time>2019-10-28T12:14:01.000Z</time>
      </trkpt>
      <trkpt lat="48.60083" lon="2.13947">
        <ele>98</ele>
        <time>2019-10-28T12:14:02.000Z</time>
      </trkpt>
      <trkpt lat="48.60084" lon="2.13948">
        <ele>98</ele>
        <time>2019-10-28T12:14:03.000Z</time>
      </trkpt>
      <trkpt lat="48.60085" lon="2.13949">
        <ele>98</ele>
        <time>2019-10-28T12:14:04.000Z</time>
      </trkpt>
      <trkpt lat="48.60087" lon="2.13949">
        <ele>98</ele>
        <time>2019-10-28T12:14:05.000Z</time>
      </trkpt>
      <trkpt lat="48.60088" lon="2.1395">
        <ele>98</ele>
        <time>2019-10-28T12:14:06.000Z</time>
      </trkpt>
      <trkpt lat="48.60089" lon="2.13951">
        <ele>98</ele>
        <time>2019-10-28T12:14:07.000Z</time>
      </trkpt>
      <trkpt lat="48.6009" lon="2.13952">
        <ele>98</ele>
        <time>2019-10-28T12:14:08.000Z</time>
      </trkpt>
      <trkpt lat="48.60092" lon="2.13952">
        <ele>98</ele>
        <time>2019-10-28T12:14:09.000Z</time>
      </trkpt>
      <trkpt lat="48.60093" lon="2.13953">
        <ele>98</ele>
        <time>2019-10-28T12:14:10.000Z</time>
      </trkpt>
      <trkpt lat="48.60094" lon="2.13954">
        <ele>98</ele>
        <time>2019-10-28T12:14:11.000Z</time>
      </trkpt>
      <trkpt lat="48.60095" lon="2.13955">
        <ele>98</ele>
        <time>2019-10-28T12:14:12.000Z</time>
      </trkpt>
      <trkpt lat="48.60097" lon="2.13956">
        <ele>98</ele>
        <time>2019-10-28T12:14:13.000Z</time>
      </trkpt>
      <trkpt lat="48.60098" lon="2.13957">
        <ele>98</ele>
        <time>2019-10-28T12:14:14.000Z</time>
      </trkpt>
      <trkpt lat="48.60099" lon="2.13958">
        <ele>97</ele>
        <time>2019-10-28T12:14:15.000Z</time>
      </trkpt>
      <trkpt lat="48.601" lon="2.13959">
        <ele>97</ele>
        <time>2019-10-28T12:14:16.000Z</time>
      </trkpt>
      <trkpt lat="48.60101" lon="2.1396">
        <ele>97</ele>
        <time>2019-10-28T12:14:17.000Z</time>
      </trkpt>
      <trkpt lat="48.60102" lon="2.13961">
        <ele>96</ele>
        <time>2019-10-28T12:14:18.000Z</time>
      </trkpt>
      <trkpt lat="48.60103" lon="2.13962">
        <ele>96</ele>
        <time>2019-10-28T12:14:19.000Z</time>
      </trkpt>
      <trkpt lat="48.60104" lon="2.13963">
        <ele>96</ele>
        <time>2019-10-28T12:14:20.000Z</time>
      </trkpt>
      <trkpt lat="48.60105" lon="2.13964">
        <ele>96</ele>
        <time>2019-10-28T12:14:21.000Z</time>
      </trkpt>
      <trkpt lat="48.60106" lon="2.13964">
        <ele>96</ele>
        <time>2019-10-28T12:14:22.000Z</time>
      </trkpt>
      <trkpt lat="48.60108" lon="2.13965">
        <ele>96</ele>
        <time>2019-10-28T12:14:23.000Z</time>
      </trkpt>
      <trkpt lat="48.60109" lon="2.13966">
        <ele>97</ele>
        <time>2019-10-28T12:14:24.000Z</time>
      </trkpt>
      <trkpt lat="48.6011" lon="2.13968">
        <ele>96</ele>
        <time>2019-10-28T12:14:25.000Z</time>
      </trkpt>
      <trkpt lat="48.60111" lon="2.13969">
        <ele>97</ele>
        <time>2019-10-28T12:14:26.000Z</time>
      </trkpt>
      <trkpt lat="48.60112" lon="2.13971">
        <ele>96</ele>
        <time>2019-10-28T12:14:27.000Z</time>
      </trkpt>
      <trkpt lat="48.60113" lon="2.13972">
        <ele>97</ele>
        <time>2019-10-28T12:14:28.000Z</time>
      </trkpt>
      <trkpt lat="48.60115" lon="2.13973">
        <ele>97</ele>
        <time>2019-10-28T12:14:29.000Z</time>
      </trkpt>
      <trkpt lat="48.60116" lon="2.13974">
        <ele>98</ele>
        <time>2019-10-28T12:14:30.000Z</time>
      </trkpt>
      <trkpt lat="48.60117" lon="2.13976">
        <ele>98</ele>
        <time>2019-10-28T12:14:31.000Z</time>
      </trkpt>
      <trkpt lat="48.60118" lon="2.13977">
        <ele>98</ele>
        <time>2019-10-28T12:14:32.000Z</time>
      </trkpt>
      <trkpt lat="48.60119" lon="2.13978">
        <ele>98</ele>
        <time>2019-10-28T12:14:33.000Z</time>
      </trkpt>
      <trkpt lat="48.6012" lon="2.13979">
        <ele>98</ele>
        <time>2019-10-28T12:14:34.000Z</time>
      </trkpt>
      <trkpt lat="48.60121" lon="2.13981">
        <ele>98</ele>
        <time>2019-10-28T12:14:35.000Z</time>
      </trkpt>
      <trkpt lat="48.60122" lon="2.13982">
        <ele>99</ele>
        <time>2019-10-28T12:14:36.000Z</time>
      </trkpt>
      <trkpt lat="48.60123" lon="2.13983">
        <ele>99</ele>
        <time>2019-10-28T12:14:37.000Z</time>
      </trkpt>
      <trkpt lat="48.60124" lon="2.13984">
        <ele>99</ele>
        <time>2019-10-28T12:14:38.000Z</time>
      </trkpt>
      <trkpt lat="48.60125" lon="2.13985">
        <ele>99</ele>
        <time>2019-10-28T12:14:39.000Z</time>
      </trkpt>
      <trkpt lat="48.60126" lon="2.13986">
        <ele>99</ele>
        <time>2019-10-28T12:14:40.000Z</time>
      </trkpt>
      <trkpt lat="48.60128" lon="2.13987">
        <ele>99</ele>
        <time>2019-10-28T12:14:41.000Z</time>
      </trkpt>
      <trkpt lat="48.60129" lon="2.13988">
        <ele>99</ele>
        <time>2019-10-28T12:14:42.000Z</time>
      </trkpt>
      <trkpt lat="48.6013" lon="2.13989">
        <ele>99</ele>
        <time>2019-10-28T12:14:43.000Z</time>
      </trkpt>
      <trkpt lat="48.60131" lon="2.1399">
        <ele>99</ele>
        <time>2019-10-28T12:14:44.000Z</time>
      </trkpt>
      <trkpt lat="48.60132" lon="2.13991">
        <ele>98</ele>
        <time>2019-10-28T12:14:45.000Z</time>
      </trkpt>
      <trkpt lat="48.60134" lon="2.13991">
        <ele>99</ele>
        <time>2019-10-28T12:14:46.000Z</time>
      </trkpt>
      <trkpt lat="48.60135" lon="2.13992">
        <ele>99</ele>
        <time>2019-10-28T12:14:47.000Z</time>
      </trkpt>
      <trkpt lat="48.60136" lon="2.13992">
        <ele>99</ele>
        <time>2019-10-28T12:14:48.000Z</time>
      </trkpt>
      <trkpt lat="48.60138" lon="2.13993">
        <ele>99</ele>
        <time>2019-10-28T12:14:49.000Z</time>
      </trkpt>
      <trkpt lat="48.60139" lon="2.13994">
        <ele>99</ele>
        <time>2019-10-28T12:14:50.000Z</time>
      </trkpt>
      <trkpt lat="48.6014" lon="2.13995">
        <ele>99</ele>
        <time>2019-10-28T12:14:51.000Z</time>
      </trkpt>
      <trkpt lat="48.60141" lon="2.13995">
        <ele>99</ele>
        <time>2019-10-28T12:14:52.000Z</time>
      </trkpt>
      <trkpt lat="48.60142" lon="2.13996">
        <ele>98</ele>
        <time>2019-10-28T12:14:53.000Z</time>
      </trkpt>
      <trkpt lat="48.60143" lon="2.13996">
        <ele>98</ele>
        <time>2019-10-28T12:14:54.000Z</time>
      </trkpt>
      <trkpt lat="48.60144" lon="2.13996">
        <ele>98</ele>
        <time>2019-10-28T12:14:55.000Z</time>
      </trkpt>
      <trkpt lat="48.60145" lon="2.13997">
        <ele>98</ele>
        <time>2019-10-28T12:14:56.000Z</time>
      </trkpt>
      <trkpt lat="48.60147" lon="2.13997">
        <ele>98</ele>
        <time>2019-10-28T12:14:57.000Z</time>
      </trkpt>
      <trkpt lat="48.60148" lon="2.13997">
        <ele>98</ele>
        <time>2019-10-28T12:14:58.000Z</time>
      </trkpt>
      <trkpt lat="48.60149" lon="2.13997">
        <ele>98</ele>
        <time>2019-10-28T12:14:59.000Z</time>
      </trkpt>
      <trkpt lat="48.60151" lon="2.13997">
        <ele>98</ele>
        <time>2019-10-28T12:15:00.000Z</time>
      </trkpt>
      <trkpt lat="48.60152" lon="2.13998">
        <ele>98</ele>
        <time>2019-10-28T12:15:01.000Z</time>
      </trkpt>
      <trkpt lat="48.60154" lon="2.13997">
        <ele>98</ele>
        <time>2019-10-28T12:15:02.000Z</time>
      </trkpt>
      <trkpt lat="48.60156" lon="2.13997">
        <ele>97</ele>
        <time>2019-10-28T12:15:03.000Z</time>
      </trkpt>
      <trkpt lat="48.60157" lon="2.13997">
        <ele>98</ele>
        <time>2019-10-28T12:15:04.000Z</time>
      </trkpt>
      <trkpt lat="48.60159" lon="2.13997">
        <ele>98</ele>
        <time>2019-10-28T12:15:05.000Z</time>
      </trkpt>
      <trkpt lat="48.6016" lon="2.13997">
        <ele>98</ele>
        <time>2019-10-28T12:15:06.000Z</time>
      </trkpt>
      <trkpt lat="48.60162" lon="2.13996">
        <ele>98</ele>
        <time>2019-10-28T12:15:07.000Z</time>
      </trkpt>
      <trkpt lat="48.60163" lon="2.13996">
        <ele>98</ele>
        <time>2019-10-28T12:15:08.000Z</time>
      </trkpt>
      <trkpt lat="48.60165" lon="2.13996">
        <ele>99</ele>
        <time>2019-10-28T12:15:09.000Z</time>
      </trkpt>
      <trkpt lat="48.60166" lon="2.13996">
        <ele>99</ele>
        <time>2019-10-28T12:15:10.000Z</time>
      </trkpt>
      <trkpt lat="48.60168" lon="2.13995">
        <ele>99</ele>
        <time>2019-10-28T12:15:11.000Z</time>
      </trkpt>
      <trkpt lat="48.60169" lon="2.13995">
        <ele>100</ele>
        <time>2019-10-28T12:15:12.000Z</time>
      </trkpt>
      <trkpt lat="48.60171" lon="2.13994">
        <ele>100</ele>
        <time>2019-10-28T12:15:13.000Z</time>
      </trkpt>
      <trkpt lat="48.60172" lon="2.13994">
        <ele>100</ele>
        <time>2019-10-28T12:15:14.000Z</time>
      </trkpt>
      <trkpt lat="48.60173" lon="2.13994">
        <ele>100</ele>
        <time>2019-10-28T12:15:15.000Z</time>
      </trkpt>
      <trkpt lat="48.60175" lon="2.13994">
        <ele>100</ele>
        <time>2019-10-28T12:15:16.000Z</time>
      </trkpt>
      <trkpt lat="48.60176" lon="2.13993">
        <ele>101</ele>
        <time>2019-10-28T12:15:17.000Z</time>
      </trkpt>
      <trkpt lat="48.60178" lon="2.13993">
        <ele>100</ele>
        <time>2019-10-28T12:15:18.000Z</time>
      </trkpt>
      <trkpt lat="48.60179" lon="2.13993">
        <ele>100</ele>
        <time>2019-10-28T12:15:19.000Z</time>
      </trkpt>
      <trkpt lat="48.60181" lon="2.13992">
        <ele>100</ele>
        <time>2019-10-28T12:15:20.000Z</time>
      </trkpt>
      <trkpt lat="48.60182" lon="2.13992">
        <ele>100</ele>
        <time>2019-10-28T12:15:21.000Z</time>
      </trkpt>
      <trkpt lat="48.60183" lon="2.13991">
        <ele>100</ele>
        <time>2019-10-28T12:15:22.000Z</time>
      </trkpt>
      <trkpt lat="48.60185" lon="2.13991">
        <ele>100</ele>
        <time>2019-10-28T12:15:23.000Z</time>
      </trkpt>
      <trkpt lat="48.60186" lon="2.1399">
        <ele>100</ele>
        <time>2019-10-28T12:15:24.000Z</time>
      </trkpt>
      <trkpt lat="48.60188" lon="2.1399">
        <ele>100</ele>
        <time>2019-10-28T12:15:25.000Z</time>
      </trkpt>
      <trkpt lat="48.60189" lon="2.1399">
        <ele>100</ele>
        <time>2019-10-28T12:15:26.000Z</time>
      </trkpt>
      <trkpt lat="48.6019" lon="2.13989">
        <ele>100</ele>
        <time>2019-10-28T12:15:27.000Z</time>
      </trkpt>
      <trkpt lat="48.60192" lon="2.13989">
        <ele>100</ele>
        <time>2019-10-28T12:15:28.000Z</time>
      </trkpt>
      <trkpt lat="48.60193" lon="2.13989">
        <ele>101</ele>
        <time>2019-10-28T12:15:29.000Z</time>
      </trkpt>
      <trkpt lat="48.60195" lon="2.13988">
        <ele>100</ele>
        <time>2019-10-28T12:15:30.000Z</time>
      </trkpt>
      <trkpt lat="48.60196" lon="2.13988">
        <ele>100</ele>
        <time>2019-10-28T12:15:31.000Z</time>
      </trkpt>
      <trkpt lat="48.60197" lon="2.13988">
        <ele>100</ele>
        <time>2019-10-28T12:15:32.000Z</time>
      </trkpt>
      <trkpt lat="48.60199" lon="2.13988">
        <ele>100</ele>
        <time>2019-10-28T12:15:33.000Z</time>
      </trkpt>
      <trkpt lat="48.602" lon="2.13988">
        <ele>100</ele>
        <time>2019-10-28T12:15:34.000Z</time>
      </trkpt>
      <trkpt lat="48.60201" lon="2.13987">
        <ele>100</ele>
        <time>2019-10-28T12:15:35.000Z</time>
      </trkpt>
      <trkpt lat="48.60203" lon="2.13987">
        <ele>100</ele>
        <time>2019-10-28T12:15:36.000Z</time>
      </trkpt>
      <trkpt lat="48.60204" lon="2.13987">
        <ele>99</ele>
        <time>2019-10-28T12:15:37.000Z</time>
      </trkpt>
      <trkpt lat="48.60206" lon="2.13987">
        <ele>99</ele>
        <time>2019-10-28T12:15:38.000Z</time>
      </trkpt>
      <trkpt lat="48.60207" lon="2.13987">
        <ele>99</ele>
        <time>2019-10-28T12:15:39.000Z</time>
      </trkpt>
      <trkpt lat="48.60209" lon="2.13986">
        <ele>99</ele>
        <time>2019-10-28T12:15:40.000Z</time>
      </trkpt>
      <trkpt lat="48.60211" lon="2.13986">
        <ele>99</ele>
        <time>2019-10-28T12:15:41.000Z</time>
      </trkpt>
      <trkpt lat="48.60212" lon="2.13986">
        <ele>99</ele>
        <time>2019-10-28T12:15:42.000Z</time>
      </trkpt>
      <trkpt lat="48.60214" lon="2.13985">
        <ele>99</ele>
        <time>2019-10-28T12:15:43.000Z</time>
      </trkpt>
      <trkpt lat="48.60215" lon="2.13985">
        <ele>99</ele>
        <time>2019-10-28T12:15:44.000Z</time>
      </trkpt>
      <trkpt lat="48.60216" lon="2.13985">
        <ele>99</ele>
        <time>2019-10-28T12:15:45.000Z</time>
      </trkpt>
      <trkpt lat="48.60218" lon="2.13985">
        <ele>99</ele>
        <time>2019-10-28T12:15:46.000Z</time>
      </trkpt>
      <trkpt lat="48.60219" lon="2.13985">
        <ele>99</ele>
        <time>2019-10-28T12:15:47.000Z</time>
      </trkpt>
      <trkpt lat="48.6022" lon="2.13984">
        <ele>99</ele>
        <time>2019-10-28T12:15:48.000Z</time>
      </trkpt>
      <trkpt lat="48.60222" lon="2.13984">
        <ele>99</ele>
        <time>2019-10-28T12:15:49.000Z</time>
      </trkpt>
      <trkpt lat="48.60223" lon="2.13984">
        <ele>100</ele>
        <time>2019-10-28T12:15:50.000Z</time>
      </trkpt>
      <trkpt lat="48.60225" lon="2.13983">
        <ele>100</ele>
        <time>2019-10-28T12:15:51.000Z</time>
      </trkpt>
      <trkpt lat="48.60226" lon="2.13983">
        <ele>100</ele>
        <time>2019-10-28T12:15:52.000Z</time>
      </trkpt>
      <trkpt lat="48.60227" lon="2.13983">
        <ele>100</ele>
        <time>2019-10-28T12:15:53.000Z</time>
      </trkpt>
      <trkpt lat="48.60229" lon="2.13982">
        <ele>100</ele>
        <time>2019-10-28T12:15:54.000Z</time>
      </trkpt>
      <trkpt lat="48.6023" lon="2.13982">
        <ele>100</ele>
        <time>2019-10-28T12:15:55.000Z</time>
      </trkpt>
      <trkpt lat="48.60232" lon="2.13981">
        <ele>100</ele>
        <time>2019-10-28T12:15:56.000Z</time>
      </trkpt>
      <trkpt lat="48.60233" lon="2.13981">
        <ele>100</ele>
        <time>2019-10-28T12:15:57.000Z</time>
      </trkpt>
      <trkpt lat="48.60234" lon="2.13981">
        <ele>100</ele>
        <time>2019-10-28T12:15:58.000Z</time>
      </trkpt>
      <trkpt lat="48.60236" lon="2.13981">
        <ele>100</ele>
        <time>2019-10-28T12:15:59.000Z</time>
      </trkpt>
      <trkpt lat="48.60237" lon="2.13981">
        <ele>100</ele>
        <time>2019-10-28T12:16:00.000Z</time>
      </trkpt>
      <trkpt lat="48.60239" lon="2.13981">
        <ele>100</ele>
        <time>2019-10-28T12:16:01.000Z</time>
      </trkpt>
      <trkpt lat="48.6024" lon="2.13981">
        <ele>100</ele>
        <time>2019-10-28T12:16:02.000Z</time>
      </trkpt>
      <trkpt lat="48.60241" lon="2.1398">
        <ele>100</ele>
        <time>2019-10-28T12:16:03.000Z</time>
      </trkpt>
      <trkpt lat="48.60243" lon="2.1398">
        <ele>100</ele>
        <time>2019-10-28T12:16:04.000Z</time>
      </trkpt>
      <trkpt lat="48.60244" lon="2.1398">
        <ele>100</ele>
        <time>2019-10-28T12:16:05.000Z</time>
      </trkpt>
      <trkpt lat="48.60246" lon="2.1398">
        <ele>100</ele>
        <time>2019-10-28T12:16:06.000Z</time>
      </trkpt>
      <trkpt lat="48.60247" lon="2.13979">
        <ele>100</ele>
        <time>2019-10-28T12:16:07.000Z</time>
      </trkpt>
      <trkpt lat="48.60248" lon="2.13979">
        <ele>101</ele>
        <time>2019-10-28T12:16:08.000Z</time>
      </trkpt>
      <trkpt lat="48.6025" lon="2.13979">
        <ele>100</ele>
        <time>2019-10-28T12:16:09.000Z</time>
      </trkpt>
      <trkpt lat="48.60251" lon="2.13978">
        <ele>100</ele>
        <time>2019-10-28T12:16:10.000Z</time>
      </trkpt>
      <trkpt lat="48.60253" lon="2.13978">
        <ele>100</ele>
        <time>2019-10-28T12:16:11.000Z</time>
      </trkpt>
      <trkpt lat="48.60254" lon="2.13978">
        <ele>100</ele>
        <time>2019-10-28T12:16:12.000Z</time>
      </trkpt>
      <trkpt lat="48.60256" lon="2.13978">
        <ele>100</ele>
        <time>2019-10-28T12:16:13.000Z</time>
      </trkpt>
      <trkpt lat="48.60257" lon="2.13978">
        <ele>100</ele>
        <time>2019-10-28T12:16:14.000Z</time>
      </trkpt>
      <trkpt lat="48.60258" lon="2.13977">
        <ele>100</ele>
        <time>2019-10-28T12:16:15.000Z</time>
      </trkpt>
      <trkpt lat="48.60259" lon="2.13977">
        <ele>100</ele>
        <time>2019-10-28T12:16:16.000Z</time>
      </trkpt>
      <trkpt lat="48.60261" lon="2.13977">
        <ele>100</ele>
        <time>2019-10-28T12:16:17.000Z</time>
      </trkpt>
      <trkpt lat="48.60262" lon="2.13976">
        <ele>100</ele>
        <time>2019-10-28T12:16:18.000Z</time>
      </trkpt>
      <trkpt lat="48.60263" lon="2.13976">
        <ele>99</ele>
        <time>2019-10-28T12:16:19.000Z</time>
      </trkpt>
      <trkpt lat="48.60265" lon="2.13976">
        <ele>99</ele>
        <time>2019-10-28T12:16:20.000Z</time>
      </trkpt>
      <trkpt lat="48.60266" lon="2.13976">
        <ele>99</ele>
        <time>2019-10-28T12:16:21.000Z</time>
      </trkpt>
      <trkpt lat="48.60267" lon="2.13975">
        <ele>99</ele>
        <time>2019-10-28T12:16:22.000Z</time>
      </trkpt>
      <trkpt lat="48.60269" lon="2.13975">
        <ele>98</ele>
        <time>2019-10-28T12:16:23.000Z</time>
      </trkpt>
      <trkpt lat="48.6027" lon="2.13975">
        <ele>99</ele>
        <time>2019-10-28T12:16:24.000Z</time>
      </trkpt>
      <trkpt lat="48.60271" lon="2.13975">
        <ele>99</ele>
        <time>2019-10-28T12:16:25.000Z</time>
      </trkpt>
      <trkpt lat="48.60273" lon="2.13974">
        <ele>99</ele>
        <time>2019-10-28T12:16:26.000Z</time>
      </trkpt>
      <trkpt lat="48.60274" lon="2.13974">
        <ele>99</ele>
        <time>2019-10-28T12:16:27.000Z</time>
      </trkpt>
      <trkpt lat="48.60276" lon="2.13974">
        <ele>99</ele>
        <time>2019-10-28T12:16:28.000Z</time>
      </trkpt>
      <trkpt lat="48.60277" lon="2.13974">
        <ele>99</ele>
        <time>2019-10-28T12:16:29.000Z</time>
      </trkpt>
      <trkpt lat="48.60278" lon="2.13973">
        <ele>99</ele>
        <time>2019-10-28T12:16:30.000Z</time>
      </trkpt>
      <trkpt lat="48.6028" lon="2.13973">
        <ele>99</ele>
        <time>2019-10-28T12:16:31.000Z</time>
      </trkpt>
      <trkpt lat="48.60281" lon="2.13973">
        <ele>99</ele>
        <time>2019-10-28T12:16:32.000Z</time>
      </trkpt>
      <trkpt lat="48.60282" lon="2.13972">
        <ele>99</ele>
        <time>2019-10-28T12:16:33.000Z</time>
      </trkpt>
      <trkpt lat="48.60283" lon="2.13972">
        <ele>99</ele>
        <time>2019-10-28T12:16:34.000Z</time>
      </trkpt>
      <trkpt lat="48.60284" lon="2.13972">
        <ele>99</ele>
        <time>2019-10-28T12:16:35.000Z</time>
      </trkpt>
      <trkpt lat="48.60285" lon="2.13972">
        <ele>98</ele>
        <time>2019-10-28T12:16:36.000Z</time>
      </trkpt>
      <trkpt lat="48.60285" lon="2.13971">
        <ele>98</ele>
        <time>2019-10-28T12:16:37.000Z</time>
      </trkpt>
      <trkpt lat="48.60284" lon="2.13971">
        <ele>99</ele>
        <time>2019-10-28T12:16:38.000Z</time>
      </trkpt>
      <trkpt lat="48.60284" lon="2.13971">
        <ele>99</ele>
        <time>2019-10-28T12:16:39.000Z</time>
      </trkpt>
      <trkpt lat="48.60285" lon="2.13972">
        <ele>99</ele>
        <time>2019-10-28T12:16:40.000Z</time>
      </trkpt>
      <trkpt lat="48.60285" lon="2.13972">
        <ele>99</ele>
        <time>2019-10-28T12:16:41.000Z</time>
      </trkpt>
      <trkpt lat="48.60287" lon="2.13971">
        <ele>99</ele>
        <time>2019-10-28T12:16:42.000Z</time>
      </trkpt>
      <trkpt lat="48.60288" lon="2.13971">
        <ele>99</ele>
        <time>2019-10-28T12:16:43.000Z</time>
      </trkpt>
      <trkpt lat="48.60289" lon="2.13971">
        <ele>99</ele>
        <time>2019-10-28T12:16:44.000Z</time>
      </trkpt>
      <trkpt lat="48.6029" lon="2.13971">
        <ele>99</ele>
        <time>2019-10-28T12:16:45.000Z</time>
      </trkpt>
      <trkpt lat="48.60291" lon="2.13971">
        <ele>99</ele>
        <time>2019-10-28T12:16:46.000Z</time>
      </trkpt>
      <trkpt lat="48.60292" lon="2.13971">
        <ele>99</ele>
        <time>2019-10-28T12:16:47.000Z</time>
      </trkpt>
      <trkpt lat="48.60293" lon="2.13971">
        <ele>99</ele>
        <time>2019-10-28T12:16:48.000Z</time>
      </trkpt>
      <trkpt lat="48.60294" lon="2.1397">
        <ele>99</ele>
        <time>2019-10-28T12:16:49.000Z</time>
      </trkpt>
      <trkpt lat="48.60296" lon="2.1397">
        <ele>100</ele>
        <time>2019-10-28T12:16:50.000Z</time>
      </trkpt>
      <trkpt lat="48.60297" lon="2.13969">
        <ele>100</ele>
        <time>2019-10-28T12:16:51.000Z</time>
      </trkpt>
      <trkpt lat="48.60298" lon="2.13969">
        <ele>100</ele>
        <time>2019-10-28T12:16:52.000Z</time>
      </trkpt>
      <trkpt lat="48.603" lon="2.13968">
        <ele>100</ele>
        <time>2019-10-28T12:16:53.000Z</time>
      </trkpt>
      <trkpt lat="48.60301" lon="2.13968">
        <ele>100</ele>
        <time>2019-10-28T12:16:54.000Z</time>
      </trkpt>
      <trkpt lat="48.60302" lon="2.13968">
        <ele>100</ele>
        <time>2019-10-28T12:16:55.000Z</time>
      </trkpt>
      <trkpt lat="48.60304" lon="2.13968">
        <ele>100</ele>
        <time>2019-10-28T12:16:56.000Z</time>
      </trkpt>
      <trkpt lat="48.60305" lon="2.13967">
        <ele>100</ele>
        <time>2019-10-28T12:16:57.000Z</time>
      </trkpt>
      <trkpt lat="48.60306" lon="2.13967">
        <ele>100</ele>
        <time>2019-10-28T12:16:58.000Z</time>
      </trkpt>
      <trkpt lat="48.60308" lon="2.13967">
        <ele>100</ele>
        <time>2019-10-28T12:16:59.000Z</time>
      </trkpt>
      <trkpt lat="48.60309" lon="2.13967">
        <ele>100</ele>
        <time>2019-10-28T12:17:00.000Z</time>
      </trkpt>
      <trkpt lat="48.6031" lon="2.13967">
        <ele>100</ele>
        <time>2019-10-28T12:17:01.000Z</time>
      </trkpt>
      <trkpt lat="48.60311" lon="2.13967">
        <ele>100</ele>
        <time>2019-10-28T12:17:02.000Z</time>
      </trkpt>
      <trkpt lat="48.60313" lon="2.13967">
        <ele>99</ele>
        <time>2019-10-28T12:17:03.000Z</time>
      </trkpt>
      <trkpt lat="48.60314" lon="2.13967">
        <ele>99</ele>
        <time>2019-10-28T12:17:04.000Z</time>
      </trkpt>
      <trkpt lat="48.60315" lon="2.13967">
        <ele>99</ele>
        <time>2019-10-28T12:17:05.000Z</time>
      </trkpt>
      <trkpt lat="48.60316" lon="2.13966">
        <ele>99</ele>
        <time>2019-10-28T12:17:06.000Z</time>
      </trkpt>
      <trkpt lat="48.60318" lon="2.13966">
        <ele>99</ele>
        <time>2019-10-28T12:17:07.000Z</time>
      </trkpt>
      <trkpt lat="48.60319" lon="2.13966">
        <ele>99</ele>
        <time>2019-10-28T12:17:08.000Z</time>
      </trkpt>
      <trkpt lat="48.6032" lon="2.13966">
        <ele>99</ele>
        <time>2019-10-28T12:17:09.000Z</time>
      </trkpt>
      <trkpt lat="48.60322" lon="2.13966">
        <ele>99</ele>
        <time>2019-10-28T12:17:10.000Z</time>
      </trkpt>
      <trkpt lat="48.60323" lon="2.13966">
        <ele>99</ele>
        <time>2019-10-28T12:17:11.000Z</time>
      </trkpt>
      <trkpt lat="48.60325" lon="2.13965">
        <ele>99</ele>
        <time>2019-10-28T12:17:12.000Z</time>
      </trkpt>
      <trkpt lat="48.60326" lon="2.13965">
        <ele>99</ele>
        <time>2019-10-28T12:17:13.000Z</time>
      </trkpt>
      <trkpt lat="48.60327" lon="2.13965">
        <ele>99</ele>
        <time>2019-10-28T12:17:14.000Z</time>
      </trkpt>
      <trkpt lat="48.60329" lon="2.13964">
        <ele>99</ele>
        <time>2019-10-28T12:17:15.000Z</time>
      </trkpt>
      <trkpt lat="48.6033" lon="2.13964">
        <ele>99</ele>
        <time>2019-10-28T12:17:16.000Z</time>
      </trkpt>
      <trkpt lat="48.60331" lon="2.13964">
        <ele>99</ele>
        <time>2019-10-28T12:17:17.000Z</time>
      </trkpt>
      <trkpt lat="48.60332" lon="2.13964">
        <ele>99</ele>
        <time>2019-10-28T12:17:18.000Z</time>
      </trkpt>
      <trkpt lat="48.60334" lon="2.13964">
        <ele>99</ele>
        <time>2019-10-28T12:17:19.000Z</time>
      </trkpt>
      <trkpt lat="48.60335" lon="2.13964">
        <ele>99</ele>
        <time>2019-10-28T12:17:20.000Z</time>
      </trkpt>
      <trkpt lat="48.60337" lon="2.13964">
        <ele>99</ele>
        <time>2019-10-28T12:17:21.000Z</time>
      </trkpt>
      <trkpt lat="48.60338" lon="2.13964">
        <ele>100</ele>
        <time>2019-10-28T12:17:22.000Z</time>
      </trkpt>
      <trkpt lat="48.60339" lon="2.13963">
        <ele>100</ele>
        <time>2019-10-28T12:17:23.000Z</time>
      </trkpt>
      <trkpt lat="48.60341" lon="2.13963">
        <ele>100</ele>
        <time>2019-10-28T12:17:24.000Z</time>
      </trkpt>
      <trkpt lat="48.60342" lon="2.13963">
        <ele>100</ele>
        <time>2019-10-28T12:17:25.000Z</time>
      </trkpt>
      <trkpt lat="48.60344" lon="2.13963">
        <ele>100</ele>
        <time>2019-10-28T12:17:26.000Z</time>
      </trkpt>
      <trkpt lat="48.60345" lon="2.13963">
        <ele>100</ele>
        <time>2019-10-28T12:17:27.000Z</time>
      </trkpt>
      <trkpt lat="48.60346" lon="2.13962">
        <ele>100</ele>
        <time>2019-10-28T12:17:28.000Z</time>
      </trkpt>
      <trkpt lat="48.60348" lon="2.13962">
        <ele>99</ele>
        <time>2019-10-28T12:17:29.000Z</time>
      </trkpt>
      <trkpt lat="48.60349" lon="2.13962">
        <ele>99</ele>
        <time>2019-10-28T12:17:30.000Z</time>
      </trkpt>
      <trkpt lat="48.60351" lon="2.13961">
        <ele>99</ele>
        <time>2019-10-28T12:17:31.000Z</time>
      </trkpt>
      <trkpt lat="48.60352" lon="2.13961">
        <ele>99</ele>
        <time>2019-10-28T12:17:32.000Z</time>
      </trkpt>
      <trkpt lat="48.60353" lon="2.13961">
        <ele>99</ele>
        <time>2019-10-28T12:17:33.000Z</time>
      </trkpt>
      <trkpt lat="48.60355" lon="2.13961">
        <ele>99</ele>
        <time>2019-10-28T12:17:34.000Z</time>
      </trkpt>
      <trkpt lat="48.60356" lon="2.13961">
        <ele>99</ele>
        <time>2019-10-28T12:17:35.000Z</time>
      </trkpt>
      <trkpt lat="48.60358" lon="2.13961">
        <ele>99</ele>
        <time>2019-10-28T12:17:36.000Z</time>
      </trkpt>
      <trkpt lat="48.60359" lon="2.13961">
        <ele>99</ele>
        <time>2019-10-28T12:17:37.000Z</time>
      </trkpt>
      <trkpt lat="48.6036" lon="2.13961">
        <ele>99</ele>
        <time>2019-10-28T12:17:38.000Z</time>
      </trkpt>
      <trkpt lat="48.60362" lon="2.1396">
        <ele>99</ele>
        <time>2019-10-28T12:17:39.000Z</time>
      </trkpt>
      <trkpt lat="48.60363" lon="2.1396">
        <ele>98</ele>
        <time>2019-10-28T12:17:40.000Z</time>
      </trkpt>
      <trkpt lat="48.60365" lon="2.1396">
        <ele>98</ele>
        <time>2019-10-28T12:17:41.000Z</time>
      </trkpt>
      <trkpt lat="48.60366" lon="2.13959">
        <ele>99</ele>
        <time>2019-10-28T12:17:42.000Z</time>
      </trkpt>
      <trkpt lat="48.60367" lon="2.13959">
        <ele>99</ele>
        <time>2019-10-28T12:17:43.000Z</time>
      </trkpt>
      <trkpt lat="48.60369" lon="2.13959">
        <ele>99</ele>
        <time>2019-10-28T12:17:44.000Z</time>
      </trkpt>
      <trkpt lat="48.6037" lon="2.13958">
        <ele>99</ele>
        <time>2019-10-28T12:17:45.000Z</time>
      </trkpt>
      <trkpt lat="48.60371" lon="2.13958">
        <ele>99</ele>
        <time>2019-10-28T12:17:46.000Z</time>
      </trkpt>
      <trkpt lat="48.60373" lon="2.13958">
        <ele>99</ele>
        <time>2019-10-28T12:17:47.000Z</time>
      </trkpt>
      <trkpt lat="48.60374" lon="2.13958">
        <ele>99</ele>
        <time>2019-10-28T12:17:48.000Z</time>
      </trkpt>
      <trkpt lat="48.60375" lon="2.13958">
        <ele>99</ele>
        <time>2019-10-28T12:17:49.000Z</time>
      </trkpt>
      <trkpt lat="48.60377" lon="2.13958">
        <ele>99</ele>
        <time>2019-10-28T12:17:50.000Z</time>
      </trkpt>
      <trkpt lat="48.60378" lon="2.13958">
        <ele>98</ele>
        <time>2019-10-28T12:17:51.000Z</time>
      </trkpt>
      <trkpt lat="48.60379" lon="2.13959">
        <ele>98</ele>
        <time>2019-10-28T12:17:52.000Z</time>
      </trkpt>
      <trkpt lat="48.60381" lon="2.13959">
        <ele>98</ele>
        <time>2019-10-28T12:17:53.000Z</time>
      </trkpt>
      <trkpt lat="48.60382" lon="2.13959">
        <ele>98</ele>
        <time>2019-10-28T12:17:54.000Z</time>
      </trkpt>
      <trkpt lat="48.60383" lon="2.13959">
        <ele>99</ele>
        <time>2019-10-28T12:17:55.000Z</time>
      </trkpt>
      <trkpt lat="48.60385" lon="2.1396">
        <ele>99</ele>
        <time>2019-10-28T12:17:56.000Z</time>
      </trkpt>
      <trkpt lat="48.60386" lon="2.1396">
        <ele>99</ele>
        <time>2019-10-28T12:17:57.000Z</time>
      </trkpt>
      <trkpt lat="48.60387" lon="2.1396">
        <ele>99</ele>
        <time>2019-10-28T12:17:58.000Z</time>
      </trkpt>
      <trkpt lat="48.60389" lon="2.1396">
        <ele>99</ele>
        <time>2019-10-28T12:17:59.000Z</time>
      </trkpt>
      <trkpt lat="48.6039" lon="2.1396">
        <ele>98</ele>
        <time>2019-10-28T12:18:00.000Z</time>
      </trkpt>
      <trkpt lat="48.60391" lon="2.1396">
        <ele>98</ele>
        <time>2019-10-28T12:18:01.000Z</time>
      </trkpt>
      <trkpt lat="48.60392" lon="2.1396">
        <ele>98</ele>
        <time>2019-10-28T12:18:02.000Z</time>
      </trkpt>
      <trkpt lat="48.60394" lon="2.1396">
        <ele>98</ele>
        <time>2019-10-28T12:18:03.000Z</time>
      </trkpt>
      <trkpt lat="48.60395" lon="2.1396">
        <ele>98</ele>
        <time>2019-10-28T12:18:04.000Z</time>
      </trkpt>
      <trkpt lat="48.60396" lon="2.1396">
        <ele>98</ele>
        <time>2019-10-28T12:18:05.000Z</time>
      </trkpt>
      <trkpt lat="48.60397" lon="2.1396">
        <ele>98</ele>
        <time>2019-10-28T12:18:06.000Z</time>
      </trkpt>
      <trkpt lat="48.60398" lon="2.13961">
        <ele>98</ele>
        <time>2019-10-28T12:18:07.000Z</time>
      </trkpt>
      <trkpt lat="48.60399" lon="2.13961">
        <ele>98</ele>
        <time>2019-10-28T12:18:08.000Z</time>
      </trkpt>
      <trkpt lat="48.60401" lon="2.13962">
        <ele>98</ele>
        <time>2019-10-28T12:18:09.000Z</time>
      </trkpt>
      <trkpt lat="48.60402" lon="2.13962">
        <ele>98</ele>
        <time>2019-10-28T12:18:10.000Z</time>
      </trkpt>
      <trkpt lat="48.60403" lon="2.13963">
        <ele>98</ele>
        <time>2019-10-28T12:18:11.000Z</time>
      </trkpt>
      <trkpt lat="48.60404" lon="2.13963">
        <ele>98</ele>
        <time>2019-10-28T12:18:12.000Z</time>
      </trkpt>
      <trkpt lat="48.60405" lon="2.13964">
        <ele>98</ele>
        <time>2019-10-28T12:18:13.000Z</time>
      </trkpt>
      <trkpt lat="48.60407" lon="2.13964">
        <ele>98</ele>
        <time>2019-10-28T12:18:14.000Z</time>
      </trkpt>
      <trkpt lat="48.60408" lon="2.13965">
        <ele>98</ele>
        <time>2019-10-28T12:18:15.000Z</time>
      </trkpt>
      <trkpt lat="48.60409" lon="2.13965">
        <ele>98</ele>
        <time>2019-10-28T12:18:16.000Z</time>
      </trkpt>
      <trkpt lat="48.60411" lon="2.13965">
        <ele>98</ele>
        <time>2019-10-28T12:18:17.000Z</time>
      </trkpt>
      <trkpt lat="48.60412" lon="2.13964">
        <ele>98</ele>
        <time>2019-10-28T12:18:18.000Z</time>
      </trkpt>
      <trkpt lat="48.60413" lon="2.13964">
        <ele>98</ele>
        <time>2019-10-28T12:18:19.000Z</time>
      </trkpt>
      <trkpt lat="48.60414" lon="2.13963">
        <ele>98</ele>
        <time>2019-10-28T12:18:20.000Z</time>
      </trkpt>
      <trkpt lat="48.60415" lon="2.13962">
        <ele>98</ele>
        <time>2019-10-28T12:18:21.000Z</time>
      </trkpt>
      <trkpt lat="48.60416" lon="2.13961">
        <ele>98</ele>
        <time>2019-10-28T12:18:22.000Z</time>
      </trkpt>
      <trkpt lat="48.60417" lon="2.13959">
        <ele>98</ele>
        <time>2019-10-28T12:18:23.000Z</time>
      </trkpt>
      <trkpt lat="48.60418" lon="2.13958">
        <ele>98</ele>
        <time>2019-10-28T12:18:24.000Z</time>
      </trkpt>
      <trkpt lat="48.60418" lon="2.13956">
        <ele>98</ele>
        <time>2019-10-28T12:18:25.000Z</time>
      </trkpt>
      <trkpt lat="48.60419" lon="2.13955">
        <ele>98</ele>
        <time>2019-10-28T12:18:26.000Z</time>
      </trkpt>
      <trkpt lat="48.60419" lon="2.13953">
        <ele>98</ele>
        <time>2019-10-28T12:18:27.000Z</time>
      </trkpt>
      <trkpt lat="48.60419" lon="2.13951">
        <ele>98</ele>
        <time>2019-10-28T12:18:28.000Z</time>
      </trkpt>
      <trkpt lat="48.60419" lon="2.1395">
        <ele>98</ele>
        <time>2019-10-28T12:18:29.000Z</time>
      </trkpt>
      <trkpt lat="48.60419" lon="2.13948">
        <ele>98</ele>
        <time>2019-10-28T12:18:30.000Z</time>
      </trkpt>
      <trkpt lat="48.60418" lon="2.13946">
        <ele>98</ele>
        <time>2019-10-28T12:18:31.000Z</time>
      </trkpt>
      <trkpt lat="48.60418" lon="2.13945">
        <ele>98</ele>
        <time>2019-10-28T12:18:32.000Z</time>
      </trkpt>
      <trkpt lat="48.60417" lon="2.13943">
        <ele>98</ele>
        <time>2019-10-28T12:18:33.000Z</time>
      </trkpt>
      <trkpt lat="48.60416" lon="2.13942">
        <ele>98</ele>
        <time>2019-10-28T12:18:34.000Z</time>
      </trkpt>
      <trkpt lat="48.60415" lon="2.13941">
        <ele>98</ele>
        <time>2019-10-28T12:18:35.000Z</time>
      </trkpt>
      <trkpt lat="48.60414" lon="2.13939">
        <ele>98</ele>
        <time>2019-10-28T12:18:36.000Z</time>
      </trkpt>
      <trkpt lat="48.60412" lon="2.13938">
        <ele>98</ele>
        <time>2019-10-28T12:18:37.000Z</time>
      </trkpt>
      <trkpt lat="48.60411" lon="2.13937">
        <ele>98</ele>
        <time>2019-10-28T12:18:38.000Z</time>
      </trkpt>
      <trkpt lat="48.6041" lon="2.13936">
        <ele>98</ele>
        <time>2019-10-28T12:18:39.000Z</time>
      </trkpt>
      <trkpt lat="48.60409" lon="2.13935">
        <ele>98</ele>
        <time>2019-10-28T12:18:40.000Z</time>
      </trkpt>
      <trkpt lat="48.60407" lon="2.13934">
        <ele>98</ele>
        <time>2019-10-28T12:18:41.000Z</time>
      </trkpt>
      <trkpt lat="48.60406" lon="2.13933">
        <ele>98</ele>
        <time>2019-10-28T12:18:42.000Z</time>
      </trkpt>
      <trkpt lat="48.60405" lon="2.13932">
        <ele>98</ele>
        <time>2019-10-28T12:18:43.000Z</time>
      </trkpt>
      <trkpt lat="48.60404" lon="2.13931">
        <ele>98</ele>
        <time>2019-10-28T12:18:44.000Z</time>
      </trkpt>
      <trkpt lat="48.60403" lon="2.13929">
        <ele>98</ele>
        <time>2019-10-28T12:18:45.000Z</time>
      </trkpt>
      <trkpt lat="48.60402" lon="2.13928">
        <ele>98</ele>
        <time>2019-10-28T12:18:46.000Z</time>
      </trkpt>
      <trkpt lat="48.60401" lon="2.13926">
        <ele>98</ele>
        <time>2019-10-28T12:18:47.000Z</time>
      </trkpt>
      <trkpt lat="48.60401" lon="2.13924">
        <ele>98</ele>
        <time>2019-10-28T12:18:48.000Z</time>
      </trkpt>
      <trkpt lat="48.604" lon="2.13922">
        <ele>98</ele>
        <time>2019-10-28T12:18:49.000Z</time>
      </trkpt>
      <trkpt lat="48.604" lon="2.1392">
        <ele>98</ele>
        <time>2019-10-28T12:18:50.000Z</time>
      </trkpt>
      <trkpt lat="48.60399" lon="2.13918">
        <ele>98</ele>
        <time>2019-10-28T12:18:51.000Z</time>
      </trkpt>
      <trkpt lat="48.60399" lon="2.13916">
        <ele>98</ele>
        <time>2019-10-28T12:18:52.000Z</time>
      </trkpt>
      <trkpt lat="48.60398" lon="2.13914">
        <ele>98</ele>
        <time>2019-10-28T12:18:53.000Z</time>
      </trkpt>
      <trkpt lat="48.60398" lon="2.13913">
        <ele>98</ele>
        <time>2019-10-28T12:18:54.000Z</time>
      </trkpt>
      <trkpt lat="48.60398" lon="2.13911">
        <ele>98</ele>
        <time>2019-10-28T12:18:55.000Z</time>
      </trkpt>
      <trkpt lat="48.60397" lon="2.13909">
        <ele>98</ele>
        <time>2019-10-28T12:18:56.000Z</time>
      </trkpt>
      <trkpt lat="48.60397" lon="2.13907">
        <ele>98</ele>
        <time>2019-10-28T12:18:57.000Z</time>
      </trkpt>
      <trkpt lat="48.60397" lon="2.13905">
        <ele>98</ele>
        <time>2019-10-28T12:18:58.000Z</time>
      </trkpt>
      <trkpt lat="48.60396" lon="2.13903">
        <ele>98</ele>
        <time>2019-10-28T12:18:59.000Z</time>
      </trkpt>
      <trkpt lat="48.60396" lon="2.13901">
        <ele>98</ele>
        <time>2019-10-28T12:19:00.000Z</time>
      </trkpt>
      <trkpt lat="48.60396" lon="2.13899">
        <ele>98</ele>
        <time>2019-10-28T12:19:01.000Z</time>
      </trkpt>
      <trkpt lat="48.60395" lon="2.13898">
        <ele>98</ele>
        <time>2019-10-28T12:19:02.000Z</time>
      </trkpt>
      <trkpt lat="48.60395" lon="2.13896">
        <ele>98</ele>
        <time>2019-10-28T12:19:03.000Z</time>
      </trkpt>
      <trkpt lat="48.60395" lon="2.13894">
        <ele>98</ele>
        <time>2019-10-28T12:19:04.000Z</time>
      </trkpt>
      <trkpt lat="48.60394" lon="2.13893">
        <ele>98</ele>
        <time>2019-10-28T12:19:05.000Z</time>
      </trkpt>
      <trkpt lat="48.60394" lon="2.13891">
        <ele>98</ele>
        <time>2019-10-28T12:19:06.000Z</time>
      </trkpt>
      <trkpt lat="48.60394" lon="2.13889">
        <ele>98</ele>
        <time>2019-10-28T12:19:07.000Z</time>
      </trkpt>
      <trkpt lat="48.60393" lon="2.13887">
        <ele>98</ele>
        <time>2019-10-28T12:19:08.000Z</time>
      </trkpt>
      <trkpt lat="48.60393" lon="2.13885">
        <ele>98</ele>
        <time>2019-10-28T12:19:09.000Z</time>
      </trkpt>
      <trkpt lat="48.60393" lon="2.13883">
        <ele>98</ele>
        <time>2019-10-28T12:19:10.000Z</time>
      </trkpt>
      <trkpt lat="48.60392" lon="2.13881">
        <ele>98</ele>
        <time>2019-10-28T12:19:11.000Z</time>
      </trkpt>
      <trkpt lat="48.60392" lon="2.13879">
        <ele>98</ele>
        <time>2019-10-28T12:19:12.000Z</time>
      </trkpt>
      <trkpt lat="48.60391" lon="2.13878">
        <ele>98</ele>
        <time>2019-10-28T12:19:13.000Z</time>
      </trkpt>
      <trkpt lat="48.60391" lon="2.13876">
        <ele>98</ele>
        <time>2019-10-28T12:19:14.000Z</time>
      </trkpt>
      <trkpt lat="48.60391" lon="2.13875">
        <ele>98</ele>
        <time>2019-10-28T12:19:15.000Z</time>
      </trkpt>
      <trkpt lat="48.6039" lon="2.13873">
        <ele>98</ele>
        <time>2019-10-28T12:19:16.000Z</time>
      </trkpt>
      <trkpt lat="48.6039" lon="2.13871">
        <ele>98</ele>
        <time>2019-10-28T12:19:17.000Z</time>
      </trkpt>
      <trkpt lat="48.6039" lon="2.13869">
        <ele>98</ele>
        <time>2019-10-28T12:19:18.000Z</time>
      </trkpt>
      <trkpt lat="48.6039" lon="2.13867">
        <ele>98</ele>
        <time>2019-10-28T12:19:19.000Z</time>
      </trkpt>
      <trkpt lat="48.6039" lon="2.13865">
        <ele>98</ele>
        <time>2019-10-28T12:19:20.000Z</time>
      </trkpt>
      <trkpt lat="48.6039" lon="2.13863">
        <ele>99</ele>
        <time>2019-10-28T12:19:21.000Z</time>
      </trkpt>
      <trkpt lat="48.60389" lon="2.13861">
        <ele>99</ele>
        <time>2019-10-28T12:19:22.000Z</time>
      </trkpt>
      <trkpt lat="48.60389" lon="2.1386">
        <ele>99</ele>
        <time>2019-10-28T12:19:23.000Z</time>
      </trkpt>
      <trkpt lat="48.60389" lon="2.13858">
        <ele>99</ele>
        <time>2019-10-28T12:19:24.000Z</time>
      </trkpt>
      <trkpt lat="48.60388" lon="2.13856">
        <ele>99</ele>
        <time>2019-10-28T12:19:25.000Z</time>
      </trkpt>
      <trkpt lat="48.60388" lon="2.13854">
        <ele>99</ele>
        <time>2019-10-28T12:19:26.000Z</time>
      </trkpt>
      <trkpt lat="48.60388" lon="2.13852">
        <ele>99</ele>
        <time>2019-10-28T12:19:27.000Z</time>
      </trkpt>
      <trkpt lat="48.60388" lon="2.1385">
        <ele>99</ele>
        <time>2019-10-28T12:19:28.000Z</time>
      </trkpt>
      <trkpt lat="48.60388" lon="2.13848">
        <ele>99</ele>
        <time>2019-10-28T12:19:29.000Z</time>
      </trkpt>
      <trkpt lat="48.60388" lon="2.13846">
        <ele>99</ele>
        <time>2019-10-28T12:19:30.000Z</time>
      </trkpt>
      <trkpt lat="48.60388" lon="2.13844">
        <ele>99</ele>
        <time>2019-10-28T12:19:31.000Z</time>
      </trkpt>
      <trkpt lat="48.60388" lon="2.13842">
        <ele>99</ele>
        <time>2019-10-28T12:19:32.000Z</time>
      </trkpt>
      <trkpt lat="48.60388" lon="2.1384">
        <ele>99</ele>
        <time>2019-10-28T12:19:33.000Z</time>
      </trkpt>
      <trkpt lat="48.60388" lon="2.13838">
        <ele>99</ele>
        <time>2019-10-28T12:19:34.000Z</time>
      </trkpt>
      <trkpt lat="48.60388" lon="2.13836">
        <ele>99</ele>
        <time>2019-10-28T12:19:35.000Z</time>
      </trkpt>
      <trkpt lat="48.60388" lon="2.13834">
        <ele>99</ele>
        <time>2019-10-28T12:19:36.000Z</time>
      </trkpt>
      <trkpt lat="48.60388" lon="2.13832">
        <ele>99</ele>
        <time>2019-10-28T12:19:37.000Z</time>
      </trkpt>
      <trkpt lat="48.60388" lon="2.1383">
        <ele>99</ele>
        <time>2019-10-28T12:19:38.000Z</time>
      </trkpt>
      <trkpt lat="48.60387" lon="2.13828">
        <ele>99</ele>
        <time>2019-10-28T12:19:39.000Z</time>
      </trkpt>
      <trkpt lat="48.60387" lon="2.13825">
        <ele>99</ele>
        <time>2019-10-28T12:19:40.000Z</time>
      </trkpt>
      <trkpt lat="48.60387" lon="2.13824">
        <ele>99</ele>
        <time>2019-10-28T12:19:41.000Z</time>
      </trkpt>
      <trkpt lat="48.60387" lon="2.13822">
        <ele>99</ele>
        <time>2019-10-28T12:19:42.000Z</time>
      </trkpt>
      <trkpt lat="48.60387" lon="2.1382">
        <ele>99</ele>
        <time>2019-10-28T12:19:43.000Z</time>
      </trkpt>
      <trkpt lat="48.60386" lon="2.13818">
        <ele>99</ele>
        <time>2019-10-28T12:19:44.000Z</time>
      </trkpt>
      <trkpt lat="48.60386" lon="2.13815">
        <ele>99</ele>
        <time>2019-10-28T12:19:45.000Z</time>
      </trkpt>
      <trkpt lat="48.60386" lon="2.13813">
        <ele>99</ele>
        <time>2019-10-28T12:19:46.000Z</time>
      </trkpt>
      <trkpt lat="48.60386" lon="2.13811">
        <ele>99</ele>
        <time>2019-10-28T12:19:47.000Z</time>
      </trkpt>
      <trkpt lat="48.60386" lon="2.13809">
        <ele>99</ele>
        <time>2019-10-28T12:19:48.000Z</time>
      </trkpt>
      <trkpt lat="48.60386" lon="2.13807">
        <ele>99</ele>
        <time>2019-10-28T12:19:49.000Z</time>
      </trkpt>
      <trkpt lat="48.60385" lon="2.13805">
        <ele>99</ele>
        <time>2019-10-28T12:19:50.000Z</time>
      </trkpt>
      <trkpt lat="48.60385" lon="2.13803">
        <ele>99</ele>
        <time>2019-10-28T12:19:51.000Z</time>
      </trkpt>
      <trkpt lat="48.60385" lon="2.13801">
        <ele>99</ele>
        <time>2019-10-28T12:19:52.000Z</time>
      </trkpt>
      <trkpt lat="48.60385" lon="2.13799">
        <ele>99</ele>
        <time>2019-10-28T12:19:53.000Z</time>
      </trkpt>
      <trkpt lat="48.60385" lon="2.13797">
        <ele>99</ele>
        <time>2019-10-28T12:19:54.000Z</time>
      </trkpt>
      <trkpt lat="48.60385" lon="2.13794">
        <ele>99</ele>
        <time>2019-10-28T12:19:55.000Z</time>
      </trkpt>
      <trkpt lat="48.60384" lon="2.13792">
        <ele>99</ele>
        <time>2019-10-28T12:19:56.000Z</time>
      </trkpt>
      <trkpt lat="48.60384" lon="2.1379">
        <ele>99</ele>
        <time>2019-10-28T12:19:57.000Z</time>
      </trkpt>
      <trkpt lat="48.60384" lon="2.13788">
        <ele>99</ele>
        <time>2019-10-28T12:19:58.000Z</time>
      </trkpt>
      <trkpt lat="48.60384" lon="2.13786">
        <ele>99</ele>
        <time>2019-10-28T12:19:59.000Z</time>
      </trkpt>
      <trkpt lat="48.60383" lon="2.13784">
        <ele>99</ele>
        <time>2019-10-28T12:20:00.000Z</time>
      </trkpt>
      <trkpt lat="48.60383" lon="2.13782">
        <ele>99</ele>
        <time>2019-10-28T12:20:01.000Z</time>
      </trkpt>
      <trkpt lat="48.60383" lon="2.1378">
        <ele>99</ele>
        <time>2019-10-28T12:20:02.000Z</time>
      </trkpt>
      <trkpt lat="48.60383" lon="2.13778">
        <ele>99</ele>
        <time>2019-10-28T12:20:03.000Z</time>
      </trkpt>
      <trkpt lat="48.60382" lon="2.13776">
        <ele>99</ele>
        <time>2019-10-28T12:20:04.000Z</time>
      </trkpt>
      <trkpt lat="48.60382" lon="2.13774">
        <ele>99</ele>
        <time>2019-10-28T12:20:05.000Z</time>
      </trkpt>
      <trkpt lat="48.60382" lon="2.13772">
        <ele>100</ele>
        <time>2019-10-28T12:20:06.000Z</time>
      </trkpt>
      <trkpt lat="48.60382" lon="2.1377">
        <ele>100</ele>
        <time>2019-10-28T12:20:07.000Z</time>
      </trkpt>
      <trkpt lat="48.60382" lon="2.13768">
        <ele>100</ele>
        <time>2019-10-28T12:20:08.000Z</time>
      </trkpt>
      <trkpt lat="48.60381" lon="2.13766">
        <ele>100</ele>
        <time>2019-10-28T12:20:09.000Z</time>
      </trkpt>
      <trkpt lat="48.60381" lon="2.13764">
        <ele>100</ele>
        <time>2019-10-28T12:20:10.000Z</time>
      </trkpt>
      <trkpt lat="48.60381" lon="2.13762">
        <ele>100</ele>
        <time>2019-10-28T12:20:11.000Z</time>
      </trkpt>
      <trkpt lat="48.60381" lon="2.1376">
        <ele>100</ele>
        <time>2019-10-28T12:20:12.000Z</time>
      </trkpt>
      <trkpt lat="48.6038" lon="2.13758">
        <ele>100</ele>
        <time>2019-10-28T12:20:13.000Z</time>
      </trkpt>
      <trkpt lat="48.6038" lon="2.13756">
        <ele>100</ele>
        <time>2019-10-28T12:20:14.000Z</time>
      </trkpt>
      <trkpt lat="48.6038" lon="2.13754">
        <ele>100</ele>
        <time>2019-10-28T12:20:15.000Z</time>
      </trkpt>
      <trkpt lat="48.6038" lon="2.13752">
        <ele>100</ele>
        <time>2019-10-28T12:20:16.000Z</time>
      </trkpt>
      <trkpt lat="48.60379" lon="2.1375">
        <ele>100</ele>
        <time>2019-10-28T12:20:17.000Z</time>
      </trkpt>
      <trkpt lat="48.60379" lon="2.13748">
        <ele>100</ele>
        <time>2019-10-28T12:20:18.000Z</time>
      </trkpt>
      <trkpt lat="48.60379" lon="2.13746">
        <ele>100</ele>
        <time>2019-10-28T12:20:19.000Z</time>
      </trkpt>
      <trkpt lat="48.60378" lon="2.13744">
        <ele>100</ele>
        <time>2019-10-28T12:20:20.000Z</time>
      </trkpt>
      <trkpt lat="48.60378" lon="2.13742">
        <ele>100</ele>
        <time>2019-10-28T12:20:21.000Z</time>
      </trkpt>
      <trkpt lat="48.60378" lon="2.1374">
        <ele>100</ele>
        <time>2019-10-28T12:20:22.000Z</time>
      </trkpt>
      <trkpt lat="48.60378" lon="2.13738">
        <ele>100</ele>
        <time>2019-10-28T12:20:23.000Z</time>
      </trkpt>
      <trkpt lat="48.60377" lon="2.13736">
        <ele>100</ele>
        <time>2019-10-28T12:20:24.000Z</time>
      </trkpt>
      <trkpt lat="48.60377" lon="2.13734">
        <ele>100</ele>
        <time>2019-10-28T12:20:25.000Z</time>
      </trkpt>
      <trkpt lat="48.60377" lon="2.13732">
        <ele>100</ele>
        <time>2019-10-28T12:20:26.000Z</time>
      </trkpt>
      <trkpt lat="48.60377" lon="2.1373">
        <ele>100</ele>
        <time>2019-10-28T12:20:27.000Z</time>
      </trkpt>
      <trkpt lat="48.60377" lon="2.13728">
        <ele>100</ele>
        <time>2019-10-28T12:20:28.000Z</time>
      </trkpt>
      <trkpt lat="48.60377" lon="2.13726">
        <ele>100</ele>
        <time>2019-10-28T12:20:29.000Z</time>
      </trkpt>
      <trkpt lat="48.60377" lon="2.13724">
        <ele>100</ele>
        <time>2019-10-28T12:20:30.000Z</time>
      </trkpt>
      <trkpt lat="48.60376" lon="2.13722">
        <ele>100</ele>
        <time>2019-10-28T12:20:31.000Z</time>
      </trkpt>
      <trkpt lat="48.60376" lon="2.13719">
        <ele>100</ele>
        <time>2019-10-28T12:20:32.000Z</time>
      </trkpt>
      <trkpt lat="48.60376" lon="2.13717">
        <ele>100</ele>
        <time>2019-10-28T12:20:33.000Z</time>
      </trkpt>
      <trkpt lat="48.60376" lon="2.13715">
        <ele>100</ele>
        <time>2019-10-28T12:20:34.000Z</time>
      </trkpt>
      <trkpt lat="48.60376" lon="2.13713">
        <ele>100</ele>
        <time>2019-10-28T12:20:35.000Z</time>
      </trkpt>
      <trkpt lat="48.60375" lon="2.13711">
        <ele>100</ele>
        <time>2019-10-28T12:20:36.000Z</time>
      </trkpt>
      <trkpt lat="48.60375" lon="2.13709">
        <ele>100</ele>
        <time>2019-10-28T12:20:37.000Z</time>
      </trkpt>
      <trkpt lat="48.60375" lon="2.13707">
        <ele>100</ele>
        <time>2019-10-28T12:20:38.000Z</time>
      </trkpt>
      <trkpt lat="48.60375" lon="2.13705">
        <ele>100</ele>
        <time>2019-10-28T12:20:39.000Z</time>
      </trkpt>
      <trkpt lat="48.60374" lon="2.13703">
        <ele>100</ele>
        <time>2019-10-28T12:20:40.000Z</time>
      </trkpt>
      <trkpt lat="48.60374" lon="2.13701">
        <ele>100</ele>
        <time>2019-10-28T12:20:41.000Z</time>
      </trkpt>
      <trkpt lat="48.60374" lon="2.13699">
        <ele>100</ele>
        <time>2019-10-28T12:20:42.000Z</time>
      </trkpt>
      <trkpt lat="48.60374" lon="2.13697">
        <ele>100</ele>
        <time>2019-10-28T12:20:43.000Z</time>
      </trkpt>
      <trkpt lat="48.60374" lon="2.13695">
        <ele>100</ele>
        <time>2019-10-28T12:20:44.000Z</time>
      </trkpt>
      <trkpt lat="48.60374" lon="2.13694">
        <ele>100</ele>
        <time>2019-10-28T12:20:45.000Z</time>
      </trkpt>
      <trkpt lat="48.60374" lon="2.13692">
        <ele>100</ele>
        <time>2019-10-28T12:20:46.000Z</time>
      </trkpt>
      <trkpt lat="48.60374" lon="2.1369">
        <ele>100</ele>
        <time>2019-10-28T12:20:47.000Z</time>
      </trkpt>
      <trkpt lat="48.60374" lon="2.13688">
        <ele>100</ele>
        <time>2019-10-28T12:20:48.000Z</time>
      </trkpt>
      <trkpt lat="48.60374" lon="2.13685">
        <ele>100</ele>
        <time>2019-10-28T12:20:49.000Z</time>
      </trkpt>
      <trkpt lat="48.60373" lon="2.13683">
        <ele>100</ele>
        <time>2019-10-28T12:20:50.000Z</time>
      </trkpt>
      <trkpt lat="48.60373" lon="2.13681">
        <ele>100</ele>
        <time>2019-10-28T12:20:51.000Z</time>
      </trkpt>
      <trkpt lat="48.60373" lon="2.13679">
        <ele>100</ele>
        <time>2019-10-28T12:20:52.000Z</time>
      </trkpt>
      <trkpt lat="48.60373" lon="2.13677">
        <ele>100</ele>
        <time>2019-10-28T12:20:53.000Z</time>
      </trkpt>
      <trkpt lat="48.60372" lon="2.13675">
        <ele>100</ele>
        <time>2019-10-28T12:20:54.000Z</time>
      </trkpt>
      <trkpt lat="48.60372" lon="2.13673">
        <ele>100</ele>
        <time>2019-10-28T12:20:55.000Z</time>
      </trkpt>
      <trkpt lat="48.60372" lon="2.13671">
        <ele>100</ele>
        <time>2019-10-28T12:20:56.000Z</time>
      </trkpt>
      <trkpt lat="48.60372" lon="2.13669">
        <ele>100</ele>
        <time>2019-10-28T12:20:57.000Z</time>
      </trkpt>
      <trkpt lat="48.60372" lon="2.13667">
        <ele>100</ele>
        <time>2019-10-28T12:20:58.000Z</time>
      </trkpt>
      <trkpt lat="48.60372" lon="2.13664">
        <ele>100</ele>
        <time>2019-10-28T12:20:59.000Z</time>
      </trkpt>
      <trkpt lat="48.60372" lon="2.13662">
        <ele>100</ele>
        <time>2019-10-28T12:21:00.000Z</time>
      </trkpt>
      <trkpt lat="48.60372" lon="2.1366">
        <ele>100</ele>
        <time>2019-10-28T12:21:01.000Z</time>
      </trkpt>
      <trkpt lat="48.60372" lon="2.13658">
        <ele>100</ele>
        <time>2019-10-28T12:21:02.000Z</time>
      </trkpt>
      <trkpt lat="48.60372" lon="2.13656">
        <ele>100</ele>
        <time>2019-10-28T12:21:03.000Z</time>
      </trkpt>
      <trkpt lat="48.60371" lon="2.13654">
        <ele>100</ele>
        <time>2019-10-28T12:21:04.000Z</time>
      </trkpt>
      <trkpt lat="48.60371" lon="2.13652">
        <ele>100</ele>
        <time>2019-10-28T12:21:05.000Z</time>
      </trkpt>
      <trkpt lat="48.60371" lon="2.1365">
        <ele>100</ele>
        <time>2019-10-28T12:21:06.000Z</time>
      </trkpt>
      <trkpt lat="48.60371" lon="2.13648">
        <ele>100</ele>
        <time>2019-10-28T12:21:07.000Z</time>
      </trkpt>
      <trkpt lat="48.6037" lon="2.13646">
        <ele>100</ele>
        <time>2019-10-28T12:21:08.000Z</time>
      </trkpt>
      <trkpt lat="48.6037" lon="2.13644">
        <ele>100</ele>
        <time>2019-10-28T12:21:09.000Z</time>
      </trkpt>
      <trkpt lat="48.6037" lon="2.13642">
        <ele>100</ele>
        <time>2019-10-28T12:21:10.000Z</time>
      </trkpt>
      <trkpt lat="48.6037" lon="2.1364">
        <ele>100</ele>
        <time>2019-10-28T12:21:11.000Z</time>
      </trkpt>
      <trkpt lat="48.60369" lon="2.13638">
        <ele>100</ele>
        <time>2019-10-28T12:21:12.000Z</time>
      </trkpt>
      <trkpt lat="48.60369" lon="2.13636">
        <ele>100</ele>
        <time>2019-10-28T12:21:13.000Z</time>
      </trkpt>
      <trkpt lat="48.60369" lon="2.13634">
        <ele>100</ele>
        <time>2019-10-28T12:21:14.000Z</time>
      </trkpt>
      <trkpt lat="48.60369" lon="2.13631">
        <ele>100</ele>
        <time>2019-10-28T12:21:15.000Z</time>
      </trkpt>
      <trkpt lat="48.60369" lon="2.13629">
        <ele>100</ele>
        <time>2019-10-28T12:21:16.000Z</time>
      </trkpt>
      <trkpt lat="48.60369" lon="2.13627">
        <ele>100</ele>
        <time>2019-10-28T12:21:17.000Z</time>
      </trkpt>
      <trkpt lat="48.60368" lon="2.13625">
        <ele>100</ele>
        <time>2019-10-28T12:21:18.000Z</time>
      </trkpt>
      <trkpt lat="48.60368" lon="2.13623">
        <ele>100</ele>
        <time>2019-10-28T12:21:19.000Z</time>
      </trkpt>
      <trkpt lat="48.60368" lon="2.13621">
        <ele>100</ele>
        <time>2019-10-28T12:21:20.000Z</time>
      </trkpt>
      <trkpt lat="48.60368" lon="2.13619">
        <ele>100</ele>
        <time>2019-10-28T12:21:21.000Z</time>
      </trkpt>
      <trkpt lat="48.60367" lon="2.13616">
        <ele>100</ele>
        <time>2019-10-28T12:21:22.000Z</time>
      </trkpt>
      <trkpt lat="48.60367" lon="2.13614">
        <ele>101</ele>
        <time>2019-10-28T12:21:23.000Z</time>
      </trkpt>
      <trkpt lat="48.60367" lon="2.13612">
        <ele>100</ele>
        <time>2019-10-28T12:21:24.000Z</time>
      </trkpt>
      <trkpt lat="48.60367" lon="2.1361">
        <ele>100</ele>
        <time>2019-10-28T12:21:25.000Z</time>
      </trkpt>
      <trkpt lat="48.60367" lon="2.13608">
        <ele>100</ele>
        <time>2019-10-28T12:21:26.000Z</time>
      </trkpt>
      <trkpt lat="48.60367" lon="2.13606">
        <ele>100</ele>
        <time>2019-10-28T12:21:27.000Z</time>
      </trkpt>
      <trkpt lat="48.60366" lon="2.13604">
        <ele>100</ele>
        <time>2019-10-28T12:21:28.000Z</time>
      </trkpt>
      <trkpt lat="48.60366" lon="2.13601">
        <ele>100</ele>
        <time>2019-10-28T12:21:29.000Z</time>
      </trkpt>
      <trkpt lat="48.60366" lon="2.13599">
        <ele>100</ele>
        <time>2019-10-28T12:21:30.000Z</time>
      </trkpt>
      <trkpt lat="48.60366" lon="2.13597">
        <ele>100</ele>
        <time>2019-10-28T12:21:31.000Z</time>
      </trkpt>
      <trkpt lat="48.60365" lon="2.13595">
        <ele>100</ele>
        <time>2019-10-28T12:21:32.000Z</time>
      </trkpt>
      <trkpt lat="48.60365" lon="2.13593">
        <ele>99</ele>
        <time>2019-10-28T12:21:33.000Z</time>
      </trkpt>
      <trkpt lat="48.60365" lon="2.13591">
        <ele>99</ele>
        <time>2019-10-28T12:21:34.000Z</time>
      </trkpt>
      <trkpt lat="48.60365" lon="2.13589">
        <ele>99</ele>
        <time>2019-10-28T12:21:35.000Z</time>
      </trkpt>
      <trkpt lat="48.60364" lon="2.13587">
        <ele>99</ele>
        <time>2019-10-28T12:21:36.000Z</time>
      </trkpt>
      <trkpt lat="48.60364" lon="2.13584">
        <ele>99</ele>
        <time>2019-10-28T12:21:37.000Z</time>
      </trkpt>
      <trkpt lat="48.60364" lon="2.13582">
        <ele>99</ele>
        <time>2019-10-28T12:21:38.000Z</time>
      </trkpt>
      <trkpt lat="48.60364" lon="2.1358">
        <ele>99</ele>
        <time>2019-10-28T12:21:39.000Z</time>
      </trkpt>
      <trkpt lat="48.60364" lon="2.13578">
        <ele>99</ele>
        <time>2019-10-28T12:21:40.000Z</time>
      </trkpt>
      <trkpt lat="48.60363" lon="2.13576">
        <ele>99</ele>
        <time>2019-10-28T12:21:41.000Z</time>
      </trkpt>
      <trkpt lat="48.60363" lon="2.13574">
        <ele>99</ele>
        <time>2019-10-28T12:21:42.000Z</time>
      </trkpt>
      <trkpt lat="48.60363" lon="2.13572">
        <ele>99</ele>
        <time>2019-10-28T12:21:43.000Z</time>
      </trkpt>
      <trkpt lat="48.60363" lon="2.1357">
        <ele>99</ele>
        <time>2019-10-28T12:21:44.000Z</time>
      </trkpt>
      <trkpt lat="48.60362" lon="2.13568">
        <ele>99</ele>
        <time>2019-10-28T12:21:45.000Z</time>
      </trkpt>
      <trkpt lat="48.60362" lon="2.13566">
        <ele>99</ele>
        <time>2019-10-28T12:21:46.000Z</time>
      </trkpt>
      <trkpt lat="48.60362" lon="2.13564">
        <ele>99</ele>
        <time>2019-10-28T12:21:47.000Z</time>
      </trkpt>
      <trkpt lat="48.60362" lon="2.13562">
        <ele>99</ele>
        <time>2019-10-28T12:21:48.000Z</time>
      </trkpt>
      <trkpt lat="48.60362" lon="2.1356">
        <ele>99</ele>
        <time>2019-10-28T12:21:49.000Z</time>
      </trkpt>
      <trkpt lat="48.60361" lon="2.13558">
        <ele>99</ele>
        <time>2019-10-28T12:21:50.000Z</time>
      </trkpt>
      <trkpt lat="48.60361" lon="2.13555">
        <ele>99</ele>
        <time>2019-10-28T12:21:51.000Z</time>
      </trkpt>
      <trkpt lat="48.60361" lon="2.13553">
        <ele>99</ele>
        <time>2019-10-28T12:21:52.000Z</time>
      </trkpt>
      <trkpt lat="48.60361" lon="2.13551">
        <ele>100</ele>
        <time>2019-10-28T12:21:53.000Z</time>
      </trkpt>
      <trkpt lat="48.60361" lon="2.13549">
        <ele>100</ele>
        <time>2019-10-28T12:21:54.000Z</time>
      </trkpt>
      <trkpt lat="48.60361" lon="2.13547">
        <ele>100</ele>
        <time>2019-10-28T12:21:55.000Z</time>
      </trkpt>
      <trkpt lat="48.60361" lon="2.13545">
        <ele>100</ele>
        <time>2019-10-28T12:21:56.000Z</time>
      </trkpt>
      <trkpt lat="48.6036" lon="2.13542">
        <ele>100</ele>
        <time>2019-10-28T12:21:57.000Z</time>
      </trkpt>
      <trkpt lat="48.6036" lon="2.1354">
        <ele>100</ele>
        <time>2019-10-28T12:21:58.000Z</time>
      </trkpt>
      <trkpt lat="48.6036" lon="2.13538">
        <ele>100</ele>
        <time>2019-10-28T12:21:59.000Z</time>
      </trkpt>
      <trkpt lat="48.60359" lon="2.13535">
        <ele>100</ele>
        <time>2019-10-28T12:22:00.000Z</time>
      </trkpt>
      <trkpt lat="48.60359" lon="2.13533">
        <ele>100</ele>
        <time>2019-10-28T12:22:01.000Z</time>
      </trkpt>
      <trkpt lat="48.60359" lon="2.13531">
        <ele>100</ele>
        <time>2019-10-28T12:22:02.000Z</time>
      </trkpt>
      <trkpt lat="48.60359" lon="2.13529">
        <ele>100</ele>
        <time>2019-10-28T12:22:03.000Z</time>
      </trkpt>
      <trkpt lat="48.60359" lon="2.13527">
        <ele>100</ele>
        <time>2019-10-28T12:22:04.000Z</time>
      </trkpt>
      <trkpt lat="48.60358" lon="2.13525">
        <ele>100</ele>
        <time>2019-10-28T12:22:05.000Z</time>
      </trkpt>
      <trkpt lat="48.60358" lon="2.13523">
        <ele>100</ele>
        <time>2019-10-28T12:22:06.000Z</time>
      </trkpt>
      <trkpt lat="48.60358" lon="2.13521">
        <ele>100</ele>
        <time>2019-10-28T12:22:07.000Z</time>
      </trkpt>
      <trkpt lat="48.60358" lon="2.1352">
        <ele>100</ele>
        <time>2019-10-28T12:22:08.000Z</time>
      </trkpt>
      <trkpt lat="48.60358" lon="2.13518">
        <ele>100</ele>
        <time>2019-10-28T12:22:09.000Z</time>
      </trkpt>
      <trkpt lat="48.60357" lon="2.13516">
        <ele>100</ele>
        <time>2019-10-28T12:22:10.000Z</time>
      </trkpt>
      <trkpt lat="48.60357" lon="2.13514">
        <ele>100</ele>
        <time>2019-10-28T12:22:11.000Z</time>
      </trkpt>
      <trkpt lat="48.60357" lon="2.13513">
        <ele>100</ele>
        <time>2019-10-28T12:22:12.000Z</time>
      </trkpt>
      <trkpt lat="48.60357" lon="2.13511">
        <ele>100</ele>
        <time>2019-10-28T12:22:13.000Z</time>
      </trkpt>
      <trkpt lat="48.60357" lon="2.13509">
        <ele>99</ele>
        <time>2019-10-28T12:22:14.000Z</time>
      </trkpt>
      <trkpt lat="48.60357" lon="2.13508">
        <ele>100</ele>
        <time>2019-10-28T12:22:15.000Z</time>
      </trkpt>
      <trkpt lat="48.60356" lon="2.13505">
        <ele>100</ele>
        <time>2019-10-28T12:22:16.000Z</time>
      </trkpt>
      <trkpt lat="48.60356" lon="2.13503">
        <ele>100</ele>
        <time>2019-10-28T12:22:17.000Z</time>
      </trkpt>
      <trkpt lat="48.60356" lon="2.13501">
        <ele>100</ele>
        <time>2019-10-28T12:22:18.000Z</time>
      </trkpt>
      <trkpt lat="48.60356" lon="2.13499">
        <ele>100</ele>
        <time>2019-10-28T12:22:19.000Z</time>
      </trkpt>
      <trkpt lat="48.60355" lon="2.13497">
        <ele>100</ele>
        <time>2019-10-28T12:22:20.000Z</time>
      </trkpt>
      <trkpt lat="48.60355" lon="2.13495">
        <ele>100</ele>
        <time>2019-10-28T12:22:21.000Z</time>
      </trkpt>
      <trkpt lat="48.60355" lon="2.13493">
        <ele>100</ele>
        <time>2019-10-28T12:22:22.000Z</time>
      </trkpt>
      <trkpt lat="48.60355" lon="2.13491">
        <ele>101</ele>
        <time>2019-10-28T12:22:23.000Z</time>
      </trkpt>
      <trkpt lat="48.60355" lon="2.13489">
        <ele>101</ele>
        <time>2019-10-28T12:22:24.000Z</time>
      </trkpt>
      <trkpt lat="48.60355" lon="2.13487">
        <ele>101</ele>
        <time>2019-10-28T12:22:25.000Z</time>
      </trkpt>
      <trkpt lat="48.60354" lon="2.13485">
        <ele>101</ele>
        <time>2019-10-28T12:22:26.000Z</time>
      </trkpt>
      <trkpt lat="48.60354" lon="2.13483">
        <ele>101</ele>
        <time>2019-10-28T12:22:27.000Z</time>
      </trkpt>
      <trkpt lat="48.60354" lon="2.13481">
        <ele>101</ele>
        <time>2019-10-28T12:22:28.000Z</time>
      </trkpt>
      <trkpt lat="48.60354" lon="2.13479">
        <ele>100</ele>
        <time>2019-10-28T12:22:29.000Z</time>
      </trkpt>
      <trkpt lat="48.60354" lon="2.13477">
        <ele>100</ele>
        <time>2019-10-28T12:22:30.000Z</time>
      </trkpt>
      <trkpt lat="48.60353" lon="2.13475">
        <ele>100</ele>
        <time>2019-10-28T12:22:31.000Z</time>
      </trkpt>
      <trkpt lat="48.60353" lon="2.13473">
        <ele>100</ele>
        <time>2019-10-28T12:22:32.000Z</time>
      </trkpt>
      <trkpt lat="48.60353" lon="2.13471">
        <ele>100</ele>
        <time>2019-10-28T12:22:33.000Z</time>
      </trkpt>
      <trkpt lat="48.60353" lon="2.13469">
        <ele>100</ele>
        <time>2019-10-28T12:22:34.000Z</time>
      </trkpt>
      <trkpt lat="48.60353" lon="2.13468">
        <ele>100</ele>
        <time>2019-10-28T12:22:35.000Z</time>
      </trkpt>
      <trkpt lat="48.60353" lon="2.13468">
        <ele>100</ele>
        <time>2019-10-28T12:22:36.000Z</time>
      </trkpt>
      <trkpt lat="48.60353" lon="2.13467">
        <ele>100</ele>
        <time>2019-10-28T12:22:37.000Z</time>
      </trkpt>
      <trkpt lat="48.60353" lon="2.13467">
        <ele>100</ele>
        <time>2019-10-28T12:22:38.000Z</time>
      </trkpt>
      <trkpt lat="48.60353" lon="2.13465">
        <ele>100</ele>
        <time>2019-10-28T12:22:39.000Z</time>
      </trkpt>
      <trkpt lat="48.60352" lon="2.13464">
        <ele>100</ele>
        <time>2019-10-28T12:22:40.000Z</time>
      </trkpt>
      <trkpt lat="48.60352" lon="2.13462">
        <ele>100</ele>
        <time>2019-10-28T12:22:41.000Z</time>
      </trkpt>
      <trkpt lat="48.60352" lon="2.1346">
        <ele>100</ele>
        <time>2019-10-28T12:22:42.000Z</time>
      </trkpt>
      <trkpt lat="48.60352" lon="2.13458">
        <ele>100</ele>
        <time>2019-10-28T12:22:43.000Z</time>
      </trkpt>
      <trkpt lat="48.60352" lon="2.13456">
        <ele>99</ele>
        <time>2019-10-28T12:22:44.000Z</time>
      </trkpt>
      <trkpt lat="48.60351" lon="2.13454">
        <ele>99</ele>
        <time>2019-10-28T12:22:45.000Z</time>
      </trkpt>
      <trkpt lat="48.60351" lon="2.13452">
        <ele>99</ele>
        <time>2019-10-28T12:22:46.000Z</time>
      </trkpt>
      <trkpt lat="48.60351" lon="2.1345">
        <ele>99</ele>
        <time>2019-10-28T12:22:47.000Z</time>
      </trkpt>
      <trkpt lat="48.60351" lon="2.13447">
        <ele>100</ele>
        <time>2019-10-28T12:22:48.000Z</time>
      </trkpt>
      <trkpt lat="48.6035" lon="2.13445">
        <ele>100</ele>
        <time>2019-10-28T12:22:49.000Z</time>
      </trkpt>
      <trkpt lat="48.6035" lon="2.13443">
        <ele>100</ele>
        <time>2019-10-28T12:22:50.000Z</time>
      </trkpt>
      <trkpt lat="48.6035" lon="2.13441">
        <ele>100</ele>
        <time>2019-10-28T12:22:51.000Z</time>
      </trkpt>
      <trkpt lat="48.6035" lon="2.13439">
        <ele>100</ele>
        <time>2019-10-28T12:22:52.000Z</time>
      </trkpt>
      <trkpt lat="48.6035" lon="2.13437">
        <ele>100</ele>
        <time>2019-10-28T12:22:53.000Z</time>
      </trkpt>
      <trkpt lat="48.60349" lon="2.13435">
        <ele>100</ele>
        <time>2019-10-28T12:22:54.000Z</time>
      </trkpt>
      <trkpt lat="48.60349" lon="2.13433">
        <ele>100</ele>
        <time>2019-10-28T12:22:55.000Z</time>
      </trkpt>
      <trkpt lat="48.60349" lon="2.13431">
        <ele>100</ele>
        <time>2019-10-28T12:22:56.000Z</time>
      </trkpt>
      <trkpt lat="48.60349" lon="2.13429">
        <ele>99</ele>
        <time>2019-10-28T12:22:57.000Z</time>
      </trkpt>
      <trkpt lat="48.60349" lon="2.13427">
        <ele>99</ele>
        <time>2019-10-28T12:22:58.000Z</time>
      </trkpt>
      <trkpt lat="48.60349" lon="2.13425">
        <ele>100</ele>
        <time>2019-10-28T12:22:59.000Z</time>
      </trkpt>
      <trkpt lat="48.60349" lon="2.13423">
        <ele>100</ele>
        <time>2019-10-28T12:23:00.000Z</time>
      </trkpt>
      <trkpt lat="48.60348" lon="2.13421">
        <ele>100</ele>
        <time>2019-10-28T12:23:01.000Z</time>
      </trkpt>
      <trkpt lat="48.60348" lon="2.13419">
        <ele>100</ele>
        <time>2019-10-28T12:23:02.000Z</time>
      </trkpt>
      <trkpt lat="48.60348" lon="2.13417">
        <ele>100</ele>
        <time>2019-10-28T12:23:03.000Z</time>
      </trkpt>
      <trkpt lat="48.60348" lon="2.13415">
        <ele>100</ele>
        <time>2019-10-28T12:23:04.000Z</time>
      </trkpt>
      <trkpt lat="48.60348" lon="2.13413">
        <ele>100</ele>
        <time>2019-10-28T12:23:05.000Z</time>
      </trkpt>
      <trkpt lat="48.60348" lon="2.13411">
        <ele>99</ele>
        <time>2019-10-28T12:23:06.000Z</time>
      </trkpt>
      <trkpt lat="48.60348" lon="2.13409">
        <ele>99</ele>
        <time>2019-10-28T12:23:07.000Z</time>
      </trkpt>
      <trkpt lat="48.60347" lon="2.13407">
        <ele>100</ele>
        <time>2019-10-28T12:23:08.000Z</time>
      </trkpt>
      <trkpt lat="48.60347" lon="2.13404">
        <ele>100</ele>
        <time>2019-10-28T12:23:09.000Z</time>
      </trkpt>
      <trkpt lat="48.60347" lon="2.13402">
        <ele>100</ele>
        <time>2019-10-28T12:23:10.000Z</time>
      </trkpt>
      <trkpt lat="48.60347" lon="2.134">
        <ele>100</ele>
        <time>2019-10-28T12:23:11.000Z</time>
      </trkpt>
      <trkpt lat="48.60347" lon="2.13398">
        <ele>100</ele>
        <time>2019-10-28T12:23:12.000Z</time>
      </trkpt>
      <trkpt lat="48.60346" lon="2.13396">
        <ele>100</ele>
        <time>2019-10-28T12:23:13.000Z</time>
      </trkpt>
      <trkpt lat="48.60346" lon="2.13394">
        <ele>100</ele>
        <time>2019-10-28T12:23:14.000Z</time>
      </trkpt>
      <trkpt lat="48.60346" lon="2.13392">
        <ele>100</ele>
        <time>2019-10-28T12:23:15.000Z</time>
      </trkpt>
      <trkpt lat="48.60345" lon="2.1339">
        <ele>100</ele>
        <time>2019-10-28T12:23:16.000Z</time>
      </trkpt>
      <trkpt lat="48.60345" lon="2.13388">
        <ele>100</ele>
        <time>2019-10-28T12:23:17.000Z</time>
      </trkpt>
      <trkpt lat="48.60345" lon="2.13386">
        <ele>100</ele>
        <time>2019-10-28T12:23:18.000Z</time>
      </trkpt>
      <trkpt lat="48.60345" lon="2.13384">
        <ele>99</ele>
        <time>2019-10-28T12:23:19.000Z</time>
      </trkpt>
      <trkpt lat="48.60345" lon="2.13382">
        <ele>99</ele>
        <time>2019-10-28T12:23:20.000Z</time>
      </trkpt>
      <trkpt lat="48.60345" lon="2.1338">
        <ele>99</ele>
        <time>2019-10-28T12:23:21.000Z</time>
      </trkpt>
      <trkpt lat="48.60344" lon="2.13378">
        <ele>99</ele>
        <time>2019-10-28T12:23:22.000Z</time>
      </trkpt>
      <trkpt lat="48.60344" lon="2.13377">
        <ele>99</ele>
        <time>2019-10-28T12:23:23.000Z</time>
      </trkpt>
      <trkpt lat="48.60344" lon="2.13375">
        <ele>99</ele>
        <time>2019-10-28T12:23:24.000Z</time>
      </trkpt>
      <trkpt lat="48.60344" lon="2.13373">
        <ele>99</ele>
        <time>2019-10-28T12:23:25.000Z</time>
      </trkpt>
      <trkpt lat="48.60344" lon="2.13371">
        <ele>99</ele>
        <time>2019-10-28T12:23:26.000Z</time>
      </trkpt>
      <trkpt lat="48.60343" lon="2.13369">
        <ele>99</ele>
        <time>2019-10-28T12:23:27.000Z</time>
      </trkpt>
      <trkpt lat="48.60343" lon="2.13367">
        <ele>99</ele>
        <time>2019-10-28T12:23:28.000Z</time>
      </trkpt>
      <trkpt lat="48.60343" lon="2.13365">
        <ele>99</ele>
        <time>2019-10-28T12:23:29.000Z</time>
      </trkpt>
      <trkpt lat="48.60342" lon="2.13363">
        <ele>100</ele>
        <time>2019-10-28T12:23:30.000Z</time>
      </trkpt>
      <trkpt lat="48.60342" lon="2.13361">
        <ele>100</ele>
        <time>2019-10-28T12:23:31.000Z</time>
      </trkpt>
      <trkpt lat="48.60342" lon="2.13359">
        <ele>100</ele>
        <time>2019-10-28T12:23:32.000Z</time>
      </trkpt>
      <trkpt lat="48.60342" lon="2.13357">
        <ele>100</ele>
        <time>2019-10-28T12:23:33.000Z</time>
      </trkpt>
      <trkpt lat="48.60342" lon="2.13355">
        <ele>100</ele>
        <time>2019-10-28T12:23:34.000Z</time>
      </trkpt>
      <trkpt lat="48.60341" lon="2.13353">
        <ele>100</ele>
        <time>2019-10-28T12:23:35.000Z</time>
      </trkpt>
      <trkpt lat="48.60341" lon="2.13352">
        <ele>100</ele>
        <time>2019-10-28T12:23:36.000Z</time>
      </trkpt>
      <trkpt lat="48.60341" lon="2.13349">
        <ele>100</ele>
        <time>2019-10-28T12:23:37.000Z</time>
      </trkpt>
      <trkpt lat="48.60341" lon="2.13347">
        <ele>100</ele>
        <time>2019-10-28T12:23:38.000Z</time>
      </trkpt>
      <trkpt lat="48.60341" lon="2.13345">
        <ele>100</ele>
        <time>2019-10-28T12:23:39.000Z</time>
      </trkpt>
      <trkpt lat="48.60341" lon="2.13342">
        <ele>99</ele>
        <time>2019-10-28T12:23:40.000Z</time>
      </trkpt>
      <trkpt lat="48.60341" lon="2.1334">
        <ele>100</ele>
        <time>2019-10-28T12:23:41.000Z</time>
      </trkpt>
      <trkpt lat="48.60341" lon="2.13338">
        <ele>100</ele>
        <time>2019-10-28T12:23:42.000Z</time>
      </trkpt>
      <trkpt lat="48.60341" lon="2.13336">
        <ele>100</ele>
        <time>2019-10-28T12:23:43.000Z</time>
      </trkpt>
      <trkpt lat="48.6034" lon="2.13334">
        <ele>100</ele>
        <time>2019-10-28T12:23:44.000Z</time>
      </trkpt>
      <trkpt lat="48.6034" lon="2.13332">
        <ele>100</ele>
        <time>2019-10-28T12:23:45.000Z</time>
      </trkpt>
      <trkpt lat="48.6034" lon="2.1333">
        <ele>100</ele>
        <time>2019-10-28T12:23:46.000Z</time>
      </trkpt>
      <trkpt lat="48.6034" lon="2.13328">
        <ele>100</ele>
        <time>2019-10-28T12:23:47.000Z</time>
      </trkpt>
      <trkpt lat="48.6034" lon="2.13326">
        <ele>100</ele>
        <time>2019-10-28T12:23:48.000Z</time>
      </trkpt>
      <trkpt lat="48.6034" lon="2.13324">
        <ele>100</ele>
        <time>2019-10-28T12:23:49.000Z</time>
      </trkpt>
      <trkpt lat="48.60339" lon="2.13322">
        <ele>100</ele>
        <time>2019-10-28T12:23:50.000Z</time>
      </trkpt>
      <trkpt lat="48.60339" lon="2.1332">
        <ele>100</ele>
        <time>2019-10-28T12:23:51.000Z</time>
      </trkpt>
      <trkpt lat="48.60339" lon="2.13318">
        <ele>100</ele>
        <time>2019-10-28T12:23:52.000Z</time>
      </trkpt>
      <trkpt lat="48.60339" lon="2.13316">
        <ele>100</ele>
        <time>2019-10-28T12:23:53.000Z</time>
      </trkpt>
      <trkpt lat="48.60338" lon="2.13315">
        <ele>100</ele>
        <time>2019-10-28T12:23:54.000Z</time>
      </trkpt>
      <trkpt lat="48.60338" lon="2.13313">
        <ele>100</ele>
        <time>2019-10-28T12:23:55.000Z</time>
      </trkpt>
      <trkpt lat="48.60338" lon="2.1331">
        <ele>100</ele>
        <time>2019-10-28T12:23:56.000Z</time>
      </trkpt>
      <trkpt lat="48.60338" lon="2.13308">
        <ele>100</ele>
        <time>2019-10-28T12:23:57.000Z</time>
      </trkpt>
      <trkpt lat="48.60337" lon="2.13306">
        <ele>100</ele>
        <time>2019-10-28T12:23:58.000Z</time>
      </trkpt>
      <trkpt lat="48.60337" lon="2.13304">
        <ele>100</ele>
        <time>2019-10-28T12:23:59.000Z</time>
      </trkpt>
      <trkpt lat="48.60337" lon="2.13302">
        <ele>100</ele>
        <time>2019-10-28T12:24:00.000Z</time>
      </trkpt>
      <trkpt lat="48.60337" lon="2.133">
        <ele>100</ele>
        <time>2019-10-28T12:24:01.000Z</time>
      </trkpt>
      <trkpt lat="48.60336" lon="2.13298">
        <ele>100</ele>
        <time>2019-10-28T12:24:02.000Z</time>
      </trkpt>
      <trkpt lat="48.60336" lon="2.13296">
        <ele>100</ele>
        <time>2019-10-28T12:24:03.000Z</time>
      </trkpt>
      <trkpt lat="48.60336" lon="2.13294">
        <ele>100</ele>
        <time>2019-10-28T12:24:04.000Z</time>
      </trkpt>
      <trkpt lat="48.60336" lon="2.13293">
        <ele>100</ele>
        <time>2019-10-28T12:24:05.000Z</time>
      </trkpt>
      <trkpt lat="48.60336" lon="2.13291">
        <ele>100</ele>
        <time>2019-10-28T12:24:06.000Z</time>
      </trkpt>
      <trkpt lat="48.60335" lon="2.13289">
        <ele>100</ele>
        <time>2019-10-28T12:24:07.000Z</time>
      </trkpt>
      <trkpt lat="48.60335" lon="2.13287">
        <ele>100</ele>
        <time>2019-10-28T12:24:08.000Z</time>
      </trkpt>
      <trkpt lat="48.60335" lon="2.13285">
        <ele>100</ele>
        <time>2019-10-28T12:24:09.000Z</time>
      </trkpt>
      <trkpt lat="48.60335" lon="2.13283">
        <ele>100</ele>
        <time>2019-10-28T12:24:10.000Z</time>
      </trkpt>
      <trkpt lat="48.60335" lon="2.13281">
        <ele>100</ele>
        <time>2019-10-28T12:24:11.000Z</time>
      </trkpt>
      <trkpt lat="48.60335" lon="2.13279">
        <ele>100</ele>
        <time>2019-10-28T12:24:12.000Z</time>
      </trkpt>
      <trkpt lat="48.60334" lon="2.13277">
        <ele>100</ele>
        <time>2019-10-28T12:24:13.000Z</time>
      </trkpt>
      <trkpt lat="48.60334" lon="2.13274">
        <ele>100</ele>
        <time>2019-10-28T12:24:14.000Z</time>
      </trkpt>
      <trkpt lat="48.60334" lon="2.13272">
        <ele>100</ele>
        <time>2019-10-28T12:24:15.000Z</time>
      </trkpt>
      <trkpt lat="48.60334" lon="2.1327">
        <ele>100</ele>
        <time>2019-10-28T12:24:16.000Z</time>
      </trkpt>
      <trkpt lat="48.60334" lon="2.13268">
        <ele>100</ele>
        <time>2019-10-28T12:24:17.000Z</time>
      </trkpt>
      <trkpt lat="48.60334" lon="2.13266">
        <ele>100</ele>
        <time>2019-10-28T12:24:18.000Z</time>
      </trkpt>
      <trkpt lat="48.60334" lon="2.13264">
        <ele>100</ele>
        <time>2019-10-28T12:24:19.000Z</time>
      </trkpt>
      <trkpt lat="48.60334" lon="2.13262">
        <ele>100</ele>
        <time>2019-10-28T12:24:20.000Z</time>
      </trkpt>
      <trkpt lat="48.60334" lon="2.1326">
        <ele>100</ele>
        <time>2019-10-28T12:24:21.000Z</time>
      </trkpt>
      <trkpt lat="48.60334" lon="2.13258">
        <ele>100</ele>
        <time>2019-10-28T12:24:22.000Z</time>
      </trkpt>
      <trkpt lat="48.60333" lon="2.13256">
        <ele>100</ele>
        <time>2019-10-28T12:24:23.000Z</time>
      </trkpt>
      <trkpt lat="48.60333" lon="2.13254">
        <ele>100</ele>
        <time>2019-10-28T12:24:24.000Z</time>
      </trkpt>
      <trkpt lat="48.60333" lon="2.13251">
        <ele>101</ele>
        <time>2019-10-28T12:24:25.000Z</time>
      </trkpt>
      <trkpt lat="48.60332" lon="2.13249">
        <ele>101</ele>
        <time>2019-10-28T12:24:26.000Z</time>
      </trkpt>
      <trkpt lat="48.60332" lon="2.13247">
        <ele>101</ele>
        <time>2019-10-28T12:24:27.000Z</time>
      </trkpt>
      <trkpt lat="48.60332" lon="2.13245">
        <ele>101</ele>
        <time>2019-10-28T12:24:28.000Z</time>
      </trkpt>
      <trkpt lat="48.60332" lon="2.13243">
        <ele>101</ele>
        <time>2019-10-28T12:24:29.000Z</time>
      </trkpt>
      <trkpt lat="48.60331" lon="2.13241">
        <ele>101</ele>
        <time>2019-10-28T12:24:30.000Z</time>
      </trkpt>
      <trkpt lat="48.60331" lon="2.13239">
        <ele>101</ele>
        <time>2019-10-28T12:24:31.000Z</time>
      </trkpt>
      <trkpt lat="48.60331" lon="2.13238">
        <ele>101</ele>
        <time>2019-10-28T12:24:32.000Z</time>
      </trkpt>
      <trkpt lat="48.60331" lon="2.13235">
        <ele>101</ele>
        <time>2019-10-28T12:24:33.000Z</time>
      </trkpt>
      <trkpt lat="48.60331" lon="2.13233">
        <ele>101</ele>
        <time>2019-10-28T12:24:34.000Z</time>
      </trkpt>
      <trkpt lat="48.60331" lon="2.13231">
        <ele>101</ele>
        <time>2019-10-28T12:24:35.000Z</time>
      </trkpt>
      <trkpt lat="48.6033" lon="2.13229">
        <ele>101</ele>
        <time>2019-10-28T12:24:36.000Z</time>
      </trkpt>
      <trkpt lat="48.6033" lon="2.13227">
        <ele>101</ele>
        <time>2019-10-28T12:24:37.000Z</time>
      </trkpt>
      <trkpt lat="48.6033" lon="2.13225">
        <ele>101</ele>
        <time>2019-10-28T12:24:38.000Z</time>
      </trkpt>
      <trkpt lat="48.6033" lon="2.13223">
        <ele>101</ele>
        <time>2019-10-28T12:24:39.000Z</time>
      </trkpt>
      <trkpt lat="48.6033" lon="2.13221">
        <ele>101</ele>
        <time>2019-10-28T12:24:40.000Z</time>
      </trkpt>
      <trkpt lat="48.60329" lon="2.13219">
        <ele>101</ele>
        <time>2019-10-28T12:24:41.000Z</time>
      </trkpt>
      <trkpt lat="48.60329" lon="2.13217">
        <ele>101</ele>
        <time>2019-10-28T12:24:42.000Z</time>
      </trkpt>
      <trkpt lat="48.60329" lon="2.13215">
        <ele>101</ele>
        <time>2019-10-28T12:24:43.000Z</time>
      </trkpt>
      <trkpt lat="48.60329" lon="2.13213">
        <ele>101</ele>
        <time>2019-10-28T12:24:44.000Z</time>
      </trkpt>
      <trkpt lat="48.60329" lon="2.13212">
        <ele>101</ele>
        <time>2019-10-28T12:24:45.000Z</time>
      </trkpt>
      <trkpt lat="48.60328" lon="2.1321">
        <ele>101</ele>
        <time>2019-10-28T12:24:46.000Z</time>
      </trkpt>
      <trkpt lat="48.60328" lon="2.13208">
        <ele>101</ele>
        <time>2019-10-28T12:24:47.000Z</time>
      </trkpt>
      <trkpt lat="48.60328" lon="2.13206">
        <ele>101</ele>
        <time>2019-10-28T12:24:48.000Z</time>
      </trkpt>
      <trkpt lat="48.60328" lon="2.13204">
        <ele>101</ele>
        <time>2019-10-28T12:24:49.000Z</time>
      </trkpt>
      <trkpt lat="48.60328" lon="2.13202">
        <ele>101</ele>
        <time>2019-10-28T12:24:50.000Z</time>
      </trkpt>
      <trkpt lat="48.60328" lon="2.132">
        <ele>101</ele>
        <time>2019-10-28T12:24:51.000Z</time>
      </trkpt>
      <trkpt lat="48.60327" lon="2.13198">
        <ele>101</ele>
        <time>2019-10-28T12:24:52.000Z</time>
      </trkpt>
      <trkpt lat="48.60327" lon="2.13197">
        <ele>101</ele>
        <time>2019-10-28T12:24:53.000Z</time>
      </trkpt>
      <trkpt lat="48.60327" lon="2.13195">
        <ele>101</ele>
        <time>2019-10-28T12:24:54.000Z</time>
      </trkpt>
      <trkpt lat="48.60327" lon="2.13193">
        <ele>101</ele>
        <time>2019-10-28T12:24:55.000Z</time>
      </trkpt>
      <trkpt lat="48.60327" lon="2.13191">
        <ele>101</ele>
        <time>2019-10-28T12:24:56.000Z</time>
      </trkpt>
      <trkpt lat="48.60327" lon="2.13189">
        <ele>101</ele>
        <time>2019-10-28T12:24:57.000Z</time>
      </trkpt>
      <trkpt lat="48.60327" lon="2.13188">
        <ele>101</ele>
        <time>2019-10-28T12:24:58.000Z</time>
      </trkpt>
      <trkpt lat="48.60326" lon="2.13186">
        <ele>101</ele>
        <time>2019-10-28T12:24:59.000Z</time>
      </trkpt>
      <trkpt lat="48.60326" lon="2.13184">
        <ele>101</ele>
        <time>2019-10-28T12:25:00.000Z</time>
      </trkpt>
      <trkpt lat="48.60326" lon="2.13183">
        <ele>101</ele>
        <time>2019-10-28T12:25:01.000Z</time>
      </trkpt>
      <trkpt lat="48.60326" lon="2.13181">
        <ele>101</ele>
        <time>2019-10-28T12:25:02.000Z</time>
      </trkpt>
      <trkpt lat="48.60326" lon="2.1318">
        <ele>101</ele>
        <time>2019-10-28T12:25:03.000Z</time>
      </trkpt>
      <trkpt lat="48.60326" lon="2.13178">
        <ele>101</ele>
        <time>2019-10-28T12:25:04.000Z</time>
      </trkpt>
      <trkpt lat="48.60325" lon="2.13177">
        <ele>101</ele>
        <time>2019-10-28T12:25:05.000Z</time>
      </trkpt>
      <trkpt lat="48.60325" lon="2.13175">
        <ele>101</ele>
        <time>2019-10-28T12:25:06.000Z</time>
      </trkpt>
      <trkpt lat="48.60325" lon="2.13174">
        <ele>101</ele>
        <time>2019-10-28T12:25:07.000Z</time>
      </trkpt>
      <trkpt lat="48.60325" lon="2.13172">
        <ele>101</ele>
        <time>2019-10-28T12:25:08.000Z</time>
      </trkpt>
      <trkpt lat="48.60325" lon="2.1317">
        <ele>101</ele>
        <time>2019-10-28T12:25:09.000Z</time>
      </trkpt>
      <trkpt lat="48.60324" lon="2.13168">
        <ele>101</ele>
        <time>2019-10-28T12:25:10.000Z</time>
      </trkpt>
      <trkpt lat="48.60324" lon="2.13166">
        <ele>101</ele>
        <time>2019-10-28T12:25:11.000Z</time>
      </trkpt>
      <trkpt lat="48.60324" lon="2.13165">
        <ele>101</ele>
        <time>2019-10-28T12:25:12.000Z</time>
      </trkpt>
      <trkpt lat="48.60324" lon="2.13163">
        <ele>101</ele>
        <time>2019-10-28T12:25:13.000Z</time>
      </trkpt>
      <trkpt lat="48.60324" lon="2.13161">
        <ele>101</ele>
        <time>2019-10-28T12:25:14.000Z</time>
      </trkpt>
      <trkpt lat="48.60324" lon="2.13159">
        <ele>101</ele>
        <time>2019-10-28T12:25:15.000Z</time>
      </trkpt>
      <trkpt lat="48.60324" lon="2.13157">
        <ele>101</ele>
        <time>2019-10-28T12:25:16.000Z</time>
      </trkpt>
      <trkpt lat="48.60323" lon="2.13155">
        <ele>101</ele>
        <time>2019-10-28T12:25:17.000Z</time>
      </trkpt>
      <trkpt lat="48.60323" lon="2.13153">
        <ele>101</ele>
        <time>2019-10-28T12:25:18.000Z</time>
      </trkpt>
      <trkpt lat="48.60323" lon="2.13151">
        <ele>101</ele>
        <time>2019-10-28T12:25:19.000Z</time>
      </trkpt>
      <trkpt lat="48.60323" lon="2.13149">
        <ele>101</ele>
        <time>2019-10-28T12:25:20.000Z</time>
      </trkpt>
      <trkpt lat="48.60323" lon="2.13147">
        <ele>101</ele>
        <time>2019-10-28T12:25:21.000Z</time>
      </trkpt>
      <trkpt lat="48.60323" lon="2.13145">
        <ele>101</ele>
        <time>2019-10-28T12:25:22.000Z</time>
      </trkpt>
      <trkpt lat="48.60323" lon="2.13143">
        <ele>101</ele>
        <time>2019-10-28T12:25:23.000Z</time>
      </trkpt>
      <trkpt lat="48.60322" lon="2.13141">
        <ele>101</ele>
        <time>2019-10-28T12:25:24.000Z</time>
      </trkpt>
      <trkpt lat="48.60322" lon="2.13139">
        <ele>101</ele>
        <time>2019-10-28T12:25:25.000Z</time>
      </trkpt>
      <trkpt lat="48.60322" lon="2.13137">
        <ele>101</ele>
        <time>2019-10-28T12:25:26.000Z</time>
      </trkpt>
      <trkpt lat="48.60322" lon="2.13135">
        <ele>101</ele>
        <time>2019-10-28T12:25:27.000Z</time>
      </trkpt>
      <trkpt lat="48.60322" lon="2.13133">
        <ele>101</ele>
        <time>2019-10-28T12:25:28.000Z</time>
      </trkpt>
      <trkpt lat="48.60322" lon="2.13131">
        <ele>101</ele>
        <time>2019-10-28T12:25:29.000Z</time>
      </trkpt>
      <trkpt lat="48.60321" lon="2.1313">
        <ele>101</ele>
        <time>2019-10-28T12:25:30.000Z</time>
      </trkpt>
      <trkpt lat="48.60321" lon="2.13128">
        <ele>101</ele>
        <time>2019-10-28T12:25:31.000Z</time>
      </trkpt>
      <trkpt lat="48.60321" lon="2.13126">
        <ele>101</ele>
        <time>2019-10-28T12:25:32.000Z</time>
      </trkpt>
      <trkpt lat="48.60321" lon="2.13124">
        <ele>101</ele>
        <time>2019-10-28T12:25:33.000Z</time>
      </trkpt>
      <trkpt lat="48.60321" lon="2.13122">
        <ele>101</ele>
        <time>2019-10-28T12:25:34.000Z</time>
      </trkpt>
      <trkpt lat="48.60321" lon="2.13121">
        <ele>101</ele>
        <time>2019-10-28T12:25:35.000Z</time>
      </trkpt>
      <trkpt lat="48.60321" lon="2.13119">
        <ele>101</ele>
        <time>2019-10-28T12:25:36.000Z</time>
      </trkpt>
      <trkpt lat="48.6032" lon="2.13117">
        <ele>101</ele>
        <time>2019-10-28T12:25:37.000Z</time>
      </trkpt>
      <trkpt lat="48.6032" lon="2.13115">
        <ele>101</ele>
        <time>2019-10-28T12:25:38.000Z</time>
      </trkpt>
      <trkpt lat="48.6032" lon="2.13113">
        <ele>101</ele>
        <time>2019-10-28T12:25:39.000Z</time>
      </trkpt>
      <trkpt lat="48.6032" lon="2.13111">
        <ele>101</ele>
        <time>2019-10-28T12:25:40.000Z</time>
      </trkpt>
      <trkpt lat="48.6032" lon="2.13109">
        <ele>101</ele>
        <time>2019-10-28T12:25:41.000Z</time>
      </trkpt>
      <trkpt lat="48.60319" lon="2.13107">
        <ele>101</ele>
        <time>2019-10-28T12:25:42.000Z</time>
      </trkpt>
      <trkpt lat="48.60319" lon="2.13105">
        <ele>101</ele>
        <time>2019-10-28T12:25:43.000Z</time>
      </trkpt>
      <trkpt lat="48.60319" lon="2.13104">
        <ele>101</ele>
        <time>2019-10-28T12:25:44.000Z</time>
      </trkpt>
      <trkpt lat="48.60319" lon="2.13102">
        <ele>101</ele>
        <time>2019-10-28T12:25:45.000Z</time>
      </trkpt>
      <trkpt lat="48.60319" lon="2.131">
        <ele>101</ele>
        <time>2019-10-28T12:25:46.000Z</time>
      </trkpt>
      <trkpt lat="48.60318" lon="2.13098">
        <ele>101</ele>
        <time>2019-10-28T12:25:47.000Z</time>
      </trkpt>
      <trkpt lat="48.60318" lon="2.13096">
        <ele>101</ele>
        <time>2019-10-28T12:25:48.000Z</time>
      </trkpt>
      <trkpt lat="48.60318" lon="2.13095">
        <ele>101</ele>
        <time>2019-10-28T12:25:49.000Z</time>
      </trkpt>
      <trkpt lat="48.60318" lon="2.13093">
        <ele>101</ele>
        <time>2019-10-28T12:25:50.000Z</time>
      </trkpt>
      <trkpt lat="48.60317" lon="2.13091">
        <ele>101</ele>
        <time>2019-10-28T12:25:51.000Z</time>
      </trkpt>
      <trkpt lat="48.60317" lon="2.13089">
        <ele>101</ele>
        <time>2019-10-28T12:25:52.000Z</time>
      </trkpt>
      <trkpt lat="48.60317" lon="2.13087">
        <ele>101</ele>
        <time>2019-10-28T12:25:53.000Z</time>
      </trkpt>
      <trkpt lat="48.60317" lon="2.13085">
        <ele>101</ele>
        <time>2019-10-28T12:25:54.000Z</time>
      </trkpt>
      <trkpt lat="48.60316" lon="2.13083">
        <ele>101</ele>
        <time>2019-10-28T12:25:55.000Z</time>
      </trkpt>
      <trkpt lat="48.60316" lon="2.13081">
        <ele>101</ele>
        <time>2019-10-28T12:25:56.000Z</time>
      </trkpt>
      <trkpt lat="48.60316" lon="2.13079">
        <ele>102</ele>
        <time>2019-10-28T12:25:57.000Z</time>
      </trkpt>
      <trkpt lat="48.60316" lon="2.13077">
        <ele>102</ele>
        <time>2019-10-28T12:25:58.000Z</time>
      </trkpt>
      <trkpt lat="48.60316" lon="2.13075">
        <ele>102</ele>
        <time>2019-10-28T12:25:59.000Z</time>
      </trkpt>
      <trkpt lat="48.60316" lon="2.13074">
        <ele>102</ele>
        <time>2019-10-28T12:26:00.000Z</time>
      </trkpt>
      <trkpt lat="48.60316" lon="2.13072">
        <ele>102</ele>
        <time>2019-10-28T12:26:01.000Z</time>
      </trkpt>
      <trkpt lat="48.60316" lon="2.13072">
        <ele>101</ele>
        <time>2019-10-28T12:26:02.000Z</time>
      </trkpt>
      <trkpt lat="48.60316" lon="2.13071">
        <ele>101</ele>
        <time>2019-10-28T12:26:03.000Z</time>
      </trkpt>
      <trkpt lat="48.60316" lon="2.13071">
        <ele>101</ele>
        <time>2019-10-28T12:26:04.000Z</time>
      </trkpt>
      <trkpt lat="48.60316" lon="2.13071">
        <ele>101</ele>
        <time>2019-10-28T12:26:05.000Z</time>
      </trkpt>
      <trkpt lat="48.60316" lon="2.13071">
        <ele>101</ele>
        <time>2019-10-28T12:26:06.000Z</time>
      </trkpt>
      <trkpt lat="48.60315" lon="2.1307">
        <ele>101</ele>
        <time>2019-10-28T12:26:07.000Z</time>
      </trkpt>
      <trkpt lat="48.60315" lon="2.13069">
        <ele>101</ele>
        <time>2019-10-28T12:26:08.000Z</time>
      </trkpt>
      <trkpt lat="48.60316" lon="2.13068">
        <ele>101</ele>
        <time>2019-10-28T12:26:09.000Z</time>
      </trkpt>
      <trkpt lat="48.60316" lon="2.13066">
        <ele>101</ele>
        <time>2019-10-28T12:26:10.000Z</time>
      </trkpt>
      <trkpt lat="48.60316" lon="2.13064">
        <ele>101</ele>
        <time>2019-10-28T12:26:11.000Z</time>
      </trkpt>
      <trkpt lat="48.60316" lon="2.13062">
        <ele>101</ele>
        <time>2019-10-28T12:26:12.000Z</time>
      </trkpt>
      <trkpt lat="48.60316" lon="2.13061">
        <ele>101</ele>
        <time>2019-10-28T12:26:13.000Z</time>
      </trkpt>
      <trkpt lat="48.60316" lon="2.13059">
        <ele>101</ele>
        <time>2019-10-28T12:26:14.000Z</time>
      </trkpt>
      <trkpt lat="48.60316" lon="2.13058">
        <ele>101</ele>
        <time>2019-10-28T12:26:15.000Z</time>
      </trkpt>
      <trkpt lat="48.60316" lon="2.13056">
        <ele>101</ele>
        <time>2019-10-28T12:26:16.000Z</time>
      </trkpt>
      <trkpt lat="48.60316" lon="2.13054">
        <ele>101</ele>
        <time>2019-10-28T12:26:17.000Z</time>
      </trkpt>
      <trkpt lat="48.60317" lon="2.13052">
        <ele>101</ele>
        <time>2019-10-28T12:26:18.000Z</time>
      </trkpt>
      <trkpt lat="48.60317" lon="2.1305">
        <ele>101</ele>
        <time>2019-10-28T12:26:19.000Z</time>
      </trkpt>
      <trkpt lat="48.60317" lon="2.13048">
        <ele>101</ele>
        <time>2019-10-28T12:26:20.000Z</time>
      </trkpt>
      <trkpt lat="48.60317" lon="2.13046">
        <ele>101</ele>
        <time>2019-10-28T12:26:21.000Z</time>
      </trkpt>
      <trkpt lat="48.60318" lon="2.13044">
        <ele>101</ele>
        <time>2019-10-28T12:26:22.000Z</time>
      </trkpt>
      <trkpt lat="48.60318" lon="2.13042">
        <ele>101</ele>
        <time>2019-10-28T12:26:23.000Z</time>
      </trkpt>
      <trkpt lat="48.60318" lon="2.1304">
        <ele>101</ele>
        <time>2019-10-28T12:26:24.000Z</time>
      </trkpt>
      <trkpt lat="48.60318" lon="2.13038">
        <ele>101</ele>
        <time>2019-10-28T12:26:25.000Z</time>
      </trkpt>
      <trkpt lat="48.60318" lon="2.13036">
        <ele>101</ele>
        <time>2019-10-28T12:26:26.000Z</time>
      </trkpt>
      <trkpt lat="48.60319" lon="2.13034">
        <ele>101</ele>
        <time>2019-10-28T12:26:27.000Z</time>
      </trkpt>
      <trkpt lat="48.60319" lon="2.13032">
        <ele>101</ele>
        <time>2019-10-28T12:26:28.000Z</time>
      </trkpt>
      <trkpt lat="48.6032" lon="2.1303">
        <ele>101</ele>
        <time>2019-10-28T12:26:29.000Z</time>
      </trkpt>
      <trkpt lat="48.60321" lon="2.13029">
        <ele>101</ele>
        <time>2019-10-28T12:26:30.000Z</time>
      </trkpt>
      <trkpt lat="48.60322" lon="2.13028">
        <ele>101</ele>
        <time>2019-10-28T12:26:31.000Z</time>
      </trkpt>
      <trkpt lat="48.60323" lon="2.13026">
        <ele>101</ele>
        <time>2019-10-28T12:26:32.000Z</time>
      </trkpt>
      <trkpt lat="48.60324" lon="2.13025">
        <ele>101</ele>
        <time>2019-10-28T12:26:33.000Z</time>
      </trkpt>
      <trkpt lat="48.60326" lon="2.13024">
        <ele>101</ele>
        <time>2019-10-28T12:26:34.000Z</time>
      </trkpt>
      <trkpt lat="48.60327" lon="2.13023">
        <ele>101</ele>
        <time>2019-10-28T12:26:35.000Z</time>
      </trkpt>
      <trkpt lat="48.60328" lon="2.13022">
        <ele>101</ele>
        <time>2019-10-28T12:26:36.000Z</time>
      </trkpt>
      <trkpt lat="48.60329" lon="2.13021">
        <ele>101</ele>
        <time>2019-10-28T12:26:37.000Z</time>
      </trkpt>
      <trkpt lat="48.6033" lon="2.1302">
        <ele>101</ele>
        <time>2019-10-28T12:26:38.000Z</time>
      </trkpt>
      <trkpt lat="48.60332" lon="2.13019">
        <ele>101</ele>
        <time>2019-10-28T12:26:39.000Z</time>
      </trkpt>
      <trkpt lat="48.60333" lon="2.13019">
        <ele>101</ele>
        <time>2019-10-28T12:26:40.000Z</time>
      </trkpt>
      <trkpt lat="48.60334" lon="2.13018">
        <ele>100</ele>
        <time>2019-10-28T12:26:41.000Z</time>
      </trkpt>
      <trkpt lat="48.60335" lon="2.13017">
        <ele>100</ele>
        <time>2019-10-28T12:26:42.000Z</time>
      </trkpt>
      <trkpt lat="48.60337" lon="2.13016">
        <ele>101</ele>
        <time>2019-10-28T12:26:43.000Z</time>
      </trkpt>
      <trkpt lat="48.60338" lon="2.13016">
        <ele>101</ele>
        <time>2019-10-28T12:26:44.000Z</time>
      </trkpt>
      <trkpt lat="48.60339" lon="2.13015">
        <ele>100</ele>
        <time>2019-10-28T12:26:45.000Z</time>
      </trkpt>
      <trkpt lat="48.60341" lon="2.13015">
        <ele>101</ele>
        <time>2019-10-28T12:26:46.000Z</time>
      </trkpt>
      <trkpt lat="48.60342" lon="2.13014">
        <ele>101</ele>
        <time>2019-10-28T12:26:47.000Z</time>
      </trkpt>
      <trkpt lat="48.60344" lon="2.13013">
        <ele>101</ele>
        <time>2019-10-28T12:26:48.000Z</time>
      </trkpt>
      <trkpt lat="48.60345" lon="2.13013">
        <ele>101</ele>
        <time>2019-10-28T12:26:49.000Z</time>
      </trkpt>
      <trkpt lat="48.60346" lon="2.13012">
        <ele>101</ele>
        <time>2019-10-28T12:26:50.000Z</time>
      </trkpt>
      <trkpt lat="48.60348" lon="2.13011">
        <ele>102</ele>
        <time>2019-10-28T12:26:51.000Z</time>
      </trkpt>
      <trkpt lat="48.60349" lon="2.1301">
        <ele>102</ele>
        <time>2019-10-28T12:26:52.000Z</time>
      </trkpt>
      <trkpt lat="48.60351" lon="2.13009">
        <ele>102</ele>
        <time>2019-10-28T12:26:53.000Z</time>
      </trkpt>
      <trkpt lat="48.60352" lon="2.13009">
        <ele>102</ele>
        <time>2019-10-28T12:26:54.000Z</time>
      </trkpt>
      <trkpt lat="48.60353" lon="2.13008">
        <ele>102</ele>
        <time>2019-10-28T12:26:55.000Z</time>
      </trkpt>
      <trkpt lat="48.60355" lon="2.13007">
        <ele>103</ele>
        <time>2019-10-28T12:26:56.000Z</time>
      </trkpt>
      <trkpt lat="48.60356" lon="2.13007">
        <ele>102</ele>
        <time>2019-10-28T12:26:57.000Z</time>
      </trkpt>
      <trkpt lat="48.60357" lon="2.13006">
        <ele>102</ele>
        <time>2019-10-28T12:26:58.000Z</time>
      </trkpt>
      <trkpt lat="48.60359" lon="2.13005">
        <ele>102</ele>
        <time>2019-10-28T12:26:59.000Z</time>
      </trkpt>
      <trkpt lat="48.6036" lon="2.13005">
        <ele>102</ele>
        <time>2019-10-28T12:27:00.000Z</time>
      </trkpt>
      <trkpt lat="48.60361" lon="2.13004">
        <ele>102</ele>
        <time>2019-10-28T12:27:01.000Z</time>
      </trkpt>
      <trkpt lat="48.60363" lon="2.13004">
        <ele>102</ele>
        <time>2019-10-28T12:27:02.000Z</time>
      </trkpt>
      <trkpt lat="48.60364" lon="2.13003">
        <ele>101</ele>
        <time>2019-10-28T12:27:03.000Z</time>
      </trkpt>
      <trkpt lat="48.60365" lon="2.13002">
        <ele>101</ele>
        <time>2019-10-28T12:27:04.000Z</time>
      </trkpt>
      <trkpt lat="48.60367" lon="2.13002">
        <ele>102</ele>
        <time>2019-10-28T12:27:05.000Z</time>
      </trkpt>
      <trkpt lat="48.60368" lon="2.13001">
        <ele>102</ele>
        <time>2019-10-28T12:27:06.000Z</time>
      </trkpt>
      <trkpt lat="48.60369" lon="2.13">
        <ele>101</ele>
        <time>2019-10-28T12:27:07.000Z</time>
      </trkpt>
      <trkpt lat="48.60371" lon="2.13">
        <ele>101</ele>
        <time>2019-10-28T12:27:08.000Z</time>
      </trkpt>
      <trkpt lat="48.60372" lon="2.12999">
        <ele>101</ele>
        <time>2019-10-28T12:27:09.000Z</time>
      </trkpt>
      <trkpt lat="48.60373" lon="2.12998">
        <ele>101</ele>
        <time>2019-10-28T12:27:10.000Z</time>
      </trkpt>
      <trkpt lat="48.60375" lon="2.12998">
        <ele>101</ele>
        <time>2019-10-28T12:27:11.000Z</time>
      </trkpt>
      <trkpt lat="48.60376" lon="2.12997">
        <ele>101</ele>
        <time>2019-10-28T12:27:12.000Z</time>
      </trkpt>
      <trkpt lat="48.60378" lon="2.12997">
        <ele>101</ele>
        <time>2019-10-28T12:27:13.000Z</time>
      </trkpt>
      <trkpt lat="48.60379" lon="2.12996">
        <ele>101</ele>
        <time>2019-10-28T12:27:14.000Z</time>
      </trkpt>
      <trkpt lat="48.6038" lon="2.12995">
        <ele>100</ele>
        <time>2019-10-28T12:27:15.000Z</time>
      </trkpt>
      <trkpt lat="48.60382" lon="2.12995">
        <ele>100</ele>
        <time>2019-10-28T12:27:16.000Z</time>
      </trkpt>
      <trkpt lat="48.60383" lon="2.12994">
        <ele>100</ele>
        <time>2019-10-28T12:27:17.000Z</time>
      </trkpt>
      <trkpt lat="48.60384" lon="2.12993">
        <ele>100</ele>
        <time>2019-10-28T12:27:18.000Z</time>
      </trkpt>
      <trkpt lat="48.60386" lon="2.12993">
        <ele>100</ele>
        <time>2019-10-28T12:27:19.000Z</time>
      </trkpt>
      <trkpt lat="48.60387" lon="2.12992">
        <ele>100</ele>
        <time>2019-10-28T12:27:20.000Z</time>
      </trkpt>
      <trkpt lat="48.60388" lon="2.12992">
        <ele>100</ele>
        <time>2019-10-28T12:27:21.000Z</time>
      </trkpt>
      <trkpt lat="48.6039" lon="2.12991">
        <ele>100</ele>
        <time>2019-10-28T12:27:22.000Z</time>
      </trkpt>
      <trkpt lat="48.60391" lon="2.12991">
        <ele>100</ele>
        <time>2019-10-28T12:27:23.000Z</time>
      </trkpt>
      <trkpt lat="48.60392" lon="2.1299">
        <ele>100</ele>
        <time>2019-10-28T12:27:24.000Z</time>
      </trkpt>
      <trkpt lat="48.60394" lon="2.1299">
        <ele>100</ele>
        <time>2019-10-28T12:27:25.000Z</time>
      </trkpt>
      <trkpt lat="48.60395" lon="2.12989">
        <ele>100</ele>
        <time>2019-10-28T12:27:26.000Z</time>
      </trkpt>
      <trkpt lat="48.60396" lon="2.12988">
        <ele>100</ele>
        <time>2019-10-28T12:27:27.000Z</time>
      </trkpt>
      <trkpt lat="48.60397" lon="2.12987">
        <ele>100</ele>
        <time>2019-10-28T12:27:28.000Z</time>
      </trkpt>
      <trkpt lat="48.60399" lon="2.12987">
        <ele>100</ele>
        <time>2019-10-28T12:27:29.000Z</time>
      </trkpt>
      <trkpt lat="48.604" lon="2.12986">
        <ele>100</ele>
        <time>2019-10-28T12:27:30.000Z</time>
      </trkpt>
      <trkpt lat="48.60402" lon="2.12985">
        <ele>99</ele>
        <time>2019-10-28T12:27:31.000Z</time>
      </trkpt>
      <trkpt lat="48.60403" lon="2.12985">
        <ele>99</ele>
        <time>2019-10-28T12:27:32.000Z</time>
      </trkpt>
      <trkpt lat="48.60404" lon="2.12984">
        <ele>99</ele>
        <time>2019-10-28T12:27:33.000Z</time>
      </trkpt>
      <trkpt lat="48.60406" lon="2.12983">
        <ele>99</ele>
        <time>2019-10-28T12:27:34.000Z</time>
      </trkpt>
      <trkpt lat="48.60407" lon="2.12983">
        <ele>99</ele>
        <time>2019-10-28T12:27:35.000Z</time>
      </trkpt>
      <trkpt lat="48.60408" lon="2.12982">
        <ele>99</ele>
        <time>2019-10-28T12:27:36.000Z</time>
      </trkpt>
      <trkpt lat="48.6041" lon="2.12981">
        <ele>99</ele>
        <time>2019-10-28T12:27:37.000Z</time>
      </trkpt>
      <trkpt lat="48.60411" lon="2.1298">
        <ele>99</ele>
        <time>2019-10-28T12:27:38.000Z</time>
      </trkpt>
      <trkpt lat="48.60412" lon="2.1298">
        <ele>99</ele>
        <time>2019-10-28T12:27:39.000Z</time>
      </trkpt>
      <trkpt lat="48.60414" lon="2.12979">
        <ele>99</ele>
        <time>2019-10-28T12:27:40.000Z</time>
      </trkpt>
      <trkpt lat="48.60415" lon="2.12979">
        <ele>99</ele>
        <time>2019-10-28T12:27:41.000Z</time>
      </trkpt>
      <trkpt lat="48.60417" lon="2.12978">
        <ele>99</ele>
        <time>2019-10-28T12:27:42.000Z</time>
      </trkpt>
      <trkpt lat="48.60418" lon="2.12977">
        <ele>100</ele>
        <time>2019-10-28T12:27:43.000Z</time>
      </trkpt>
      <trkpt lat="48.6042" lon="2.12977">
        <ele>99</ele>
        <time>2019-10-28T12:27:44.000Z</time>
      </trkpt>
      <trkpt lat="48.60421" lon="2.12976">
        <ele>99</ele>
        <time>2019-10-28T12:27:45.000Z</time>
      </trkpt>
      <trkpt lat="48.60422" lon="2.12976">
        <ele>99</ele>
        <time>2019-10-28T12:27:46.000Z</time>
      </trkpt>
      <trkpt lat="48.60424" lon="2.12975">
        <ele>99</ele>
        <time>2019-10-28T12:27:47.000Z</time>
      </trkpt>
      <trkpt lat="48.60425" lon="2.12975">
        <ele>100</ele>
        <time>2019-10-28T12:27:48.000Z</time>
      </trkpt>
      <trkpt lat="48.60426" lon="2.12974">
        <ele>100</ele>
        <time>2019-10-28T12:27:49.000Z</time>
      </trkpt>
      <trkpt lat="48.60428" lon="2.12974">
        <ele>100</ele>
        <time>2019-10-28T12:27:50.000Z</time>
      </trkpt>
      <trkpt lat="48.60429" lon="2.12973">
        <ele>100</ele>
        <time>2019-10-28T12:27:51.000Z</time>
      </trkpt>
      <trkpt lat="48.6043" lon="2.12972">
        <ele>99</ele>
        <time>2019-10-28T12:27:52.000Z</time>
      </trkpt>
      <trkpt lat="48.60432" lon="2.12971">
        <ele>99</ele>
        <time>2019-10-28T12:27:53.000Z</time>
      </trkpt>
      <trkpt lat="48.60433" lon="2.1297">
        <ele>99</ele>
        <time>2019-10-28T12:27:54.000Z</time>
      </trkpt>
      <trkpt lat="48.60435" lon="2.12969">
        <ele>99</ele>
        <time>2019-10-28T12:27:55.000Z</time>
      </trkpt>
      <trkpt lat="48.60436" lon="2.12968">
        <ele>99</ele>
        <time>2019-10-28T12:27:56.000Z</time>
      </trkpt>
      <trkpt lat="48.60437" lon="2.12968">
        <ele>99</ele>
        <time>2019-10-28T12:27:57.000Z</time>
      </trkpt>
      <trkpt lat="48.60439" lon="2.12967">
        <ele>99</ele>
        <time>2019-10-28T12:27:58.000Z</time>
      </trkpt>
      <trkpt lat="48.6044" lon="2.12966">
        <ele>99</ele>
        <time>2019-10-28T12:27:59.000Z</time>
      </trkpt>
      <trkpt lat="48.60441" lon="2.12966">
        <ele>99</ele>
        <time>2019-10-28T12:28:00.000Z</time>
      </trkpt>
      <trkpt lat="48.60442" lon="2.12965">
        <ele>99</ele>
        <time>2019-10-28T12:28:01.000Z</time>
      </trkpt>
      <trkpt lat="48.60444" lon="2.12964">
        <ele>99</ele>
        <time>2019-10-28T12:28:02.000Z</time>
      </trkpt>
      <trkpt lat="48.60445" lon="2.12963">
        <ele>99</ele>
        <time>2019-10-28T12:28:03.000Z</time>
      </trkpt>
      <trkpt lat="48.60446" lon="2.12963">
        <ele>98</ele>
        <time>2019-10-28T12:28:04.000Z</time>
      </trkpt>
      <trkpt lat="48.60448" lon="2.12962">
        <ele>98</ele>
        <time>2019-10-28T12:28:05.000Z</time>
      </trkpt>
      <trkpt lat="48.60449" lon="2.12961">
        <ele>98</ele>
        <time>2019-10-28T12:28:06.000Z</time>
      </trkpt>
      <trkpt lat="48.60451" lon="2.12961">
        <ele>98</ele>
        <time>2019-10-28T12:28:07.000Z</time>
      </trkpt>
      <trkpt lat="48.60452" lon="2.1296">
        <ele>98</ele>
        <time>2019-10-28T12:28:08.000Z</time>
      </trkpt>
      <trkpt lat="48.60454" lon="2.12959">
        <ele>98</ele>
        <time>2019-10-28T12:28:09.000Z</time>
      </trkpt>
      <trkpt lat="48.60455" lon="2.12959">
        <ele>98</ele>
        <time>2019-10-28T12:28:10.000Z</time>
      </trkpt>
      <trkpt lat="48.60457" lon="2.12958">
        <ele>98</ele>
        <time>2019-10-28T12:28:11.000Z</time>
      </trkpt>
      <trkpt lat="48.60458" lon="2.12957">
        <ele>97</ele>
        <time>2019-10-28T12:28:12.000Z</time>
      </trkpt>
      <trkpt lat="48.60459" lon="2.12957">
        <ele>97</ele>
        <time>2019-10-28T12:28:13.000Z</time>
      </trkpt>
      <trkpt lat="48.60461" lon="2.12956">
        <ele>97</ele>
        <time>2019-10-28T12:28:14.000Z</time>
      </trkpt>
      <trkpt lat="48.60462" lon="2.12955">
        <ele>97</ele>
        <time>2019-10-28T12:28:15.000Z</time>
      </trkpt>
      <trkpt lat="48.60463" lon="2.12955">
        <ele>97</ele>
        <time>2019-10-28T12:28:16.000Z</time>
      </trkpt>
      <trkpt lat="48.60465" lon="2.12954">
        <ele>97</ele>
        <time>2019-10-28T12:28:17.000Z</time>
      </trkpt>
      <trkpt lat="48.60466" lon="2.12954">
        <ele>97</ele>
        <time>2019-10-28T12:28:18.000Z</time>
      </trkpt>
      <trkpt lat="48.60468" lon="2.12953">
        <ele>97</ele>
        <time>2019-10-28T12:28:19.000Z</time>
      </trkpt>
      <trkpt lat="48.60469" lon="2.12952">
        <ele>97</ele>
        <time>2019-10-28T12:28:20.000Z</time>
      </trkpt>
      <trkpt lat="48.60471" lon="2.12952">
        <ele>97</ele>
        <time>2019-10-28T12:28:21.000Z</time>
      </trkpt>
      <trkpt lat="48.60472" lon="2.12951">
        <ele>96</ele>
        <time>2019-10-28T12:28:22.000Z</time>
      </trkpt>
      <trkpt lat="48.60473" lon="2.1295">
        <ele>96</ele>
        <time>2019-10-28T12:28:23.000Z</time>
      </trkpt>
      <trkpt lat="48.60475" lon="2.12949">
        <ele>96</ele>
        <time>2019-10-28T12:28:24.000Z</time>
      </trkpt>
      <trkpt lat="48.60476" lon="2.12949">
        <ele>96</ele>
        <time>2019-10-28T12:28:25.000Z</time>
      </trkpt>
      <trkpt lat="48.60477" lon="2.12948">
        <ele>96</ele>
        <time>2019-10-28T12:28:26.000Z</time>
      </trkpt>
      <trkpt lat="48.60479" lon="2.12947">
        <ele>96</ele>
        <time>2019-10-28T12:28:27.000Z</time>
      </trkpt>
      <trkpt lat="48.6048" lon="2.12947">
        <ele>96</ele>
        <time>2019-10-28T12:28:28.000Z</time>
      </trkpt>
      <trkpt lat="48.60481" lon="2.12946">
        <ele>96</ele>
        <time>2019-10-28T12:28:29.000Z</time>
      </trkpt>
      <trkpt lat="48.60483" lon="2.12946">
        <ele>96</ele>
        <time>2019-10-28T12:28:30.000Z</time>
      </trkpt>
      <trkpt lat="48.60484" lon="2.12945">
        <ele>96</ele>
        <time>2019-10-28T12:28:31.000Z</time>
      </trkpt>
      <trkpt lat="48.60486" lon="2.12944">
        <ele>96</ele>
        <time>2019-10-28T12:28:32.000Z</time>
      </trkpt>
      <trkpt lat="48.60487" lon="2.12944">
        <ele>96</ele>
        <time>2019-10-28T12:28:33.000Z</time>
      </trkpt>
      <trkpt lat="48.60489" lon="2.12943">
        <ele>96</ele>
        <time>2019-10-28T12:28:34.000Z</time>
      </trkpt>
      <trkpt lat="48.6049" lon="2.12943">
        <ele>96</ele>
        <time>2019-10-28T12:28:35.000Z</time>
      </trkpt>
      <trkpt lat="48.60491" lon="2.12942">
        <ele>96</ele>
        <time>2019-10-28T12:28:36.000Z</time>
      </trkpt>
      <trkpt lat="48.60493" lon="2.12941">
        <ele>96</ele>
        <time>2019-10-28T12:28:37.000Z</time>
      </trkpt>
      <trkpt lat="48.60494" lon="2.1294">
        <ele>95</ele>
        <time>2019-10-28T12:28:38.000Z</time>
      </trkpt>
      <trkpt lat="48.60495" lon="2.1294">
        <ele>95</ele>
        <time>2019-10-28T12:28:39.000Z</time>
      </trkpt>
      <trkpt lat="48.60497" lon="2.12939">
        <ele>95</ele>
        <time>2019-10-28T12:28:40.000Z</time>
      </trkpt>
      <trkpt lat="48.60498" lon="2.12938">
        <ele>95</ele>
        <time>2019-10-28T12:28:41.000Z</time>
      </trkpt>
      <trkpt lat="48.605" lon="2.12938">
        <ele>95</ele>
        <time>2019-10-28T12:28:42.000Z</time>
      </trkpt>
      <trkpt lat="48.60501" lon="2.12937">
        <ele>95</ele>
        <time>2019-10-28T12:28:43.000Z</time>
      </trkpt>
      <trkpt lat="48.60502" lon="2.12936">
        <ele>95</ele>
        <time>2019-10-28T12:28:44.000Z</time>
      </trkpt>
      <trkpt lat="48.60504" lon="2.12935">
        <ele>95</ele>
        <time>2019-10-28T12:28:45.000Z</time>
      </trkpt>
      <trkpt lat="48.60505" lon="2.12935">
        <ele>95</ele>
        <time>2019-10-28T12:28:46.000Z</time>
      </trkpt>
      <trkpt lat="48.60506" lon="2.12934">
        <ele>95</ele>
        <time>2019-10-28T12:28:47.000Z</time>
      </trkpt>
      <trkpt lat="48.60508" lon="2.12933">
        <ele>95</ele>
        <time>2019-10-28T12:28:48.000Z</time>
      </trkpt>
      <trkpt lat="48.60509" lon="2.12932">
        <ele>95</ele>
        <time>2019-10-28T12:28:49.000Z</time>
      </trkpt>
      <trkpt lat="48.6051" lon="2.12932">
        <ele>95</ele>
        <time>2019-10-28T12:28:50.000Z</time>
      </trkpt>
      <trkpt lat="48.60512" lon="2.12931">
        <ele>95</ele>
        <time>2019-10-28T12:28:51.000Z</time>
      </trkpt>
      <trkpt lat="48.60513" lon="2.1293">
        <ele>95</ele>
        <time>2019-10-28T12:28:52.000Z</time>
      </trkpt>
      <trkpt lat="48.60514" lon="2.1293">
        <ele>95</ele>
        <time>2019-10-28T12:28:53.000Z</time>
      </trkpt>
      <trkpt lat="48.60516" lon="2.12929">
        <ele>95</ele>
        <time>2019-10-28T12:28:54.000Z</time>
      </trkpt>
      <trkpt lat="48.60517" lon="2.12928">
        <ele>95</ele>
        <time>2019-10-28T12:28:55.000Z</time>
      </trkpt>
      <trkpt lat="48.60518" lon="2.12928">
        <ele>94</ele>
        <time>2019-10-28T12:28:56.000Z</time>
      </trkpt>
      <trkpt lat="48.6052" lon="2.12927">
        <ele>94</ele>
        <time>2019-10-28T12:28:57.000Z</time>
      </trkpt>
      <trkpt lat="48.60521" lon="2.12926">
        <ele>94</ele>
        <time>2019-10-28T12:28:58.000Z</time>
      </trkpt>
      <trkpt lat="48.60523" lon="2.12925">
        <ele>94</ele>
        <time>2019-10-28T12:28:59.000Z</time>
      </trkpt>
      <trkpt lat="48.60524" lon="2.12924">
        <ele>94</ele>
        <time>2019-10-28T12:29:00.000Z</time>
      </trkpt>
      <trkpt lat="48.60525" lon="2.12923">
        <ele>94</ele>
        <time>2019-10-28T12:29:01.000Z</time>
      </trkpt>
      <trkpt lat="48.60527" lon="2.12923">
        <ele>94</ele>
        <time>2019-10-28T12:29:02.000Z</time>
      </trkpt>
      <trkpt lat="48.60528" lon="2.12922">
        <ele>94</ele>
        <time>2019-10-28T12:29:03.000Z</time>
      </trkpt>
      <trkpt lat="48.60529" lon="2.12921">
        <ele>94</ele>
        <time>2019-10-28T12:29:04.000Z</time>
      </trkpt>
      <trkpt lat="48.60531" lon="2.1292">
        <ele>94</ele>
        <time>2019-10-28T12:29:05.000Z</time>
      </trkpt>
      <trkpt lat="48.60532" lon="2.12919">
        <ele>94</ele>
        <time>2019-10-28T12:29:06.000Z</time>
      </trkpt>
      <trkpt lat="48.60533" lon="2.12918">
        <ele>94</ele>
        <time>2019-10-28T12:29:07.000Z</time>
      </trkpt>
      <trkpt lat="48.60535" lon="2.12918">
        <ele>94</ele>
        <time>2019-10-28T12:29:08.000Z</time>
      </trkpt>
      <trkpt lat="48.60536" lon="2.12917">
        <ele>94</ele>
        <time>2019-10-28T12:29:09.000Z</time>
      </trkpt>
      <trkpt lat="48.60537" lon="2.12916">
        <ele>94</ele>
        <time>2019-10-28T12:29:10.000Z</time>
      </trkpt>
      <trkpt lat="48.60539" lon="2.12915">
        <ele>94</ele>
        <time>2019-10-28T12:29:11.000Z</time>
      </trkpt>
      <trkpt lat="48.6054" lon="2.12914">
        <ele>94</ele>
        <time>2019-10-28T12:29:12.000Z</time>
      </trkpt>
      <trkpt lat="48.60541" lon="2.12913">
        <ele>94</ele>
        <time>2019-10-28T12:29:13.000Z</time>
      </trkpt>
      <trkpt lat="48.60542" lon="2.12912">
        <ele>93</ele>
        <time>2019-10-28T12:29:14.000Z</time>
      </trkpt>
      <trkpt lat="48.60543" lon="2.1291">
        <ele>94</ele>
        <time>2019-10-28T12:29:15.000Z</time>
      </trkpt>
      <trkpt lat="48.60545" lon="2.12909">
        <ele>93</ele>
        <time>2019-10-28T12:29:16.000Z</time>
      </trkpt>
      <trkpt lat="48.60546" lon="2.12908">
        <ele>93</ele>
        <time>2019-10-28T12:29:17.000Z</time>
      </trkpt>
      <trkpt lat="48.60547" lon="2.12907">
        <ele>93</ele>
        <time>2019-10-28T12:29:18.000Z</time>
      </trkpt>
      <trkpt lat="48.60549" lon="2.12906">
        <ele>93</ele>
        <time>2019-10-28T12:29:19.000Z</time>
      </trkpt>
      <trkpt lat="48.6055" lon="2.12905">
        <ele>93</ele>
        <time>2019-10-28T12:29:20.000Z</time>
      </trkpt>
      <trkpt lat="48.60551" lon="2.12904">
        <ele>93</ele>
        <time>2019-10-28T12:29:21.000Z</time>
      </trkpt>
      <trkpt lat="48.60552" lon="2.12903">
        <ele>93</ele>
        <time>2019-10-28T12:29:22.000Z</time>
      </trkpt>
      <trkpt lat="48.60553" lon="2.12902">
        <ele>93</ele>
        <time>2019-10-28T12:29:23.000Z</time>
      </trkpt>
      <trkpt lat="48.60555" lon="2.12901">
        <ele>93</ele>
        <time>2019-10-28T12:29:24.000Z</time>
      </trkpt>
      <trkpt lat="48.60556" lon="2.129">
        <ele>93</ele>
        <time>2019-10-28T12:29:25.000Z</time>
      </trkpt>
      <trkpt lat="48.60557" lon="2.12898">
        <ele>93</ele>
        <time>2019-10-28T12:29:26.000Z</time>
      </trkpt>
      <trkpt lat="48.60559" lon="2.12897">
        <ele>93</ele>
        <time>2019-10-28T12:29:27.000Z</time>
      </trkpt>
      <trkpt lat="48.6056" lon="2.12896">
        <ele>93</ele>
        <time>2019-10-28T12:29:28.000Z</time>
      </trkpt>
      <trkpt lat="48.60561" lon="2.12895">
        <ele>93</ele>
        <time>2019-10-28T12:29:29.000Z</time>
      </trkpt>
      <trkpt lat="48.60562" lon="2.12894">
        <ele>92</ele>
        <time>2019-10-28T12:29:30.000Z</time>
      </trkpt>
      <trkpt lat="48.60564" lon="2.12893">
        <ele>92</ele>
        <time>2019-10-28T12:29:31.000Z</time>
      </trkpt>
      <trkpt lat="48.60565" lon="2.12892">
        <ele>92</ele>
        <time>2019-10-28T12:29:32.000Z</time>
      </trkpt>
      <trkpt lat="48.60566" lon="2.12891">
        <ele>92</ele>
        <time>2019-10-28T12:29:33.000Z</time>
      </trkpt>
      <trkpt lat="48.60567" lon="2.1289">
        <ele>93</ele>
        <time>2019-10-28T12:29:34.000Z</time>
      </trkpt>
      <trkpt lat="48.60569" lon="2.12889">
        <ele>93</ele>
        <time>2019-10-28T12:29:35.000Z</time>
      </trkpt>
      <trkpt lat="48.6057" lon="2.12888">
        <ele>93</ele>
        <time>2019-10-28T12:29:36.000Z</time>
      </trkpt>
      <trkpt lat="48.60571" lon="2.12886">
        <ele>92</ele>
        <time>2019-10-28T12:29:37.000Z</time>
      </trkpt>
      <trkpt lat="48.60572" lon="2.12885">
        <ele>92</ele>
        <time>2019-10-28T12:29:38.000Z</time>
      </trkpt>
      <trkpt lat="48.60574" lon="2.12884">
        <ele>93</ele>
        <time>2019-10-28T12:29:39.000Z</time>
      </trkpt>
      <trkpt lat="48.60575" lon="2.12883">
        <ele>92</ele>
        <time>2019-10-28T12:29:40.000Z</time>
      </trkpt>
      <trkpt lat="48.60576" lon="2.12882">
        <ele>92</ele>
        <time>2019-10-28T12:29:41.000Z</time>
      </trkpt>
      <trkpt lat="48.60577" lon="2.12881">
        <ele>92</ele>
        <time>2019-10-28T12:29:42.000Z</time>
      </trkpt>
      <trkpt lat="48.60578" lon="2.1288">
        <ele>92</ele>
        <time>2019-10-28T12:29:43.000Z</time>
      </trkpt>
      <trkpt lat="48.60579" lon="2.12878">
        <ele>92</ele>
        <time>2019-10-28T12:29:44.000Z</time>
      </trkpt>
      <trkpt lat="48.6058" lon="2.12877">
        <ele>92</ele>
        <time>2019-10-28T12:29:45.000Z</time>
      </trkpt>
      <trkpt lat="48.60582" lon="2.12876">
        <ele>92</ele>
        <time>2019-10-28T12:29:46.000Z</time>
      </trkpt>
      <trkpt lat="48.60583" lon="2.12875">
        <ele>92</ele>
        <time>2019-10-28T12:29:47.000Z</time>
      </trkpt>
      <trkpt lat="48.60584" lon="2.12874">
        <ele>92</ele>
        <time>2019-10-28T12:29:48.000Z</time>
      </trkpt>
      <trkpt lat="48.60585" lon="2.12873">
        <ele>92</ele>
        <time>2019-10-28T12:29:49.000Z</time>
      </trkpt>
      <trkpt lat="48.60586" lon="2.12871">
        <ele>92</ele>
        <time>2019-10-28T12:29:50.000Z</time>
      </trkpt>
      <trkpt lat="48.60587" lon="2.1287">
        <ele>92</ele>
        <time>2019-10-28T12:29:51.000Z</time>
      </trkpt>
      <trkpt lat="48.60588" lon="2.12869">
        <ele>92</ele>
        <time>2019-10-28T12:29:52.000Z</time>
      </trkpt>
      <trkpt lat="48.60589" lon="2.12868">
        <ele>92</ele>
        <time>2019-10-28T12:29:53.000Z</time>
      </trkpt>
      <trkpt lat="48.6059" lon="2.12867">
        <ele>92</ele>
        <time>2019-10-28T12:29:54.000Z</time>
      </trkpt>
      <trkpt lat="48.60591" lon="2.12866">
        <ele>92</ele>
        <time>2019-10-28T12:29:55.000Z</time>
      </trkpt>
      <trkpt lat="48.60593" lon="2.12864">
        <ele>92</ele>
        <time>2019-10-28T12:29:56.000Z</time>
      </trkpt>
      <trkpt lat="48.60594" lon="2.12863">
        <ele>92</ele>
        <time>2019-10-28T12:29:57.000Z</time>
      </trkpt>
      <trkpt lat="48.60595" lon="2.12862">
        <ele>92</ele>
        <time>2019-10-28T12:29:58.000Z</time>
      </trkpt>
      <trkpt lat="48.60596" lon="2.1286">
        <ele>92</ele>
        <time>2019-10-28T12:29:59.000Z</time>
      </trkpt>
      <trkpt lat="48.60597" lon="2.12859">
        <ele>92</ele>
        <time>2019-10-28T12:30:00.000Z</time>
      </trkpt>
      <trkpt lat="48.60598" lon="2.12858">
        <ele>92</ele>
        <time>2019-10-28T12:30:01.000Z</time>
      </trkpt>
      <trkpt lat="48.60599" lon="2.12856">
        <ele>92</ele>
        <time>2019-10-28T12:30:02.000Z</time>
      </trkpt>
      <trkpt lat="48.606" lon="2.12855">
        <ele>92</ele>
        <time>2019-10-28T12:30:03.000Z</time>
      </trkpt>
      <trkpt lat="48.60601" lon="2.12854">
        <ele>92</ele>
        <time>2019-10-28T12:30:04.000Z</time>
      </trkpt>
      <trkpt lat="48.60602" lon="2.12853">
        <ele>92</ele>
        <time>2019-10-28T12:30:05.000Z</time>
      </trkpt>
      <trkpt lat="48.60603" lon="2.12851">
        <ele>92</ele>
        <time>2019-10-28T12:30:06.000Z</time>
      </trkpt>
      <trkpt lat="48.60604" lon="2.1285">
        <ele>92</ele>
        <time>2019-10-28T12:30:07.000Z</time>
      </trkpt>
      <trkpt lat="48.60605" lon="2.12849">
        <ele>92</ele>
        <time>2019-10-28T12:30:08.000Z</time>
      </trkpt>
      <trkpt lat="48.60606" lon="2.12847">
        <ele>92</ele>
        <time>2019-10-28T12:30:09.000Z</time>
      </trkpt>
      <trkpt lat="48.60607" lon="2.12846">
        <ele>92</ele>
        <time>2019-10-28T12:30:10.000Z</time>
      </trkpt>
      <trkpt lat="48.60608" lon="2.12844">
        <ele>92</ele>
        <time>2019-10-28T12:30:11.000Z</time>
      </trkpt>
      <trkpt lat="48.60609" lon="2.12843">
        <ele>92</ele>
        <time>2019-10-28T12:30:12.000Z</time>
      </trkpt>
      <trkpt lat="48.6061" lon="2.12841">
        <ele>92</ele>
        <time>2019-10-28T12:30:13.000Z</time>
      </trkpt>
      <trkpt lat="48.60611" lon="2.12839">
        <ele>92</ele>
        <time>2019-10-28T12:30:14.000Z</time>
      </trkpt>
      <trkpt lat="48.60612" lon="2.12838">
        <ele>92</ele>
        <time>2019-10-28T12:30:15.000Z</time>
      </trkpt>
      <trkpt lat="48.60612" lon="2.12836">
        <ele>92</ele>
        <time>2019-10-28T12:30:16.000Z</time>
      </trkpt>
      <trkpt lat="48.60613" lon="2.12834">
        <ele>92</ele>
        <time>2019-10-28T12:30:17.000Z</time>
      </trkpt>
      <trkpt lat="48.60614" lon="2.12832">
        <ele>92</ele>
        <time>2019-10-28T12:30:18.000Z</time>
      </trkpt>
      <trkpt lat="48.60615" lon="2.12831">
        <ele>92</ele>
        <time>2019-10-28T12:30:19.000Z</time>
      </trkpt>
      <trkpt lat="48.60616" lon="2.12829">
        <ele>91</ele>
        <time>2019-10-28T12:30:20.000Z</time>
      </trkpt>
      <trkpt lat="48.60617" lon="2.12828">
        <ele>91</ele>
        <time>2019-10-28T12:30:21.000Z</time>
      </trkpt>
      <trkpt lat="48.60618" lon="2.12826">
        <ele>91</ele>
        <time>2019-10-28T12:30:22.000Z</time>
      </trkpt>
      <trkpt lat="48.60619" lon="2.12824">
        <ele>91</ele>
        <time>2019-10-28T12:30:23.000Z</time>
      </trkpt>
      <trkpt lat="48.60619" lon="2.12823">
        <ele>91</ele>
        <time>2019-10-28T12:30:24.000Z</time>
      </trkpt>
      <trkpt lat="48.6062" lon="2.12821">
        <ele>91</ele>
        <time>2019-10-28T12:30:25.000Z</time>
      </trkpt>
      <trkpt lat="48.60621" lon="2.12819">
        <ele>91</ele>
        <time>2019-10-28T12:30:26.000Z</time>
      </trkpt>
      <trkpt lat="48.60622" lon="2.12818">
        <ele>91</ele>
        <time>2019-10-28T12:30:27.000Z</time>
      </trkpt>
      <trkpt lat="48.60623" lon="2.12816">
        <ele>91</ele>
        <time>2019-10-28T12:30:28.000Z</time>
      </trkpt>
      <trkpt lat="48.60624" lon="2.12814">
        <ele>91</ele>
        <time>2019-10-28T12:30:29.000Z</time>
      </trkpt>
      <trkpt lat="48.60624" lon="2.12812">
        <ele>91</ele>
        <time>2019-10-28T12:30:30.000Z</time>
      </trkpt>
      <trkpt lat="48.60625" lon="2.1281">
        <ele>91</ele>
        <time>2019-10-28T12:30:31.000Z</time>
      </trkpt>
      <trkpt lat="48.60625" lon="2.12808">
        <ele>91</ele>
        <time>2019-10-28T12:30:32.000Z</time>
      </trkpt>
      <trkpt lat="48.60626" lon="2.12806">
        <ele>91</ele>
        <time>2019-10-28T12:30:33.000Z</time>
      </trkpt>
      <trkpt lat="48.60626" lon="2.12804">
        <ele>91</ele>
        <time>2019-10-28T12:30:34.000Z</time>
      </trkpt>
      <trkpt lat="48.60627" lon="2.12802">
        <ele>91</ele>
        <time>2019-10-28T12:30:35.000Z</time>
      </trkpt>
      <trkpt lat="48.60627" lon="2.128">
        <ele>91</ele>
        <time>2019-10-28T12:30:36.000Z</time>
      </trkpt>
      <trkpt lat="48.60628" lon="2.12798">
        <ele>90</ele>
        <time>2019-10-28T12:30:37.000Z</time>
      </trkpt>
      <trkpt lat="48.60629" lon="2.12796">
        <ele>91</ele>
        <time>2019-10-28T12:30:38.000Z</time>
      </trkpt>
      <trkpt lat="48.60629" lon="2.12794">
        <ele>91</ele>
        <time>2019-10-28T12:30:39.000Z</time>
      </trkpt>
      <trkpt lat="48.60629" lon="2.12792">
        <ele>91</ele>
        <time>2019-10-28T12:30:40.000Z</time>
      </trkpt>
      <trkpt lat="48.6063" lon="2.1279">
        <ele>90</ele>
        <time>2019-10-28T12:30:41.000Z</time>
      </trkpt>
      <trkpt lat="48.6063" lon="2.12788">
        <ele>90</ele>
        <time>2019-10-28T12:30:42.000Z</time>
      </trkpt>
      <trkpt lat="48.6063" lon="2.12786">
        <ele>90</ele>
        <time>2019-10-28T12:30:43.000Z</time>
      </trkpt>
      <trkpt lat="48.6063" lon="2.12784">
        <ele>90</ele>
        <time>2019-10-28T12:30:44.000Z</time>
      </trkpt>
      <trkpt lat="48.6063" lon="2.12782">
        <ele>90</ele>
        <time>2019-10-28T12:30:45.000Z</time>
      </trkpt>
      <trkpt lat="48.6063" lon="2.1278">
        <ele>91</ele>
        <time>2019-10-28T12:30:46.000Z</time>
      </trkpt>
      <trkpt lat="48.6063" lon="2.12778">
        <ele>91</ele>
        <time>2019-10-28T12:30:47.000Z</time>
      </trkpt>
      <trkpt lat="48.6063" lon="2.12775">
        <ele>91</ele>
        <time>2019-10-28T12:30:48.000Z</time>
      </trkpt>
      <trkpt lat="48.6063" lon="2.12773">
        <ele>91</ele>
        <time>2019-10-28T12:30:49.000Z</time>
      </trkpt>
      <trkpt lat="48.6063" lon="2.12771">
        <ele>91</ele>
        <time>2019-10-28T12:30:50.000Z</time>
      </trkpt>
      <trkpt lat="48.6063" lon="2.12769">
        <ele>91</ele>
        <time>2019-10-28T12:30:51.000Z</time>
      </trkpt>
      <trkpt lat="48.60629" lon="2.12767">
        <ele>91</ele>
        <time>2019-10-28T12:30:52.000Z</time>
      </trkpt>
      <trkpt lat="48.60629" lon="2.12765">
        <ele>91</ele>
        <time>2019-10-28T12:30:53.000Z</time>
      </trkpt>
      <trkpt lat="48.60629" lon="2.12763">
        <ele>91</ele>
        <time>2019-10-28T12:30:54.000Z</time>
      </trkpt>
      <trkpt lat="48.60629" lon="2.12761">
        <ele>91</ele>
        <time>2019-10-28T12:30:55.000Z</time>
      </trkpt>
      <trkpt lat="48.60628" lon="2.12759">
        <ele>91</ele>
        <time>2019-10-28T12:30:56.000Z</time>
      </trkpt>
      <trkpt lat="48.60628" lon="2.12757">
        <ele>91</ele>
        <time>2019-10-28T12:30:57.000Z</time>
      </trkpt>
      <trkpt lat="48.60628" lon="2.12754">
        <ele>91</ele>
        <time>2019-10-28T12:30:58.000Z</time>
      </trkpt>
      <trkpt lat="48.60628" lon="2.12752">
        <ele>91</ele>
        <time>2019-10-28T12:30:59.000Z</time>
      </trkpt>
      <trkpt lat="48.60627" lon="2.1275">
        <ele>91</ele>
        <time>2019-10-28T12:31:00.000Z</time>
      </trkpt>
      <trkpt lat="48.60627" lon="2.12748">
        <ele>90</ele>
        <time>2019-10-28T12:31:01.000Z</time>
      </trkpt>
      <trkpt lat="48.60627" lon="2.12746">
        <ele>90</ele>
        <time>2019-10-28T12:31:02.000Z</time>
      </trkpt>
      <trkpt lat="48.60627" lon="2.12744">
        <ele>91</ele>
        <time>2019-10-28T12:31:03.000Z</time>
      </trkpt>
      <trkpt lat="48.60626" lon="2.12742">
        <ele>90</ele>
        <time>2019-10-28T12:31:04.000Z</time>
      </trkpt>
      <trkpt lat="48.60626" lon="2.1274">
        <ele>90</ele>
        <time>2019-10-28T12:31:05.000Z</time>
      </trkpt>
      <trkpt lat="48.60626" lon="2.12738">
        <ele>90</ele>
        <time>2019-10-28T12:31:06.000Z</time>
      </trkpt>
      <trkpt lat="48.60625" lon="2.12735">
        <ele>91</ele>
        <time>2019-10-28T12:31:07.000Z</time>
      </trkpt>
      <trkpt lat="48.60625" lon="2.12733">
        <ele>91</ele>
        <time>2019-10-28T12:31:08.000Z</time>
      </trkpt>
      <trkpt lat="48.60625" lon="2.12731">
        <ele>91</ele>
        <time>2019-10-28T12:31:09.000Z</time>
      </trkpt>
      <trkpt lat="48.60624" lon="2.12729">
        <ele>90</ele>
        <time>2019-10-28T12:31:10.000Z</time>
      </trkpt>
      <trkpt lat="48.60624" lon="2.12727">
        <ele>91</ele>
        <time>2019-10-28T12:31:11.000Z</time>
      </trkpt>
      <trkpt lat="48.60624" lon="2.12725">
        <ele>91</ele>
        <time>2019-10-28T12:31:12.000Z</time>
      </trkpt>
      <trkpt lat="48.60623" lon="2.12723">
        <ele>91</ele>
        <time>2019-10-28T12:31:13.000Z</time>
      </trkpt>
      <trkpt lat="48.60623" lon="2.12721">
        <ele>90</ele>
        <time>2019-10-28T12:31:14.000Z</time>
      </trkpt>
      <trkpt lat="48.60623" lon="2.12719">
        <ele>91</ele>
        <time>2019-10-28T12:31:15.000Z</time>
      </trkpt>
      <trkpt lat="48.60622" lon="2.12716">
        <ele>91</ele>
        <time>2019-10-28T12:31:16.000Z</time>
      </trkpt>
      <trkpt lat="48.60622" lon="2.12714">
        <ele>90</ele>
        <time>2019-10-28T12:31:17.000Z</time>
      </trkpt>
      <trkpt lat="48.60622" lon="2.12712">
        <ele>90</ele>
        <time>2019-10-28T12:31:18.000Z</time>
      </trkpt>
      <trkpt lat="48.60622" lon="2.1271">
        <ele>90</ele>
        <time>2019-10-28T12:31:19.000Z</time>
      </trkpt>
      <trkpt lat="48.60621" lon="2.12708">
        <ele>90</ele>
        <time>2019-10-28T12:31:20.000Z</time>
      </trkpt>
      <trkpt lat="48.60621" lon="2.12706">
        <ele>90</ele>
        <time>2019-10-28T12:31:21.000Z</time>
      </trkpt>
      <trkpt lat="48.6062" lon="2.12704">
        <ele>91</ele>
        <time>2019-10-28T12:31:22.000Z</time>
      </trkpt>
      <trkpt lat="48.6062" lon="2.12701">
        <ele>90</ele>
        <time>2019-10-28T12:31:23.000Z</time>
      </trkpt>
      <trkpt lat="48.6062" lon="2.12699">
        <ele>91</ele>
        <time>2019-10-28T12:31:24.000Z</time>
      </trkpt>
      <trkpt lat="48.6062" lon="2.12697">
        <ele>90</ele>
        <time>2019-10-28T12:31:25.000Z</time>
      </trkpt>
      <trkpt lat="48.60619" lon="2.12695">
        <ele>91</ele>
        <time>2019-10-28T12:31:26.000Z</time>
      </trkpt>
      <trkpt lat="48.60619" lon="2.12693">
        <ele>90</ele>
        <time>2019-10-28T12:31:27.000Z</time>
      </trkpt>
      <trkpt lat="48.60618" lon="2.12691">
        <ele>90</ele>
        <time>2019-10-28T12:31:28.000Z</time>
      </trkpt>
      <trkpt lat="48.60618" lon="2.12689">
        <ele>90</ele>
        <time>2019-10-28T12:31:29.000Z</time>
      </trkpt>
      <trkpt lat="48.60618" lon="2.12686">
        <ele>90</ele>
        <time>2019-10-28T12:31:30.000Z</time>
      </trkpt>
      <trkpt lat="48.60618" lon="2.12684">
        <ele>90</ele>
        <time>2019-10-28T12:31:31.000Z</time>
      </trkpt>
      <trkpt lat="48.60617" lon="2.12682">
        <ele>90</ele>
        <time>2019-10-28T12:31:32.000Z</time>
      </trkpt>
      <trkpt lat="48.60617" lon="2.1268">
        <ele>90</ele>
        <time>2019-10-28T12:31:33.000Z</time>
      </trkpt>
      <trkpt lat="48.60617" lon="2.12677">
        <ele>90</ele>
        <time>2019-10-28T12:31:34.000Z</time>
      </trkpt>
      <trkpt lat="48.60616" lon="2.12675">
        <ele>90</ele>
        <time>2019-10-28T12:31:35.000Z</time>
      </trkpt>
      <trkpt lat="48.60616" lon="2.12673">
        <ele>90</ele>
        <time>2019-10-28T12:31:36.000Z</time>
      </trkpt>
      <trkpt lat="48.60616" lon="2.12671">
        <ele>90</ele>
        <time>2019-10-28T12:31:37.000Z</time>
      </trkpt>
      <trkpt lat="48.60616" lon="2.12669">
        <ele>90</ele>
        <time>2019-10-28T12:31:38.000Z</time>
      </trkpt>
      <trkpt lat="48.60615" lon="2.12667">
        <ele>90</ele>
        <time>2019-10-28T12:31:39.000Z</time>
      </trkpt>
      <trkpt lat="48.60615" lon="2.12664">
        <ele>90</ele>
        <time>2019-10-28T12:31:40.000Z</time>
      </trkpt>
      <trkpt lat="48.60615" lon="2.12662">
        <ele>90</ele>
        <time>2019-10-28T12:31:41.000Z</time>
      </trkpt>
      <trkpt lat="48.60614" lon="2.1266">
        <ele>89</ele>
        <time>2019-10-28T12:31:42.000Z</time>
      </trkpt>
      <trkpt lat="48.60614" lon="2.12658">
        <ele>89</ele>
        <time>2019-10-28T12:31:43.000Z</time>
      </trkpt>
      <trkpt lat="48.60614" lon="2.12656">
        <ele>89</ele>
        <time>2019-10-28T12:31:44.000Z</time>
      </trkpt>
      <trkpt lat="48.60614" lon="2.12654">
        <ele>89</ele>
        <time>2019-10-28T12:31:45.000Z</time>
      </trkpt>
      <trkpt lat="48.60613" lon="2.12652">
        <ele>89</ele>
        <time>2019-10-28T12:31:46.000Z</time>
      </trkpt>
      <trkpt lat="48.60613" lon="2.1265">
        <ele>89</ele>
        <time>2019-10-28T12:31:47.000Z</time>
      </trkpt>
      <trkpt lat="48.60613" lon="2.12647">
        <ele>89</ele>
        <time>2019-10-28T12:31:48.000Z</time>
      </trkpt>
      <trkpt lat="48.60612" lon="2.12645">
        <ele>89</ele>
        <time>2019-10-28T12:31:49.000Z</time>
      </trkpt>
      <trkpt lat="48.60612" lon="2.12643">
        <ele>89</ele>
        <time>2019-10-28T12:31:50.000Z</time>
      </trkpt>
      <trkpt lat="48.60612" lon="2.12641">
        <ele>89</ele>
        <time>2019-10-28T12:31:51.000Z</time>
      </trkpt>
      <trkpt lat="48.60612" lon="2.12639">
        <ele>89</ele>
        <time>2019-10-28T12:31:52.000Z</time>
      </trkpt>
      <trkpt lat="48.60611" lon="2.12637">
        <ele>89</ele>
        <time>2019-10-28T12:31:53.000Z</time>
      </trkpt>
      <trkpt lat="48.60611" lon="2.12635">
        <ele>89</ele>
        <time>2019-10-28T12:31:54.000Z</time>
      </trkpt>
      <trkpt lat="48.60611" lon="2.12633">
        <ele>89</ele>
        <time>2019-10-28T12:31:55.000Z</time>
      </trkpt>
      <trkpt lat="48.6061" lon="2.12631">
        <ele>89</ele>
        <time>2019-10-28T12:31:56.000Z</time>
      </trkpt>
      <trkpt lat="48.6061" lon="2.12629">
        <ele>89</ele>
        <time>2019-10-28T12:31:57.000Z</time>
      </trkpt>
      <trkpt lat="48.6061" lon="2.12627">
        <ele>89</ele>
        <time>2019-10-28T12:31:58.000Z</time>
      </trkpt>
      <trkpt lat="48.60609" lon="2.12624">
        <ele>89</ele>
        <time>2019-10-28T12:31:59.000Z</time>
      </trkpt>
      <trkpt lat="48.60609" lon="2.12622">
        <ele>89</ele>
        <time>2019-10-28T12:32:00.000Z</time>
      </trkpt>
      <trkpt lat="48.60608" lon="2.1262">
        <ele>89</ele>
        <time>2019-10-28T12:32:01.000Z</time>
      </trkpt>
      <trkpt lat="48.60608" lon="2.12618">
        <ele>89</ele>
        <time>2019-10-28T12:32:02.000Z</time>
      </trkpt>
      <trkpt lat="48.60608" lon="2.12616">
        <ele>89</ele>
        <time>2019-10-28T12:32:03.000Z</time>
      </trkpt>
      <trkpt lat="48.60608" lon="2.12614">
        <ele>89</ele>
        <time>2019-10-28T12:32:04.000Z</time>
      </trkpt>
      <trkpt lat="48.60607" lon="2.12612">
        <ele>89</ele>
        <time>2019-10-28T12:32:05.000Z</time>
      </trkpt>
      <trkpt lat="48.60607" lon="2.1261">
        <ele>89</ele>
        <time>2019-10-28T12:32:06.000Z</time>
      </trkpt>
      <trkpt lat="48.60607" lon="2.12608">
        <ele>89</ele>
        <time>2019-10-28T12:32:07.000Z</time>
      </trkpt>
      <trkpt lat="48.60607" lon="2.12605">
        <ele>89</ele>
        <time>2019-10-28T12:32:08.000Z</time>
      </trkpt>
      <trkpt lat="48.60606" lon="2.12603">
        <ele>89</ele>
        <time>2019-10-28T12:32:09.000Z</time>
      </trkpt>
      <trkpt lat="48.60606" lon="2.12601">
        <ele>89</ele>
        <time>2019-10-28T12:32:10.000Z</time>
      </trkpt>
      <trkpt lat="48.60606" lon="2.12599">
        <ele>89</ele>
        <time>2019-10-28T12:32:11.000Z</time>
      </trkpt>
      <trkpt lat="48.60606" lon="2.12597">
        <ele>89</ele>
        <time>2019-10-28T12:32:12.000Z</time>
      </trkpt>
      <trkpt lat="48.60605" lon="2.12595">
        <ele>89</ele>
        <time>2019-10-28T12:32:13.000Z</time>
      </trkpt>
      <trkpt lat="48.60605" lon="2.12593">
        <ele>89</ele>
        <time>2019-10-28T12:32:14.000Z</time>
      </trkpt>
      <trkpt lat="48.60605" lon="2.12591">
        <ele>89</ele>
        <time>2019-10-28T12:32:15.000Z</time>
      </trkpt>
      <trkpt lat="48.60605" lon="2.12589">
        <ele>89</ele>
        <time>2019-10-28T12:32:16.000Z</time>
      </trkpt>
      <trkpt lat="48.60604" lon="2.12587">
        <ele>88</ele>
        <time>2019-10-28T12:32:17.000Z</time>
      </trkpt>
      <trkpt lat="48.60604" lon="2.12585">
        <ele>88</ele>
        <time>2019-10-28T12:32:18.000Z</time>
      </trkpt>
      <trkpt lat="48.60604" lon="2.12583">
        <ele>88</ele>
        <time>2019-10-28T12:32:19.000Z</time>
      </trkpt>
      <trkpt lat="48.60604" lon="2.12581">
        <ele>88</ele>
        <time>2019-10-28T12:32:20.000Z</time>
      </trkpt>
      <trkpt lat="48.60603" lon="2.12579">
        <ele>88</ele>
        <time>2019-10-28T12:32:21.000Z</time>
      </trkpt>
      <trkpt lat="48.60603" lon="2.12577">
        <ele>88</ele>
        <time>2019-10-28T12:32:22.000Z</time>
      </trkpt>
      <trkpt lat="48.60603" lon="2.12575">
        <ele>88</ele>
        <time>2019-10-28T12:32:23.000Z</time>
      </trkpt>
      <trkpt lat="48.60603" lon="2.12573">
        <ele>88</ele>
        <time>2019-10-28T12:32:24.000Z</time>
      </trkpt>
      <trkpt lat="48.60602" lon="2.12571">
        <ele>88</ele>
        <time>2019-10-28T12:32:25.000Z</time>
      </trkpt>
      <trkpt lat="48.60602" lon="2.12569">
        <ele>88</ele>
        <time>2019-10-28T12:32:26.000Z</time>
      </trkpt>
      <trkpt lat="48.60602" lon="2.12567">
        <ele>88</ele>
        <time>2019-10-28T12:32:27.000Z</time>
      </trkpt>
      <trkpt lat="48.60602" lon="2.12565">
        <ele>88</ele>
        <time>2019-10-28T12:32:28.000Z</time>
      </trkpt>
      <trkpt lat="48.60602" lon="2.12563">
        <ele>87</ele>
        <time>2019-10-28T12:32:29.000Z</time>
      </trkpt>
      <trkpt lat="48.60601" lon="2.12561">
        <ele>88</ele>
        <time>2019-10-28T12:32:30.000Z</time>
      </trkpt>
      <trkpt lat="48.60601" lon="2.12559">
        <ele>87</ele>
        <time>2019-10-28T12:32:31.000Z</time>
      </trkpt>
      <trkpt lat="48.60601" lon="2.12558">
        <ele>87</ele>
        <time>2019-10-28T12:32:32.000Z</time>
      </trkpt>
      <trkpt lat="48.60601" lon="2.12556">
        <ele>87</ele>
        <time>2019-10-28T12:32:33.000Z</time>
      </trkpt>
      <trkpt lat="48.606" lon="2.12554">
        <ele>87</ele>
        <time>2019-10-28T12:32:34.000Z</time>
      </trkpt>
      <trkpt lat="48.606" lon="2.12552">
        <ele>87</ele>
        <time>2019-10-28T12:32:35.000Z</time>
      </trkpt>
      <trkpt lat="48.606" lon="2.1255">
        <ele>87</ele>
        <time>2019-10-28T12:32:36.000Z</time>
      </trkpt>
      <trkpt lat="48.606" lon="2.12548">
        <ele>87</ele>
        <time>2019-10-28T12:32:37.000Z</time>
      </trkpt>
      <trkpt lat="48.60599" lon="2.12547">
        <ele>87</ele>
        <time>2019-10-28T12:32:38.000Z</time>
      </trkpt>
      <trkpt lat="48.60599" lon="2.12545">
        <ele>88</ele>
        <time>2019-10-28T12:32:39.000Z</time>
      </trkpt>
      <trkpt lat="48.60599" lon="2.12543">
        <ele>87</ele>
        <time>2019-10-28T12:32:40.000Z</time>
      </trkpt>
      <trkpt lat="48.60599" lon="2.1254">
        <ele>87</ele>
        <time>2019-10-28T12:32:41.000Z</time>
      </trkpt>
      <trkpt lat="48.60599" lon="2.12538">
        <ele>87</ele>
        <time>2019-10-28T12:32:42.000Z</time>
      </trkpt>
      <trkpt lat="48.60599" lon="2.12536">
        <ele>87</ele>
        <time>2019-10-28T12:32:43.000Z</time>
      </trkpt>
      <trkpt lat="48.60598" lon="2.12534">
        <ele>87</ele>
        <time>2019-10-28T12:32:44.000Z</time>
      </trkpt>
      <trkpt lat="48.60598" lon="2.12532">
        <ele>87</ele>
        <time>2019-10-28T12:32:45.000Z</time>
      </trkpt>
      <trkpt lat="48.60598" lon="2.1253">
        <ele>87</ele>
        <time>2019-10-28T12:32:46.000Z</time>
      </trkpt>
      <trkpt lat="48.60597" lon="2.12528">
        <ele>87</ele>
        <time>2019-10-28T12:32:47.000Z</time>
      </trkpt>
      <trkpt lat="48.60597" lon="2.12527">
        <ele>87</ele>
        <time>2019-10-28T12:32:48.000Z</time>
      </trkpt>
      <trkpt lat="48.60597" lon="2.12525">
        <ele>87</ele>
        <time>2019-10-28T12:32:49.000Z</time>
      </trkpt>
      <trkpt lat="48.60596" lon="2.12523">
        <ele>87</ele>
        <time>2019-10-28T12:32:50.000Z</time>
      </trkpt>
      <trkpt lat="48.60596" lon="2.12521">
        <ele>87</ele>
        <time>2019-10-28T12:32:51.000Z</time>
      </trkpt>
      <trkpt lat="48.60596" lon="2.12519">
        <ele>87</ele>
        <time>2019-10-28T12:32:52.000Z</time>
      </trkpt>
      <trkpt lat="48.60595" lon="2.12518">
        <ele>87</ele>
        <time>2019-10-28T12:32:53.000Z</time>
      </trkpt>
      <trkpt lat="48.60595" lon="2.12517">
        <ele>88</ele>
        <time>2019-10-28T12:32:54.000Z</time>
      </trkpt>
      <trkpt lat="48.60595" lon="2.12516">
        <ele>88</ele>
        <time>2019-10-28T12:32:55.000Z</time>
      </trkpt>
      <trkpt lat="48.60595" lon="2.12515">
        <ele>88</ele>
        <time>2019-10-28T12:32:56.000Z</time>
      </trkpt>
      <trkpt lat="48.60595" lon="2.12515">
        <ele>88</ele>
        <time>2019-10-28T12:32:57.000Z</time>
      </trkpt>
      <trkpt lat="48.60595" lon="2.12515">
        <ele>88</ele>
        <time>2019-10-28T12:32:58.000Z</time>
      </trkpt>
      <trkpt lat="48.60595" lon="2.12515">
        <ele>88</ele>
        <time>2019-10-28T12:32:59.000Z</time>
      </trkpt>
      <trkpt lat="48.60595" lon="2.12515">
        <ele>88</ele>
        <time>2019-10-28T12:33:00.000Z</time>
      </trkpt>
      <trkpt lat="48.60595" lon="2.12515">
        <ele>88</ele>
        <time>2019-10-28T12:33:01.000Z</time>
      </trkpt>
      <trkpt lat="48.60595" lon="2.12515">
        <ele>88</ele>
        <time>2019-10-28T12:33:02.000Z</time>
      </trkpt>
      <trkpt lat="48.60595" lon="2.12515">
        <ele>88</ele>
        <time>2019-10-28T12:33:03.000Z</time>
      </trkpt>
      <trkpt lat="48.60595" lon="2.12515">
        <ele>88</ele>
        <time>2019-10-28T12:33:04.000Z</time>
      </trkpt>
      <trkpt lat="48.60595" lon="2.12515">
        <ele>88</ele>
        <time>2019-10-28T12:33:05.000Z</time>
      </trkpt>
      <trkpt lat="48.60595" lon="2.12515">
        <ele>88</ele>
        <time>2019-10-28T12:33:06.000Z</time>
      </trkpt>
      <trkpt lat="48.60595" lon="2.12515">
        <ele>88</ele>
        <time>2019-10-28T12:33:07.000Z</time>
      </trkpt>
      <trkpt lat="48.60595" lon="2.12515">
        <ele>88</ele>
        <time>2019-10-28T12:33:08.000Z</time>
      </trkpt>
      <trkpt lat="48.60595" lon="2.12515">
        <ele>88</ele>
        <time>2019-10-28T12:33:09.000Z</time>
      </trkpt>
      <trkpt lat="48.60595" lon="2.12515">
        <ele>88</ele>
        <time>2019-10-28T12:33:10.000Z</time>
      </trkpt>
      <trkpt lat="48.60595" lon="2.12515">
        <ele>88</ele>
        <time>2019-10-28T12:33:11.000Z</time>
      </trkpt>
      <trkpt lat="48.60595" lon="2.12515">
        <ele>88</ele>
        <time>2019-10-28T12:33:12.000Z</time>
      </trkpt>
      <trkpt lat="48.60595" lon="2.12514">
        <ele>88</ele>
        <time>2019-10-28T12:33:13.000Z</time>
      </trkpt>
      <trkpt lat="48.60594" lon="2.12513">
        <ele>88</ele>
        <time>2019-10-28T12:33:14.000Z</time>
      </trkpt>
      <trkpt lat="48.60594" lon="2.12512">
        <ele>88</ele>
        <time>2019-10-28T12:33:15.000Z</time>
      </trkpt>
      <trkpt lat="48.60593" lon="2.1251">
        <ele>88</ele>
        <time>2019-10-28T12:33:16.000Z</time>
      </trkpt>
      <trkpt lat="48.60593" lon="2.12508">
        <ele>88</ele>
        <time>2019-10-28T12:33:17.000Z</time>
      </trkpt>
      <trkpt lat="48.60593" lon="2.12506">
        <ele>88</ele>
        <time>2019-10-28T12:33:18.000Z</time>
      </trkpt>
      <trkpt lat="48.60592" lon="2.12504">
        <ele>88</ele>
        <time>2019-10-28T12:33:19.000Z</time>
      </trkpt>
      <trkpt lat="48.60592" lon="2.12502">
        <ele>88</ele>
        <time>2019-10-28T12:33:20.000Z</time>
      </trkpt>
      <trkpt lat="48.60592" lon="2.125">
        <ele>88</ele>
        <time>2019-10-28T12:33:21.000Z</time>
      </trkpt>
      <trkpt lat="48.60591" lon="2.12498">
        <ele>88</ele>
        <time>2019-10-28T12:33:22.000Z</time>
      </trkpt>
      <trkpt lat="48.60591" lon="2.12497">
        <ele>88</ele>
        <time>2019-10-28T12:33:23.000Z</time>
      </trkpt>
      <trkpt lat="48.6059" lon="2.12495">
        <ele>88</ele>
        <time>2019-10-28T12:33:24.000Z</time>
      </trkpt>
      <trkpt lat="48.6059" lon="2.12493">
        <ele>88</ele>
        <time>2019-10-28T12:33:25.000Z</time>
      </trkpt>
      <trkpt lat="48.60589" lon="2.12491">
        <ele>88</ele>
        <time>2019-10-28T12:33:26.000Z</time>
      </trkpt>
      <trkpt lat="48.60589" lon="2.12489">
        <ele>88</ele>
        <time>2019-10-28T12:33:27.000Z</time>
      </trkpt>
      <trkpt lat="48.60588" lon="2.12486">
        <ele>88</ele>
        <time>2019-10-28T12:33:28.000Z</time>
      </trkpt>
      <trkpt lat="48.60588" lon="2.12484">
        <ele>88</ele>
        <time>2019-10-28T12:33:29.000Z</time>
      </trkpt>
      <trkpt lat="48.60589" lon="2.12482">
        <ele>88</ele>
        <time>2019-10-28T12:33:30.000Z</time>
      </trkpt>
      <trkpt lat="48.60589" lon="2.1248">
        <ele>88</ele>
        <time>2019-10-28T12:33:31.000Z</time>
      </trkpt>
      <trkpt lat="48.6059" lon="2.12478">
        <ele>88</ele>
        <time>2019-10-28T12:33:32.000Z</time>
      </trkpt>
      <trkpt lat="48.60591" lon="2.12476">
        <ele>88</ele>
        <time>2019-10-28T12:33:33.000Z</time>
      </trkpt>
      <trkpt lat="48.60592" lon="2.12474">
        <ele>88</ele>
        <time>2019-10-28T12:33:34.000Z</time>
      </trkpt>
      <trkpt lat="48.60593" lon="2.12473">
        <ele>88</ele>
        <time>2019-10-28T12:33:35.000Z</time>
      </trkpt>
      <trkpt lat="48.60594" lon="2.12472">
        <ele>88</ele>
        <time>2019-10-28T12:33:36.000Z</time>
      </trkpt>
      <trkpt lat="48.60596" lon="2.12472">
        <ele>88</ele>
        <time>2019-10-28T12:33:37.000Z</time>
      </trkpt>
      <trkpt lat="48.60597" lon="2.12472">
        <ele>88</ele>
        <time>2019-10-28T12:33:38.000Z</time>
      </trkpt>
      <trkpt lat="48.60598" lon="2.12472">
        <ele>88</ele>
        <time>2019-10-28T12:33:39.000Z</time>
      </trkpt>
      <trkpt lat="48.606" lon="2.12473">
        <ele>88</ele>
        <time>2019-10-28T12:33:40.000Z</time>
      </trkpt>
      <trkpt lat="48.60601" lon="2.12473">
        <ele>87</ele>
        <time>2019-10-28T12:33:41.000Z</time>
      </trkpt>
      <trkpt lat="48.60602" lon="2.12473">
        <ele>87</ele>
        <time>2019-10-28T12:33:42.000Z</time>
      </trkpt>
      <trkpt lat="48.60604" lon="2.12474">
        <ele>87</ele>
        <time>2019-10-28T12:33:43.000Z</time>
      </trkpt>
      <trkpt lat="48.60605" lon="2.12474">
        <ele>87</ele>
        <time>2019-10-28T12:33:44.000Z</time>
      </trkpt>
      <trkpt lat="48.60607" lon="2.12474">
        <ele>87</ele>
        <time>2019-10-28T12:33:45.000Z</time>
      </trkpt>
      <trkpt lat="48.60608" lon="2.12475">
        <ele>87</ele>
        <time>2019-10-28T12:33:46.000Z</time>
      </trkpt>
      <trkpt lat="48.6061" lon="2.12475">
        <ele>87</ele>
        <time>2019-10-28T12:33:47.000Z</time>
      </trkpt>
      <trkpt lat="48.60611" lon="2.12475">
        <ele>87</ele>
        <time>2019-10-28T12:33:48.000Z</time>
      </trkpt>
      <trkpt lat="48.60612" lon="2.12476">
        <ele>87</ele>
        <time>2019-10-28T12:33:49.000Z</time>
      </trkpt>
      <trkpt lat="48.60614" lon="2.12476">
        <ele>87</ele>
        <time>2019-10-28T12:33:50.000Z</time>
      </trkpt>
      <trkpt lat="48.60615" lon="2.12476">
        <ele>87</ele>
        <time>2019-10-28T12:33:51.000Z</time>
      </trkpt>
      <trkpt lat="48.60616" lon="2.12477">
        <ele>88</ele>
        <time>2019-10-28T12:33:52.000Z</time>
      </trkpt>
      <trkpt lat="48.60618" lon="2.12477">
        <ele>88</ele>
        <time>2019-10-28T12:33:53.000Z</time>
      </trkpt>
      <trkpt lat="48.60619" lon="2.12477">
        <ele>88</ele>
        <time>2019-10-28T12:33:54.000Z</time>
      </trkpt>
      <trkpt lat="48.60621" lon="2.12477">
        <ele>88</ele>
        <time>2019-10-28T12:33:55.000Z</time>
      </trkpt>
      <trkpt lat="48.60622" lon="2.12477">
        <ele>88</ele>
        <time>2019-10-28T12:33:56.000Z</time>
      </trkpt>
      <trkpt lat="48.60623" lon="2.12477">
        <ele>88</ele>
        <time>2019-10-28T12:33:57.000Z</time>
      </trkpt>
      <trkpt lat="48.60625" lon="2.12477">
        <ele>88</ele>
        <time>2019-10-28T12:33:58.000Z</time>
      </trkpt>
      <trkpt lat="48.60626" lon="2.12477">
        <ele>88</ele>
        <time>2019-10-28T12:33:59.000Z</time>
      </trkpt>
      <trkpt lat="48.60627" lon="2.12477">
        <ele>88</ele>
        <time>2019-10-28T12:34:00.000Z</time>
      </trkpt>
      <trkpt lat="48.60629" lon="2.12477">
        <ele>88</ele>
        <time>2019-10-28T12:34:01.000Z</time>
      </trkpt>
      <trkpt lat="48.6063" lon="2.12476">
        <ele>88</ele>
        <time>2019-10-28T12:34:02.000Z</time>
      </trkpt>
      <trkpt lat="48.60631" lon="2.12476">
        <ele>89</ele>
        <time>2019-10-28T12:34:03.000Z</time>
      </trkpt>
      <trkpt lat="48.60633" lon="2.12476">
        <ele>89</ele>
        <time>2019-10-28T12:34:04.000Z</time>
      </trkpt>
      <trkpt lat="48.60634" lon="2.12476">
        <ele>89</ele>
        <time>2019-10-28T12:34:05.000Z</time>
      </trkpt>
      <trkpt lat="48.60635" lon="2.12475">
        <ele>89</ele>
        <time>2019-10-28T12:34:06.000Z</time>
      </trkpt>
      <trkpt lat="48.60637" lon="2.12475">
        <ele>89</ele>
        <time>2019-10-28T12:34:07.000Z</time>
      </trkpt>
      <trkpt lat="48.60638" lon="2.12475">
        <ele>89</ele>
        <time>2019-10-28T12:34:08.000Z</time>
      </trkpt>
      <trkpt lat="48.60639" lon="2.12475">
        <ele>89</ele>
        <time>2019-10-28T12:34:09.000Z</time>
      </trkpt>
      <trkpt lat="48.60641" lon="2.12475">
        <ele>89</ele>
        <time>2019-10-28T12:34:10.000Z</time>
      </trkpt>
      <trkpt lat="48.60642" lon="2.12475">
        <ele>89</ele>
        <time>2019-10-28T12:34:11.000Z</time>
      </trkpt>
      <trkpt lat="48.60643" lon="2.12475">
        <ele>89</ele>
        <time>2019-10-28T12:34:12.000Z</time>
      </trkpt>
      <trkpt lat="48.60645" lon="2.12475">
        <ele>89</ele>
        <time>2019-10-28T12:34:13.000Z</time>
      </trkpt>
      <trkpt lat="48.60646" lon="2.12475">
        <ele>89</ele>
        <time>2019-10-28T12:34:14.000Z</time>
      </trkpt>
      <trkpt lat="48.60647" lon="2.12474">
        <ele>89</ele>
        <time>2019-10-28T12:34:15.000Z</time>
      </trkpt>
      <trkpt lat="48.60649" lon="2.12474">
        <ele>89</ele>
        <time>2019-10-28T12:34:16.000Z</time>
      </trkpt>
      <trkpt lat="48.6065" lon="2.12474">
        <ele>89</ele>
        <time>2019-10-28T12:34:17.000Z</time>
      </trkpt>
      <trkpt lat="48.60651" lon="2.12474">
        <ele>89</ele>
        <time>2019-10-28T12:34:18.000Z</time>
      </trkpt>
      <trkpt lat="48.60653" lon="2.12474">
        <ele>89</ele>
        <time>2019-10-28T12:34:19.000Z</time>
      </trkpt>
      <trkpt lat="48.60654" lon="2.12475">
        <ele>89</ele>
        <time>2019-10-28T12:34:20.000Z</time>
      </trkpt>
      <trkpt lat="48.60656" lon="2.12475">
        <ele>90</ele>
        <time>2019-10-28T12:34:21.000Z</time>
      </trkpt>
      <trkpt lat="48.60658" lon="2.12475">
        <ele>89</ele>
        <time>2019-10-28T12:34:22.000Z</time>
      </trkpt>
      <trkpt lat="48.60659" lon="2.12475">
        <ele>90</ele>
        <time>2019-10-28T12:34:23.000Z</time>
      </trkpt>
      <trkpt lat="48.60661" lon="2.12474">
        <ele>90</ele>
        <time>2019-10-28T12:34:24.000Z</time>
      </trkpt>
      <trkpt lat="48.60662" lon="2.12474">
        <ele>90</ele>
        <time>2019-10-28T12:34:25.000Z</time>
      </trkpt>
      <trkpt lat="48.60664" lon="2.12474">
        <ele>90</ele>
        <time>2019-10-28T12:34:26.000Z</time>
      </trkpt>
      <trkpt lat="48.60665" lon="2.12474">
        <ele>90</ele>
        <time>2019-10-28T12:34:27.000Z</time>
      </trkpt>
      <trkpt lat="48.60666" lon="2.12474">
        <ele>90</ele>
        <time>2019-10-28T12:34:28.000Z</time>
      </trkpt>
      <trkpt lat="48.60668" lon="2.12474">
        <ele>90</ele>
        <time>2019-10-28T12:34:29.000Z</time>
      </trkpt>
      <trkpt lat="48.60669" lon="2.12473">
        <ele>90</ele>
        <time>2019-10-28T12:34:30.000Z</time>
      </trkpt>
      <trkpt lat="48.60671" lon="2.12473">
        <ele>90</ele>
        <time>2019-10-28T12:34:31.000Z</time>
      </trkpt>
      <trkpt lat="48.60672" lon="2.12473">
        <ele>90</ele>
        <time>2019-10-28T12:34:32.000Z</time>
      </trkpt>
      <trkpt lat="48.60674" lon="2.12472">
        <ele>90</ele>
        <time>2019-10-28T12:34:33.000Z</time>
      </trkpt>
      <trkpt lat="48.60676" lon="2.12472">
        <ele>90</ele>
        <time>2019-10-28T12:34:34.000Z</time>
      </trkpt>
      <trkpt lat="48.60678" lon="2.12471">
        <ele>90</ele>
        <time>2019-10-28T12:34:35.000Z</time>
      </trkpt>
      <trkpt lat="48.60681" lon="2.1247">
        <ele>90</ele>
        <time>2019-10-28T12:34:36.000Z</time>
      </trkpt>
      <trkpt lat="48.60683" lon="2.12469">
        <ele>90</ele>
        <time>2019-10-28T12:34:37.000Z</time>
      </trkpt>
      <trkpt lat="48.60685" lon="2.12469">
        <ele>90</ele>
        <time>2019-10-28T12:34:38.000Z</time>
      </trkpt>
      <trkpt lat="48.60686" lon="2.12469">
        <ele>90</ele>
        <time>2019-10-28T12:34:39.000Z</time>
      </trkpt>
      <trkpt lat="48.60688" lon="2.12468">
        <ele>90</ele>
        <time>2019-10-28T12:34:40.000Z</time>
      </trkpt>
      <trkpt lat="48.60689" lon="2.12468">
        <ele>90</ele>
        <time>2019-10-28T12:34:41.000Z</time>
      </trkpt>
      <trkpt lat="48.60691" lon="2.12468">
        <ele>90</ele>
        <time>2019-10-28T12:34:42.000Z</time>
      </trkpt>
      <trkpt lat="48.60692" lon="2.12468">
        <ele>90</ele>
        <time>2019-10-28T12:34:43.000Z</time>
      </trkpt>
      <trkpt lat="48.60693" lon="2.12467">
        <ele>90</ele>
        <time>2019-10-28T12:34:44.000Z</time>
      </trkpt>
      <trkpt lat="48.60695" lon="2.12467">
        <ele>90</ele>
        <time>2019-10-28T12:34:45.000Z</time>
      </trkpt>
      <trkpt lat="48.60696" lon="2.12466">
        <ele>90</ele>
        <time>2019-10-28T12:34:46.000Z</time>
      </trkpt>
      <trkpt lat="48.60698" lon="2.12466">
        <ele>90</ele>
        <time>2019-10-28T12:34:47.000Z</time>
      </trkpt>
      <trkpt lat="48.60699" lon="2.12465">
        <ele>90</ele>
        <time>2019-10-28T12:34:48.000Z</time>
      </trkpt>
      <trkpt lat="48.607" lon="2.12465">
        <ele>90</ele>
        <time>2019-10-28T12:34:49.000Z</time>
      </trkpt>
      <trkpt lat="48.60702" lon="2.12465">
        <ele>90</ele>
        <time>2019-10-28T12:34:50.000Z</time>
      </trkpt>
      <trkpt lat="48.60703" lon="2.12465">
        <ele>90</ele>
        <time>2019-10-28T12:34:51.000Z</time>
      </trkpt>
      <trkpt lat="48.60704" lon="2.12465">
        <ele>90</ele>
        <time>2019-10-28T12:34:52.000Z</time>
      </trkpt>
      <trkpt lat="48.60706" lon="2.12464">
        <ele>90</ele>
        <time>2019-10-28T12:34:53.000Z</time>
      </trkpt>
      <trkpt lat="48.60707" lon="2.12464">
        <ele>90</ele>
        <time>2019-10-28T12:34:54.000Z</time>
      </trkpt>
      <trkpt lat="48.60709" lon="2.12464">
        <ele>91</ele>
        <time>2019-10-28T12:34:55.000Z</time>
      </trkpt>
      <trkpt lat="48.6071" lon="2.12463">
        <ele>90</ele>
        <time>2019-10-28T12:34:56.000Z</time>
      </trkpt>
      <trkpt lat="48.60711" lon="2.12463">
        <ele>90</ele>
        <time>2019-10-28T12:34:57.000Z</time>
      </trkpt>
      <trkpt lat="48.60713" lon="2.12463">
        <ele>91</ele>
        <time>2019-10-28T12:34:58.000Z</time>
      </trkpt>
      <trkpt lat="48.60714" lon="2.12462">
        <ele>91</ele>
        <time>2019-10-28T12:34:59.000Z</time>
      </trkpt>
      <trkpt lat="48.60716" lon="2.12462">
        <ele>91</ele>
        <time>2019-10-28T12:35:00.000Z</time>
      </trkpt>
      <trkpt lat="48.60717" lon="2.12462">
        <ele>91</ele>
        <time>2019-10-28T12:35:01.000Z</time>
      </trkpt>
      <trkpt lat="48.60719" lon="2.12461">
        <ele>91</ele>
        <time>2019-10-28T12:35:02.000Z</time>
      </trkpt>
      <trkpt lat="48.6072" lon="2.12461">
        <ele>91</ele>
        <time>2019-10-28T12:35:03.000Z</time>
      </trkpt>
      <trkpt lat="48.60721" lon="2.12461">
        <ele>91</ele>
        <time>2019-10-28T12:35:04.000Z</time>
      </trkpt>
      <trkpt lat="48.60723" lon="2.12461">
        <ele>91</ele>
        <time>2019-10-28T12:35:05.000Z</time>
      </trkpt>
      <trkpt lat="48.60724" lon="2.1246">
        <ele>91</ele>
        <time>2019-10-28T12:35:06.000Z</time>
      </trkpt>
      <trkpt lat="48.60726" lon="2.1246">
        <ele>92</ele>
        <time>2019-10-28T12:35:07.000Z</time>
      </trkpt>
      <trkpt lat="48.60727" lon="2.1246">
        <ele>92</ele>
        <time>2019-10-28T12:35:08.000Z</time>
      </trkpt>
      <trkpt lat="48.60728" lon="2.12459">
        <ele>92</ele>
        <time>2019-10-28T12:35:09.000Z</time>
      </trkpt>
      <trkpt lat="48.6073" lon="2.12459">
        <ele>91</ele>
        <time>2019-10-28T12:35:10.000Z</time>
      </trkpt>
      <trkpt lat="48.60731" lon="2.12458">
        <ele>92</ele>
        <time>2019-10-28T12:35:11.000Z</time>
      </trkpt>
      <trkpt lat="48.60732" lon="2.12458">
        <ele>91</ele>
        <time>2019-10-28T12:35:12.000Z</time>
      </trkpt>
      <trkpt lat="48.60734" lon="2.12457">
        <ele>91</ele>
        <time>2019-10-28T12:35:13.000Z</time>
      </trkpt>
      <trkpt lat="48.60735" lon="2.12456">
        <ele>91</ele>
        <time>2019-10-28T12:35:14.000Z</time>
      </trkpt>
      <trkpt lat="48.60737" lon="2.12456">
        <ele>91</ele>
        <time>2019-10-28T12:35:15.000Z</time>
      </trkpt>
      <trkpt lat="48.60738" lon="2.12455">
        <ele>92</ele>
        <time>2019-10-28T12:35:16.000Z</time>
      </trkpt>
      <trkpt lat="48.60739" lon="2.12455">
        <ele>92</ele>
        <time>2019-10-28T12:35:17.000Z</time>
      </trkpt>
      <trkpt lat="48.60741" lon="2.12455">
        <ele>92</ele>
        <time>2019-10-28T12:35:18.000Z</time>
      </trkpt>
      <trkpt lat="48.60742" lon="2.12454">
        <ele>92</ele>
        <time>2019-10-28T12:35:19.000Z</time>
      </trkpt>
      <trkpt lat="48.60743" lon="2.12454">
        <ele>91</ele>
        <time>2019-10-28T12:35:20.000Z</time>
      </trkpt>
      <trkpt lat="48.60744" lon="2.12453">
        <ele>92</ele>
        <time>2019-10-28T12:35:21.000Z</time>
      </trkpt>
      <trkpt lat="48.60746" lon="2.12453">
        <ele>92</ele>
        <time>2019-10-28T12:35:22.000Z</time>
      </trkpt>
      <trkpt lat="48.60747" lon="2.12453">
        <ele>92</ele>
        <time>2019-10-28T12:35:23.000Z</time>
      </trkpt>
      <trkpt lat="48.60748" lon="2.12452">
        <ele>92</ele>
        <time>2019-10-28T12:35:24.000Z</time>
      </trkpt>
      <trkpt lat="48.6075" lon="2.12452">
        <ele>92</ele>
        <time>2019-10-28T12:35:25.000Z</time>
      </trkpt>
      <trkpt lat="48.60751" lon="2.12452">
        <ele>92</ele>
        <time>2019-10-28T12:35:26.000Z</time>
      </trkpt>
      <trkpt lat="48.60753" lon="2.12452">
        <ele>91</ele>
        <time>2019-10-28T12:35:27.000Z</time>
      </trkpt>
      <trkpt lat="48.60754" lon="2.12452">
        <ele>92</ele>
        <time>2019-10-28T12:35:28.000Z</time>
      </trkpt>
      <trkpt lat="48.60755" lon="2.12451">
        <ele>92</ele>
        <time>2019-10-28T12:35:29.000Z</time>
      </trkpt>
      <trkpt lat="48.60756" lon="2.12451">
        <ele>92</ele>
        <time>2019-10-28T12:35:30.000Z</time>
      </trkpt>
      <trkpt lat="48.60758" lon="2.12451">
        <ele>92</ele>
        <time>2019-10-28T12:35:31.000Z</time>
      </trkpt>
      <trkpt lat="48.60759" lon="2.1245">
        <ele>92</ele>
        <time>2019-10-28T12:35:32.000Z</time>
      </trkpt>
      <trkpt lat="48.6076" lon="2.1245">
        <ele>92</ele>
        <time>2019-10-28T12:35:33.000Z</time>
      </trkpt>
      <trkpt lat="48.60762" lon="2.12449">
        <ele>92</ele>
        <time>2019-10-28T12:35:34.000Z</time>
      </trkpt>
      <trkpt lat="48.60763" lon="2.12449">
        <ele>92</ele>
        <time>2019-10-28T12:35:35.000Z</time>
      </trkpt>
      <trkpt lat="48.60764" lon="2.12449">
        <ele>92</ele>
        <time>2019-10-28T12:35:36.000Z</time>
      </trkpt>
      <trkpt lat="48.60766" lon="2.12448">
        <ele>92</ele>
        <time>2019-10-28T12:35:37.000Z</time>
      </trkpt>
      <trkpt lat="48.60767" lon="2.12448">
        <ele>92</ele>
        <time>2019-10-28T12:35:38.000Z</time>
      </trkpt>
      <trkpt lat="48.60769" lon="2.12447">
        <ele>92</ele>
        <time>2019-10-28T12:35:39.000Z</time>
      </trkpt>
      <trkpt lat="48.6077" lon="2.12447">
        <ele>93</ele>
        <time>2019-10-28T12:35:40.000Z</time>
      </trkpt>
      <trkpt lat="48.60771" lon="2.12447">
        <ele>93</ele>
        <time>2019-10-28T12:35:41.000Z</time>
      </trkpt>
      <trkpt lat="48.60772" lon="2.12447">
        <ele>92</ele>
        <time>2019-10-28T12:35:42.000Z</time>
      </trkpt>
      <trkpt lat="48.60774" lon="2.12446">
        <ele>92</ele>
        <time>2019-10-28T12:35:43.000Z</time>
      </trkpt>
      <trkpt lat="48.60775" lon="2.12445">
        <ele>92</ele>
        <time>2019-10-28T12:35:44.000Z</time>
      </trkpt>
      <trkpt lat="48.60776" lon="2.12445">
        <ele>92</ele>
        <time>2019-10-28T12:35:45.000Z</time>
      </trkpt>
      <trkpt lat="48.60778" lon="2.12445">
        <ele>92</ele>
        <time>2019-10-28T12:35:46.000Z</time>
      </trkpt>
      <trkpt lat="48.60779" lon="2.12444">
        <ele>92</ele>
        <time>2019-10-28T12:35:47.000Z</time>
      </trkpt>
      <trkpt lat="48.6078" lon="2.12444">
        <ele>92</ele>
        <time>2019-10-28T12:35:48.000Z</time>
      </trkpt>
      <trkpt lat="48.60781" lon="2.12444">
        <ele>92</ele>
        <time>2019-10-28T12:35:49.000Z</time>
      </trkpt>
      <trkpt lat="48.60783" lon="2.12443">
        <ele>92</ele>
        <time>2019-10-28T12:35:50.000Z</time>
      </trkpt>
      <trkpt lat="48.60784" lon="2.12443">
        <ele>92</ele>
        <time>2019-10-28T12:35:51.000Z</time>
      </trkpt>
      <trkpt lat="48.60786" lon="2.12443">
        <ele>92</ele>
        <time>2019-10-28T12:35:52.000Z</time>
      </trkpt>
      <trkpt lat="48.60787" lon="2.12443">
        <ele>92</ele>
        <time>2019-10-28T12:35:53.000Z</time>
      </trkpt>
      <trkpt lat="48.60788" lon="2.12442">
        <ele>92</ele>
        <time>2019-10-28T12:35:54.000Z</time>
      </trkpt>
      <trkpt lat="48.6079" lon="2.12442">
        <ele>92</ele>
        <time>2019-10-28T12:35:55.000Z</time>
      </trkpt>
      <trkpt lat="48.60791" lon="2.12442">
        <ele>92</ele>
        <time>2019-10-28T12:35:56.000Z</time>
      </trkpt>
      <trkpt lat="48.60792" lon="2.12442">
        <ele>92</ele>
        <time>2019-10-28T12:35:57.000Z</time>
      </trkpt>
      <trkpt lat="48.60794" lon="2.12441">
        <ele>92</ele>
        <time>2019-10-28T12:35:58.000Z</time>
      </trkpt>
      <trkpt lat="48.60795" lon="2.12441">
        <ele>92</ele>
        <time>2019-10-28T12:35:59.000Z</time>
      </trkpt>
      <trkpt lat="48.60796" lon="2.12441">
        <ele>92</ele>
        <time>2019-10-28T12:36:00.000Z</time>
      </trkpt>
      <trkpt lat="48.60798" lon="2.1244">
        <ele>92</ele>
        <time>2019-10-28T12:36:01.000Z</time>
      </trkpt>
      <trkpt lat="48.60799" lon="2.1244">
        <ele>92</ele>
        <time>2019-10-28T12:36:02.000Z</time>
      </trkpt>
      <trkpt lat="48.608" lon="2.1244">
        <ele>93</ele>
        <time>2019-10-28T12:36:03.000Z</time>
      </trkpt>
      <trkpt lat="48.60802" lon="2.1244">
        <ele>93</ele>
        <time>2019-10-28T12:36:04.000Z</time>
      </trkpt>
      <trkpt lat="48.60803" lon="2.1244">
        <ele>92</ele>
        <time>2019-10-28T12:36:05.000Z</time>
      </trkpt>
      <trkpt lat="48.60804" lon="2.12439">
        <ele>92</ele>
        <time>2019-10-28T12:36:06.000Z</time>
      </trkpt>
      <trkpt lat="48.60805" lon="2.12439">
        <ele>92</ele>
        <time>2019-10-28T12:36:07.000Z</time>
      </trkpt>
      <trkpt lat="48.60807" lon="2.12438">
        <ele>92</ele>
        <time>2019-10-28T12:36:08.000Z</time>
      </trkpt>
      <trkpt lat="48.60808" lon="2.12438">
        <ele>92</ele>
        <time>2019-10-28T12:36:09.000Z</time>
      </trkpt>
      <trkpt lat="48.60809" lon="2.12437">
        <ele>92</ele>
        <time>2019-10-28T12:36:10.000Z</time>
      </trkpt>
      <trkpt lat="48.60811" lon="2.12437">
        <ele>92</ele>
        <time>2019-10-28T12:36:11.000Z</time>
      </trkpt>
      <trkpt lat="48.60812" lon="2.12437">
        <ele>92</ele>
        <time>2019-10-28T12:36:12.000Z</time>
      </trkpt>
      <trkpt lat="48.60813" lon="2.12437">
        <ele>92</ele>
        <time>2019-10-28T12:36:13.000Z</time>
      </trkpt>
      <trkpt lat="48.60815" lon="2.12437">
        <ele>92</ele>
        <time>2019-10-28T12:36:14.000Z</time>
      </trkpt>
      <trkpt lat="48.60816" lon="2.12436">
        <ele>92</ele>
        <time>2019-10-28T12:36:15.000Z</time>
      </trkpt>
      <trkpt lat="48.60817" lon="2.12436">
        <ele>92</ele>
        <time>2019-10-28T12:36:16.000Z</time>
      </trkpt>
      <trkpt lat="48.60819" lon="2.12436">
        <ele>92</ele>
        <time>2019-10-28T12:36:17.000Z</time>
      </trkpt>
      <trkpt lat="48.6082" lon="2.12436">
        <ele>92</ele>
        <time>2019-10-28T12:36:18.000Z</time>
      </trkpt>
      <trkpt lat="48.60821" lon="2.12435">
        <ele>92</ele>
        <time>2019-10-28T12:36:19.000Z</time>
      </trkpt>
      <trkpt lat="48.60823" lon="2.12435">
        <ele>92</ele>
        <time>2019-10-28T12:36:20.000Z</time>
      </trkpt>
      <trkpt lat="48.60824" lon="2.12434">
        <ele>92</ele>
        <time>2019-10-28T12:36:21.000Z</time>
      </trkpt>
      <trkpt lat="48.60826" lon="2.12434">
        <ele>92</ele>
        <time>2019-10-28T12:36:22.000Z</time>
      </trkpt>
      <trkpt lat="48.60827" lon="2.12434">
        <ele>92</ele>
        <time>2019-10-28T12:36:23.000Z</time>
      </trkpt>
      <trkpt lat="48.60829" lon="2.12434">
        <ele>92</ele>
        <time>2019-10-28T12:36:24.000Z</time>
      </trkpt>
      <trkpt lat="48.6083" lon="2.12434">
        <ele>92</ele>
        <time>2019-10-28T12:36:25.000Z</time>
      </trkpt>
      <trkpt lat="48.60831" lon="2.12433">
        <ele>92</ele>
        <time>2019-10-28T12:36:26.000Z</time>
      </trkpt>
      <trkpt lat="48.60832" lon="2.12433">
        <ele>92</ele>
        <time>2019-10-28T12:36:27.000Z</time>
      </trkpt>
      <trkpt lat="48.60834" lon="2.12432">
        <ele>92</ele>
        <time>2019-10-28T12:36:28.000Z</time>
      </trkpt>
      <trkpt lat="48.60835" lon="2.12432">
        <ele>92</ele>
        <time>2019-10-28T12:36:29.000Z</time>
      </trkpt>
      <trkpt lat="48.60836" lon="2.12431">
        <ele>92</ele>
        <time>2019-10-28T12:36:30.000Z</time>
      </trkpt>
      <trkpt lat="48.60838" lon="2.12431">
        <ele>92</ele>
        <time>2019-10-28T12:36:31.000Z</time>
      </trkpt>
      <trkpt lat="48.60839" lon="2.1243">
        <ele>92</ele>
        <time>2019-10-28T12:36:32.000Z</time>
      </trkpt>
      <trkpt lat="48.6084" lon="2.12429">
        <ele>92</ele>
        <time>2019-10-28T12:36:33.000Z</time>
      </trkpt>
      <trkpt lat="48.60842" lon="2.12429">
        <ele>92</ele>
        <time>2019-10-28T12:36:34.000Z</time>
      </trkpt>
      <trkpt lat="48.60843" lon="2.12429">
        <ele>92</ele>
        <time>2019-10-28T12:36:35.000Z</time>
      </trkpt>
      <trkpt lat="48.60845" lon="2.12428">
        <ele>92</ele>
        <time>2019-10-28T12:36:36.000Z</time>
      </trkpt>
      <trkpt lat="48.60846" lon="2.12428">
        <ele>92</ele>
        <time>2019-10-28T12:36:37.000Z</time>
      </trkpt>
      <trkpt lat="48.60847" lon="2.12428">
        <ele>92</ele>
        <time>2019-10-28T12:36:38.000Z</time>
      </trkpt>
      <trkpt lat="48.60848" lon="2.12427">
        <ele>92</ele>
        <time>2019-10-28T12:36:39.000Z</time>
      </trkpt>
      <trkpt lat="48.6085" lon="2.12427">
        <ele>92</ele>
        <time>2019-10-28T12:36:40.000Z</time>
      </trkpt>
      <trkpt lat="48.60851" lon="2.12427">
        <ele>92</ele>
        <time>2019-10-28T12:36:41.000Z</time>
      </trkpt>
      <trkpt lat="48.60852" lon="2.12426">
        <ele>92</ele>
        <time>2019-10-28T12:36:42.000Z</time>
      </trkpt>
      <trkpt lat="48.60854" lon="2.12426">
        <ele>92</ele>
        <time>2019-10-28T12:36:43.000Z</time>
      </trkpt>
      <trkpt lat="48.60855" lon="2.12426">
        <ele>92</ele>
        <time>2019-10-28T12:36:44.000Z</time>
      </trkpt>
      <trkpt lat="48.60856" lon="2.12425">
        <ele>92</ele>
        <time>2019-10-28T12:36:45.000Z</time>
      </trkpt>
      <trkpt lat="48.60858" lon="2.12425">
        <ele>92</ele>
        <time>2019-10-28T12:36:46.000Z</time>
      </trkpt>
      <trkpt lat="48.60859" lon="2.12424">
        <ele>92</ele>
        <time>2019-10-28T12:36:47.000Z</time>
      </trkpt>
      <trkpt lat="48.6086" lon="2.12424">
        <ele>92</ele>
        <time>2019-10-28T12:36:48.000Z</time>
      </trkpt>
      <trkpt lat="48.60862" lon="2.12423">
        <ele>92</ele>
        <time>2019-10-28T12:36:49.000Z</time>
      </trkpt>
      <trkpt lat="48.60863" lon="2.12423">
        <ele>92</ele>
        <time>2019-10-28T12:36:50.000Z</time>
      </trkpt>
      <trkpt lat="48.60865" lon="2.12423">
        <ele>92</ele>
        <time>2019-10-28T12:36:51.000Z</time>
      </trkpt>
      <trkpt lat="48.60866" lon="2.12422">
        <ele>92</ele>
        <time>2019-10-28T12:36:52.000Z</time>
      </trkpt>
      <trkpt lat="48.60867" lon="2.12422">
        <ele>92</ele>
        <time>2019-10-28T12:36:53.000Z</time>
      </trkpt>
      <trkpt lat="48.60869" lon="2.12421">
        <ele>92</ele>
        <time>2019-10-28T12:36:54.000Z</time>
      </trkpt>
      <trkpt lat="48.6087" lon="2.1242">
        <ele>92</ele>
        <time>2019-10-28T12:36:55.000Z</time>
      </trkpt>
      <trkpt lat="48.60872" lon="2.1242">
        <ele>92</ele>
        <time>2019-10-28T12:36:56.000Z</time>
      </trkpt>
      <trkpt lat="48.60873" lon="2.12419">
        <ele>92</ele>
        <time>2019-10-28T12:36:57.000Z</time>
      </trkpt>
      <trkpt lat="48.60874" lon="2.12419">
        <ele>92</ele>
        <time>2019-10-28T12:36:58.000Z</time>
      </trkpt>
      <trkpt lat="48.60876" lon="2.12419">
        <ele>92</ele>
        <time>2019-10-28T12:36:59.000Z</time>
      </trkpt>
      <trkpt lat="48.60877" lon="2.12418">
        <ele>92</ele>
        <time>2019-10-28T12:37:00.000Z</time>
      </trkpt>
      <trkpt lat="48.60878" lon="2.12418">
        <ele>92</ele>
        <time>2019-10-28T12:37:01.000Z</time>
      </trkpt>
      <trkpt lat="48.6088" lon="2.12417">
        <ele>92</ele>
        <time>2019-10-28T12:37:02.000Z</time>
      </trkpt>
      <trkpt lat="48.60881" lon="2.12417">
        <ele>92</ele>
        <time>2019-10-28T12:37:03.000Z</time>
      </trkpt>
      <trkpt lat="48.60882" lon="2.12416">
        <ele>92</ele>
        <time>2019-10-28T12:37:04.000Z</time>
      </trkpt>
      <trkpt lat="48.60884" lon="2.12416">
        <ele>92</ele>
        <time>2019-10-28T12:37:05.000Z</time>
      </trkpt>
      <trkpt lat="48.60885" lon="2.12415">
        <ele>92</ele>
        <time>2019-10-28T12:37:06.000Z</time>
      </trkpt>
      <trkpt lat="48.60887" lon="2.12414">
        <ele>92</ele>
        <time>2019-10-28T12:37:07.000Z</time>
      </trkpt>
      <trkpt lat="48.60888" lon="2.12414">
        <ele>92</ele>
        <time>2019-10-28T12:37:08.000Z</time>
      </trkpt>
      <trkpt lat="48.60889" lon="2.12414">
        <ele>92</ele>
        <time>2019-10-28T12:37:09.000Z</time>
      </trkpt>
      <trkpt lat="48.60891" lon="2.12413">
        <ele>92</ele>
        <time>2019-10-28T12:37:10.000Z</time>
      </trkpt>
      <trkpt lat="48.60892" lon="2.12413">
        <ele>92</ele>
        <time>2019-10-28T12:37:11.000Z</time>
      </trkpt>
      <trkpt lat="48.60893" lon="2.12412">
        <ele>92</ele>
        <time>2019-10-28T12:37:12.000Z</time>
      </trkpt>
      <trkpt lat="48.60895" lon="2.12412">
        <ele>92</ele>
        <time>2019-10-28T12:37:13.000Z</time>
      </trkpt>
      <trkpt lat="48.60896" lon="2.12412">
        <ele>92</ele>
        <time>2019-10-28T12:37:14.000Z</time>
      </trkpt>
      <trkpt lat="48.60897" lon="2.12411">
        <ele>92</ele>
        <time>2019-10-28T12:37:15.000Z</time>
      </trkpt>
      <trkpt lat="48.60899" lon="2.12411">
        <ele>91</ele>
        <time>2019-10-28T12:37:16.000Z</time>
      </trkpt>
      <trkpt lat="48.609" lon="2.1241">
        <ele>91</ele>
        <time>2019-10-28T12:37:17.000Z</time>
      </trkpt>
      <trkpt lat="48.60901" lon="2.12409">
        <ele>91</ele>
        <time>2019-10-28T12:37:18.000Z</time>
      </trkpt>
      <trkpt lat="48.60903" lon="2.12409">
        <ele>92</ele>
        <time>2019-10-28T12:37:19.000Z</time>
      </trkpt>
      <trkpt lat="48.60904" lon="2.12408">
        <ele>92</ele>
        <time>2019-10-28T12:37:20.000Z</time>
      </trkpt>
      <trkpt lat="48.60906" lon="2.12408">
        <ele>92</ele>
        <time>2019-10-28T12:37:21.000Z</time>
      </trkpt>
      <trkpt lat="48.60907" lon="2.12407">
        <ele>92</ele>
        <time>2019-10-28T12:37:22.000Z</time>
      </trkpt>
      <trkpt lat="48.60908" lon="2.12407">
        <ele>92</ele>
        <time>2019-10-28T12:37:23.000Z</time>
      </trkpt>
      <trkpt lat="48.6091" lon="2.12406">
        <ele>92</ele>
        <time>2019-10-28T12:37:24.000Z</time>
      </trkpt>
      <trkpt lat="48.60912" lon="2.12406">
        <ele>92</ele>
        <time>2019-10-28T12:37:25.000Z</time>
      </trkpt>
      <trkpt lat="48.60913" lon="2.12405">
        <ele>92</ele>
        <time>2019-10-28T12:37:26.000Z</time>
      </trkpt>
      <trkpt lat="48.60914" lon="2.12405">
        <ele>92</ele>
        <time>2019-10-28T12:37:27.000Z</time>
      </trkpt>
      <trkpt lat="48.60916" lon="2.12404">
        <ele>92</ele>
        <time>2019-10-28T12:37:28.000Z</time>
      </trkpt>
      <trkpt lat="48.60917" lon="2.12404">
        <ele>92</ele>
        <time>2019-10-28T12:37:29.000Z</time>
      </trkpt>
      <trkpt lat="48.60918" lon="2.12403">
        <ele>92</ele>
        <time>2019-10-28T12:37:30.000Z</time>
      </trkpt>
      <trkpt lat="48.6092" lon="2.12403">
        <ele>92</ele>
        <time>2019-10-28T12:37:31.000Z</time>
      </trkpt>
      <trkpt lat="48.60921" lon="2.12402">
        <ele>92</ele>
        <time>2019-10-28T12:37:32.000Z</time>
      </trkpt>
      <trkpt lat="48.60923" lon="2.12402">
        <ele>92</ele>
        <time>2019-10-28T12:37:33.000Z</time>
      </trkpt>
      <trkpt lat="48.60924" lon="2.12402">
        <ele>92</ele>
        <time>2019-10-28T12:37:34.000Z</time>
      </trkpt>
      <trkpt lat="48.60925" lon="2.12401">
        <ele>92</ele>
        <time>2019-10-28T12:37:35.000Z</time>
      </trkpt>
      <trkpt lat="48.60927" lon="2.12401">
        <ele>91</ele>
        <time>2019-10-28T12:37:36.000Z</time>
      </trkpt>
      <trkpt lat="48.60928" lon="2.12401">
        <ele>91</ele>
        <time>2019-10-28T12:37:37.000Z</time>
      </trkpt>
      <trkpt lat="48.6093" lon="2.124">
        <ele>91</ele>
        <time>2019-10-28T12:37:38.000Z</time>
      </trkpt>
      <trkpt lat="48.60931" lon="2.124">
        <ele>92</ele>
        <time>2019-10-28T12:37:39.000Z</time>
      </trkpt>
      <trkpt lat="48.60933" lon="2.124">
        <ele>92</ele>
        <time>2019-10-28T12:37:40.000Z</time>
      </trkpt>
      <trkpt lat="48.60934" lon="2.12399">
        <ele>92</ele>
        <time>2019-10-28T12:37:41.000Z</time>
      </trkpt>
      <trkpt lat="48.60935" lon="2.12399">
        <ele>92</ele>
        <time>2019-10-28T12:37:42.000Z</time>
      </trkpt>
      <trkpt lat="48.60936" lon="2.12398">
        <ele>92</ele>
        <time>2019-10-28T12:37:43.000Z</time>
      </trkpt>
      <trkpt lat="48.60937" lon="2.12398">
        <ele>92</ele>
        <time>2019-10-28T12:37:44.000Z</time>
      </trkpt>
      <trkpt lat="48.60937" lon="2.12398">
        <ele>92</ele>
        <time>2019-10-28T12:37:45.000Z</time>
      </trkpt>
      <trkpt lat="48.60937" lon="2.12398">
        <ele>92</ele>
        <time>2019-10-28T12:37:46.000Z</time>
      </trkpt>
      <trkpt lat="48.60937" lon="2.12398">
        <ele>92</ele>
        <time>2019-10-28T12:37:47.000Z</time>
      </trkpt>
      <trkpt lat="48.60937" lon="2.12398">
        <ele>91</ele>
        <time>2019-10-28T12:37:48.000Z</time>
      </trkpt>
      <trkpt lat="48.60937" lon="2.12398">
        <ele>92</ele>
        <time>2019-10-28T12:37:49.000Z</time>
      </trkpt>
      <trkpt lat="48.60937" lon="2.12398">
        <ele>91</ele>
        <time>2019-10-28T12:37:50.000Z</time>
      </trkpt>
      <trkpt lat="48.60937" lon="2.12398">
        <ele>91</ele>
        <time>2019-10-28T12:37:51.000Z</time>
      </trkpt>
      <trkpt lat="48.60937" lon="2.12398">
        <ele>91</ele>
        <time>2019-10-28T12:37:52.000Z</time>
      </trkpt>
      <trkpt lat="48.60938" lon="2.12398">
        <ele>92</ele>
        <time>2019-10-28T12:37:53.000Z</time>
      </trkpt>
      <trkpt lat="48.60938" lon="2.12398">
        <ele>92</ele>
        <time>2019-10-28T12:37:54.000Z</time>
      </trkpt>
      <trkpt lat="48.60939" lon="2.12398">
        <ele>92</ele>
        <time>2019-10-28T12:37:55.000Z</time>
      </trkpt>
      <trkpt lat="48.60939" lon="2.12397">
        <ele>92</ele>
        <time>2019-10-28T12:37:56.000Z</time>
      </trkpt>
      <trkpt lat="48.60939" lon="2.12397">
        <ele>92</ele>
        <time>2019-10-28T12:37:57.000Z</time>
      </trkpt>
      <trkpt lat="48.60939" lon="2.12397">
        <ele>92</ele>
        <time>2019-10-28T12:37:58.000Z</time>
      </trkpt>
      <trkpt lat="48.60939" lon="2.12397">
        <ele>92</ele>
        <time>2019-10-28T12:37:59.000Z</time>
      </trkpt>
      <trkpt lat="48.60939" lon="2.12397">
        <ele>92</ele>
        <time>2019-10-28T12:38:00.000Z</time>
      </trkpt>
      <trkpt lat="48.60939" lon="2.12397">
        <ele>92</ele>
        <time>2019-10-28T12:38:01.000Z</time>
      </trkpt>
      <trkpt lat="48.6094" lon="2.12397">
        <ele>92</ele>
        <time>2019-10-28T12:38:02.000Z</time>
      </trkpt>
      <trkpt lat="48.6094" lon="2.12397">
        <ele>92</ele>
        <time>2019-10-28T12:38:03.000Z</time>
      </trkpt>
      <trkpt lat="48.60941" lon="2.12396">
        <ele>91</ele>
        <time>2019-10-28T12:38:04.000Z</time>
      </trkpt>
      <trkpt lat="48.60942" lon="2.12396">
        <ele>91</ele>
        <time>2019-10-28T12:38:05.000Z</time>
      </trkpt>
      <trkpt lat="48.60944" lon="2.12395">
        <ele>91</ele>
        <time>2019-10-28T12:38:06.000Z</time>
      </trkpt>
      <trkpt lat="48.60945" lon="2.12395">
        <ele>91</ele>
        <time>2019-10-28T12:38:07.000Z</time>
      </trkpt>
      <trkpt lat="48.60947" lon="2.12394">
        <ele>91</ele>
        <time>2019-10-28T12:38:08.000Z</time>
      </trkpt>
      <trkpt lat="48.60948" lon="2.12394">
        <ele>91</ele>
        <time>2019-10-28T12:38:09.000Z</time>
      </trkpt>
      <trkpt lat="48.6095" lon="2.12394">
        <ele>91</ele>
        <time>2019-10-28T12:38:10.000Z</time>
      </trkpt>
      <trkpt lat="48.60951" lon="2.12393">
        <ele>91</ele>
        <time>2019-10-28T12:38:11.000Z</time>
      </trkpt>
      <trkpt lat="48.60953" lon="2.12393">
        <ele>91</ele>
        <time>2019-10-28T12:38:12.000Z</time>
      </trkpt>
      <trkpt lat="48.60954" lon="2.12392">
        <ele>91</ele>
        <time>2019-10-28T12:38:13.000Z</time>
      </trkpt>
      <trkpt lat="48.60955" lon="2.12392">
        <ele>91</ele>
        <time>2019-10-28T12:38:14.000Z</time>
      </trkpt>
      <trkpt lat="48.60957" lon="2.12391">
        <ele>91</ele>
        <time>2019-10-28T12:38:15.000Z</time>
      </trkpt>
      <trkpt lat="48.60958" lon="2.12391">
        <ele>91</ele>
        <time>2019-10-28T12:38:16.000Z</time>
      </trkpt>
      <trkpt lat="48.6096" lon="2.12391">
        <ele>91</ele>
        <time>2019-10-28T12:38:17.000Z</time>
      </trkpt>
      <trkpt lat="48.60961" lon="2.1239">
        <ele>91</ele>
        <time>2019-10-28T12:38:18.000Z</time>
      </trkpt>
      <trkpt lat="48.60963" lon="2.1239">
        <ele>91</ele>
        <time>2019-10-28T12:38:19.000Z</time>
      </trkpt>
      <trkpt lat="48.60964" lon="2.12389">
        <ele>91</ele>
        <time>2019-10-28T12:38:20.000Z</time>
      </trkpt>
      <trkpt lat="48.60965" lon="2.12389">
        <ele>91</ele>
        <time>2019-10-28T12:38:21.000Z</time>
      </trkpt>
      <trkpt lat="48.60967" lon="2.12389">
        <ele>91</ele>
        <time>2019-10-28T12:38:22.000Z</time>
      </trkpt>
      <trkpt lat="48.60968" lon="2.12388">
        <ele>91</ele>
        <time>2019-10-28T12:38:23.000Z</time>
      </trkpt>
      <trkpt lat="48.60969" lon="2.12388">
        <ele>91</ele>
        <time>2019-10-28T12:38:24.000Z</time>
      </trkpt>
      <trkpt lat="48.60971" lon="2.12387">
        <ele>91</ele>
        <time>2019-10-28T12:38:25.000Z</time>
      </trkpt>
      <trkpt lat="48.60972" lon="2.12387">
        <ele>91</ele>
        <time>2019-10-28T12:38:26.000Z</time>
      </trkpt>
      <trkpt lat="48.60974" lon="2.12387">
        <ele>91</ele>
        <time>2019-10-28T12:38:27.000Z</time>
      </trkpt>
      <trkpt lat="48.60975" lon="2.12386">
        <ele>91</ele>
        <time>2019-10-28T12:38:28.000Z</time>
      </trkpt>
      <trkpt lat="48.60976" lon="2.12386">
        <ele>91</ele>
        <time>2019-10-28T12:38:29.000Z</time>
      </trkpt>
      <trkpt lat="48.60978" lon="2.12385">
        <ele>91</ele>
        <time>2019-10-28T12:38:30.000Z</time>
      </trkpt>
      <trkpt lat="48.60979" lon="2.12385">
        <ele>91</ele>
        <time>2019-10-28T12:38:31.000Z</time>
      </trkpt>
      <trkpt lat="48.6098" lon="2.12384">
        <ele>91</ele>
        <time>2019-10-28T12:38:32.000Z</time>
      </trkpt>
      <trkpt lat="48.60982" lon="2.12383">
        <ele>91</ele>
        <time>2019-10-28T12:38:33.000Z</time>
      </trkpt>
      <trkpt lat="48.60983" lon="2.12382">
        <ele>91</ele>
        <time>2019-10-28T12:38:34.000Z</time>
      </trkpt>
      <trkpt lat="48.60985" lon="2.12382">
        <ele>91</ele>
        <time>2019-10-28T12:38:35.000Z</time>
      </trkpt>
      <trkpt lat="48.60986" lon="2.12381">
        <ele>90</ele>
        <time>2019-10-28T12:38:36.000Z</time>
      </trkpt>
      <trkpt lat="48.60987" lon="2.12379">
        <ele>90</ele>
        <time>2019-10-28T12:38:37.000Z</time>
      </trkpt>
      <trkpt lat="48.60989" lon="2.12378">
        <ele>90</ele>
        <time>2019-10-28T12:38:38.000Z</time>
      </trkpt>
      <trkpt lat="48.6099" lon="2.12377">
        <ele>90</ele>
        <time>2019-10-28T12:38:39.000Z</time>
      </trkpt>
      <trkpt lat="48.60991" lon="2.12376">
        <ele>90</ele>
        <time>2019-10-28T12:38:40.000Z</time>
      </trkpt>
      <trkpt lat="48.60992" lon="2.12375">
        <ele>90</ele>
        <time>2019-10-28T12:38:41.000Z</time>
      </trkpt>
      <trkpt lat="48.60993" lon="2.12373">
        <ele>89</ele>
        <time>2019-10-28T12:38:42.000Z</time>
      </trkpt>
      <trkpt lat="48.60994" lon="2.12372">
        <ele>89</ele>
        <time>2019-10-28T12:38:43.000Z</time>
      </trkpt>
      <trkpt lat="48.60995" lon="2.1237">
        <ele>89</ele>
        <time>2019-10-28T12:38:44.000Z</time>
      </trkpt>
      <trkpt lat="48.60996" lon="2.12368">
        <ele>89</ele>
        <time>2019-10-28T12:38:45.000Z</time>
      </trkpt>
      <trkpt lat="48.60996" lon="2.12367">
        <ele>89</ele>
        <time>2019-10-28T12:38:46.000Z</time>
      </trkpt>
      <trkpt lat="48.60997" lon="2.12365">
        <ele>89</ele>
        <time>2019-10-28T12:38:47.000Z</time>
      </trkpt>
      <trkpt lat="48.60998" lon="2.12363">
        <ele>89</ele>
        <time>2019-10-28T12:38:48.000Z</time>
      </trkpt>
      <trkpt lat="48.60998" lon="2.12361">
        <ele>89</ele>
        <time>2019-10-28T12:38:49.000Z</time>
      </trkpt>
      <trkpt lat="48.60999" lon="2.12359">
        <ele>88</ele>
        <time>2019-10-28T12:38:50.000Z</time>
      </trkpt>
      <trkpt lat="48.60999" lon="2.12357">
        <ele>88</ele>
        <time>2019-10-28T12:38:51.000Z</time>
      </trkpt>
      <trkpt lat="48.60999" lon="2.12356">
        <ele>88</ele>
        <time>2019-10-28T12:38:52.000Z</time>
      </trkpt>
      <trkpt lat="48.61" lon="2.12353">
        <ele>87</ele>
        <time>2019-10-28T12:38:53.000Z</time>
      </trkpt>
      <trkpt lat="48.61" lon="2.12351">
        <ele>87</ele>
        <time>2019-10-28T12:38:54.000Z</time>
      </trkpt>
      <trkpt lat="48.61" lon="2.12349">
        <ele>87</ele>
        <time>2019-10-28T12:38:55.000Z</time>
      </trkpt>
      <trkpt lat="48.61" lon="2.12347">
        <ele>87</ele>
        <time>2019-10-28T12:38:56.000Z</time>
      </trkpt>
      <trkpt lat="48.61001" lon="2.12344">
        <ele>87</ele>
        <time>2019-10-28T12:38:57.000Z</time>
      </trkpt>
      <trkpt lat="48.61001" lon="2.12342">
        <ele>87</ele>
        <time>2019-10-28T12:38:58.000Z</time>
      </trkpt>
      <trkpt lat="48.61001" lon="2.1234">
        <ele>87</ele>
        <time>2019-10-28T12:38:59.000Z</time>
      </trkpt>
      <trkpt lat="48.61001" lon="2.12338">
        <ele>87</ele>
        <time>2019-10-28T12:39:00.000Z</time>
      </trkpt>
      <trkpt lat="48.61001" lon="2.12336">
        <ele>87</ele>
        <time>2019-10-28T12:39:01.000Z</time>
      </trkpt>
      <trkpt lat="48.61001" lon="2.12334">
        <ele>87</ele>
        <time>2019-10-28T12:39:02.000Z</time>
      </trkpt>
      <trkpt lat="48.61" lon="2.12332">
        <ele>86</ele>
        <time>2019-10-28T12:39:03.000Z</time>
      </trkpt>
      <trkpt lat="48.61" lon="2.12329">
        <ele>86</ele>
        <time>2019-10-28T12:39:04.000Z</time>
      </trkpt>
      <trkpt lat="48.61" lon="2.12327">
        <ele>86</ele>
        <time>2019-10-28T12:39:05.000Z</time>
      </trkpt>
      <trkpt lat="48.60999" lon="2.12325">
        <ele>86</ele>
        <time>2019-10-28T12:39:06.000Z</time>
      </trkpt>
      <trkpt lat="48.60999" lon="2.12323">
        <ele>86</ele>
        <time>2019-10-28T12:39:07.000Z</time>
      </trkpt>
      <trkpt lat="48.60998" lon="2.12321">
        <ele>86</ele>
        <time>2019-10-28T12:39:08.000Z</time>
      </trkpt>
      <trkpt lat="48.60998" lon="2.12319">
        <ele>85</ele>
        <time>2019-10-28T12:39:09.000Z</time>
      </trkpt>
      <trkpt lat="48.60998" lon="2.12317">
        <ele>85</ele>
        <time>2019-10-28T12:39:10.000Z</time>
      </trkpt>
      <trkpt lat="48.60998" lon="2.12315">
        <ele>85</ele>
        <time>2019-10-28T12:39:11.000Z</time>
      </trkpt>
      <trkpt lat="48.60998" lon="2.12312">
        <ele>85</ele>
        <time>2019-10-28T12:39:12.000Z</time>
      </trkpt>
      <trkpt lat="48.60998" lon="2.1231">
        <ele>85</ele>
        <time>2019-10-28T12:39:13.000Z</time>
      </trkpt>
      <trkpt lat="48.60997" lon="2.12308">
        <ele>85</ele>
        <time>2019-10-28T12:39:14.000Z</time>
      </trkpt>
      <trkpt lat="48.60997" lon="2.12306">
        <ele>85</ele>
        <time>2019-10-28T12:39:15.000Z</time>
      </trkpt>
      <trkpt lat="48.60997" lon="2.12303">
        <ele>85</ele>
        <time>2019-10-28T12:39:16.000Z</time>
      </trkpt>
      <trkpt lat="48.60996" lon="2.12301">
        <ele>84</ele>
        <time>2019-10-28T12:39:17.000Z</time>
      </trkpt>
      <trkpt lat="48.60996" lon="2.12299">
        <ele>84</ele>
        <time>2019-10-28T12:39:18.000Z</time>
      </trkpt>
      <trkpt lat="48.60995" lon="2.12297">
        <ele>84</ele>
        <time>2019-10-28T12:39:19.000Z</time>
      </trkpt>
      <trkpt lat="48.60995" lon="2.12295">
        <ele>84</ele>
        <time>2019-10-28T12:39:20.000Z</time>
      </trkpt>
      <trkpt lat="48.60994" lon="2.12292">
        <ele>84</ele>
        <time>2019-10-28T12:39:21.000Z</time>
      </trkpt>
      <trkpt lat="48.60994" lon="2.1229">
        <ele>84</ele>
        <time>2019-10-28T12:39:22.000Z</time>
      </trkpt>
      <trkpt lat="48.60993" lon="2.12288">
        <ele>84</ele>
        <time>2019-10-28T12:39:23.000Z</time>
      </trkpt>
      <trkpt lat="48.60992" lon="2.12285">
        <ele>84</ele>
        <time>2019-10-28T12:39:24.000Z</time>
      </trkpt>
      <trkpt lat="48.60992" lon="2.12283">
        <ele>84</ele>
        <time>2019-10-28T12:39:25.000Z</time>
      </trkpt>
      <trkpt lat="48.60991" lon="2.12281">
        <ele>84</ele>
        <time>2019-10-28T12:39:26.000Z</time>
      </trkpt>
      <trkpt lat="48.60991" lon="2.12279">
        <ele>84</ele>
        <time>2019-10-28T12:39:27.000Z</time>
      </trkpt>
      <trkpt lat="48.6099" lon="2.12276">
        <ele>84</ele>
        <time>2019-10-28T12:39:28.000Z</time>
      </trkpt>
      <trkpt lat="48.6099" lon="2.12274">
        <ele>83</ele>
        <time>2019-10-28T12:39:29.000Z</time>
      </trkpt>
      <trkpt lat="48.60989" lon="2.12272">
        <ele>83</ele>
        <time>2019-10-28T12:39:30.000Z</time>
      </trkpt>
      <trkpt lat="48.60989" lon="2.1227">
        <ele>83</ele>
        <time>2019-10-28T12:39:31.000Z</time>
      </trkpt>
      <trkpt lat="48.60988" lon="2.12268">
        <ele>83</ele>
        <time>2019-10-28T12:39:32.000Z</time>
      </trkpt>
      <trkpt lat="48.60988" lon="2.12266">
        <ele>83</ele>
        <time>2019-10-28T12:39:33.000Z</time>
      </trkpt>
      <trkpt lat="48.60987" lon="2.12264">
        <ele>83</ele>
        <time>2019-10-28T12:39:34.000Z</time>
      </trkpt>
      <trkpt lat="48.60987" lon="2.12262">
        <ele>83</ele>
        <time>2019-10-28T12:39:35.000Z</time>
      </trkpt>
      <trkpt lat="48.60986" lon="2.1226">
        <ele>83</ele>
        <time>2019-10-28T12:39:36.000Z</time>
      </trkpt>
      <trkpt lat="48.60986" lon="2.12258">
        <ele>83</ele>
        <time>2019-10-28T12:39:37.000Z</time>
      </trkpt>
      <trkpt lat="48.60986" lon="2.12256">
        <ele>83</ele>
        <time>2019-10-28T12:39:38.000Z</time>
      </trkpt>
      <trkpt lat="48.60986" lon="2.12254">
        <ele>83</ele>
        <time>2019-10-28T12:39:39.000Z</time>
      </trkpt>
      <trkpt lat="48.60986" lon="2.12252">
        <ele>83</ele>
        <time>2019-10-28T12:39:40.000Z</time>
      </trkpt>
      <trkpt lat="48.60986" lon="2.12249">
        <ele>83</ele>
        <time>2019-10-28T12:39:41.000Z</time>
      </trkpt>
      <trkpt lat="48.60986" lon="2.12247">
        <ele>83</ele>
        <time>2019-10-28T12:39:42.000Z</time>
      </trkpt>
      <trkpt lat="48.60986" lon="2.12245">
        <ele>83</ele>
        <time>2019-10-28T12:39:43.000Z</time>
      </trkpt>
      <trkpt lat="48.60986" lon="2.12243">
        <ele>83</ele>
        <time>2019-10-28T12:39:44.000Z</time>
      </trkpt>
      <trkpt lat="48.60986" lon="2.12241">
        <ele>82</ele>
        <time>2019-10-28T12:39:45.000Z</time>
      </trkpt>
      <trkpt lat="48.60986" lon="2.12239">
        <ele>82</ele>
        <time>2019-10-28T12:39:46.000Z</time>
      </trkpt>
      <trkpt lat="48.60986" lon="2.12237">
        <ele>82</ele>
        <time>2019-10-28T12:39:47.000Z</time>
      </trkpt>
      <trkpt lat="48.60986" lon="2.12235">
        <ele>82</ele>
        <time>2019-10-28T12:39:48.000Z</time>
      </trkpt>
      <trkpt lat="48.60986" lon="2.12232">
        <ele>82</ele>
        <time>2019-10-28T12:39:49.000Z</time>
      </trkpt>
      <trkpt lat="48.60986" lon="2.1223">
        <ele>82</ele>
        <time>2019-10-28T12:39:50.000Z</time>
      </trkpt>
      <trkpt lat="48.60986" lon="2.12228">
        <ele>82</ele>
        <time>2019-10-28T12:39:51.000Z</time>
      </trkpt>
      <trkpt lat="48.60986" lon="2.12226">
        <ele>82</ele>
        <time>2019-10-28T12:39:52.000Z</time>
      </trkpt>
      <trkpt lat="48.60986" lon="2.12224">
        <ele>82</ele>
        <time>2019-10-28T12:39:53.000Z</time>
      </trkpt>
      <trkpt lat="48.60987" lon="2.12221">
        <ele>82</ele>
        <time>2019-10-28T12:39:54.000Z</time>
      </trkpt>
      <trkpt lat="48.60987" lon="2.12219">
        <ele>82</ele>
        <time>2019-10-28T12:39:55.000Z</time>
      </trkpt>
      <trkpt lat="48.60987" lon="2.12217">
        <ele>82</ele>
        <time>2019-10-28T12:39:56.000Z</time>
      </trkpt>
      <trkpt lat="48.60987" lon="2.12215">
        <ele>81</ele>
        <time>2019-10-28T12:39:57.000Z</time>
      </trkpt>
      <trkpt lat="48.60988" lon="2.12212">
        <ele>82</ele>
        <time>2019-10-28T12:39:58.000Z</time>
      </trkpt>
      <trkpt lat="48.60988" lon="2.1221">
        <ele>82</ele>
        <time>2019-10-28T12:39:59.000Z</time>
      </trkpt>
      <trkpt lat="48.60988" lon="2.12208">
        <ele>82</ele>
        <time>2019-10-28T12:40:00.000Z</time>
      </trkpt>
      <trkpt lat="48.60989" lon="2.12206">
        <ele>82</ele>
        <time>2019-10-28T12:40:01.000Z</time>
      </trkpt>
      <trkpt lat="48.60989" lon="2.12204">
        <ele>82</ele>
        <time>2019-10-28T12:40:02.000Z</time>
      </trkpt>
      <trkpt lat="48.6099" lon="2.12202">
        <ele>82</ele>
        <time>2019-10-28T12:40:03.000Z</time>
      </trkpt>
      <trkpt lat="48.6099" lon="2.122">
        <ele>82</ele>
        <time>2019-10-28T12:40:04.000Z</time>
      </trkpt>
      <trkpt lat="48.6099" lon="2.12198">
        <ele>82</ele>
        <time>2019-10-28T12:40:05.000Z</time>
      </trkpt>
      <trkpt lat="48.60991" lon="2.12196">
        <ele>82</ele>
        <time>2019-10-28T12:40:06.000Z</time>
      </trkpt>
      <trkpt lat="48.60991" lon="2.12194">
        <ele>82</ele>
        <time>2019-10-28T12:40:07.000Z</time>
      </trkpt>
      <trkpt lat="48.60992" lon="2.12192">
        <ele>82</ele>
        <time>2019-10-28T12:40:08.000Z</time>
      </trkpt>
      <trkpt lat="48.60992" lon="2.1219">
        <ele>82</ele>
        <time>2019-10-28T12:40:09.000Z</time>
      </trkpt>
      <trkpt lat="48.60992" lon="2.12188">
        <ele>82</ele>
        <time>2019-10-28T12:40:10.000Z</time>
      </trkpt>
      <trkpt lat="48.60993" lon="2.12186">
        <ele>82</ele>
        <time>2019-10-28T12:40:11.000Z</time>
      </trkpt>
      <trkpt lat="48.60993" lon="2.12184">
        <ele>82</ele>
        <time>2019-10-28T12:40:12.000Z</time>
      </trkpt>
      <trkpt lat="48.60993" lon="2.12183">
        <ele>82</ele>
        <time>2019-10-28T12:40:13.000Z</time>
      </trkpt>
      <trkpt lat="48.60994" lon="2.12181">
        <ele>82</ele>
        <time>2019-10-28T12:40:14.000Z</time>
      </trkpt>
      <trkpt lat="48.60994" lon="2.12179">
        <ele>82</ele>
        <time>2019-10-28T12:40:15.000Z</time>
      </trkpt>
      <trkpt lat="48.60994" lon="2.12177">
        <ele>82</ele>
        <time>2019-10-28T12:40:16.000Z</time>
      </trkpt>
      <trkpt lat="48.60995" lon="2.12175">
        <ele>82</ele>
        <time>2019-10-28T12:40:17.000Z</time>
      </trkpt>
      <trkpt lat="48.60995" lon="2.12173">
        <ele>82</ele>
        <time>2019-10-28T12:40:18.000Z</time>
      </trkpt>
      <trkpt lat="48.60995" lon="2.12171">
        <ele>82</ele>
        <time>2019-10-28T12:40:19.000Z</time>
      </trkpt>
      <trkpt lat="48.60996" lon="2.12169">
        <ele>82</ele>
        <time>2019-10-28T12:40:20.000Z</time>
      </trkpt>
      <trkpt lat="48.60996" lon="2.12167">
        <ele>82</ele>
        <time>2019-10-28T12:40:21.000Z</time>
      </trkpt>
      <trkpt lat="48.60997" lon="2.12166">
        <ele>82</ele>
        <time>2019-10-28T12:40:22.000Z</time>
      </trkpt>
      <trkpt lat="48.60997" lon="2.12164">
        <ele>81</ele>
        <time>2019-10-28T12:40:23.000Z</time>
      </trkpt>
      <trkpt lat="48.60997" lon="2.12162">
        <ele>81</ele>
        <time>2019-10-28T12:40:24.000Z</time>
      </trkpt>
      <trkpt lat="48.60998" lon="2.12161">
        <ele>81</ele>
        <time>2019-10-28T12:40:25.000Z</time>
      </trkpt>
      <trkpt lat="48.60998" lon="2.12159">
        <ele>81</ele>
        <time>2019-10-28T12:40:26.000Z</time>
      </trkpt>
      <trkpt lat="48.60999" lon="2.12157">
        <ele>81</ele>
        <time>2019-10-28T12:40:27.000Z</time>
      </trkpt>
      <trkpt lat="48.60999" lon="2.12156">
        <ele>81</ele>
        <time>2019-10-28T12:40:28.000Z</time>
      </trkpt>
      <trkpt lat="48.61" lon="2.12154">
        <ele>80</ele>
        <time>2019-10-28T12:40:29.000Z</time>
      </trkpt>
      <trkpt lat="48.61001" lon="2.12153">
        <ele>80</ele>
        <time>2019-10-28T12:40:30.000Z</time>
      </trkpt>
      <trkpt lat="48.61001" lon="2.12151">
        <ele>80</ele>
        <time>2019-10-28T12:40:31.000Z</time>
      </trkpt>
      <trkpt lat="48.61002" lon="2.1215">
        <ele>79</ele>
        <time>2019-10-28T12:40:32.000Z</time>
      </trkpt>
      <trkpt lat="48.61003" lon="2.12148">
        <ele>78</ele>
        <time>2019-10-28T12:40:33.000Z</time>
      </trkpt>
      <trkpt lat="48.61003" lon="2.12147">
        <ele>78</ele>
        <time>2019-10-28T12:40:34.000Z</time>
      </trkpt>
      <trkpt lat="48.61004" lon="2.12145">
        <ele>78</ele>
        <time>2019-10-28T12:40:35.000Z</time>
      </trkpt>
      <trkpt lat="48.61004" lon="2.12143">
        <ele>78</ele>
        <time>2019-10-28T12:40:36.000Z</time>
      </trkpt>
      <trkpt lat="48.61005" lon="2.12141">
        <ele>78</ele>
        <time>2019-10-28T12:40:37.000Z</time>
      </trkpt>
      <trkpt lat="48.61005" lon="2.12138">
        <ele>79</ele>
        <time>2019-10-28T12:40:38.000Z</time>
      </trkpt>
      <trkpt lat="48.61005" lon="2.12136">
        <ele>79</ele>
        <time>2019-10-28T12:40:39.000Z</time>
      </trkpt>
      <trkpt lat="48.61006" lon="2.12134">
        <ele>79</ele>
        <time>2019-10-28T12:40:40.000Z</time>
      </trkpt>
      <trkpt lat="48.61006" lon="2.12132">
        <ele>79</ele>
        <time>2019-10-28T12:40:41.000Z</time>
      </trkpt>
      <trkpt lat="48.61006" lon="2.1213">
        <ele>79</ele>
        <time>2019-10-28T12:40:42.000Z</time>
      </trkpt>
      <trkpt lat="48.61007" lon="2.12128">
        <ele>79</ele>
        <time>2019-10-28T12:40:43.000Z</time>
      </trkpt>
      <trkpt lat="48.61007" lon="2.12126">
        <ele>79</ele>
        <time>2019-10-28T12:40:44.000Z</time>
      </trkpt>
      <trkpt lat="48.61008" lon="2.12124">
        <ele>79</ele>
        <time>2019-10-28T12:40:45.000Z</time>
      </trkpt>
      <trkpt lat="48.61008" lon="2.12122">
        <ele>79</ele>
        <time>2019-10-28T12:40:46.000Z</time>
      </trkpt>
      <trkpt lat="48.61009" lon="2.1212">
        <ele>78</ele>
        <time>2019-10-28T12:40:47.000Z</time>
      </trkpt>
      <trkpt lat="48.61009" lon="2.12119">
        <ele>78</ele>
        <time>2019-10-28T12:40:48.000Z</time>
      </trkpt>
      <trkpt lat="48.6101" lon="2.12117">
        <ele>78</ele>
        <time>2019-10-28T12:40:49.000Z</time>
      </trkpt>
      <trkpt lat="48.6101" lon="2.12115">
        <ele>78</ele>
        <time>2019-10-28T12:40:50.000Z</time>
      </trkpt>
      <trkpt lat="48.61011" lon="2.12112">
        <ele>80</ele>
        <time>2019-10-28T12:40:51.000Z</time>
      </trkpt>
      <trkpt lat="48.61011" lon="2.1211">
        <ele>80</ele>
        <time>2019-10-28T12:40:52.000Z</time>
      </trkpt>
      <trkpt lat="48.61012" lon="2.12108">
        <ele>80</ele>
        <time>2019-10-28T12:40:53.000Z</time>
      </trkpt>
      <trkpt lat="48.61013" lon="2.12106">
        <ele>81</ele>
        <time>2019-10-28T12:40:54.000Z</time>
      </trkpt>
      <trkpt lat="48.61013" lon="2.12104">
        <ele>81</ele>
        <time>2019-10-28T12:40:55.000Z</time>
      </trkpt>
      <trkpt lat="48.61014" lon="2.12102">
        <ele>81</ele>
        <time>2019-10-28T12:40:56.000Z</time>
      </trkpt>
      <trkpt lat="48.61015" lon="2.12101">
        <ele>81</ele>
        <time>2019-10-28T12:40:57.000Z</time>
      </trkpt>
      <trkpt lat="48.61016" lon="2.12099">
        <ele>81</ele>
        <time>2019-10-28T12:40:58.000Z</time>
      </trkpt>
      <trkpt lat="48.61017" lon="2.12097">
        <ele>81</ele>
        <time>2019-10-28T12:40:59.000Z</time>
      </trkpt>
      <trkpt lat="48.61017" lon="2.12095">
        <ele>82</ele>
        <time>2019-10-28T12:41:00.000Z</time>
      </trkpt>
      <trkpt lat="48.61018" lon="2.12093">
        <ele>82</ele>
        <time>2019-10-28T12:41:01.000Z</time>
      </trkpt>
      <trkpt lat="48.61019" lon="2.12092">
        <ele>82</ele>
        <time>2019-10-28T12:41:02.000Z</time>
      </trkpt>
      <trkpt lat="48.6102" lon="2.1209">
        <ele>82</ele>
        <time>2019-10-28T12:41:03.000Z</time>
      </trkpt>
      <trkpt lat="48.61021" lon="2.12088">
        <ele>82</ele>
        <time>2019-10-28T12:41:04.000Z</time>
      </trkpt>
      <trkpt lat="48.61023" lon="2.12087">
        <ele>83</ele>
        <time>2019-10-28T12:41:05.000Z</time>
      </trkpt>
      <trkpt lat="48.61024" lon="2.12086">
        <ele>83</ele>
        <time>2019-10-28T12:41:06.000Z</time>
      </trkpt>
      <trkpt lat="48.61025" lon="2.12085">
        <ele>83</ele>
        <time>2019-10-28T12:41:07.000Z</time>
      </trkpt>
      <trkpt lat="48.61026" lon="2.12084">
        <ele>83</ele>
        <time>2019-10-28T12:41:08.000Z</time>
      </trkpt>
      <trkpt lat="48.61027" lon="2.12083">
        <ele>84</ele>
        <time>2019-10-28T12:41:09.000Z</time>
      </trkpt>
      <trkpt lat="48.61028" lon="2.12082">
        <ele>84</ele>
        <time>2019-10-28T12:41:10.000Z</time>
      </trkpt>
      <trkpt lat="48.61029" lon="2.12081">
        <ele>84</ele>
        <time>2019-10-28T12:41:11.000Z</time>
      </trkpt>
      <trkpt lat="48.61031" lon="2.1208">
        <ele>84</ele>
        <time>2019-10-28T12:41:12.000Z</time>
      </trkpt>
      <trkpt lat="48.61032" lon="2.12079">
        <ele>84</ele>
        <time>2019-10-28T12:41:13.000Z</time>
      </trkpt>
      <trkpt lat="48.61033" lon="2.12079">
        <ele>84</ele>
        <time>2019-10-28T12:41:14.000Z</time>
      </trkpt>
      <trkpt lat="48.61034" lon="2.12078">
        <ele>85</ele>
        <time>2019-10-28T12:41:15.000Z</time>
      </trkpt>
      <trkpt lat="48.61036" lon="2.12078">
        <ele>85</ele>
        <time>2019-10-28T12:41:16.000Z</time>
      </trkpt>
      <trkpt lat="48.61037" lon="2.12077">
        <ele>85</ele>
        <time>2019-10-28T12:41:17.000Z</time>
      </trkpt>
      <trkpt lat="48.61038" lon="2.12077">
        <ele>85</ele>
        <time>2019-10-28T12:41:18.000Z</time>
      </trkpt>
      <trkpt lat="48.61039" lon="2.12076">
        <ele>85</ele>
        <time>2019-10-28T12:41:19.000Z</time>
      </trkpt>
      <trkpt lat="48.61041" lon="2.12076">
        <ele>85</ele>
        <time>2019-10-28T12:41:20.000Z</time>
      </trkpt>
      <trkpt lat="48.61042" lon="2.12076">
        <ele>85</ele>
        <time>2019-10-28T12:41:21.000Z</time>
      </trkpt>
      <trkpt lat="48.61043" lon="2.12075">
        <ele>85</ele>
        <time>2019-10-28T12:41:22.000Z</time>
      </trkpt>
      <trkpt lat="48.61045" lon="2.12075">
        <ele>85</ele>
        <time>2019-10-28T12:41:23.000Z</time>
      </trkpt>
      <trkpt lat="48.61046" lon="2.12074">
        <ele>85</ele>
        <time>2019-10-28T12:41:24.000Z</time>
      </trkpt>
      <trkpt lat="48.61047" lon="2.12074">
        <ele>85</ele>
        <time>2019-10-28T12:41:25.000Z</time>
      </trkpt>
      <trkpt lat="48.61048" lon="2.12074">
        <ele>85</ele>
        <time>2019-10-28T12:41:26.000Z</time>
      </trkpt>
      <trkpt lat="48.6105" lon="2.12073">
        <ele>85</ele>
        <time>2019-10-28T12:41:27.000Z</time>
      </trkpt>
      <trkpt lat="48.61051" lon="2.12073">
        <ele>85</ele>
        <time>2019-10-28T12:41:28.000Z</time>
      </trkpt>
      <trkpt lat="48.61052" lon="2.12073">
        <ele>85</ele>
        <time>2019-10-28T12:41:29.000Z</time>
      </trkpt>
      <trkpt lat="48.61054" lon="2.12073">
        <ele>85</ele>
        <time>2019-10-28T12:41:30.000Z</time>
      </trkpt>
      <trkpt lat="48.61055" lon="2.12073">
        <ele>85</ele>
        <time>2019-10-28T12:41:31.000Z</time>
      </trkpt>
      <trkpt lat="48.61056" lon="2.12072">
        <ele>86</ele>
        <time>2019-10-28T12:41:32.000Z</time>
      </trkpt>
      <trkpt lat="48.61058" lon="2.12072">
        <ele>85</ele>
        <time>2019-10-28T12:41:33.000Z</time>
      </trkpt>
      <trkpt lat="48.61059" lon="2.12072">
        <ele>85</ele>
        <time>2019-10-28T12:41:34.000Z</time>
      </trkpt>
      <trkpt lat="48.6106" lon="2.12072">
        <ele>85</ele>
        <time>2019-10-28T12:41:35.000Z</time>
      </trkpt>
      <trkpt lat="48.61062" lon="2.12071">
        <ele>85</ele>
        <time>2019-10-28T12:41:36.000Z</time>
      </trkpt>
      <trkpt lat="48.61063" lon="2.12071">
        <ele>85</ele>
        <time>2019-10-28T12:41:37.000Z</time>
      </trkpt>
      <trkpt lat="48.61065" lon="2.12071">
        <ele>85</ele>
        <time>2019-10-28T12:41:38.000Z</time>
      </trkpt>
      <trkpt lat="48.61066" lon="2.12071">
        <ele>85</ele>
        <time>2019-10-28T12:41:39.000Z</time>
      </trkpt>
      <trkpt lat="48.61067" lon="2.1207">
        <ele>85</ele>
        <time>2019-10-28T12:41:40.000Z</time>
      </trkpt>
      <trkpt lat="48.61069" lon="2.1207">
        <ele>85</ele>
        <time>2019-10-28T12:41:41.000Z</time>
      </trkpt>
      <trkpt lat="48.6107" lon="2.12069">
        <ele>85</ele>
        <time>2019-10-28T12:41:42.000Z</time>
      </trkpt>
      <trkpt lat="48.61072" lon="2.12069">
        <ele>85</ele>
        <time>2019-10-28T12:41:43.000Z</time>
      </trkpt>
      <trkpt lat="48.61073" lon="2.12068">
        <ele>85</ele>
        <time>2019-10-28T12:41:44.000Z</time>
      </trkpt>
      <trkpt lat="48.61074" lon="2.12068">
        <ele>85</ele>
        <time>2019-10-28T12:41:45.000Z</time>
      </trkpt>
      <trkpt lat="48.61076" lon="2.12067">
        <ele>85</ele>
        <time>2019-10-28T12:41:46.000Z</time>
      </trkpt>
      <trkpt lat="48.61077" lon="2.12066">
        <ele>85</ele>
        <time>2019-10-28T12:41:47.000Z</time>
      </trkpt>
      <trkpt lat="48.61078" lon="2.12065">
        <ele>85</ele>
        <time>2019-10-28T12:41:48.000Z</time>
      </trkpt>
      <trkpt lat="48.6108" lon="2.12065">
        <ele>85</ele>
        <time>2019-10-28T12:41:49.000Z</time>
      </trkpt>
      <trkpt lat="48.61081" lon="2.12064">
        <ele>85</ele>
        <time>2019-10-28T12:41:50.000Z</time>
      </trkpt>
      <trkpt lat="48.61082" lon="2.12064">
        <ele>85</ele>
        <time>2019-10-28T12:41:51.000Z</time>
      </trkpt>
      <trkpt lat="48.61084" lon="2.12063">
        <ele>85</ele>
        <time>2019-10-28T12:41:52.000Z</time>
      </trkpt>
      <trkpt lat="48.61085" lon="2.12063">
        <ele>85</ele>
        <time>2019-10-28T12:41:53.000Z</time>
      </trkpt>
      <trkpt lat="48.61086" lon="2.12063">
        <ele>85</ele>
        <time>2019-10-28T12:41:54.000Z</time>
      </trkpt>
      <trkpt lat="48.61088" lon="2.12063">
        <ele>85</ele>
        <time>2019-10-28T12:41:55.000Z</time>
      </trkpt>
      <trkpt lat="48.61089" lon="2.12062">
        <ele>85</ele>
        <time>2019-10-28T12:41:56.000Z</time>
      </trkpt>
      <trkpt lat="48.61091" lon="2.12062">
        <ele>85</ele>
        <time>2019-10-28T12:41:57.000Z</time>
      </trkpt>
      <trkpt lat="48.61092" lon="2.12062">
        <ele>85</ele>
        <time>2019-10-28T12:41:58.000Z</time>
      </trkpt>
      <trkpt lat="48.61093" lon="2.12061">
        <ele>85</ele>
        <time>2019-10-28T12:41:59.000Z</time>
      </trkpt>
      <trkpt lat="48.61094" lon="2.12061">
        <ele>85</ele>
        <time>2019-10-28T12:42:00.000Z</time>
      </trkpt>
      <trkpt lat="48.61096" lon="2.12061">
        <ele>85</ele>
        <time>2019-10-28T12:42:01.000Z</time>
      </trkpt>
      <trkpt lat="48.61097" lon="2.1206">
        <ele>85</ele>
        <time>2019-10-28T12:42:02.000Z</time>
      </trkpt>
      <trkpt lat="48.61099" lon="2.1206">
        <ele>85</ele>
        <time>2019-10-28T12:42:03.000Z</time>
      </trkpt>
      <trkpt lat="48.611" lon="2.1206">
        <ele>85</ele>
        <time>2019-10-28T12:42:04.000Z</time>
      </trkpt>
      <trkpt lat="48.61101" lon="2.1206">
        <ele>85</ele>
        <time>2019-10-28T12:42:05.000Z</time>
      </trkpt>
      <trkpt lat="48.61103" lon="2.1206">
        <ele>85</ele>
        <time>2019-10-28T12:42:06.000Z</time>
      </trkpt>
      <trkpt lat="48.61104" lon="2.1206">
        <ele>85</ele>
        <time>2019-10-28T12:42:07.000Z</time>
      </trkpt>
      <trkpt lat="48.61105" lon="2.12059">
        <ele>85</ele>
        <time>2019-10-28T12:42:08.000Z</time>
      </trkpt>
      <trkpt lat="48.61107" lon="2.12059">
        <ele>85</ele>
        <time>2019-10-28T12:42:09.000Z</time>
      </trkpt>
      <trkpt lat="48.61108" lon="2.12059">
        <ele>84</ele>
        <time>2019-10-28T12:42:10.000Z</time>
      </trkpt>
      <trkpt lat="48.61109" lon="2.12059">
        <ele>84</ele>
        <time>2019-10-28T12:42:11.000Z</time>
      </trkpt>
      <trkpt lat="48.6111" lon="2.12058">
        <ele>85</ele>
        <time>2019-10-28T12:42:12.000Z</time>
      </trkpt>
      <trkpt lat="48.61112" lon="2.12058">
        <ele>85</ele>
        <time>2019-10-28T12:42:13.000Z</time>
      </trkpt>
      <trkpt lat="48.61113" lon="2.12058">
        <ele>85</ele>
        <time>2019-10-28T12:42:14.000Z</time>
      </trkpt>
      <trkpt lat="48.61114" lon="2.12057">
        <ele>86</ele>
        <time>2019-10-28T12:42:15.000Z</time>
      </trkpt>
      <trkpt lat="48.61116" lon="2.12057">
        <ele>86</ele>
        <time>2019-10-28T12:42:16.000Z</time>
      </trkpt>
      <trkpt lat="48.61117" lon="2.12056">
        <ele>86</ele>
        <time>2019-10-28T12:42:17.000Z</time>
      </trkpt>
      <trkpt lat="48.61119" lon="2.12056">
        <ele>86</ele>
        <time>2019-10-28T12:42:18.000Z</time>
      </trkpt>
      <trkpt lat="48.6112" lon="2.12056">
        <ele>86</ele>
        <time>2019-10-28T12:42:19.000Z</time>
      </trkpt>
      <trkpt lat="48.61121" lon="2.12055">
        <ele>86</ele>
        <time>2019-10-28T12:42:20.000Z</time>
      </trkpt>
      <trkpt lat="48.61123" lon="2.12054">
        <ele>86</ele>
        <time>2019-10-28T12:42:21.000Z</time>
      </trkpt>
      <trkpt lat="48.61124" lon="2.12054">
        <ele>86</ele>
        <time>2019-10-28T12:42:22.000Z</time>
      </trkpt>
      <trkpt lat="48.61125" lon="2.12053">
        <ele>86</ele>
        <time>2019-10-28T12:42:23.000Z</time>
      </trkpt>
      <trkpt lat="48.61127" lon="2.12052">
        <ele>86</ele>
        <time>2019-10-28T12:42:24.000Z</time>
      </trkpt>
      <trkpt lat="48.61128" lon="2.12051">
        <ele>86</ele>
        <time>2019-10-28T12:42:25.000Z</time>
      </trkpt>
      <trkpt lat="48.61129" lon="2.12051">
        <ele>86</ele>
        <time>2019-10-28T12:42:26.000Z</time>
      </trkpt>
      <trkpt lat="48.61131" lon="2.1205">
        <ele>86</ele>
        <time>2019-10-28T12:42:27.000Z</time>
      </trkpt>
      <trkpt lat="48.61132" lon="2.12049">
        <ele>86</ele>
        <time>2019-10-28T12:42:28.000Z</time>
      </trkpt>
      <trkpt lat="48.61133" lon="2.12049">
        <ele>86</ele>
        <time>2019-10-28T12:42:29.000Z</time>
      </trkpt>
      <trkpt lat="48.61135" lon="2.12048">
        <ele>86</ele>
        <time>2019-10-28T12:42:30.000Z</time>
      </trkpt>
      <trkpt lat="48.61136" lon="2.12048">
        <ele>86</ele>
        <time>2019-10-28T12:42:31.000Z</time>
      </trkpt>
      <trkpt lat="48.61137" lon="2.12047">
        <ele>86</ele>
        <time>2019-10-28T12:42:32.000Z</time>
      </trkpt>
      <trkpt lat="48.61138" lon="2.12047">
        <ele>86</ele>
        <time>2019-10-28T12:42:33.000Z</time>
      </trkpt>
      <trkpt lat="48.6114" lon="2.12047">
        <ele>86</ele>
        <time>2019-10-28T12:42:34.000Z</time>
      </trkpt>
      <trkpt lat="48.61141" lon="2.12046">
        <ele>86</ele>
        <time>2019-10-28T12:42:35.000Z</time>
      </trkpt>
      <trkpt lat="48.61143" lon="2.12046">
        <ele>85</ele>
        <time>2019-10-28T12:42:36.000Z</time>
      </trkpt>
      <trkpt lat="48.61144" lon="2.12046">
        <ele>85</ele>
        <time>2019-10-28T12:42:37.000Z</time>
      </trkpt>
      <trkpt lat="48.61145" lon="2.12046">
        <ele>84</ele>
        <time>2019-10-28T12:42:38.000Z</time>
      </trkpt>
      <trkpt lat="48.61147" lon="2.12046">
        <ele>84</ele>
        <time>2019-10-28T12:42:39.000Z</time>
      </trkpt>
      <trkpt lat="48.61148" lon="2.12046">
        <ele>84</ele>
        <time>2019-10-28T12:42:40.000Z</time>
      </trkpt>
      <trkpt lat="48.6115" lon="2.12046">
        <ele>84</ele>
        <time>2019-10-28T12:42:41.000Z</time>
      </trkpt>
      <trkpt lat="48.61151" lon="2.12045">
        <ele>84</ele>
        <time>2019-10-28T12:42:42.000Z</time>
      </trkpt>
      <trkpt lat="48.61153" lon="2.12045">
        <ele>83</ele>
        <time>2019-10-28T12:42:43.000Z</time>
      </trkpt>
      <trkpt lat="48.61154" lon="2.12045">
        <ele>83</ele>
        <time>2019-10-28T12:42:44.000Z</time>
      </trkpt>
      <trkpt lat="48.61156" lon="2.12045">
        <ele>83</ele>
        <time>2019-10-28T12:42:45.000Z</time>
      </trkpt>
      <trkpt lat="48.61157" lon="2.12045">
        <ele>82</ele>
        <time>2019-10-28T12:42:46.000Z</time>
      </trkpt>
      <trkpt lat="48.61158" lon="2.12045">
        <ele>82</ele>
        <time>2019-10-28T12:42:47.000Z</time>
      </trkpt>
      <trkpt lat="48.61159" lon="2.12044">
        <ele>81</ele>
        <time>2019-10-28T12:42:48.000Z</time>
      </trkpt>
      <trkpt lat="48.6116" lon="2.12044">
        <ele>81</ele>
        <time>2019-10-28T12:42:49.000Z</time>
      </trkpt>
      <trkpt lat="48.61161" lon="2.12044">
        <ele>81</ele>
        <time>2019-10-28T12:42:50.000Z</time>
      </trkpt>
      <trkpt lat="48.61162" lon="2.12044">
        <ele>81</ele>
        <time>2019-10-28T12:42:51.000Z</time>
      </trkpt>
      <trkpt lat="48.61163" lon="2.12044">
        <ele>81</ele>
        <time>2019-10-28T12:42:52.000Z</time>
      </trkpt>
      <trkpt lat="48.61164" lon="2.12044">
        <ele>81</ele>
        <time>2019-10-28T12:42:53.000Z</time>
      </trkpt>
      <trkpt lat="48.61166" lon="2.12044">
        <ele>81</ele>
        <time>2019-10-28T12:42:54.000Z</time>
      </trkpt>
      <trkpt lat="48.61167" lon="2.12044">
        <ele>81</ele>
        <time>2019-10-28T12:42:55.000Z</time>
      </trkpt>
      <trkpt lat="48.61168" lon="2.12044">
        <ele>81</ele>
        <time>2019-10-28T12:42:56.000Z</time>
      </trkpt>
      <trkpt lat="48.61169" lon="2.12043">
        <ele>81</ele>
        <time>2019-10-28T12:42:57.000Z</time>
      </trkpt>
      <trkpt lat="48.6117" lon="2.12043">
        <ele>82</ele>
        <time>2019-10-28T12:42:58.000Z</time>
      </trkpt>
      <trkpt lat="48.61172" lon="2.12042">
        <ele>82</ele>
        <time>2019-10-28T12:42:59.000Z</time>
      </trkpt>
      <trkpt lat="48.61173" lon="2.12042">
        <ele>82</ele>
        <time>2019-10-28T12:43:00.000Z</time>
      </trkpt>
      <trkpt lat="48.61174" lon="2.12042">
        <ele>82</ele>
        <time>2019-10-28T12:43:01.000Z</time>
      </trkpt>
      <trkpt lat="48.61175" lon="2.12041">
        <ele>82</ele>
        <time>2019-10-28T12:43:02.000Z</time>
      </trkpt>
      <trkpt lat="48.61177" lon="2.12041">
        <ele>82</ele>
        <time>2019-10-28T12:43:03.000Z</time>
      </trkpt>
      <trkpt lat="48.61178" lon="2.1204">
        <ele>82</ele>
        <time>2019-10-28T12:43:04.000Z</time>
      </trkpt>
      <trkpt lat="48.6118" lon="2.12039">
        <ele>82</ele>
        <time>2019-10-28T12:43:05.000Z</time>
      </trkpt>
      <trkpt lat="48.61181" lon="2.12038">
        <ele>83</ele>
        <time>2019-10-28T12:43:06.000Z</time>
      </trkpt>
      <trkpt lat="48.61183" lon="2.12037">
        <ele>83</ele>
        <time>2019-10-28T12:43:07.000Z</time>
      </trkpt>
      <trkpt lat="48.61184" lon="2.12036">
        <ele>84</ele>
        <time>2019-10-28T12:43:08.000Z</time>
      </trkpt>
      <trkpt lat="48.61186" lon="2.12035">
        <ele>84</ele>
        <time>2019-10-28T12:43:09.000Z</time>
      </trkpt>
      <trkpt lat="48.61187" lon="2.12034">
        <ele>84</ele>
        <time>2019-10-28T12:43:10.000Z</time>
      </trkpt>
      <trkpt lat="48.61189" lon="2.12034">
        <ele>84</ele>
        <time>2019-10-28T12:43:11.000Z</time>
      </trkpt>
      <trkpt lat="48.6119" lon="2.12033">
        <ele>84</ele>
        <time>2019-10-28T12:43:12.000Z</time>
      </trkpt>
      <trkpt lat="48.61192" lon="2.12033">
        <ele>84</ele>
        <time>2019-10-28T12:43:13.000Z</time>
      </trkpt>
      <trkpt lat="48.61193" lon="2.12033">
        <ele>84</ele>
        <time>2019-10-28T12:43:14.000Z</time>
      </trkpt>
      <trkpt lat="48.61194" lon="2.12032">
        <ele>84</ele>
        <time>2019-10-28T12:43:15.000Z</time>
      </trkpt>
      <trkpt lat="48.61196" lon="2.12032">
        <ele>84</ele>
        <time>2019-10-28T12:43:16.000Z</time>
      </trkpt>
      <trkpt lat="48.61197" lon="2.12031">
        <ele>84</ele>
        <time>2019-10-28T12:43:17.000Z</time>
      </trkpt>
      <trkpt lat="48.61199" lon="2.12031">
        <ele>84</ele>
        <time>2019-10-28T12:43:18.000Z</time>
      </trkpt>
      <trkpt lat="48.612" lon="2.1203">
        <ele>85</ele>
        <time>2019-10-28T12:43:19.000Z</time>
      </trkpt>
      <trkpt lat="48.61202" lon="2.1203">
        <ele>85</ele>
        <time>2019-10-28T12:43:20.000Z</time>
      </trkpt>
      <trkpt lat="48.61203" lon="2.12029">
        <ele>85</ele>
        <time>2019-10-28T12:43:21.000Z</time>
      </trkpt>
      <trkpt lat="48.61205" lon="2.12029">
        <ele>85</ele>
        <time>2019-10-28T12:43:22.000Z</time>
      </trkpt>
      <trkpt lat="48.61206" lon="2.12029">
        <ele>85</ele>
        <time>2019-10-28T12:43:23.000Z</time>
      </trkpt>
      <trkpt lat="48.61208" lon="2.12028">
        <ele>85</ele>
        <time>2019-10-28T12:43:24.000Z</time>
      </trkpt>
      <trkpt lat="48.61209" lon="2.12028">
        <ele>84</ele>
        <time>2019-10-28T12:43:25.000Z</time>
      </trkpt>
      <trkpt lat="48.61211" lon="2.12028">
        <ele>84</ele>
        <time>2019-10-28T12:43:26.000Z</time>
      </trkpt>
      <trkpt lat="48.61212" lon="2.12027">
        <ele>84</ele>
        <time>2019-10-28T12:43:27.000Z</time>
      </trkpt>
      <trkpt lat="48.61214" lon="2.12027">
        <ele>84</ele>
        <time>2019-10-28T12:43:28.000Z</time>
      </trkpt>
      <trkpt lat="48.61215" lon="2.12026">
        <ele>85</ele>
        <time>2019-10-28T12:43:29.000Z</time>
      </trkpt>
      <trkpt lat="48.61217" lon="2.12026">
        <ele>85</ele>
        <time>2019-10-28T12:43:30.000Z</time>
      </trkpt>
      <trkpt lat="48.61218" lon="2.12025">
        <ele>85</ele>
        <time>2019-10-28T12:43:31.000Z</time>
      </trkpt>
      <trkpt lat="48.61219" lon="2.12025">
        <ele>85</ele>
        <time>2019-10-28T12:43:32.000Z</time>
      </trkpt>
      <trkpt lat="48.6122" lon="2.12025">
        <ele>85</ele>
        <time>2019-10-28T12:43:33.000Z</time>
      </trkpt>
      <trkpt lat="48.61222" lon="2.12024">
        <ele>85</ele>
        <time>2019-10-28T12:43:34.000Z</time>
      </trkpt>
      <trkpt lat="48.61223" lon="2.12024">
        <ele>85</ele>
        <time>2019-10-28T12:43:35.000Z</time>
      </trkpt>
      <trkpt lat="48.61224" lon="2.12023">
        <ele>85</ele>
        <time>2019-10-28T12:43:36.000Z</time>
      </trkpt>
      <trkpt lat="48.61226" lon="2.12022">
        <ele>85</ele>
        <time>2019-10-28T12:43:37.000Z</time>
      </trkpt>
      <trkpt lat="48.61227" lon="2.12022">
        <ele>85</ele>
        <time>2019-10-28T12:43:38.000Z</time>
      </trkpt>
      <trkpt lat="48.61228" lon="2.12021">
        <ele>85</ele>
        <time>2019-10-28T12:43:39.000Z</time>
      </trkpt>
      <trkpt lat="48.6123" lon="2.12021">
        <ele>85</ele>
        <time>2019-10-28T12:43:40.000Z</time>
      </trkpt>
      <trkpt lat="48.61231" lon="2.1202">
        <ele>85</ele>
        <time>2019-10-28T12:43:41.000Z</time>
      </trkpt>
      <trkpt lat="48.61232" lon="2.12019">
        <ele>85</ele>
        <time>2019-10-28T12:43:42.000Z</time>
      </trkpt>
      <trkpt lat="48.61234" lon="2.12019">
        <ele>85</ele>
        <time>2019-10-28T12:43:43.000Z</time>
      </trkpt>
      <trkpt lat="48.61235" lon="2.12018">
        <ele>85</ele>
        <time>2019-10-28T12:43:44.000Z</time>
      </trkpt>
      <trkpt lat="48.61236" lon="2.12017">
        <ele>85</ele>
        <time>2019-10-28T12:43:45.000Z</time>
      </trkpt>
      <trkpt lat="48.61237" lon="2.12015">
        <ele>85</ele>
        <time>2019-10-28T12:43:46.000Z</time>
      </trkpt>
      <trkpt lat="48.61239" lon="2.12014">
        <ele>85</ele>
        <time>2019-10-28T12:43:47.000Z</time>
      </trkpt>
      <trkpt lat="48.6124" lon="2.12013">
        <ele>84</ele>
        <time>2019-10-28T12:43:48.000Z</time>
      </trkpt>
      <trkpt lat="48.61241" lon="2.12012">
        <ele>84</ele>
        <time>2019-10-28T12:43:49.000Z</time>
      </trkpt>
      <trkpt lat="48.61242" lon="2.12012">
        <ele>84</ele>
        <time>2019-10-28T12:43:50.000Z</time>
      </trkpt>
      <trkpt lat="48.61244" lon="2.12011">
        <ele>84</ele>
        <time>2019-10-28T12:43:51.000Z</time>
      </trkpt>
      <trkpt lat="48.61245" lon="2.1201">
        <ele>84</ele>
        <time>2019-10-28T12:43:52.000Z</time>
      </trkpt>
      <trkpt lat="48.61246" lon="2.12009">
        <ele>84</ele>
        <time>2019-10-28T12:43:53.000Z</time>
      </trkpt>
      <trkpt lat="48.61248" lon="2.12008">
        <ele>84</ele>
        <time>2019-10-28T12:43:54.000Z</time>
      </trkpt>
      <trkpt lat="48.61249" lon="2.12007">
        <ele>84</ele>
        <time>2019-10-28T12:43:55.000Z</time>
      </trkpt>
      <trkpt lat="48.6125" lon="2.12006">
        <ele>84</ele>
        <time>2019-10-28T12:43:56.000Z</time>
      </trkpt>
      <trkpt lat="48.61251" lon="2.12004">
        <ele>84</ele>
        <time>2019-10-28T12:43:57.000Z</time>
      </trkpt>
      <trkpt lat="48.61252" lon="2.12003">
        <ele>84</ele>
        <time>2019-10-28T12:43:58.000Z</time>
      </trkpt>
      <trkpt lat="48.61253" lon="2.12002">
        <ele>84</ele>
        <time>2019-10-28T12:43:59.000Z</time>
      </trkpt>
      <trkpt lat="48.61255" lon="2.12001">
        <ele>84</ele>
        <time>2019-10-28T12:44:00.000Z</time>
      </trkpt>
      <trkpt lat="48.61256" lon="2.12">
        <ele>84</ele>
        <time>2019-10-28T12:44:01.000Z</time>
      </trkpt>
      <trkpt lat="48.61257" lon="2.11999">
        <ele>84</ele>
        <time>2019-10-28T12:44:02.000Z</time>
      </trkpt>
      <trkpt lat="48.61258" lon="2.11998">
        <ele>84</ele>
        <time>2019-10-28T12:44:03.000Z</time>
      </trkpt>
      <trkpt lat="48.61259" lon="2.11997">
        <ele>84</ele>
        <time>2019-10-28T12:44:04.000Z</time>
      </trkpt>
      <trkpt lat="48.61261" lon="2.11996">
        <ele>84</ele>
        <time>2019-10-28T12:44:05.000Z</time>
      </trkpt>
      <trkpt lat="48.61262" lon="2.11995">
        <ele>84</ele>
        <time>2019-10-28T12:44:06.000Z</time>
      </trkpt>
      <trkpt lat="48.61263" lon="2.11994">
        <ele>84</ele>
        <time>2019-10-28T12:44:07.000Z</time>
      </trkpt>
      <trkpt lat="48.61264" lon="2.11993">
        <ele>84</ele>
        <time>2019-10-28T12:44:08.000Z</time>
      </trkpt>
      <trkpt lat="48.61265" lon="2.11992">
        <ele>84</ele>
        <time>2019-10-28T12:44:09.000Z</time>
      </trkpt>
      <trkpt lat="48.61267" lon="2.11991">
        <ele>84</ele>
        <time>2019-10-28T12:44:10.000Z</time>
      </trkpt>
      <trkpt lat="48.61268" lon="2.1199">
        <ele>83</ele>
        <time>2019-10-28T12:44:11.000Z</time>
      </trkpt>
      <trkpt lat="48.61269" lon="2.11989">
        <ele>83</ele>
        <time>2019-10-28T12:44:12.000Z</time>
      </trkpt>
      <trkpt lat="48.6127" lon="2.11988">
        <ele>83</ele>
        <time>2019-10-28T12:44:13.000Z</time>
      </trkpt>
      <trkpt lat="48.61271" lon="2.11987">
        <ele>83</ele>
        <time>2019-10-28T12:44:14.000Z</time>
      </trkpt>
      <trkpt lat="48.61272" lon="2.11985">
        <ele>84</ele>
        <time>2019-10-28T12:44:15.000Z</time>
      </trkpt>
      <trkpt lat="48.61274" lon="2.11984">
        <ele>84</ele>
        <time>2019-10-28T12:44:16.000Z</time>
      </trkpt>
      <trkpt lat="48.61275" lon="2.11983">
        <ele>84</ele>
        <time>2019-10-28T12:44:17.000Z</time>
      </trkpt>
      <trkpt lat="48.61276" lon="2.11982">
        <ele>84</ele>
        <time>2019-10-28T12:44:18.000Z</time>
      </trkpt>
      <trkpt lat="48.61276" lon="2.11981">
        <ele>84</ele>
        <time>2019-10-28T12:44:19.000Z</time>
      </trkpt>
      <trkpt lat="48.61277" lon="2.1198">
        <ele>84</ele>
        <time>2019-10-28T12:44:20.000Z</time>
      </trkpt>
      <trkpt lat="48.61277" lon="2.11979">
        <ele>84</ele>
        <time>2019-10-28T12:44:21.000Z</time>
      </trkpt>
      <trkpt lat="48.61277" lon="2.11979">
        <ele>85</ele>
        <time>2019-10-28T12:44:22.000Z</time>
      </trkpt>
      <trkpt lat="48.61277" lon="2.11979">
        <ele>85</ele>
        <time>2019-10-28T12:44:23.000Z</time>
      </trkpt>
      <trkpt lat="48.61277" lon="2.11979">
        <ele>85</ele>
        <time>2019-10-28T12:44:24.000Z</time>
      </trkpt>
      <trkpt lat="48.61277" lon="2.11979">
        <ele>86</ele>
        <time>2019-10-28T12:44:25.000Z</time>
      </trkpt>
      <trkpt lat="48.61277" lon="2.11979">
        <ele>86</ele>
        <time>2019-10-28T12:44:26.000Z</time>
      </trkpt>
      <trkpt lat="48.61277" lon="2.11979">
        <ele>86</ele>
        <time>2019-10-28T12:44:27.000Z</time>
      </trkpt>
      <trkpt lat="48.61277" lon="2.11979">
        <ele>86</ele>
        <time>2019-10-28T12:44:28.000Z</time>
      </trkpt>
      <trkpt lat="48.61277" lon="2.11978">
        <ele>86</ele>
        <time>2019-10-28T12:44:29.000Z</time>
      </trkpt>
      <trkpt lat="48.61277" lon="2.11978">
        <ele>86</ele>
        <time>2019-10-28T12:44:30.000Z</time>
      </trkpt>
      <trkpt lat="48.61278" lon="2.11977">
        <ele>86</ele>
        <time>2019-10-28T12:44:31.000Z</time>
      </trkpt>
      <trkpt lat="48.61278" lon="2.11976">
        <ele>86</ele>
        <time>2019-10-28T12:44:32.000Z</time>
      </trkpt>
      <trkpt lat="48.61279" lon="2.11975">
        <ele>86</ele>
        <time>2019-10-28T12:44:33.000Z</time>
      </trkpt>
      <trkpt lat="48.6128" lon="2.11974">
        <ele>86</ele>
        <time>2019-10-28T12:44:34.000Z</time>
      </trkpt>
      <trkpt lat="48.61281" lon="2.11973">
        <ele>86</ele>
        <time>2019-10-28T12:44:35.000Z</time>
      </trkpt>
      <trkpt lat="48.61282" lon="2.11972">
        <ele>86</ele>
        <time>2019-10-28T12:44:36.000Z</time>
      </trkpt>
      <trkpt lat="48.61283" lon="2.11971">
        <ele>86</ele>
        <time>2019-10-28T12:44:37.000Z</time>
      </trkpt>
      <trkpt lat="48.61284" lon="2.1197">
        <ele>86</ele>
        <time>2019-10-28T12:44:38.000Z</time>
      </trkpt>
      <trkpt lat="48.61285" lon="2.11969">
        <ele>86</ele>
        <time>2019-10-28T12:44:39.000Z</time>
      </trkpt>
      <trkpt lat="48.61286" lon="2.11967">
        <ele>86</ele>
        <time>2019-10-28T12:44:40.000Z</time>
      </trkpt>
      <trkpt lat="48.61287" lon="2.11966">
        <ele>86</ele>
        <time>2019-10-28T12:44:41.000Z</time>
      </trkpt>
      <trkpt lat="48.61288" lon="2.11965">
        <ele>86</ele>
        <time>2019-10-28T12:44:42.000Z</time>
      </trkpt>
      <trkpt lat="48.61289" lon="2.11963">
        <ele>86</ele>
        <time>2019-10-28T12:44:43.000Z</time>
      </trkpt>
      <trkpt lat="48.6129" lon="2.11962">
        <ele>85</ele>
        <time>2019-10-28T12:44:44.000Z</time>
      </trkpt>
      <trkpt lat="48.61291" lon="2.11961">
        <ele>86</ele>
        <time>2019-10-28T12:44:45.000Z</time>
      </trkpt>
      <trkpt lat="48.61292" lon="2.1196">
        <ele>86</ele>
        <time>2019-10-28T12:44:46.000Z</time>
      </trkpt>
      <trkpt lat="48.61293" lon="2.11959">
        <ele>86</ele>
        <time>2019-10-28T12:44:47.000Z</time>
      </trkpt>
      <trkpt lat="48.61294" lon="2.11958">
        <ele>85</ele>
        <time>2019-10-28T12:44:48.000Z</time>
      </trkpt>
      <trkpt lat="48.61295" lon="2.11956">
        <ele>85</ele>
        <time>2019-10-28T12:44:49.000Z</time>
      </trkpt>
      <trkpt lat="48.61296" lon="2.11955">
        <ele>85</ele>
        <time>2019-10-28T12:44:50.000Z</time>
      </trkpt>
      <trkpt lat="48.61298" lon="2.11954">
        <ele>85</ele>
        <time>2019-10-28T12:44:51.000Z</time>
      </trkpt>
      <trkpt lat="48.61299" lon="2.11953">
        <ele>84</ele>
        <time>2019-10-28T12:44:52.000Z</time>
      </trkpt>
      <trkpt lat="48.613" lon="2.11952">
        <ele>84</ele>
        <time>2019-10-28T12:44:53.000Z</time>
      </trkpt>
      <trkpt lat="48.61301" lon="2.11951">
        <ele>84</ele>
        <time>2019-10-28T12:44:54.000Z</time>
      </trkpt>
      <trkpt lat="48.61302" lon="2.1195">
        <ele>84</ele>
        <time>2019-10-28T12:44:55.000Z</time>
      </trkpt>
      <trkpt lat="48.61303" lon="2.11948">
        <ele>84</ele>
        <time>2019-10-28T12:44:56.000Z</time>
      </trkpt>
      <trkpt lat="48.61304" lon="2.11947">
        <ele>84</ele>
        <time>2019-10-28T12:44:57.000Z</time>
      </trkpt>
      <trkpt lat="48.61305" lon="2.11946">
        <ele>85</ele>
        <time>2019-10-28T12:44:58.000Z</time>
      </trkpt>
      <trkpt lat="48.61306" lon="2.11945">
        <ele>84</ele>
        <time>2019-10-28T12:44:59.000Z</time>
      </trkpt>
      <trkpt lat="48.61307" lon="2.11944">
        <ele>84</ele>
        <time>2019-10-28T12:45:00.000Z</time>
      </trkpt>
      <trkpt lat="48.61308" lon="2.11943">
        <ele>84</ele>
        <time>2019-10-28T12:45:01.000Z</time>
      </trkpt>
      <trkpt lat="48.6131" lon="2.11942">
        <ele>84</ele>
        <time>2019-10-28T12:45:02.000Z</time>
      </trkpt>
      <trkpt lat="48.61311" lon="2.11941">
        <ele>84</ele>
        <time>2019-10-28T12:45:03.000Z</time>
      </trkpt>
      <trkpt lat="48.61312" lon="2.1194">
        <ele>84</ele>
        <time>2019-10-28T12:45:04.000Z</time>
      </trkpt>
      <trkpt lat="48.61313" lon="2.11939">
        <ele>84</ele>
        <time>2019-10-28T12:45:05.000Z</time>
      </trkpt>
      <trkpt lat="48.61314" lon="2.11938">
        <ele>84</ele>
        <time>2019-10-28T12:45:06.000Z</time>
      </trkpt>
      <trkpt lat="48.61315" lon="2.11937">
        <ele>84</ele>
        <time>2019-10-28T12:45:07.000Z</time>
      </trkpt>
      <trkpt lat="48.61316" lon="2.11935">
        <ele>84</ele>
        <time>2019-10-28T12:45:08.000Z</time>
      </trkpt>
      <trkpt lat="48.61317" lon="2.11934">
        <ele>84</ele>
        <time>2019-10-28T12:45:09.000Z</time>
      </trkpt>
      <trkpt lat="48.61318" lon="2.11933">
        <ele>84</ele>
        <time>2019-10-28T12:45:10.000Z</time>
      </trkpt>
      <trkpt lat="48.61318" lon="2.11933">
        <ele>85</ele>
        <time>2019-10-28T12:45:26.000Z</time>
      </trkpt>
      <trkpt lat="48.61318" lon="2.11933">
        <ele>85</ele>
        <time>2019-10-28T12:45:27.000Z</time>
      </trkpt>
      <trkpt lat="48.61319" lon="2.11923">
        <ele>86</ele>
        <time>2019-10-28T12:45:28.000Z</time>
      </trkpt>
      <trkpt lat="48.61324" lon="2.11914">
        <ele>86</ele>
        <time>2019-10-28T12:45:29.000Z</time>
      </trkpt>
      <trkpt lat="48.61331" lon="2.11905">
        <ele>87</ele>
        <time>2019-10-28T12:45:30.000Z</time>
      </trkpt>
      <trkpt lat="48.61337" lon="2.11906">
        <ele>87</ele>
        <time>2019-10-28T12:45:31.000Z</time>
      </trkpt>
      <trkpt lat="48.6134" lon="2.11904">
        <ele>87</ele>
        <time>2019-10-28T12:45:32.000Z</time>
      </trkpt>
      <trkpt lat="48.6134" lon="2.11902">
        <ele>87</ele>
        <time>2019-10-28T12:45:33.000Z</time>
      </trkpt>
      <trkpt lat="48.61341" lon="2.11901">
        <ele>88</ele>
        <time>2019-10-28T12:45:34.000Z</time>
      </trkpt>
      <trkpt lat="48.61342" lon="2.119">
        <ele>88</ele>
        <time>2019-10-28T12:45:35.000Z</time>
      </trkpt>
      <trkpt lat="48.61344" lon="2.11898">
        <ele>88</ele>
        <time>2019-10-28T12:45:36.000Z</time>
      </trkpt>
      <trkpt lat="48.61345" lon="2.11897">
        <ele>88</ele>
        <time>2019-10-28T12:45:37.000Z</time>
      </trkpt>
      <trkpt lat="48.61346" lon="2.11896">
        <ele>88</ele>
        <time>2019-10-28T12:45:38.000Z</time>
      </trkpt>
      <trkpt lat="48.61347" lon="2.11895">
        <ele>88</ele>
        <time>2019-10-28T12:45:39.000Z</time>
      </trkpt>
      <trkpt lat="48.61349" lon="2.11894">
        <ele>88</ele>
        <time>2019-10-28T12:45:40.000Z</time>
      </trkpt>
      <trkpt lat="48.6135" lon="2.11893">
        <ele>88</ele>
        <time>2019-10-28T12:45:41.000Z</time>
      </trkpt>
      <trkpt lat="48.61351" lon="2.11893">
        <ele>88</ele>
        <time>2019-10-28T12:45:42.000Z</time>
      </trkpt>
      <trkpt lat="48.61352" lon="2.11892">
        <ele>88</ele>
        <time>2019-10-28T12:45:43.000Z</time>
      </trkpt>
      <trkpt lat="48.61353" lon="2.11891">
        <ele>88</ele>
        <time>2019-10-28T12:45:44.000Z</time>
      </trkpt>
      <trkpt lat="48.61354" lon="2.1189">
        <ele>89</ele>
        <time>2019-10-28T12:45:45.000Z</time>
      </trkpt>
      <trkpt lat="48.61355" lon="2.11888">
        <ele>88</ele>
        <time>2019-10-28T12:45:46.000Z</time>
      </trkpt>
      <trkpt lat="48.61356" lon="2.11887">
        <ele>88</ele>
        <time>2019-10-28T12:45:47.000Z</time>
      </trkpt>
      <trkpt lat="48.61357" lon="2.11886">
        <ele>87</ele>
        <time>2019-10-28T12:45:48.000Z</time>
      </trkpt>
      <trkpt lat="48.61358" lon="2.11885">
        <ele>87</ele>
        <time>2019-10-28T12:45:49.000Z</time>
      </trkpt>
      <trkpt lat="48.61359" lon="2.11884">
        <ele>87</ele>
        <time>2019-10-28T12:45:50.000Z</time>
      </trkpt>
      <trkpt lat="48.6136" lon="2.11883">
        <ele>86</ele>
        <time>2019-10-28T12:45:51.000Z</time>
      </trkpt>
      <trkpt lat="48.61361" lon="2.11882">
        <ele>86</ele>
        <time>2019-10-28T12:45:52.000Z</time>
      </trkpt>
      <trkpt lat="48.61362" lon="2.11881">
        <ele>87</ele>
        <time>2019-10-28T12:45:53.000Z</time>
      </trkpt>
      <trkpt lat="48.61363" lon="2.1188">
        <ele>86</ele>
        <time>2019-10-28T12:45:54.000Z</time>
      </trkpt>
      <trkpt lat="48.61364" lon="2.11879">
        <ele>86</ele>
        <time>2019-10-28T12:45:55.000Z</time>
      </trkpt>
      <trkpt lat="48.61365" lon="2.11878">
        <ele>86</ele>
        <time>2019-10-28T12:45:56.000Z</time>
      </trkpt>
      <trkpt lat="48.61366" lon="2.11877">
        <ele>86</ele>
        <time>2019-10-28T12:45:57.000Z</time>
      </trkpt>
      <trkpt lat="48.61367" lon="2.11875">
        <ele>86</ele>
        <time>2019-10-28T12:45:58.000Z</time>
      </trkpt>
      <trkpt lat="48.61368" lon="2.11874">
        <ele>86</ele>
        <time>2019-10-28T12:45:59.000Z</time>
      </trkpt>
      <trkpt lat="48.61369" lon="2.11873">
        <ele>86</ele>
        <time>2019-10-28T12:46:00.000Z</time>
      </trkpt>
      <trkpt lat="48.61369" lon="2.11872">
        <ele>86</ele>
        <time>2019-10-28T12:46:01.000Z</time>
      </trkpt>
      <trkpt lat="48.6137" lon="2.11871">
        <ele>85</ele>
        <time>2019-10-28T12:46:02.000Z</time>
      </trkpt>
      <trkpt lat="48.6137" lon="2.11871">
        <ele>87</ele>
        <time>2019-10-28T12:46:25.000Z</time>
      </trkpt>
      <trkpt lat="48.6137" lon="2.11871">
        <ele>87</ele>
        <time>2019-10-28T12:46:26.000Z</time>
      </trkpt>
      <trkpt lat="48.61384" lon="2.11855">
        <ele>87</ele>
        <time>2019-10-28T12:46:27.000Z</time>
      </trkpt>
      <trkpt lat="48.614" lon="2.11846">
        <ele>89</ele>
        <time>2019-10-28T12:46:28.000Z</time>
      </trkpt>
      <trkpt lat="48.61412" lon="2.11835">
        <ele>90</ele>
        <time>2019-10-28T12:46:29.000Z</time>
      </trkpt>
      <trkpt lat="48.61411" lon="2.1184">
        <ele>90</ele>
        <time>2019-10-28T12:46:30.000Z</time>
      </trkpt>
      <trkpt lat="48.61408" lon="2.11838">
        <ele>90</ele>
        <time>2019-10-28T12:46:31.000Z</time>
      </trkpt>
      <trkpt lat="48.61408" lon="2.11838">
        <ele>89</ele>
        <time>2019-10-28T12:46:32.000Z</time>
      </trkpt>
      <trkpt lat="48.61409" lon="2.11838">
        <ele>89</ele>
        <time>2019-10-28T12:46:33.000Z</time>
      </trkpt>
      <trkpt lat="48.6141" lon="2.11837">
        <ele>89</ele>
        <time>2019-10-28T12:46:34.000Z</time>
      </trkpt>
      <trkpt lat="48.61411" lon="2.11836">
        <ele>89</ele>
        <time>2019-10-28T12:46:35.000Z</time>
      </trkpt>
      <trkpt lat="48.61412" lon="2.11835">
        <ele>89</ele>
        <time>2019-10-28T12:46:36.000Z</time>
      </trkpt>
      <trkpt lat="48.61413" lon="2.11834">
        <ele>89</ele>
        <time>2019-10-28T12:46:37.000Z</time>
      </trkpt>
      <trkpt lat="48.61414" lon="2.11833">
        <ele>89</ele>
        <time>2019-10-28T12:46:38.000Z</time>
      </trkpt>
      <trkpt lat="48.61415" lon="2.11832">
        <ele>89</ele>
        <time>2019-10-28T12:46:39.000Z</time>
      </trkpt>
      <trkpt lat="48.61416" lon="2.11831">
        <ele>89</ele>
        <time>2019-10-28T12:46:40.000Z</time>
      </trkpt>
      <trkpt lat="48.61417" lon="2.1183">
        <ele>89</ele>
        <time>2019-10-28T12:46:41.000Z</time>
      </trkpt>
      <trkpt lat="48.61419" lon="2.11829">
        <ele>89</ele>
        <time>2019-10-28T12:46:42.000Z</time>
      </trkpt>
      <trkpt lat="48.6142" lon="2.11828">
        <ele>89</ele>
        <time>2019-10-28T12:46:43.000Z</time>
      </trkpt>
      <trkpt lat="48.61421" lon="2.11827">
        <ele>89</ele>
        <time>2019-10-28T12:46:44.000Z</time>
      </trkpt>
      <trkpt lat="48.61422" lon="2.11826">
        <ele>89</ele>
        <time>2019-10-28T12:46:45.000Z</time>
      </trkpt>
      <trkpt lat="48.61423" lon="2.11825">
        <ele>89</ele>
        <time>2019-10-28T12:46:46.000Z</time>
      </trkpt>
      <trkpt lat="48.61425" lon="2.11824">
        <ele>89</ele>
        <time>2019-10-28T12:46:47.000Z</time>
      </trkpt>
      <trkpt lat="48.61426" lon="2.11823">
        <ele>89</ele>
        <time>2019-10-28T12:46:48.000Z</time>
      </trkpt>
      <trkpt lat="48.61427" lon="2.11823">
        <ele>89</ele>
        <time>2019-10-28T12:46:49.000Z</time>
      </trkpt>
      <trkpt lat="48.61429" lon="2.11822">
        <ele>89</ele>
        <time>2019-10-28T12:46:50.000Z</time>
      </trkpt>
      <trkpt lat="48.6143" lon="2.11821">
        <ele>88</ele>
        <time>2019-10-28T12:46:51.000Z</time>
      </trkpt>
      <trkpt lat="48.61431" lon="2.1182">
        <ele>88</ele>
        <time>2019-10-28T12:46:52.000Z</time>
      </trkpt>
      <trkpt lat="48.61433" lon="2.11819">
        <ele>89</ele>
        <time>2019-10-28T12:46:53.000Z</time>
      </trkpt>
      <trkpt lat="48.61434" lon="2.11818">
        <ele>88</ele>
        <time>2019-10-28T12:46:54.000Z</time>
      </trkpt>
      <trkpt lat="48.61435" lon="2.11817">
        <ele>89</ele>
        <time>2019-10-28T12:46:55.000Z</time>
      </trkpt>
      <trkpt lat="48.61436" lon="2.11817">
        <ele>89</ele>
        <time>2019-10-28T12:46:56.000Z</time>
      </trkpt>
      <trkpt lat="48.61437" lon="2.11816">
        <ele>88</ele>
        <time>2019-10-28T12:46:57.000Z</time>
      </trkpt>
      <trkpt lat="48.61438" lon="2.11815">
        <ele>88</ele>
        <time>2019-10-28T12:46:58.000Z</time>
      </trkpt>
      <trkpt lat="48.61439" lon="2.11815">
        <ele>88</ele>
        <time>2019-10-28T12:46:59.000Z</time>
      </trkpt>
      <trkpt lat="48.6144" lon="2.11814">
        <ele>88</ele>
        <time>2019-10-28T12:47:00.000Z</time>
      </trkpt>
      <trkpt lat="48.61441" lon="2.11813">
        <ele>89</ele>
        <time>2019-10-28T12:47:01.000Z</time>
      </trkpt>
      <trkpt lat="48.61442" lon="2.11812">
        <ele>89</ele>
        <time>2019-10-28T12:47:02.000Z</time>
      </trkpt>
      <trkpt lat="48.61443" lon="2.11812">
        <ele>88</ele>
        <time>2019-10-28T12:47:03.000Z</time>
      </trkpt>
      <trkpt lat="48.61444" lon="2.11811">
        <ele>88</ele>
        <time>2019-10-28T12:47:04.000Z</time>
      </trkpt>
      <trkpt lat="48.61445" lon="2.1181">
        <ele>88</ele>
        <time>2019-10-28T12:47:05.000Z</time>
      </trkpt>
      <trkpt lat="48.61446" lon="2.1181">
        <ele>88</ele>
        <time>2019-10-28T12:47:06.000Z</time>
      </trkpt>
      <trkpt lat="48.61447" lon="2.11809">
        <ele>88</ele>
        <time>2019-10-28T12:47:07.000Z</time>
      </trkpt>
      <trkpt lat="48.61448" lon="2.11808">
        <ele>88</ele>
        <time>2019-10-28T12:47:08.000Z</time>
      </trkpt>
      <trkpt lat="48.61449" lon="2.11807">
        <ele>88</ele>
        <time>2019-10-28T12:47:09.000Z</time>
      </trkpt>
      <trkpt lat="48.6145" lon="2.11807">
        <ele>88</ele>
        <time>2019-10-28T12:47:10.000Z</time>
      </trkpt>
      <trkpt lat="48.61452" lon="2.11806">
        <ele>88</ele>
        <time>2019-10-28T12:47:11.000Z</time>
      </trkpt>
      <trkpt lat="48.61453" lon="2.11805">
        <ele>88</ele>
        <time>2019-10-28T12:47:12.000Z</time>
      </trkpt>
      <trkpt lat="48.61454" lon="2.11805">
        <ele>88</ele>
        <time>2019-10-28T12:47:13.000Z</time>
      </trkpt>
      <trkpt lat="48.61455" lon="2.11804">
        <ele>88</ele>
        <time>2019-10-28T12:47:14.000Z</time>
      </trkpt>
      <trkpt lat="48.61457" lon="2.11803">
        <ele>87</ele>
        <time>2019-10-28T12:47:15.000Z</time>
      </trkpt>
      <trkpt lat="48.61458" lon="2.11802">
        <ele>87</ele>
        <time>2019-10-28T12:47:16.000Z</time>
      </trkpt>
      <trkpt lat="48.61459" lon="2.11802">
        <ele>87</ele>
        <time>2019-10-28T12:47:17.000Z</time>
      </trkpt>
      <trkpt lat="48.6146" lon="2.11801">
        <ele>87</ele>
        <time>2019-10-28T12:47:18.000Z</time>
      </trkpt>
      <trkpt lat="48.61461" lon="2.118">
        <ele>87</ele>
        <time>2019-10-28T12:47:19.000Z</time>
      </trkpt>
      <trkpt lat="48.61462" lon="2.11799">
        <ele>87</ele>
        <time>2019-10-28T12:47:20.000Z</time>
      </trkpt>
      <trkpt lat="48.61463" lon="2.11798">
        <ele>87</ele>
        <time>2019-10-28T12:47:21.000Z</time>
      </trkpt>
      <trkpt lat="48.61465" lon="2.11797">
        <ele>87</ele>
        <time>2019-10-28T12:47:22.000Z</time>
      </trkpt>
      <trkpt lat="48.61466" lon="2.11797">
        <ele>87</ele>
        <time>2019-10-28T12:47:23.000Z</time>
      </trkpt>
      <trkpt lat="48.61467" lon="2.11796">
        <ele>87</ele>
        <time>2019-10-28T12:47:24.000Z</time>
      </trkpt>
      <trkpt lat="48.61468" lon="2.11795">
        <ele>87</ele>
        <time>2019-10-28T12:47:25.000Z</time>
      </trkpt>
      <trkpt lat="48.61469" lon="2.11795">
        <ele>87</ele>
        <time>2019-10-28T12:47:26.000Z</time>
      </trkpt>
      <trkpt lat="48.61471" lon="2.11794">
        <ele>87</ele>
        <time>2019-10-28T12:47:27.000Z</time>
      </trkpt>
      <trkpt lat="48.61472" lon="2.11794">
        <ele>87</ele>
        <time>2019-10-28T12:47:28.000Z</time>
      </trkpt>
      <trkpt lat="48.61473" lon="2.11794">
        <ele>87</ele>
        <time>2019-10-28T12:47:29.000Z</time>
      </trkpt>
      <trkpt lat="48.61474" lon="2.11793">
        <ele>87</ele>
        <time>2019-10-28T12:47:30.000Z</time>
      </trkpt>
      <trkpt lat="48.61476" lon="2.11793">
        <ele>87</ele>
        <time>2019-10-28T12:47:31.000Z</time>
      </trkpt>
      <trkpt lat="48.61477" lon="2.11793">
        <ele>87</ele>
        <time>2019-10-28T12:47:32.000Z</time>
      </trkpt>
      <trkpt lat="48.61478" lon="2.11793">
        <ele>87</ele>
        <time>2019-10-28T12:47:33.000Z</time>
      </trkpt>
      <trkpt lat="48.61479" lon="2.11793">
        <ele>87</ele>
        <time>2019-10-28T12:47:34.000Z</time>
      </trkpt>
      <trkpt lat="48.61481" lon="2.11793">
        <ele>87</ele>
        <time>2019-10-28T12:47:35.000Z</time>
      </trkpt>
      <trkpt lat="48.61482" lon="2.11794">
        <ele>87</ele>
        <time>2019-10-28T12:47:36.000Z</time>
      </trkpt>
      <trkpt lat="48.61483" lon="2.11794">
        <ele>87</ele>
        <time>2019-10-28T12:47:37.000Z</time>
      </trkpt>
      <trkpt lat="48.61484" lon="2.11794">
        <ele>87</ele>
        <time>2019-10-28T12:47:38.000Z</time>
      </trkpt>
      <trkpt lat="48.61486" lon="2.11795">
        <ele>87</ele>
        <time>2019-10-28T12:47:39.000Z</time>
      </trkpt>
      <trkpt lat="48.61487" lon="2.11795">
        <ele>87</ele>
        <time>2019-10-28T12:47:40.000Z</time>
      </trkpt>
      <trkpt lat="48.61488" lon="2.11795">
        <ele>87</ele>
        <time>2019-10-28T12:47:41.000Z</time>
      </trkpt>
      <trkpt lat="48.61489" lon="2.11795">
        <ele>87</ele>
        <time>2019-10-28T12:47:42.000Z</time>
      </trkpt>
      <trkpt lat="48.61491" lon="2.11796">
        <ele>87</ele>
        <time>2019-10-28T12:47:43.000Z</time>
      </trkpt>
      <trkpt lat="48.61492" lon="2.11796">
        <ele>87</ele>
        <time>2019-10-28T12:47:44.000Z</time>
      </trkpt>
      <trkpt lat="48.61493" lon="2.11796">
        <ele>87</ele>
        <time>2019-10-28T12:47:45.000Z</time>
      </trkpt>
      <trkpt lat="48.61495" lon="2.11796">
        <ele>87</ele>
        <time>2019-10-28T12:47:46.000Z</time>
      </trkpt>
      <trkpt lat="48.61496" lon="2.11797">
        <ele>87</ele>
        <time>2019-10-28T12:47:47.000Z</time>
      </trkpt>
      <trkpt lat="48.61497" lon="2.11797">
        <ele>87</ele>
        <time>2019-10-28T12:47:48.000Z</time>
      </trkpt>
      <trkpt lat="48.61498" lon="2.11797">
        <ele>87</ele>
        <time>2019-10-28T12:47:49.000Z</time>
      </trkpt>
      <trkpt lat="48.61499" lon="2.11797">
        <ele>87</ele>
        <time>2019-10-28T12:47:50.000Z</time>
      </trkpt>
      <trkpt lat="48.615" lon="2.11797">
        <ele>87</ele>
        <time>2019-10-28T12:47:51.000Z</time>
      </trkpt>
      <trkpt lat="48.61501" lon="2.11796">
        <ele>87</ele>
        <time>2019-10-28T12:47:52.000Z</time>
      </trkpt>
      <trkpt lat="48.61501" lon="2.11794">
        <ele>87</ele>
        <time>2019-10-28T12:47:53.000Z</time>
      </trkpt>
      <trkpt lat="48.61501" lon="2.11792">
        <ele>87</ele>
        <time>2019-10-28T12:47:54.000Z</time>
      </trkpt>
      <trkpt lat="48.61501" lon="2.1179">
        <ele>86</ele>
        <time>2019-10-28T12:47:55.000Z</time>
      </trkpt>
      <trkpt lat="48.61501" lon="2.11788">
        <ele>87</ele>
        <time>2019-10-28T12:47:56.000Z</time>
      </trkpt>
      <trkpt lat="48.615" lon="2.11786">
        <ele>87</ele>
        <time>2019-10-28T12:47:57.000Z</time>
      </trkpt>
      <trkpt lat="48.615" lon="2.11784">
        <ele>87</ele>
        <time>2019-10-28T12:47:58.000Z</time>
      </trkpt>
      <trkpt lat="48.61499" lon="2.11783">
        <ele>86</ele>
        <time>2019-10-28T12:47:59.000Z</time>
      </trkpt>
      <trkpt lat="48.61499" lon="2.11781">
        <ele>87</ele>
        <time>2019-10-28T12:48:00.000Z</time>
      </trkpt>
      <trkpt lat="48.61498" lon="2.11779">
        <ele>87</ele>
        <time>2019-10-28T12:48:01.000Z</time>
      </trkpt>
      <trkpt lat="48.61498" lon="2.11777">
        <ele>87</ele>
        <time>2019-10-28T12:48:02.000Z</time>
      </trkpt>
      <trkpt lat="48.61497" lon="2.11775">
        <ele>86</ele>
        <time>2019-10-28T12:48:03.000Z</time>
      </trkpt>
      <trkpt lat="48.61496" lon="2.11773">
        <ele>86</ele>
        <time>2019-10-28T12:48:04.000Z</time>
      </trkpt>
      <trkpt lat="48.61496" lon="2.11772">
        <ele>87</ele>
        <time>2019-10-28T12:48:05.000Z</time>
      </trkpt>
      <trkpt lat="48.61495" lon="2.1177">
        <ele>87</ele>
        <time>2019-10-28T12:48:06.000Z</time>
      </trkpt>
      <trkpt lat="48.61494" lon="2.11768">
        <ele>87</ele>
        <time>2019-10-28T12:48:07.000Z</time>
      </trkpt>
      <trkpt lat="48.61494" lon="2.11766">
        <ele>87</ele>
        <time>2019-10-28T12:48:08.000Z</time>
      </trkpt>
      <trkpt lat="48.61493" lon="2.11764">
        <ele>87</ele>
        <time>2019-10-28T12:48:09.000Z</time>
      </trkpt>
      <trkpt lat="48.61493" lon="2.11762">
        <ele>87</ele>
        <time>2019-10-28T12:48:10.000Z</time>
      </trkpt>
      <trkpt lat="48.61492" lon="2.11761">
        <ele>87</ele>
        <time>2019-10-28T12:48:11.000Z</time>
      </trkpt>
      <trkpt lat="48.61492" lon="2.11759">
        <ele>87</ele>
        <time>2019-10-28T12:48:12.000Z</time>
      </trkpt>
      <trkpt lat="48.61491" lon="2.11757">
        <ele>87</ele>
        <time>2019-10-28T12:48:13.000Z</time>
      </trkpt>
      <trkpt lat="48.6149" lon="2.11755">
        <ele>87</ele>
        <time>2019-10-28T12:48:14.000Z</time>
      </trkpt>
      <trkpt lat="48.6149" lon="2.11753">
        <ele>87</ele>
        <time>2019-10-28T12:48:15.000Z</time>
      </trkpt>
      <trkpt lat="48.61489" lon="2.11751">
        <ele>87</ele>
        <time>2019-10-28T12:48:16.000Z</time>
      </trkpt>
      <trkpt lat="48.61489" lon="2.11749">
        <ele>87</ele>
        <time>2019-10-28T12:48:17.000Z</time>
      </trkpt>
      <trkpt lat="48.61488" lon="2.11747">
        <ele>87</ele>
        <time>2019-10-28T12:48:18.000Z</time>
      </trkpt>
      <trkpt lat="48.61488" lon="2.11745">
        <ele>87</ele>
        <time>2019-10-28T12:48:19.000Z</time>
      </trkpt>
      <trkpt lat="48.61487" lon="2.11743">
        <ele>87</ele>
        <time>2019-10-28T12:48:20.000Z</time>
      </trkpt>
      <trkpt lat="48.61486" lon="2.11741">
        <ele>87</ele>
        <time>2019-10-28T12:48:21.000Z</time>
      </trkpt>
      <trkpt lat="48.61486" lon="2.11739">
        <ele>87</ele>
        <time>2019-10-28T12:48:22.000Z</time>
      </trkpt>
      <trkpt lat="48.61485" lon="2.11737">
        <ele>87</ele>
        <time>2019-10-28T12:48:23.000Z</time>
      </trkpt>
      <trkpt lat="48.61485" lon="2.11735">
        <ele>87</ele>
        <time>2019-10-28T12:48:24.000Z</time>
      </trkpt>
      <trkpt lat="48.61485" lon="2.11733">
        <ele>87</ele>
        <time>2019-10-28T12:48:25.000Z</time>
      </trkpt>
      <trkpt lat="48.61484" lon="2.11731">
        <ele>87</ele>
        <time>2019-10-28T12:48:26.000Z</time>
      </trkpt>
      <trkpt lat="48.61484" lon="2.11729">
        <ele>88</ele>
        <time>2019-10-28T12:48:27.000Z</time>
      </trkpt>
      <trkpt lat="48.61483" lon="2.11727">
        <ele>88</ele>
        <time>2019-10-28T12:48:28.000Z</time>
      </trkpt>
      <trkpt lat="48.61483" lon="2.11725">
        <ele>87</ele>
        <time>2019-10-28T12:48:29.000Z</time>
      </trkpt>
      <trkpt lat="48.61483" lon="2.11723">
        <ele>87</ele>
        <time>2019-10-28T12:48:30.000Z</time>
      </trkpt>
      <trkpt lat="48.61482" lon="2.11721">
        <ele>87</ele>
        <time>2019-10-28T12:48:31.000Z</time>
      </trkpt>
      <trkpt lat="48.61482" lon="2.11719">
        <ele>87</ele>
        <time>2019-10-28T12:48:32.000Z</time>
      </trkpt>
      <trkpt lat="48.61482" lon="2.11717">
        <ele>87</ele>
        <time>2019-10-28T12:48:33.000Z</time>
      </trkpt>
      <trkpt lat="48.61482" lon="2.11715">
        <ele>87</ele>
        <time>2019-10-28T12:48:34.000Z</time>
      </trkpt>
      <trkpt lat="48.61481" lon="2.11713">
        <ele>87</ele>
        <time>2019-10-28T12:48:35.000Z</time>
      </trkpt>
      <trkpt lat="48.61481" lon="2.11711">
        <ele>87</ele>
        <time>2019-10-28T12:48:36.000Z</time>
      </trkpt>
      <trkpt lat="48.61481" lon="2.11709">
        <ele>87</ele>
        <time>2019-10-28T12:48:37.000Z</time>
      </trkpt>
      <trkpt lat="48.61481" lon="2.11707">
        <ele>87</ele>
        <time>2019-10-28T12:48:38.000Z</time>
      </trkpt>
      <trkpt lat="48.6148" lon="2.11705">
        <ele>87</ele>
        <time>2019-10-28T12:48:39.000Z</time>
      </trkpt>
      <trkpt lat="48.6148" lon="2.11703">
        <ele>87</ele>
        <time>2019-10-28T12:48:40.000Z</time>
      </trkpt>
      <trkpt lat="48.6148" lon="2.11701">
        <ele>87</ele>
        <time>2019-10-28T12:48:41.000Z</time>
      </trkpt>
      <trkpt lat="48.6148" lon="2.11699">
        <ele>87</ele>
        <time>2019-10-28T12:48:42.000Z</time>
      </trkpt>
      <trkpt lat="48.6148" lon="2.11697">
        <ele>87</ele>
        <time>2019-10-28T12:48:43.000Z</time>
      </trkpt>
      <trkpt lat="48.6148" lon="2.11695">
        <ele>87</ele>
        <time>2019-10-28T12:48:44.000Z</time>
      </trkpt>
      <trkpt lat="48.6148" lon="2.11693">
        <ele>87</ele>
        <time>2019-10-28T12:48:45.000Z</time>
      </trkpt>
      <trkpt lat="48.61479" lon="2.11691">
        <ele>87</ele>
        <time>2019-10-28T12:48:46.000Z</time>
      </trkpt>
      <trkpt lat="48.61479" lon="2.11688">
        <ele>87</ele>
        <time>2019-10-28T12:48:47.000Z</time>
      </trkpt>
      <trkpt lat="48.61479" lon="2.11686">
        <ele>87</ele>
        <time>2019-10-28T12:48:48.000Z</time>
      </trkpt>
      <trkpt lat="48.61479" lon="2.11684">
        <ele>87</ele>
        <time>2019-10-28T12:48:49.000Z</time>
      </trkpt>
      <trkpt lat="48.61479" lon="2.11682">
        <ele>87</ele>
        <time>2019-10-28T12:48:50.000Z</time>
      </trkpt>
      <trkpt lat="48.61479" lon="2.1168">
        <ele>87</ele>
        <time>2019-10-28T12:48:51.000Z</time>
      </trkpt>
      <trkpt lat="48.61479" lon="2.11678">
        <ele>87</ele>
        <time>2019-10-28T12:48:52.000Z</time>
      </trkpt>
      <trkpt lat="48.61479" lon="2.11676">
        <ele>87</ele>
        <time>2019-10-28T12:48:53.000Z</time>
      </trkpt>
      <trkpt lat="48.61479" lon="2.11674">
        <ele>87</ele>
        <time>2019-10-28T12:48:54.000Z</time>
      </trkpt>
      <trkpt lat="48.61479" lon="2.11672">
        <ele>87</ele>
        <time>2019-10-28T12:48:55.000Z</time>
      </trkpt>
      <trkpt lat="48.61479" lon="2.1167">
        <ele>87</ele>
        <time>2019-10-28T12:48:56.000Z</time>
      </trkpt>
      <trkpt lat="48.61479" lon="2.11668">
        <ele>87</ele>
        <time>2019-10-28T12:48:57.000Z</time>
      </trkpt>
      <trkpt lat="48.61478" lon="2.11666">
        <ele>87</ele>
        <time>2019-10-28T12:48:58.000Z</time>
      </trkpt>
      <trkpt lat="48.61478" lon="2.11664">
        <ele>87</ele>
        <time>2019-10-28T12:48:59.000Z</time>
      </trkpt>
      <trkpt lat="48.61478" lon="2.11662">
        <ele>88</ele>
        <time>2019-10-28T12:49:00.000Z</time>
      </trkpt>
      <trkpt lat="48.61478" lon="2.11659">
        <ele>88</ele>
        <time>2019-10-28T12:49:01.000Z</time>
      </trkpt>
      <trkpt lat="48.61478" lon="2.11657">
        <ele>88</ele>
        <time>2019-10-28T12:49:02.000Z</time>
      </trkpt>
      <trkpt lat="48.61478" lon="2.11655">
        <ele>88</ele>
        <time>2019-10-28T12:49:03.000Z</time>
      </trkpt>
      <trkpt lat="48.61478" lon="2.11653">
        <ele>88</ele>
        <time>2019-10-28T12:49:04.000Z</time>
      </trkpt>
      <trkpt lat="48.61478" lon="2.11651">
        <ele>88</ele>
        <time>2019-10-28T12:49:05.000Z</time>
      </trkpt>
      <trkpt lat="48.61478" lon="2.11649">
        <ele>88</ele>
        <time>2019-10-28T12:49:06.000Z</time>
      </trkpt>
      <trkpt lat="48.61478" lon="2.11647">
        <ele>88</ele>
        <time>2019-10-28T12:49:07.000Z</time>
      </trkpt>
      <trkpt lat="48.61478" lon="2.11645">
        <ele>88</ele>
        <time>2019-10-28T12:49:08.000Z</time>
      </trkpt>
      <trkpt lat="48.61477" lon="2.11643">
        <ele>88</ele>
        <time>2019-10-28T12:49:09.000Z</time>
      </trkpt>
      <trkpt lat="48.61477" lon="2.11641">
        <ele>88</ele>
        <time>2019-10-28T12:49:10.000Z</time>
      </trkpt>
      <trkpt lat="48.61477" lon="2.11639">
        <ele>88</ele>
        <time>2019-10-28T12:49:11.000Z</time>
      </trkpt>
      <trkpt lat="48.61477" lon="2.11637">
        <ele>88</ele>
        <time>2019-10-28T12:49:12.000Z</time>
      </trkpt>
      <trkpt lat="48.61477" lon="2.11635">
        <ele>89</ele>
        <time>2019-10-28T12:49:13.000Z</time>
      </trkpt>
      <trkpt lat="48.61477" lon="2.11633">
        <ele>89</ele>
        <time>2019-10-28T12:49:14.000Z</time>
      </trkpt>
      <trkpt lat="48.61477" lon="2.11631">
        <ele>89</ele>
        <time>2019-10-28T12:49:15.000Z</time>
      </trkpt>
      <trkpt lat="48.61477" lon="2.11629">
        <ele>89</ele>
        <time>2019-10-28T12:49:16.000Z</time>
      </trkpt>
      <trkpt lat="48.61477" lon="2.11626">
        <ele>89</ele>
        <time>2019-10-28T12:49:17.000Z</time>
      </trkpt>
      <trkpt lat="48.61477" lon="2.11624">
        <ele>89</ele>
        <time>2019-10-28T12:49:18.000Z</time>
      </trkpt>
      <trkpt lat="48.61477" lon="2.11622">
        <ele>89</ele>
        <time>2019-10-28T12:49:19.000Z</time>
      </trkpt>
      <trkpt lat="48.61477" lon="2.1162">
        <ele>89</ele>
        <time>2019-10-28T12:49:20.000Z</time>
      </trkpt>
      <trkpt lat="48.61477" lon="2.11618">
        <ele>89</ele>
        <time>2019-10-28T12:49:21.000Z</time>
      </trkpt>
      <trkpt lat="48.61477" lon="2.11616">
        <ele>89</ele>
        <time>2019-10-28T12:49:22.000Z</time>
      </trkpt>
      <trkpt lat="48.61477" lon="2.11615">
        <ele>89</ele>
        <time>2019-10-28T12:49:23.000Z</time>
      </trkpt>
      <trkpt lat="48.61477" lon="2.11613">
        <ele>89</ele>
        <time>2019-10-28T12:49:24.000Z</time>
      </trkpt>
      <trkpt lat="48.61476" lon="2.11611">
        <ele>88</ele>
        <time>2019-10-28T12:49:25.000Z</time>
      </trkpt>
      <trkpt lat="48.61476" lon="2.11609">
        <ele>88</ele>
        <time>2019-10-28T12:49:26.000Z</time>
      </trkpt>
      <trkpt lat="48.61475" lon="2.11607">
        <ele>88</ele>
        <time>2019-10-28T12:49:27.000Z</time>
      </trkpt>
      <trkpt lat="48.61475" lon="2.11604">
        <ele>89</ele>
        <time>2019-10-28T12:49:28.000Z</time>
      </trkpt>
      <trkpt lat="48.61475" lon="2.11602">
        <ele>89</ele>
        <time>2019-10-28T12:49:29.000Z</time>
      </trkpt>
      <trkpt lat="48.61475" lon="2.11599">
        <ele>89</ele>
        <time>2019-10-28T12:49:30.000Z</time>
      </trkpt>
      <trkpt lat="48.61475" lon="2.11597">
        <ele>89</ele>
        <time>2019-10-28T12:49:31.000Z</time>
      </trkpt>
      <trkpt lat="48.61475" lon="2.11594">
        <ele>89</ele>
        <time>2019-10-28T12:49:32.000Z</time>
      </trkpt>
      <trkpt lat="48.61475" lon="2.11592">
        <ele>89</ele>
        <time>2019-10-28T12:49:33.000Z</time>
      </trkpt>
      <trkpt lat="48.61475" lon="2.1159">
        <ele>89</ele>
        <time>2019-10-28T12:49:34.000Z</time>
      </trkpt>
      <trkpt lat="48.61475" lon="2.11588">
        <ele>89</ele>
        <time>2019-10-28T12:49:35.000Z</time>
      </trkpt>
      <trkpt lat="48.61475" lon="2.11586">
        <ele>89</ele>
        <time>2019-10-28T12:49:36.000Z</time>
      </trkpt>
      <trkpt lat="48.61475" lon="2.11583">
        <ele>89</ele>
        <time>2019-10-28T12:49:37.000Z</time>
      </trkpt>
      <trkpt lat="48.61475" lon="2.11581">
        <ele>89</ele>
        <time>2019-10-28T12:49:38.000Z</time>
      </trkpt>
      <trkpt lat="48.61475" lon="2.11579">
        <ele>89</ele>
        <time>2019-10-28T12:49:39.000Z</time>
      </trkpt>
      <trkpt lat="48.61475" lon="2.11578">
        <ele>89</ele>
        <time>2019-10-28T12:49:40.000Z</time>
      </trkpt>
      <trkpt lat="48.61475" lon="2.11575">
        <ele>90</ele>
        <time>2019-10-28T12:49:41.000Z</time>
      </trkpt>
      <trkpt lat="48.61475" lon="2.11573">
        <ele>89</ele>
        <time>2019-10-28T12:49:42.000Z</time>
      </trkpt>
      <trkpt lat="48.61475" lon="2.11571">
        <ele>89</ele>
        <time>2019-10-28T12:49:43.000Z</time>
      </trkpt>
      <trkpt lat="48.61475" lon="2.11569">
        <ele>89</ele>
        <time>2019-10-28T12:49:44.000Z</time>
      </trkpt>
      <trkpt lat="48.61475" lon="2.11566">
        <ele>89</ele>
        <time>2019-10-28T12:49:45.000Z</time>
      </trkpt>
      <trkpt lat="48.61475" lon="2.11564">
        <ele>89</ele>
        <time>2019-10-28T12:49:46.000Z</time>
      </trkpt>
      <trkpt lat="48.61475" lon="2.11562">
        <ele>89</ele>
        <time>2019-10-28T12:49:47.000Z</time>
      </trkpt>
      <trkpt lat="48.61475" lon="2.1156">
        <ele>89</ele>
        <time>2019-10-28T12:49:48.000Z</time>
      </trkpt>
      <trkpt lat="48.61475" lon="2.11558">
        <ele>89</ele>
        <time>2019-10-28T12:49:49.000Z</time>
      </trkpt>
      <trkpt lat="48.61475" lon="2.11556">
        <ele>89</ele>
        <time>2019-10-28T12:49:50.000Z</time>
      </trkpt>
      <trkpt lat="48.61475" lon="2.11554">
        <ele>89</ele>
        <time>2019-10-28T12:49:51.000Z</time>
      </trkpt>
      <trkpt lat="48.61474" lon="2.11552">
        <ele>89</ele>
        <time>2019-10-28T12:49:52.000Z</time>
      </trkpt>
      <trkpt lat="48.61474" lon="2.1155">
        <ele>90</ele>
        <time>2019-10-28T12:49:53.000Z</time>
      </trkpt>
      <trkpt lat="48.61474" lon="2.11548">
        <ele>90</ele>
        <time>2019-10-28T12:49:54.000Z</time>
      </trkpt>
      <trkpt lat="48.61474" lon="2.11546">
        <ele>90</ele>
        <time>2019-10-28T12:49:55.000Z</time>
      </trkpt>
      <trkpt lat="48.61474" lon="2.11543">
        <ele>90</ele>
        <time>2019-10-28T12:49:56.000Z</time>
      </trkpt>
      <trkpt lat="48.61474" lon="2.11541">
        <ele>90</ele>
        <time>2019-10-28T12:49:57.000Z</time>
      </trkpt>
      <trkpt lat="48.61474" lon="2.11539">
        <ele>90</ele>
        <time>2019-10-28T12:49:58.000Z</time>
      </trkpt>
      <trkpt lat="48.61474" lon="2.11537">
        <ele>90</ele>
        <time>2019-10-28T12:49:59.000Z</time>
      </trkpt>
      <trkpt lat="48.61474" lon="2.11535">
        <ele>90</ele>
        <time>2019-10-28T12:50:00.000Z</time>
      </trkpt>
      <trkpt lat="48.61474" lon="2.11533">
        <ele>90</ele>
        <time>2019-10-28T12:50:01.000Z</time>
      </trkpt>
      <trkpt lat="48.61474" lon="2.11531">
        <ele>90</ele>
        <time>2019-10-28T12:50:02.000Z</time>
      </trkpt>
      <trkpt lat="48.61474" lon="2.11529">
        <ele>90</ele>
        <time>2019-10-28T12:50:03.000Z</time>
      </trkpt>
      <trkpt lat="48.61474" lon="2.11527">
        <ele>90</ele>
        <time>2019-10-28T12:50:04.000Z</time>
      </trkpt>
      <trkpt lat="48.61474" lon="2.11525">
        <ele>90</ele>
        <time>2019-10-28T12:50:05.000Z</time>
      </trkpt>
      <trkpt lat="48.61474" lon="2.11523">
        <ele>90</ele>
        <time>2019-10-28T12:50:06.000Z</time>
      </trkpt>
      <trkpt lat="48.61474" lon="2.11521">
        <ele>90</ele>
        <time>2019-10-28T12:50:07.000Z</time>
      </trkpt>
      <trkpt lat="48.61474" lon="2.11519">
        <ele>90</ele>
        <time>2019-10-28T12:50:08.000Z</time>
      </trkpt>
      <trkpt lat="48.61474" lon="2.11517">
        <ele>90</ele>
        <time>2019-10-28T12:50:09.000Z</time>
      </trkpt>
      <trkpt lat="48.61474" lon="2.11515">
        <ele>90</ele>
        <time>2019-10-28T12:50:10.000Z</time>
      </trkpt>
      <trkpt lat="48.61474" lon="2.11513">
        <ele>90</ele>
        <time>2019-10-28T12:50:11.000Z</time>
      </trkpt>
      <trkpt lat="48.61474" lon="2.11511">
        <ele>90</ele>
        <time>2019-10-28T12:50:12.000Z</time>
      </trkpt>
      <trkpt lat="48.61474" lon="2.11509">
        <ele>90</ele>
        <time>2019-10-28T12:50:13.000Z</time>
      </trkpt>
      <trkpt lat="48.61474" lon="2.11507">
        <ele>90</ele>
        <time>2019-10-28T12:50:14.000Z</time>
      </trkpt>
      <trkpt lat="48.61474" lon="2.11505">
        <ele>90</ele>
        <time>2019-10-28T12:50:15.000Z</time>
      </trkpt>
      <trkpt lat="48.61474" lon="2.11503">
        <ele>90</ele>
        <time>2019-10-28T12:50:16.000Z</time>
      </trkpt>
      <trkpt lat="48.61474" lon="2.11501">
        <ele>90</ele>
        <time>2019-10-28T12:50:17.000Z</time>
      </trkpt>
      <trkpt lat="48.61474" lon="2.11499">
        <ele>90</ele>
        <time>2019-10-28T12:50:18.000Z</time>
      </trkpt>
      <trkpt lat="48.61473" lon="2.11497">
        <ele>90</ele>
        <time>2019-10-28T12:50:19.000Z</time>
      </trkpt>
      <trkpt lat="48.61473" lon="2.11495">
        <ele>91</ele>
        <time>2019-10-28T12:50:20.000Z</time>
      </trkpt>
      <trkpt lat="48.61473" lon="2.11493">
        <ele>90</ele>
        <time>2019-10-28T12:50:21.000Z</time>
      </trkpt>
      <trkpt lat="48.61472" lon="2.11491">
        <ele>91</ele>
        <time>2019-10-28T12:50:22.000Z</time>
      </trkpt>
      <trkpt lat="48.61472" lon="2.11489">
        <ele>91</ele>
        <time>2019-10-28T12:50:23.000Z</time>
      </trkpt>
      <trkpt lat="48.61472" lon="2.11486">
        <ele>90</ele>
        <time>2019-10-28T12:50:24.000Z</time>
      </trkpt>
      <trkpt lat="48.61472" lon="2.11484">
        <ele>90</ele>
        <time>2019-10-28T12:50:25.000Z</time>
      </trkpt>
      <trkpt lat="48.61472" lon="2.11482">
        <ele>90</ele>
        <time>2019-10-28T12:50:26.000Z</time>
      </trkpt>
      <trkpt lat="48.61471" lon="2.1148">
        <ele>90</ele>
        <time>2019-10-28T12:50:27.000Z</time>
      </trkpt>
      <trkpt lat="48.61471" lon="2.11478">
        <ele>90</ele>
        <time>2019-10-28T12:50:28.000Z</time>
      </trkpt>
      <trkpt lat="48.6147" lon="2.11476">
        <ele>90</ele>
        <time>2019-10-28T12:50:29.000Z</time>
      </trkpt>
      <trkpt lat="48.6147" lon="2.11474">
        <ele>90</ele>
        <time>2019-10-28T12:50:30.000Z</time>
      </trkpt>
      <trkpt lat="48.61469" lon="2.11472">
        <ele>90</ele>
        <time>2019-10-28T12:50:31.000Z</time>
      </trkpt>
      <trkpt lat="48.61469" lon="2.1147">
        <ele>90</ele>
        <time>2019-10-28T12:50:32.000Z</time>
      </trkpt>
      <trkpt lat="48.61468" lon="2.11468">
        <ele>90</ele>
        <time>2019-10-28T12:50:33.000Z</time>
      </trkpt>
      <trkpt lat="48.61468" lon="2.11466">
        <ele>90</ele>
        <time>2019-10-28T12:50:34.000Z</time>
      </trkpt>
      <trkpt lat="48.61467" lon="2.11464">
        <ele>90</ele>
        <time>2019-10-28T12:50:35.000Z</time>
      </trkpt>
      <trkpt lat="48.61467" lon="2.11462">
        <ele>90</ele>
        <time>2019-10-28T12:50:36.000Z</time>
      </trkpt>
      <trkpt lat="48.61466" lon="2.1146">
        <ele>90</ele>
        <time>2019-10-28T12:50:37.000Z</time>
      </trkpt>
      <trkpt lat="48.61466" lon="2.11458">
        <ele>90</ele>
        <time>2019-10-28T12:50:38.000Z</time>
      </trkpt>
      <trkpt lat="48.61466" lon="2.11456">
        <ele>90</ele>
        <time>2019-10-28T12:50:39.000Z</time>
      </trkpt>
      <trkpt lat="48.61465" lon="2.11454">
        <ele>90</ele>
        <time>2019-10-28T12:50:40.000Z</time>
      </trkpt>
      <trkpt lat="48.61465" lon="2.11452">
        <ele>90</ele>
        <time>2019-10-28T12:50:41.000Z</time>
      </trkpt>
      <trkpt lat="48.61464" lon="2.1145">
        <ele>90</ele>
        <time>2019-10-28T12:50:42.000Z</time>
      </trkpt>
      <trkpt lat="48.61464" lon="2.11448">
        <ele>90</ele>
        <time>2019-10-28T12:50:43.000Z</time>
      </trkpt>
      <trkpt lat="48.61463" lon="2.11446">
        <ele>90</ele>
        <time>2019-10-28T12:50:44.000Z</time>
      </trkpt>
      <trkpt lat="48.61463" lon="2.11445">
        <ele>90</ele>
        <time>2019-10-28T12:50:45.000Z</time>
      </trkpt>
      <trkpt lat="48.61463" lon="2.11443">
        <ele>90</ele>
        <time>2019-10-28T12:50:46.000Z</time>
      </trkpt>
      <trkpt lat="48.61462" lon="2.11441">
        <ele>91</ele>
        <time>2019-10-28T12:50:47.000Z</time>
      </trkpt>
      <trkpt lat="48.61462" lon="2.11438">
        <ele>91</ele>
        <time>2019-10-28T12:50:48.000Z</time>
      </trkpt>
      <trkpt lat="48.61462" lon="2.11436">
        <ele>91</ele>
        <time>2019-10-28T12:50:49.000Z</time>
      </trkpt>
      <trkpt lat="48.61461" lon="2.11435">
        <ele>91</ele>
        <time>2019-10-28T12:50:50.000Z</time>
      </trkpt>
      <trkpt lat="48.61461" lon="2.11433">
        <ele>91</ele>
        <time>2019-10-28T12:50:51.000Z</time>
      </trkpt>
      <trkpt lat="48.6146" lon="2.11431">
        <ele>91</ele>
        <time>2019-10-28T12:50:52.000Z</time>
      </trkpt>
      <trkpt lat="48.6146" lon="2.11429">
        <ele>91</ele>
        <time>2019-10-28T12:50:53.000Z</time>
      </trkpt>
      <trkpt lat="48.6146" lon="2.11427">
        <ele>91</ele>
        <time>2019-10-28T12:50:54.000Z</time>
      </trkpt>
      <trkpt lat="48.61459" lon="2.11425">
        <ele>91</ele>
        <time>2019-10-28T12:50:55.000Z</time>
      </trkpt>
      <trkpt lat="48.61459" lon="2.11423">
        <ele>91</ele>
        <time>2019-10-28T12:50:56.000Z</time>
      </trkpt>
      <trkpt lat="48.61459" lon="2.11421">
        <ele>91</ele>
        <time>2019-10-28T12:50:57.000Z</time>
      </trkpt>
      <trkpt lat="48.61458" lon="2.11419">
        <ele>91</ele>
        <time>2019-10-28T12:50:58.000Z</time>
      </trkpt>
      <trkpt lat="48.61458" lon="2.11417">
        <ele>91</ele>
        <time>2019-10-28T12:50:59.000Z</time>
      </trkpt>
      <trkpt lat="48.61457" lon="2.11415">
        <ele>91</ele>
        <time>2019-10-28T12:51:00.000Z</time>
      </trkpt>
      <trkpt lat="48.61457" lon="2.11413">
        <ele>92</ele>
        <time>2019-10-28T12:51:01.000Z</time>
      </trkpt>
      <trkpt lat="48.61456" lon="2.11411">
        <ele>92</ele>
        <time>2019-10-28T12:51:02.000Z</time>
      </trkpt>
      <trkpt lat="48.61456" lon="2.11409">
        <ele>92</ele>
        <time>2019-10-28T12:51:03.000Z</time>
      </trkpt>
      <trkpt lat="48.61455" lon="2.11407">
        <ele>91</ele>
        <time>2019-10-28T12:51:04.000Z</time>
      </trkpt>
      <trkpt lat="48.61455" lon="2.11405">
        <ele>91</ele>
        <time>2019-10-28T12:51:05.000Z</time>
      </trkpt>
      <trkpt lat="48.61455" lon="2.11404">
        <ele>91</ele>
        <time>2019-10-28T12:51:06.000Z</time>
      </trkpt>
      <trkpt lat="48.61455" lon="2.11402">
        <ele>91</ele>
        <time>2019-10-28T12:51:07.000Z</time>
      </trkpt>
      <trkpt lat="48.61454" lon="2.114">
        <ele>91</ele>
        <time>2019-10-28T12:51:08.000Z</time>
      </trkpt>
      <trkpt lat="48.61454" lon="2.11399">
        <ele>91</ele>
        <time>2019-10-28T12:51:09.000Z</time>
      </trkpt>
      <trkpt lat="48.61454" lon="2.11397">
        <ele>91</ele>
        <time>2019-10-28T12:51:10.000Z</time>
      </trkpt>
      <trkpt lat="48.61453" lon="2.11395">
        <ele>91</ele>
        <time>2019-10-28T12:51:11.000Z</time>
      </trkpt>
      <trkpt lat="48.61453" lon="2.11393">
        <ele>91</ele>
        <time>2019-10-28T12:51:12.000Z</time>
      </trkpt>
      <trkpt lat="48.61453" lon="2.11391">
        <ele>91</ele>
        <time>2019-10-28T12:51:13.000Z</time>
      </trkpt>
      <trkpt lat="48.61452" lon="2.11389">
        <ele>91</ele>
        <time>2019-10-28T12:51:14.000Z</time>
      </trkpt>
      <trkpt lat="48.61452" lon="2.11387">
        <ele>91</ele>
        <time>2019-10-28T12:51:15.000Z</time>
      </trkpt>
      <trkpt lat="48.61451" lon="2.11386">
        <ele>91</ele>
        <time>2019-10-28T12:51:16.000Z</time>
      </trkpt>
      <trkpt lat="48.61451" lon="2.11384">
        <ele>91</ele>
        <time>2019-10-28T12:51:17.000Z</time>
      </trkpt>
      <trkpt lat="48.6145" lon="2.11382">
        <ele>91</ele>
        <time>2019-10-28T12:51:18.000Z</time>
      </trkpt>
      <trkpt lat="48.6145" lon="2.1138">
        <ele>91</ele>
        <time>2019-10-28T12:51:19.000Z</time>
      </trkpt>
      <trkpt lat="48.6145" lon="2.11378">
        <ele>91</ele>
        <time>2019-10-28T12:51:20.000Z</time>
      </trkpt>
      <trkpt lat="48.61449" lon="2.11376">
        <ele>91</ele>
        <time>2019-10-28T12:51:21.000Z</time>
      </trkpt>
      <trkpt lat="48.61449" lon="2.11374">
        <ele>91</ele>
        <time>2019-10-28T12:51:22.000Z</time>
      </trkpt>
      <trkpt lat="48.61448" lon="2.11371">
        <ele>92</ele>
        <time>2019-10-28T12:51:23.000Z</time>
      </trkpt>
      <trkpt lat="48.61448" lon="2.11369">
        <ele>91</ele>
        <time>2019-10-28T12:51:24.000Z</time>
      </trkpt>
      <trkpt lat="48.61448" lon="2.11367">
        <ele>91</ele>
        <time>2019-10-28T12:51:25.000Z</time>
      </trkpt>
      <trkpt lat="48.61447" lon="2.11365">
        <ele>91</ele>
        <time>2019-10-28T12:51:26.000Z</time>
      </trkpt>
      <trkpt lat="48.61447" lon="2.11363">
        <ele>91</ele>
        <time>2019-10-28T12:51:27.000Z</time>
      </trkpt>
      <trkpt lat="48.61447" lon="2.11361">
        <ele>91</ele>
        <time>2019-10-28T12:51:28.000Z</time>
      </trkpt>
      <trkpt lat="48.61446" lon="2.11359">
        <ele>91</ele>
        <time>2019-10-28T12:51:29.000Z</time>
      </trkpt>
      <trkpt lat="48.61446" lon="2.11357">
        <ele>91</ele>
        <time>2019-10-28T12:51:30.000Z</time>
      </trkpt>
      <trkpt lat="48.61446" lon="2.11355">
        <ele>91</ele>
        <time>2019-10-28T12:51:31.000Z</time>
      </trkpt>
      <trkpt lat="48.61445" lon="2.11353">
        <ele>91</ele>
        <time>2019-10-28T12:51:32.000Z</time>
      </trkpt>
      <trkpt lat="48.61445" lon="2.11351">
        <ele>91</ele>
        <time>2019-10-28T12:51:33.000Z</time>
      </trkpt>
      <trkpt lat="48.61445" lon="2.11349">
        <ele>91</ele>
        <time>2019-10-28T12:51:34.000Z</time>
      </trkpt>
      <trkpt lat="48.61445" lon="2.11347">
        <ele>91</ele>
        <time>2019-10-28T12:51:35.000Z</time>
      </trkpt>
      <trkpt lat="48.61445" lon="2.11345">
        <ele>91</ele>
        <time>2019-10-28T12:51:36.000Z</time>
      </trkpt>
      <trkpt lat="48.61445" lon="2.11343">
        <ele>91</ele>
        <time>2019-10-28T12:51:37.000Z</time>
      </trkpt>
      <trkpt lat="48.61444" lon="2.11342">
        <ele>91</ele>
        <time>2019-10-28T12:51:38.000Z</time>
      </trkpt>
      <trkpt lat="48.61444" lon="2.1134">
        <ele>91</ele>
        <time>2019-10-28T12:51:39.000Z</time>
      </trkpt>
      <trkpt lat="48.61444" lon="2.11338">
        <ele>91</ele>
        <time>2019-10-28T12:51:40.000Z</time>
      </trkpt>
      <trkpt lat="48.61444" lon="2.11336">
        <ele>91</ele>
        <time>2019-10-28T12:51:41.000Z</time>
      </trkpt>
      <trkpt lat="48.61444" lon="2.11334">
        <ele>92</ele>
        <time>2019-10-28T12:51:42.000Z</time>
      </trkpt>
      <trkpt lat="48.61444" lon="2.11332">
        <ele>92</ele>
        <time>2019-10-28T12:51:43.000Z</time>
      </trkpt>
      <trkpt lat="48.61445" lon="2.1133">
        <ele>92</ele>
        <time>2019-10-28T12:51:44.000Z</time>
      </trkpt>
      <trkpt lat="48.61445" lon="2.11328">
        <ele>92</ele>
        <time>2019-10-28T12:51:45.000Z</time>
      </trkpt>
      <trkpt lat="48.61445" lon="2.11326">
        <ele>92</ele>
        <time>2019-10-28T12:51:46.000Z</time>
      </trkpt>
      <trkpt lat="48.61445" lon="2.11325">
        <ele>92</ele>
        <time>2019-10-28T12:51:47.000Z</time>
      </trkpt>
      <trkpt lat="48.61445" lon="2.11323">
        <ele>92</ele>
        <time>2019-10-28T12:51:48.000Z</time>
      </trkpt>
      <trkpt lat="48.61445" lon="2.11321">
        <ele>92</ele>
        <time>2019-10-28T12:51:49.000Z</time>
      </trkpt>
      <trkpt lat="48.61445" lon="2.11319">
        <ele>93</ele>
        <time>2019-10-28T12:51:50.000Z</time>
      </trkpt>
      <trkpt lat="48.61445" lon="2.11317">
        <ele>93</ele>
        <time>2019-10-28T12:51:51.000Z</time>
      </trkpt>
      <trkpt lat="48.61445" lon="2.11315">
        <ele>93</ele>
        <time>2019-10-28T12:51:52.000Z</time>
      </trkpt>
      <trkpt lat="48.61445" lon="2.11313">
        <ele>93</ele>
        <time>2019-10-28T12:51:53.000Z</time>
      </trkpt>
      <trkpt lat="48.61445" lon="2.11312">
        <ele>93</ele>
        <time>2019-10-28T12:51:54.000Z</time>
      </trkpt>
      <trkpt lat="48.61445" lon="2.1131">
        <ele>93</ele>
        <time>2019-10-28T12:51:55.000Z</time>
      </trkpt>
      <trkpt lat="48.61444" lon="2.11308">
        <ele>93</ele>
        <time>2019-10-28T12:51:56.000Z</time>
      </trkpt>
      <trkpt lat="48.61444" lon="2.11306">
        <ele>93</ele>
        <time>2019-10-28T12:51:57.000Z</time>
      </trkpt>
      <trkpt lat="48.61444" lon="2.11304">
        <ele>93</ele>
        <time>2019-10-28T12:51:58.000Z</time>
      </trkpt>
      <trkpt lat="48.61444" lon="2.11302">
        <ele>93</ele>
        <time>2019-10-28T12:51:59.000Z</time>
      </trkpt>
      <trkpt lat="48.61444" lon="2.113">
        <ele>93</ele>
        <time>2019-10-28T12:52:00.000Z</time>
      </trkpt>
      <trkpt lat="48.61444" lon="2.11298">
        <ele>92</ele>
        <time>2019-10-28T12:52:01.000Z</time>
      </trkpt>
      <trkpt lat="48.61444" lon="2.11296">
        <ele>92</ele>
        <time>2019-10-28T12:52:02.000Z</time>
      </trkpt>
      <trkpt lat="48.61444" lon="2.11294">
        <ele>92</ele>
        <time>2019-10-28T12:52:03.000Z</time>
      </trkpt>
      <trkpt lat="48.61444" lon="2.11292">
        <ele>92</ele>
        <time>2019-10-28T12:52:04.000Z</time>
      </trkpt>
      <trkpt lat="48.61444" lon="2.1129">
        <ele>92</ele>
        <time>2019-10-28T12:52:05.000Z</time>
      </trkpt>
      <trkpt lat="48.61444" lon="2.11288">
        <ele>92</ele>
        <time>2019-10-28T12:52:06.000Z</time>
      </trkpt>
      <trkpt lat="48.61444" lon="2.11286">
        <ele>92</ele>
        <time>2019-10-28T12:52:07.000Z</time>
      </trkpt>
      <trkpt lat="48.61444" lon="2.11284">
        <ele>93</ele>
        <time>2019-10-28T12:52:08.000Z</time>
      </trkpt>
      <trkpt lat="48.61444" lon="2.11282">
        <ele>93</ele>
        <time>2019-10-28T12:52:09.000Z</time>
      </trkpt>
      <trkpt lat="48.61444" lon="2.1128">
        <ele>93</ele>
        <time>2019-10-28T12:52:10.000Z</time>
      </trkpt>
      <trkpt lat="48.61444" lon="2.11278">
        <ele>93</ele>
        <time>2019-10-28T12:52:11.000Z</time>
      </trkpt>
      <trkpt lat="48.61444" lon="2.11276">
        <ele>93</ele>
        <time>2019-10-28T12:52:12.000Z</time>
      </trkpt>
      <trkpt lat="48.61444" lon="2.11273">
        <ele>93</ele>
        <time>2019-10-28T12:52:13.000Z</time>
      </trkpt>
      <trkpt lat="48.61444" lon="2.11271">
        <ele>93</ele>
        <time>2019-10-28T12:52:14.000Z</time>
      </trkpt>
      <trkpt lat="48.61444" lon="2.11269">
        <ele>94</ele>
        <time>2019-10-28T12:52:15.000Z</time>
      </trkpt>
      <trkpt lat="48.61444" lon="2.11268">
        <ele>94</ele>
        <time>2019-10-28T12:52:16.000Z</time>
      </trkpt>
      <trkpt lat="48.61445" lon="2.11266">
        <ele>94</ele>
        <time>2019-10-28T12:52:17.000Z</time>
      </trkpt>
      <trkpt lat="48.61445" lon="2.11264">
        <ele>94</ele>
        <time>2019-10-28T12:52:18.000Z</time>
      </trkpt>
      <trkpt lat="48.61445" lon="2.11262">
        <ele>94</ele>
        <time>2019-10-28T12:52:19.000Z</time>
      </trkpt>
      <trkpt lat="48.61445" lon="2.1126">
        <ele>94</ele>
        <time>2019-10-28T12:52:20.000Z</time>
      </trkpt>
      <trkpt lat="48.61446" lon="2.11258">
        <ele>94</ele>
        <time>2019-10-28T12:52:21.000Z</time>
      </trkpt>
      <trkpt lat="48.61446" lon="2.11256">
        <ele>94</ele>
        <time>2019-10-28T12:52:22.000Z</time>
      </trkpt>
      <trkpt lat="48.61446" lon="2.11254">
        <ele>94</ele>
        <time>2019-10-28T12:52:23.000Z</time>
      </trkpt>
      <trkpt lat="48.61447" lon="2.11252">
        <ele>94</ele>
        <time>2019-10-28T12:52:24.000Z</time>
      </trkpt>
      <trkpt lat="48.61447" lon="2.11251">
        <ele>94</ele>
        <time>2019-10-28T12:52:25.000Z</time>
      </trkpt>
      <trkpt lat="48.61448" lon="2.11249">
        <ele>94</ele>
        <time>2019-10-28T12:52:26.000Z</time>
      </trkpt>
      <trkpt lat="48.61448" lon="2.11247">
        <ele>95</ele>
        <time>2019-10-28T12:52:27.000Z</time>
      </trkpt>
      <trkpt lat="48.61449" lon="2.11245">
        <ele>94</ele>
        <time>2019-10-28T12:52:28.000Z</time>
      </trkpt>
      <trkpt lat="48.61449" lon="2.11244">
        <ele>94</ele>
        <time>2019-10-28T12:52:29.000Z</time>
      </trkpt>
      <trkpt lat="48.6145" lon="2.11242">
        <ele>94</ele>
        <time>2019-10-28T12:52:30.000Z</time>
      </trkpt>
      <trkpt lat="48.6145" lon="2.1124">
        <ele>94</ele>
        <time>2019-10-28T12:52:31.000Z</time>
      </trkpt>
      <trkpt lat="48.61451" lon="2.11238">
        <ele>94</ele>
        <time>2019-10-28T12:52:32.000Z</time>
      </trkpt>
      <trkpt lat="48.61451" lon="2.11237">
        <ele>94</ele>
        <time>2019-10-28T12:52:33.000Z</time>
      </trkpt>
      <trkpt lat="48.61452" lon="2.11235">
        <ele>95</ele>
        <time>2019-10-28T12:52:34.000Z</time>
      </trkpt>
      <trkpt lat="48.61453" lon="2.11233">
        <ele>95</ele>
        <time>2019-10-28T12:52:35.000Z</time>
      </trkpt>
      <trkpt lat="48.61453" lon="2.11231">
        <ele>95</ele>
        <time>2019-10-28T12:52:36.000Z</time>
      </trkpt>
      <trkpt lat="48.61454" lon="2.1123">
        <ele>95</ele>
        <time>2019-10-28T12:52:37.000Z</time>
      </trkpt>
      <trkpt lat="48.61454" lon="2.11228">
        <ele>95</ele>
        <time>2019-10-28T12:52:38.000Z</time>
      </trkpt>
      <trkpt lat="48.61455" lon="2.11226">
        <ele>95</ele>
        <time>2019-10-28T12:52:39.000Z</time>
      </trkpt>
      <trkpt lat="48.61455" lon="2.11224">
        <ele>95</ele>
        <time>2019-10-28T12:52:40.000Z</time>
      </trkpt>
      <trkpt lat="48.61455" lon="2.11223">
        <ele>95</ele>
        <time>2019-10-28T12:52:41.000Z</time>
      </trkpt>
      <trkpt lat="48.61456" lon="2.11221">
        <ele>95</ele>
        <time>2019-10-28T12:52:42.000Z</time>
      </trkpt>
      <trkpt lat="48.61456" lon="2.11219">
        <ele>95</ele>
        <time>2019-10-28T12:52:43.000Z</time>
      </trkpt>
      <trkpt lat="48.61457" lon="2.11217">
        <ele>95</ele>
        <time>2019-10-28T12:52:44.000Z</time>
      </trkpt>
      <trkpt lat="48.61457" lon="2.11215">
        <ele>95</ele>
        <time>2019-10-28T12:52:45.000Z</time>
      </trkpt>
      <trkpt lat="48.61458" lon="2.11214">
        <ele>95</ele>
        <time>2019-10-28T12:52:46.000Z</time>
      </trkpt>
      <trkpt lat="48.61458" lon="2.11212">
        <ele>95</ele>
        <time>2019-10-28T12:52:47.000Z</time>
      </trkpt>
      <trkpt lat="48.61458" lon="2.1121">
        <ele>95</ele>
        <time>2019-10-28T12:52:48.000Z</time>
      </trkpt>
      <trkpt lat="48.61459" lon="2.11208">
        <ele>95</ele>
        <time>2019-10-28T12:52:49.000Z</time>
      </trkpt>
      <trkpt lat="48.61459" lon="2.11206">
        <ele>95</ele>
        <time>2019-10-28T12:52:50.000Z</time>
      </trkpt>
      <trkpt lat="48.6146" lon="2.11204">
        <ele>95</ele>
        <time>2019-10-28T12:52:51.000Z</time>
      </trkpt>
      <trkpt lat="48.6146" lon="2.11202">
        <ele>95</ele>
        <time>2019-10-28T12:52:52.000Z</time>
      </trkpt>
      <trkpt lat="48.6146" lon="2.112">
        <ele>95</ele>
        <time>2019-10-28T12:52:53.000Z</time>
      </trkpt>
      <trkpt lat="48.61461" lon="2.11198">
        <ele>95</ele>
        <time>2019-10-28T12:52:54.000Z</time>
      </trkpt>
      <trkpt lat="48.61461" lon="2.11197">
        <ele>95</ele>
        <time>2019-10-28T12:52:55.000Z</time>
      </trkpt>
      <trkpt lat="48.61462" lon="2.11195">
        <ele>95</ele>
        <time>2019-10-28T12:52:56.000Z</time>
      </trkpt>
      <trkpt lat="48.61462" lon="2.11193">
        <ele>95</ele>
        <time>2019-10-28T12:52:57.000Z</time>
      </trkpt>
      <trkpt lat="48.61462" lon="2.11191">
        <ele>95</ele>
        <time>2019-10-28T12:52:58.000Z</time>
      </trkpt>
      <trkpt lat="48.61462" lon="2.11189">
        <ele>95</ele>
        <time>2019-10-28T12:52:59.000Z</time>
      </trkpt>
      <trkpt lat="48.61462" lon="2.11187">
        <ele>95</ele>
        <time>2019-10-28T12:53:00.000Z</time>
      </trkpt>
      <trkpt lat="48.61462" lon="2.11185">
        <ele>95</ele>
        <time>2019-10-28T12:53:01.000Z</time>
      </trkpt>
      <trkpt lat="48.61462" lon="2.11183">
        <ele>95</ele>
        <time>2019-10-28T12:53:02.000Z</time>
      </trkpt>
      <trkpt lat="48.61462" lon="2.11181">
        <ele>95</ele>
        <time>2019-10-28T12:53:03.000Z</time>
      </trkpt>
      <trkpt lat="48.61462" lon="2.11179">
        <ele>95</ele>
        <time>2019-10-28T12:53:04.000Z</time>
      </trkpt>
      <trkpt lat="48.61462" lon="2.11177">
        <ele>95</ele>
        <time>2019-10-28T12:53:05.000Z</time>
      </trkpt>
      <trkpt lat="48.61462" lon="2.11176">
        <ele>95</ele>
        <time>2019-10-28T12:53:06.000Z</time>
      </trkpt>
      <trkpt lat="48.61463" lon="2.11174">
        <ele>95</ele>
        <time>2019-10-28T12:53:07.000Z</time>
      </trkpt>
      <trkpt lat="48.61463" lon="2.11172">
        <ele>95</ele>
        <time>2019-10-28T12:53:08.000Z</time>
      </trkpt>
      <trkpt lat="48.61463" lon="2.1117">
        <ele>95</ele>
        <time>2019-10-28T12:53:09.000Z</time>
      </trkpt>
      <trkpt lat="48.61463" lon="2.11168">
        <ele>95</ele>
        <time>2019-10-28T12:53:10.000Z</time>
      </trkpt>
      <trkpt lat="48.61463" lon="2.11166">
        <ele>95</ele>
        <time>2019-10-28T12:53:11.000Z</time>
      </trkpt>
      <trkpt lat="48.61463" lon="2.11164">
        <ele>95</ele>
        <time>2019-10-28T12:53:12.000Z</time>
      </trkpt>
      <trkpt lat="48.61463" lon="2.11162">
        <ele>96</ele>
        <time>2019-10-28T12:53:13.000Z</time>
      </trkpt>
      <trkpt lat="48.61463" lon="2.1116">
        <ele>96</ele>
        <time>2019-10-28T12:53:14.000Z</time>
      </trkpt>
      <trkpt lat="48.61463" lon="2.11159">
        <ele>96</ele>
        <time>2019-10-28T12:53:15.000Z</time>
      </trkpt>
      <trkpt lat="48.61463" lon="2.11157">
        <ele>96</ele>
        <time>2019-10-28T12:53:16.000Z</time>
      </trkpt>
      <trkpt lat="48.61464" lon="2.11155">
        <ele>96</ele>
        <time>2019-10-28T12:53:17.000Z</time>
      </trkpt>
      <trkpt lat="48.61464" lon="2.11154">
        <ele>96</ele>
        <time>2019-10-28T12:53:18.000Z</time>
      </trkpt>
      <trkpt lat="48.61464" lon="2.11152">
        <ele>96</ele>
        <time>2019-10-28T12:53:19.000Z</time>
      </trkpt>
      <trkpt lat="48.61464" lon="2.1115">
        <ele>96</ele>
        <time>2019-10-28T12:53:20.000Z</time>
      </trkpt>
      <trkpt lat="48.61464" lon="2.11148">
        <ele>96</ele>
        <time>2019-10-28T12:53:21.000Z</time>
      </trkpt>
      <trkpt lat="48.61465" lon="2.11146">
        <ele>96</ele>
        <time>2019-10-28T12:53:22.000Z</time>
      </trkpt>
      <trkpt lat="48.61465" lon="2.11145">
        <ele>96</ele>
        <time>2019-10-28T12:53:23.000Z</time>
      </trkpt>
      <trkpt lat="48.61465" lon="2.11143">
        <ele>96</ele>
        <time>2019-10-28T12:53:24.000Z</time>
      </trkpt>
      <trkpt lat="48.61465" lon="2.11141">
        <ele>96</ele>
        <time>2019-10-28T12:53:25.000Z</time>
      </trkpt>
      <trkpt lat="48.61465" lon="2.1114">
        <ele>96</ele>
        <time>2019-10-28T12:53:26.000Z</time>
      </trkpt>
      <trkpt lat="48.61465" lon="2.11138">
        <ele>96</ele>
        <time>2019-10-28T12:53:27.000Z</time>
      </trkpt>
      <trkpt lat="48.61466" lon="2.11136">
        <ele>96</ele>
        <time>2019-10-28T12:53:28.000Z</time>
      </trkpt>
      <trkpt lat="48.61466" lon="2.11134">
        <ele>96</ele>
        <time>2019-10-28T12:53:29.000Z</time>
      </trkpt>
      <trkpt lat="48.61466" lon="2.11132">
        <ele>96</ele>
        <time>2019-10-28T12:53:30.000Z</time>
      </trkpt>
      <trkpt lat="48.61466" lon="2.1113">
        <ele>96</ele>
        <time>2019-10-28T12:53:31.000Z</time>
      </trkpt>
      <trkpt lat="48.61467" lon="2.11128">
        <ele>96</ele>
        <time>2019-10-28T12:53:32.000Z</time>
      </trkpt>
      <trkpt lat="48.61467" lon="2.11126">
        <ele>96</ele>
        <time>2019-10-28T12:53:33.000Z</time>
      </trkpt>
      <trkpt lat="48.61467" lon="2.11124">
        <ele>96</ele>
        <time>2019-10-28T12:53:34.000Z</time>
      </trkpt>
      <trkpt lat="48.61467" lon="2.11123">
        <ele>97</ele>
        <time>2019-10-28T12:53:35.000Z</time>
      </trkpt>
      <trkpt lat="48.61467" lon="2.11121">
        <ele>97</ele>
        <time>2019-10-28T12:53:36.000Z</time>
      </trkpt>
      <trkpt lat="48.61467" lon="2.11119">
        <ele>97</ele>
        <time>2019-10-28T12:53:37.000Z</time>
      </trkpt>
      <trkpt lat="48.61467" lon="2.11117">
        <ele>97</ele>
        <time>2019-10-28T12:53:38.000Z</time>
      </trkpt>
      <trkpt lat="48.61467" lon="2.11115">
        <ele>97</ele>
        <time>2019-10-28T12:53:39.000Z</time>
      </trkpt>
      <trkpt lat="48.61467" lon="2.11113">
        <ele>97</ele>
        <time>2019-10-28T12:53:40.000Z</time>
      </trkpt>
      <trkpt lat="48.61468" lon="2.11111">
        <ele>97</ele>
        <time>2019-10-28T12:53:41.000Z</time>
      </trkpt>
      <trkpt lat="48.61468" lon="2.11109">
        <ele>97</ele>
        <time>2019-10-28T12:53:42.000Z</time>
      </trkpt>
      <trkpt lat="48.61468" lon="2.11107">
        <ele>97</ele>
        <time>2019-10-28T12:53:43.000Z</time>
      </trkpt>
      <trkpt lat="48.61469" lon="2.11105">
        <ele>97</ele>
        <time>2019-10-28T12:53:44.000Z</time>
      </trkpt>
      <trkpt lat="48.61469" lon="2.11103">
        <ele>97</ele>
        <time>2019-10-28T12:53:45.000Z</time>
      </trkpt>
      <trkpt lat="48.6147" lon="2.11102">
        <ele>97</ele>
        <time>2019-10-28T12:53:46.000Z</time>
      </trkpt>
      <trkpt lat="48.6147" lon="2.111">
        <ele>97</ele>
        <time>2019-10-28T12:53:47.000Z</time>
      </trkpt>
      <trkpt lat="48.61471" lon="2.11098">
        <ele>97</ele>
        <time>2019-10-28T12:53:48.000Z</time>
      </trkpt>
      <trkpt lat="48.61472" lon="2.11096">
        <ele>97</ele>
        <time>2019-10-28T12:53:49.000Z</time>
      </trkpt>
      <trkpt lat="48.61472" lon="2.11095">
        <ele>97</ele>
        <time>2019-10-28T12:53:50.000Z</time>
      </trkpt>
      <trkpt lat="48.61473" lon="2.11093">
        <ele>97</ele>
        <time>2019-10-28T12:53:51.000Z</time>
      </trkpt>
      <trkpt lat="48.61474" lon="2.11092">
        <ele>97</ele>
        <time>2019-10-28T12:53:52.000Z</time>
      </trkpt>
      <trkpt lat="48.61475" lon="2.1109">
        <ele>97</ele>
        <time>2019-10-28T12:53:53.000Z</time>
      </trkpt>
      <trkpt lat="48.61475" lon="2.11088">
        <ele>97</ele>
        <time>2019-10-28T12:53:54.000Z</time>
      </trkpt>
      <trkpt lat="48.61476" lon="2.11087">
        <ele>97</ele>
        <time>2019-10-28T12:53:55.000Z</time>
      </trkpt>
      <trkpt lat="48.61477" lon="2.11085">
        <ele>97</ele>
        <time>2019-10-28T12:53:56.000Z</time>
      </trkpt>
      <trkpt lat="48.61477" lon="2.11084">
        <ele>97</ele>
        <time>2019-10-28T12:53:57.000Z</time>
      </trkpt>
      <trkpt lat="48.61478" lon="2.11082">
        <ele>97</ele>
        <time>2019-10-28T12:53:58.000Z</time>
      </trkpt>
      <trkpt lat="48.61479" lon="2.1108">
        <ele>98</ele>
        <time>2019-10-28T12:53:59.000Z</time>
      </trkpt>
      <trkpt lat="48.6148" lon="2.11079">
        <ele>98</ele>
        <time>2019-10-28T12:54:00.000Z</time>
      </trkpt>
      <trkpt lat="48.61481" lon="2.11077">
        <ele>98</ele>
        <time>2019-10-28T12:54:01.000Z</time>
      </trkpt>
      <trkpt lat="48.61481" lon="2.11076">
        <ele>98</ele>
        <time>2019-10-28T12:54:02.000Z</time>
      </trkpt>
      <trkpt lat="48.61482" lon="2.11074">
        <ele>98</ele>
        <time>2019-10-28T12:54:03.000Z</time>
      </trkpt>
      <trkpt lat="48.61483" lon="2.11072">
        <ele>98</ele>
        <time>2019-10-28T12:54:04.000Z</time>
      </trkpt>
      <trkpt lat="48.61484" lon="2.11071">
        <ele>98</ele>
        <time>2019-10-28T12:54:05.000Z</time>
      </trkpt>
      <trkpt lat="48.61485" lon="2.1107">
        <ele>98</ele>
        <time>2019-10-28T12:54:06.000Z</time>
      </trkpt>
      <trkpt lat="48.61485" lon="2.11068">
        <ele>98</ele>
        <time>2019-10-28T12:54:07.000Z</time>
      </trkpt>
      <trkpt lat="48.61486" lon="2.11067">
        <ele>98</ele>
        <time>2019-10-28T12:54:08.000Z</time>
      </trkpt>
      <trkpt lat="48.61487" lon="2.11065">
        <ele>98</ele>
        <time>2019-10-28T12:54:09.000Z</time>
      </trkpt>
      <trkpt lat="48.61488" lon="2.11064">
        <ele>98</ele>
        <time>2019-10-28T12:54:10.000Z</time>
      </trkpt>
      <trkpt lat="48.61489" lon="2.11062">
        <ele>98</ele>
        <time>2019-10-28T12:54:11.000Z</time>
      </trkpt>
      <trkpt lat="48.61489" lon="2.1106">
        <ele>98</ele>
        <time>2019-10-28T12:54:12.000Z</time>
      </trkpt>
      <trkpt lat="48.6149" lon="2.11059">
        <ele>98</ele>
        <time>2019-10-28T12:54:13.000Z</time>
      </trkpt>
      <trkpt lat="48.61491" lon="2.11057">
        <ele>98</ele>
        <time>2019-10-28T12:54:14.000Z</time>
      </trkpt>
      <trkpt lat="48.61492" lon="2.11056">
        <ele>98</ele>
        <time>2019-10-28T12:54:15.000Z</time>
      </trkpt>
      <trkpt lat="48.61492" lon="2.11054">
        <ele>99</ele>
        <time>2019-10-28T12:54:16.000Z</time>
      </trkpt>
      <trkpt lat="48.61493" lon="2.11053">
        <ele>99</ele>
        <time>2019-10-28T12:54:17.000Z</time>
      </trkpt>
      <trkpt lat="48.61494" lon="2.11051">
        <ele>99</ele>
        <time>2019-10-28T12:54:18.000Z</time>
      </trkpt>
      <trkpt lat="48.61495" lon="2.1105">
        <ele>99</ele>
        <time>2019-10-28T12:54:19.000Z</time>
      </trkpt>
      <trkpt lat="48.61496" lon="2.11048">
        <ele>99</ele>
        <time>2019-10-28T12:54:20.000Z</time>
      </trkpt>
      <trkpt lat="48.61496" lon="2.11047">
        <ele>99</ele>
        <time>2019-10-28T12:54:21.000Z</time>
      </trkpt>
      <trkpt lat="48.61497" lon="2.11045">
        <ele>99</ele>
        <time>2019-10-28T12:54:22.000Z</time>
      </trkpt>
      <trkpt lat="48.61498" lon="2.11044">
        <ele>99</ele>
        <time>2019-10-28T12:54:23.000Z</time>
      </trkpt>
      <trkpt lat="48.61499" lon="2.11042">
        <ele>99</ele>
        <time>2019-10-28T12:54:24.000Z</time>
      </trkpt>
      <trkpt lat="48.615" lon="2.1104">
        <ele>99</ele>
        <time>2019-10-28T12:54:25.000Z</time>
      </trkpt>
      <trkpt lat="48.615" lon="2.11039">
        <ele>99</ele>
        <time>2019-10-28T12:54:26.000Z</time>
      </trkpt>
      <trkpt lat="48.61501" lon="2.11037">
        <ele>100</ele>
        <time>2019-10-28T12:54:27.000Z</time>
      </trkpt>
      <trkpt lat="48.61502" lon="2.11036">
        <ele>100</ele>
        <time>2019-10-28T12:54:28.000Z</time>
      </trkpt>
      <trkpt lat="48.61503" lon="2.11034">
        <ele>100</ele>
        <time>2019-10-28T12:54:29.000Z</time>
      </trkpt>
      <trkpt lat="48.61504" lon="2.11033">
        <ele>100</ele>
        <time>2019-10-28T12:54:30.000Z</time>
      </trkpt>
      <trkpt lat="48.61505" lon="2.11032">
        <ele>100</ele>
        <time>2019-10-28T12:54:31.000Z</time>
      </trkpt>
      <trkpt lat="48.61505" lon="2.1103">
        <ele>100</ele>
        <time>2019-10-28T12:54:32.000Z</time>
      </trkpt>
      <trkpt lat="48.61506" lon="2.11029">
        <ele>100</ele>
        <time>2019-10-28T12:54:33.000Z</time>
      </trkpt>
      <trkpt lat="48.61507" lon="2.11027">
        <ele>100</ele>
        <time>2019-10-28T12:54:34.000Z</time>
      </trkpt>
      <trkpt lat="48.61508" lon="2.11025">
        <ele>100</ele>
        <time>2019-10-28T12:54:35.000Z</time>
      </trkpt>
      <trkpt lat="48.61508" lon="2.11024">
        <ele>100</ele>
        <time>2019-10-28T12:54:36.000Z</time>
      </trkpt>
      <trkpt lat="48.61509" lon="2.11022">
        <ele>101</ele>
        <time>2019-10-28T12:54:37.000Z</time>
      </trkpt>
      <trkpt lat="48.6151" lon="2.1102">
        <ele>101</ele>
        <time>2019-10-28T12:54:38.000Z</time>
      </trkpt>
      <trkpt lat="48.61511" lon="2.11019">
        <ele>101</ele>
        <time>2019-10-28T12:54:39.000Z</time>
      </trkpt>
      <trkpt lat="48.61512" lon="2.11017">
        <ele>101</ele>
        <time>2019-10-28T12:54:40.000Z</time>
      </trkpt>
      <trkpt lat="48.61512" lon="2.11015">
        <ele>101</ele>
        <time>2019-10-28T12:54:41.000Z</time>
      </trkpt>
      <trkpt lat="48.61513" lon="2.11014">
        <ele>101</ele>
        <time>2019-10-28T12:54:42.000Z</time>
      </trkpt>
      <trkpt lat="48.61514" lon="2.11012">
        <ele>101</ele>
        <time>2019-10-28T12:54:43.000Z</time>
      </trkpt>
      <trkpt lat="48.61515" lon="2.1101">
        <ele>101</ele>
        <time>2019-10-28T12:54:44.000Z</time>
      </trkpt>
      <trkpt lat="48.61516" lon="2.11009">
        <ele>101</ele>
        <time>2019-10-28T12:54:45.000Z</time>
      </trkpt>
      <trkpt lat="48.61516" lon="2.11007">
        <ele>101</ele>
        <time>2019-10-28T12:54:46.000Z</time>
      </trkpt>
      <trkpt lat="48.61517" lon="2.11005">
        <ele>101</ele>
        <time>2019-10-28T12:54:47.000Z</time>
      </trkpt>
      <trkpt lat="48.61518" lon="2.11004">
        <ele>101</ele>
        <time>2019-10-28T12:54:48.000Z</time>
      </trkpt>
      <trkpt lat="48.61518" lon="2.11002">
        <ele>101</ele>
        <time>2019-10-28T12:54:49.000Z</time>
      </trkpt>
      <trkpt lat="48.61519" lon="2.11">
        <ele>101</ele>
        <time>2019-10-28T12:54:50.000Z</time>
      </trkpt>
      <trkpt lat="48.6152" lon="2.10998">
        <ele>101</ele>
        <time>2019-10-28T12:54:51.000Z</time>
      </trkpt>
      <trkpt lat="48.61521" lon="2.10997">
        <ele>101</ele>
        <time>2019-10-28T12:54:52.000Z</time>
      </trkpt>
      <trkpt lat="48.61522" lon="2.10995">
        <ele>101</ele>
        <time>2019-10-28T12:54:53.000Z</time>
      </trkpt>
      <trkpt lat="48.61522" lon="2.10993">
        <ele>101</ele>
        <time>2019-10-28T12:54:54.000Z</time>
      </trkpt>
      <trkpt lat="48.61523" lon="2.10992">
        <ele>101</ele>
        <time>2019-10-28T12:54:55.000Z</time>
      </trkpt>
      <trkpt lat="48.61524" lon="2.1099">
        <ele>101</ele>
        <time>2019-10-28T12:54:56.000Z</time>
      </trkpt>
      <trkpt lat="48.61524" lon="2.10988">
        <ele>101</ele>
        <time>2019-10-28T12:54:57.000Z</time>
      </trkpt>
      <trkpt lat="48.61525" lon="2.10986">
        <ele>101</ele>
        <time>2019-10-28T12:54:58.000Z</time>
      </trkpt>
      <trkpt lat="48.61525" lon="2.10984">
        <ele>101</ele>
        <time>2019-10-28T12:54:59.000Z</time>
      </trkpt>
      <trkpt lat="48.61526" lon="2.10982">
        <ele>101</ele>
        <time>2019-10-28T12:55:00.000Z</time>
      </trkpt>
      <trkpt lat="48.61527" lon="2.10981">
        <ele>101</ele>
        <time>2019-10-28T12:55:01.000Z</time>
      </trkpt>
      <trkpt lat="48.61527" lon="2.10979">
        <ele>101</ele>
        <time>2019-10-28T12:55:02.000Z</time>
      </trkpt>
      <trkpt lat="48.61528" lon="2.10977">
        <ele>101</ele>
        <time>2019-10-28T12:55:03.000Z</time>
      </trkpt>
      <trkpt lat="48.61528" lon="2.10975">
        <ele>101</ele>
        <time>2019-10-28T12:55:04.000Z</time>
      </trkpt>
      <trkpt lat="48.61529" lon="2.10973">
        <ele>101</ele>
        <time>2019-10-28T12:55:05.000Z</time>
      </trkpt>
      <trkpt lat="48.61529" lon="2.10972">
        <ele>101</ele>
        <time>2019-10-28T12:55:06.000Z</time>
      </trkpt>
      <trkpt lat="48.6153" lon="2.1097">
        <ele>101</ele>
        <time>2019-10-28T12:55:07.000Z</time>
      </trkpt>
      <trkpt lat="48.61531" lon="2.10968">
        <ele>102</ele>
        <time>2019-10-28T12:55:08.000Z</time>
      </trkpt>
      <trkpt lat="48.61531" lon="2.10966">
        <ele>102</ele>
        <time>2019-10-28T12:55:09.000Z</time>
      </trkpt>
      <trkpt lat="48.61532" lon="2.10965">
        <ele>102</ele>
        <time>2019-10-28T12:55:10.000Z</time>
      </trkpt>
      <trkpt lat="48.61533" lon="2.10963">
        <ele>102</ele>
        <time>2019-10-28T12:55:11.000Z</time>
      </trkpt>
      <trkpt lat="48.61533" lon="2.10962">
        <ele>102</ele>
        <time>2019-10-28T12:55:12.000Z</time>
      </trkpt>
      <trkpt lat="48.61533" lon="2.10962">
        <ele>102</ele>
        <time>2019-10-28T12:55:13.000Z</time>
      </trkpt>
      <trkpt lat="48.61534" lon="2.10962">
        <ele>102</ele>
        <time>2019-10-28T12:55:14.000Z</time>
      </trkpt>
      <trkpt lat="48.61534" lon="2.10962">
        <ele>102</ele>
        <time>2019-10-28T12:55:15.000Z</time>
      </trkpt>
      <trkpt lat="48.61534" lon="2.10962">
        <ele>102</ele>
        <time>2019-10-28T12:55:16.000Z</time>
      </trkpt>
      <trkpt lat="48.61534" lon="2.10962">
        <ele>102</ele>
        <time>2019-10-28T12:55:17.000Z</time>
      </trkpt>
      <trkpt lat="48.61534" lon="2.10962">
        <ele>102</ele>
        <time>2019-10-28T12:55:18.000Z</time>
      </trkpt>
      <trkpt lat="48.61534" lon="2.10961">
        <ele>102</ele>
        <time>2019-10-28T12:55:19.000Z</time>
      </trkpt>
      <trkpt lat="48.61534" lon="2.10961">
        <ele>102</ele>
        <time>2019-10-28T12:55:20.000Z</time>
      </trkpt>
      <trkpt lat="48.61534" lon="2.10961">
        <ele>102</ele>
        <time>2019-10-28T12:55:21.000Z</time>
      </trkpt>
      <trkpt lat="48.61534" lon="2.10961">
        <ele>102</ele>
        <time>2019-10-28T12:55:22.000Z</time>
      </trkpt>
      <trkpt lat="48.61534" lon="2.10961">
        <ele>102</ele>
        <time>2019-10-28T12:55:23.000Z</time>
      </trkpt>
      <trkpt lat="48.61534" lon="2.10961">
        <ele>102</ele>
        <time>2019-10-28T12:55:24.000Z</time>
      </trkpt>
      <trkpt lat="48.61534" lon="2.10961">
        <ele>102</ele>
        <time>2019-10-28T12:55:25.000Z</time>
      </trkpt>
      <trkpt lat="48.61534" lon="2.10961">
        <ele>102</ele>
        <time>2019-10-28T12:55:26.000Z</time>
      </trkpt>
      <trkpt lat="48.61534" lon="2.10961">
        <ele>103</ele>
        <time>2019-10-28T12:55:27.000Z</time>
      </trkpt>
      <trkpt lat="48.61534" lon="2.10961">
        <ele>103</ele>
        <time>2019-10-28T12:55:28.000Z</time>
      </trkpt>
      <trkpt lat="48.61534" lon="2.10961">
        <ele>103</ele>
        <time>2019-10-28T12:55:29.000Z</time>
      </trkpt>
      <trkpt lat="48.61534" lon="2.10961">
        <ele>103</ele>
        <time>2019-10-28T12:55:30.000Z</time>
      </trkpt>
      <trkpt lat="48.61534" lon="2.10961">
        <ele>103</ele>
        <time>2019-10-28T12:55:31.000Z</time>
      </trkpt>
      <trkpt lat="48.61534" lon="2.10961">
        <ele>103</ele>
        <time>2019-10-28T12:55:32.000Z</time>
      </trkpt>
      <trkpt lat="48.61534" lon="2.10961">
        <ele>103</ele>
        <time>2019-10-28T12:55:33.000Z</time>
      </trkpt>
      <trkpt lat="48.61534" lon="2.10961">
        <ele>103</ele>
        <time>2019-10-28T12:55:34.000Z</time>
      </trkpt>
      <trkpt lat="48.61534" lon="2.1096">
        <ele>103</ele>
        <time>2019-10-28T12:55:35.000Z</time>
      </trkpt>
      <trkpt lat="48.61534" lon="2.1096">
        <ele>103</ele>
        <time>2019-10-28T12:55:36.000Z</time>
      </trkpt>
      <trkpt lat="48.61534" lon="2.1096">
        <ele>103</ele>
        <time>2019-10-28T12:55:37.000Z</time>
      </trkpt>
      <trkpt lat="48.61534" lon="2.1096">
        <ele>104</ele>
        <time>2019-10-28T12:55:38.000Z</time>
      </trkpt>
      <trkpt lat="48.61534" lon="2.10959">
        <ele>103</ele>
        <time>2019-10-28T12:55:39.000Z</time>
      </trkpt>
      <trkpt lat="48.61534" lon="2.10959">
        <ele>104</ele>
        <time>2019-10-28T12:55:40.000Z</time>
      </trkpt>
      <trkpt lat="48.61534" lon="2.10959">
        <ele>104</ele>
        <time>2019-10-28T12:55:41.000Z</time>
      </trkpt>
      <trkpt lat="48.61534" lon="2.10959">
        <ele>104</ele>
        <time>2019-10-28T12:55:42.000Z</time>
      </trkpt>
      <trkpt lat="48.61534" lon="2.10959">
        <ele>103</ele>
        <time>2019-10-28T12:55:43.000Z</time>
      </trkpt>
      <trkpt lat="48.61534" lon="2.10959">
        <ele>103</ele>
        <time>2019-10-28T12:55:44.000Z</time>
      </trkpt>
      <trkpt lat="48.61534" lon="2.10959">
        <ele>103</ele>
        <time>2019-10-28T12:55:45.000Z</time>
      </trkpt>
      <trkpt lat="48.61534" lon="2.10959">
        <ele>103</ele>
        <time>2019-10-28T12:55:46.000Z</time>
      </trkpt>
      <trkpt lat="48.61534" lon="2.10959">
        <ele>103</ele>
        <time>2019-10-28T12:55:47.000Z</time>
      </trkpt>
      <trkpt lat="48.61534" lon="2.10959">
        <ele>103</ele>
        <time>2019-10-28T12:55:48.000Z</time>
      </trkpt>
      <trkpt lat="48.61534" lon="2.10959">
        <ele>103</ele>
        <time>2019-10-28T12:55:49.000Z</time>
      </trkpt>
      <trkpt lat="48.61534" lon="2.1096">
        <ele>103</ele>
        <time>2019-10-28T12:55:50.000Z</time>
      </trkpt>
      <trkpt lat="48.61535" lon="2.10959">
        <ele>103</ele>
        <time>2019-10-28T12:55:51.000Z</time>
      </trkpt>
      <trkpt lat="48.61535" lon="2.10959">
        <ele>103</ele>
        <time>2019-10-28T12:55:52.000Z</time>
      </trkpt>
      <trkpt lat="48.61534" lon="2.10959">
        <ele>103</ele>
        <time>2019-10-28T12:55:53.000Z</time>
      </trkpt>
      <trkpt lat="48.61534" lon="2.10959">
        <ele>103</ele>
        <time>2019-10-28T12:55:54.000Z</time>
      </trkpt>
      <trkpt lat="48.61534" lon="2.10959">
        <ele>103</ele>
        <time>2019-10-28T12:55:55.000Z</time>
      </trkpt>
      <trkpt lat="48.61533" lon="2.10959">
        <ele>103</ele>
        <time>2019-10-28T12:55:56.000Z</time>
      </trkpt>
      <trkpt lat="48.61533" lon="2.10959">
        <ele>103</ele>
        <time>2019-10-28T12:55:57.000Z</time>
      </trkpt>
      <trkpt lat="48.61533" lon="2.10959">
        <ele>103</ele>
        <time>2019-10-28T12:55:58.000Z</time>
      </trkpt>
      <trkpt lat="48.61533" lon="2.10958">
        <ele>103</ele>
        <time>2019-10-28T12:55:59.000Z</time>
      </trkpt>
      <trkpt lat="48.61533" lon="2.10957">
        <ele>102</ele>
        <time>2019-10-28T12:56:00.000Z</time>
      </trkpt>
      <trkpt lat="48.61533" lon="2.10956">
        <ele>102</ele>
        <time>2019-10-28T12:56:01.000Z</time>
      </trkpt>
      <trkpt lat="48.61533" lon="2.10956">
        <ele>102</ele>
        <time>2019-10-28T12:56:02.000Z</time>
      </trkpt>
      <trkpt lat="48.61533" lon="2.10956">
        <ele>102</ele>
        <time>2019-10-28T12:56:03.000Z</time>
      </trkpt>
      <trkpt lat="48.61533" lon="2.10956">
        <ele>102</ele>
        <time>2019-10-28T12:56:04.000Z</time>
      </trkpt>
      <trkpt lat="48.61533" lon="2.10956">
        <ele>102</ele>
        <time>2019-10-28T12:56:05.000Z</time>
      </trkpt>
      <trkpt lat="48.61533" lon="2.10956">
        <ele>102</ele>
        <time>2019-10-28T12:56:06.000Z</time>
      </trkpt>
      <trkpt lat="48.61533" lon="2.10956">
        <ele>102</ele>
        <time>2019-10-28T12:56:07.000Z</time>
      </trkpt>
      <trkpt lat="48.61533" lon="2.10956">
        <ele>102</ele>
        <time>2019-10-28T12:56:08.000Z</time>
      </trkpt>
      <trkpt lat="48.61533" lon="2.10955">
        <ele>102</ele>
        <time>2019-10-28T12:56:09.000Z</time>
      </trkpt>
      <trkpt lat="48.61533" lon="2.10954">
        <ele>102</ele>
        <time>2019-10-28T12:56:10.000Z</time>
      </trkpt>
      <trkpt lat="48.61534" lon="2.10953">
        <ele>102</ele>
        <time>2019-10-28T12:56:11.000Z</time>
      </trkpt>
      <trkpt lat="48.61534" lon="2.10952">
        <ele>102</ele>
        <time>2019-10-28T12:56:12.000Z</time>
      </trkpt>
      <trkpt lat="48.61534" lon="2.10951">
        <ele>102</ele>
        <time>2019-10-28T12:56:13.000Z</time>
      </trkpt>
      <trkpt lat="48.61535" lon="2.10949">
        <ele>101</ele>
        <time>2019-10-28T12:56:14.000Z</time>
      </trkpt>
      <trkpt lat="48.61535" lon="2.10948">
        <ele>101</ele>
        <time>2019-10-28T12:56:15.000Z</time>
      </trkpt>
      <trkpt lat="48.61535" lon="2.10946">
        <ele>101</ele>
        <time>2019-10-28T12:56:16.000Z</time>
      </trkpt>
      <trkpt lat="48.61535" lon="2.10944">
        <ele>100</ele>
        <time>2019-10-28T12:56:17.000Z</time>
      </trkpt>
      <trkpt lat="48.61535" lon="2.10943">
        <ele>101</ele>
        <time>2019-10-28T12:56:18.000Z</time>
      </trkpt>
      <trkpt lat="48.61535" lon="2.10941">
        <ele>101</ele>
        <time>2019-10-28T12:56:19.000Z</time>
      </trkpt>
      <trkpt lat="48.61535" lon="2.1094">
        <ele>101</ele>
        <time>2019-10-28T12:56:20.000Z</time>
      </trkpt>
      <trkpt lat="48.61534" lon="2.10938">
        <ele>101</ele>
        <time>2019-10-28T12:56:21.000Z</time>
      </trkpt>
      <trkpt lat="48.61534" lon="2.10937">
        <ele>101</ele>
        <time>2019-10-28T12:56:22.000Z</time>
      </trkpt>
      <trkpt lat="48.61534" lon="2.10935">
        <ele>101</ele>
        <time>2019-10-28T12:56:23.000Z</time>
      </trkpt>
      <trkpt lat="48.61534" lon="2.10934">
        <ele>101</ele>
        <time>2019-10-28T12:56:24.000Z</time>
      </trkpt>
      <trkpt lat="48.61534" lon="2.10932">
        <ele>101</ele>
        <time>2019-10-28T12:56:25.000Z</time>
      </trkpt>
    </trkseg>
  </trk>
</gpx>